<?xml version="1.0" encoding="UTF-8" standalone="no" ?>
<gpx xmlns="http://www.topografix.com/GPX/1/1" xmlns:xsi="http://www.w3.org/2001/XMLSchema-instance" xsi:schemaLocation="http://www.topografix.com/GPX/1/1 http://www.topografix.com/GPX/1/1/gpx.xsd" version="1.1" creator="VisuGPX - https://www.visugpx.com">
  <metadata>
    <name>2018-02-09 Bike ride-Georges de Reneins O v47k</name>
    <desc><![CDATA[2018-02-09 Bike ride-Georges de Reneins O v47k]]></desc>
  </metadata>
  <wpt lat="45.92458" lon="4.73713">
    <ele>174</ele>
    <name><![CDATA[2018-02-09 10:27 (Start)]]></name>
  </wpt>
  <wpt lat="45.9246" lon="4.7371">
    <ele>174</ele>
    <name><![CDATA[2018-02-09 10:27 (End)]]></name>
  </wpt>
  <trk>
    <name><![CDATA[2018-02-09 10:27]]></name>
    <trkseg>
      <trkpt lat="45.92458" lon="4.73713">
        <ele>174</ele>
        <time>2018-02-09T09:27:05.512Z</time>
      </trkpt>
      <trkpt lat="45.92459" lon="4.73711">
        <ele>174</ele>
        <time>2018-02-09T09:27:12Z</time>
      </trkpt>
      <trkpt lat="45.92459" lon="4.73711">
        <ele>174</ele>
        <time>2018-02-09T09:27:13Z</time>
      </trkpt>
      <trkpt lat="45.92461" lon="4.73712">
        <ele>174</ele>
        <time>2018-02-09T09:27:21Z</time>
      </trkpt>
      <trkpt lat="45.92461" lon="4.73712">
        <ele>174</ele>
        <time>2018-02-09T09:27:22Z</time>
      </trkpt>
      <trkpt lat="45.92467" lon="4.73705">
        <ele>174</ele>
        <time>2018-02-09T09:27:27Z</time>
      </trkpt>
      <trkpt lat="45.92468" lon="4.73703">
        <ele>174</ele>
        <time>2018-02-09T09:27:28Z</time>
      </trkpt>
      <trkpt lat="45.92469" lon="4.73691">
        <ele>174</ele>
        <time>2018-02-09T09:27:32Z</time>
      </trkpt>
      <trkpt lat="45.92469" lon="4.73687">
        <ele>174</ele>
        <time>2018-02-09T09:27:33Z</time>
      </trkpt>
      <trkpt lat="45.9247" lon="4.73677">
        <ele>174</ele>
        <time>2018-02-09T09:27:36Z</time>
      </trkpt>
      <trkpt lat="45.92471" lon="4.73673">
        <ele>174</ele>
        <time>2018-02-09T09:27:37Z</time>
      </trkpt>
      <trkpt lat="45.92472" lon="4.73662">
        <ele>174</ele>
        <time>2018-02-09T09:27:39Z</time>
      </trkpt>
      <trkpt lat="45.92472" lon="4.73657">
        <ele>174</ele>
        <time>2018-02-09T09:27:40Z</time>
      </trkpt>
      <trkpt lat="45.92472" lon="4.73651">
        <ele>174</ele>
        <time>2018-02-09T09:27:41Z</time>
      </trkpt>
      <trkpt lat="45.92472" lon="4.73644">
        <ele>174</ele>
        <time>2018-02-09T09:27:42Z</time>
      </trkpt>
      <trkpt lat="45.92472" lon="4.73637">
        <ele>174</ele>
        <time>2018-02-09T09:27:43Z</time>
      </trkpt>
      <trkpt lat="45.92471" lon="4.7363">
        <ele>174</ele>
        <time>2018-02-09T09:27:44Z</time>
      </trkpt>
      <trkpt lat="45.92471" lon="4.73623">
        <ele>174</ele>
        <time>2018-02-09T09:27:45Z</time>
      </trkpt>
      <trkpt lat="45.92471" lon="4.73616">
        <ele>174</ele>
        <time>2018-02-09T09:27:46Z</time>
      </trkpt>
      <trkpt lat="45.92471" lon="4.73609">
        <ele>174</ele>
        <time>2018-02-09T09:27:47Z</time>
      </trkpt>
      <trkpt lat="45.92472" lon="4.73601">
        <ele>174</ele>
        <time>2018-02-09T09:27:48Z</time>
      </trkpt>
      <trkpt lat="45.92471" lon="4.73588">
        <ele>174</ele>
        <time>2018-02-09T09:27:50Z</time>
      </trkpt>
      <trkpt lat="45.92471" lon="4.7358">
        <ele>173</ele>
        <time>2018-02-09T09:27:51Z</time>
      </trkpt>
      <trkpt lat="45.9247" lon="4.73568">
        <ele>173</ele>
        <time>2018-02-09T09:27:53Z</time>
      </trkpt>
      <trkpt lat="45.9247" lon="4.73561">
        <ele>173</ele>
        <time>2018-02-09T09:27:54Z</time>
      </trkpt>
      <trkpt lat="45.92469" lon="4.7355">
        <ele>173</ele>
        <time>2018-02-09T09:27:56Z</time>
      </trkpt>
      <trkpt lat="45.9247" lon="4.73544">
        <ele>173</ele>
        <time>2018-02-09T09:27:57Z</time>
      </trkpt>
      <trkpt lat="45.92471" lon="4.73533">
        <ele>174</ele>
        <time>2018-02-09T09:27:59Z</time>
      </trkpt>
      <trkpt lat="45.92471" lon="4.73526">
        <ele>174</ele>
        <time>2018-02-09T09:28:00Z</time>
      </trkpt>
      <trkpt lat="45.92471" lon="4.73519">
        <ele>174</ele>
        <time>2018-02-09T09:28:01Z</time>
      </trkpt>
      <trkpt lat="45.92471" lon="4.73512">
        <ele>174</ele>
        <time>2018-02-09T09:28:02Z</time>
      </trkpt>
      <trkpt lat="45.92471" lon="4.73503">
        <ele>174</ele>
        <time>2018-02-09T09:28:03Z</time>
      </trkpt>
      <trkpt lat="45.9247" lon="4.73496">
        <ele>173</ele>
        <time>2018-02-09T09:28:04Z</time>
      </trkpt>
      <trkpt lat="45.9247" lon="4.73488">
        <ele>173</ele>
        <time>2018-02-09T09:28:05Z</time>
      </trkpt>
      <trkpt lat="45.92469" lon="4.7348">
        <ele>173</ele>
        <time>2018-02-09T09:28:06Z</time>
      </trkpt>
      <trkpt lat="45.92468" lon="4.73472">
        <ele>173</ele>
        <time>2018-02-09T09:28:07Z</time>
      </trkpt>
      <trkpt lat="45.92467" lon="4.73464">
        <ele>173</ele>
        <time>2018-02-09T09:28:08Z</time>
      </trkpt>
      <trkpt lat="45.92465" lon="4.73456">
        <ele>173</ele>
        <time>2018-02-09T09:28:09Z</time>
      </trkpt>
      <trkpt lat="45.92463" lon="4.73448">
        <ele>173</ele>
        <time>2018-02-09T09:28:10Z</time>
      </trkpt>
      <trkpt lat="45.92461" lon="4.7344">
        <ele>173</ele>
        <time>2018-02-09T09:28:11Z</time>
      </trkpt>
      <trkpt lat="45.92458" lon="4.73434">
        <ele>173</ele>
        <time>2018-02-09T09:28:12Z</time>
      </trkpt>
      <trkpt lat="45.92454" lon="4.73429">
        <ele>173</ele>
        <time>2018-02-09T09:28:13Z</time>
      </trkpt>
      <trkpt lat="45.92449" lon="4.73426">
        <ele>173</ele>
        <time>2018-02-09T09:28:14Z</time>
      </trkpt>
      <trkpt lat="45.92444" lon="4.73423">
        <ele>173</ele>
        <time>2018-02-09T09:28:15Z</time>
      </trkpt>
      <trkpt lat="45.92439" lon="4.7342">
        <ele>173</ele>
        <time>2018-02-09T09:28:16Z</time>
      </trkpt>
      <trkpt lat="45.92434" lon="4.73416">
        <ele>172</ele>
        <time>2018-02-09T09:28:17Z</time>
      </trkpt>
      <trkpt lat="45.9243" lon="4.73411">
        <ele>172</ele>
        <time>2018-02-09T09:28:18Z</time>
      </trkpt>
      <trkpt lat="45.92427" lon="4.73403">
        <ele>172</ele>
        <time>2018-02-09T09:28:19Z</time>
      </trkpt>
      <trkpt lat="45.92425" lon="4.73396">
        <ele>172</ele>
        <time>2018-02-09T09:28:20Z</time>
      </trkpt>
      <trkpt lat="45.92423" lon="4.73388">
        <ele>172</ele>
        <time>2018-02-09T09:28:21Z</time>
      </trkpt>
      <trkpt lat="45.92422" lon="4.7338">
        <ele>172</ele>
        <time>2018-02-09T09:28:22Z</time>
      </trkpt>
      <trkpt lat="45.92422" lon="4.73372">
        <ele>172</ele>
        <time>2018-02-09T09:28:23Z</time>
      </trkpt>
      <trkpt lat="45.92421" lon="4.73365">
        <ele>172</ele>
        <time>2018-02-09T09:28:24Z</time>
      </trkpt>
      <trkpt lat="45.9242" lon="4.73357">
        <ele>171</ele>
        <time>2018-02-09T09:28:25Z</time>
      </trkpt>
      <trkpt lat="45.92419" lon="4.73349">
        <ele>171</ele>
        <time>2018-02-09T09:28:26Z</time>
      </trkpt>
      <trkpt lat="45.92418" lon="4.73342">
        <ele>171</ele>
        <time>2018-02-09T09:28:27Z</time>
      </trkpt>
      <trkpt lat="45.92417" lon="4.73334">
        <ele>171</ele>
        <time>2018-02-09T09:28:28Z</time>
      </trkpt>
      <trkpt lat="45.92417" lon="4.73327">
        <ele>171</ele>
        <time>2018-02-09T09:28:29Z</time>
      </trkpt>
      <trkpt lat="45.92417" lon="4.7332">
        <ele>171</ele>
        <time>2018-02-09T09:28:30Z</time>
      </trkpt>
      <trkpt lat="45.92416" lon="4.73313">
        <ele>171</ele>
        <time>2018-02-09T09:28:31Z</time>
      </trkpt>
      <trkpt lat="45.92416" lon="4.73306">
        <ele>171</ele>
        <time>2018-02-09T09:28:32Z</time>
      </trkpt>
      <trkpt lat="45.92416" lon="4.73298">
        <ele>171</ele>
        <time>2018-02-09T09:28:33Z</time>
      </trkpt>
      <trkpt lat="45.92415" lon="4.7329">
        <ele>171</ele>
        <time>2018-02-09T09:28:34Z</time>
      </trkpt>
      <trkpt lat="45.92415" lon="4.73283">
        <ele>171</ele>
        <time>2018-02-09T09:28:35Z</time>
      </trkpt>
      <trkpt lat="45.92413" lon="4.73275">
        <ele>171</ele>
        <time>2018-02-09T09:28:36Z</time>
      </trkpt>
      <trkpt lat="45.92412" lon="4.73268">
        <ele>171</ele>
        <time>2018-02-09T09:28:37Z</time>
      </trkpt>
      <trkpt lat="45.92412" lon="4.7326">
        <ele>171</ele>
        <time>2018-02-09T09:28:38Z</time>
      </trkpt>
      <trkpt lat="45.92411" lon="4.73252">
        <ele>171</ele>
        <time>2018-02-09T09:28:39Z</time>
      </trkpt>
      <trkpt lat="45.9241" lon="4.73243">
        <ele>171</ele>
        <time>2018-02-09T09:28:40Z</time>
      </trkpt>
      <trkpt lat="45.9241" lon="4.73235">
        <ele>171</ele>
        <time>2018-02-09T09:28:41Z</time>
      </trkpt>
      <trkpt lat="45.92409" lon="4.73227">
        <ele>171</ele>
        <time>2018-02-09T09:28:42Z</time>
      </trkpt>
      <trkpt lat="45.92408" lon="4.73218">
        <ele>171</ele>
        <time>2018-02-09T09:28:43Z</time>
      </trkpt>
      <trkpt lat="45.92409" lon="4.73209">
        <ele>171</ele>
        <time>2018-02-09T09:28:44Z</time>
      </trkpt>
      <trkpt lat="45.92409" lon="4.73201">
        <ele>171</ele>
        <time>2018-02-09T09:28:45Z</time>
      </trkpt>
      <trkpt lat="45.92408" lon="4.73193">
        <ele>171</ele>
        <time>2018-02-09T09:28:46Z</time>
      </trkpt>
      <trkpt lat="45.92409" lon="4.73183">
        <ele>171</ele>
        <time>2018-02-09T09:28:47Z</time>
      </trkpt>
      <trkpt lat="45.92409" lon="4.73175">
        <ele>170</ele>
        <time>2018-02-09T09:28:48Z</time>
      </trkpt>
      <trkpt lat="45.92409" lon="4.73167">
        <ele>170</ele>
        <time>2018-02-09T09:28:49Z</time>
      </trkpt>
      <trkpt lat="45.92408" lon="4.73158">
        <ele>170</ele>
        <time>2018-02-09T09:28:50Z</time>
      </trkpt>
      <trkpt lat="45.92408" lon="4.7315">
        <ele>171</ele>
        <time>2018-02-09T09:28:51Z</time>
      </trkpt>
      <trkpt lat="45.92409" lon="4.73142">
        <ele>171</ele>
        <time>2018-02-09T09:28:52Z</time>
      </trkpt>
      <trkpt lat="45.9241" lon="4.73135">
        <ele>171</ele>
        <time>2018-02-09T09:28:53Z</time>
      </trkpt>
      <trkpt lat="45.92411" lon="4.73128">
        <ele>171</ele>
        <time>2018-02-09T09:28:54Z</time>
      </trkpt>
      <trkpt lat="45.92413" lon="4.73123">
        <ele>171</ele>
        <time>2018-02-09T09:28:55Z</time>
      </trkpt>
      <trkpt lat="45.92416" lon="4.73117">
        <ele>171</ele>
        <time>2018-02-09T09:28:56Z</time>
      </trkpt>
      <trkpt lat="45.9242" lon="4.73113">
        <ele>170</ele>
        <time>2018-02-09T09:28:57Z</time>
      </trkpt>
      <trkpt lat="45.92424" lon="4.7311">
        <ele>170</ele>
        <time>2018-02-09T09:28:58Z</time>
      </trkpt>
      <trkpt lat="45.9243" lon="4.73104">
        <ele>171</ele>
        <time>2018-02-09T09:28:59Z</time>
      </trkpt>
      <trkpt lat="45.92434" lon="4.73102">
        <ele>170</ele>
        <time>2018-02-09T09:29:00Z</time>
      </trkpt>
      <trkpt lat="45.92439" lon="4.73098">
        <ele>170</ele>
        <time>2018-02-09T09:29:01Z</time>
      </trkpt>
      <trkpt lat="45.92444" lon="4.73094">
        <ele>170</ele>
        <time>2018-02-09T09:29:02Z</time>
      </trkpt>
      <trkpt lat="45.92448" lon="4.7309">
        <ele>170</ele>
        <time>2018-02-09T09:29:03Z</time>
      </trkpt>
      <trkpt lat="45.92453" lon="4.73085">
        <ele>170</ele>
        <time>2018-02-09T09:29:04Z</time>
      </trkpt>
      <trkpt lat="45.92457" lon="4.73081">
        <ele>170</ele>
        <time>2018-02-09T09:29:05Z</time>
      </trkpt>
      <trkpt lat="45.92463" lon="4.73077">
        <ele>170</ele>
        <time>2018-02-09T09:29:06Z</time>
      </trkpt>
      <trkpt lat="45.92468" lon="4.73073">
        <ele>170</ele>
        <time>2018-02-09T09:29:07Z</time>
      </trkpt>
      <trkpt lat="45.92473" lon="4.7307">
        <ele>170</ele>
        <time>2018-02-09T09:29:08Z</time>
      </trkpt>
      <trkpt lat="45.92478" lon="4.73065">
        <ele>170</ele>
        <time>2018-02-09T09:29:09Z</time>
      </trkpt>
      <trkpt lat="45.92483" lon="4.7306">
        <ele>170</ele>
        <time>2018-02-09T09:29:10Z</time>
      </trkpt>
      <trkpt lat="45.92489" lon="4.73055">
        <ele>170</ele>
        <time>2018-02-09T09:29:11Z</time>
      </trkpt>
      <trkpt lat="45.92494" lon="4.73049">
        <ele>170</ele>
        <time>2018-02-09T09:29:12Z</time>
      </trkpt>
      <trkpt lat="45.92499" lon="4.73045">
        <ele>170</ele>
        <time>2018-02-09T09:29:13Z</time>
      </trkpt>
      <trkpt lat="45.92504" lon="4.73039">
        <ele>169</ele>
        <time>2018-02-09T09:29:14Z</time>
      </trkpt>
      <trkpt lat="45.92509" lon="4.73036">
        <ele>169</ele>
        <time>2018-02-09T09:29:15Z</time>
      </trkpt>
      <trkpt lat="45.92514" lon="4.73031">
        <ele>169</ele>
        <time>2018-02-09T09:29:16Z</time>
      </trkpt>
      <trkpt lat="45.92519" lon="4.73027">
        <ele>169</ele>
        <time>2018-02-09T09:29:17Z</time>
      </trkpt>
      <trkpt lat="45.92524" lon="4.73021">
        <ele>169</ele>
        <time>2018-02-09T09:29:18Z</time>
      </trkpt>
      <trkpt lat="45.92529" lon="4.73017">
        <ele>169</ele>
        <time>2018-02-09T09:29:19Z</time>
      </trkpt>
      <trkpt lat="45.92534" lon="4.73014">
        <ele>169</ele>
        <time>2018-02-09T09:29:20Z</time>
      </trkpt>
      <trkpt lat="45.9254" lon="4.7301">
        <ele>169</ele>
        <time>2018-02-09T09:29:21Z</time>
      </trkpt>
      <trkpt lat="45.92545" lon="4.73005">
        <ele>169</ele>
        <time>2018-02-09T09:29:22Z</time>
      </trkpt>
      <trkpt lat="45.9255" lon="4.73">
        <ele>169</ele>
        <time>2018-02-09T09:29:23Z</time>
      </trkpt>
      <trkpt lat="45.92556" lon="4.72995">
        <ele>169</ele>
        <time>2018-02-09T09:29:24Z</time>
      </trkpt>
      <trkpt lat="45.92562" lon="4.72989">
        <ele>169</ele>
        <time>2018-02-09T09:29:25Z</time>
      </trkpt>
      <trkpt lat="45.92567" lon="4.72982">
        <ele>169</ele>
        <time>2018-02-09T09:29:26Z</time>
      </trkpt>
      <trkpt lat="45.92572" lon="4.72976">
        <ele>169</ele>
        <time>2018-02-09T09:29:27Z</time>
      </trkpt>
      <trkpt lat="45.92578" lon="4.72971">
        <ele>169</ele>
        <time>2018-02-09T09:29:28Z</time>
      </trkpt>
      <trkpt lat="45.92583" lon="4.72967">
        <ele>169</ele>
        <time>2018-02-09T09:29:29Z</time>
      </trkpt>
      <trkpt lat="45.92588" lon="4.72961">
        <ele>169</ele>
        <time>2018-02-09T09:29:30Z</time>
      </trkpt>
      <trkpt lat="45.92593" lon="4.72955">
        <ele>169</ele>
        <time>2018-02-09T09:29:31Z</time>
      </trkpt>
      <trkpt lat="45.92597" lon="4.7295">
        <ele>169</ele>
        <time>2018-02-09T09:29:32Z</time>
      </trkpt>
      <trkpt lat="45.92603" lon="4.72944">
        <ele>169</ele>
        <time>2018-02-09T09:29:33Z</time>
      </trkpt>
      <trkpt lat="45.92608" lon="4.72938">
        <ele>169</ele>
        <time>2018-02-09T09:29:34Z</time>
      </trkpt>
      <trkpt lat="45.92612" lon="4.72931">
        <ele>169</ele>
        <time>2018-02-09T09:29:35Z</time>
      </trkpt>
      <trkpt lat="45.92617" lon="4.72926">
        <ele>169</ele>
        <time>2018-02-09T09:29:36Z</time>
      </trkpt>
      <trkpt lat="45.92622" lon="4.72921">
        <ele>169</ele>
        <time>2018-02-09T09:29:37Z</time>
      </trkpt>
      <trkpt lat="45.92628" lon="4.72916">
        <ele>169</ele>
        <time>2018-02-09T09:29:38Z</time>
      </trkpt>
      <trkpt lat="45.92632" lon="4.72912">
        <ele>169</ele>
        <time>2018-02-09T09:29:39Z</time>
      </trkpt>
      <trkpt lat="45.92638" lon="4.72908">
        <ele>169</ele>
        <time>2018-02-09T09:29:40Z</time>
      </trkpt>
      <trkpt lat="45.92643" lon="4.72904">
        <ele>169</ele>
        <time>2018-02-09T09:29:41Z</time>
      </trkpt>
      <trkpt lat="45.92648" lon="4.729">
        <ele>169</ele>
        <time>2018-02-09T09:29:42Z</time>
      </trkpt>
      <trkpt lat="45.92653" lon="4.72896">
        <ele>170</ele>
        <time>2018-02-09T09:29:43Z</time>
      </trkpt>
      <trkpt lat="45.92658" lon="4.72893">
        <ele>169</ele>
        <time>2018-02-09T09:29:44Z</time>
      </trkpt>
      <trkpt lat="45.92663" lon="4.72889">
        <ele>169</ele>
        <time>2018-02-09T09:29:45Z</time>
      </trkpt>
      <trkpt lat="45.92669" lon="4.72886">
        <ele>170</ele>
        <time>2018-02-09T09:29:46Z</time>
      </trkpt>
      <trkpt lat="45.92675" lon="4.72882">
        <ele>170</ele>
        <time>2018-02-09T09:29:47Z</time>
      </trkpt>
      <trkpt lat="45.9268" lon="4.72879">
        <ele>170</ele>
        <time>2018-02-09T09:29:48Z</time>
      </trkpt>
      <trkpt lat="45.92686" lon="4.72875">
        <ele>169</ele>
        <time>2018-02-09T09:29:49Z</time>
      </trkpt>
      <trkpt lat="45.92691" lon="4.7287">
        <ele>169</ele>
        <time>2018-02-09T09:29:50Z</time>
      </trkpt>
      <trkpt lat="45.92697" lon="4.72866">
        <ele>169</ele>
        <time>2018-02-09T09:29:51Z</time>
      </trkpt>
      <trkpt lat="45.92702" lon="4.72862">
        <ele>169</ele>
        <time>2018-02-09T09:29:52Z</time>
      </trkpt>
      <trkpt lat="45.92708" lon="4.72859">
        <ele>169</ele>
        <time>2018-02-09T09:29:53Z</time>
      </trkpt>
      <trkpt lat="45.92713" lon="4.72855">
        <ele>169</ele>
        <time>2018-02-09T09:29:54Z</time>
      </trkpt>
      <trkpt lat="45.92718" lon="4.7285">
        <ele>169</ele>
        <time>2018-02-09T09:29:55Z</time>
      </trkpt>
      <trkpt lat="45.92724" lon="4.72846">
        <ele>169</ele>
        <time>2018-02-09T09:29:56Z</time>
      </trkpt>
      <trkpt lat="45.92729" lon="4.72842">
        <ele>169</ele>
        <time>2018-02-09T09:29:57Z</time>
      </trkpt>
      <trkpt lat="45.92734" lon="4.72838">
        <ele>169</ele>
        <time>2018-02-09T09:29:58Z</time>
      </trkpt>
      <trkpt lat="45.9274" lon="4.72832">
        <ele>169</ele>
        <time>2018-02-09T09:29:59Z</time>
      </trkpt>
      <trkpt lat="45.92746" lon="4.72828">
        <ele>169</ele>
        <time>2018-02-09T09:30:00Z</time>
      </trkpt>
      <trkpt lat="45.92752" lon="4.72824">
        <ele>169</ele>
        <time>2018-02-09T09:30:01Z</time>
      </trkpt>
      <trkpt lat="45.92756" lon="4.72821">
        <ele>170</ele>
        <time>2018-02-09T09:30:02Z</time>
      </trkpt>
      <trkpt lat="45.92762" lon="4.72816">
        <ele>170</ele>
        <time>2018-02-09T09:30:03Z</time>
      </trkpt>
      <trkpt lat="45.92767" lon="4.72812">
        <ele>170</ele>
        <time>2018-02-09T09:30:04Z</time>
      </trkpt>
      <trkpt lat="45.92772" lon="4.72807">
        <ele>170</ele>
        <time>2018-02-09T09:30:05Z</time>
      </trkpt>
      <trkpt lat="45.92778" lon="4.72804">
        <ele>170</ele>
        <time>2018-02-09T09:30:06Z</time>
      </trkpt>
      <trkpt lat="45.92782" lon="4.728">
        <ele>170</ele>
        <time>2018-02-09T09:30:07Z</time>
      </trkpt>
      <trkpt lat="45.92787" lon="4.72796">
        <ele>170</ele>
        <time>2018-02-09T09:30:08Z</time>
      </trkpt>
      <trkpt lat="45.92791" lon="4.72793">
        <ele>170</ele>
        <time>2018-02-09T09:30:09Z</time>
      </trkpt>
      <trkpt lat="45.92796" lon="4.7279">
        <ele>171</ele>
        <time>2018-02-09T09:30:10Z</time>
      </trkpt>
      <trkpt lat="45.92805" lon="4.7279">
        <ele>171</ele>
        <time>2018-02-09T09:30:12Z</time>
      </trkpt>
      <trkpt lat="45.92807" lon="4.72795">
        <ele>171</ele>
        <time>2018-02-09T09:30:13Z</time>
      </trkpt>
      <trkpt lat="45.92809" lon="4.72802">
        <ele>171</ele>
        <time>2018-02-09T09:30:14Z</time>
      </trkpt>
      <trkpt lat="45.9281" lon="4.72809">
        <ele>171</ele>
        <time>2018-02-09T09:30:15Z</time>
      </trkpt>
      <trkpt lat="45.92811" lon="4.72816">
        <ele>171</ele>
        <time>2018-02-09T09:30:16Z</time>
      </trkpt>
      <trkpt lat="45.92812" lon="4.72822">
        <ele>171</ele>
        <time>2018-02-09T09:30:17Z</time>
      </trkpt>
      <trkpt lat="45.92812" lon="4.7283">
        <ele>171</ele>
        <time>2018-02-09T09:30:18Z</time>
      </trkpt>
      <trkpt lat="45.92813" lon="4.72837">
        <ele>170</ele>
        <time>2018-02-09T09:30:19Z</time>
      </trkpt>
      <trkpt lat="45.92814" lon="4.72844">
        <ele>170</ele>
        <time>2018-02-09T09:30:20Z</time>
      </trkpt>
      <trkpt lat="45.92815" lon="4.72852">
        <ele>170</ele>
        <time>2018-02-09T09:30:21Z</time>
      </trkpt>
      <trkpt lat="45.92817" lon="4.7286">
        <ele>170</ele>
        <time>2018-02-09T09:30:22Z</time>
      </trkpt>
      <trkpt lat="45.92818" lon="4.72868">
        <ele>170</ele>
        <time>2018-02-09T09:30:23Z</time>
      </trkpt>
      <trkpt lat="45.9282" lon="4.72875">
        <ele>170</ele>
        <time>2018-02-09T09:30:24Z</time>
      </trkpt>
      <trkpt lat="45.92822" lon="4.72882">
        <ele>170</ele>
        <time>2018-02-09T09:30:25Z</time>
      </trkpt>
      <trkpt lat="45.92823" lon="4.7289">
        <ele>170</ele>
        <time>2018-02-09T09:30:26Z</time>
      </trkpt>
      <trkpt lat="45.92824" lon="4.72898">
        <ele>170</ele>
        <time>2018-02-09T09:30:27Z</time>
      </trkpt>
      <trkpt lat="45.92825" lon="4.72905">
        <ele>170</ele>
        <time>2018-02-09T09:30:28Z</time>
      </trkpt>
      <trkpt lat="45.92826" lon="4.72912">
        <ele>170</ele>
        <time>2018-02-09T09:30:29Z</time>
      </trkpt>
      <trkpt lat="45.92827" lon="4.72921">
        <ele>170</ele>
        <time>2018-02-09T09:30:30Z</time>
      </trkpt>
      <trkpt lat="45.92827" lon="4.72928">
        <ele>170</ele>
        <time>2018-02-09T09:30:31Z</time>
      </trkpt>
      <trkpt lat="45.92828" lon="4.72936">
        <ele>170</ele>
        <time>2018-02-09T09:30:32Z</time>
      </trkpt>
      <trkpt lat="45.92829" lon="4.72945">
        <ele>170</ele>
        <time>2018-02-09T09:30:33Z</time>
      </trkpt>
      <trkpt lat="45.92829" lon="4.72954">
        <ele>170</ele>
        <time>2018-02-09T09:30:34Z</time>
      </trkpt>
      <trkpt lat="45.9283" lon="4.72963">
        <ele>170</ele>
        <time>2018-02-09T09:30:35Z</time>
      </trkpt>
      <trkpt lat="45.92831" lon="4.7297">
        <ele>170</ele>
        <time>2018-02-09T09:30:36Z</time>
      </trkpt>
      <trkpt lat="45.92832" lon="4.72979">
        <ele>170</ele>
        <time>2018-02-09T09:30:37Z</time>
      </trkpt>
      <trkpt lat="45.92833" lon="4.72988">
        <ele>170</ele>
        <time>2018-02-09T09:30:38Z</time>
      </trkpt>
      <trkpt lat="45.92835" lon="4.72996">
        <ele>170</ele>
        <time>2018-02-09T09:30:39Z</time>
      </trkpt>
      <trkpt lat="45.92836" lon="4.73005">
        <ele>170</ele>
        <time>2018-02-09T09:30:40Z</time>
      </trkpt>
      <trkpt lat="45.92838" lon="4.73012">
        <ele>171</ele>
        <time>2018-02-09T09:30:41Z</time>
      </trkpt>
      <trkpt lat="45.92839" lon="4.73019">
        <ele>171</ele>
        <time>2018-02-09T09:30:42Z</time>
      </trkpt>
      <trkpt lat="45.9284" lon="4.73026">
        <ele>171</ele>
        <time>2018-02-09T09:30:43Z</time>
      </trkpt>
      <trkpt lat="45.92841" lon="4.73033">
        <ele>171</ele>
        <time>2018-02-09T09:30:44Z</time>
      </trkpt>
      <trkpt lat="45.92843" lon="4.73041">
        <ele>171</ele>
        <time>2018-02-09T09:30:45Z</time>
      </trkpt>
      <trkpt lat="45.92845" lon="4.73047">
        <ele>171</ele>
        <time>2018-02-09T09:30:46Z</time>
      </trkpt>
      <trkpt lat="45.92845" lon="4.73055">
        <ele>171</ele>
        <time>2018-02-09T09:30:47Z</time>
      </trkpt>
      <trkpt lat="45.92846" lon="4.73062">
        <ele>171</ele>
        <time>2018-02-09T09:30:48Z</time>
      </trkpt>
      <trkpt lat="45.92846" lon="4.7307">
        <ele>171</ele>
        <time>2018-02-09T09:30:49Z</time>
      </trkpt>
      <trkpt lat="45.92847" lon="4.73078">
        <ele>171</ele>
        <time>2018-02-09T09:30:50Z</time>
      </trkpt>
      <trkpt lat="45.92848" lon="4.73086">
        <ele>171</ele>
        <time>2018-02-09T09:30:51Z</time>
      </trkpt>
      <trkpt lat="45.9285" lon="4.73093">
        <ele>171</ele>
        <time>2018-02-09T09:30:52Z</time>
      </trkpt>
      <trkpt lat="45.92853" lon="4.73099">
        <ele>171</ele>
        <time>2018-02-09T09:30:53Z</time>
      </trkpt>
      <trkpt lat="45.92859" lon="4.73103">
        <ele>171</ele>
        <time>2018-02-09T09:30:55Z</time>
      </trkpt>
      <trkpt lat="45.92862" lon="4.73101">
        <ele>171</ele>
        <time>2018-02-09T09:30:56Z</time>
      </trkpt>
      <trkpt lat="45.92869" lon="4.73093">
        <ele>172</ele>
        <time>2018-02-09T09:30:58Z</time>
      </trkpt>
      <trkpt lat="45.92872" lon="4.7309">
        <ele>172</ele>
        <time>2018-02-09T09:30:59Z</time>
      </trkpt>
      <trkpt lat="45.92879" lon="4.73086">
        <ele>172</ele>
        <time>2018-02-09T09:31:01Z</time>
      </trkpt>
      <trkpt lat="45.92883" lon="4.73085">
        <ele>172</ele>
        <time>2018-02-09T09:31:02Z</time>
      </trkpt>
      <trkpt lat="45.92886" lon="4.73081">
        <ele>172</ele>
        <time>2018-02-09T09:31:03Z</time>
      </trkpt>
      <trkpt lat="45.9289" lon="4.73077">
        <ele>172</ele>
        <time>2018-02-09T09:31:04Z</time>
      </trkpt>
      <trkpt lat="45.92894" lon="4.73071">
        <ele>172</ele>
        <time>2018-02-09T09:31:05Z</time>
      </trkpt>
      <trkpt lat="45.92897" lon="4.73067">
        <ele>172</ele>
        <time>2018-02-09T09:31:06Z</time>
      </trkpt>
      <trkpt lat="45.929" lon="4.73062">
        <ele>172</ele>
        <time>2018-02-09T09:31:07Z</time>
      </trkpt>
      <trkpt lat="45.92904" lon="4.73056">
        <ele>172</ele>
        <time>2018-02-09T09:31:08Z</time>
      </trkpt>
      <trkpt lat="45.92908" lon="4.73051">
        <ele>172</ele>
        <time>2018-02-09T09:31:09Z</time>
      </trkpt>
      <trkpt lat="45.92911" lon="4.73045">
        <ele>172</ele>
        <time>2018-02-09T09:31:10Z</time>
      </trkpt>
      <trkpt lat="45.92915" lon="4.73039">
        <ele>172</ele>
        <time>2018-02-09T09:31:11Z</time>
      </trkpt>
      <trkpt lat="45.92919" lon="4.73034">
        <ele>172</ele>
        <time>2018-02-09T09:31:12Z</time>
      </trkpt>
      <trkpt lat="45.92922" lon="4.73029">
        <ele>171</ele>
        <time>2018-02-09T09:31:13Z</time>
      </trkpt>
      <trkpt lat="45.92927" lon="4.73024">
        <ele>171</ele>
        <time>2018-02-09T09:31:14Z</time>
      </trkpt>
      <trkpt lat="45.92931" lon="4.73018">
        <ele>171</ele>
        <time>2018-02-09T09:31:15Z</time>
      </trkpt>
      <trkpt lat="45.92936" lon="4.73014">
        <ele>171</ele>
        <time>2018-02-09T09:31:16Z</time>
      </trkpt>
      <trkpt lat="45.9294" lon="4.73008">
        <ele>171</ele>
        <time>2018-02-09T09:31:17Z</time>
      </trkpt>
      <trkpt lat="45.92945" lon="4.73002">
        <ele>171</ele>
        <time>2018-02-09T09:31:18Z</time>
      </trkpt>
      <trkpt lat="45.92949" lon="4.72997">
        <ele>171</ele>
        <time>2018-02-09T09:31:19Z</time>
      </trkpt>
      <trkpt lat="45.92953" lon="4.72991">
        <ele>171</ele>
        <time>2018-02-09T09:31:20Z</time>
      </trkpt>
      <trkpt lat="45.92957" lon="4.72987">
        <ele>171</ele>
        <time>2018-02-09T09:31:21Z</time>
      </trkpt>
      <trkpt lat="45.92961" lon="4.72982">
        <ele>171</ele>
        <time>2018-02-09T09:31:22Z</time>
      </trkpt>
      <trkpt lat="45.92965" lon="4.72977">
        <ele>171</ele>
        <time>2018-02-09T09:31:23Z</time>
      </trkpt>
      <trkpt lat="45.9297" lon="4.72971">
        <ele>171</ele>
        <time>2018-02-09T09:31:24Z</time>
      </trkpt>
      <trkpt lat="45.92974" lon="4.72968">
        <ele>171</ele>
        <time>2018-02-09T09:31:25Z</time>
      </trkpt>
      <trkpt lat="45.92979" lon="4.72963">
        <ele>171</ele>
        <time>2018-02-09T09:31:26Z</time>
      </trkpt>
      <trkpt lat="45.92984" lon="4.72957">
        <ele>171</ele>
        <time>2018-02-09T09:31:27Z</time>
      </trkpt>
      <trkpt lat="45.92989" lon="4.72952">
        <ele>171</ele>
        <time>2018-02-09T09:31:28Z</time>
      </trkpt>
      <trkpt lat="45.92993" lon="4.72946">
        <ele>171</ele>
        <time>2018-02-09T09:31:29Z</time>
      </trkpt>
      <trkpt lat="45.92996" lon="4.72942">
        <ele>171</ele>
        <time>2018-02-09T09:31:30Z</time>
      </trkpt>
      <trkpt lat="45.93004" lon="4.72931">
        <ele>170</ele>
        <time>2018-02-09T09:31:31Z</time>
      </trkpt>
      <trkpt lat="45.93009" lon="4.72925">
        <ele>170</ele>
        <time>2018-02-09T09:31:32Z</time>
      </trkpt>
      <trkpt lat="45.93014" lon="4.72917">
        <ele>170</ele>
        <time>2018-02-09T09:31:33Z</time>
      </trkpt>
      <trkpt lat="45.93018" lon="4.72912">
        <ele>171</ele>
        <time>2018-02-09T09:31:34Z</time>
      </trkpt>
      <trkpt lat="45.93022" lon="4.72907">
        <ele>172</ele>
        <time>2018-02-09T09:31:35Z</time>
      </trkpt>
      <trkpt lat="45.93027" lon="4.72902">
        <ele>172</ele>
        <time>2018-02-09T09:31:36Z</time>
      </trkpt>
      <trkpt lat="45.93031" lon="4.72897">
        <ele>172</ele>
        <time>2018-02-09T09:31:37Z</time>
      </trkpt>
      <trkpt lat="45.93035" lon="4.72891">
        <ele>172</ele>
        <time>2018-02-09T09:31:38Z</time>
      </trkpt>
      <trkpt lat="45.9304" lon="4.72886">
        <ele>172</ele>
        <time>2018-02-09T09:31:39Z</time>
      </trkpt>
      <trkpt lat="45.93045" lon="4.7288">
        <ele>172</ele>
        <time>2018-02-09T09:31:40Z</time>
      </trkpt>
      <trkpt lat="45.93049" lon="4.72875">
        <ele>172</ele>
        <time>2018-02-09T09:31:41Z</time>
      </trkpt>
      <trkpt lat="45.93053" lon="4.72869">
        <ele>172</ele>
        <time>2018-02-09T09:31:42Z</time>
      </trkpt>
      <trkpt lat="45.93058" lon="4.72864">
        <ele>172</ele>
        <time>2018-02-09T09:31:43Z</time>
      </trkpt>
      <trkpt lat="45.93061" lon="4.7286">
        <ele>172</ele>
        <time>2018-02-09T09:31:44Z</time>
      </trkpt>
      <trkpt lat="45.93066" lon="4.72855">
        <ele>172</ele>
        <time>2018-02-09T09:31:45Z</time>
      </trkpt>
      <trkpt lat="45.9307" lon="4.72849">
        <ele>172</ele>
        <time>2018-02-09T09:31:46Z</time>
      </trkpt>
      <trkpt lat="45.93094" lon="4.72818">
        <ele>172</ele>
        <time>2018-02-09T09:31:52Z</time>
      </trkpt>
      <trkpt lat="45.93099" lon="4.72814">
        <ele>172</ele>
        <time>2018-02-09T09:31:53Z</time>
      </trkpt>
      <trkpt lat="45.93104" lon="4.72811">
        <ele>172</ele>
        <time>2018-02-09T09:31:54Z</time>
      </trkpt>
      <trkpt lat="45.93108" lon="4.72806">
        <ele>171</ele>
        <time>2018-02-09T09:31:55Z</time>
      </trkpt>
      <trkpt lat="45.93112" lon="4.72801">
        <ele>171</ele>
        <time>2018-02-09T09:31:56Z</time>
      </trkpt>
      <trkpt lat="45.93116" lon="4.72796">
        <ele>171</ele>
        <time>2018-02-09T09:31:57Z</time>
      </trkpt>
      <trkpt lat="45.9312" lon="4.72791">
        <ele>171</ele>
        <time>2018-02-09T09:31:58Z</time>
      </trkpt>
      <trkpt lat="45.93125" lon="4.72786">
        <ele>171</ele>
        <time>2018-02-09T09:31:59Z</time>
      </trkpt>
      <trkpt lat="45.93129" lon="4.72781">
        <ele>171</ele>
        <time>2018-02-09T09:32:00Z</time>
      </trkpt>
      <trkpt lat="45.93134" lon="4.72776">
        <ele>171</ele>
        <time>2018-02-09T09:32:01Z</time>
      </trkpt>
      <trkpt lat="45.93139" lon="4.7277">
        <ele>171</ele>
        <time>2018-02-09T09:32:02Z</time>
      </trkpt>
      <trkpt lat="45.93143" lon="4.72765">
        <ele>171</ele>
        <time>2018-02-09T09:32:03Z</time>
      </trkpt>
      <trkpt lat="45.93148" lon="4.72759">
        <ele>171</ele>
        <time>2018-02-09T09:32:04Z</time>
      </trkpt>
      <trkpt lat="45.93153" lon="4.72754">
        <ele>170</ele>
        <time>2018-02-09T09:32:05Z</time>
      </trkpt>
      <trkpt lat="45.93157" lon="4.72749">
        <ele>170</ele>
        <time>2018-02-09T09:32:06Z</time>
      </trkpt>
      <trkpt lat="45.93163" lon="4.72742">
        <ele>170</ele>
        <time>2018-02-09T09:32:07Z</time>
      </trkpt>
      <trkpt lat="45.93167" lon="4.72737">
        <ele>170</ele>
        <time>2018-02-09T09:32:08Z</time>
      </trkpt>
      <trkpt lat="45.93172" lon="4.72731">
        <ele>170</ele>
        <time>2018-02-09T09:32:09Z</time>
      </trkpt>
      <trkpt lat="45.93177" lon="4.72725">
        <ele>170</ele>
        <time>2018-02-09T09:32:10Z</time>
      </trkpt>
      <trkpt lat="45.93181" lon="4.7272">
        <ele>169</ele>
        <time>2018-02-09T09:32:11Z</time>
      </trkpt>
      <trkpt lat="45.93187" lon="4.72714">
        <ele>169</ele>
        <time>2018-02-09T09:32:12Z</time>
      </trkpt>
      <trkpt lat="45.93192" lon="4.72708">
        <ele>169</ele>
        <time>2018-02-09T09:32:13Z</time>
      </trkpt>
      <trkpt lat="45.93197" lon="4.72703">
        <ele>169</ele>
        <time>2018-02-09T09:32:14Z</time>
      </trkpt>
      <trkpt lat="45.93202" lon="4.72697">
        <ele>169</ele>
        <time>2018-02-09T09:32:15Z</time>
      </trkpt>
      <trkpt lat="45.93207" lon="4.72692">
        <ele>169</ele>
        <time>2018-02-09T09:32:16Z</time>
      </trkpt>
      <trkpt lat="45.93213" lon="4.72686">
        <ele>169</ele>
        <time>2018-02-09T09:32:17Z</time>
      </trkpt>
      <trkpt lat="45.93216" lon="4.72681">
        <ele>169</ele>
        <time>2018-02-09T09:32:18Z</time>
      </trkpt>
      <trkpt lat="45.93221" lon="4.72676">
        <ele>169</ele>
        <time>2018-02-09T09:32:19Z</time>
      </trkpt>
      <trkpt lat="45.93225" lon="4.72671">
        <ele>169</ele>
        <time>2018-02-09T09:32:20Z</time>
      </trkpt>
      <trkpt lat="45.93229" lon="4.72666">
        <ele>169</ele>
        <time>2018-02-09T09:32:21Z</time>
      </trkpt>
      <trkpt lat="45.93234" lon="4.72662">
        <ele>169</ele>
        <time>2018-02-09T09:32:22Z</time>
      </trkpt>
      <trkpt lat="45.93238" lon="4.72657">
        <ele>169</ele>
        <time>2018-02-09T09:32:23Z</time>
      </trkpt>
      <trkpt lat="45.93243" lon="4.72651">
        <ele>169</ele>
        <time>2018-02-09T09:32:24Z</time>
      </trkpt>
      <trkpt lat="45.93248" lon="4.72645">
        <ele>170</ele>
        <time>2018-02-09T09:32:25Z</time>
      </trkpt>
      <trkpt lat="45.93252" lon="4.7264">
        <ele>169</ele>
        <time>2018-02-09T09:32:26Z</time>
      </trkpt>
      <trkpt lat="45.93257" lon="4.72634">
        <ele>170</ele>
        <time>2018-02-09T09:32:27Z</time>
      </trkpt>
      <trkpt lat="45.93261" lon="4.72629">
        <ele>170</ele>
        <time>2018-02-09T09:32:28Z</time>
      </trkpt>
      <trkpt lat="45.93266" lon="4.72624">
        <ele>170</ele>
        <time>2018-02-09T09:32:29Z</time>
      </trkpt>
      <trkpt lat="45.9327" lon="4.72618">
        <ele>170</ele>
        <time>2018-02-09T09:32:30Z</time>
      </trkpt>
      <trkpt lat="45.93275" lon="4.72613">
        <ele>170</ele>
        <time>2018-02-09T09:32:31Z</time>
      </trkpt>
      <trkpt lat="45.93279" lon="4.72607">
        <ele>170</ele>
        <time>2018-02-09T09:32:32Z</time>
      </trkpt>
      <trkpt lat="45.93284" lon="4.72602">
        <ele>170</ele>
        <time>2018-02-09T09:32:33Z</time>
      </trkpt>
      <trkpt lat="45.93289" lon="4.72596">
        <ele>170</ele>
        <time>2018-02-09T09:32:34Z</time>
      </trkpt>
      <trkpt lat="45.93294" lon="4.7259">
        <ele>170</ele>
        <time>2018-02-09T09:32:35Z</time>
      </trkpt>
      <trkpt lat="45.93299" lon="4.72583">
        <ele>170</ele>
        <time>2018-02-09T09:32:36Z</time>
      </trkpt>
      <trkpt lat="45.93303" lon="4.72578">
        <ele>171</ele>
        <time>2018-02-09T09:32:37Z</time>
      </trkpt>
      <trkpt lat="45.93308" lon="4.72573">
        <ele>171</ele>
        <time>2018-02-09T09:32:38Z</time>
      </trkpt>
      <trkpt lat="45.93313" lon="4.72568">
        <ele>171</ele>
        <time>2018-02-09T09:32:39Z</time>
      </trkpt>
      <trkpt lat="45.93318" lon="4.72563">
        <ele>171</ele>
        <time>2018-02-09T09:32:40Z</time>
      </trkpt>
      <trkpt lat="45.93322" lon="4.72557">
        <ele>171</ele>
        <time>2018-02-09T09:32:41Z</time>
      </trkpt>
      <trkpt lat="45.93327" lon="4.72551">
        <ele>172</ele>
        <time>2018-02-09T09:32:42Z</time>
      </trkpt>
      <trkpt lat="45.93331" lon="4.72546">
        <ele>172</ele>
        <time>2018-02-09T09:32:43Z</time>
      </trkpt>
      <trkpt lat="45.93335" lon="4.72541">
        <ele>171</ele>
        <time>2018-02-09T09:32:44Z</time>
      </trkpt>
      <trkpt lat="45.9334" lon="4.72536">
        <ele>171</ele>
        <time>2018-02-09T09:32:45Z</time>
      </trkpt>
      <trkpt lat="45.93345" lon="4.72531">
        <ele>172</ele>
        <time>2018-02-09T09:32:46Z</time>
      </trkpt>
      <trkpt lat="45.93349" lon="4.72526">
        <ele>172</ele>
        <time>2018-02-09T09:32:47Z</time>
      </trkpt>
      <trkpt lat="45.93354" lon="4.72521">
        <ele>172</ele>
        <time>2018-02-09T09:32:48Z</time>
      </trkpt>
      <trkpt lat="45.93358" lon="4.72516">
        <ele>172</ele>
        <time>2018-02-09T09:32:49Z</time>
      </trkpt>
      <trkpt lat="45.93361" lon="4.72512">
        <ele>172</ele>
        <time>2018-02-09T09:32:50Z</time>
      </trkpt>
      <trkpt lat="45.93365" lon="4.72507">
        <ele>172</ele>
        <time>2018-02-09T09:32:51Z</time>
      </trkpt>
      <trkpt lat="45.9337" lon="4.72502">
        <ele>172</ele>
        <time>2018-02-09T09:32:52Z</time>
      </trkpt>
      <trkpt lat="45.93373" lon="4.72498">
        <ele>173</ele>
        <time>2018-02-09T09:32:53Z</time>
      </trkpt>
      <trkpt lat="45.93377" lon="4.72492">
        <ele>173</ele>
        <time>2018-02-09T09:32:54Z</time>
      </trkpt>
      <trkpt lat="45.93382" lon="4.72487">
        <ele>173</ele>
        <time>2018-02-09T09:32:55Z</time>
      </trkpt>
      <trkpt lat="45.93387" lon="4.72482">
        <ele>173</ele>
        <time>2018-02-09T09:32:56Z</time>
      </trkpt>
      <trkpt lat="45.93391" lon="4.72478">
        <ele>173</ele>
        <time>2018-02-09T09:32:57Z</time>
      </trkpt>
      <trkpt lat="45.93395" lon="4.72474">
        <ele>173</ele>
        <time>2018-02-09T09:32:58Z</time>
      </trkpt>
      <trkpt lat="45.93399" lon="4.72464">
        <ele>173</ele>
        <time>2018-02-09T09:33:00Z</time>
      </trkpt>
      <trkpt lat="45.934" lon="4.72458">
        <ele>173</ele>
        <time>2018-02-09T09:33:01Z</time>
      </trkpt>
      <trkpt lat="45.93402" lon="4.72451">
        <ele>173</ele>
        <time>2018-02-09T09:33:02Z</time>
      </trkpt>
      <trkpt lat="45.93403" lon="4.72444">
        <ele>173</ele>
        <time>2018-02-09T09:33:03Z</time>
      </trkpt>
      <trkpt lat="45.93406" lon="4.72439">
        <ele>173</ele>
        <time>2018-02-09T09:33:04Z</time>
      </trkpt>
      <trkpt lat="45.93409" lon="4.72434">
        <ele>173</ele>
        <time>2018-02-09T09:33:05Z</time>
      </trkpt>
      <trkpt lat="45.93413" lon="4.72429">
        <ele>174</ele>
        <time>2018-02-09T09:33:06Z</time>
      </trkpt>
      <trkpt lat="45.93416" lon="4.72425">
        <ele>174</ele>
        <time>2018-02-09T09:33:07Z</time>
      </trkpt>
      <trkpt lat="45.93421" lon="4.72421">
        <ele>174</ele>
        <time>2018-02-09T09:33:08Z</time>
      </trkpt>
      <trkpt lat="45.93426" lon="4.72418">
        <ele>174</ele>
        <time>2018-02-09T09:33:09Z</time>
      </trkpt>
      <trkpt lat="45.93431" lon="4.72415">
        <ele>174</ele>
        <time>2018-02-09T09:33:10Z</time>
      </trkpt>
      <trkpt lat="45.93436" lon="4.72412">
        <ele>174</ele>
        <time>2018-02-09T09:33:11Z</time>
      </trkpt>
      <trkpt lat="45.93441" lon="4.72409">
        <ele>173</ele>
        <time>2018-02-09T09:33:12Z</time>
      </trkpt>
      <trkpt lat="45.93447" lon="4.72406">
        <ele>173</ele>
        <time>2018-02-09T09:33:13Z</time>
      </trkpt>
      <trkpt lat="45.93453" lon="4.72398">
        <ele>173</ele>
        <time>2018-02-09T09:33:14Z</time>
      </trkpt>
      <trkpt lat="45.93458" lon="4.72394">
        <ele>173</ele>
        <time>2018-02-09T09:33:15Z</time>
      </trkpt>
      <trkpt lat="45.93463" lon="4.7239">
        <ele>173</ele>
        <time>2018-02-09T09:33:16Z</time>
      </trkpt>
      <trkpt lat="45.93468" lon="4.72384">
        <ele>173</ele>
        <time>2018-02-09T09:33:17Z</time>
      </trkpt>
      <trkpt lat="45.93471" lon="4.72378">
        <ele>173</ele>
        <time>2018-02-09T09:33:18Z</time>
      </trkpt>
      <trkpt lat="45.93475" lon="4.72373">
        <ele>173</ele>
        <time>2018-02-09T09:33:19Z</time>
      </trkpt>
      <trkpt lat="45.93479" lon="4.72367">
        <ele>173</ele>
        <time>2018-02-09T09:33:20Z</time>
      </trkpt>
      <trkpt lat="45.93484" lon="4.72361">
        <ele>173</ele>
        <time>2018-02-09T09:33:21Z</time>
      </trkpt>
      <trkpt lat="45.93489" lon="4.72355">
        <ele>173</ele>
        <time>2018-02-09T09:33:22Z</time>
      </trkpt>
      <trkpt lat="45.93493" lon="4.7235">
        <ele>173</ele>
        <time>2018-02-09T09:33:23Z</time>
      </trkpt>
      <trkpt lat="45.93496" lon="4.72344">
        <ele>173</ele>
        <time>2018-02-09T09:33:24Z</time>
      </trkpt>
      <trkpt lat="45.935" lon="4.72338">
        <ele>173</ele>
        <time>2018-02-09T09:33:25Z</time>
      </trkpt>
      <trkpt lat="45.93504" lon="4.72332">
        <ele>173</ele>
        <time>2018-02-09T09:33:26Z</time>
      </trkpt>
      <trkpt lat="45.93508" lon="4.72327">
        <ele>173</ele>
        <time>2018-02-09T09:33:27Z</time>
      </trkpt>
      <trkpt lat="45.93512" lon="4.72323">
        <ele>173</ele>
        <time>2018-02-09T09:33:28Z</time>
      </trkpt>
      <trkpt lat="45.93515" lon="4.72318">
        <ele>173</ele>
        <time>2018-02-09T09:33:29Z</time>
      </trkpt>
      <trkpt lat="45.93518" lon="4.72313">
        <ele>173</ele>
        <time>2018-02-09T09:33:30Z</time>
      </trkpt>
      <trkpt lat="45.93521" lon="4.72307">
        <ele>173</ele>
        <time>2018-02-09T09:33:31Z</time>
      </trkpt>
      <trkpt lat="45.93525" lon="4.723">
        <ele>172</ele>
        <time>2018-02-09T09:33:32Z</time>
      </trkpt>
      <trkpt lat="45.93527" lon="4.72294">
        <ele>172</ele>
        <time>2018-02-09T09:33:33Z</time>
      </trkpt>
      <trkpt lat="45.93531" lon="4.72284">
        <ele>172</ele>
        <time>2018-02-09T09:33:35Z</time>
      </trkpt>
      <trkpt lat="45.93534" lon="4.72279">
        <ele>172</ele>
        <time>2018-02-09T09:33:36Z</time>
      </trkpt>
      <trkpt lat="45.93537" lon="4.72272">
        <ele>172</ele>
        <time>2018-02-09T09:33:37Z</time>
      </trkpt>
      <trkpt lat="45.93539" lon="4.72266">
        <ele>172</ele>
        <time>2018-02-09T09:33:38Z</time>
      </trkpt>
      <trkpt lat="45.93544" lon="4.72255">
        <ele>172</ele>
        <time>2018-02-09T09:33:40Z</time>
      </trkpt>
      <trkpt lat="45.93546" lon="4.72248">
        <ele>172</ele>
        <time>2018-02-09T09:33:41Z</time>
      </trkpt>
      <trkpt lat="45.93549" lon="4.72242">
        <ele>172</ele>
        <time>2018-02-09T09:33:42Z</time>
      </trkpt>
      <trkpt lat="45.93552" lon="4.72236">
        <ele>172</ele>
        <time>2018-02-09T09:33:43Z</time>
      </trkpt>
      <trkpt lat="45.93555" lon="4.72229">
        <ele>173</ele>
        <time>2018-02-09T09:33:44Z</time>
      </trkpt>
      <trkpt lat="45.9356" lon="4.72224">
        <ele>173</ele>
        <time>2018-02-09T09:33:45Z</time>
      </trkpt>
      <trkpt lat="45.93565" lon="4.72217">
        <ele>173</ele>
        <time>2018-02-09T09:33:46Z</time>
      </trkpt>
      <trkpt lat="45.9357" lon="4.72211">
        <ele>173</ele>
        <time>2018-02-09T09:33:47Z</time>
      </trkpt>
      <trkpt lat="45.93575" lon="4.72206">
        <ele>173</ele>
        <time>2018-02-09T09:33:48Z</time>
      </trkpt>
      <trkpt lat="45.9358" lon="4.72202">
        <ele>173</ele>
        <time>2018-02-09T09:33:49Z</time>
      </trkpt>
      <trkpt lat="45.93585" lon="4.72197">
        <ele>173</ele>
        <time>2018-02-09T09:33:50Z</time>
      </trkpt>
      <trkpt lat="45.93589" lon="4.72193">
        <ele>173</ele>
        <time>2018-02-09T09:33:51Z</time>
      </trkpt>
      <trkpt lat="45.93594" lon="4.72189">
        <ele>173</ele>
        <time>2018-02-09T09:33:52Z</time>
      </trkpt>
      <trkpt lat="45.93598" lon="4.72185">
        <ele>173</ele>
        <time>2018-02-09T09:33:53Z</time>
      </trkpt>
      <trkpt lat="45.93603" lon="4.72181">
        <ele>173</ele>
        <time>2018-02-09T09:33:54Z</time>
      </trkpt>
      <trkpt lat="45.93608" lon="4.72176">
        <ele>173</ele>
        <time>2018-02-09T09:33:55Z</time>
      </trkpt>
      <trkpt lat="45.93613" lon="4.7217">
        <ele>173</ele>
        <time>2018-02-09T09:33:56Z</time>
      </trkpt>
      <trkpt lat="45.93618" lon="4.72166">
        <ele>173</ele>
        <time>2018-02-09T09:33:57Z</time>
      </trkpt>
      <trkpt lat="45.93623" lon="4.7216">
        <ele>173</ele>
        <time>2018-02-09T09:33:58Z</time>
      </trkpt>
      <trkpt lat="45.93627" lon="4.72156">
        <ele>173</ele>
        <time>2018-02-09T09:33:59Z</time>
      </trkpt>
      <trkpt lat="45.9363" lon="4.7215">
        <ele>173</ele>
        <time>2018-02-09T09:34:00Z</time>
      </trkpt>
      <trkpt lat="45.93634" lon="4.72146">
        <ele>173</ele>
        <time>2018-02-09T09:34:01Z</time>
      </trkpt>
      <trkpt lat="45.93637" lon="4.7214">
        <ele>173</ele>
        <time>2018-02-09T09:34:02Z</time>
      </trkpt>
      <trkpt lat="45.93641" lon="4.72134">
        <ele>173</ele>
        <time>2018-02-09T09:34:03Z</time>
      </trkpt>
      <trkpt lat="45.93645" lon="4.72127">
        <ele>173</ele>
        <time>2018-02-09T09:34:04Z</time>
      </trkpt>
      <trkpt lat="45.93649" lon="4.72121">
        <ele>173</ele>
        <time>2018-02-09T09:34:05Z</time>
      </trkpt>
      <trkpt lat="45.93652" lon="4.72116">
        <ele>173</ele>
        <time>2018-02-09T09:34:06Z</time>
      </trkpt>
      <trkpt lat="45.93656" lon="4.7211">
        <ele>173</ele>
        <time>2018-02-09T09:34:07Z</time>
      </trkpt>
      <trkpt lat="45.9366" lon="4.72104">
        <ele>173</ele>
        <time>2018-02-09T09:34:08Z</time>
      </trkpt>
      <trkpt lat="45.93665" lon="4.72096">
        <ele>172</ele>
        <time>2018-02-09T09:34:09Z</time>
      </trkpt>
      <trkpt lat="45.93668" lon="4.7209">
        <ele>172</ele>
        <time>2018-02-09T09:34:10Z</time>
      </trkpt>
      <trkpt lat="45.93672" lon="4.72085">
        <ele>172</ele>
        <time>2018-02-09T09:34:11Z</time>
      </trkpt>
      <trkpt lat="45.93675" lon="4.72079">
        <ele>172</ele>
        <time>2018-02-09T09:34:12Z</time>
      </trkpt>
      <trkpt lat="45.93678" lon="4.72074">
        <ele>172</ele>
        <time>2018-02-09T09:34:13Z</time>
      </trkpt>
      <trkpt lat="45.93681" lon="4.72069">
        <ele>172</ele>
        <time>2018-02-09T09:34:14Z</time>
      </trkpt>
      <trkpt lat="45.93684" lon="4.72063">
        <ele>172</ele>
        <time>2018-02-09T09:34:15Z</time>
      </trkpt>
      <trkpt lat="45.93686" lon="4.72058">
        <ele>172</ele>
        <time>2018-02-09T09:34:16Z</time>
      </trkpt>
      <trkpt lat="45.9369" lon="4.72052">
        <ele>172</ele>
        <time>2018-02-09T09:34:17Z</time>
      </trkpt>
      <trkpt lat="45.93694" lon="4.72044">
        <ele>173</ele>
        <time>2018-02-09T09:34:18Z</time>
      </trkpt>
      <trkpt lat="45.93697" lon="4.72038">
        <ele>172</ele>
        <time>2018-02-09T09:34:19Z</time>
      </trkpt>
      <trkpt lat="45.937" lon="4.72033">
        <ele>172</ele>
        <time>2018-02-09T09:34:20Z</time>
      </trkpt>
      <trkpt lat="45.93703" lon="4.72028">
        <ele>172</ele>
        <time>2018-02-09T09:34:21Z</time>
      </trkpt>
      <trkpt lat="45.93708" lon="4.72019">
        <ele>172</ele>
        <time>2018-02-09T09:34:22Z</time>
      </trkpt>
      <trkpt lat="45.93712" lon="4.72012">
        <ele>172</ele>
        <time>2018-02-09T09:34:23Z</time>
      </trkpt>
      <trkpt lat="45.93716" lon="4.72006">
        <ele>172</ele>
        <time>2018-02-09T09:34:24Z</time>
      </trkpt>
      <trkpt lat="45.9372" lon="4.71999">
        <ele>172</ele>
        <time>2018-02-09T09:34:25Z</time>
      </trkpt>
      <trkpt lat="45.93723" lon="4.71992">
        <ele>172</ele>
        <time>2018-02-09T09:34:26Z</time>
      </trkpt>
      <trkpt lat="45.93727" lon="4.71985">
        <ele>172</ele>
        <time>2018-02-09T09:34:27Z</time>
      </trkpt>
      <trkpt lat="45.93731" lon="4.71978">
        <ele>172</ele>
        <time>2018-02-09T09:34:28Z</time>
      </trkpt>
      <trkpt lat="45.93734" lon="4.71973">
        <ele>172</ele>
        <time>2018-02-09T09:34:29Z</time>
      </trkpt>
      <trkpt lat="45.93739" lon="4.7197">
        <ele>172</ele>
        <time>2018-02-09T09:34:30Z</time>
      </trkpt>
      <trkpt lat="45.93744" lon="4.71966">
        <ele>172</ele>
        <time>2018-02-09T09:34:31Z</time>
      </trkpt>
      <trkpt lat="45.93749" lon="4.71962">
        <ele>172</ele>
        <time>2018-02-09T09:34:32Z</time>
      </trkpt>
      <trkpt lat="45.93752" lon="4.71959">
        <ele>171</ele>
        <time>2018-02-09T09:34:33Z</time>
      </trkpt>
      <trkpt lat="45.93759" lon="4.71953">
        <ele>171</ele>
        <time>2018-02-09T09:34:35Z</time>
      </trkpt>
      <trkpt lat="45.93761" lon="4.7195">
        <ele>171</ele>
        <time>2018-02-09T09:34:36Z</time>
      </trkpt>
      <trkpt lat="45.93767" lon="4.71942">
        <ele>171</ele>
        <time>2018-02-09T09:34:39Z</time>
      </trkpt>
      <trkpt lat="45.93769" lon="4.71938">
        <ele>171</ele>
        <time>2018-02-09T09:34:40Z</time>
      </trkpt>
      <trkpt lat="45.93774" lon="4.71931">
        <ele>171</ele>
        <time>2018-02-09T09:34:42Z</time>
      </trkpt>
      <trkpt lat="45.93776" lon="4.71927">
        <ele>171</ele>
        <time>2018-02-09T09:34:43Z</time>
      </trkpt>
      <trkpt lat="45.9378" lon="4.71919">
        <ele>171</ele>
        <time>2018-02-09T09:34:45Z</time>
      </trkpt>
      <trkpt lat="45.93782" lon="4.71913">
        <ele>172</ele>
        <time>2018-02-09T09:34:46Z</time>
      </trkpt>
      <trkpt lat="45.93785" lon="4.71902">
        <ele>172</ele>
        <time>2018-02-09T09:34:48Z</time>
      </trkpt>
      <trkpt lat="45.93785" lon="4.71897">
        <ele>172</ele>
        <time>2018-02-09T09:34:49Z</time>
      </trkpt>
      <trkpt lat="45.93786" lon="4.7189">
        <ele>172</ele>
        <time>2018-02-09T09:34:50Z</time>
      </trkpt>
      <trkpt lat="45.93787" lon="4.71883">
        <ele>172</ele>
        <time>2018-02-09T09:34:51Z</time>
      </trkpt>
      <trkpt lat="45.9379" lon="4.71877">
        <ele>172</ele>
        <time>2018-02-09T09:34:52Z</time>
      </trkpt>
      <trkpt lat="45.93794" lon="4.7187">
        <ele>172</ele>
        <time>2018-02-09T09:34:53Z</time>
      </trkpt>
      <trkpt lat="45.93797" lon="4.71864">
        <ele>172</ele>
        <time>2018-02-09T09:34:54Z</time>
      </trkpt>
      <trkpt lat="45.938" lon="4.71859">
        <ele>172</ele>
        <time>2018-02-09T09:34:55Z</time>
      </trkpt>
      <trkpt lat="45.93804" lon="4.71853">
        <ele>172</ele>
        <time>2018-02-09T09:34:56Z</time>
      </trkpt>
      <trkpt lat="45.93807" lon="4.71847">
        <ele>172</ele>
        <time>2018-02-09T09:34:57Z</time>
      </trkpt>
      <trkpt lat="45.9381" lon="4.71842">
        <ele>172</ele>
        <time>2018-02-09T09:34:58Z</time>
      </trkpt>
      <trkpt lat="45.93814" lon="4.71835">
        <ele>172</ele>
        <time>2018-02-09T09:34:59Z</time>
      </trkpt>
      <trkpt lat="45.93817" lon="4.71829">
        <ele>173</ele>
        <time>2018-02-09T09:35:00Z</time>
      </trkpt>
      <trkpt lat="45.9382" lon="4.71824">
        <ele>173</ele>
        <time>2018-02-09T09:35:01Z</time>
      </trkpt>
      <trkpt lat="45.93825" lon="4.71815">
        <ele>173</ele>
        <time>2018-02-09T09:35:03Z</time>
      </trkpt>
      <trkpt lat="45.93829" lon="4.71809">
        <ele>173</ele>
        <time>2018-02-09T09:35:04Z</time>
      </trkpt>
      <trkpt lat="45.93833" lon="4.71801">
        <ele>174</ele>
        <time>2018-02-09T09:35:05Z</time>
      </trkpt>
      <trkpt lat="45.93837" lon="4.71795">
        <ele>173</ele>
        <time>2018-02-09T09:35:06Z</time>
      </trkpt>
      <trkpt lat="45.93841" lon="4.71789">
        <ele>173</ele>
        <time>2018-02-09T09:35:07Z</time>
      </trkpt>
      <trkpt lat="45.93845" lon="4.71784">
        <ele>173</ele>
        <time>2018-02-09T09:35:08Z</time>
      </trkpt>
      <trkpt lat="45.93848" lon="4.71781">
        <ele>173</ele>
        <time>2018-02-09T09:35:09Z</time>
      </trkpt>
      <trkpt lat="45.93852" lon="4.71775">
        <ele>173</ele>
        <time>2018-02-09T09:35:10Z</time>
      </trkpt>
      <trkpt lat="45.93856" lon="4.71768">
        <ele>173</ele>
        <time>2018-02-09T09:35:11Z</time>
      </trkpt>
      <trkpt lat="45.93861" lon="4.71761">
        <ele>173</ele>
        <time>2018-02-09T09:35:12Z</time>
      </trkpt>
      <trkpt lat="45.93866" lon="4.71756">
        <ele>173</ele>
        <time>2018-02-09T09:35:13Z</time>
      </trkpt>
      <trkpt lat="45.9387" lon="4.7175">
        <ele>174</ele>
        <time>2018-02-09T09:35:14Z</time>
      </trkpt>
      <trkpt lat="45.93875" lon="4.71745">
        <ele>174</ele>
        <time>2018-02-09T09:35:15Z</time>
      </trkpt>
      <trkpt lat="45.93879" lon="4.7174">
        <ele>174</ele>
        <time>2018-02-09T09:35:16Z</time>
      </trkpt>
      <trkpt lat="45.93883" lon="4.71735">
        <ele>174</ele>
        <time>2018-02-09T09:35:17Z</time>
      </trkpt>
      <trkpt lat="45.93888" lon="4.71731">
        <ele>174</ele>
        <time>2018-02-09T09:35:18Z</time>
      </trkpt>
      <trkpt lat="45.93893" lon="4.71727">
        <ele>174</ele>
        <time>2018-02-09T09:35:19Z</time>
      </trkpt>
      <trkpt lat="45.93898" lon="4.71722">
        <ele>174</ele>
        <time>2018-02-09T09:35:20Z</time>
      </trkpt>
      <trkpt lat="45.93903" lon="4.71714">
        <ele>174</ele>
        <time>2018-02-09T09:35:21Z</time>
      </trkpt>
      <trkpt lat="45.93908" lon="4.71709">
        <ele>174</ele>
        <time>2018-02-09T09:35:22Z</time>
      </trkpt>
      <trkpt lat="45.93914" lon="4.71705">
        <ele>174</ele>
        <time>2018-02-09T09:35:23Z</time>
      </trkpt>
      <trkpt lat="45.93918" lon="4.71704">
        <ele>174</ele>
        <time>2018-02-09T09:35:24Z</time>
      </trkpt>
      <trkpt lat="45.93923" lon="4.71702">
        <ele>174</ele>
        <time>2018-02-09T09:35:25Z</time>
      </trkpt>
      <trkpt lat="45.93928" lon="4.717">
        <ele>174</ele>
        <time>2018-02-09T09:35:26Z</time>
      </trkpt>
      <trkpt lat="45.93933" lon="4.71696">
        <ele>174</ele>
        <time>2018-02-09T09:35:27Z</time>
      </trkpt>
      <trkpt lat="45.93938" lon="4.71694">
        <ele>175</ele>
        <time>2018-02-09T09:35:28Z</time>
      </trkpt>
      <trkpt lat="45.93943" lon="4.71692">
        <ele>175</ele>
        <time>2018-02-09T09:35:29Z</time>
      </trkpt>
      <trkpt lat="45.93947" lon="4.7169">
        <ele>175</ele>
        <time>2018-02-09T09:35:30Z</time>
      </trkpt>
      <trkpt lat="45.93952" lon="4.71688">
        <ele>175</ele>
        <time>2018-02-09T09:35:31Z</time>
      </trkpt>
      <trkpt lat="45.93957" lon="4.71685">
        <ele>175</ele>
        <time>2018-02-09T09:35:32Z</time>
      </trkpt>
      <trkpt lat="45.93961" lon="4.71683">
        <ele>175</ele>
        <time>2018-02-09T09:35:33Z</time>
      </trkpt>
      <trkpt lat="45.93966" lon="4.7168">
        <ele>175</ele>
        <time>2018-02-09T09:35:34Z</time>
      </trkpt>
      <trkpt lat="45.93972" lon="4.71678">
        <ele>175</ele>
        <time>2018-02-09T09:35:35Z</time>
      </trkpt>
      <trkpt lat="45.93978" lon="4.71675">
        <ele>175</ele>
        <time>2018-02-09T09:35:36Z</time>
      </trkpt>
      <trkpt lat="45.93984" lon="4.71673">
        <ele>176</ele>
        <time>2018-02-09T09:35:37Z</time>
      </trkpt>
      <trkpt lat="45.93988" lon="4.71673">
        <ele>176</ele>
        <time>2018-02-09T09:35:38Z</time>
      </trkpt>
      <trkpt lat="45.93994" lon="4.71673">
        <ele>176</ele>
        <time>2018-02-09T09:35:39Z</time>
      </trkpt>
      <trkpt lat="45.93999" lon="4.71675">
        <ele>176</ele>
        <time>2018-02-09T09:35:40Z</time>
      </trkpt>
      <trkpt lat="45.94004" lon="4.71678">
        <ele>176</ele>
        <time>2018-02-09T09:35:41Z</time>
      </trkpt>
      <trkpt lat="45.94009" lon="4.7168">
        <ele>176</ele>
        <time>2018-02-09T09:35:42Z</time>
      </trkpt>
      <trkpt lat="45.94014" lon="4.7168">
        <ele>175</ele>
        <time>2018-02-09T09:35:43Z</time>
      </trkpt>
      <trkpt lat="45.94018" lon="4.71676">
        <ele>175</ele>
        <time>2018-02-09T09:35:44Z</time>
      </trkpt>
      <trkpt lat="45.94021" lon="4.71671">
        <ele>175</ele>
        <time>2018-02-09T09:35:45Z</time>
      </trkpt>
      <trkpt lat="45.94023" lon="4.71664">
        <ele>176</ele>
        <time>2018-02-09T09:35:46Z</time>
      </trkpt>
      <trkpt lat="45.94028" lon="4.71655">
        <ele>175</ele>
        <time>2018-02-09T09:35:48Z</time>
      </trkpt>
      <trkpt lat="45.94034" lon="4.71652">
        <ele>175</ele>
        <time>2018-02-09T09:35:49Z</time>
      </trkpt>
      <trkpt lat="45.94038" lon="4.7165">
        <ele>175</ele>
        <time>2018-02-09T09:35:50Z</time>
      </trkpt>
      <trkpt lat="45.94043" lon="4.71649">
        <ele>175</ele>
        <time>2018-02-09T09:35:51Z</time>
      </trkpt>
      <trkpt lat="45.94051" lon="4.71644">
        <ele>175</ele>
        <time>2018-02-09T09:35:53Z</time>
      </trkpt>
      <trkpt lat="45.94056" lon="4.71641">
        <ele>174</ele>
        <time>2018-02-09T09:35:54Z</time>
      </trkpt>
      <trkpt lat="45.94061" lon="4.71639">
        <ele>174</ele>
        <time>2018-02-09T09:35:55Z</time>
      </trkpt>
      <trkpt lat="45.94066" lon="4.71637">
        <ele>174</ele>
        <time>2018-02-09T09:35:56Z</time>
      </trkpt>
      <trkpt lat="45.94071" lon="4.71636">
        <ele>174</ele>
        <time>2018-02-09T09:35:57Z</time>
      </trkpt>
      <trkpt lat="45.94077" lon="4.71635">
        <ele>174</ele>
        <time>2018-02-09T09:35:58Z</time>
      </trkpt>
      <trkpt lat="45.94082" lon="4.71634">
        <ele>174</ele>
        <time>2018-02-09T09:35:59Z</time>
      </trkpt>
      <trkpt lat="45.94087" lon="4.71631">
        <ele>173</ele>
        <time>2018-02-09T09:36:00Z</time>
      </trkpt>
      <trkpt lat="45.94093" lon="4.7163">
        <ele>173</ele>
        <time>2018-02-09T09:36:01Z</time>
      </trkpt>
      <trkpt lat="45.94099" lon="4.71626">
        <ele>173</ele>
        <time>2018-02-09T09:36:02Z</time>
      </trkpt>
      <trkpt lat="45.94104" lon="4.71624">
        <ele>173</ele>
        <time>2018-02-09T09:36:03Z</time>
      </trkpt>
      <trkpt lat="45.94109" lon="4.71622">
        <ele>173</ele>
        <time>2018-02-09T09:36:04Z</time>
      </trkpt>
      <trkpt lat="45.94115" lon="4.71621">
        <ele>173</ele>
        <time>2018-02-09T09:36:05Z</time>
      </trkpt>
      <trkpt lat="45.9412" lon="4.71618">
        <ele>173</ele>
        <time>2018-02-09T09:36:06Z</time>
      </trkpt>
      <trkpt lat="45.94125" lon="4.71616">
        <ele>173</ele>
        <time>2018-02-09T09:36:07Z</time>
      </trkpt>
      <trkpt lat="45.9413" lon="4.71614">
        <ele>173</ele>
        <time>2018-02-09T09:36:08Z</time>
      </trkpt>
      <trkpt lat="45.94135" lon="4.71613">
        <ele>173</ele>
        <time>2018-02-09T09:36:09Z</time>
      </trkpt>
      <trkpt lat="45.9414" lon="4.7161">
        <ele>173</ele>
        <time>2018-02-09T09:36:10Z</time>
      </trkpt>
      <trkpt lat="45.94144" lon="4.71608">
        <ele>173</ele>
        <time>2018-02-09T09:36:11Z</time>
      </trkpt>
      <trkpt lat="45.94149" lon="4.71607">
        <ele>173</ele>
        <time>2018-02-09T09:36:12Z</time>
      </trkpt>
      <trkpt lat="45.94155" lon="4.71605">
        <ele>173</ele>
        <time>2018-02-09T09:36:13Z</time>
      </trkpt>
      <trkpt lat="45.9416" lon="4.71602">
        <ele>173</ele>
        <time>2018-02-09T09:36:14Z</time>
      </trkpt>
      <trkpt lat="45.94165" lon="4.716">
        <ele>173</ele>
        <time>2018-02-09T09:36:15Z</time>
      </trkpt>
      <trkpt lat="45.94171" lon="4.71599">
        <ele>173</ele>
        <time>2018-02-09T09:36:16Z</time>
      </trkpt>
      <trkpt lat="45.94177" lon="4.71596">
        <ele>173</ele>
        <time>2018-02-09T09:36:17Z</time>
      </trkpt>
      <trkpt lat="45.94183" lon="4.71593">
        <ele>173</ele>
        <time>2018-02-09T09:36:18Z</time>
      </trkpt>
      <trkpt lat="45.94188" lon="4.71592">
        <ele>173</ele>
        <time>2018-02-09T09:36:19Z</time>
      </trkpt>
      <trkpt lat="45.94194" lon="4.7159">
        <ele>173</ele>
        <time>2018-02-09T09:36:20Z</time>
      </trkpt>
      <trkpt lat="45.94199" lon="4.71588">
        <ele>173</ele>
        <time>2018-02-09T09:36:21Z</time>
      </trkpt>
      <trkpt lat="45.94206" lon="4.71586">
        <ele>173</ele>
        <time>2018-02-09T09:36:22Z</time>
      </trkpt>
      <trkpt lat="45.94211" lon="4.71583">
        <ele>173</ele>
        <time>2018-02-09T09:36:23Z</time>
      </trkpt>
      <trkpt lat="45.94216" lon="4.71581">
        <ele>174</ele>
        <time>2018-02-09T09:36:24Z</time>
      </trkpt>
      <trkpt lat="45.94222" lon="4.71579">
        <ele>174</ele>
        <time>2018-02-09T09:36:25Z</time>
      </trkpt>
      <trkpt lat="45.94226" lon="4.71577">
        <ele>174</ele>
        <time>2018-02-09T09:36:26Z</time>
      </trkpt>
      <trkpt lat="45.94231" lon="4.71575">
        <ele>174</ele>
        <time>2018-02-09T09:36:27Z</time>
      </trkpt>
      <trkpt lat="45.94237" lon="4.71572">
        <ele>174</ele>
        <time>2018-02-09T09:36:28Z</time>
      </trkpt>
      <trkpt lat="45.94242" lon="4.7157">
        <ele>174</ele>
        <time>2018-02-09T09:36:29Z</time>
      </trkpt>
      <trkpt lat="45.94247" lon="4.71568">
        <ele>174</ele>
        <time>2018-02-09T09:36:30Z</time>
      </trkpt>
      <trkpt lat="45.94253" lon="4.71565">
        <ele>175</ele>
        <time>2018-02-09T09:36:31Z</time>
      </trkpt>
      <trkpt lat="45.94258" lon="4.71564">
        <ele>175</ele>
        <time>2018-02-09T09:36:32Z</time>
      </trkpt>
      <trkpt lat="45.94264" lon="4.71562">
        <ele>175</ele>
        <time>2018-02-09T09:36:33Z</time>
      </trkpt>
      <trkpt lat="45.94269" lon="4.7156">
        <ele>175</ele>
        <time>2018-02-09T09:36:34Z</time>
      </trkpt>
      <trkpt lat="45.94274" lon="4.71558">
        <ele>175</ele>
        <time>2018-02-09T09:36:35Z</time>
      </trkpt>
      <trkpt lat="45.9428" lon="4.71556">
        <ele>175</ele>
        <time>2018-02-09T09:36:36Z</time>
      </trkpt>
      <trkpt lat="45.94285" lon="4.71553">
        <ele>175</ele>
        <time>2018-02-09T09:36:37Z</time>
      </trkpt>
      <trkpt lat="45.9429" lon="4.71552">
        <ele>175</ele>
        <time>2018-02-09T09:36:38Z</time>
      </trkpt>
      <trkpt lat="45.94295" lon="4.7155">
        <ele>175</ele>
        <time>2018-02-09T09:36:39Z</time>
      </trkpt>
      <trkpt lat="45.943" lon="4.71548">
        <ele>175</ele>
        <time>2018-02-09T09:36:40Z</time>
      </trkpt>
      <trkpt lat="45.94305" lon="4.71547">
        <ele>175</ele>
        <time>2018-02-09T09:36:41Z</time>
      </trkpt>
      <trkpt lat="45.9431" lon="4.71545">
        <ele>175</ele>
        <time>2018-02-09T09:36:42Z</time>
      </trkpt>
      <trkpt lat="45.94316" lon="4.71542">
        <ele>175</ele>
        <time>2018-02-09T09:36:43Z</time>
      </trkpt>
      <trkpt lat="45.9432" lon="4.7154">
        <ele>175</ele>
        <time>2018-02-09T09:36:44Z</time>
      </trkpt>
      <trkpt lat="45.94327" lon="4.71539">
        <ele>176</ele>
        <time>2018-02-09T09:36:46Z</time>
      </trkpt>
      <trkpt lat="45.94331" lon="4.71537">
        <ele>176</ele>
        <time>2018-02-09T09:36:47Z</time>
      </trkpt>
      <trkpt lat="45.94336" lon="4.71535">
        <ele>176</ele>
        <time>2018-02-09T09:36:48Z</time>
      </trkpt>
      <trkpt lat="45.94342" lon="4.71533">
        <ele>176</ele>
        <time>2018-02-09T09:36:49Z</time>
      </trkpt>
      <trkpt lat="45.94348" lon="4.7153">
        <ele>176</ele>
        <time>2018-02-09T09:36:50Z</time>
      </trkpt>
      <trkpt lat="45.94354" lon="4.71527">
        <ele>176</ele>
        <time>2018-02-09T09:36:51Z</time>
      </trkpt>
      <trkpt lat="45.94359" lon="4.71526">
        <ele>176</ele>
        <time>2018-02-09T09:36:52Z</time>
      </trkpt>
      <trkpt lat="45.94364" lon="4.71525">
        <ele>176</ele>
        <time>2018-02-09T09:36:53Z</time>
      </trkpt>
      <trkpt lat="45.9437" lon="4.71524">
        <ele>176</ele>
        <time>2018-02-09T09:36:54Z</time>
      </trkpt>
      <trkpt lat="45.94375" lon="4.71522">
        <ele>176</ele>
        <time>2018-02-09T09:36:55Z</time>
      </trkpt>
      <trkpt lat="45.9438" lon="4.71521">
        <ele>176</ele>
        <time>2018-02-09T09:36:56Z</time>
      </trkpt>
      <trkpt lat="45.94386" lon="4.71517">
        <ele>177</ele>
        <time>2018-02-09T09:36:57Z</time>
      </trkpt>
      <trkpt lat="45.94391" lon="4.71516">
        <ele>177</ele>
        <time>2018-02-09T09:36:58Z</time>
      </trkpt>
      <trkpt lat="45.94395" lon="4.71513">
        <ele>177</ele>
        <time>2018-02-09T09:36:59Z</time>
      </trkpt>
      <trkpt lat="45.94403" lon="4.7151">
        <ele>177</ele>
        <time>2018-02-09T09:37:01Z</time>
      </trkpt>
      <trkpt lat="45.94407" lon="4.71508">
        <ele>177</ele>
        <time>2018-02-09T09:37:02Z</time>
      </trkpt>
      <trkpt lat="45.94412" lon="4.71506">
        <ele>178</ele>
        <time>2018-02-09T09:37:03Z</time>
      </trkpt>
      <trkpt lat="45.94416" lon="4.71505">
        <ele>178</ele>
        <time>2018-02-09T09:37:04Z</time>
      </trkpt>
      <trkpt lat="45.94421" lon="4.71502">
        <ele>178</ele>
        <time>2018-02-09T09:37:05Z</time>
      </trkpt>
      <trkpt lat="45.94426" lon="4.71501">
        <ele>177</ele>
        <time>2018-02-09T09:37:06Z</time>
      </trkpt>
      <trkpt lat="45.9443" lon="4.71499">
        <ele>178</ele>
        <time>2018-02-09T09:37:07Z</time>
      </trkpt>
      <trkpt lat="45.94435" lon="4.71497">
        <ele>178</ele>
        <time>2018-02-09T09:37:08Z</time>
      </trkpt>
      <trkpt lat="45.9444" lon="4.71494">
        <ele>178</ele>
        <time>2018-02-09T09:37:09Z</time>
      </trkpt>
      <trkpt lat="45.94445" lon="4.71492">
        <ele>178</ele>
        <time>2018-02-09T09:37:10Z</time>
      </trkpt>
      <trkpt lat="45.9445" lon="4.71491">
        <ele>179</ele>
        <time>2018-02-09T09:37:11Z</time>
      </trkpt>
      <trkpt lat="45.94455" lon="4.71488">
        <ele>179</ele>
        <time>2018-02-09T09:37:12Z</time>
      </trkpt>
      <trkpt lat="45.94459" lon="4.71487">
        <ele>179</ele>
        <time>2018-02-09T09:37:13Z</time>
      </trkpt>
      <trkpt lat="45.94463" lon="4.71485">
        <ele>179</ele>
        <time>2018-02-09T09:37:14Z</time>
      </trkpt>
      <trkpt lat="45.94472" lon="4.71481">
        <ele>179</ele>
        <time>2018-02-09T09:37:16Z</time>
      </trkpt>
      <trkpt lat="45.94476" lon="4.7148">
        <ele>179</ele>
        <time>2018-02-09T09:37:17Z</time>
      </trkpt>
      <trkpt lat="45.94481" lon="4.71478">
        <ele>179</ele>
        <time>2018-02-09T09:37:18Z</time>
      </trkpt>
      <trkpt lat="45.94486" lon="4.71476">
        <ele>179</ele>
        <time>2018-02-09T09:37:19Z</time>
      </trkpt>
      <trkpt lat="45.9449" lon="4.71475">
        <ele>179</ele>
        <time>2018-02-09T09:37:20Z</time>
      </trkpt>
      <trkpt lat="45.94495" lon="4.71473">
        <ele>179</ele>
        <time>2018-02-09T09:37:21Z</time>
      </trkpt>
      <trkpt lat="45.94503" lon="4.71469">
        <ele>179</ele>
        <time>2018-02-09T09:37:23Z</time>
      </trkpt>
      <trkpt lat="45.94507" lon="4.71467">
        <ele>179</ele>
        <time>2018-02-09T09:37:24Z</time>
      </trkpt>
      <trkpt lat="45.94516" lon="4.71464">
        <ele>180</ele>
        <time>2018-02-09T09:37:26Z</time>
      </trkpt>
      <trkpt lat="45.9452" lon="4.71463">
        <ele>180</ele>
        <time>2018-02-09T09:37:27Z</time>
      </trkpt>
      <trkpt lat="45.94528" lon="4.7146">
        <ele>180</ele>
        <time>2018-02-09T09:37:29Z</time>
      </trkpt>
      <trkpt lat="45.94533" lon="4.71458">
        <ele>180</ele>
        <time>2018-02-09T09:37:30Z</time>
      </trkpt>
      <trkpt lat="45.9454" lon="4.71455">
        <ele>180</ele>
        <time>2018-02-09T09:37:32Z</time>
      </trkpt>
      <trkpt lat="45.94544" lon="4.71454">
        <ele>180</ele>
        <time>2018-02-09T09:37:33Z</time>
      </trkpt>
      <trkpt lat="45.94553" lon="4.71452">
        <ele>180</ele>
        <time>2018-02-09T09:37:35Z</time>
      </trkpt>
      <trkpt lat="45.94557" lon="4.7145">
        <ele>181</ele>
        <time>2018-02-09T09:37:36Z</time>
      </trkpt>
      <trkpt lat="45.94565" lon="4.71449">
        <ele>181</ele>
        <time>2018-02-09T09:37:38Z</time>
      </trkpt>
      <trkpt lat="45.94569" lon="4.71448">
        <ele>181</ele>
        <time>2018-02-09T09:37:39Z</time>
      </trkpt>
      <trkpt lat="45.94576" lon="4.71447">
        <ele>181</ele>
        <time>2018-02-09T09:37:41Z</time>
      </trkpt>
      <trkpt lat="45.9458" lon="4.71446">
        <ele>181</ele>
        <time>2018-02-09T09:37:42Z</time>
      </trkpt>
      <trkpt lat="45.94589" lon="4.71445">
        <ele>182</ele>
        <time>2018-02-09T09:37:44Z</time>
      </trkpt>
      <trkpt lat="45.94592" lon="4.71445">
        <ele>182</ele>
        <time>2018-02-09T09:37:45Z</time>
      </trkpt>
      <trkpt lat="45.94601" lon="4.71447">
        <ele>181</ele>
        <time>2018-02-09T09:37:47Z</time>
      </trkpt>
      <trkpt lat="45.94605" lon="4.71446">
        <ele>181</ele>
        <time>2018-02-09T09:37:48Z</time>
      </trkpt>
      <trkpt lat="45.94613" lon="4.71447">
        <ele>181</ele>
        <time>2018-02-09T09:37:50Z</time>
      </trkpt>
      <trkpt lat="45.94617" lon="4.71448">
        <ele>181</ele>
        <time>2018-02-09T09:37:51Z</time>
      </trkpt>
      <trkpt lat="45.94622" lon="4.71447">
        <ele>181</ele>
        <time>2018-02-09T09:37:52Z</time>
      </trkpt>
      <trkpt lat="45.94626" lon="4.71448">
        <ele>181</ele>
        <time>2018-02-09T09:37:53Z</time>
      </trkpt>
      <trkpt lat="45.94634" lon="4.71448">
        <ele>181</ele>
        <time>2018-02-09T09:37:55Z</time>
      </trkpt>
      <trkpt lat="45.94639" lon="4.71448">
        <ele>181</ele>
        <time>2018-02-09T09:37:56Z</time>
      </trkpt>
      <trkpt lat="45.94647" lon="4.71449">
        <ele>181</ele>
        <time>2018-02-09T09:37:58Z</time>
      </trkpt>
      <trkpt lat="45.94651" lon="4.71449">
        <ele>181</ele>
        <time>2018-02-09T09:37:59Z</time>
      </trkpt>
      <trkpt lat="45.9466" lon="4.71449">
        <ele>181</ele>
        <time>2018-02-09T09:38:01Z</time>
      </trkpt>
      <trkpt lat="45.94664" lon="4.71449">
        <ele>181</ele>
        <time>2018-02-09T09:38:02Z</time>
      </trkpt>
      <trkpt lat="45.94673" lon="4.71451">
        <ele>182</ele>
        <time>2018-02-09T09:38:04Z</time>
      </trkpt>
      <trkpt lat="45.94677" lon="4.71451">
        <ele>182</ele>
        <time>2018-02-09T09:38:05Z</time>
      </trkpt>
      <trkpt lat="45.94682" lon="4.71451">
        <ele>182</ele>
        <time>2018-02-09T09:38:06Z</time>
      </trkpt>
      <trkpt lat="45.94686" lon="4.71452">
        <ele>182</ele>
        <time>2018-02-09T09:38:07Z</time>
      </trkpt>
      <trkpt lat="45.94691" lon="4.71452">
        <ele>182</ele>
        <time>2018-02-09T09:38:08Z</time>
      </trkpt>
      <trkpt lat="45.94696" lon="4.71452">
        <ele>182</ele>
        <time>2018-02-09T09:38:09Z</time>
      </trkpt>
      <trkpt lat="45.94704" lon="4.71454">
        <ele>182</ele>
        <time>2018-02-09T09:38:11Z</time>
      </trkpt>
      <trkpt lat="45.94708" lon="4.71454">
        <ele>182</ele>
        <time>2018-02-09T09:38:12Z</time>
      </trkpt>
      <trkpt lat="45.94713" lon="4.71455">
        <ele>182</ele>
        <time>2018-02-09T09:38:13Z</time>
      </trkpt>
      <trkpt lat="45.94718" lon="4.71455">
        <ele>182</ele>
        <time>2018-02-09T09:38:14Z</time>
      </trkpt>
      <trkpt lat="45.94723" lon="4.71455">
        <ele>182</ele>
        <time>2018-02-09T09:38:15Z</time>
      </trkpt>
      <trkpt lat="45.94728" lon="4.71456">
        <ele>182</ele>
        <time>2018-02-09T09:38:16Z</time>
      </trkpt>
      <trkpt lat="45.94734" lon="4.71456">
        <ele>182</ele>
        <time>2018-02-09T09:38:17Z</time>
      </trkpt>
      <trkpt lat="45.94739" lon="4.71456">
        <ele>182</ele>
        <time>2018-02-09T09:38:18Z</time>
      </trkpt>
      <trkpt lat="45.94744" lon="4.71457">
        <ele>182</ele>
        <time>2018-02-09T09:38:19Z</time>
      </trkpt>
      <trkpt lat="45.9475" lon="4.71457">
        <ele>182</ele>
        <time>2018-02-09T09:38:20Z</time>
      </trkpt>
      <trkpt lat="45.94755" lon="4.71456">
        <ele>183</ele>
        <time>2018-02-09T09:38:21Z</time>
      </trkpt>
      <trkpt lat="45.9476" lon="4.71457">
        <ele>183</ele>
        <time>2018-02-09T09:38:22Z</time>
      </trkpt>
      <trkpt lat="45.94765" lon="4.71458">
        <ele>183</ele>
        <time>2018-02-09T09:38:23Z</time>
      </trkpt>
      <trkpt lat="45.94769" lon="4.71459">
        <ele>183</ele>
        <time>2018-02-09T09:38:24Z</time>
      </trkpt>
      <trkpt lat="45.94774" lon="4.7146">
        <ele>183</ele>
        <time>2018-02-09T09:38:25Z</time>
      </trkpt>
      <trkpt lat="45.94779" lon="4.7146">
        <ele>183</ele>
        <time>2018-02-09T09:38:26Z</time>
      </trkpt>
      <trkpt lat="45.94784" lon="4.71459">
        <ele>183</ele>
        <time>2018-02-09T09:38:27Z</time>
      </trkpt>
      <trkpt lat="45.94789" lon="4.71461">
        <ele>183</ele>
        <time>2018-02-09T09:38:28Z</time>
      </trkpt>
      <trkpt lat="45.94794" lon="4.71461">
        <ele>183</ele>
        <time>2018-02-09T09:38:29Z</time>
      </trkpt>
      <trkpt lat="45.948" lon="4.71461">
        <ele>183</ele>
        <time>2018-02-09T09:38:30Z</time>
      </trkpt>
      <trkpt lat="45.94805" lon="4.71463">
        <ele>183</ele>
        <time>2018-02-09T09:38:31Z</time>
      </trkpt>
      <trkpt lat="45.94811" lon="4.71463">
        <ele>183</ele>
        <time>2018-02-09T09:38:32Z</time>
      </trkpt>
      <trkpt lat="45.94818" lon="4.71463">
        <ele>183</ele>
        <time>2018-02-09T09:38:33Z</time>
      </trkpt>
      <trkpt lat="45.94824" lon="4.71463">
        <ele>183</ele>
        <time>2018-02-09T09:38:34Z</time>
      </trkpt>
      <trkpt lat="45.94831" lon="4.71465">
        <ele>183</ele>
        <time>2018-02-09T09:38:35Z</time>
      </trkpt>
      <trkpt lat="45.94838" lon="4.71465">
        <ele>183</ele>
        <time>2018-02-09T09:38:36Z</time>
      </trkpt>
      <trkpt lat="45.94844" lon="4.71465">
        <ele>183</ele>
        <time>2018-02-09T09:38:37Z</time>
      </trkpt>
      <trkpt lat="45.9485" lon="4.71466">
        <ele>183</ele>
        <time>2018-02-09T09:38:38Z</time>
      </trkpt>
      <trkpt lat="45.94856" lon="4.71469">
        <ele>183</ele>
        <time>2018-02-09T09:38:39Z</time>
      </trkpt>
      <trkpt lat="45.94862" lon="4.7147">
        <ele>183</ele>
        <time>2018-02-09T09:38:40Z</time>
      </trkpt>
      <trkpt lat="45.94868" lon="4.7147">
        <ele>183</ele>
        <time>2018-02-09T09:38:41Z</time>
      </trkpt>
      <trkpt lat="45.94873" lon="4.7147">
        <ele>183</ele>
        <time>2018-02-09T09:38:42Z</time>
      </trkpt>
      <trkpt lat="45.94879" lon="4.71471">
        <ele>183</ele>
        <time>2018-02-09T09:38:43Z</time>
      </trkpt>
      <trkpt lat="45.94884" lon="4.71472">
        <ele>183</ele>
        <time>2018-02-09T09:38:44Z</time>
      </trkpt>
      <trkpt lat="45.9489" lon="4.71472">
        <ele>183</ele>
        <time>2018-02-09T09:38:45Z</time>
      </trkpt>
      <trkpt lat="45.94895" lon="4.71473">
        <ele>183</ele>
        <time>2018-02-09T09:38:46Z</time>
      </trkpt>
      <trkpt lat="45.94901" lon="4.71473">
        <ele>183</ele>
        <time>2018-02-09T09:38:47Z</time>
      </trkpt>
      <trkpt lat="45.94906" lon="4.71475">
        <ele>183</ele>
        <time>2018-02-09T09:38:48Z</time>
      </trkpt>
      <trkpt lat="45.94912" lon="4.71475">
        <ele>182</ele>
        <time>2018-02-09T09:38:49Z</time>
      </trkpt>
      <trkpt lat="45.94917" lon="4.71476">
        <ele>182</ele>
        <time>2018-02-09T09:38:50Z</time>
      </trkpt>
      <trkpt lat="45.94922" lon="4.71476">
        <ele>182</ele>
        <time>2018-02-09T09:38:51Z</time>
      </trkpt>
      <trkpt lat="45.94927" lon="4.71476">
        <ele>182</ele>
        <time>2018-02-09T09:38:52Z</time>
      </trkpt>
      <trkpt lat="45.94931" lon="4.71476">
        <ele>183</ele>
        <time>2018-02-09T09:38:53Z</time>
      </trkpt>
      <trkpt lat="45.94936" lon="4.71476">
        <ele>183</ele>
        <time>2018-02-09T09:38:54Z</time>
      </trkpt>
      <trkpt lat="45.94941" lon="4.71477">
        <ele>183</ele>
        <time>2018-02-09T09:38:55Z</time>
      </trkpt>
      <trkpt lat="45.94947" lon="4.71479">
        <ele>183</ele>
        <time>2018-02-09T09:38:56Z</time>
      </trkpt>
      <trkpt lat="45.94951" lon="4.71482">
        <ele>183</ele>
        <time>2018-02-09T09:38:57Z</time>
      </trkpt>
      <trkpt lat="45.94957" lon="4.71486">
        <ele>182</ele>
        <time>2018-02-09T09:38:58Z</time>
      </trkpt>
      <trkpt lat="45.94961" lon="4.7149">
        <ele>182</ele>
        <time>2018-02-09T09:38:59Z</time>
      </trkpt>
      <trkpt lat="45.94965" lon="4.71493">
        <ele>182</ele>
        <time>2018-02-09T09:39:00Z</time>
      </trkpt>
      <trkpt lat="45.94971" lon="4.71493">
        <ele>182</ele>
        <time>2018-02-09T09:39:01Z</time>
      </trkpt>
      <trkpt lat="45.94975" lon="4.71492">
        <ele>182</ele>
        <time>2018-02-09T09:39:02Z</time>
      </trkpt>
      <trkpt lat="45.9498" lon="4.7149">
        <ele>182</ele>
        <time>2018-02-09T09:39:03Z</time>
      </trkpt>
      <trkpt lat="45.94985" lon="4.71488">
        <ele>182</ele>
        <time>2018-02-09T09:39:04Z</time>
      </trkpt>
      <trkpt lat="45.94989" lon="4.71485">
        <ele>182</ele>
        <time>2018-02-09T09:39:05Z</time>
      </trkpt>
      <trkpt lat="45.94994" lon="4.71483">
        <ele>182</ele>
        <time>2018-02-09T09:39:06Z</time>
      </trkpt>
      <trkpt lat="45.95" lon="4.71481">
        <ele>182</ele>
        <time>2018-02-09T09:39:07Z</time>
      </trkpt>
      <trkpt lat="45.95006" lon="4.71481">
        <ele>181</ele>
        <time>2018-02-09T09:39:08Z</time>
      </trkpt>
      <trkpt lat="45.95011" lon="4.7148">
        <ele>181</ele>
        <time>2018-02-09T09:39:09Z</time>
      </trkpt>
      <trkpt lat="45.95017" lon="4.71481">
        <ele>181</ele>
        <time>2018-02-09T09:39:10Z</time>
      </trkpt>
      <trkpt lat="45.95023" lon="4.71481">
        <ele>181</ele>
        <time>2018-02-09T09:39:11Z</time>
      </trkpt>
      <trkpt lat="45.9503" lon="4.71481">
        <ele>181</ele>
        <time>2018-02-09T09:39:12Z</time>
      </trkpt>
      <trkpt lat="45.95037" lon="4.71482">
        <ele>181</ele>
        <time>2018-02-09T09:39:13Z</time>
      </trkpt>
      <trkpt lat="45.95044" lon="4.71483">
        <ele>181</ele>
        <time>2018-02-09T09:39:14Z</time>
      </trkpt>
      <trkpt lat="45.95051" lon="4.71483">
        <ele>181</ele>
        <time>2018-02-09T09:39:15Z</time>
      </trkpt>
      <trkpt lat="45.95059" lon="4.71483">
        <ele>181</ele>
        <time>2018-02-09T09:39:16Z</time>
      </trkpt>
      <trkpt lat="45.95066" lon="4.71483">
        <ele>181</ele>
        <time>2018-02-09T09:39:17Z</time>
      </trkpt>
      <trkpt lat="45.95074" lon="4.71482">
        <ele>180</ele>
        <time>2018-02-09T09:39:18Z</time>
      </trkpt>
      <trkpt lat="45.95082" lon="4.71481">
        <ele>180</ele>
        <time>2018-02-09T09:39:19Z</time>
      </trkpt>
      <trkpt lat="45.9509" lon="4.71481">
        <ele>179</ele>
        <time>2018-02-09T09:39:20Z</time>
      </trkpt>
      <trkpt lat="45.95098" lon="4.71483">
        <ele>179</ele>
        <time>2018-02-09T09:39:21Z</time>
      </trkpt>
      <trkpt lat="45.95106" lon="4.71481">
        <ele>179</ele>
        <time>2018-02-09T09:39:22Z</time>
      </trkpt>
      <trkpt lat="45.95114" lon="4.71481">
        <ele>179</ele>
        <time>2018-02-09T09:39:23Z</time>
      </trkpt>
      <trkpt lat="45.95122" lon="4.71481">
        <ele>178</ele>
        <time>2018-02-09T09:39:24Z</time>
      </trkpt>
      <trkpt lat="45.9513" lon="4.71482">
        <ele>178</ele>
        <time>2018-02-09T09:39:25Z</time>
      </trkpt>
      <trkpt lat="45.95138" lon="4.71482">
        <ele>178</ele>
        <time>2018-02-09T09:39:26Z</time>
      </trkpt>
      <trkpt lat="45.95146" lon="4.71483">
        <ele>178</ele>
        <time>2018-02-09T09:39:27Z</time>
      </trkpt>
      <trkpt lat="45.95154" lon="4.71484">
        <ele>178</ele>
        <time>2018-02-09T09:39:28Z</time>
      </trkpt>
      <trkpt lat="45.95162" lon="4.71485">
        <ele>178</ele>
        <time>2018-02-09T09:39:29Z</time>
      </trkpt>
      <trkpt lat="45.95169" lon="4.71484">
        <ele>177</ele>
        <time>2018-02-09T09:39:30Z</time>
      </trkpt>
      <trkpt lat="45.95177" lon="4.71485">
        <ele>177</ele>
        <time>2018-02-09T09:39:31Z</time>
      </trkpt>
      <trkpt lat="45.95185" lon="4.71484">
        <ele>177</ele>
        <time>2018-02-09T09:39:32Z</time>
      </trkpt>
      <trkpt lat="45.95192" lon="4.71484">
        <ele>177</ele>
        <time>2018-02-09T09:39:33Z</time>
      </trkpt>
      <trkpt lat="45.952" lon="4.71485">
        <ele>177</ele>
        <time>2018-02-09T09:39:34Z</time>
      </trkpt>
      <trkpt lat="45.95207" lon="4.71486">
        <ele>177</ele>
        <time>2018-02-09T09:39:35Z</time>
      </trkpt>
      <trkpt lat="45.95215" lon="4.71488">
        <ele>177</ele>
        <time>2018-02-09T09:39:36Z</time>
      </trkpt>
      <trkpt lat="45.95222" lon="4.71488">
        <ele>177</ele>
        <time>2018-02-09T09:39:37Z</time>
      </trkpt>
      <trkpt lat="45.95228" lon="4.71488">
        <ele>177</ele>
        <time>2018-02-09T09:39:38Z</time>
      </trkpt>
      <trkpt lat="45.95235" lon="4.71489">
        <ele>177</ele>
        <time>2018-02-09T09:39:39Z</time>
      </trkpt>
      <trkpt lat="45.95242" lon="4.7149">
        <ele>177</ele>
        <time>2018-02-09T09:39:40Z</time>
      </trkpt>
      <trkpt lat="45.95249" lon="4.7149">
        <ele>177</ele>
        <time>2018-02-09T09:39:41Z</time>
      </trkpt>
      <trkpt lat="45.95255" lon="4.71491">
        <ele>177</ele>
        <time>2018-02-09T09:39:42Z</time>
      </trkpt>
      <trkpt lat="45.95262" lon="4.71491">
        <ele>176</ele>
        <time>2018-02-09T09:39:43Z</time>
      </trkpt>
      <trkpt lat="45.95268" lon="4.71491">
        <ele>176</ele>
        <time>2018-02-09T09:39:44Z</time>
      </trkpt>
      <trkpt lat="45.95274" lon="4.71491">
        <ele>176</ele>
        <time>2018-02-09T09:39:45Z</time>
      </trkpt>
      <trkpt lat="45.9528" lon="4.71492">
        <ele>176</ele>
        <time>2018-02-09T09:39:46Z</time>
      </trkpt>
      <trkpt lat="45.95286" lon="4.71492">
        <ele>176</ele>
        <time>2018-02-09T09:39:47Z</time>
      </trkpt>
      <trkpt lat="45.95292" lon="4.71493">
        <ele>176</ele>
        <time>2018-02-09T09:39:48Z</time>
      </trkpt>
      <trkpt lat="45.95297" lon="4.71492">
        <ele>176</ele>
        <time>2018-02-09T09:39:49Z</time>
      </trkpt>
      <trkpt lat="45.95303" lon="4.71492">
        <ele>175</ele>
        <time>2018-02-09T09:39:50Z</time>
      </trkpt>
      <trkpt lat="45.95309" lon="4.71494">
        <ele>175</ele>
        <time>2018-02-09T09:39:51Z</time>
      </trkpt>
      <trkpt lat="45.95315" lon="4.71495">
        <ele>175</ele>
        <time>2018-02-09T09:39:52Z</time>
      </trkpt>
      <trkpt lat="45.95321" lon="4.71495">
        <ele>175</ele>
        <time>2018-02-09T09:39:53Z</time>
      </trkpt>
      <trkpt lat="45.95329" lon="4.71495">
        <ele>174</ele>
        <time>2018-02-09T09:39:54Z</time>
      </trkpt>
      <trkpt lat="45.95335" lon="4.71495">
        <ele>174</ele>
        <time>2018-02-09T09:39:55Z</time>
      </trkpt>
      <trkpt lat="45.95341" lon="4.71495">
        <ele>174</ele>
        <time>2018-02-09T09:39:56Z</time>
      </trkpt>
      <trkpt lat="45.95347" lon="4.71496">
        <ele>175</ele>
        <time>2018-02-09T09:39:57Z</time>
      </trkpt>
      <trkpt lat="45.95353" lon="4.71496">
        <ele>175</ele>
        <time>2018-02-09T09:39:58Z</time>
      </trkpt>
      <trkpt lat="45.95358" lon="4.71497">
        <ele>175</ele>
        <time>2018-02-09T09:39:59Z</time>
      </trkpt>
      <trkpt lat="45.95363" lon="4.71497">
        <ele>175</ele>
        <time>2018-02-09T09:40:00Z</time>
      </trkpt>
      <trkpt lat="45.95368" lon="4.71498">
        <ele>175</ele>
        <time>2018-02-09T09:40:01Z</time>
      </trkpt>
      <trkpt lat="45.95374" lon="4.715">
        <ele>175</ele>
        <time>2018-02-09T09:40:02Z</time>
      </trkpt>
      <trkpt lat="45.95378" lon="4.71501">
        <ele>174</ele>
        <time>2018-02-09T09:40:03Z</time>
      </trkpt>
      <trkpt lat="45.95383" lon="4.71502">
        <ele>174</ele>
        <time>2018-02-09T09:40:04Z</time>
      </trkpt>
      <trkpt lat="45.95388" lon="4.71501">
        <ele>174</ele>
        <time>2018-02-09T09:40:05Z</time>
      </trkpt>
      <trkpt lat="45.95394" lon="4.71501">
        <ele>174</ele>
        <time>2018-02-09T09:40:06Z</time>
      </trkpt>
      <trkpt lat="45.95399" lon="4.71502">
        <ele>174</ele>
        <time>2018-02-09T09:40:07Z</time>
      </trkpt>
      <trkpt lat="45.95404" lon="4.71503">
        <ele>174</ele>
        <time>2018-02-09T09:40:08Z</time>
      </trkpt>
      <trkpt lat="45.95409" lon="4.71503">
        <ele>174</ele>
        <time>2018-02-09T09:40:09Z</time>
      </trkpt>
      <trkpt lat="45.95416" lon="4.71503">
        <ele>174</ele>
        <time>2018-02-09T09:40:10Z</time>
      </trkpt>
      <trkpt lat="45.9542" lon="4.71504">
        <ele>174</ele>
        <time>2018-02-09T09:40:11Z</time>
      </trkpt>
      <trkpt lat="45.95425" lon="4.71504">
        <ele>174</ele>
        <time>2018-02-09T09:40:12Z</time>
      </trkpt>
      <trkpt lat="45.9543" lon="4.71503">
        <ele>174</ele>
        <time>2018-02-09T09:40:13Z</time>
      </trkpt>
      <trkpt lat="45.95436" lon="4.71504">
        <ele>175</ele>
        <time>2018-02-09T09:40:14Z</time>
      </trkpt>
      <trkpt lat="45.95442" lon="4.71504">
        <ele>175</ele>
        <time>2018-02-09T09:40:15Z</time>
      </trkpt>
      <trkpt lat="45.95447" lon="4.71504">
        <ele>175</ele>
        <time>2018-02-09T09:40:16Z</time>
      </trkpt>
      <trkpt lat="45.95453" lon="4.71504">
        <ele>175</ele>
        <time>2018-02-09T09:40:17Z</time>
      </trkpt>
      <trkpt lat="45.95459" lon="4.71505">
        <ele>175</ele>
        <time>2018-02-09T09:40:18Z</time>
      </trkpt>
      <trkpt lat="45.95464" lon="4.71505">
        <ele>175</ele>
        <time>2018-02-09T09:40:19Z</time>
      </trkpt>
      <trkpt lat="45.9547" lon="4.71506">
        <ele>175</ele>
        <time>2018-02-09T09:40:20Z</time>
      </trkpt>
      <trkpt lat="45.95475" lon="4.71506">
        <ele>176</ele>
        <time>2018-02-09T09:40:21Z</time>
      </trkpt>
      <trkpt lat="45.95481" lon="4.71506">
        <ele>176</ele>
        <time>2018-02-09T09:40:22Z</time>
      </trkpt>
      <trkpt lat="45.95486" lon="4.71507">
        <ele>176</ele>
        <time>2018-02-09T09:40:23Z</time>
      </trkpt>
      <trkpt lat="45.95492" lon="4.71507">
        <ele>176</ele>
        <time>2018-02-09T09:40:24Z</time>
      </trkpt>
      <trkpt lat="45.95497" lon="4.71507">
        <ele>176</ele>
        <time>2018-02-09T09:40:25Z</time>
      </trkpt>
      <trkpt lat="45.95503" lon="4.71508">
        <ele>177</ele>
        <time>2018-02-09T09:40:26Z</time>
      </trkpt>
      <trkpt lat="45.95508" lon="4.71509">
        <ele>177</ele>
        <time>2018-02-09T09:40:27Z</time>
      </trkpt>
      <trkpt lat="45.95513" lon="4.71509">
        <ele>177</ele>
        <time>2018-02-09T09:40:28Z</time>
      </trkpt>
      <trkpt lat="45.95519" lon="4.7151">
        <ele>177</ele>
        <time>2018-02-09T09:40:29Z</time>
      </trkpt>
      <trkpt lat="45.95524" lon="4.71511">
        <ele>177</ele>
        <time>2018-02-09T09:40:30Z</time>
      </trkpt>
      <trkpt lat="45.9553" lon="4.7151">
        <ele>177</ele>
        <time>2018-02-09T09:40:31Z</time>
      </trkpt>
      <trkpt lat="45.95535" lon="4.71511">
        <ele>177</ele>
        <time>2018-02-09T09:40:32Z</time>
      </trkpt>
      <trkpt lat="45.9554" lon="4.71511">
        <ele>177</ele>
        <time>2018-02-09T09:40:33Z</time>
      </trkpt>
      <trkpt lat="45.95546" lon="4.71511">
        <ele>178</ele>
        <time>2018-02-09T09:40:34Z</time>
      </trkpt>
      <trkpt lat="45.9555" lon="4.71511">
        <ele>178</ele>
        <time>2018-02-09T09:40:35Z</time>
      </trkpt>
      <trkpt lat="45.95555" lon="4.7151">
        <ele>178</ele>
        <time>2018-02-09T09:40:36Z</time>
      </trkpt>
      <trkpt lat="45.95561" lon="4.71511">
        <ele>178</ele>
        <time>2018-02-09T09:40:37Z</time>
      </trkpt>
      <trkpt lat="45.95566" lon="4.71511">
        <ele>178</ele>
        <time>2018-02-09T09:40:38Z</time>
      </trkpt>
      <trkpt lat="45.95571" lon="4.71512">
        <ele>178</ele>
        <time>2018-02-09T09:40:39Z</time>
      </trkpt>
      <trkpt lat="45.95577" lon="4.71512">
        <ele>179</ele>
        <time>2018-02-09T09:40:40Z</time>
      </trkpt>
      <trkpt lat="45.95582" lon="4.71511">
        <ele>179</ele>
        <time>2018-02-09T09:40:41Z</time>
      </trkpt>
      <trkpt lat="45.95586" lon="4.71512">
        <ele>179</ele>
        <time>2018-02-09T09:40:42Z</time>
      </trkpt>
      <trkpt lat="45.95591" lon="4.71512">
        <ele>179</ele>
        <time>2018-02-09T09:40:43Z</time>
      </trkpt>
      <trkpt lat="45.95595" lon="4.71512">
        <ele>179</ele>
        <time>2018-02-09T09:40:44Z</time>
      </trkpt>
      <trkpt lat="45.956" lon="4.71513">
        <ele>179</ele>
        <time>2018-02-09T09:40:45Z</time>
      </trkpt>
      <trkpt lat="45.95605" lon="4.71513">
        <ele>179</ele>
        <time>2018-02-09T09:40:46Z</time>
      </trkpt>
      <trkpt lat="45.95609" lon="4.71513">
        <ele>179</ele>
        <time>2018-02-09T09:40:47Z</time>
      </trkpt>
      <trkpt lat="45.95614" lon="4.71515">
        <ele>179</ele>
        <time>2018-02-09T09:40:48Z</time>
      </trkpt>
      <trkpt lat="45.95619" lon="4.71516">
        <ele>179</ele>
        <time>2018-02-09T09:40:49Z</time>
      </trkpt>
      <trkpt lat="45.95624" lon="4.71516">
        <ele>179</ele>
        <time>2018-02-09T09:40:50Z</time>
      </trkpt>
      <trkpt lat="45.9563" lon="4.71517">
        <ele>179</ele>
        <time>2018-02-09T09:40:51Z</time>
      </trkpt>
      <trkpt lat="45.95634" lon="4.71516">
        <ele>180</ele>
        <time>2018-02-09T09:40:52Z</time>
      </trkpt>
      <trkpt lat="45.9564" lon="4.71515">
        <ele>180</ele>
        <time>2018-02-09T09:40:53Z</time>
      </trkpt>
      <trkpt lat="45.95644" lon="4.71516">
        <ele>180</ele>
        <time>2018-02-09T09:40:54Z</time>
      </trkpt>
      <trkpt lat="45.95649" lon="4.71516">
        <ele>180</ele>
        <time>2018-02-09T09:40:55Z</time>
      </trkpt>
      <trkpt lat="45.95655" lon="4.71517">
        <ele>180</ele>
        <time>2018-02-09T09:40:56Z</time>
      </trkpt>
      <trkpt lat="45.9566" lon="4.71517">
        <ele>180</ele>
        <time>2018-02-09T09:40:57Z</time>
      </trkpt>
      <trkpt lat="45.95666" lon="4.71517">
        <ele>180</ele>
        <time>2018-02-09T09:40:58Z</time>
      </trkpt>
      <trkpt lat="45.95671" lon="4.71516">
        <ele>181</ele>
        <time>2018-02-09T09:40:59Z</time>
      </trkpt>
      <trkpt lat="45.95676" lon="4.71516">
        <ele>181</ele>
        <time>2018-02-09T09:41:00Z</time>
      </trkpt>
      <trkpt lat="45.95681" lon="4.71516">
        <ele>181</ele>
        <time>2018-02-09T09:41:01Z</time>
      </trkpt>
      <trkpt lat="45.95686" lon="4.71516">
        <ele>180</ele>
        <time>2018-02-09T09:41:02Z</time>
      </trkpt>
      <trkpt lat="45.95691" lon="4.71517">
        <ele>180</ele>
        <time>2018-02-09T09:41:03Z</time>
      </trkpt>
      <trkpt lat="45.95696" lon="4.71518">
        <ele>180</ele>
        <time>2018-02-09T09:41:04Z</time>
      </trkpt>
      <trkpt lat="45.95701" lon="4.71517">
        <ele>180</ele>
        <time>2018-02-09T09:41:05Z</time>
      </trkpt>
      <trkpt lat="45.95706" lon="4.71518">
        <ele>180</ele>
        <time>2018-02-09T09:41:06Z</time>
      </trkpt>
      <trkpt lat="45.9571" lon="4.71518">
        <ele>180</ele>
        <time>2018-02-09T09:41:07Z</time>
      </trkpt>
      <trkpt lat="45.95715" lon="4.71519">
        <ele>180</ele>
        <time>2018-02-09T09:41:08Z</time>
      </trkpt>
      <trkpt lat="45.9572" lon="4.7152">
        <ele>180</ele>
        <time>2018-02-09T09:41:09Z</time>
      </trkpt>
      <trkpt lat="45.95724" lon="4.71521">
        <ele>180</ele>
        <time>2018-02-09T09:41:10Z</time>
      </trkpt>
      <trkpt lat="45.95729" lon="4.71521">
        <ele>180</ele>
        <time>2018-02-09T09:41:11Z</time>
      </trkpt>
      <trkpt lat="45.95734" lon="4.71522">
        <ele>180</ele>
        <time>2018-02-09T09:41:12Z</time>
      </trkpt>
      <trkpt lat="45.95739" lon="4.71523">
        <ele>180</ele>
        <time>2018-02-09T09:41:13Z</time>
      </trkpt>
      <trkpt lat="45.95744" lon="4.71523">
        <ele>180</ele>
        <time>2018-02-09T09:41:14Z</time>
      </trkpt>
      <trkpt lat="45.9575" lon="4.71524">
        <ele>180</ele>
        <time>2018-02-09T09:41:15Z</time>
      </trkpt>
      <trkpt lat="45.95754" lon="4.71525">
        <ele>181</ele>
        <time>2018-02-09T09:41:16Z</time>
      </trkpt>
      <trkpt lat="45.9576" lon="4.71525">
        <ele>181</ele>
        <time>2018-02-09T09:41:17Z</time>
      </trkpt>
      <trkpt lat="45.95764" lon="4.71525">
        <ele>181</ele>
        <time>2018-02-09T09:41:18Z</time>
      </trkpt>
      <trkpt lat="45.95769" lon="4.71527">
        <ele>181</ele>
        <time>2018-02-09T09:41:19Z</time>
      </trkpt>
      <trkpt lat="45.95774" lon="4.71526">
        <ele>181</ele>
        <time>2018-02-09T09:41:20Z</time>
      </trkpt>
      <trkpt lat="45.95779" lon="4.71526">
        <ele>181</ele>
        <time>2018-02-09T09:41:21Z</time>
      </trkpt>
      <trkpt lat="45.95783" lon="4.71527">
        <ele>181</ele>
        <time>2018-02-09T09:41:22Z</time>
      </trkpt>
      <trkpt lat="45.95788" lon="4.71529">
        <ele>181</ele>
        <time>2018-02-09T09:41:23Z</time>
      </trkpt>
      <trkpt lat="45.95793" lon="4.71529">
        <ele>181</ele>
        <time>2018-02-09T09:41:24Z</time>
      </trkpt>
      <trkpt lat="45.95797" lon="4.71529">
        <ele>181</ele>
        <time>2018-02-09T09:41:25Z</time>
      </trkpt>
      <trkpt lat="45.95802" lon="4.71529">
        <ele>181</ele>
        <time>2018-02-09T09:41:26Z</time>
      </trkpt>
      <trkpt lat="45.95807" lon="4.71529">
        <ele>181</ele>
        <time>2018-02-09T09:41:27Z</time>
      </trkpt>
      <trkpt lat="45.95812" lon="4.71529">
        <ele>181</ele>
        <time>2018-02-09T09:41:28Z</time>
      </trkpt>
      <trkpt lat="45.95817" lon="4.7153">
        <ele>181</ele>
        <time>2018-02-09T09:41:29Z</time>
      </trkpt>
      <trkpt lat="45.95821" lon="4.7153">
        <ele>181</ele>
        <time>2018-02-09T09:41:30Z</time>
      </trkpt>
      <trkpt lat="45.9583" lon="4.7153">
        <ele>181</ele>
        <time>2018-02-09T09:41:32Z</time>
      </trkpt>
      <trkpt lat="45.95835" lon="4.7153">
        <ele>182</ele>
        <time>2018-02-09T09:41:33Z</time>
      </trkpt>
      <trkpt lat="45.9584" lon="4.7153">
        <ele>182</ele>
        <time>2018-02-09T09:41:34Z</time>
      </trkpt>
      <trkpt lat="45.95845" lon="4.71532">
        <ele>182</ele>
        <time>2018-02-09T09:41:35Z</time>
      </trkpt>
      <trkpt lat="45.9585" lon="4.71533">
        <ele>182</ele>
        <time>2018-02-09T09:41:36Z</time>
      </trkpt>
      <trkpt lat="45.95855" lon="4.71534">
        <ele>182</ele>
        <time>2018-02-09T09:41:37Z</time>
      </trkpt>
      <trkpt lat="45.9586" lon="4.71534">
        <ele>182</ele>
        <time>2018-02-09T09:41:38Z</time>
      </trkpt>
      <trkpt lat="45.95865" lon="4.71536">
        <ele>181</ele>
        <time>2018-02-09T09:41:39Z</time>
      </trkpt>
      <trkpt lat="45.95874" lon="4.71536">
        <ele>181</ele>
        <time>2018-02-09T09:41:41Z</time>
      </trkpt>
      <trkpt lat="45.95878" lon="4.71536">
        <ele>181</ele>
        <time>2018-02-09T09:41:42Z</time>
      </trkpt>
      <trkpt lat="45.95883" lon="4.71537">
        <ele>181</ele>
        <time>2018-02-09T09:41:43Z</time>
      </trkpt>
      <trkpt lat="45.95888" lon="4.71537">
        <ele>181</ele>
        <time>2018-02-09T09:41:44Z</time>
      </trkpt>
      <trkpt lat="45.95893" lon="4.71537">
        <ele>182</ele>
        <time>2018-02-09T09:41:45Z</time>
      </trkpt>
      <trkpt lat="45.95898" lon="4.71538">
        <ele>181</ele>
        <time>2018-02-09T09:41:46Z</time>
      </trkpt>
      <trkpt lat="45.95906" lon="4.71539">
        <ele>181</ele>
        <time>2018-02-09T09:41:48Z</time>
      </trkpt>
      <trkpt lat="45.95911" lon="4.71539">
        <ele>181</ele>
        <time>2018-02-09T09:41:49Z</time>
      </trkpt>
      <trkpt lat="45.9592" lon="4.71539">
        <ele>183</ele>
        <time>2018-02-09T09:41:51Z</time>
      </trkpt>
      <trkpt lat="45.95924" lon="4.7154">
        <ele>183</ele>
        <time>2018-02-09T09:41:52Z</time>
      </trkpt>
      <trkpt lat="45.95932" lon="4.7154">
        <ele>183</ele>
        <time>2018-02-09T09:41:54Z</time>
      </trkpt>
      <trkpt lat="45.95937" lon="4.71539">
        <ele>183</ele>
        <time>2018-02-09T09:41:55Z</time>
      </trkpt>
      <trkpt lat="45.95941" lon="4.71539">
        <ele>183</ele>
        <time>2018-02-09T09:41:56Z</time>
      </trkpt>
      <trkpt lat="45.95946" lon="4.71539">
        <ele>183</ele>
        <time>2018-02-09T09:41:57Z</time>
      </trkpt>
      <trkpt lat="45.95954" lon="4.7154">
        <ele>183</ele>
        <time>2018-02-09T09:41:59Z</time>
      </trkpt>
      <trkpt lat="45.95959" lon="4.71541">
        <ele>183</ele>
        <time>2018-02-09T09:42:00Z</time>
      </trkpt>
      <trkpt lat="45.95966" lon="4.71544">
        <ele>183</ele>
        <time>2018-02-09T09:42:02Z</time>
      </trkpt>
      <trkpt lat="45.9597" lon="4.71546">
        <ele>183</ele>
        <time>2018-02-09T09:42:03Z</time>
      </trkpt>
      <trkpt lat="45.95977" lon="4.71551">
        <ele>183</ele>
        <time>2018-02-09T09:42:05Z</time>
      </trkpt>
      <trkpt lat="45.95981" lon="4.71553">
        <ele>183</ele>
        <time>2018-02-09T09:42:06Z</time>
      </trkpt>
      <trkpt lat="45.9599" lon="4.71551">
        <ele>183</ele>
        <time>2018-02-09T09:42:08Z</time>
      </trkpt>
      <trkpt lat="45.95994" lon="4.7155">
        <ele>183</ele>
        <time>2018-02-09T09:42:09Z</time>
      </trkpt>
      <trkpt lat="45.95998" lon="4.71548">
        <ele>184</ele>
        <time>2018-02-09T09:42:10Z</time>
      </trkpt>
      <trkpt lat="45.96002" lon="4.71545">
        <ele>185</ele>
        <time>2018-02-09T09:42:11Z</time>
      </trkpt>
      <trkpt lat="45.96011" lon="4.71544">
        <ele>185</ele>
        <time>2018-02-09T09:42:13Z</time>
      </trkpt>
      <trkpt lat="45.96016" lon="4.71545">
        <ele>185</ele>
        <time>2018-02-09T09:42:14Z</time>
      </trkpt>
      <trkpt lat="45.96021" lon="4.71546">
        <ele>185</ele>
        <time>2018-02-09T09:42:15Z</time>
      </trkpt>
      <trkpt lat="45.96026" lon="4.71546">
        <ele>185</ele>
        <time>2018-02-09T09:42:16Z</time>
      </trkpt>
      <trkpt lat="45.9603" lon="4.71547">
        <ele>185</ele>
        <time>2018-02-09T09:42:17Z</time>
      </trkpt>
      <trkpt lat="45.96035" lon="4.71548">
        <ele>185</ele>
        <time>2018-02-09T09:42:18Z</time>
      </trkpt>
      <trkpt lat="45.9604" lon="4.71548">
        <ele>185</ele>
        <time>2018-02-09T09:42:19Z</time>
      </trkpt>
      <trkpt lat="45.96045" lon="4.7155">
        <ele>185</ele>
        <time>2018-02-09T09:42:20Z</time>
      </trkpt>
      <trkpt lat="45.9605" lon="4.71551">
        <ele>185</ele>
        <time>2018-02-09T09:42:21Z</time>
      </trkpt>
      <trkpt lat="45.96056" lon="4.71552">
        <ele>185</ele>
        <time>2018-02-09T09:42:22Z</time>
      </trkpt>
      <trkpt lat="45.96061" lon="4.71553">
        <ele>185</ele>
        <time>2018-02-09T09:42:23Z</time>
      </trkpt>
      <trkpt lat="45.96066" lon="4.71552">
        <ele>185</ele>
        <time>2018-02-09T09:42:24Z</time>
      </trkpt>
      <trkpt lat="45.96071" lon="4.71551">
        <ele>185</ele>
        <time>2018-02-09T09:42:25Z</time>
      </trkpt>
      <trkpt lat="45.96077" lon="4.71554">
        <ele>185</ele>
        <time>2018-02-09T09:42:26Z</time>
      </trkpt>
      <trkpt lat="45.96082" lon="4.71554">
        <ele>185</ele>
        <time>2018-02-09T09:42:27Z</time>
      </trkpt>
      <trkpt lat="45.96087" lon="4.71554">
        <ele>184</ele>
        <time>2018-02-09T09:42:28Z</time>
      </trkpt>
      <trkpt lat="45.96093" lon="4.71554">
        <ele>184</ele>
        <time>2018-02-09T09:42:29Z</time>
      </trkpt>
      <trkpt lat="45.96098" lon="4.71555">
        <ele>184</ele>
        <time>2018-02-09T09:42:30Z</time>
      </trkpt>
      <trkpt lat="45.96103" lon="4.71556">
        <ele>184</ele>
        <time>2018-02-09T09:42:31Z</time>
      </trkpt>
      <trkpt lat="45.96109" lon="4.71558">
        <ele>184</ele>
        <time>2018-02-09T09:42:32Z</time>
      </trkpt>
      <trkpt lat="45.96114" lon="4.71559">
        <ele>184</ele>
        <time>2018-02-09T09:42:33Z</time>
      </trkpt>
      <trkpt lat="45.9612" lon="4.7156">
        <ele>184</ele>
        <time>2018-02-09T09:42:34Z</time>
      </trkpt>
      <trkpt lat="45.96125" lon="4.71562">
        <ele>184</ele>
        <time>2018-02-09T09:42:35Z</time>
      </trkpt>
      <trkpt lat="45.96131" lon="4.71564">
        <ele>184</ele>
        <time>2018-02-09T09:42:36Z</time>
      </trkpt>
      <trkpt lat="45.96137" lon="4.71564">
        <ele>184</ele>
        <time>2018-02-09T09:42:37Z</time>
      </trkpt>
      <trkpt lat="45.96143" lon="4.71564">
        <ele>183</ele>
        <time>2018-02-09T09:42:38Z</time>
      </trkpt>
      <trkpt lat="45.96149" lon="4.71564">
        <ele>183</ele>
        <time>2018-02-09T09:42:39Z</time>
      </trkpt>
      <trkpt lat="45.96155" lon="4.71566">
        <ele>183</ele>
        <time>2018-02-09T09:42:40Z</time>
      </trkpt>
      <trkpt lat="45.96161" lon="4.71567">
        <ele>182</ele>
        <time>2018-02-09T09:42:41Z</time>
      </trkpt>
      <trkpt lat="45.96167" lon="4.71568">
        <ele>182</ele>
        <time>2018-02-09T09:42:42Z</time>
      </trkpt>
      <trkpt lat="45.96172" lon="4.71569">
        <ele>182</ele>
        <time>2018-02-09T09:42:43Z</time>
      </trkpt>
      <trkpt lat="45.96178" lon="4.7157">
        <ele>182</ele>
        <time>2018-02-09T09:42:44Z</time>
      </trkpt>
      <trkpt lat="45.96184" lon="4.7157">
        <ele>182</ele>
        <time>2018-02-09T09:42:45Z</time>
      </trkpt>
      <trkpt lat="45.9619" lon="4.71571">
        <ele>183</ele>
        <time>2018-02-09T09:42:46Z</time>
      </trkpt>
      <trkpt lat="45.96196" lon="4.71572">
        <ele>183</ele>
        <time>2018-02-09T09:42:47Z</time>
      </trkpt>
      <trkpt lat="45.96201" lon="4.71572">
        <ele>183</ele>
        <time>2018-02-09T09:42:48Z</time>
      </trkpt>
      <trkpt lat="45.96207" lon="4.71573">
        <ele>183</ele>
        <time>2018-02-09T09:42:49Z</time>
      </trkpt>
      <trkpt lat="45.96212" lon="4.71574">
        <ele>183</ele>
        <time>2018-02-09T09:42:50Z</time>
      </trkpt>
      <trkpt lat="45.96218" lon="4.71575">
        <ele>183</ele>
        <time>2018-02-09T09:42:51Z</time>
      </trkpt>
      <trkpt lat="45.96224" lon="4.71577">
        <ele>183</ele>
        <time>2018-02-09T09:42:52Z</time>
      </trkpt>
      <trkpt lat="45.96229" lon="4.71578">
        <ele>183</ele>
        <time>2018-02-09T09:42:53Z</time>
      </trkpt>
      <trkpt lat="45.96235" lon="4.71579">
        <ele>182</ele>
        <time>2018-02-09T09:42:54Z</time>
      </trkpt>
      <trkpt lat="45.96241" lon="4.71579">
        <ele>182</ele>
        <time>2018-02-09T09:42:55Z</time>
      </trkpt>
      <trkpt lat="45.96247" lon="4.7158">
        <ele>182</ele>
        <time>2018-02-09T09:42:56Z</time>
      </trkpt>
      <trkpt lat="45.96253" lon="4.71581">
        <ele>182</ele>
        <time>2018-02-09T09:42:57Z</time>
      </trkpt>
      <trkpt lat="45.9626" lon="4.71582">
        <ele>182</ele>
        <time>2018-02-09T09:42:58Z</time>
      </trkpt>
      <trkpt lat="45.96266" lon="4.71582">
        <ele>183</ele>
        <time>2018-02-09T09:42:59Z</time>
      </trkpt>
      <trkpt lat="45.96273" lon="4.71583">
        <ele>183</ele>
        <time>2018-02-09T09:43:00Z</time>
      </trkpt>
      <trkpt lat="45.96279" lon="4.71584">
        <ele>180</ele>
        <time>2018-02-09T09:43:01Z</time>
      </trkpt>
      <trkpt lat="45.96284" lon="4.71586">
        <ele>180</ele>
        <time>2018-02-09T09:43:02Z</time>
      </trkpt>
      <trkpt lat="45.9629" lon="4.71585">
        <ele>181</ele>
        <time>2018-02-09T09:43:03Z</time>
      </trkpt>
      <trkpt lat="45.96295" lon="4.71586">
        <ele>181</ele>
        <time>2018-02-09T09:43:04Z</time>
      </trkpt>
      <trkpt lat="45.96301" lon="4.71587">
        <ele>181</ele>
        <time>2018-02-09T09:43:05Z</time>
      </trkpt>
      <trkpt lat="45.96307" lon="4.71588">
        <ele>181</ele>
        <time>2018-02-09T09:43:06Z</time>
      </trkpt>
      <trkpt lat="45.96313" lon="4.7159">
        <ele>181</ele>
        <time>2018-02-09T09:43:07Z</time>
      </trkpt>
      <trkpt lat="45.96318" lon="4.71591">
        <ele>181</ele>
        <time>2018-02-09T09:43:08Z</time>
      </trkpt>
      <trkpt lat="45.96323" lon="4.71592">
        <ele>182</ele>
        <time>2018-02-09T09:43:09Z</time>
      </trkpt>
      <trkpt lat="45.96328" lon="4.71593">
        <ele>182</ele>
        <time>2018-02-09T09:43:10Z</time>
      </trkpt>
      <trkpt lat="45.96334" lon="4.71594">
        <ele>182</ele>
        <time>2018-02-09T09:43:11Z</time>
      </trkpt>
      <trkpt lat="45.96339" lon="4.71595">
        <ele>182</ele>
        <time>2018-02-09T09:43:12Z</time>
      </trkpt>
      <trkpt lat="45.96345" lon="4.71598">
        <ele>182</ele>
        <time>2018-02-09T09:43:13Z</time>
      </trkpt>
      <trkpt lat="45.9635" lon="4.71597">
        <ele>182</ele>
        <time>2018-02-09T09:43:14Z</time>
      </trkpt>
      <trkpt lat="45.96356" lon="4.71598">
        <ele>182</ele>
        <time>2018-02-09T09:43:15Z</time>
      </trkpt>
      <trkpt lat="45.9636" lon="4.716">
        <ele>182</ele>
        <time>2018-02-09T09:43:16Z</time>
      </trkpt>
      <trkpt lat="45.96366" lon="4.716">
        <ele>182</ele>
        <time>2018-02-09T09:43:17Z</time>
      </trkpt>
      <trkpt lat="45.96371" lon="4.71601">
        <ele>182</ele>
        <time>2018-02-09T09:43:18Z</time>
      </trkpt>
      <trkpt lat="45.96377" lon="4.71602">
        <ele>182</ele>
        <time>2018-02-09T09:43:19Z</time>
      </trkpt>
      <trkpt lat="45.96383" lon="4.71602">
        <ele>182</ele>
        <time>2018-02-09T09:43:20Z</time>
      </trkpt>
      <trkpt lat="45.96389" lon="4.71604">
        <ele>182</ele>
        <time>2018-02-09T09:43:21Z</time>
      </trkpt>
      <trkpt lat="45.96394" lon="4.71605">
        <ele>182</ele>
        <time>2018-02-09T09:43:22Z</time>
      </trkpt>
      <trkpt lat="45.96399" lon="4.71606">
        <ele>183</ele>
        <time>2018-02-09T09:43:23Z</time>
      </trkpt>
      <trkpt lat="45.96404" lon="4.71606">
        <ele>183</ele>
        <time>2018-02-09T09:43:24Z</time>
      </trkpt>
      <trkpt lat="45.96409" lon="4.71607">
        <ele>183</ele>
        <time>2018-02-09T09:43:25Z</time>
      </trkpt>
      <trkpt lat="45.96414" lon="4.71608">
        <ele>183</ele>
        <time>2018-02-09T09:43:26Z</time>
      </trkpt>
      <trkpt lat="45.96419" lon="4.71609">
        <ele>183</ele>
        <time>2018-02-09T09:43:27Z</time>
      </trkpt>
      <trkpt lat="45.96424" lon="4.7161">
        <ele>183</ele>
        <time>2018-02-09T09:43:28Z</time>
      </trkpt>
      <trkpt lat="45.96429" lon="4.7161">
        <ele>183</ele>
        <time>2018-02-09T09:43:29Z</time>
      </trkpt>
      <trkpt lat="45.96434" lon="4.7161">
        <ele>183</ele>
        <time>2018-02-09T09:43:30Z</time>
      </trkpt>
      <trkpt lat="45.96439" lon="4.71611">
        <ele>183</ele>
        <time>2018-02-09T09:43:31Z</time>
      </trkpt>
      <trkpt lat="45.96444" lon="4.71612">
        <ele>183</ele>
        <time>2018-02-09T09:43:32Z</time>
      </trkpt>
      <trkpt lat="45.9645" lon="4.71613">
        <ele>183</ele>
        <time>2018-02-09T09:43:33Z</time>
      </trkpt>
      <trkpt lat="45.96455" lon="4.71613">
        <ele>183</ele>
        <time>2018-02-09T09:43:34Z</time>
      </trkpt>
      <trkpt lat="45.9646" lon="4.71614">
        <ele>183</ele>
        <time>2018-02-09T09:43:35Z</time>
      </trkpt>
      <trkpt lat="45.96465" lon="4.71615">
        <ele>183</ele>
        <time>2018-02-09T09:43:36Z</time>
      </trkpt>
      <trkpt lat="45.9647" lon="4.71616">
        <ele>183</ele>
        <time>2018-02-09T09:43:37Z</time>
      </trkpt>
      <trkpt lat="45.96475" lon="4.71617">
        <ele>183</ele>
        <time>2018-02-09T09:43:38Z</time>
      </trkpt>
      <trkpt lat="45.9648" lon="4.71618">
        <ele>183</ele>
        <time>2018-02-09T09:43:39Z</time>
      </trkpt>
      <trkpt lat="45.96484" lon="4.71618">
        <ele>183</ele>
        <time>2018-02-09T09:43:40Z</time>
      </trkpt>
      <trkpt lat="45.96489" lon="4.71619">
        <ele>183</ele>
        <time>2018-02-09T09:43:41Z</time>
      </trkpt>
      <trkpt lat="45.96493" lon="4.7162">
        <ele>183</ele>
        <time>2018-02-09T09:43:42Z</time>
      </trkpt>
      <trkpt lat="45.96498" lon="4.71623">
        <ele>183</ele>
        <time>2018-02-09T09:43:43Z</time>
      </trkpt>
      <trkpt lat="45.96503" lon="4.71624">
        <ele>184</ele>
        <time>2018-02-09T09:43:44Z</time>
      </trkpt>
      <trkpt lat="45.96508" lon="4.71626">
        <ele>184</ele>
        <time>2018-02-09T09:43:45Z</time>
      </trkpt>
      <trkpt lat="45.96512" lon="4.71629">
        <ele>184</ele>
        <time>2018-02-09T09:43:46Z</time>
      </trkpt>
      <trkpt lat="45.96516" lon="4.71633">
        <ele>183</ele>
        <time>2018-02-09T09:43:47Z</time>
      </trkpt>
      <trkpt lat="45.9652" lon="4.71637">
        <ele>183</ele>
        <time>2018-02-09T09:43:48Z</time>
      </trkpt>
      <trkpt lat="45.96524" lon="4.71641">
        <ele>183</ele>
        <time>2018-02-09T09:43:49Z</time>
      </trkpt>
      <trkpt lat="45.96529" lon="4.71643">
        <ele>183</ele>
        <time>2018-02-09T09:43:50Z</time>
      </trkpt>
      <trkpt lat="45.96535" lon="4.71645">
        <ele>183</ele>
        <time>2018-02-09T09:43:51Z</time>
      </trkpt>
      <trkpt lat="45.96539" lon="4.71643">
        <ele>184</ele>
        <time>2018-02-09T09:43:52Z</time>
      </trkpt>
      <trkpt lat="45.96544" lon="4.71641">
        <ele>184</ele>
        <time>2018-02-09T09:43:53Z</time>
      </trkpt>
      <trkpt lat="45.96548" lon="4.71638">
        <ele>184</ele>
        <time>2018-02-09T09:43:54Z</time>
      </trkpt>
      <trkpt lat="45.96553" lon="4.71635">
        <ele>184</ele>
        <time>2018-02-09T09:43:55Z</time>
      </trkpt>
      <trkpt lat="45.96557" lon="4.71633">
        <ele>184</ele>
        <time>2018-02-09T09:43:56Z</time>
      </trkpt>
      <trkpt lat="45.96561" lon="4.71631">
        <ele>184</ele>
        <time>2018-02-09T09:43:57Z</time>
      </trkpt>
      <trkpt lat="45.96567" lon="4.71631">
        <ele>184</ele>
        <time>2018-02-09T09:43:58Z</time>
      </trkpt>
      <trkpt lat="45.96572" lon="4.71633">
        <ele>184</ele>
        <time>2018-02-09T09:43:59Z</time>
      </trkpt>
      <trkpt lat="45.96576" lon="4.71634">
        <ele>184</ele>
        <time>2018-02-09T09:44:00Z</time>
      </trkpt>
      <trkpt lat="45.96581" lon="4.71635">
        <ele>184</ele>
        <time>2018-02-09T09:44:01Z</time>
      </trkpt>
      <trkpt lat="45.96586" lon="4.71635">
        <ele>186</ele>
        <time>2018-02-09T09:44:02Z</time>
      </trkpt>
      <trkpt lat="45.9659" lon="4.71636">
        <ele>187</ele>
        <time>2018-02-09T09:44:03Z</time>
      </trkpt>
      <trkpt lat="45.96595" lon="4.71635">
        <ele>187</ele>
        <time>2018-02-09T09:44:04Z</time>
      </trkpt>
      <trkpt lat="45.96604" lon="4.71636">
        <ele>187</ele>
        <time>2018-02-09T09:44:06Z</time>
      </trkpt>
      <trkpt lat="45.96608" lon="4.71637">
        <ele>187</ele>
        <time>2018-02-09T09:44:07Z</time>
      </trkpt>
      <trkpt lat="45.96616" lon="4.71638">
        <ele>187</ele>
        <time>2018-02-09T09:44:09Z</time>
      </trkpt>
      <trkpt lat="45.96622" lon="4.71639">
        <ele>187</ele>
        <time>2018-02-09T09:44:10Z</time>
      </trkpt>
      <trkpt lat="45.9663" lon="4.71641">
        <ele>187</ele>
        <time>2018-02-09T09:44:12Z</time>
      </trkpt>
      <trkpt lat="45.96635" lon="4.71641">
        <ele>187</ele>
        <time>2018-02-09T09:44:13Z</time>
      </trkpt>
      <trkpt lat="45.96639" lon="4.71642">
        <ele>188</ele>
        <time>2018-02-09T09:44:14Z</time>
      </trkpt>
      <trkpt lat="45.96644" lon="4.71641">
        <ele>188</ele>
        <time>2018-02-09T09:44:15Z</time>
      </trkpt>
      <trkpt lat="45.96648" lon="4.71642">
        <ele>188</ele>
        <time>2018-02-09T09:44:16Z</time>
      </trkpt>
      <trkpt lat="45.96653" lon="4.71642">
        <ele>188</ele>
        <time>2018-02-09T09:44:17Z</time>
      </trkpt>
      <trkpt lat="45.96658" lon="4.71643">
        <ele>188</ele>
        <time>2018-02-09T09:44:18Z</time>
      </trkpt>
      <trkpt lat="45.96663" lon="4.71643">
        <ele>188</ele>
        <time>2018-02-09T09:44:19Z</time>
      </trkpt>
      <trkpt lat="45.96668" lon="4.71644">
        <ele>189</ele>
        <time>2018-02-09T09:44:20Z</time>
      </trkpt>
      <trkpt lat="45.96672" lon="4.71645">
        <ele>189</ele>
        <time>2018-02-09T09:44:21Z</time>
      </trkpt>
      <trkpt lat="45.96678" lon="4.71646">
        <ele>189</ele>
        <time>2018-02-09T09:44:22Z</time>
      </trkpt>
      <trkpt lat="45.96683" lon="4.71646">
        <ele>189</ele>
        <time>2018-02-09T09:44:23Z</time>
      </trkpt>
      <trkpt lat="45.96688" lon="4.71645">
        <ele>190</ele>
        <time>2018-02-09T09:44:24Z</time>
      </trkpt>
      <trkpt lat="45.96694" lon="4.71646">
        <ele>190</ele>
        <time>2018-02-09T09:44:25Z</time>
      </trkpt>
      <trkpt lat="45.96699" lon="4.71648">
        <ele>190</ele>
        <time>2018-02-09T09:44:26Z</time>
      </trkpt>
      <trkpt lat="45.96705" lon="4.71649">
        <ele>190</ele>
        <time>2018-02-09T09:44:27Z</time>
      </trkpt>
      <trkpt lat="45.9671" lon="4.7165">
        <ele>190</ele>
        <time>2018-02-09T09:44:28Z</time>
      </trkpt>
      <trkpt lat="45.96716" lon="4.71651">
        <ele>190</ele>
        <time>2018-02-09T09:44:29Z</time>
      </trkpt>
      <trkpt lat="45.96721" lon="4.71652">
        <ele>190</ele>
        <time>2018-02-09T09:44:30Z</time>
      </trkpt>
      <trkpt lat="45.96725" lon="4.71654">
        <ele>190</ele>
        <time>2018-02-09T09:44:31Z</time>
      </trkpt>
      <trkpt lat="45.96731" lon="4.71654">
        <ele>190</ele>
        <time>2018-02-09T09:44:32Z</time>
      </trkpt>
      <trkpt lat="45.96736" lon="4.71656">
        <ele>190</ele>
        <time>2018-02-09T09:44:33Z</time>
      </trkpt>
      <trkpt lat="45.96745" lon="4.71658">
        <ele>190</ele>
        <time>2018-02-09T09:44:35Z</time>
      </trkpt>
      <trkpt lat="45.96749" lon="4.71659">
        <ele>189</ele>
        <time>2018-02-09T09:44:36Z</time>
      </trkpt>
      <trkpt lat="45.96754" lon="4.71659">
        <ele>190</ele>
        <time>2018-02-09T09:44:37Z</time>
      </trkpt>
      <trkpt lat="45.96759" lon="4.71661">
        <ele>190</ele>
        <time>2018-02-09T09:44:38Z</time>
      </trkpt>
      <trkpt lat="45.96763" lon="4.71663">
        <ele>191</ele>
        <time>2018-02-09T09:44:39Z</time>
      </trkpt>
      <trkpt lat="45.96768" lon="4.71663">
        <ele>191</ele>
        <time>2018-02-09T09:44:40Z</time>
      </trkpt>
      <trkpt lat="45.96773" lon="4.71664">
        <ele>191</ele>
        <time>2018-02-09T09:44:41Z</time>
      </trkpt>
      <trkpt lat="45.96778" lon="4.71664">
        <ele>192</ele>
        <time>2018-02-09T09:44:42Z</time>
      </trkpt>
      <trkpt lat="45.96782" lon="4.71666">
        <ele>192</ele>
        <time>2018-02-09T09:44:43Z</time>
      </trkpt>
      <trkpt lat="45.96787" lon="4.71666">
        <ele>192</ele>
        <time>2018-02-09T09:44:44Z</time>
      </trkpt>
      <trkpt lat="45.96792" lon="4.71666">
        <ele>192</ele>
        <time>2018-02-09T09:44:45Z</time>
      </trkpt>
      <trkpt lat="45.96797" lon="4.71668">
        <ele>188</ele>
        <time>2018-02-09T09:44:46Z</time>
      </trkpt>
      <trkpt lat="45.96802" lon="4.71668">
        <ele>189</ele>
        <time>2018-02-09T09:44:47Z</time>
      </trkpt>
      <trkpt lat="45.96807" lon="4.71668">
        <ele>189</ele>
        <time>2018-02-09T09:44:48Z</time>
      </trkpt>
      <trkpt lat="45.96812" lon="4.7167">
        <ele>189</ele>
        <time>2018-02-09T09:44:49Z</time>
      </trkpt>
      <trkpt lat="45.96817" lon="4.71671">
        <ele>189</ele>
        <time>2018-02-09T09:44:50Z</time>
      </trkpt>
      <trkpt lat="45.96821" lon="4.71672">
        <ele>190</ele>
        <time>2018-02-09T09:44:51Z</time>
      </trkpt>
      <trkpt lat="45.96826" lon="4.71673">
        <ele>190</ele>
        <time>2018-02-09T09:44:52Z</time>
      </trkpt>
      <trkpt lat="45.9683" lon="4.71674">
        <ele>191</ele>
        <time>2018-02-09T09:44:53Z</time>
      </trkpt>
      <trkpt lat="45.96835" lon="4.71673">
        <ele>191</ele>
        <time>2018-02-09T09:44:54Z</time>
      </trkpt>
      <trkpt lat="45.9684" lon="4.71674">
        <ele>191</ele>
        <time>2018-02-09T09:44:55Z</time>
      </trkpt>
      <trkpt lat="45.96844" lon="4.71674">
        <ele>191</ele>
        <time>2018-02-09T09:44:56Z</time>
      </trkpt>
      <trkpt lat="45.96849" lon="4.71675">
        <ele>191</ele>
        <time>2018-02-09T09:44:57Z</time>
      </trkpt>
      <trkpt lat="45.96854" lon="4.71676">
        <ele>190</ele>
        <time>2018-02-09T09:44:58Z</time>
      </trkpt>
      <trkpt lat="45.96859" lon="4.71677">
        <ele>190</ele>
        <time>2018-02-09T09:44:59Z</time>
      </trkpt>
      <trkpt lat="45.96864" lon="4.71678">
        <ele>190</ele>
        <time>2018-02-09T09:45:00Z</time>
      </trkpt>
      <trkpt lat="45.96868" lon="4.71677">
        <ele>190</ele>
        <time>2018-02-09T09:45:01Z</time>
      </trkpt>
      <trkpt lat="45.96873" lon="4.71678">
        <ele>190</ele>
        <time>2018-02-09T09:45:02Z</time>
      </trkpt>
      <trkpt lat="45.96878" lon="4.71678">
        <ele>190</ele>
        <time>2018-02-09T09:45:03Z</time>
      </trkpt>
      <trkpt lat="45.96883" lon="4.71678">
        <ele>190</ele>
        <time>2018-02-09T09:45:04Z</time>
      </trkpt>
      <trkpt lat="45.96887" lon="4.71679">
        <ele>191</ele>
        <time>2018-02-09T09:45:05Z</time>
      </trkpt>
      <trkpt lat="45.96892" lon="4.7168">
        <ele>191</ele>
        <time>2018-02-09T09:45:06Z</time>
      </trkpt>
      <trkpt lat="45.96897" lon="4.71681">
        <ele>191</ele>
        <time>2018-02-09T09:45:07Z</time>
      </trkpt>
      <trkpt lat="45.96901" lon="4.71681">
        <ele>191</ele>
        <time>2018-02-09T09:45:08Z</time>
      </trkpt>
      <trkpt lat="45.9691" lon="4.71682">
        <ele>192</ele>
        <time>2018-02-09T09:45:10Z</time>
      </trkpt>
      <trkpt lat="45.96914" lon="4.71683">
        <ele>192</ele>
        <time>2018-02-09T09:45:11Z</time>
      </trkpt>
      <trkpt lat="45.9692" lon="4.71683">
        <ele>193</ele>
        <time>2018-02-09T09:45:12Z</time>
      </trkpt>
      <trkpt lat="45.96924" lon="4.71682">
        <ele>193</ele>
        <time>2018-02-09T09:45:13Z</time>
      </trkpt>
      <trkpt lat="45.96929" lon="4.71683">
        <ele>192</ele>
        <time>2018-02-09T09:45:14Z</time>
      </trkpt>
      <trkpt lat="45.96933" lon="4.71683">
        <ele>192</ele>
        <time>2018-02-09T09:45:15Z</time>
      </trkpt>
      <trkpt lat="45.96942" lon="4.71683">
        <ele>192</ele>
        <time>2018-02-09T09:45:17Z</time>
      </trkpt>
      <trkpt lat="45.96947" lon="4.71684">
        <ele>192</ele>
        <time>2018-02-09T09:45:18Z</time>
      </trkpt>
      <trkpt lat="45.96956" lon="4.71684">
        <ele>192</ele>
        <time>2018-02-09T09:45:20Z</time>
      </trkpt>
      <trkpt lat="45.9696" lon="4.71685">
        <ele>192</ele>
        <time>2018-02-09T09:45:21Z</time>
      </trkpt>
      <trkpt lat="45.96965" lon="4.71686">
        <ele>192</ele>
        <time>2018-02-09T09:45:22Z</time>
      </trkpt>
      <trkpt lat="45.9697" lon="4.71685">
        <ele>192</ele>
        <time>2018-02-09T09:45:23Z</time>
      </trkpt>
      <trkpt lat="45.96975" lon="4.71687">
        <ele>192</ele>
        <time>2018-02-09T09:45:24Z</time>
      </trkpt>
      <trkpt lat="45.96981" lon="4.71688">
        <ele>192</ele>
        <time>2018-02-09T09:45:25Z</time>
      </trkpt>
      <trkpt lat="45.96986" lon="4.71688">
        <ele>192</ele>
        <time>2018-02-09T09:45:26Z</time>
      </trkpt>
      <trkpt lat="45.96991" lon="4.71688">
        <ele>192</ele>
        <time>2018-02-09T09:45:27Z</time>
      </trkpt>
      <trkpt lat="45.96997" lon="4.71689">
        <ele>192</ele>
        <time>2018-02-09T09:45:28Z</time>
      </trkpt>
      <trkpt lat="45.97002" lon="4.7169">
        <ele>193</ele>
        <time>2018-02-09T09:45:29Z</time>
      </trkpt>
      <trkpt lat="45.97007" lon="4.71691">
        <ele>193</ele>
        <time>2018-02-09T09:45:30Z</time>
      </trkpt>
      <trkpt lat="45.97013" lon="4.71691">
        <ele>193</ele>
        <time>2018-02-09T09:45:31Z</time>
      </trkpt>
      <trkpt lat="45.97017" lon="4.71691">
        <ele>193</ele>
        <time>2018-02-09T09:45:32Z</time>
      </trkpt>
      <trkpt lat="45.97022" lon="4.71692">
        <ele>192</ele>
        <time>2018-02-09T09:45:33Z</time>
      </trkpt>
      <trkpt lat="45.97028" lon="4.71692">
        <ele>192</ele>
        <time>2018-02-09T09:45:34Z</time>
      </trkpt>
      <trkpt lat="45.97033" lon="4.71694">
        <ele>192</ele>
        <time>2018-02-09T09:45:35Z</time>
      </trkpt>
      <trkpt lat="45.97039" lon="4.71693">
        <ele>192</ele>
        <time>2018-02-09T09:45:36Z</time>
      </trkpt>
      <trkpt lat="45.97044" lon="4.71693">
        <ele>192</ele>
        <time>2018-02-09T09:45:37Z</time>
      </trkpt>
      <trkpt lat="45.9705" lon="4.71694">
        <ele>192</ele>
        <time>2018-02-09T09:45:38Z</time>
      </trkpt>
      <trkpt lat="45.97055" lon="4.71695">
        <ele>193</ele>
        <time>2018-02-09T09:45:39Z</time>
      </trkpt>
      <trkpt lat="45.97061" lon="4.71696">
        <ele>193</ele>
        <time>2018-02-09T09:45:40Z</time>
      </trkpt>
      <trkpt lat="45.97066" lon="4.71696">
        <ele>193</ele>
        <time>2018-02-09T09:45:41Z</time>
      </trkpt>
      <trkpt lat="45.97071" lon="4.71696">
        <ele>193</ele>
        <time>2018-02-09T09:45:42Z</time>
      </trkpt>
      <trkpt lat="45.97077" lon="4.71695">
        <ele>193</ele>
        <time>2018-02-09T09:45:43Z</time>
      </trkpt>
      <trkpt lat="45.97082" lon="4.71696">
        <ele>193</ele>
        <time>2018-02-09T09:45:44Z</time>
      </trkpt>
      <trkpt lat="45.97088" lon="4.71696">
        <ele>194</ele>
        <time>2018-02-09T09:45:45Z</time>
      </trkpt>
      <trkpt lat="45.97092" lon="4.71697">
        <ele>194</ele>
        <time>2018-02-09T09:45:46Z</time>
      </trkpt>
      <trkpt lat="45.97097" lon="4.71698">
        <ele>194</ele>
        <time>2018-02-09T09:45:47Z</time>
      </trkpt>
      <trkpt lat="45.97102" lon="4.71698">
        <ele>194</ele>
        <time>2018-02-09T09:45:48Z</time>
      </trkpt>
      <trkpt lat="45.97107" lon="4.71697">
        <ele>194</ele>
        <time>2018-02-09T09:45:49Z</time>
      </trkpt>
      <trkpt lat="45.97112" lon="4.71697">
        <ele>194</ele>
        <time>2018-02-09T09:45:50Z</time>
      </trkpt>
      <trkpt lat="45.97118" lon="4.71698">
        <ele>194</ele>
        <time>2018-02-09T09:45:51Z</time>
      </trkpt>
      <trkpt lat="45.97123" lon="4.71699">
        <ele>194</ele>
        <time>2018-02-09T09:45:52Z</time>
      </trkpt>
      <trkpt lat="45.97129" lon="4.717">
        <ele>194</ele>
        <time>2018-02-09T09:45:53Z</time>
      </trkpt>
      <trkpt lat="45.97134" lon="4.71701">
        <ele>194</ele>
        <time>2018-02-09T09:45:54Z</time>
      </trkpt>
      <trkpt lat="45.9714" lon="4.71702">
        <ele>194</ele>
        <time>2018-02-09T09:45:55Z</time>
      </trkpt>
      <trkpt lat="45.97146" lon="4.71702">
        <ele>195</ele>
        <time>2018-02-09T09:45:56Z</time>
      </trkpt>
      <trkpt lat="45.97152" lon="4.71701">
        <ele>195</ele>
        <time>2018-02-09T09:45:57Z</time>
      </trkpt>
      <trkpt lat="45.97157" lon="4.71702">
        <ele>195</ele>
        <time>2018-02-09T09:45:58Z</time>
      </trkpt>
      <trkpt lat="45.97163" lon="4.71703">
        <ele>195</ele>
        <time>2018-02-09T09:45:59Z</time>
      </trkpt>
      <trkpt lat="45.97168" lon="4.71703">
        <ele>196</ele>
        <time>2018-02-09T09:46:00Z</time>
      </trkpt>
      <trkpt lat="45.97174" lon="4.71704">
        <ele>196</ele>
        <time>2018-02-09T09:46:01Z</time>
      </trkpt>
      <trkpt lat="45.9718" lon="4.71703">
        <ele>196</ele>
        <time>2018-02-09T09:46:02Z</time>
      </trkpt>
      <trkpt lat="45.97185" lon="4.71703">
        <ele>196</ele>
        <time>2018-02-09T09:46:03Z</time>
      </trkpt>
      <trkpt lat="45.9719" lon="4.71703">
        <ele>196</ele>
        <time>2018-02-09T09:46:04Z</time>
      </trkpt>
      <trkpt lat="45.97194" lon="4.71702">
        <ele>196</ele>
        <time>2018-02-09T09:46:05Z</time>
      </trkpt>
      <trkpt lat="45.97199" lon="4.71703">
        <ele>196</ele>
        <time>2018-02-09T09:46:06Z</time>
      </trkpt>
      <trkpt lat="45.97204" lon="4.71703">
        <ele>196</ele>
        <time>2018-02-09T09:46:07Z</time>
      </trkpt>
      <trkpt lat="45.97209" lon="4.71704">
        <ele>196</ele>
        <time>2018-02-09T09:46:08Z</time>
      </trkpt>
      <trkpt lat="45.97214" lon="4.71704">
        <ele>196</ele>
        <time>2018-02-09T09:46:09Z</time>
      </trkpt>
      <trkpt lat="45.97219" lon="4.71705">
        <ele>196</ele>
        <time>2018-02-09T09:46:10Z</time>
      </trkpt>
      <trkpt lat="45.97225" lon="4.71706">
        <ele>196</ele>
        <time>2018-02-09T09:46:11Z</time>
      </trkpt>
      <trkpt lat="45.9723" lon="4.71707">
        <ele>196</ele>
        <time>2018-02-09T09:46:12Z</time>
      </trkpt>
      <trkpt lat="45.97235" lon="4.71708">
        <ele>196</ele>
        <time>2018-02-09T09:46:13Z</time>
      </trkpt>
      <trkpt lat="45.9724" lon="4.71709">
        <ele>196</ele>
        <time>2018-02-09T09:46:14Z</time>
      </trkpt>
      <trkpt lat="45.97245" lon="4.71711">
        <ele>196</ele>
        <time>2018-02-09T09:46:15Z</time>
      </trkpt>
      <trkpt lat="45.9725" lon="4.7171">
        <ele>196</ele>
        <time>2018-02-09T09:46:16Z</time>
      </trkpt>
      <trkpt lat="45.97254" lon="4.71709">
        <ele>196</ele>
        <time>2018-02-09T09:46:17Z</time>
      </trkpt>
      <trkpt lat="45.9726" lon="4.71711">
        <ele>196</ele>
        <time>2018-02-09T09:46:18Z</time>
      </trkpt>
      <trkpt lat="45.97265" lon="4.71712">
        <ele>196</ele>
        <time>2018-02-09T09:46:19Z</time>
      </trkpt>
      <trkpt lat="45.9727" lon="4.71713">
        <ele>196</ele>
        <time>2018-02-09T09:46:20Z</time>
      </trkpt>
      <trkpt lat="45.97275" lon="4.71714">
        <ele>196</ele>
        <time>2018-02-09T09:46:21Z</time>
      </trkpt>
      <trkpt lat="45.9728" lon="4.71716">
        <ele>196</ele>
        <time>2018-02-09T09:46:22Z</time>
      </trkpt>
      <trkpt lat="45.97284" lon="4.71717">
        <ele>196</ele>
        <time>2018-02-09T09:46:23Z</time>
      </trkpt>
      <trkpt lat="45.97292" lon="4.71724">
        <ele>196</ele>
        <time>2018-02-09T09:46:25Z</time>
      </trkpt>
      <trkpt lat="45.97295" lon="4.71728">
        <ele>196</ele>
        <time>2018-02-09T09:46:26Z</time>
      </trkpt>
      <trkpt lat="45.97302" lon="4.71735">
        <ele>196</ele>
        <time>2018-02-09T09:46:28Z</time>
      </trkpt>
      <trkpt lat="45.97307" lon="4.71737">
        <ele>195</ele>
        <time>2018-02-09T09:46:29Z</time>
      </trkpt>
      <trkpt lat="45.97311" lon="4.71736">
        <ele>195</ele>
        <time>2018-02-09T09:46:30Z</time>
      </trkpt>
      <trkpt lat="45.97316" lon="4.71733">
        <ele>195</ele>
        <time>2018-02-09T09:46:31Z</time>
      </trkpt>
      <trkpt lat="45.9732" lon="4.71729">
        <ele>195</ele>
        <time>2018-02-09T09:46:32Z</time>
      </trkpt>
      <trkpt lat="45.97324" lon="4.71726">
        <ele>195</ele>
        <time>2018-02-09T09:46:33Z</time>
      </trkpt>
      <trkpt lat="45.97329" lon="4.71723">
        <ele>196</ele>
        <time>2018-02-09T09:46:34Z</time>
      </trkpt>
      <trkpt lat="45.97333" lon="4.71719">
        <ele>196</ele>
        <time>2018-02-09T09:46:35Z</time>
      </trkpt>
      <trkpt lat="45.97338" lon="4.71718">
        <ele>195</ele>
        <time>2018-02-09T09:46:36Z</time>
      </trkpt>
      <trkpt lat="45.97343" lon="4.71718">
        <ele>195</ele>
        <time>2018-02-09T09:46:37Z</time>
      </trkpt>
      <trkpt lat="45.97347" lon="4.71717">
        <ele>195</ele>
        <time>2018-02-09T09:46:38Z</time>
      </trkpt>
      <trkpt lat="45.97352" lon="4.71717">
        <ele>195</ele>
        <time>2018-02-09T09:46:39Z</time>
      </trkpt>
      <trkpt lat="45.97356" lon="4.71717">
        <ele>195</ele>
        <time>2018-02-09T09:46:40Z</time>
      </trkpt>
      <trkpt lat="45.97361" lon="4.71717">
        <ele>195</ele>
        <time>2018-02-09T09:46:41Z</time>
      </trkpt>
      <trkpt lat="45.97366" lon="4.71718">
        <ele>195</ele>
        <time>2018-02-09T09:46:42Z</time>
      </trkpt>
      <trkpt lat="45.97371" lon="4.71719">
        <ele>195</ele>
        <time>2018-02-09T09:46:43Z</time>
      </trkpt>
      <trkpt lat="45.97376" lon="4.7172">
        <ele>195</ele>
        <time>2018-02-09T09:46:44Z</time>
      </trkpt>
      <trkpt lat="45.97381" lon="4.7172">
        <ele>195</ele>
        <time>2018-02-09T09:46:45Z</time>
      </trkpt>
      <trkpt lat="45.97386" lon="4.7172">
        <ele>195</ele>
        <time>2018-02-09T09:46:46Z</time>
      </trkpt>
      <trkpt lat="45.97391" lon="4.71721">
        <ele>195</ele>
        <time>2018-02-09T09:46:47Z</time>
      </trkpt>
      <trkpt lat="45.97396" lon="4.71721">
        <ele>195</ele>
        <time>2018-02-09T09:46:48Z</time>
      </trkpt>
      <trkpt lat="45.97401" lon="4.71722">
        <ele>195</ele>
        <time>2018-02-09T09:46:49Z</time>
      </trkpt>
      <trkpt lat="45.97407" lon="4.71721">
        <ele>195</ele>
        <time>2018-02-09T09:46:50Z</time>
      </trkpt>
      <trkpt lat="45.97412" lon="4.71722">
        <ele>195</ele>
        <time>2018-02-09T09:46:51Z</time>
      </trkpt>
      <trkpt lat="45.97418" lon="4.71722">
        <ele>196</ele>
        <time>2018-02-09T09:46:52Z</time>
      </trkpt>
      <trkpt lat="45.97423" lon="4.71722">
        <ele>196</ele>
        <time>2018-02-09T09:46:53Z</time>
      </trkpt>
      <trkpt lat="45.97429" lon="4.71722">
        <ele>196</ele>
        <time>2018-02-09T09:46:54Z</time>
      </trkpt>
      <trkpt lat="45.97433" lon="4.71724">
        <ele>196</ele>
        <time>2018-02-09T09:46:55Z</time>
      </trkpt>
      <trkpt lat="45.97438" lon="4.71725">
        <ele>196</ele>
        <time>2018-02-09T09:46:56Z</time>
      </trkpt>
      <trkpt lat="45.97444" lon="4.71724">
        <ele>196</ele>
        <time>2018-02-09T09:46:57Z</time>
      </trkpt>
      <trkpt lat="45.97449" lon="4.71725">
        <ele>196</ele>
        <time>2018-02-09T09:46:58Z</time>
      </trkpt>
      <trkpt lat="45.97453" lon="4.71725">
        <ele>197</ele>
        <time>2018-02-09T09:46:59Z</time>
      </trkpt>
      <trkpt lat="45.97458" lon="4.71727">
        <ele>197</ele>
        <time>2018-02-09T09:47:00Z</time>
      </trkpt>
      <trkpt lat="45.97462" lon="4.71728">
        <ele>197</ele>
        <time>2018-02-09T09:47:01Z</time>
      </trkpt>
      <trkpt lat="45.97468" lon="4.71728">
        <ele>197</ele>
        <time>2018-02-09T09:47:02Z</time>
      </trkpt>
      <trkpt lat="45.97474" lon="4.71728">
        <ele>197</ele>
        <time>2018-02-09T09:47:03Z</time>
      </trkpt>
      <trkpt lat="45.97479" lon="4.71729">
        <ele>197</ele>
        <time>2018-02-09T09:47:04Z</time>
      </trkpt>
      <trkpt lat="45.97484" lon="4.7173">
        <ele>197</ele>
        <time>2018-02-09T09:47:05Z</time>
      </trkpt>
      <trkpt lat="45.97489" lon="4.71731">
        <ele>197</ele>
        <time>2018-02-09T09:47:06Z</time>
      </trkpt>
      <trkpt lat="45.97494" lon="4.71732">
        <ele>197</ele>
        <time>2018-02-09T09:47:07Z</time>
      </trkpt>
      <trkpt lat="45.97503" lon="4.71732">
        <ele>197</ele>
        <time>2018-02-09T09:47:09Z</time>
      </trkpt>
      <trkpt lat="45.97507" lon="4.71732">
        <ele>197</ele>
        <time>2018-02-09T09:47:10Z</time>
      </trkpt>
      <trkpt lat="45.97512" lon="4.71733">
        <ele>198</ele>
        <time>2018-02-09T09:47:11Z</time>
      </trkpt>
      <trkpt lat="45.97517" lon="4.71733">
        <ele>198</ele>
        <time>2018-02-09T09:47:12Z</time>
      </trkpt>
      <trkpt lat="45.97523" lon="4.71734">
        <ele>198</ele>
        <time>2018-02-09T09:47:13Z</time>
      </trkpt>
      <trkpt lat="45.97528" lon="4.71734">
        <ele>198</ele>
        <time>2018-02-09T09:47:14Z</time>
      </trkpt>
      <trkpt lat="45.97533" lon="4.71735">
        <ele>198</ele>
        <time>2018-02-09T09:47:15Z</time>
      </trkpt>
      <trkpt lat="45.97538" lon="4.71736">
        <ele>198</ele>
        <time>2018-02-09T09:47:16Z</time>
      </trkpt>
      <trkpt lat="45.97544" lon="4.71736">
        <ele>198</ele>
        <time>2018-02-09T09:47:17Z</time>
      </trkpt>
      <trkpt lat="45.97549" lon="4.71737">
        <ele>197</ele>
        <time>2018-02-09T09:47:18Z</time>
      </trkpt>
      <trkpt lat="45.97554" lon="4.71737">
        <ele>197</ele>
        <time>2018-02-09T09:47:19Z</time>
      </trkpt>
      <trkpt lat="45.97559" lon="4.71737">
        <ele>197</ele>
        <time>2018-02-09T09:47:20Z</time>
      </trkpt>
      <trkpt lat="45.97565" lon="4.71737">
        <ele>197</ele>
        <time>2018-02-09T09:47:21Z</time>
      </trkpt>
      <trkpt lat="45.9757" lon="4.71737">
        <ele>197</ele>
        <time>2018-02-09T09:47:22Z</time>
      </trkpt>
      <trkpt lat="45.97575" lon="4.71737">
        <ele>197</ele>
        <time>2018-02-09T09:47:23Z</time>
      </trkpt>
      <trkpt lat="45.97581" lon="4.71737">
        <ele>196</ele>
        <time>2018-02-09T09:47:24Z</time>
      </trkpt>
      <trkpt lat="45.97586" lon="4.71737">
        <ele>196</ele>
        <time>2018-02-09T09:47:25Z</time>
      </trkpt>
      <trkpt lat="45.97592" lon="4.71739">
        <ele>196</ele>
        <time>2018-02-09T09:47:26Z</time>
      </trkpt>
      <trkpt lat="45.97597" lon="4.71743">
        <ele>196</ele>
        <time>2018-02-09T09:47:27Z</time>
      </trkpt>
      <trkpt lat="45.976" lon="4.71748">
        <ele>196</ele>
        <time>2018-02-09T09:47:28Z</time>
      </trkpt>
      <trkpt lat="45.97604" lon="4.71753">
        <ele>194</ele>
        <time>2018-02-09T09:47:29Z</time>
      </trkpt>
      <trkpt lat="45.97608" lon="4.71759">
        <ele>194</ele>
        <time>2018-02-09T09:47:30Z</time>
      </trkpt>
      <trkpt lat="45.97613" lon="4.71763">
        <ele>194</ele>
        <time>2018-02-09T09:47:31Z</time>
      </trkpt>
      <trkpt lat="45.97617" lon="4.71764">
        <ele>194</ele>
        <time>2018-02-09T09:47:32Z</time>
      </trkpt>
      <trkpt lat="45.97623" lon="4.71763">
        <ele>194</ele>
        <time>2018-02-09T09:47:33Z</time>
      </trkpt>
      <trkpt lat="45.97628" lon="4.71761">
        <ele>194</ele>
        <time>2018-02-09T09:47:34Z</time>
      </trkpt>
      <trkpt lat="45.97632" lon="4.71756">
        <ele>194</ele>
        <time>2018-02-09T09:47:35Z</time>
      </trkpt>
      <trkpt lat="45.97636" lon="4.71751">
        <ele>194</ele>
        <time>2018-02-09T09:47:36Z</time>
      </trkpt>
      <trkpt lat="45.9764" lon="4.71748">
        <ele>196</ele>
        <time>2018-02-09T09:47:37Z</time>
      </trkpt>
      <trkpt lat="45.97645" lon="4.71746">
        <ele>196</ele>
        <time>2018-02-09T09:47:38Z</time>
      </trkpt>
      <trkpt lat="45.9765" lon="4.71745">
        <ele>195</ele>
        <time>2018-02-09T09:47:39Z</time>
      </trkpt>
      <trkpt lat="45.97656" lon="4.71746">
        <ele>195</ele>
        <time>2018-02-09T09:47:40Z</time>
      </trkpt>
      <trkpt lat="45.97661" lon="4.71746">
        <ele>195</ele>
        <time>2018-02-09T09:47:41Z</time>
      </trkpt>
      <trkpt lat="45.97666" lon="4.71747">
        <ele>194</ele>
        <time>2018-02-09T09:47:42Z</time>
      </trkpt>
      <trkpt lat="45.97672" lon="4.71747">
        <ele>195</ele>
        <time>2018-02-09T09:47:43Z</time>
      </trkpt>
      <trkpt lat="45.97678" lon="4.71749">
        <ele>195</ele>
        <time>2018-02-09T09:47:44Z</time>
      </trkpt>
      <trkpt lat="45.97684" lon="4.7175">
        <ele>194</ele>
        <time>2018-02-09T09:47:45Z</time>
      </trkpt>
      <trkpt lat="45.9769" lon="4.71751">
        <ele>195</ele>
        <time>2018-02-09T09:47:46Z</time>
      </trkpt>
      <trkpt lat="45.97696" lon="4.71751">
        <ele>195</ele>
        <time>2018-02-09T09:47:47Z</time>
      </trkpt>
      <trkpt lat="45.97702" lon="4.71751">
        <ele>195</ele>
        <time>2018-02-09T09:47:48Z</time>
      </trkpt>
      <trkpt lat="45.97708" lon="4.71751">
        <ele>195</ele>
        <time>2018-02-09T09:47:49Z</time>
      </trkpt>
      <trkpt lat="45.97714" lon="4.71751">
        <ele>195</ele>
        <time>2018-02-09T09:47:50Z</time>
      </trkpt>
      <trkpt lat="45.9772" lon="4.71752">
        <ele>195</ele>
        <time>2018-02-09T09:47:51Z</time>
      </trkpt>
      <trkpt lat="45.97726" lon="4.71753">
        <ele>195</ele>
        <time>2018-02-09T09:47:52Z</time>
      </trkpt>
      <trkpt lat="45.97732" lon="4.71753">
        <ele>195</ele>
        <time>2018-02-09T09:47:53Z</time>
      </trkpt>
      <trkpt lat="45.97737" lon="4.71754">
        <ele>195</ele>
        <time>2018-02-09T09:47:54Z</time>
      </trkpt>
      <trkpt lat="45.97742" lon="4.71754">
        <ele>196</ele>
        <time>2018-02-09T09:47:55Z</time>
      </trkpt>
      <trkpt lat="45.97749" lon="4.71754">
        <ele>196</ele>
        <time>2018-02-09T09:47:56Z</time>
      </trkpt>
      <trkpt lat="45.97754" lon="4.71753">
        <ele>196</ele>
        <time>2018-02-09T09:47:57Z</time>
      </trkpt>
      <trkpt lat="45.9776" lon="4.71753">
        <ele>196</ele>
        <time>2018-02-09T09:47:58Z</time>
      </trkpt>
      <trkpt lat="45.97764" lon="4.71754">
        <ele>196</ele>
        <time>2018-02-09T09:47:59Z</time>
      </trkpt>
      <trkpt lat="45.9777" lon="4.71754">
        <ele>195</ele>
        <time>2018-02-09T09:48:00Z</time>
      </trkpt>
      <trkpt lat="45.97776" lon="4.71755">
        <ele>195</ele>
        <time>2018-02-09T09:48:01Z</time>
      </trkpt>
      <trkpt lat="45.97783" lon="4.71754">
        <ele>195</ele>
        <time>2018-02-09T09:48:02Z</time>
      </trkpt>
      <trkpt lat="45.97789" lon="4.71755">
        <ele>195</ele>
        <time>2018-02-09T09:48:03Z</time>
      </trkpt>
      <trkpt lat="45.97795" lon="4.71755">
        <ele>195</ele>
        <time>2018-02-09T09:48:04Z</time>
      </trkpt>
      <trkpt lat="45.97801" lon="4.71756">
        <ele>195</ele>
        <time>2018-02-09T09:48:05Z</time>
      </trkpt>
      <trkpt lat="45.97806" lon="4.71756">
        <ele>195</ele>
        <time>2018-02-09T09:48:06Z</time>
      </trkpt>
      <trkpt lat="45.97812" lon="4.71757">
        <ele>195</ele>
        <time>2018-02-09T09:48:07Z</time>
      </trkpt>
      <trkpt lat="45.97817" lon="4.71757">
        <ele>195</ele>
        <time>2018-02-09T09:48:08Z</time>
      </trkpt>
      <trkpt lat="45.97823" lon="4.71758">
        <ele>195</ele>
        <time>2018-02-09T09:48:09Z</time>
      </trkpt>
      <trkpt lat="45.97828" lon="4.71757">
        <ele>195</ele>
        <time>2018-02-09T09:48:10Z</time>
      </trkpt>
      <trkpt lat="45.97833" lon="4.71758">
        <ele>195</ele>
        <time>2018-02-09T09:48:11Z</time>
      </trkpt>
      <trkpt lat="45.97838" lon="4.71758">
        <ele>195</ele>
        <time>2018-02-09T09:48:12Z</time>
      </trkpt>
      <trkpt lat="45.97847" lon="4.71758">
        <ele>195</ele>
        <time>2018-02-09T09:48:14Z</time>
      </trkpt>
      <trkpt lat="45.97851" lon="4.7176">
        <ele>195</ele>
        <time>2018-02-09T09:48:15Z</time>
      </trkpt>
      <trkpt lat="45.97858" lon="4.71768">
        <ele>195</ele>
        <time>2018-02-09T09:48:17Z</time>
      </trkpt>
      <trkpt lat="45.97861" lon="4.71772">
        <ele>194</ele>
        <time>2018-02-09T09:48:18Z</time>
      </trkpt>
      <trkpt lat="45.97865" lon="4.71777">
        <ele>194</ele>
        <time>2018-02-09T09:48:19Z</time>
      </trkpt>
      <trkpt lat="45.9787" lon="4.71781">
        <ele>194</ele>
        <time>2018-02-09T09:48:20Z</time>
      </trkpt>
      <trkpt lat="45.97875" lon="4.71783">
        <ele>194</ele>
        <time>2018-02-09T09:48:21Z</time>
      </trkpt>
      <trkpt lat="45.9788" lon="4.71782">
        <ele>194</ele>
        <time>2018-02-09T09:48:22Z</time>
      </trkpt>
      <trkpt lat="45.97886" lon="4.71779">
        <ele>194</ele>
        <time>2018-02-09T09:48:23Z</time>
      </trkpt>
      <trkpt lat="45.97891" lon="4.71777">
        <ele>194</ele>
        <time>2018-02-09T09:48:24Z</time>
      </trkpt>
      <trkpt lat="45.97895" lon="4.71772">
        <ele>194</ele>
        <time>2018-02-09T09:48:25Z</time>
      </trkpt>
      <trkpt lat="45.97898" lon="4.71766">
        <ele>195</ele>
        <time>2018-02-09T09:48:26Z</time>
      </trkpt>
      <trkpt lat="45.979" lon="4.71759">
        <ele>195</ele>
        <time>2018-02-09T09:48:27Z</time>
      </trkpt>
      <trkpt lat="45.97902" lon="4.7175">
        <ele>195</ele>
        <time>2018-02-09T09:48:28Z</time>
      </trkpt>
      <trkpt lat="45.97902" lon="4.71742">
        <ele>195</ele>
        <time>2018-02-09T09:48:29Z</time>
      </trkpt>
      <trkpt lat="45.97903" lon="4.71734">
        <ele>196</ele>
        <time>2018-02-09T09:48:30Z</time>
      </trkpt>
      <trkpt lat="45.97903" lon="4.71726">
        <ele>196</ele>
        <time>2018-02-09T09:48:31Z</time>
      </trkpt>
      <trkpt lat="45.97904" lon="4.71718">
        <ele>196</ele>
        <time>2018-02-09T09:48:32Z</time>
      </trkpt>
      <trkpt lat="45.97905" lon="4.7171">
        <ele>196</ele>
        <time>2018-02-09T09:48:33Z</time>
      </trkpt>
      <trkpt lat="45.97907" lon="4.71703">
        <ele>196</ele>
        <time>2018-02-09T09:48:34Z</time>
      </trkpt>
      <trkpt lat="45.97911" lon="4.71696">
        <ele>196</ele>
        <time>2018-02-09T09:48:35Z</time>
      </trkpt>
      <trkpt lat="45.97915" lon="4.7169">
        <ele>196</ele>
        <time>2018-02-09T09:48:36Z</time>
      </trkpt>
      <trkpt lat="45.9792" lon="4.71686">
        <ele>196</ele>
        <time>2018-02-09T09:48:37Z</time>
      </trkpt>
      <trkpt lat="45.97925" lon="4.71682">
        <ele>197</ele>
        <time>2018-02-09T09:48:38Z</time>
      </trkpt>
      <trkpt lat="45.9793" lon="4.7168">
        <ele>197</ele>
        <time>2018-02-09T09:48:39Z</time>
      </trkpt>
      <trkpt lat="45.97934" lon="4.71676">
        <ele>197</ele>
        <time>2018-02-09T09:48:40Z</time>
      </trkpt>
      <trkpt lat="45.97938" lon="4.71673">
        <ele>197</ele>
        <time>2018-02-09T09:48:41Z</time>
      </trkpt>
      <trkpt lat="45.97943" lon="4.7167">
        <ele>197</ele>
        <time>2018-02-09T09:48:42Z</time>
      </trkpt>
      <trkpt lat="45.97947" lon="4.71667">
        <ele>197</ele>
        <time>2018-02-09T09:48:43Z</time>
      </trkpt>
      <trkpt lat="45.97952" lon="4.71662">
        <ele>197</ele>
        <time>2018-02-09T09:48:44Z</time>
      </trkpt>
      <trkpt lat="45.97957" lon="4.71658">
        <ele>197</ele>
        <time>2018-02-09T09:48:45Z</time>
      </trkpt>
      <trkpt lat="45.97961" lon="4.71655">
        <ele>197</ele>
        <time>2018-02-09T09:48:46Z</time>
      </trkpt>
      <trkpt lat="45.97966" lon="4.71652">
        <ele>197</ele>
        <time>2018-02-09T09:48:47Z</time>
      </trkpt>
      <trkpt lat="45.97971" lon="4.71649">
        <ele>197</ele>
        <time>2018-02-09T09:48:48Z</time>
      </trkpt>
      <trkpt lat="45.97975" lon="4.71645">
        <ele>197</ele>
        <time>2018-02-09T09:48:49Z</time>
      </trkpt>
      <trkpt lat="45.9798" lon="4.71641">
        <ele>197</ele>
        <time>2018-02-09T09:48:50Z</time>
      </trkpt>
      <trkpt lat="45.97985" lon="4.71637">
        <ele>198</ele>
        <time>2018-02-09T09:48:51Z</time>
      </trkpt>
      <trkpt lat="45.9799" lon="4.71634">
        <ele>198</ele>
        <time>2018-02-09T09:48:52Z</time>
      </trkpt>
      <trkpt lat="45.97994" lon="4.7163">
        <ele>198</ele>
        <time>2018-02-09T09:48:53Z</time>
      </trkpt>
      <trkpt lat="45.97999" lon="4.71626">
        <ele>198</ele>
        <time>2018-02-09T09:48:54Z</time>
      </trkpt>
      <trkpt lat="45.98007" lon="4.7162">
        <ele>198</ele>
        <time>2018-02-09T09:48:56Z</time>
      </trkpt>
      <trkpt lat="45.98011" lon="4.71616">
        <ele>198</ele>
        <time>2018-02-09T09:48:57Z</time>
      </trkpt>
      <trkpt lat="45.98019" lon="4.7161">
        <ele>198</ele>
        <time>2018-02-09T09:48:59Z</time>
      </trkpt>
      <trkpt lat="45.98023" lon="4.71607">
        <ele>198</ele>
        <time>2018-02-09T09:49:00Z</time>
      </trkpt>
      <trkpt lat="45.98028" lon="4.71602">
        <ele>198</ele>
        <time>2018-02-09T09:49:01Z</time>
      </trkpt>
      <trkpt lat="45.98033" lon="4.71597">
        <ele>198</ele>
        <time>2018-02-09T09:49:02Z</time>
      </trkpt>
      <trkpt lat="45.98038" lon="4.71593">
        <ele>198</ele>
        <time>2018-02-09T09:49:03Z</time>
      </trkpt>
      <trkpt lat="45.98043" lon="4.71588">
        <ele>198</ele>
        <time>2018-02-09T09:49:04Z</time>
      </trkpt>
      <trkpt lat="45.98047" lon="4.71585">
        <ele>198</ele>
        <time>2018-02-09T09:49:05Z</time>
      </trkpt>
      <trkpt lat="45.98052" lon="4.71581">
        <ele>198</ele>
        <time>2018-02-09T09:49:06Z</time>
      </trkpt>
      <trkpt lat="45.98058" lon="4.71576">
        <ele>198</ele>
        <time>2018-02-09T09:49:07Z</time>
      </trkpt>
      <trkpt lat="45.98063" lon="4.71571">
        <ele>198</ele>
        <time>2018-02-09T09:49:08Z</time>
      </trkpt>
      <trkpt lat="45.98067" lon="4.71568">
        <ele>198</ele>
        <time>2018-02-09T09:49:09Z</time>
      </trkpt>
      <trkpt lat="45.98072" lon="4.71565">
        <ele>198</ele>
        <time>2018-02-09T09:49:10Z</time>
      </trkpt>
      <trkpt lat="45.98077" lon="4.71561">
        <ele>198</ele>
        <time>2018-02-09T09:49:11Z</time>
      </trkpt>
      <trkpt lat="45.98081" lon="4.71559">
        <ele>198</ele>
        <time>2018-02-09T09:49:12Z</time>
      </trkpt>
      <trkpt lat="45.98086" lon="4.71556">
        <ele>198</ele>
        <time>2018-02-09T09:49:13Z</time>
      </trkpt>
      <trkpt lat="45.9809" lon="4.71552">
        <ele>198</ele>
        <time>2018-02-09T09:49:14Z</time>
      </trkpt>
      <trkpt lat="45.98095" lon="4.7155">
        <ele>197</ele>
        <time>2018-02-09T09:49:15Z</time>
      </trkpt>
      <trkpt lat="45.981" lon="4.71547">
        <ele>197</ele>
        <time>2018-02-09T09:49:16Z</time>
      </trkpt>
      <trkpt lat="45.98105" lon="4.71544">
        <ele>197</ele>
        <time>2018-02-09T09:49:17Z</time>
      </trkpt>
      <trkpt lat="45.98109" lon="4.71541">
        <ele>197</ele>
        <time>2018-02-09T09:49:18Z</time>
      </trkpt>
      <trkpt lat="45.98117" lon="4.71536">
        <ele>197</ele>
        <time>2018-02-09T09:49:20Z</time>
      </trkpt>
      <trkpt lat="45.98122" lon="4.71532">
        <ele>197</ele>
        <time>2018-02-09T09:49:21Z</time>
      </trkpt>
      <trkpt lat="45.98127" lon="4.71529">
        <ele>197</ele>
        <time>2018-02-09T09:49:22Z</time>
      </trkpt>
      <trkpt lat="45.98132" lon="4.71526">
        <ele>197</ele>
        <time>2018-02-09T09:49:23Z</time>
      </trkpt>
      <trkpt lat="45.98138" lon="4.71522">
        <ele>197</ele>
        <time>2018-02-09T09:49:24Z</time>
      </trkpt>
      <trkpt lat="45.98144" lon="4.71519">
        <ele>197</ele>
        <time>2018-02-09T09:49:25Z</time>
      </trkpt>
      <trkpt lat="45.98149" lon="4.71516">
        <ele>197</ele>
        <time>2018-02-09T09:49:26Z</time>
      </trkpt>
      <trkpt lat="45.98154" lon="4.71513">
        <ele>197</ele>
        <time>2018-02-09T09:49:27Z</time>
      </trkpt>
      <trkpt lat="45.9816" lon="4.71511">
        <ele>197</ele>
        <time>2018-02-09T09:49:28Z</time>
      </trkpt>
      <trkpt lat="45.98166" lon="4.71509">
        <ele>197</ele>
        <time>2018-02-09T09:49:29Z</time>
      </trkpt>
      <trkpt lat="45.9817" lon="4.71506">
        <ele>197</ele>
        <time>2018-02-09T09:49:30Z</time>
      </trkpt>
      <trkpt lat="45.98175" lon="4.71503">
        <ele>197</ele>
        <time>2018-02-09T09:49:31Z</time>
      </trkpt>
      <trkpt lat="45.9818" lon="4.715">
        <ele>197</ele>
        <time>2018-02-09T09:49:32Z</time>
      </trkpt>
      <trkpt lat="45.98186" lon="4.71499">
        <ele>197</ele>
        <time>2018-02-09T09:49:33Z</time>
      </trkpt>
      <trkpt lat="45.98191" lon="4.715">
        <ele>197</ele>
        <time>2018-02-09T09:49:34Z</time>
      </trkpt>
      <trkpt lat="45.98197" lon="4.71501">
        <ele>197</ele>
        <time>2018-02-09T09:49:35Z</time>
      </trkpt>
      <trkpt lat="45.98203" lon="4.71501">
        <ele>197</ele>
        <time>2018-02-09T09:49:36Z</time>
      </trkpt>
      <trkpt lat="45.98207" lon="4.71502">
        <ele>197</ele>
        <time>2018-02-09T09:49:37Z</time>
      </trkpt>
      <trkpt lat="45.98212" lon="4.71502">
        <ele>196</ele>
        <time>2018-02-09T09:49:38Z</time>
      </trkpt>
      <trkpt lat="45.98217" lon="4.71504">
        <ele>196</ele>
        <time>2018-02-09T09:49:39Z</time>
      </trkpt>
      <trkpt lat="45.98221" lon="4.71507">
        <ele>196</ele>
        <time>2018-02-09T09:49:40Z</time>
      </trkpt>
      <trkpt lat="45.98225" lon="4.7151">
        <ele>196</ele>
        <time>2018-02-09T09:49:41Z</time>
      </trkpt>
      <trkpt lat="45.9823" lon="4.71513">
        <ele>196</ele>
        <time>2018-02-09T09:49:42Z</time>
      </trkpt>
      <trkpt lat="45.98234" lon="4.71514">
        <ele>196</ele>
        <time>2018-02-09T09:49:43Z</time>
      </trkpt>
      <trkpt lat="45.98238" lon="4.71517">
        <ele>196</ele>
        <time>2018-02-09T09:49:44Z</time>
      </trkpt>
      <trkpt lat="45.98243" lon="4.71519">
        <ele>196</ele>
        <time>2018-02-09T09:49:45Z</time>
      </trkpt>
      <trkpt lat="45.98248" lon="4.71522">
        <ele>196</ele>
        <time>2018-02-09T09:49:46Z</time>
      </trkpt>
      <trkpt lat="45.98253" lon="4.71526">
        <ele>197</ele>
        <time>2018-02-09T09:49:47Z</time>
      </trkpt>
      <trkpt lat="45.98258" lon="4.71529">
        <ele>197</ele>
        <time>2018-02-09T09:49:48Z</time>
      </trkpt>
      <trkpt lat="45.98264" lon="4.71534">
        <ele>197</ele>
        <time>2018-02-09T09:49:49Z</time>
      </trkpt>
      <trkpt lat="45.9827" lon="4.71538">
        <ele>197</ele>
        <time>2018-02-09T09:49:50Z</time>
      </trkpt>
      <trkpt lat="45.98275" lon="4.71543">
        <ele>198</ele>
        <time>2018-02-09T09:49:51Z</time>
      </trkpt>
      <trkpt lat="45.98281" lon="4.71547">
        <ele>198</ele>
        <time>2018-02-09T09:49:52Z</time>
      </trkpt>
      <trkpt lat="45.98286" lon="4.71551">
        <ele>198</ele>
        <time>2018-02-09T09:49:53Z</time>
      </trkpt>
      <trkpt lat="45.98291" lon="4.71555">
        <ele>198</ele>
        <time>2018-02-09T09:49:54Z</time>
      </trkpt>
      <trkpt lat="45.98296" lon="4.71558">
        <ele>198</ele>
        <time>2018-02-09T09:49:55Z</time>
      </trkpt>
      <trkpt lat="45.98301" lon="4.71561">
        <ele>198</ele>
        <time>2018-02-09T09:49:56Z</time>
      </trkpt>
      <trkpt lat="45.98306" lon="4.71564">
        <ele>198</ele>
        <time>2018-02-09T09:49:57Z</time>
      </trkpt>
      <trkpt lat="45.9831" lon="4.71567">
        <ele>198</ele>
        <time>2018-02-09T09:49:58Z</time>
      </trkpt>
      <trkpt lat="45.98315" lon="4.7157">
        <ele>198</ele>
        <time>2018-02-09T09:49:59Z</time>
      </trkpt>
      <trkpt lat="45.98319" lon="4.71573">
        <ele>198</ele>
        <time>2018-02-09T09:50:00Z</time>
      </trkpt>
      <trkpt lat="45.98324" lon="4.71575">
        <ele>199</ele>
        <time>2018-02-09T09:50:01Z</time>
      </trkpt>
      <trkpt lat="45.98329" lon="4.71579">
        <ele>199</ele>
        <time>2018-02-09T09:50:02Z</time>
      </trkpt>
      <trkpt lat="45.98334" lon="4.71582">
        <ele>199</ele>
        <time>2018-02-09T09:50:03Z</time>
      </trkpt>
      <trkpt lat="45.98339" lon="4.71585">
        <ele>199</ele>
        <time>2018-02-09T09:50:04Z</time>
      </trkpt>
      <trkpt lat="45.98345" lon="4.71589">
        <ele>198</ele>
        <time>2018-02-09T09:50:05Z</time>
      </trkpt>
      <trkpt lat="45.9835" lon="4.71594">
        <ele>198</ele>
        <time>2018-02-09T09:50:06Z</time>
      </trkpt>
      <trkpt lat="45.98356" lon="4.71597">
        <ele>198</ele>
        <time>2018-02-09T09:50:07Z</time>
      </trkpt>
      <trkpt lat="45.98361" lon="4.716">
        <ele>198</ele>
        <time>2018-02-09T09:50:08Z</time>
      </trkpt>
      <trkpt lat="45.98367" lon="4.71602">
        <ele>198</ele>
        <time>2018-02-09T09:50:09Z</time>
      </trkpt>
      <trkpt lat="45.98373" lon="4.71603">
        <ele>198</ele>
        <time>2018-02-09T09:50:10Z</time>
      </trkpt>
      <trkpt lat="45.98379" lon="4.71601">
        <ele>198</ele>
        <time>2018-02-09T09:50:11Z</time>
      </trkpt>
      <trkpt lat="45.98385" lon="4.71598">
        <ele>198</ele>
        <time>2018-02-09T09:50:12Z</time>
      </trkpt>
      <trkpt lat="45.98391" lon="4.71594">
        <ele>198</ele>
        <time>2018-02-09T09:50:13Z</time>
      </trkpt>
      <trkpt lat="45.98396" lon="4.71589">
        <ele>197</ele>
        <time>2018-02-09T09:50:14Z</time>
      </trkpt>
      <trkpt lat="45.98401" lon="4.71584">
        <ele>197</ele>
        <time>2018-02-09T09:50:15Z</time>
      </trkpt>
      <trkpt lat="45.98405" lon="4.71579">
        <ele>198</ele>
        <time>2018-02-09T09:50:16Z</time>
      </trkpt>
      <trkpt lat="45.98409" lon="4.71573">
        <ele>198</ele>
        <time>2018-02-09T09:50:17Z</time>
      </trkpt>
      <trkpt lat="45.98414" lon="4.71569">
        <ele>198</ele>
        <time>2018-02-09T09:50:18Z</time>
      </trkpt>
      <trkpt lat="45.98418" lon="4.71563">
        <ele>197</ele>
        <time>2018-02-09T09:50:19Z</time>
      </trkpt>
      <trkpt lat="45.98423" lon="4.71558">
        <ele>197</ele>
        <time>2018-02-09T09:50:20Z</time>
      </trkpt>
      <trkpt lat="45.98427" lon="4.71553">
        <ele>197</ele>
        <time>2018-02-09T09:50:21Z</time>
      </trkpt>
      <trkpt lat="45.98432" lon="4.71548">
        <ele>197</ele>
        <time>2018-02-09T09:50:22Z</time>
      </trkpt>
      <trkpt lat="45.98436" lon="4.71543">
        <ele>197</ele>
        <time>2018-02-09T09:50:23Z</time>
      </trkpt>
      <trkpt lat="45.98441" lon="4.71539">
        <ele>197</ele>
        <time>2018-02-09T09:50:24Z</time>
      </trkpt>
      <trkpt lat="45.98445" lon="4.71536">
        <ele>197</ele>
        <time>2018-02-09T09:50:25Z</time>
      </trkpt>
      <trkpt lat="45.9845" lon="4.71534">
        <ele>197</ele>
        <time>2018-02-09T09:50:26Z</time>
      </trkpt>
      <trkpt lat="45.98455" lon="4.71533">
        <ele>197</ele>
        <time>2018-02-09T09:50:27Z</time>
      </trkpt>
      <trkpt lat="45.98463" lon="4.71531">
        <ele>197</ele>
        <time>2018-02-09T09:50:29Z</time>
      </trkpt>
      <trkpt lat="45.98466" lon="4.71531">
        <ele>197</ele>
        <time>2018-02-09T09:50:30Z</time>
      </trkpt>
      <trkpt lat="45.98475" lon="4.71532">
        <ele>196</ele>
        <time>2018-02-09T09:50:38Z</time>
      </trkpt>
      <trkpt lat="45.98477" lon="4.71535">
        <ele>196</ele>
        <time>2018-02-09T09:50:39Z</time>
      </trkpt>
      <trkpt lat="45.98482" lon="4.71533">
        <ele>196</ele>
        <time>2018-02-09T09:50:41Z</time>
      </trkpt>
      <trkpt lat="45.98486" lon="4.71531">
        <ele>196</ele>
        <time>2018-02-09T09:50:42Z</time>
      </trkpt>
      <trkpt lat="45.98494" lon="4.71527">
        <ele>196</ele>
        <time>2018-02-09T09:50:44Z</time>
      </trkpt>
      <trkpt lat="45.98498" lon="4.71525">
        <ele>196</ele>
        <time>2018-02-09T09:50:45Z</time>
      </trkpt>
      <trkpt lat="45.98503" lon="4.71523">
        <ele>195</ele>
        <time>2018-02-09T09:50:46Z</time>
      </trkpt>
      <trkpt lat="45.98508" lon="4.71521">
        <ele>195</ele>
        <time>2018-02-09T09:50:47Z</time>
      </trkpt>
      <trkpt lat="45.98513" lon="4.7152">
        <ele>195</ele>
        <time>2018-02-09T09:50:48Z</time>
      </trkpt>
      <trkpt lat="45.98518" lon="4.71518">
        <ele>194</ele>
        <time>2018-02-09T09:50:49Z</time>
      </trkpt>
      <trkpt lat="45.98524" lon="4.71518">
        <ele>194</ele>
        <time>2018-02-09T09:50:50Z</time>
      </trkpt>
      <trkpt lat="45.9853" lon="4.71515">
        <ele>194</ele>
        <time>2018-02-09T09:50:51Z</time>
      </trkpt>
      <trkpt lat="45.98536" lon="4.71515">
        <ele>194</ele>
        <time>2018-02-09T09:50:52Z</time>
      </trkpt>
      <trkpt lat="45.98542" lon="4.71513">
        <ele>194</ele>
        <time>2018-02-09T09:50:53Z</time>
      </trkpt>
      <trkpt lat="45.98551" lon="4.71514">
        <ele>194</ele>
        <time>2018-02-09T09:50:55Z</time>
      </trkpt>
      <trkpt lat="45.98555" lon="4.71508">
        <ele>194</ele>
        <time>2018-02-09T09:50:56Z</time>
      </trkpt>
      <trkpt lat="45.98563" lon="4.71504">
        <ele>193</ele>
        <time>2018-02-09T09:50:59Z</time>
      </trkpt>
      <trkpt lat="45.98566" lon="4.71504">
        <ele>193</ele>
        <time>2018-02-09T09:51:00Z</time>
      </trkpt>
      <trkpt lat="45.98573" lon="4.71499">
        <ele>192</ele>
        <time>2018-02-09T09:51:02Z</time>
      </trkpt>
      <trkpt lat="45.98577" lon="4.715">
        <ele>192</ele>
        <time>2018-02-09T09:51:03Z</time>
      </trkpt>
      <trkpt lat="45.98584" lon="4.71502">
        <ele>192</ele>
        <time>2018-02-09T09:51:06Z</time>
      </trkpt>
      <trkpt lat="45.98588" lon="4.71503">
        <ele>192</ele>
        <time>2018-02-09T09:51:07Z</time>
      </trkpt>
      <trkpt lat="45.98597" lon="4.71503">
        <ele>192</ele>
        <time>2018-02-09T09:51:09Z</time>
      </trkpt>
      <trkpt lat="45.98601" lon="4.71503">
        <ele>192</ele>
        <time>2018-02-09T09:51:10Z</time>
      </trkpt>
      <trkpt lat="45.98609" lon="4.71503">
        <ele>191</ele>
        <time>2018-02-09T09:51:12Z</time>
      </trkpt>
      <trkpt lat="45.98613" lon="4.71502">
        <ele>191</ele>
        <time>2018-02-09T09:51:13Z</time>
      </trkpt>
      <trkpt lat="45.98621" lon="4.71499">
        <ele>190</ele>
        <time>2018-02-09T09:51:15Z</time>
      </trkpt>
      <trkpt lat="45.98625" lon="4.71499">
        <ele>190</ele>
        <time>2018-02-09T09:51:16Z</time>
      </trkpt>
      <trkpt lat="45.98631" lon="4.71495">
        <ele>190</ele>
        <time>2018-02-09T09:51:17Z</time>
      </trkpt>
      <trkpt lat="45.98636" lon="4.71494">
        <ele>190</ele>
        <time>2018-02-09T09:51:18Z</time>
      </trkpt>
      <trkpt lat="45.98642" lon="4.71493">
        <ele>190</ele>
        <time>2018-02-09T09:51:19Z</time>
      </trkpt>
      <trkpt lat="45.98647" lon="4.71492">
        <ele>190</ele>
        <time>2018-02-09T09:51:20Z</time>
      </trkpt>
      <trkpt lat="45.98655" lon="4.71489">
        <ele>190</ele>
        <time>2018-02-09T09:51:22Z</time>
      </trkpt>
      <trkpt lat="45.98657" lon="4.71488">
        <ele>190</ele>
        <time>2018-02-09T09:51:23Z</time>
      </trkpt>
      <trkpt lat="45.98665" lon="4.71484">
        <ele>190</ele>
        <time>2018-02-09T09:51:28Z</time>
      </trkpt>
      <trkpt lat="45.98666" lon="4.71483">
        <ele>190</ele>
        <time>2018-02-09T09:51:29Z</time>
      </trkpt>
      <trkpt lat="45.98673" lon="4.71488">
        <ele>188</ele>
        <time>2018-02-09T09:51:44Z</time>
      </trkpt>
      <trkpt lat="45.98675" lon="4.71488">
        <ele>188</ele>
        <time>2018-02-09T09:51:45Z</time>
      </trkpt>
      <trkpt lat="45.98683" lon="4.71492">
        <ele>188</ele>
        <time>2018-02-09T09:51:48Z</time>
      </trkpt>
      <trkpt lat="45.98687" lon="4.71492">
        <ele>187</ele>
        <time>2018-02-09T09:51:49Z</time>
      </trkpt>
      <trkpt lat="45.98691" lon="4.71492">
        <ele>187</ele>
        <time>2018-02-09T09:51:50Z</time>
      </trkpt>
      <trkpt lat="45.98697" lon="4.71493">
        <ele>187</ele>
        <time>2018-02-09T09:51:51Z</time>
      </trkpt>
      <trkpt lat="45.98703" lon="4.71495">
        <ele>187</ele>
        <time>2018-02-09T09:51:52Z</time>
      </trkpt>
      <trkpt lat="45.98708" lon="4.71495">
        <ele>187</ele>
        <time>2018-02-09T09:51:53Z</time>
      </trkpt>
      <trkpt lat="45.98713" lon="4.71495">
        <ele>186</ele>
        <time>2018-02-09T09:51:54Z</time>
      </trkpt>
      <trkpt lat="45.98719" lon="4.71496">
        <ele>186</ele>
        <time>2018-02-09T09:51:55Z</time>
      </trkpt>
      <trkpt lat="45.98724" lon="4.71497">
        <ele>186</ele>
        <time>2018-02-09T09:51:56Z</time>
      </trkpt>
      <trkpt lat="45.98731" lon="4.71498">
        <ele>185</ele>
        <time>2018-02-09T09:51:57Z</time>
      </trkpt>
      <trkpt lat="45.98737" lon="4.71498">
        <ele>185</ele>
        <time>2018-02-09T09:51:58Z</time>
      </trkpt>
      <trkpt lat="45.98745" lon="4.71498">
        <ele>185</ele>
        <time>2018-02-09T09:51:59Z</time>
      </trkpt>
      <trkpt lat="45.98751" lon="4.71498">
        <ele>184</ele>
        <time>2018-02-09T09:52:00Z</time>
      </trkpt>
      <trkpt lat="45.98757" lon="4.71498">
        <ele>184</ele>
        <time>2018-02-09T09:52:01Z</time>
      </trkpt>
      <trkpt lat="45.98764" lon="4.71499">
        <ele>184</ele>
        <time>2018-02-09T09:52:02Z</time>
      </trkpt>
      <trkpt lat="45.9877" lon="4.71499">
        <ele>184</ele>
        <time>2018-02-09T09:52:03Z</time>
      </trkpt>
      <trkpt lat="45.98777" lon="4.715">
        <ele>184</ele>
        <time>2018-02-09T09:52:04Z</time>
      </trkpt>
      <trkpt lat="45.98783" lon="4.715">
        <ele>184</ele>
        <time>2018-02-09T09:52:05Z</time>
      </trkpt>
      <trkpt lat="45.98789" lon="4.715">
        <ele>184</ele>
        <time>2018-02-09T09:52:06Z</time>
      </trkpt>
      <trkpt lat="45.98794" lon="4.715">
        <ele>184</ele>
        <time>2018-02-09T09:52:07Z</time>
      </trkpt>
      <trkpt lat="45.98801" lon="4.715">
        <ele>184</ele>
        <time>2018-02-09T09:52:08Z</time>
      </trkpt>
      <trkpt lat="45.98806" lon="4.71501">
        <ele>184</ele>
        <time>2018-02-09T09:52:09Z</time>
      </trkpt>
      <trkpt lat="45.98811" lon="4.71501">
        <ele>184</ele>
        <time>2018-02-09T09:52:10Z</time>
      </trkpt>
      <trkpt lat="45.98816" lon="4.71502">
        <ele>184</ele>
        <time>2018-02-09T09:52:11Z</time>
      </trkpt>
      <trkpt lat="45.98821" lon="4.71502">
        <ele>184</ele>
        <time>2018-02-09T09:52:12Z</time>
      </trkpt>
      <trkpt lat="45.98825" lon="4.71501">
        <ele>184</ele>
        <time>2018-02-09T09:52:13Z</time>
      </trkpt>
      <trkpt lat="45.98831" lon="4.71502">
        <ele>184</ele>
        <time>2018-02-09T09:52:14Z</time>
      </trkpt>
      <trkpt lat="45.98836" lon="4.71501">
        <ele>184</ele>
        <time>2018-02-09T09:52:15Z</time>
      </trkpt>
      <trkpt lat="45.98841" lon="4.71501">
        <ele>184</ele>
        <time>2018-02-09T09:52:16Z</time>
      </trkpt>
      <trkpt lat="45.98845" lon="4.71501">
        <ele>184</ele>
        <time>2018-02-09T09:52:17Z</time>
      </trkpt>
      <trkpt lat="45.98851" lon="4.71502">
        <ele>185</ele>
        <time>2018-02-09T09:52:18Z</time>
      </trkpt>
      <trkpt lat="45.98857" lon="4.71503">
        <ele>185</ele>
        <time>2018-02-09T09:52:19Z</time>
      </trkpt>
      <trkpt lat="45.98865" lon="4.71505">
        <ele>185</ele>
        <time>2018-02-09T09:52:21Z</time>
      </trkpt>
      <trkpt lat="45.98869" lon="4.71505">
        <ele>185</ele>
        <time>2018-02-09T09:52:22Z</time>
      </trkpt>
      <trkpt lat="45.98876" lon="4.71506">
        <ele>185</ele>
        <time>2018-02-09T09:52:24Z</time>
      </trkpt>
      <trkpt lat="45.98879" lon="4.71507">
        <ele>185</ele>
        <time>2018-02-09T09:52:25Z</time>
      </trkpt>
      <trkpt lat="45.98888" lon="4.71505">
        <ele>185</ele>
        <time>2018-02-09T09:52:28Z</time>
      </trkpt>
      <trkpt lat="45.98891" lon="4.71508">
        <ele>185</ele>
        <time>2018-02-09T09:52:29Z</time>
      </trkpt>
      <trkpt lat="45.98897" lon="4.71513">
        <ele>185</ele>
        <time>2018-02-09T09:52:36Z</time>
      </trkpt>
      <trkpt lat="45.989" lon="4.71512">
        <ele>185</ele>
        <time>2018-02-09T09:52:37Z</time>
      </trkpt>
      <trkpt lat="45.98906" lon="4.71514">
        <ele>185</ele>
        <time>2018-02-09T09:52:39Z</time>
      </trkpt>
      <trkpt lat="45.98909" lon="4.71516">
        <ele>185</ele>
        <time>2018-02-09T09:52:40Z</time>
      </trkpt>
      <trkpt lat="45.98917" lon="4.71519">
        <ele>186</ele>
        <time>2018-02-09T09:52:42Z</time>
      </trkpt>
      <trkpt lat="45.98921" lon="4.71519">
        <ele>186</ele>
        <time>2018-02-09T09:52:43Z</time>
      </trkpt>
      <trkpt lat="45.9893" lon="4.7152">
        <ele>186</ele>
        <time>2018-02-09T09:52:45Z</time>
      </trkpt>
      <trkpt lat="45.98934" lon="4.7152">
        <ele>186</ele>
        <time>2018-02-09T09:52:46Z</time>
      </trkpt>
      <trkpt lat="45.98939" lon="4.7152">
        <ele>186</ele>
        <time>2018-02-09T09:52:47Z</time>
      </trkpt>
      <trkpt lat="45.98944" lon="4.71518">
        <ele>186</ele>
        <time>2018-02-09T09:52:48Z</time>
      </trkpt>
      <trkpt lat="45.98948" lon="4.71519">
        <ele>186</ele>
        <time>2018-02-09T09:52:49Z</time>
      </trkpt>
      <trkpt lat="45.98953" lon="4.7152">
        <ele>186</ele>
        <time>2018-02-09T09:52:50Z</time>
      </trkpt>
      <trkpt lat="45.98958" lon="4.71522">
        <ele>186</ele>
        <time>2018-02-09T09:52:51Z</time>
      </trkpt>
      <trkpt lat="45.98963" lon="4.71522">
        <ele>186</ele>
        <time>2018-02-09T09:52:52Z</time>
      </trkpt>
      <trkpt lat="45.98967" lon="4.71522">
        <ele>186</ele>
        <time>2018-02-09T09:52:53Z</time>
      </trkpt>
      <trkpt lat="45.98972" lon="4.7152">
        <ele>186</ele>
        <time>2018-02-09T09:52:54Z</time>
      </trkpt>
      <trkpt lat="45.98977" lon="4.7152">
        <ele>186</ele>
        <time>2018-02-09T09:52:55Z</time>
      </trkpt>
      <trkpt lat="45.98982" lon="4.71519">
        <ele>186</ele>
        <time>2018-02-09T09:52:56Z</time>
      </trkpt>
      <trkpt lat="45.98987" lon="4.71519">
        <ele>186</ele>
        <time>2018-02-09T09:52:57Z</time>
      </trkpt>
      <trkpt lat="45.98992" lon="4.71519">
        <ele>186</ele>
        <time>2018-02-09T09:52:58Z</time>
      </trkpt>
      <trkpt lat="45.98999" lon="4.71519">
        <ele>186</ele>
        <time>2018-02-09T09:53:00Z</time>
      </trkpt>
      <trkpt lat="45.99002" lon="4.71518">
        <ele>188</ele>
        <time>2018-02-09T09:53:01Z</time>
      </trkpt>
      <trkpt lat="45.99007" lon="4.71518">
        <ele>188</ele>
        <time>2018-02-09T09:53:02Z</time>
      </trkpt>
      <trkpt lat="45.99012" lon="4.71517">
        <ele>188</ele>
        <time>2018-02-09T09:53:03Z</time>
      </trkpt>
      <trkpt lat="45.9902" lon="4.71516">
        <ele>188</ele>
        <time>2018-02-09T09:53:05Z</time>
      </trkpt>
      <trkpt lat="45.99023" lon="4.71515">
        <ele>188</ele>
        <time>2018-02-09T09:53:06Z</time>
      </trkpt>
      <trkpt lat="45.99031" lon="4.71516">
        <ele>188</ele>
        <time>2018-02-09T09:53:08Z</time>
      </trkpt>
      <trkpt lat="45.99035" lon="4.71516">
        <ele>188</ele>
        <time>2018-02-09T09:53:09Z</time>
      </trkpt>
      <trkpt lat="45.99043" lon="4.71515">
        <ele>189</ele>
        <time>2018-02-09T09:53:11Z</time>
      </trkpt>
      <trkpt lat="45.99046" lon="4.71514">
        <ele>189</ele>
        <time>2018-02-09T09:53:12Z</time>
      </trkpt>
      <trkpt lat="45.99054" lon="4.71514">
        <ele>189</ele>
        <time>2018-02-09T09:53:14Z</time>
      </trkpt>
      <trkpt lat="45.99057" lon="4.71514">
        <ele>189</ele>
        <time>2018-02-09T09:53:15Z</time>
      </trkpt>
      <trkpt lat="45.99064" lon="4.71515">
        <ele>189</ele>
        <time>2018-02-09T09:53:17Z</time>
      </trkpt>
      <trkpt lat="45.99067" lon="4.71515">
        <ele>189</ele>
        <time>2018-02-09T09:53:18Z</time>
      </trkpt>
      <trkpt lat="45.99073" lon="4.71515">
        <ele>189</ele>
        <time>2018-02-09T09:53:20Z</time>
      </trkpt>
      <trkpt lat="45.99076" lon="4.71515">
        <ele>189</ele>
        <time>2018-02-09T09:53:21Z</time>
      </trkpt>
      <trkpt lat="45.99084" lon="4.71514">
        <ele>191</ele>
        <time>2018-02-09T09:53:24Z</time>
      </trkpt>
      <trkpt lat="45.99087" lon="4.71514">
        <ele>191</ele>
        <time>2018-02-09T09:53:25Z</time>
      </trkpt>
      <trkpt lat="45.99095" lon="4.71513">
        <ele>191</ele>
        <time>2018-02-09T09:53:28Z</time>
      </trkpt>
      <trkpt lat="45.99097" lon="4.71513">
        <ele>191</ele>
        <time>2018-02-09T09:53:29Z</time>
      </trkpt>
      <trkpt lat="45.99105" lon="4.71512">
        <ele>191</ele>
        <time>2018-02-09T09:53:32Z</time>
      </trkpt>
      <trkpt lat="45.99107" lon="4.71512">
        <ele>191</ele>
        <time>2018-02-09T09:53:33Z</time>
      </trkpt>
      <trkpt lat="45.99114" lon="4.7151">
        <ele>191</ele>
        <time>2018-02-09T09:53:36Z</time>
      </trkpt>
      <trkpt lat="45.99116" lon="4.7151">
        <ele>191</ele>
        <time>2018-02-09T09:53:37Z</time>
      </trkpt>
      <trkpt lat="45.99125" lon="4.71511">
        <ele>192</ele>
        <time>2018-02-09T09:53:41Z</time>
      </trkpt>
      <trkpt lat="45.99127" lon="4.71511">
        <ele>192</ele>
        <time>2018-02-09T09:53:42Z</time>
      </trkpt>
      <trkpt lat="45.99134" lon="4.71513">
        <ele>192</ele>
        <time>2018-02-09T09:53:49Z</time>
      </trkpt>
      <trkpt lat="45.99136" lon="4.71512">
        <ele>192</ele>
        <time>2018-02-09T09:53:50Z</time>
      </trkpt>
      <trkpt lat="45.99145" lon="4.71512">
        <ele>192</ele>
        <time>2018-02-09T09:53:53Z</time>
      </trkpt>
      <trkpt lat="45.99148" lon="4.71513">
        <ele>192</ele>
        <time>2018-02-09T09:53:54Z</time>
      </trkpt>
      <trkpt lat="45.99155" lon="4.71514">
        <ele>192</ele>
        <time>2018-02-09T09:53:57Z</time>
      </trkpt>
      <trkpt lat="45.99157" lon="4.71514">
        <ele>192</ele>
        <time>2018-02-09T09:53:58Z</time>
      </trkpt>
      <trkpt lat="45.99163" lon="4.71514">
        <ele>192</ele>
        <time>2018-02-09T09:54:00Z</time>
      </trkpt>
      <trkpt lat="45.99166" lon="4.71515">
        <ele>192</ele>
        <time>2018-02-09T09:54:01Z</time>
      </trkpt>
      <trkpt lat="45.99173" lon="4.71515">
        <ele>194</ele>
        <time>2018-02-09T09:54:03Z</time>
      </trkpt>
      <trkpt lat="45.99177" lon="4.71515">
        <ele>194</ele>
        <time>2018-02-09T09:54:04Z</time>
      </trkpt>
      <trkpt lat="45.99184" lon="4.71514">
        <ele>194</ele>
        <time>2018-02-09T09:54:06Z</time>
      </trkpt>
      <trkpt lat="45.99187" lon="4.71513">
        <ele>194</ele>
        <time>2018-02-09T09:54:07Z</time>
      </trkpt>
      <trkpt lat="45.99195" lon="4.71511">
        <ele>195</ele>
        <time>2018-02-09T09:54:09Z</time>
      </trkpt>
      <trkpt lat="45.99199" lon="4.7151">
        <ele>195</ele>
        <time>2018-02-09T09:54:10Z</time>
      </trkpt>
      <trkpt lat="45.99206" lon="4.7151">
        <ele>195</ele>
        <time>2018-02-09T09:54:12Z</time>
      </trkpt>
      <trkpt lat="45.9921" lon="4.71511">
        <ele>195</ele>
        <time>2018-02-09T09:54:13Z</time>
      </trkpt>
      <trkpt lat="45.99218" lon="4.71512">
        <ele>195</ele>
        <time>2018-02-09T09:54:15Z</time>
      </trkpt>
      <trkpt lat="45.99221" lon="4.71512">
        <ele>195</ele>
        <time>2018-02-09T09:54:16Z</time>
      </trkpt>
      <trkpt lat="45.9923" lon="4.71513">
        <ele>196</ele>
        <time>2018-02-09T09:54:18Z</time>
      </trkpt>
      <trkpt lat="45.99234" lon="4.71514">
        <ele>196</ele>
        <time>2018-02-09T09:54:19Z</time>
      </trkpt>
      <trkpt lat="45.99243" lon="4.71514">
        <ele>196</ele>
        <time>2018-02-09T09:54:21Z</time>
      </trkpt>
      <trkpt lat="45.99247" lon="4.71514">
        <ele>196</ele>
        <time>2018-02-09T09:54:22Z</time>
      </trkpt>
      <trkpt lat="45.99255" lon="4.71514">
        <ele>197</ele>
        <time>2018-02-09T09:54:24Z</time>
      </trkpt>
      <trkpt lat="45.9926" lon="4.71514">
        <ele>198</ele>
        <time>2018-02-09T09:54:25Z</time>
      </trkpt>
      <trkpt lat="45.99269" lon="4.71514">
        <ele>198</ele>
        <time>2018-02-09T09:54:27Z</time>
      </trkpt>
      <trkpt lat="45.99273" lon="4.71514">
        <ele>198</ele>
        <time>2018-02-09T09:54:28Z</time>
      </trkpt>
      <trkpt lat="45.99281" lon="4.71513">
        <ele>199</ele>
        <time>2018-02-09T09:54:30Z</time>
      </trkpt>
      <trkpt lat="45.99285" lon="4.71513">
        <ele>199</ele>
        <time>2018-02-09T09:54:31Z</time>
      </trkpt>
      <trkpt lat="45.99294" lon="4.71512">
        <ele>199</ele>
        <time>2018-02-09T09:54:33Z</time>
      </trkpt>
      <trkpt lat="45.99298" lon="4.71512">
        <ele>199</ele>
        <time>2018-02-09T09:54:34Z</time>
      </trkpt>
      <trkpt lat="45.99306" lon="4.71511">
        <ele>199</ele>
        <time>2018-02-09T09:54:36Z</time>
      </trkpt>
      <trkpt lat="45.99311" lon="4.71511">
        <ele>199</ele>
        <time>2018-02-09T09:54:37Z</time>
      </trkpt>
      <trkpt lat="45.99319" lon="4.71511">
        <ele>200</ele>
        <time>2018-02-09T09:54:39Z</time>
      </trkpt>
      <trkpt lat="45.99323" lon="4.7151">
        <ele>200</ele>
        <time>2018-02-09T09:54:40Z</time>
      </trkpt>
      <trkpt lat="45.99331" lon="4.7151">
        <ele>200</ele>
        <time>2018-02-09T09:54:42Z</time>
      </trkpt>
      <trkpt lat="45.99335" lon="4.71509">
        <ele>200</ele>
        <time>2018-02-09T09:54:43Z</time>
      </trkpt>
      <trkpt lat="45.99343" lon="4.7151">
        <ele>200</ele>
        <time>2018-02-09T09:54:45Z</time>
      </trkpt>
      <trkpt lat="45.99346" lon="4.7151">
        <ele>200</ele>
        <time>2018-02-09T09:54:46Z</time>
      </trkpt>
      <trkpt lat="45.99354" lon="4.7151">
        <ele>200</ele>
        <time>2018-02-09T09:54:48Z</time>
      </trkpt>
      <trkpt lat="45.99358" lon="4.7151">
        <ele>200</ele>
        <time>2018-02-09T09:54:49Z</time>
      </trkpt>
      <trkpt lat="45.99366" lon="4.71509">
        <ele>200</ele>
        <time>2018-02-09T09:54:51Z</time>
      </trkpt>
      <trkpt lat="45.9937" lon="4.71509">
        <ele>200</ele>
        <time>2018-02-09T09:54:52Z</time>
      </trkpt>
      <trkpt lat="45.99374" lon="4.71509">
        <ele>200</ele>
        <time>2018-02-09T09:54:53Z</time>
      </trkpt>
      <trkpt lat="45.99379" lon="4.71509">
        <ele>200</ele>
        <time>2018-02-09T09:54:54Z</time>
      </trkpt>
      <trkpt lat="45.99383" lon="4.71509">
        <ele>200</ele>
        <time>2018-02-09T09:54:55Z</time>
      </trkpt>
      <trkpt lat="45.99388" lon="4.71509">
        <ele>200</ele>
        <time>2018-02-09T09:54:56Z</time>
      </trkpt>
      <trkpt lat="45.99396" lon="4.71509">
        <ele>200</ele>
        <time>2018-02-09T09:54:58Z</time>
      </trkpt>
      <trkpt lat="45.994" lon="4.71509">
        <ele>200</ele>
        <time>2018-02-09T09:54:59Z</time>
      </trkpt>
      <trkpt lat="45.99407" lon="4.71508">
        <ele>199</ele>
        <time>2018-02-09T09:55:01Z</time>
      </trkpt>
      <trkpt lat="45.99411" lon="4.71508">
        <ele>199</ele>
        <time>2018-02-09T09:55:02Z</time>
      </trkpt>
      <trkpt lat="45.99419" lon="4.71507">
        <ele>199</ele>
        <time>2018-02-09T09:55:04Z</time>
      </trkpt>
      <trkpt lat="45.99422" lon="4.71507">
        <ele>199</ele>
        <time>2018-02-09T09:55:05Z</time>
      </trkpt>
      <trkpt lat="45.9943" lon="4.71508">
        <ele>199</ele>
        <time>2018-02-09T09:55:07Z</time>
      </trkpt>
      <trkpt lat="45.99433" lon="4.71508">
        <ele>199</ele>
        <time>2018-02-09T09:55:08Z</time>
      </trkpt>
      <trkpt lat="45.99441" lon="4.71508">
        <ele>199</ele>
        <time>2018-02-09T09:55:10Z</time>
      </trkpt>
      <trkpt lat="45.99445" lon="4.71508">
        <ele>199</ele>
        <time>2018-02-09T09:55:11Z</time>
      </trkpt>
      <trkpt lat="45.99453" lon="4.71507">
        <ele>199</ele>
        <time>2018-02-09T09:55:13Z</time>
      </trkpt>
      <trkpt lat="45.99457" lon="4.71507">
        <ele>199</ele>
        <time>2018-02-09T09:55:14Z</time>
      </trkpt>
      <trkpt lat="45.99466" lon="4.71507">
        <ele>199</ele>
        <time>2018-02-09T09:55:16Z</time>
      </trkpt>
      <trkpt lat="45.9947" lon="4.71508">
        <ele>199</ele>
        <time>2018-02-09T09:55:17Z</time>
      </trkpt>
      <trkpt lat="45.99478" lon="4.71509">
        <ele>199</ele>
        <time>2018-02-09T09:55:19Z</time>
      </trkpt>
      <trkpt lat="45.99483" lon="4.71509">
        <ele>199</ele>
        <time>2018-02-09T09:55:20Z</time>
      </trkpt>
      <trkpt lat="45.99491" lon="4.71509">
        <ele>199</ele>
        <time>2018-02-09T09:55:22Z</time>
      </trkpt>
      <trkpt lat="45.99495" lon="4.71508">
        <ele>199</ele>
        <time>2018-02-09T09:55:23Z</time>
      </trkpt>
      <trkpt lat="45.99503" lon="4.71508">
        <ele>199</ele>
        <time>2018-02-09T09:55:25Z</time>
      </trkpt>
      <trkpt lat="45.99507" lon="4.71508">
        <ele>199</ele>
        <time>2018-02-09T09:55:26Z</time>
      </trkpt>
      <trkpt lat="45.99511" lon="4.71508">
        <ele>199</ele>
        <time>2018-02-09T09:55:27Z</time>
      </trkpt>
      <trkpt lat="45.99516" lon="4.71508">
        <ele>199</ele>
        <time>2018-02-09T09:55:28Z</time>
      </trkpt>
      <trkpt lat="45.99525" lon="4.71509">
        <ele>198</ele>
        <time>2018-02-09T09:55:30Z</time>
      </trkpt>
      <trkpt lat="45.99529" lon="4.71509">
        <ele>198</ele>
        <time>2018-02-09T09:55:31Z</time>
      </trkpt>
      <trkpt lat="45.99534" lon="4.71508">
        <ele>198</ele>
        <time>2018-02-09T09:55:32Z</time>
      </trkpt>
      <trkpt lat="45.99539" lon="4.71507">
        <ele>198</ele>
        <time>2018-02-09T09:55:33Z</time>
      </trkpt>
      <trkpt lat="45.99543" lon="4.71506">
        <ele>198</ele>
        <time>2018-02-09T09:55:34Z</time>
      </trkpt>
      <trkpt lat="45.99548" lon="4.71506">
        <ele>198</ele>
        <time>2018-02-09T09:55:35Z</time>
      </trkpt>
      <trkpt lat="45.99553" lon="4.71506">
        <ele>198</ele>
        <time>2018-02-09T09:55:36Z</time>
      </trkpt>
      <trkpt lat="45.99558" lon="4.71506">
        <ele>198</ele>
        <time>2018-02-09T09:55:37Z</time>
      </trkpt>
      <trkpt lat="45.99564" lon="4.71506">
        <ele>197</ele>
        <time>2018-02-09T09:55:38Z</time>
      </trkpt>
      <trkpt lat="45.99569" lon="4.71507">
        <ele>197</ele>
        <time>2018-02-09T09:55:39Z</time>
      </trkpt>
      <trkpt lat="45.99574" lon="4.71507">
        <ele>197</ele>
        <time>2018-02-09T09:55:40Z</time>
      </trkpt>
      <trkpt lat="45.99579" lon="4.71507">
        <ele>197</ele>
        <time>2018-02-09T09:55:41Z</time>
      </trkpt>
      <trkpt lat="45.99587" lon="4.71513">
        <ele>197</ele>
        <time>2018-02-09T09:55:43Z</time>
      </trkpt>
      <trkpt lat="45.99589" lon="4.71518">
        <ele>197</ele>
        <time>2018-02-09T09:55:44Z</time>
      </trkpt>
      <trkpt lat="45.99592" lon="4.71525">
        <ele>197</ele>
        <time>2018-02-09T09:55:45Z</time>
      </trkpt>
      <trkpt lat="45.99595" lon="4.7153">
        <ele>197</ele>
        <time>2018-02-09T09:55:46Z</time>
      </trkpt>
      <trkpt lat="45.99602" lon="4.71534">
        <ele>198</ele>
        <time>2018-02-09T09:55:48Z</time>
      </trkpt>
      <trkpt lat="45.99606" lon="4.71533">
        <ele>198</ele>
        <time>2018-02-09T09:55:49Z</time>
      </trkpt>
      <trkpt lat="45.99613" lon="4.71525">
        <ele>197</ele>
        <time>2018-02-09T09:55:51Z</time>
      </trkpt>
      <trkpt lat="45.99615" lon="4.71518">
        <ele>197</ele>
        <time>2018-02-09T09:55:52Z</time>
      </trkpt>
      <trkpt lat="45.99615" lon="4.71512">
        <ele>197</ele>
        <time>2018-02-09T09:55:53Z</time>
      </trkpt>
      <trkpt lat="45.99614" lon="4.71505">
        <ele>197</ele>
        <time>2018-02-09T09:55:54Z</time>
      </trkpt>
      <trkpt lat="45.99613" lon="4.71497">
        <ele>197</ele>
        <time>2018-02-09T09:55:55Z</time>
      </trkpt>
      <trkpt lat="45.99613" lon="4.7149">
        <ele>197</ele>
        <time>2018-02-09T09:55:56Z</time>
      </trkpt>
      <trkpt lat="45.99614" lon="4.71483">
        <ele>197</ele>
        <time>2018-02-09T09:55:57Z</time>
      </trkpt>
      <trkpt lat="45.99616" lon="4.71476">
        <ele>197</ele>
        <time>2018-02-09T09:55:58Z</time>
      </trkpt>
      <trkpt lat="45.99619" lon="4.7147">
        <ele>197</ele>
        <time>2018-02-09T09:55:59Z</time>
      </trkpt>
      <trkpt lat="45.99622" lon="4.71463">
        <ele>197</ele>
        <time>2018-02-09T09:56:00Z</time>
      </trkpt>
      <trkpt lat="45.99626" lon="4.71457">
        <ele>197</ele>
        <time>2018-02-09T09:56:01Z</time>
      </trkpt>
      <trkpt lat="45.99629" lon="4.71451">
        <ele>197</ele>
        <time>2018-02-09T09:56:02Z</time>
      </trkpt>
      <trkpt lat="45.99632" lon="4.71445">
        <ele>197</ele>
        <time>2018-02-09T09:56:03Z</time>
      </trkpt>
      <trkpt lat="45.99636" lon="4.71439">
        <ele>197</ele>
        <time>2018-02-09T09:56:04Z</time>
      </trkpt>
      <trkpt lat="45.99638" lon="4.71433">
        <ele>197</ele>
        <time>2018-02-09T09:56:05Z</time>
      </trkpt>
      <trkpt lat="45.99642" lon="4.71426">
        <ele>197</ele>
        <time>2018-02-09T09:56:06Z</time>
      </trkpt>
      <trkpt lat="45.99645" lon="4.71421">
        <ele>197</ele>
        <time>2018-02-09T09:56:07Z</time>
      </trkpt>
      <trkpt lat="45.99648" lon="4.71414">
        <ele>198</ele>
        <time>2018-02-09T09:56:08Z</time>
      </trkpt>
      <trkpt lat="45.99652" lon="4.71408">
        <ele>198</ele>
        <time>2018-02-09T09:56:09Z</time>
      </trkpt>
      <trkpt lat="45.99655" lon="4.71402">
        <ele>198</ele>
        <time>2018-02-09T09:56:10Z</time>
      </trkpt>
      <trkpt lat="45.99659" lon="4.71395">
        <ele>198</ele>
        <time>2018-02-09T09:56:11Z</time>
      </trkpt>
      <trkpt lat="45.99662" lon="4.71388">
        <ele>198</ele>
        <time>2018-02-09T09:56:12Z</time>
      </trkpt>
      <trkpt lat="45.99666" lon="4.71382">
        <ele>198</ele>
        <time>2018-02-09T09:56:13Z</time>
      </trkpt>
      <trkpt lat="45.99668" lon="4.71375">
        <ele>198</ele>
        <time>2018-02-09T09:56:14Z</time>
      </trkpt>
      <trkpt lat="45.99671" lon="4.7137">
        <ele>197</ele>
        <time>2018-02-09T09:56:15Z</time>
      </trkpt>
      <trkpt lat="45.99675" lon="4.71363">
        <ele>197</ele>
        <time>2018-02-09T09:56:16Z</time>
      </trkpt>
      <trkpt lat="45.99681" lon="4.71354">
        <ele>197</ele>
        <time>2018-02-09T09:56:18Z</time>
      </trkpt>
      <trkpt lat="45.99683" lon="4.71349">
        <ele>197</ele>
        <time>2018-02-09T09:56:19Z</time>
      </trkpt>
      <trkpt lat="45.99688" lon="4.71338">
        <ele>197</ele>
        <time>2018-02-09T09:56:21Z</time>
      </trkpt>
      <trkpt lat="45.99692" lon="4.71331">
        <ele>197</ele>
        <time>2018-02-09T09:56:22Z</time>
      </trkpt>
      <trkpt lat="45.99695" lon="4.71326">
        <ele>198</ele>
        <time>2018-02-09T09:56:23Z</time>
      </trkpt>
      <trkpt lat="45.99698" lon="4.7132">
        <ele>198</ele>
        <time>2018-02-09T09:56:24Z</time>
      </trkpt>
      <trkpt lat="45.99701" lon="4.71315">
        <ele>198</ele>
        <time>2018-02-09T09:56:25Z</time>
      </trkpt>
      <trkpt lat="45.99705" lon="4.71309">
        <ele>198</ele>
        <time>2018-02-09T09:56:26Z</time>
      </trkpt>
      <trkpt lat="45.99707" lon="4.71302">
        <ele>198</ele>
        <time>2018-02-09T09:56:27Z</time>
      </trkpt>
      <trkpt lat="45.9971" lon="4.71296">
        <ele>198</ele>
        <time>2018-02-09T09:56:28Z</time>
      </trkpt>
      <trkpt lat="45.99715" lon="4.71286">
        <ele>198</ele>
        <time>2018-02-09T09:56:30Z</time>
      </trkpt>
      <trkpt lat="45.99717" lon="4.71283">
        <ele>198</ele>
        <time>2018-02-09T09:56:31Z</time>
      </trkpt>
      <trkpt lat="45.9972" lon="4.71277">
        <ele>198</ele>
        <time>2018-02-09T09:56:32Z</time>
      </trkpt>
      <trkpt lat="45.99724" lon="4.71272">
        <ele>198</ele>
        <time>2018-02-09T09:56:33Z</time>
      </trkpt>
      <trkpt lat="45.99728" lon="4.71261">
        <ele>198</ele>
        <time>2018-02-09T09:56:35Z</time>
      </trkpt>
      <trkpt lat="45.9973" lon="4.71256">
        <ele>198</ele>
        <time>2018-02-09T09:56:36Z</time>
      </trkpt>
      <trkpt lat="45.99734" lon="4.71251">
        <ele>198</ele>
        <time>2018-02-09T09:56:37Z</time>
      </trkpt>
      <trkpt lat="45.99738" lon="4.71245">
        <ele>198</ele>
        <time>2018-02-09T09:56:38Z</time>
      </trkpt>
      <trkpt lat="45.99741" lon="4.7124">
        <ele>198</ele>
        <time>2018-02-09T09:56:39Z</time>
      </trkpt>
      <trkpt lat="45.99744" lon="4.71235">
        <ele>198</ele>
        <time>2018-02-09T09:56:40Z</time>
      </trkpt>
      <trkpt lat="45.99747" lon="4.71229">
        <ele>198</ele>
        <time>2018-02-09T09:56:41Z</time>
      </trkpt>
      <trkpt lat="45.99749" lon="4.71224">
        <ele>198</ele>
        <time>2018-02-09T09:56:42Z</time>
      </trkpt>
      <trkpt lat="45.99752" lon="4.71216">
        <ele>199</ele>
        <time>2018-02-09T09:56:43Z</time>
      </trkpt>
      <trkpt lat="45.99755" lon="4.71212">
        <ele>199</ele>
        <time>2018-02-09T09:56:44Z</time>
      </trkpt>
      <trkpt lat="45.9976" lon="4.71201">
        <ele>198</ele>
        <time>2018-02-09T09:56:46Z</time>
      </trkpt>
      <trkpt lat="45.99762" lon="4.71196">
        <ele>198</ele>
        <time>2018-02-09T09:56:47Z</time>
      </trkpt>
      <trkpt lat="45.99765" lon="4.71192">
        <ele>198</ele>
        <time>2018-02-09T09:56:48Z</time>
      </trkpt>
      <trkpt lat="45.99768" lon="4.71185">
        <ele>198</ele>
        <time>2018-02-09T09:56:49Z</time>
      </trkpt>
      <trkpt lat="45.99773" lon="4.71176">
        <ele>198</ele>
        <time>2018-02-09T09:56:51Z</time>
      </trkpt>
      <trkpt lat="45.99774" lon="4.71174">
        <ele>198</ele>
        <time>2018-02-09T09:56:52Z</time>
      </trkpt>
      <trkpt lat="45.99778" lon="4.71166">
        <ele>198</ele>
        <time>2018-02-09T09:56:54Z</time>
      </trkpt>
      <trkpt lat="45.99782" lon="4.71159">
        <ele>198</ele>
        <time>2018-02-09T09:56:55Z</time>
      </trkpt>
      <trkpt lat="45.99786" lon="4.71149">
        <ele>198</ele>
        <time>2018-02-09T09:56:57Z</time>
      </trkpt>
      <trkpt lat="45.99789" lon="4.71143">
        <ele>198</ele>
        <time>2018-02-09T09:56:58Z</time>
      </trkpt>
      <trkpt lat="45.99794" lon="4.71134">
        <ele>198</ele>
        <time>2018-02-09T09:57:00Z</time>
      </trkpt>
      <trkpt lat="45.99797" lon="4.71127">
        <ele>198</ele>
        <time>2018-02-09T09:57:01Z</time>
      </trkpt>
      <trkpt lat="45.998" lon="4.71116">
        <ele>198</ele>
        <time>2018-02-09T09:57:03Z</time>
      </trkpt>
      <trkpt lat="45.99801" lon="4.71109">
        <ele>198</ele>
        <time>2018-02-09T09:57:04Z</time>
      </trkpt>
      <trkpt lat="45.99803" lon="4.71097">
        <ele>198</ele>
        <time>2018-02-09T09:57:06Z</time>
      </trkpt>
      <trkpt lat="45.99804" lon="4.71089">
        <ele>198</ele>
        <time>2018-02-09T09:57:07Z</time>
      </trkpt>
      <trkpt lat="45.99805" lon="4.71083">
        <ele>199</ele>
        <time>2018-02-09T09:57:08Z</time>
      </trkpt>
      <trkpt lat="45.99806" lon="4.71076">
        <ele>199</ele>
        <time>2018-02-09T09:57:09Z</time>
      </trkpt>
      <trkpt lat="45.99807" lon="4.71069">
        <ele>199</ele>
        <time>2018-02-09T09:57:10Z</time>
      </trkpt>
      <trkpt lat="45.99809" lon="4.71061">
        <ele>199</ele>
        <time>2018-02-09T09:57:11Z</time>
      </trkpt>
      <trkpt lat="45.9981" lon="4.71056">
        <ele>199</ele>
        <time>2018-02-09T09:57:12Z</time>
      </trkpt>
      <trkpt lat="45.99813" lon="4.7105">
        <ele>199</ele>
        <time>2018-02-09T09:57:13Z</time>
      </trkpt>
      <trkpt lat="45.99815" lon="4.71038">
        <ele>199</ele>
        <time>2018-02-09T09:57:15Z</time>
      </trkpt>
      <trkpt lat="45.99815" lon="4.71032">
        <ele>199</ele>
        <time>2018-02-09T09:57:16Z</time>
      </trkpt>
      <trkpt lat="45.99817" lon="4.71024">
        <ele>199</ele>
        <time>2018-02-09T09:57:17Z</time>
      </trkpt>
      <trkpt lat="45.99818" lon="4.71017">
        <ele>200</ele>
        <time>2018-02-09T09:57:18Z</time>
      </trkpt>
      <trkpt lat="45.99819" lon="4.71011">
        <ele>200</ele>
        <time>2018-02-09T09:57:19Z</time>
      </trkpt>
      <trkpt lat="45.9982" lon="4.71003">
        <ele>200</ele>
        <time>2018-02-09T09:57:20Z</time>
      </trkpt>
      <trkpt lat="45.99822" lon="4.70996">
        <ele>200</ele>
        <time>2018-02-09T09:57:21Z</time>
      </trkpt>
      <trkpt lat="45.99824" lon="4.70987">
        <ele>200</ele>
        <time>2018-02-09T09:57:22Z</time>
      </trkpt>
      <trkpt lat="45.99825" lon="4.70979">
        <ele>200</ele>
        <time>2018-02-09T09:57:23Z</time>
      </trkpt>
      <trkpt lat="45.99825" lon="4.70973">
        <ele>200</ele>
        <time>2018-02-09T09:57:24Z</time>
      </trkpt>
      <trkpt lat="45.99826" lon="4.70967">
        <ele>200</ele>
        <time>2018-02-09T09:57:25Z</time>
      </trkpt>
      <trkpt lat="45.99826" lon="4.7096">
        <ele>200</ele>
        <time>2018-02-09T09:57:26Z</time>
      </trkpt>
      <trkpt lat="45.99827" lon="4.70953">
        <ele>199</ele>
        <time>2018-02-09T09:57:27Z</time>
      </trkpt>
      <trkpt lat="45.99829" lon="4.70947">
        <ele>199</ele>
        <time>2018-02-09T09:57:28Z</time>
      </trkpt>
      <trkpt lat="45.99829" lon="4.70935">
        <ele>199</ele>
        <time>2018-02-09T09:57:30Z</time>
      </trkpt>
      <trkpt lat="45.99831" lon="4.70927">
        <ele>199</ele>
        <time>2018-02-09T09:57:31Z</time>
      </trkpt>
      <trkpt lat="45.99834" lon="4.70916">
        <ele>199</ele>
        <time>2018-02-09T09:57:32Z</time>
      </trkpt>
      <trkpt lat="45.99835" lon="4.70911">
        <ele>199</ele>
        <time>2018-02-09T09:57:33Z</time>
      </trkpt>
      <trkpt lat="45.99836" lon="4.70899">
        <ele>199</ele>
        <time>2018-02-09T09:57:35Z</time>
      </trkpt>
      <trkpt lat="45.99837" lon="4.70891">
        <ele>199</ele>
        <time>2018-02-09T09:57:36Z</time>
      </trkpt>
      <trkpt lat="45.99838" lon="4.70885">
        <ele>199</ele>
        <time>2018-02-09T09:57:37Z</time>
      </trkpt>
      <trkpt lat="45.99839" lon="4.70878">
        <ele>200</ele>
        <time>2018-02-09T09:57:38Z</time>
      </trkpt>
      <trkpt lat="45.99841" lon="4.70869">
        <ele>200</ele>
        <time>2018-02-09T09:57:39Z</time>
      </trkpt>
      <trkpt lat="45.99842" lon="4.70864">
        <ele>200</ele>
        <time>2018-02-09T09:57:40Z</time>
      </trkpt>
      <trkpt lat="45.99843" lon="4.70857">
        <ele>200</ele>
        <time>2018-02-09T09:57:41Z</time>
      </trkpt>
      <trkpt lat="45.99844" lon="4.7085">
        <ele>201</ele>
        <time>2018-02-09T09:57:42Z</time>
      </trkpt>
      <trkpt lat="45.99845" lon="4.70843">
        <ele>201</ele>
        <time>2018-02-09T09:57:43Z</time>
      </trkpt>
      <trkpt lat="45.99847" lon="4.70835">
        <ele>201</ele>
        <time>2018-02-09T09:57:44Z</time>
      </trkpt>
      <trkpt lat="45.99848" lon="4.70829">
        <ele>201</ele>
        <time>2018-02-09T09:57:45Z</time>
      </trkpt>
      <trkpt lat="45.99849" lon="4.70822">
        <ele>201</ele>
        <time>2018-02-09T09:57:46Z</time>
      </trkpt>
      <trkpt lat="45.9985" lon="4.70814">
        <ele>201</ele>
        <time>2018-02-09T09:57:47Z</time>
      </trkpt>
      <trkpt lat="45.99852" lon="4.70805">
        <ele>201</ele>
        <time>2018-02-09T09:57:48Z</time>
      </trkpt>
      <trkpt lat="45.99853" lon="4.70798">
        <ele>201</ele>
        <time>2018-02-09T09:57:49Z</time>
      </trkpt>
      <trkpt lat="45.99854" lon="4.70788">
        <ele>201</ele>
        <time>2018-02-09T09:57:50Z</time>
      </trkpt>
      <trkpt lat="45.99857" lon="4.70778">
        <ele>200</ele>
        <time>2018-02-09T09:57:51Z</time>
      </trkpt>
      <trkpt lat="45.99858" lon="4.7077">
        <ele>200</ele>
        <time>2018-02-09T09:57:52Z</time>
      </trkpt>
      <trkpt lat="45.9986" lon="4.70762">
        <ele>200</ele>
        <time>2018-02-09T09:57:53Z</time>
      </trkpt>
      <trkpt lat="45.99862" lon="4.70753">
        <ele>200</ele>
        <time>2018-02-09T09:57:54Z</time>
      </trkpt>
      <trkpt lat="45.99864" lon="4.70745">
        <ele>200</ele>
        <time>2018-02-09T09:57:55Z</time>
      </trkpt>
      <trkpt lat="45.99867" lon="4.70738">
        <ele>200</ele>
        <time>2018-02-09T09:57:56Z</time>
      </trkpt>
      <trkpt lat="45.99868" lon="4.7073">
        <ele>200</ele>
        <time>2018-02-09T09:57:57Z</time>
      </trkpt>
      <trkpt lat="45.9987" lon="4.70722">
        <ele>200</ele>
        <time>2018-02-09T09:57:58Z</time>
      </trkpt>
      <trkpt lat="45.99872" lon="4.70711">
        <ele>200</ele>
        <time>2018-02-09T09:58:00Z</time>
      </trkpt>
      <trkpt lat="45.99874" lon="4.70705">
        <ele>200</ele>
        <time>2018-02-09T09:58:01Z</time>
      </trkpt>
      <trkpt lat="45.99876" lon="4.70697">
        <ele>200</ele>
        <time>2018-02-09T09:58:02Z</time>
      </trkpt>
      <trkpt lat="45.99877" lon="4.70692">
        <ele>200</ele>
        <time>2018-02-09T09:58:03Z</time>
      </trkpt>
      <trkpt lat="45.99879" lon="4.7068">
        <ele>200</ele>
        <time>2018-02-09T09:58:05Z</time>
      </trkpt>
      <trkpt lat="45.9988" lon="4.70676">
        <ele>200</ele>
        <time>2018-02-09T09:58:06Z</time>
      </trkpt>
      <trkpt lat="45.99884" lon="4.70666">
        <ele>200</ele>
        <time>2018-02-09T09:58:09Z</time>
      </trkpt>
      <trkpt lat="45.99886" lon="4.70662">
        <ele>200</ele>
        <time>2018-02-09T09:58:10Z</time>
      </trkpt>
      <trkpt lat="45.99892" lon="4.70654">
        <ele>200</ele>
        <time>2018-02-09T09:58:12Z</time>
      </trkpt>
      <trkpt lat="45.99896" lon="4.70652">
        <ele>200</ele>
        <time>2018-02-09T09:58:13Z</time>
      </trkpt>
      <trkpt lat="45.99901" lon="4.70648">
        <ele>200</ele>
        <time>2018-02-09T09:58:14Z</time>
      </trkpt>
      <trkpt lat="45.99907" lon="4.70645">
        <ele>200</ele>
        <time>2018-02-09T09:58:15Z</time>
      </trkpt>
      <trkpt lat="45.99912" lon="4.70645">
        <ele>200</ele>
        <time>2018-02-09T09:58:16Z</time>
      </trkpt>
      <trkpt lat="45.99916" lon="4.70644">
        <ele>200</ele>
        <time>2018-02-09T09:58:17Z</time>
      </trkpt>
      <trkpt lat="45.99922" lon="4.70642">
        <ele>199</ele>
        <time>2018-02-09T09:58:18Z</time>
      </trkpt>
      <trkpt lat="45.99926" lon="4.7064">
        <ele>199</ele>
        <time>2018-02-09T09:58:19Z</time>
      </trkpt>
      <trkpt lat="45.99932" lon="4.70638">
        <ele>199</ele>
        <time>2018-02-09T09:58:20Z</time>
      </trkpt>
      <trkpt lat="45.99937" lon="4.70636">
        <ele>199</ele>
        <time>2018-02-09T09:58:21Z</time>
      </trkpt>
      <trkpt lat="45.99943" lon="4.70634">
        <ele>199</ele>
        <time>2018-02-09T09:58:22Z</time>
      </trkpt>
      <trkpt lat="45.99948" lon="4.70634">
        <ele>199</ele>
        <time>2018-02-09T09:58:23Z</time>
      </trkpt>
      <trkpt lat="45.99953" lon="4.70632">
        <ele>199</ele>
        <time>2018-02-09T09:58:24Z</time>
      </trkpt>
      <trkpt lat="45.99958" lon="4.70631">
        <ele>199</ele>
        <time>2018-02-09T09:58:25Z</time>
      </trkpt>
      <trkpt lat="45.99963" lon="4.70628">
        <ele>199</ele>
        <time>2018-02-09T09:58:26Z</time>
      </trkpt>
      <trkpt lat="45.99968" lon="4.70628">
        <ele>199</ele>
        <time>2018-02-09T09:58:27Z</time>
      </trkpt>
      <trkpt lat="45.99972" lon="4.70627">
        <ele>199</ele>
        <time>2018-02-09T09:58:28Z</time>
      </trkpt>
      <trkpt lat="45.99977" lon="4.70626">
        <ele>199</ele>
        <time>2018-02-09T09:58:29Z</time>
      </trkpt>
      <trkpt lat="45.99982" lon="4.70625">
        <ele>199</ele>
        <time>2018-02-09T09:58:30Z</time>
      </trkpt>
      <trkpt lat="45.99987" lon="4.70624">
        <ele>199</ele>
        <time>2018-02-09T09:58:31Z</time>
      </trkpt>
      <trkpt lat="45.99995" lon="4.70623">
        <ele>199</ele>
        <time>2018-02-09T09:58:33Z</time>
      </trkpt>
      <trkpt lat="46" lon="4.70623">
        <ele>199</ele>
        <time>2018-02-09T09:58:34Z</time>
      </trkpt>
      <trkpt lat="46.00006" lon="4.70621">
        <ele>199</ele>
        <time>2018-02-09T09:58:35Z</time>
      </trkpt>
      <trkpt lat="46.00011" lon="4.70619">
        <ele>199</ele>
        <time>2018-02-09T09:58:36Z</time>
      </trkpt>
      <trkpt lat="46.00016" lon="4.70618">
        <ele>199</ele>
        <time>2018-02-09T09:58:37Z</time>
      </trkpt>
      <trkpt lat="46.00021" lon="4.70616">
        <ele>199</ele>
        <time>2018-02-09T09:58:38Z</time>
      </trkpt>
      <trkpt lat="46.00025" lon="4.70614">
        <ele>199</ele>
        <time>2018-02-09T09:58:39Z</time>
      </trkpt>
      <trkpt lat="46.0003" lon="4.70613">
        <ele>199</ele>
        <time>2018-02-09T09:58:40Z</time>
      </trkpt>
      <trkpt lat="46.00039" lon="4.70611">
        <ele>199</ele>
        <time>2018-02-09T09:58:42Z</time>
      </trkpt>
      <trkpt lat="46.00044" lon="4.70609">
        <ele>198</ele>
        <time>2018-02-09T09:58:43Z</time>
      </trkpt>
      <trkpt lat="46.0005" lon="4.70608">
        <ele>198</ele>
        <time>2018-02-09T09:58:44Z</time>
      </trkpt>
      <trkpt lat="46.00055" lon="4.70607">
        <ele>198</ele>
        <time>2018-02-09T09:58:45Z</time>
      </trkpt>
      <trkpt lat="46.0006" lon="4.70605">
        <ele>198</ele>
        <time>2018-02-09T09:58:46Z</time>
      </trkpt>
      <trkpt lat="46.00065" lon="4.70604">
        <ele>198</ele>
        <time>2018-02-09T09:58:47Z</time>
      </trkpt>
      <trkpt lat="46.0007" lon="4.70601">
        <ele>198</ele>
        <time>2018-02-09T09:58:48Z</time>
      </trkpt>
      <trkpt lat="46.00076" lon="4.70599">
        <ele>198</ele>
        <time>2018-02-09T09:58:49Z</time>
      </trkpt>
      <trkpt lat="46.00081" lon="4.70598">
        <ele>198</ele>
        <time>2018-02-09T09:58:50Z</time>
      </trkpt>
      <trkpt lat="46.00087" lon="4.70596">
        <ele>198</ele>
        <time>2018-02-09T09:58:51Z</time>
      </trkpt>
      <trkpt lat="46.00093" lon="4.70594">
        <ele>198</ele>
        <time>2018-02-09T09:58:52Z</time>
      </trkpt>
      <trkpt lat="46.00098" lon="4.7059">
        <ele>198</ele>
        <time>2018-02-09T09:58:53Z</time>
      </trkpt>
      <trkpt lat="46.00104" lon="4.70588">
        <ele>198</ele>
        <time>2018-02-09T09:58:54Z</time>
      </trkpt>
      <trkpt lat="46.00108" lon="4.70584">
        <ele>198</ele>
        <time>2018-02-09T09:58:55Z</time>
      </trkpt>
      <trkpt lat="46.00113" lon="4.70583">
        <ele>198</ele>
        <time>2018-02-09T09:58:56Z</time>
      </trkpt>
      <trkpt lat="46.00119" lon="4.7058">
        <ele>198</ele>
        <time>2018-02-09T09:58:57Z</time>
      </trkpt>
      <trkpt lat="46.00123" lon="4.70577">
        <ele>198</ele>
        <time>2018-02-09T09:58:58Z</time>
      </trkpt>
      <trkpt lat="46.00128" lon="4.70572">
        <ele>198</ele>
        <time>2018-02-09T09:58:59Z</time>
      </trkpt>
      <trkpt lat="46.00132" lon="4.70569">
        <ele>198</ele>
        <time>2018-02-09T09:59:00Z</time>
      </trkpt>
      <trkpt lat="46.00136" lon="4.70565">
        <ele>198</ele>
        <time>2018-02-09T09:59:01Z</time>
      </trkpt>
      <trkpt lat="46.00144" lon="4.70559">
        <ele>198</ele>
        <time>2018-02-09T09:59:03Z</time>
      </trkpt>
      <trkpt lat="46.00147" lon="4.70558">
        <ele>198</ele>
        <time>2018-02-09T09:59:04Z</time>
      </trkpt>
      <trkpt lat="46.00156" lon="4.70558">
        <ele>198</ele>
        <time>2018-02-09T09:59:06Z</time>
      </trkpt>
      <trkpt lat="46.0016" lon="4.70556">
        <ele>198</ele>
        <time>2018-02-09T09:59:07Z</time>
      </trkpt>
      <trkpt lat="46.00164" lon="4.70554">
        <ele>198</ele>
        <time>2018-02-09T09:59:08Z</time>
      </trkpt>
      <trkpt lat="46.00168" lon="4.70551">
        <ele>198</ele>
        <time>2018-02-09T09:59:09Z</time>
      </trkpt>
      <trkpt lat="46.00173" lon="4.70547">
        <ele>198</ele>
        <time>2018-02-09T09:59:10Z</time>
      </trkpt>
      <trkpt lat="46.00177" lon="4.70543">
        <ele>198</ele>
        <time>2018-02-09T09:59:11Z</time>
      </trkpt>
      <trkpt lat="46.00181" lon="4.7054">
        <ele>198</ele>
        <time>2018-02-09T09:59:12Z</time>
      </trkpt>
      <trkpt lat="46.00187" lon="4.7054">
        <ele>198</ele>
        <time>2018-02-09T09:59:13Z</time>
      </trkpt>
      <trkpt lat="46.00192" lon="4.70538">
        <ele>198</ele>
        <time>2018-02-09T09:59:14Z</time>
      </trkpt>
      <trkpt lat="46.00198" lon="4.70537">
        <ele>198</ele>
        <time>2018-02-09T09:59:15Z</time>
      </trkpt>
      <trkpt lat="46.00203" lon="4.70537">
        <ele>198</ele>
        <time>2018-02-09T09:59:16Z</time>
      </trkpt>
      <trkpt lat="46.00209" lon="4.70536">
        <ele>198</ele>
        <time>2018-02-09T09:59:17Z</time>
      </trkpt>
      <trkpt lat="46.00213" lon="4.70535">
        <ele>198</ele>
        <time>2018-02-09T09:59:18Z</time>
      </trkpt>
      <trkpt lat="46.00218" lon="4.70533">
        <ele>198</ele>
        <time>2018-02-09T09:59:19Z</time>
      </trkpt>
      <trkpt lat="46.00223" lon="4.70531">
        <ele>198</ele>
        <time>2018-02-09T09:59:20Z</time>
      </trkpt>
      <trkpt lat="46.00228" lon="4.70529">
        <ele>198</ele>
        <time>2018-02-09T09:59:21Z</time>
      </trkpt>
      <trkpt lat="46.00232" lon="4.70528">
        <ele>198</ele>
        <time>2018-02-09T09:59:22Z</time>
      </trkpt>
      <trkpt lat="46.00238" lon="4.70527">
        <ele>198</ele>
        <time>2018-02-09T09:59:23Z</time>
      </trkpt>
      <trkpt lat="46.00243" lon="4.70524">
        <ele>198</ele>
        <time>2018-02-09T09:59:24Z</time>
      </trkpt>
      <trkpt lat="46.00248" lon="4.70523">
        <ele>198</ele>
        <time>2018-02-09T09:59:25Z</time>
      </trkpt>
      <trkpt lat="46.00252" lon="4.70522">
        <ele>197</ele>
        <time>2018-02-09T09:59:26Z</time>
      </trkpt>
      <trkpt lat="46.00257" lon="4.7052">
        <ele>197</ele>
        <time>2018-02-09T09:59:27Z</time>
      </trkpt>
      <trkpt lat="46.00262" lon="4.70519">
        <ele>197</ele>
        <time>2018-02-09T09:59:28Z</time>
      </trkpt>
      <trkpt lat="46.00267" lon="4.70518">
        <ele>197</ele>
        <time>2018-02-09T09:59:29Z</time>
      </trkpt>
      <trkpt lat="46.00272" lon="4.70516">
        <ele>197</ele>
        <time>2018-02-09T09:59:30Z</time>
      </trkpt>
      <trkpt lat="46.00277" lon="4.70515">
        <ele>197</ele>
        <time>2018-02-09T09:59:31Z</time>
      </trkpt>
      <trkpt lat="46.00285" lon="4.70514">
        <ele>197</ele>
        <time>2018-02-09T09:59:33Z</time>
      </trkpt>
      <trkpt lat="46.0029" lon="4.70513">
        <ele>197</ele>
        <time>2018-02-09T09:59:34Z</time>
      </trkpt>
      <trkpt lat="46.00294" lon="4.70512">
        <ele>197</ele>
        <time>2018-02-09T09:59:35Z</time>
      </trkpt>
      <trkpt lat="46.00299" lon="4.70511">
        <ele>197</ele>
        <time>2018-02-09T09:59:36Z</time>
      </trkpt>
      <trkpt lat="46.00304" lon="4.70511">
        <ele>197</ele>
        <time>2018-02-09T09:59:37Z</time>
      </trkpt>
      <trkpt lat="46.00309" lon="4.7051">
        <ele>197</ele>
        <time>2018-02-09T09:59:38Z</time>
      </trkpt>
      <trkpt lat="46.00314" lon="4.70509">
        <ele>197</ele>
        <time>2018-02-09T09:59:39Z</time>
      </trkpt>
      <trkpt lat="46.00318" lon="4.70509">
        <ele>198</ele>
        <time>2018-02-09T09:59:40Z</time>
      </trkpt>
      <trkpt lat="46.00324" lon="4.70508">
        <ele>198</ele>
        <time>2018-02-09T09:59:41Z</time>
      </trkpt>
      <trkpt lat="46.00328" lon="4.70508">
        <ele>198</ele>
        <time>2018-02-09T09:59:42Z</time>
      </trkpt>
      <trkpt lat="46.00333" lon="4.70507">
        <ele>198</ele>
        <time>2018-02-09T09:59:43Z</time>
      </trkpt>
      <trkpt lat="46.00338" lon="4.70506">
        <ele>198</ele>
        <time>2018-02-09T09:59:44Z</time>
      </trkpt>
      <trkpt lat="46.00343" lon="4.70504">
        <ele>198</ele>
        <time>2018-02-09T09:59:45Z</time>
      </trkpt>
      <trkpt lat="46.00347" lon="4.70504">
        <ele>198</ele>
        <time>2018-02-09T09:59:46Z</time>
      </trkpt>
      <trkpt lat="46.00352" lon="4.70502">
        <ele>198</ele>
        <time>2018-02-09T09:59:47Z</time>
      </trkpt>
      <trkpt lat="46.00357" lon="4.70501">
        <ele>198</ele>
        <time>2018-02-09T09:59:48Z</time>
      </trkpt>
      <trkpt lat="46.00361" lon="4.70501">
        <ele>198</ele>
        <time>2018-02-09T09:59:49Z</time>
      </trkpt>
      <trkpt lat="46.00366" lon="4.705">
        <ele>200</ele>
        <time>2018-02-09T09:59:50Z</time>
      </trkpt>
      <trkpt lat="46.0037" lon="4.70499">
        <ele>200</ele>
        <time>2018-02-09T09:59:51Z</time>
      </trkpt>
      <trkpt lat="46.00375" lon="4.70499">
        <ele>200</ele>
        <time>2018-02-09T09:59:52Z</time>
      </trkpt>
      <trkpt lat="46.0038" lon="4.70497">
        <ele>200</ele>
        <time>2018-02-09T09:59:53Z</time>
      </trkpt>
      <trkpt lat="46.00384" lon="4.70496">
        <ele>200</ele>
        <time>2018-02-09T09:59:54Z</time>
      </trkpt>
      <trkpt lat="46.00389" lon="4.70496">
        <ele>200</ele>
        <time>2018-02-09T09:59:55Z</time>
      </trkpt>
      <trkpt lat="46.00394" lon="4.70496">
        <ele>200</ele>
        <time>2018-02-09T09:59:56Z</time>
      </trkpt>
      <trkpt lat="46.00402" lon="4.70496">
        <ele>200</ele>
        <time>2018-02-09T09:59:58Z</time>
      </trkpt>
      <trkpt lat="46.00407" lon="4.70496">
        <ele>200</ele>
        <time>2018-02-09T09:59:59Z</time>
      </trkpt>
      <trkpt lat="46.00412" lon="4.70496">
        <ele>200</ele>
        <time>2018-02-09T10:00:00Z</time>
      </trkpt>
      <trkpt lat="46.00416" lon="4.70496">
        <ele>200</ele>
        <time>2018-02-09T10:00:01Z</time>
      </trkpt>
      <trkpt lat="46.00425" lon="4.70497">
        <ele>201</ele>
        <time>2018-02-09T10:00:03Z</time>
      </trkpt>
      <trkpt lat="46.00429" lon="4.70497">
        <ele>201</ele>
        <time>2018-02-09T10:00:04Z</time>
      </trkpt>
      <trkpt lat="46.00434" lon="4.70498">
        <ele>202</ele>
        <time>2018-02-09T10:00:05Z</time>
      </trkpt>
      <trkpt lat="46.00438" lon="4.705">
        <ele>200</ele>
        <time>2018-02-09T10:00:06Z</time>
      </trkpt>
      <trkpt lat="46.00446" lon="4.70502">
        <ele>201</ele>
        <time>2018-02-09T10:00:08Z</time>
      </trkpt>
      <trkpt lat="46.0045" lon="4.70503">
        <ele>201</ele>
        <time>2018-02-09T10:00:09Z</time>
      </trkpt>
      <trkpt lat="46.00457" lon="4.70507">
        <ele>201</ele>
        <time>2018-02-09T10:00:11Z</time>
      </trkpt>
      <trkpt lat="46.00461" lon="4.7051">
        <ele>201</ele>
        <time>2018-02-09T10:00:12Z</time>
      </trkpt>
      <trkpt lat="46.00467" lon="4.70517">
        <ele>201</ele>
        <time>2018-02-09T10:00:14Z</time>
      </trkpt>
      <trkpt lat="46.00469" lon="4.70522">
        <ele>201</ele>
        <time>2018-02-09T10:00:15Z</time>
      </trkpt>
      <trkpt lat="46.0047" lon="4.70529">
        <ele>201</ele>
        <time>2018-02-09T10:00:16Z</time>
      </trkpt>
      <trkpt lat="46.00472" lon="4.70536">
        <ele>201</ele>
        <time>2018-02-09T10:00:17Z</time>
      </trkpt>
      <trkpt lat="46.00478" lon="4.70546">
        <ele>201</ele>
        <time>2018-02-09T10:00:19Z</time>
      </trkpt>
      <trkpt lat="46.00482" lon="4.70548">
        <ele>201</ele>
        <time>2018-02-09T10:00:20Z</time>
      </trkpt>
      <trkpt lat="46.00486" lon="4.70549">
        <ele>201</ele>
        <time>2018-02-09T10:00:21Z</time>
      </trkpt>
      <trkpt lat="46.00491" lon="4.7055">
        <ele>201</ele>
        <time>2018-02-09T10:00:22Z</time>
      </trkpt>
      <trkpt lat="46.00499" lon="4.70544">
        <ele>201</ele>
        <time>2018-02-09T10:00:24Z</time>
      </trkpt>
      <trkpt lat="46.00502" lon="4.7054">
        <ele>203</ele>
        <time>2018-02-09T10:00:25Z</time>
      </trkpt>
      <trkpt lat="46.00506" lon="4.7053">
        <ele>203</ele>
        <time>2018-02-09T10:00:27Z</time>
      </trkpt>
      <trkpt lat="46.00508" lon="4.70527">
        <ele>203</ele>
        <time>2018-02-09T10:00:28Z</time>
      </trkpt>
      <trkpt lat="46.00514" lon="4.70521">
        <ele>203</ele>
        <time>2018-02-09T10:00:30Z</time>
      </trkpt>
      <trkpt lat="46.00518" lon="4.70518">
        <ele>204</ele>
        <time>2018-02-09T10:00:31Z</time>
      </trkpt>
      <trkpt lat="46.00525" lon="4.70519">
        <ele>204</ele>
        <time>2018-02-09T10:00:33Z</time>
      </trkpt>
      <trkpt lat="46.0053" lon="4.70519">
        <ele>204</ele>
        <time>2018-02-09T10:00:34Z</time>
      </trkpt>
      <trkpt lat="46.00539" lon="4.70519">
        <ele>204</ele>
        <time>2018-02-09T10:00:36Z</time>
      </trkpt>
      <trkpt lat="46.00544" lon="4.70519">
        <ele>204</ele>
        <time>2018-02-09T10:00:37Z</time>
      </trkpt>
      <trkpt lat="46.00549" lon="4.70519">
        <ele>204</ele>
        <time>2018-02-09T10:00:38Z</time>
      </trkpt>
      <trkpt lat="46.00553" lon="4.70517">
        <ele>204</ele>
        <time>2018-02-09T10:00:39Z</time>
      </trkpt>
      <trkpt lat="46.00562" lon="4.70518">
        <ele>204</ele>
        <time>2018-02-09T10:00:41Z</time>
      </trkpt>
      <trkpt lat="46.00566" lon="4.70518">
        <ele>205</ele>
        <time>2018-02-09T10:00:42Z</time>
      </trkpt>
      <trkpt lat="46.0057" lon="4.70517">
        <ele>205</ele>
        <time>2018-02-09T10:00:43Z</time>
      </trkpt>
      <trkpt lat="46.00575" lon="4.70515">
        <ele>205</ele>
        <time>2018-02-09T10:00:44Z</time>
      </trkpt>
      <trkpt lat="46.00579" lon="4.70513">
        <ele>205</ele>
        <time>2018-02-09T10:00:45Z</time>
      </trkpt>
      <trkpt lat="46.00584" lon="4.70513">
        <ele>207</ele>
        <time>2018-02-09T10:00:46Z</time>
      </trkpt>
      <trkpt lat="46.00589" lon="4.70512">
        <ele>207</ele>
        <time>2018-02-09T10:00:47Z</time>
      </trkpt>
      <trkpt lat="46.00594" lon="4.70511">
        <ele>207</ele>
        <time>2018-02-09T10:00:48Z</time>
      </trkpt>
      <trkpt lat="46.00599" lon="4.7051">
        <ele>207</ele>
        <time>2018-02-09T10:00:49Z</time>
      </trkpt>
      <trkpt lat="46.00604" lon="4.70509">
        <ele>207</ele>
        <time>2018-02-09T10:00:50Z</time>
      </trkpt>
      <trkpt lat="46.00609" lon="4.70508">
        <ele>207</ele>
        <time>2018-02-09T10:00:51Z</time>
      </trkpt>
      <trkpt lat="46.00613" lon="4.70506">
        <ele>207</ele>
        <time>2018-02-09T10:00:52Z</time>
      </trkpt>
      <trkpt lat="46.00618" lon="4.70505">
        <ele>207</ele>
        <time>2018-02-09T10:00:53Z</time>
      </trkpt>
      <trkpt lat="46.00622" lon="4.70504">
        <ele>207</ele>
        <time>2018-02-09T10:00:54Z</time>
      </trkpt>
      <trkpt lat="46.00626" lon="4.70503">
        <ele>207</ele>
        <time>2018-02-09T10:00:55Z</time>
      </trkpt>
      <trkpt lat="46.00632" lon="4.70502">
        <ele>208</ele>
        <time>2018-02-09T10:00:56Z</time>
      </trkpt>
      <trkpt lat="46.00637" lon="4.70502">
        <ele>208</ele>
        <time>2018-02-09T10:00:57Z</time>
      </trkpt>
      <trkpt lat="46.00641" lon="4.70501">
        <ele>208</ele>
        <time>2018-02-09T10:00:58Z</time>
      </trkpt>
      <trkpt lat="46.0065" lon="4.70501">
        <ele>209</ele>
        <time>2018-02-09T10:01:00Z</time>
      </trkpt>
      <trkpt lat="46.00654" lon="4.705">
        <ele>212</ele>
        <time>2018-02-09T10:01:01Z</time>
      </trkpt>
      <trkpt lat="46.00662" lon="4.70499">
        <ele>212</ele>
        <time>2018-02-09T10:01:03Z</time>
      </trkpt>
      <trkpt lat="46.00666" lon="4.70498">
        <ele>212</ele>
        <time>2018-02-09T10:01:04Z</time>
      </trkpt>
      <trkpt lat="46.00671" lon="4.70498">
        <ele>212</ele>
        <time>2018-02-09T10:01:05Z</time>
      </trkpt>
      <trkpt lat="46.00676" lon="4.70498">
        <ele>212</ele>
        <time>2018-02-09T10:01:06Z</time>
      </trkpt>
      <trkpt lat="46.0068" lon="4.70497">
        <ele>211</ele>
        <time>2018-02-09T10:01:07Z</time>
      </trkpt>
      <trkpt lat="46.00685" lon="4.70497">
        <ele>211</ele>
        <time>2018-02-09T10:01:08Z</time>
      </trkpt>
      <trkpt lat="46.0069" lon="4.70498">
        <ele>211</ele>
        <time>2018-02-09T10:01:09Z</time>
      </trkpt>
      <trkpt lat="46.00695" lon="4.70499">
        <ele>211</ele>
        <time>2018-02-09T10:01:10Z</time>
      </trkpt>
      <trkpt lat="46.007" lon="4.705">
        <ele>211</ele>
        <time>2018-02-09T10:01:11Z</time>
      </trkpt>
      <trkpt lat="46.00705" lon="4.70501">
        <ele>208</ele>
        <time>2018-02-09T10:01:12Z</time>
      </trkpt>
      <trkpt lat="46.00711" lon="4.70501">
        <ele>207</ele>
        <time>2018-02-09T10:01:13Z</time>
      </trkpt>
      <trkpt lat="46.00716" lon="4.70501">
        <ele>207</ele>
        <time>2018-02-09T10:01:14Z</time>
      </trkpt>
      <trkpt lat="46.0072" lon="4.70501">
        <ele>207</ele>
        <time>2018-02-09T10:01:15Z</time>
      </trkpt>
      <trkpt lat="46.00725" lon="4.70502">
        <ele>207</ele>
        <time>2018-02-09T10:01:16Z</time>
      </trkpt>
      <trkpt lat="46.0073" lon="4.70503">
        <ele>207</ele>
        <time>2018-02-09T10:01:17Z</time>
      </trkpt>
      <trkpt lat="46.00736" lon="4.70505">
        <ele>207</ele>
        <time>2018-02-09T10:01:18Z</time>
      </trkpt>
      <trkpt lat="46.00741" lon="4.70508">
        <ele>207</ele>
        <time>2018-02-09T10:01:19Z</time>
      </trkpt>
      <trkpt lat="46.00747" lon="4.70511">
        <ele>207</ele>
        <time>2018-02-09T10:01:20Z</time>
      </trkpt>
      <trkpt lat="46.00753" lon="4.70513">
        <ele>206</ele>
        <time>2018-02-09T10:01:21Z</time>
      </trkpt>
      <trkpt lat="46.00759" lon="4.70515">
        <ele>206</ele>
        <time>2018-02-09T10:01:22Z</time>
      </trkpt>
      <trkpt lat="46.00765" lon="4.70516">
        <ele>205</ele>
        <time>2018-02-09T10:01:23Z</time>
      </trkpt>
      <trkpt lat="46.0077" lon="4.70518">
        <ele>205</ele>
        <time>2018-02-09T10:01:24Z</time>
      </trkpt>
      <trkpt lat="46.00776" lon="4.7052">
        <ele>205</ele>
        <time>2018-02-09T10:01:25Z</time>
      </trkpt>
      <trkpt lat="46.00782" lon="4.70522">
        <ele>204</ele>
        <time>2018-02-09T10:01:26Z</time>
      </trkpt>
      <trkpt lat="46.00788" lon="4.70525">
        <ele>204</ele>
        <time>2018-02-09T10:01:27Z</time>
      </trkpt>
      <trkpt lat="46.00794" lon="4.70527">
        <ele>204</ele>
        <time>2018-02-09T10:01:28Z</time>
      </trkpt>
      <trkpt lat="46.00801" lon="4.70531">
        <ele>204</ele>
        <time>2018-02-09T10:01:29Z</time>
      </trkpt>
      <trkpt lat="46.00807" lon="4.70533">
        <ele>204</ele>
        <time>2018-02-09T10:01:30Z</time>
      </trkpt>
      <trkpt lat="46.00813" lon="4.70537">
        <ele>203</ele>
        <time>2018-02-09T10:01:31Z</time>
      </trkpt>
      <trkpt lat="46.0082" lon="4.70541">
        <ele>203</ele>
        <time>2018-02-09T10:01:32Z</time>
      </trkpt>
      <trkpt lat="46.00826" lon="4.70543">
        <ele>203</ele>
        <time>2018-02-09T10:01:33Z</time>
      </trkpt>
      <trkpt lat="46.00832" lon="4.70546">
        <ele>203</ele>
        <time>2018-02-09T10:01:34Z</time>
      </trkpt>
      <trkpt lat="46.00838" lon="4.70549">
        <ele>201</ele>
        <time>2018-02-09T10:01:35Z</time>
      </trkpt>
      <trkpt lat="46.00844" lon="4.70552">
        <ele>201</ele>
        <time>2018-02-09T10:01:36Z</time>
      </trkpt>
      <trkpt lat="46.0085" lon="4.70556">
        <ele>201</ele>
        <time>2018-02-09T10:01:37Z</time>
      </trkpt>
      <trkpt lat="46.00857" lon="4.70559">
        <ele>201</ele>
        <time>2018-02-09T10:01:38Z</time>
      </trkpt>
      <trkpt lat="46.00864" lon="4.70563">
        <ele>201</ele>
        <time>2018-02-09T10:01:39Z</time>
      </trkpt>
      <trkpt lat="46.00871" lon="4.70566">
        <ele>201</ele>
        <time>2018-02-09T10:01:40Z</time>
      </trkpt>
      <trkpt lat="46.00878" lon="4.7057">
        <ele>200</ele>
        <time>2018-02-09T10:01:41Z</time>
      </trkpt>
      <trkpt lat="46.00885" lon="4.70573">
        <ele>200</ele>
        <time>2018-02-09T10:01:42Z</time>
      </trkpt>
      <trkpt lat="46.00892" lon="4.70577">
        <ele>200</ele>
        <time>2018-02-09T10:01:43Z</time>
      </trkpt>
      <trkpt lat="46.00899" lon="4.70579">
        <ele>199</ele>
        <time>2018-02-09T10:01:44Z</time>
      </trkpt>
      <trkpt lat="46.00906" lon="4.70583">
        <ele>199</ele>
        <time>2018-02-09T10:01:45Z</time>
      </trkpt>
      <trkpt lat="46.00912" lon="4.70585">
        <ele>198</ele>
        <time>2018-02-09T10:01:46Z</time>
      </trkpt>
      <trkpt lat="46.00919" lon="4.70588">
        <ele>198</ele>
        <time>2018-02-09T10:01:47Z</time>
      </trkpt>
      <trkpt lat="46.00926" lon="4.70591">
        <ele>198</ele>
        <time>2018-02-09T10:01:48Z</time>
      </trkpt>
      <trkpt lat="46.00933" lon="4.70593">
        <ele>198</ele>
        <time>2018-02-09T10:01:49Z</time>
      </trkpt>
      <trkpt lat="46.0094" lon="4.70597">
        <ele>198</ele>
        <time>2018-02-09T10:01:50Z</time>
      </trkpt>
      <trkpt lat="46.00946" lon="4.706">
        <ele>197</ele>
        <time>2018-02-09T10:01:51Z</time>
      </trkpt>
      <trkpt lat="46.00953" lon="4.70603">
        <ele>197</ele>
        <time>2018-02-09T10:01:52Z</time>
      </trkpt>
      <trkpt lat="46.0096" lon="4.70607">
        <ele>197</ele>
        <time>2018-02-09T10:01:53Z</time>
      </trkpt>
      <trkpt lat="46.00967" lon="4.7061">
        <ele>197</ele>
        <time>2018-02-09T10:01:54Z</time>
      </trkpt>
      <trkpt lat="46.00974" lon="4.70612">
        <ele>197</ele>
        <time>2018-02-09T10:01:55Z</time>
      </trkpt>
      <trkpt lat="46.00981" lon="4.70615">
        <ele>197</ele>
        <time>2018-02-09T10:01:56Z</time>
      </trkpt>
      <trkpt lat="46.00988" lon="4.70618">
        <ele>197</ele>
        <time>2018-02-09T10:01:57Z</time>
      </trkpt>
      <trkpt lat="46.00995" lon="4.70621">
        <ele>197</ele>
        <time>2018-02-09T10:01:58Z</time>
      </trkpt>
      <trkpt lat="46.01001" lon="4.70624">
        <ele>196</ele>
        <time>2018-02-09T10:01:59Z</time>
      </trkpt>
      <trkpt lat="46.01007" lon="4.70626">
        <ele>196</ele>
        <time>2018-02-09T10:02:00Z</time>
      </trkpt>
      <trkpt lat="46.01013" lon="4.70627">
        <ele>196</ele>
        <time>2018-02-09T10:02:01Z</time>
      </trkpt>
      <trkpt lat="46.0102" lon="4.7063">
        <ele>196</ele>
        <time>2018-02-09T10:02:02Z</time>
      </trkpt>
      <trkpt lat="46.01026" lon="4.70635">
        <ele>196</ele>
        <time>2018-02-09T10:02:03Z</time>
      </trkpt>
      <trkpt lat="46.01032" lon="4.70638">
        <ele>196</ele>
        <time>2018-02-09T10:02:04Z</time>
      </trkpt>
      <trkpt lat="46.01038" lon="4.70641">
        <ele>196</ele>
        <time>2018-02-09T10:02:05Z</time>
      </trkpt>
      <trkpt lat="46.01044" lon="4.70642">
        <ele>195</ele>
        <time>2018-02-09T10:02:06Z</time>
      </trkpt>
      <trkpt lat="46.0105" lon="4.70645">
        <ele>195</ele>
        <time>2018-02-09T10:02:07Z</time>
      </trkpt>
      <trkpt lat="46.01057" lon="4.70649">
        <ele>195</ele>
        <time>2018-02-09T10:02:08Z</time>
      </trkpt>
      <trkpt lat="46.01064" lon="4.70653">
        <ele>195</ele>
        <time>2018-02-09T10:02:09Z</time>
      </trkpt>
      <trkpt lat="46.0107" lon="4.70656">
        <ele>195</ele>
        <time>2018-02-09T10:02:10Z</time>
      </trkpt>
      <trkpt lat="46.01077" lon="4.70659">
        <ele>195</ele>
        <time>2018-02-09T10:02:11Z</time>
      </trkpt>
      <trkpt lat="46.01083" lon="4.70661">
        <ele>195</ele>
        <time>2018-02-09T10:02:12Z</time>
      </trkpt>
      <trkpt lat="46.01089" lon="4.70664">
        <ele>195</ele>
        <time>2018-02-09T10:02:13Z</time>
      </trkpt>
      <trkpt lat="46.01095" lon="4.70667">
        <ele>195</ele>
        <time>2018-02-09T10:02:14Z</time>
      </trkpt>
      <trkpt lat="46.01101" lon="4.70669">
        <ele>195</ele>
        <time>2018-02-09T10:02:15Z</time>
      </trkpt>
      <trkpt lat="46.01108" lon="4.70672">
        <ele>195</ele>
        <time>2018-02-09T10:02:16Z</time>
      </trkpt>
      <trkpt lat="46.01114" lon="4.70675">
        <ele>195</ele>
        <time>2018-02-09T10:02:17Z</time>
      </trkpt>
      <trkpt lat="46.01121" lon="4.70677">
        <ele>195</ele>
        <time>2018-02-09T10:02:18Z</time>
      </trkpt>
      <trkpt lat="46.01126" lon="4.70679">
        <ele>194</ele>
        <time>2018-02-09T10:02:19Z</time>
      </trkpt>
      <trkpt lat="46.01132" lon="4.70682">
        <ele>194</ele>
        <time>2018-02-09T10:02:20Z</time>
      </trkpt>
      <trkpt lat="46.01138" lon="4.70684">
        <ele>194</ele>
        <time>2018-02-09T10:02:21Z</time>
      </trkpt>
      <trkpt lat="46.01144" lon="4.70687">
        <ele>194</ele>
        <time>2018-02-09T10:02:22Z</time>
      </trkpt>
      <trkpt lat="46.0115" lon="4.7069">
        <ele>194</ele>
        <time>2018-02-09T10:02:23Z</time>
      </trkpt>
      <trkpt lat="46.01156" lon="4.70692">
        <ele>194</ele>
        <time>2018-02-09T10:02:24Z</time>
      </trkpt>
      <trkpt lat="46.01162" lon="4.70695">
        <ele>194</ele>
        <time>2018-02-09T10:02:25Z</time>
      </trkpt>
      <trkpt lat="46.01169" lon="4.70699">
        <ele>194</ele>
        <time>2018-02-09T10:02:26Z</time>
      </trkpt>
      <trkpt lat="46.01175" lon="4.70701">
        <ele>194</ele>
        <time>2018-02-09T10:02:27Z</time>
      </trkpt>
      <trkpt lat="46.01181" lon="4.70704">
        <ele>194</ele>
        <time>2018-02-09T10:02:28Z</time>
      </trkpt>
      <trkpt lat="46.01188" lon="4.70707">
        <ele>194</ele>
        <time>2018-02-09T10:02:29Z</time>
      </trkpt>
      <trkpt lat="46.01194" lon="4.70709">
        <ele>194</ele>
        <time>2018-02-09T10:02:30Z</time>
      </trkpt>
      <trkpt lat="46.01201" lon="4.70712">
        <ele>194</ele>
        <time>2018-02-09T10:02:31Z</time>
      </trkpt>
      <trkpt lat="46.01207" lon="4.70715">
        <ele>194</ele>
        <time>2018-02-09T10:02:32Z</time>
      </trkpt>
      <trkpt lat="46.01213" lon="4.70718">
        <ele>194</ele>
        <time>2018-02-09T10:02:33Z</time>
      </trkpt>
      <trkpt lat="46.01219" lon="4.70721">
        <ele>194</ele>
        <time>2018-02-09T10:02:34Z</time>
      </trkpt>
      <trkpt lat="46.01225" lon="4.70724">
        <ele>194</ele>
        <time>2018-02-09T10:02:35Z</time>
      </trkpt>
      <trkpt lat="46.01231" lon="4.70726">
        <ele>194</ele>
        <time>2018-02-09T10:02:36Z</time>
      </trkpt>
      <trkpt lat="46.01238" lon="4.70729">
        <ele>193</ele>
        <time>2018-02-09T10:02:37Z</time>
      </trkpt>
      <trkpt lat="46.01244" lon="4.70731">
        <ele>193</ele>
        <time>2018-02-09T10:02:38Z</time>
      </trkpt>
      <trkpt lat="46.0125" lon="4.70733">
        <ele>192</ele>
        <time>2018-02-09T10:02:39Z</time>
      </trkpt>
      <trkpt lat="46.01257" lon="4.70734">
        <ele>192</ele>
        <time>2018-02-09T10:02:40Z</time>
      </trkpt>
      <trkpt lat="46.01263" lon="4.70736">
        <ele>192</ele>
        <time>2018-02-09T10:02:41Z</time>
      </trkpt>
      <trkpt lat="46.0127" lon="4.70737">
        <ele>192</ele>
        <time>2018-02-09T10:02:42Z</time>
      </trkpt>
      <trkpt lat="46.01276" lon="4.70738">
        <ele>192</ele>
        <time>2018-02-09T10:02:43Z</time>
      </trkpt>
      <trkpt lat="46.01283" lon="4.7074">
        <ele>191</ele>
        <time>2018-02-09T10:02:44Z</time>
      </trkpt>
      <trkpt lat="46.0129" lon="4.70741">
        <ele>191</ele>
        <time>2018-02-09T10:02:45Z</time>
      </trkpt>
      <trkpt lat="46.01297" lon="4.70743">
        <ele>191</ele>
        <time>2018-02-09T10:02:46Z</time>
      </trkpt>
      <trkpt lat="46.01303" lon="4.70744">
        <ele>191</ele>
        <time>2018-02-09T10:02:47Z</time>
      </trkpt>
      <trkpt lat="46.0131" lon="4.70744">
        <ele>190</ele>
        <time>2018-02-09T10:02:48Z</time>
      </trkpt>
      <trkpt lat="46.01316" lon="4.70745">
        <ele>190</ele>
        <time>2018-02-09T10:02:49Z</time>
      </trkpt>
      <trkpt lat="46.01323" lon="4.70745">
        <ele>190</ele>
        <time>2018-02-09T10:02:50Z</time>
      </trkpt>
      <trkpt lat="46.01329" lon="4.70746">
        <ele>189</ele>
        <time>2018-02-09T10:02:51Z</time>
      </trkpt>
      <trkpt lat="46.01336" lon="4.70747">
        <ele>189</ele>
        <time>2018-02-09T10:02:52Z</time>
      </trkpt>
      <trkpt lat="46.01343" lon="4.70747">
        <ele>189</ele>
        <time>2018-02-09T10:02:53Z</time>
      </trkpt>
      <trkpt lat="46.01349" lon="4.70746">
        <ele>189</ele>
        <time>2018-02-09T10:02:54Z</time>
      </trkpt>
      <trkpt lat="46.01356" lon="4.70746">
        <ele>189</ele>
        <time>2018-02-09T10:02:55Z</time>
      </trkpt>
      <trkpt lat="46.01363" lon="4.70746">
        <ele>189</ele>
        <time>2018-02-09T10:02:56Z</time>
      </trkpt>
      <trkpt lat="46.0137" lon="4.70747">
        <ele>189</ele>
        <time>2018-02-09T10:02:57Z</time>
      </trkpt>
      <trkpt lat="46.01377" lon="4.70747">
        <ele>189</ele>
        <time>2018-02-09T10:02:58Z</time>
      </trkpt>
      <trkpt lat="46.01384" lon="4.70747">
        <ele>189</ele>
        <time>2018-02-09T10:02:59Z</time>
      </trkpt>
      <trkpt lat="46.01391" lon="4.70746">
        <ele>189</ele>
        <time>2018-02-09T10:03:00Z</time>
      </trkpt>
      <trkpt lat="46.01398" lon="4.70745">
        <ele>189</ele>
        <time>2018-02-09T10:03:01Z</time>
      </trkpt>
      <trkpt lat="46.01405" lon="4.70746">
        <ele>189</ele>
        <time>2018-02-09T10:03:02Z</time>
      </trkpt>
      <trkpt lat="46.01412" lon="4.70745">
        <ele>189</ele>
        <time>2018-02-09T10:03:03Z</time>
      </trkpt>
      <trkpt lat="46.01419" lon="4.70744">
        <ele>189</ele>
        <time>2018-02-09T10:03:04Z</time>
      </trkpt>
      <trkpt lat="46.01426" lon="4.70743">
        <ele>189</ele>
        <time>2018-02-09T10:03:05Z</time>
      </trkpt>
      <trkpt lat="46.01433" lon="4.70745">
        <ele>189</ele>
        <time>2018-02-09T10:03:06Z</time>
      </trkpt>
      <trkpt lat="46.01441" lon="4.70744">
        <ele>189</ele>
        <time>2018-02-09T10:03:07Z</time>
      </trkpt>
      <trkpt lat="46.01449" lon="4.70743">
        <ele>189</ele>
        <time>2018-02-09T10:03:08Z</time>
      </trkpt>
      <trkpt lat="46.01457" lon="4.7074">
        <ele>189</ele>
        <time>2018-02-09T10:03:09Z</time>
      </trkpt>
      <trkpt lat="46.01465" lon="4.70738">
        <ele>190</ele>
        <time>2018-02-09T10:03:10Z</time>
      </trkpt>
      <trkpt lat="46.01473" lon="4.70737">
        <ele>190</ele>
        <time>2018-02-09T10:03:11Z</time>
      </trkpt>
      <trkpt lat="46.01482" lon="4.70736">
        <ele>190</ele>
        <time>2018-02-09T10:03:12Z</time>
      </trkpt>
      <trkpt lat="46.0149" lon="4.70734">
        <ele>190</ele>
        <time>2018-02-09T10:03:13Z</time>
      </trkpt>
      <trkpt lat="46.01498" lon="4.70733">
        <ele>190</ele>
        <time>2018-02-09T10:03:14Z</time>
      </trkpt>
      <trkpt lat="46.01506" lon="4.70732">
        <ele>190</ele>
        <time>2018-02-09T10:03:15Z</time>
      </trkpt>
      <trkpt lat="46.01513" lon="4.70731">
        <ele>190</ele>
        <time>2018-02-09T10:03:16Z</time>
      </trkpt>
      <trkpt lat="46.01521" lon="4.70732">
        <ele>190</ele>
        <time>2018-02-09T10:03:17Z</time>
      </trkpt>
      <trkpt lat="46.01529" lon="4.70731">
        <ele>190</ele>
        <time>2018-02-09T10:03:18Z</time>
      </trkpt>
      <trkpt lat="46.01537" lon="4.70731">
        <ele>190</ele>
        <time>2018-02-09T10:03:19Z</time>
      </trkpt>
      <trkpt lat="46.01545" lon="4.7073">
        <ele>190</ele>
        <time>2018-02-09T10:03:20Z</time>
      </trkpt>
      <trkpt lat="46.0155" lon="4.7073">
        <ele>190</ele>
        <time>2018-02-09T10:03:21Z</time>
      </trkpt>
      <trkpt lat="46.01557" lon="4.7073">
        <ele>190</ele>
        <time>2018-02-09T10:03:22Z</time>
      </trkpt>
      <trkpt lat="46.01565" lon="4.70729">
        <ele>190</ele>
        <time>2018-02-09T10:03:23Z</time>
      </trkpt>
      <trkpt lat="46.01572" lon="4.70729">
        <ele>190</ele>
        <time>2018-02-09T10:03:24Z</time>
      </trkpt>
      <trkpt lat="46.01579" lon="4.70728">
        <ele>190</ele>
        <time>2018-02-09T10:03:25Z</time>
      </trkpt>
      <trkpt lat="46.01586" lon="4.70726">
        <ele>190</ele>
        <time>2018-02-09T10:03:26Z</time>
      </trkpt>
      <trkpt lat="46.01593" lon="4.70726">
        <ele>190</ele>
        <time>2018-02-09T10:03:27Z</time>
      </trkpt>
      <trkpt lat="46.016" lon="4.70725">
        <ele>190</ele>
        <time>2018-02-09T10:03:28Z</time>
      </trkpt>
      <trkpt lat="46.01607" lon="4.70725">
        <ele>190</ele>
        <time>2018-02-09T10:03:29Z</time>
      </trkpt>
      <trkpt lat="46.01614" lon="4.70725">
        <ele>190</ele>
        <time>2018-02-09T10:03:30Z</time>
      </trkpt>
      <trkpt lat="46.01621" lon="4.70724">
        <ele>190</ele>
        <time>2018-02-09T10:03:31Z</time>
      </trkpt>
      <trkpt lat="46.01628" lon="4.70723">
        <ele>190</ele>
        <time>2018-02-09T10:03:32Z</time>
      </trkpt>
      <trkpt lat="46.01635" lon="4.70722">
        <ele>190</ele>
        <time>2018-02-09T10:03:33Z</time>
      </trkpt>
      <trkpt lat="46.01641" lon="4.7072">
        <ele>190</ele>
        <time>2018-02-09T10:03:34Z</time>
      </trkpt>
      <trkpt lat="46.01648" lon="4.70719">
        <ele>190</ele>
        <time>2018-02-09T10:03:35Z</time>
      </trkpt>
      <trkpt lat="46.01655" lon="4.70719">
        <ele>190</ele>
        <time>2018-02-09T10:03:36Z</time>
      </trkpt>
      <trkpt lat="46.01661" lon="4.70718">
        <ele>190</ele>
        <time>2018-02-09T10:03:37Z</time>
      </trkpt>
      <trkpt lat="46.01668" lon="4.70717">
        <ele>189</ele>
        <time>2018-02-09T10:03:38Z</time>
      </trkpt>
      <trkpt lat="46.01674" lon="4.70717">
        <ele>189</ele>
        <time>2018-02-09T10:03:39Z</time>
      </trkpt>
      <trkpt lat="46.01681" lon="4.70716">
        <ele>189</ele>
        <time>2018-02-09T10:03:40Z</time>
      </trkpt>
      <trkpt lat="46.01688" lon="4.70715">
        <ele>189</ele>
        <time>2018-02-09T10:03:41Z</time>
      </trkpt>
      <trkpt lat="46.01695" lon="4.70714">
        <ele>189</ele>
        <time>2018-02-09T10:03:42Z</time>
      </trkpt>
      <trkpt lat="46.01701" lon="4.70713">
        <ele>189</ele>
        <time>2018-02-09T10:03:43Z</time>
      </trkpt>
      <trkpt lat="46.01708" lon="4.70713">
        <ele>189</ele>
        <time>2018-02-09T10:03:44Z</time>
      </trkpt>
      <trkpt lat="46.01715" lon="4.70712">
        <ele>188</ele>
        <time>2018-02-09T10:03:45Z</time>
      </trkpt>
      <trkpt lat="46.01722" lon="4.70711">
        <ele>188</ele>
        <time>2018-02-09T10:03:46Z</time>
      </trkpt>
      <trkpt lat="46.01729" lon="4.7071">
        <ele>188</ele>
        <time>2018-02-09T10:03:47Z</time>
      </trkpt>
      <trkpt lat="46.01735" lon="4.70709">
        <ele>188</ele>
        <time>2018-02-09T10:03:48Z</time>
      </trkpt>
      <trkpt lat="46.01743" lon="4.70708">
        <ele>188</ele>
        <time>2018-02-09T10:03:49Z</time>
      </trkpt>
      <trkpt lat="46.0175" lon="4.70707">
        <ele>188</ele>
        <time>2018-02-09T10:03:50Z</time>
      </trkpt>
      <trkpt lat="46.01757" lon="4.70706">
        <ele>187</ele>
        <time>2018-02-09T10:03:51Z</time>
      </trkpt>
      <trkpt lat="46.01765" lon="4.70705">
        <ele>187</ele>
        <time>2018-02-09T10:03:52Z</time>
      </trkpt>
      <trkpt lat="46.01772" lon="4.70704">
        <ele>187</ele>
        <time>2018-02-09T10:03:53Z</time>
      </trkpt>
      <trkpt lat="46.01779" lon="4.70704">
        <ele>187</ele>
        <time>2018-02-09T10:03:54Z</time>
      </trkpt>
      <trkpt lat="46.01787" lon="4.70702">
        <ele>187</ele>
        <time>2018-02-09T10:03:55Z</time>
      </trkpt>
      <trkpt lat="46.01794" lon="4.70701">
        <ele>187</ele>
        <time>2018-02-09T10:03:56Z</time>
      </trkpt>
      <trkpt lat="46.018" lon="4.70699">
        <ele>187</ele>
        <time>2018-02-09T10:03:57Z</time>
      </trkpt>
      <trkpt lat="46.01807" lon="4.70699">
        <ele>187</ele>
        <time>2018-02-09T10:03:58Z</time>
      </trkpt>
      <trkpt lat="46.01814" lon="4.70699">
        <ele>187</ele>
        <time>2018-02-09T10:03:59Z</time>
      </trkpt>
      <trkpt lat="46.0182" lon="4.70698">
        <ele>187</ele>
        <time>2018-02-09T10:04:00Z</time>
      </trkpt>
      <trkpt lat="46.01827" lon="4.70697">
        <ele>187</ele>
        <time>2018-02-09T10:04:01Z</time>
      </trkpt>
      <trkpt lat="46.01834" lon="4.70696">
        <ele>185</ele>
        <time>2018-02-09T10:04:02Z</time>
      </trkpt>
      <trkpt lat="46.0184" lon="4.70695">
        <ele>185</ele>
        <time>2018-02-09T10:04:03Z</time>
      </trkpt>
      <trkpt lat="46.01847" lon="4.70694">
        <ele>185</ele>
        <time>2018-02-09T10:04:04Z</time>
      </trkpt>
      <trkpt lat="46.01853" lon="4.70694">
        <ele>185</ele>
        <time>2018-02-09T10:04:05Z</time>
      </trkpt>
      <trkpt lat="46.01859" lon="4.70694">
        <ele>185</ele>
        <time>2018-02-09T10:04:06Z</time>
      </trkpt>
      <trkpt lat="46.01864" lon="4.70695">
        <ele>185</ele>
        <time>2018-02-09T10:04:07Z</time>
      </trkpt>
      <trkpt lat="46.0187" lon="4.70695">
        <ele>185</ele>
        <time>2018-02-09T10:04:08Z</time>
      </trkpt>
      <trkpt lat="46.01876" lon="4.70694">
        <ele>185</ele>
        <time>2018-02-09T10:04:09Z</time>
      </trkpt>
      <trkpt lat="46.01882" lon="4.70694">
        <ele>185</ele>
        <time>2018-02-09T10:04:10Z</time>
      </trkpt>
      <trkpt lat="46.01888" lon="4.70694">
        <ele>184</ele>
        <time>2018-02-09T10:04:11Z</time>
      </trkpt>
      <trkpt lat="46.01894" lon="4.70695">
        <ele>184</ele>
        <time>2018-02-09T10:04:12Z</time>
      </trkpt>
      <trkpt lat="46.01901" lon="4.70696">
        <ele>184</ele>
        <time>2018-02-09T10:04:13Z</time>
      </trkpt>
      <trkpt lat="46.01907" lon="4.70695">
        <ele>184</ele>
        <time>2018-02-09T10:04:14Z</time>
      </trkpt>
      <trkpt lat="46.01912" lon="4.70695">
        <ele>184</ele>
        <time>2018-02-09T10:04:15Z</time>
      </trkpt>
      <trkpt lat="46.01919" lon="4.70696">
        <ele>182</ele>
        <time>2018-02-09T10:04:16Z</time>
      </trkpt>
      <trkpt lat="46.01925" lon="4.70697">
        <ele>182</ele>
        <time>2018-02-09T10:04:17Z</time>
      </trkpt>
      <trkpt lat="46.01931" lon="4.70699">
        <ele>182</ele>
        <time>2018-02-09T10:04:18Z</time>
      </trkpt>
      <trkpt lat="46.01938" lon="4.707">
        <ele>182</ele>
        <time>2018-02-09T10:04:19Z</time>
      </trkpt>
      <trkpt lat="46.01944" lon="4.70701">
        <ele>182</ele>
        <time>2018-02-09T10:04:20Z</time>
      </trkpt>
      <trkpt lat="46.0195" lon="4.70702">
        <ele>181</ele>
        <time>2018-02-09T10:04:21Z</time>
      </trkpt>
      <trkpt lat="46.01956" lon="4.70703">
        <ele>181</ele>
        <time>2018-02-09T10:04:22Z</time>
      </trkpt>
      <trkpt lat="46.01962" lon="4.70705">
        <ele>181</ele>
        <time>2018-02-09T10:04:23Z</time>
      </trkpt>
      <trkpt lat="46.01969" lon="4.70706">
        <ele>181</ele>
        <time>2018-02-09T10:04:24Z</time>
      </trkpt>
      <trkpt lat="46.01975" lon="4.70708">
        <ele>181</ele>
        <time>2018-02-09T10:04:25Z</time>
      </trkpt>
      <trkpt lat="46.01981" lon="4.70709">
        <ele>181</ele>
        <time>2018-02-09T10:04:26Z</time>
      </trkpt>
      <trkpt lat="46.01987" lon="4.7071">
        <ele>181</ele>
        <time>2018-02-09T10:04:27Z</time>
      </trkpt>
      <trkpt lat="46.01993" lon="4.70712">
        <ele>181</ele>
        <time>2018-02-09T10:04:28Z</time>
      </trkpt>
      <trkpt lat="46.01999" lon="4.70712">
        <ele>181</ele>
        <time>2018-02-09T10:04:29Z</time>
      </trkpt>
      <trkpt lat="46.02005" lon="4.70713">
        <ele>179</ele>
        <time>2018-02-09T10:04:30Z</time>
      </trkpt>
      <trkpt lat="46.02012" lon="4.70714">
        <ele>179</ele>
        <time>2018-02-09T10:04:31Z</time>
      </trkpt>
      <trkpt lat="46.02017" lon="4.70716">
        <ele>179</ele>
        <time>2018-02-09T10:04:32Z</time>
      </trkpt>
      <trkpt lat="46.02023" lon="4.70717">
        <ele>179</ele>
        <time>2018-02-09T10:04:33Z</time>
      </trkpt>
      <trkpt lat="46.0203" lon="4.70719">
        <ele>179</ele>
        <time>2018-02-09T10:04:34Z</time>
      </trkpt>
      <trkpt lat="46.02035" lon="4.70719">
        <ele>179</ele>
        <time>2018-02-09T10:04:35Z</time>
      </trkpt>
      <trkpt lat="46.02041" lon="4.7072">
        <ele>179</ele>
        <time>2018-02-09T10:04:36Z</time>
      </trkpt>
      <trkpt lat="46.02047" lon="4.70721">
        <ele>179</ele>
        <time>2018-02-09T10:04:37Z</time>
      </trkpt>
      <trkpt lat="46.02053" lon="4.70722">
        <ele>179</ele>
        <time>2018-02-09T10:04:38Z</time>
      </trkpt>
      <trkpt lat="46.0206" lon="4.70723">
        <ele>179</ele>
        <time>2018-02-09T10:04:39Z</time>
      </trkpt>
      <trkpt lat="46.02066" lon="4.70724">
        <ele>179</ele>
        <time>2018-02-09T10:04:40Z</time>
      </trkpt>
      <trkpt lat="46.02073" lon="4.70725">
        <ele>178</ele>
        <time>2018-02-09T10:04:41Z</time>
      </trkpt>
      <trkpt lat="46.0208" lon="4.70727">
        <ele>178</ele>
        <time>2018-02-09T10:04:42Z</time>
      </trkpt>
      <trkpt lat="46.02086" lon="4.70729">
        <ele>178</ele>
        <time>2018-02-09T10:04:43Z</time>
      </trkpt>
      <trkpt lat="46.02093" lon="4.7073">
        <ele>178</ele>
        <time>2018-02-09T10:04:44Z</time>
      </trkpt>
      <trkpt lat="46.021" lon="4.70732">
        <ele>178</ele>
        <time>2018-02-09T10:04:45Z</time>
      </trkpt>
      <trkpt lat="46.02107" lon="4.70733">
        <ele>178</ele>
        <time>2018-02-09T10:04:46Z</time>
      </trkpt>
      <trkpt lat="46.02113" lon="4.70734">
        <ele>179</ele>
        <time>2018-02-09T10:04:47Z</time>
      </trkpt>
      <trkpt lat="46.02119" lon="4.70735">
        <ele>179</ele>
        <time>2018-02-09T10:04:48Z</time>
      </trkpt>
      <trkpt lat="46.02126" lon="4.70736">
        <ele>179</ele>
        <time>2018-02-09T10:04:49Z</time>
      </trkpt>
      <trkpt lat="46.02132" lon="4.70738">
        <ele>179</ele>
        <time>2018-02-09T10:04:50Z</time>
      </trkpt>
      <trkpt lat="46.02139" lon="4.7074">
        <ele>179</ele>
        <time>2018-02-09T10:04:51Z</time>
      </trkpt>
      <trkpt lat="46.02145" lon="4.7074">
        <ele>179</ele>
        <time>2018-02-09T10:04:52Z</time>
      </trkpt>
      <trkpt lat="46.0215" lon="4.70742">
        <ele>179</ele>
        <time>2018-02-09T10:04:53Z</time>
      </trkpt>
      <trkpt lat="46.02156" lon="4.70743">
        <ele>179</ele>
        <time>2018-02-09T10:04:54Z</time>
      </trkpt>
      <trkpt lat="46.02162" lon="4.70743">
        <ele>179</ele>
        <time>2018-02-09T10:04:55Z</time>
      </trkpt>
      <trkpt lat="46.02168" lon="4.70745">
        <ele>179</ele>
        <time>2018-02-09T10:04:56Z</time>
      </trkpt>
      <trkpt lat="46.02174" lon="4.70746">
        <ele>179</ele>
        <time>2018-02-09T10:04:57Z</time>
      </trkpt>
      <trkpt lat="46.02179" lon="4.70748">
        <ele>180</ele>
        <time>2018-02-09T10:04:58Z</time>
      </trkpt>
      <trkpt lat="46.02184" lon="4.70749">
        <ele>180</ele>
        <time>2018-02-09T10:04:59Z</time>
      </trkpt>
      <trkpt lat="46.0219" lon="4.70749">
        <ele>180</ele>
        <time>2018-02-09T10:05:00Z</time>
      </trkpt>
      <trkpt lat="46.02196" lon="4.70749">
        <ele>180</ele>
        <time>2018-02-09T10:05:01Z</time>
      </trkpt>
      <trkpt lat="46.02202" lon="4.70751">
        <ele>179</ele>
        <time>2018-02-09T10:05:02Z</time>
      </trkpt>
      <trkpt lat="46.02208" lon="4.70751">
        <ele>180</ele>
        <time>2018-02-09T10:05:03Z</time>
      </trkpt>
      <trkpt lat="46.02214" lon="4.70753">
        <ele>180</ele>
        <time>2018-02-09T10:05:04Z</time>
      </trkpt>
      <trkpt lat="46.0222" lon="4.70754">
        <ele>180</ele>
        <time>2018-02-09T10:05:05Z</time>
      </trkpt>
      <trkpt lat="46.02226" lon="4.70755">
        <ele>180</ele>
        <time>2018-02-09T10:05:06Z</time>
      </trkpt>
      <trkpt lat="46.02231" lon="4.70756">
        <ele>180</ele>
        <time>2018-02-09T10:05:07Z</time>
      </trkpt>
      <trkpt lat="46.02238" lon="4.70756">
        <ele>180</ele>
        <time>2018-02-09T10:05:08Z</time>
      </trkpt>
      <trkpt lat="46.02243" lon="4.70757">
        <ele>180</ele>
        <time>2018-02-09T10:05:09Z</time>
      </trkpt>
      <trkpt lat="46.02248" lon="4.70758">
        <ele>181</ele>
        <time>2018-02-09T10:05:10Z</time>
      </trkpt>
      <trkpt lat="46.02253" lon="4.70759">
        <ele>181</ele>
        <time>2018-02-09T10:05:11Z</time>
      </trkpt>
      <trkpt lat="46.02259" lon="4.70761">
        <ele>181</ele>
        <time>2018-02-09T10:05:12Z</time>
      </trkpt>
      <trkpt lat="46.02264" lon="4.70761">
        <ele>181</ele>
        <time>2018-02-09T10:05:13Z</time>
      </trkpt>
      <trkpt lat="46.0227" lon="4.70762">
        <ele>181</ele>
        <time>2018-02-09T10:05:14Z</time>
      </trkpt>
      <trkpt lat="46.02275" lon="4.70763">
        <ele>181</ele>
        <time>2018-02-09T10:05:15Z</time>
      </trkpt>
      <trkpt lat="46.02281" lon="4.70764">
        <ele>181</ele>
        <time>2018-02-09T10:05:16Z</time>
      </trkpt>
      <trkpt lat="46.02286" lon="4.70765">
        <ele>181</ele>
        <time>2018-02-09T10:05:17Z</time>
      </trkpt>
      <trkpt lat="46.02292" lon="4.70766">
        <ele>180</ele>
        <time>2018-02-09T10:05:18Z</time>
      </trkpt>
      <trkpt lat="46.02297" lon="4.70767">
        <ele>180</ele>
        <time>2018-02-09T10:05:19Z</time>
      </trkpt>
      <trkpt lat="46.02302" lon="4.70768">
        <ele>180</ele>
        <time>2018-02-09T10:05:20Z</time>
      </trkpt>
      <trkpt lat="46.02307" lon="4.70769">
        <ele>180</ele>
        <time>2018-02-09T10:05:21Z</time>
      </trkpt>
      <trkpt lat="46.02312" lon="4.7077">
        <ele>180</ele>
        <time>2018-02-09T10:05:22Z</time>
      </trkpt>
      <trkpt lat="46.02317" lon="4.70771">
        <ele>180</ele>
        <time>2018-02-09T10:05:23Z</time>
      </trkpt>
      <trkpt lat="46.02323" lon="4.70772">
        <ele>180</ele>
        <time>2018-02-09T10:05:24Z</time>
      </trkpt>
      <trkpt lat="46.02328" lon="4.70775">
        <ele>180</ele>
        <time>2018-02-09T10:05:25Z</time>
      </trkpt>
      <trkpt lat="46.02333" lon="4.70775">
        <ele>180</ele>
        <time>2018-02-09T10:05:26Z</time>
      </trkpt>
      <trkpt lat="46.02338" lon="4.70776">
        <ele>182</ele>
        <time>2018-02-09T10:05:27Z</time>
      </trkpt>
      <trkpt lat="46.02343" lon="4.70777">
        <ele>182</ele>
        <time>2018-02-09T10:05:28Z</time>
      </trkpt>
      <trkpt lat="46.02348" lon="4.70778">
        <ele>183</ele>
        <time>2018-02-09T10:05:29Z</time>
      </trkpt>
      <trkpt lat="46.02352" lon="4.70779">
        <ele>183</ele>
        <time>2018-02-09T10:05:30Z</time>
      </trkpt>
      <trkpt lat="46.02358" lon="4.7078">
        <ele>183</ele>
        <time>2018-02-09T10:05:31Z</time>
      </trkpt>
      <trkpt lat="46.02363" lon="4.70781">
        <ele>183</ele>
        <time>2018-02-09T10:05:32Z</time>
      </trkpt>
      <trkpt lat="46.02368" lon="4.70782">
        <ele>183</ele>
        <time>2018-02-09T10:05:33Z</time>
      </trkpt>
      <trkpt lat="46.02373" lon="4.70782">
        <ele>184</ele>
        <time>2018-02-09T10:05:34Z</time>
      </trkpt>
      <trkpt lat="46.02378" lon="4.70782">
        <ele>184</ele>
        <time>2018-02-09T10:05:35Z</time>
      </trkpt>
      <trkpt lat="46.02383" lon="4.70784">
        <ele>184</ele>
        <time>2018-02-09T10:05:36Z</time>
      </trkpt>
      <trkpt lat="46.02388" lon="4.70786">
        <ele>184</ele>
        <time>2018-02-09T10:05:37Z</time>
      </trkpt>
      <trkpt lat="46.02393" lon="4.70786">
        <ele>184</ele>
        <time>2018-02-09T10:05:38Z</time>
      </trkpt>
      <trkpt lat="46.02398" lon="4.70786">
        <ele>185</ele>
        <time>2018-02-09T10:05:39Z</time>
      </trkpt>
      <trkpt lat="46.02403" lon="4.70786">
        <ele>185</ele>
        <time>2018-02-09T10:05:40Z</time>
      </trkpt>
      <trkpt lat="46.02408" lon="4.70785">
        <ele>185</ele>
        <time>2018-02-09T10:05:41Z</time>
      </trkpt>
      <trkpt lat="46.02412" lon="4.70785">
        <ele>185</ele>
        <time>2018-02-09T10:05:42Z</time>
      </trkpt>
      <trkpt lat="46.02421" lon="4.70783">
        <ele>189</ele>
        <time>2018-02-09T10:05:44Z</time>
      </trkpt>
      <trkpt lat="46.02425" lon="4.70782">
        <ele>189</ele>
        <time>2018-02-09T10:05:45Z</time>
      </trkpt>
      <trkpt lat="46.02429" lon="4.7078">
        <ele>189</ele>
        <time>2018-02-09T10:05:46Z</time>
      </trkpt>
      <trkpt lat="46.02434" lon="4.70778">
        <ele>189</ele>
        <time>2018-02-09T10:05:47Z</time>
      </trkpt>
      <trkpt lat="46.02439" lon="4.7077">
        <ele>189</ele>
        <time>2018-02-09T10:05:49Z</time>
      </trkpt>
      <trkpt lat="46.02442" lon="4.70766">
        <ele>189</ele>
        <time>2018-02-09T10:05:50Z</time>
      </trkpt>
      <trkpt lat="46.02446" lon="4.70755">
        <ele>190</ele>
        <time>2018-02-09T10:05:52Z</time>
      </trkpt>
      <trkpt lat="46.02448" lon="4.7075">
        <ele>190</ele>
        <time>2018-02-09T10:05:53Z</time>
      </trkpt>
      <trkpt lat="46.02453" lon="4.7074">
        <ele>190</ele>
        <time>2018-02-09T10:05:55Z</time>
      </trkpt>
      <trkpt lat="46.02454" lon="4.70734">
        <ele>190</ele>
        <time>2018-02-09T10:05:56Z</time>
      </trkpt>
      <trkpt lat="46.02457" lon="4.70723">
        <ele>190</ele>
        <time>2018-02-09T10:05:58Z</time>
      </trkpt>
      <trkpt lat="46.02458" lon="4.70717">
        <ele>190</ele>
        <time>2018-02-09T10:05:59Z</time>
      </trkpt>
      <trkpt lat="46.0246" lon="4.70711">
        <ele>190</ele>
        <time>2018-02-09T10:06:00Z</time>
      </trkpt>
      <trkpt lat="46.02461" lon="4.70704">
        <ele>190</ele>
        <time>2018-02-09T10:06:01Z</time>
      </trkpt>
      <trkpt lat="46.02463" lon="4.70698">
        <ele>190</ele>
        <time>2018-02-09T10:06:02Z</time>
      </trkpt>
      <trkpt lat="46.02464" lon="4.70691">
        <ele>190</ele>
        <time>2018-02-09T10:06:03Z</time>
      </trkpt>
      <trkpt lat="46.02466" lon="4.70684">
        <ele>190</ele>
        <time>2018-02-09T10:06:04Z</time>
      </trkpt>
      <trkpt lat="46.02467" lon="4.70677">
        <ele>190</ele>
        <time>2018-02-09T10:06:05Z</time>
      </trkpt>
      <trkpt lat="46.02469" lon="4.7067">
        <ele>190</ele>
        <time>2018-02-09T10:06:06Z</time>
      </trkpt>
      <trkpt lat="46.0247" lon="4.70663">
        <ele>189</ele>
        <time>2018-02-09T10:06:07Z</time>
      </trkpt>
      <trkpt lat="46.02473" lon="4.70656">
        <ele>189</ele>
        <time>2018-02-09T10:06:08Z</time>
      </trkpt>
      <trkpt lat="46.02475" lon="4.70649">
        <ele>189</ele>
        <time>2018-02-09T10:06:09Z</time>
      </trkpt>
      <trkpt lat="46.02477" lon="4.70642">
        <ele>189</ele>
        <time>2018-02-09T10:06:10Z</time>
      </trkpt>
      <trkpt lat="46.02478" lon="4.70635">
        <ele>188</ele>
        <time>2018-02-09T10:06:11Z</time>
      </trkpt>
      <trkpt lat="46.02484" lon="4.70628">
        <ele>188</ele>
        <time>2018-02-09T10:06:13Z</time>
      </trkpt>
      <trkpt lat="46.02488" lon="4.70623">
        <ele>188</ele>
        <time>2018-02-09T10:06:14Z</time>
      </trkpt>
      <trkpt lat="46.02496" lon="4.70623">
        <ele>188</ele>
        <time>2018-02-09T10:06:16Z</time>
      </trkpt>
      <trkpt lat="46.02501" lon="4.70624">
        <ele>189</ele>
        <time>2018-02-09T10:06:17Z</time>
      </trkpt>
      <trkpt lat="46.02505" lon="4.70625">
        <ele>189</ele>
        <time>2018-02-09T10:06:18Z</time>
      </trkpt>
      <trkpt lat="46.0251" lon="4.70627">
        <ele>189</ele>
        <time>2018-02-09T10:06:19Z</time>
      </trkpt>
      <trkpt lat="46.02514" lon="4.70628">
        <ele>189</ele>
        <time>2018-02-09T10:06:20Z</time>
      </trkpt>
      <trkpt lat="46.02519" lon="4.70628">
        <ele>189</ele>
        <time>2018-02-09T10:06:21Z</time>
      </trkpt>
      <trkpt lat="46.02528" lon="4.70631">
        <ele>189</ele>
        <time>2018-02-09T10:06:23Z</time>
      </trkpt>
      <trkpt lat="46.02532" lon="4.70632">
        <ele>189</ele>
        <time>2018-02-09T10:06:24Z</time>
      </trkpt>
      <trkpt lat="46.0254" lon="4.70634">
        <ele>189</ele>
        <time>2018-02-09T10:06:26Z</time>
      </trkpt>
      <trkpt lat="46.02545" lon="4.70634">
        <ele>189</ele>
        <time>2018-02-09T10:06:27Z</time>
      </trkpt>
      <trkpt lat="46.0255" lon="4.70636">
        <ele>189</ele>
        <time>2018-02-09T10:06:28Z</time>
      </trkpt>
      <trkpt lat="46.02555" lon="4.70637">
        <ele>189</ele>
        <time>2018-02-09T10:06:29Z</time>
      </trkpt>
      <trkpt lat="46.02559" lon="4.70639">
        <ele>189</ele>
        <time>2018-02-09T10:06:30Z</time>
      </trkpt>
      <trkpt lat="46.02564" lon="4.7064">
        <ele>189</ele>
        <time>2018-02-09T10:06:31Z</time>
      </trkpt>
      <trkpt lat="46.02568" lon="4.70643">
        <ele>189</ele>
        <time>2018-02-09T10:06:32Z</time>
      </trkpt>
      <trkpt lat="46.02573" lon="4.70644">
        <ele>190</ele>
        <time>2018-02-09T10:06:33Z</time>
      </trkpt>
      <trkpt lat="46.02578" lon="4.70645">
        <ele>190</ele>
        <time>2018-02-09T10:06:34Z</time>
      </trkpt>
      <trkpt lat="46.02582" lon="4.70645">
        <ele>190</ele>
        <time>2018-02-09T10:06:35Z</time>
      </trkpt>
      <trkpt lat="46.02588" lon="4.70646">
        <ele>190</ele>
        <time>2018-02-09T10:06:36Z</time>
      </trkpt>
      <trkpt lat="46.02592" lon="4.70646">
        <ele>190</ele>
        <time>2018-02-09T10:06:37Z</time>
      </trkpt>
      <trkpt lat="46.02597" lon="4.70647">
        <ele>190</ele>
        <time>2018-02-09T10:06:38Z</time>
      </trkpt>
      <trkpt lat="46.02602" lon="4.70648">
        <ele>190</ele>
        <time>2018-02-09T10:06:39Z</time>
      </trkpt>
      <trkpt lat="46.02606" lon="4.70649">
        <ele>190</ele>
        <time>2018-02-09T10:06:40Z</time>
      </trkpt>
      <trkpt lat="46.0261" lon="4.70651">
        <ele>190</ele>
        <time>2018-02-09T10:06:41Z</time>
      </trkpt>
      <trkpt lat="46.02615" lon="4.70651">
        <ele>190</ele>
        <time>2018-02-09T10:06:42Z</time>
      </trkpt>
      <trkpt lat="46.0262" lon="4.70652">
        <ele>190</ele>
        <time>2018-02-09T10:06:43Z</time>
      </trkpt>
      <trkpt lat="46.02624" lon="4.70653">
        <ele>190</ele>
        <time>2018-02-09T10:06:44Z</time>
      </trkpt>
      <trkpt lat="46.02629" lon="4.70654">
        <ele>190</ele>
        <time>2018-02-09T10:06:45Z</time>
      </trkpt>
      <trkpt lat="46.02634" lon="4.70655">
        <ele>190</ele>
        <time>2018-02-09T10:06:46Z</time>
      </trkpt>
      <trkpt lat="46.02639" lon="4.70656">
        <ele>190</ele>
        <time>2018-02-09T10:06:47Z</time>
      </trkpt>
      <trkpt lat="46.02643" lon="4.70656">
        <ele>190</ele>
        <time>2018-02-09T10:06:48Z</time>
      </trkpt>
      <trkpt lat="46.02648" lon="4.70657">
        <ele>190</ele>
        <time>2018-02-09T10:06:49Z</time>
      </trkpt>
      <trkpt lat="46.02653" lon="4.70656">
        <ele>190</ele>
        <time>2018-02-09T10:06:50Z</time>
      </trkpt>
      <trkpt lat="46.02657" lon="4.70658">
        <ele>190</ele>
        <time>2018-02-09T10:06:51Z</time>
      </trkpt>
      <trkpt lat="46.02663" lon="4.70657">
        <ele>190</ele>
        <time>2018-02-09T10:06:52Z</time>
      </trkpt>
      <trkpt lat="46.02668" lon="4.70657">
        <ele>190</ele>
        <time>2018-02-09T10:06:53Z</time>
      </trkpt>
      <trkpt lat="46.02676" lon="4.70657">
        <ele>190</ele>
        <time>2018-02-09T10:06:55Z</time>
      </trkpt>
      <trkpt lat="46.02679" lon="4.70658">
        <ele>190</ele>
        <time>2018-02-09T10:06:56Z</time>
      </trkpt>
      <trkpt lat="46.02685" lon="4.70656">
        <ele>190</ele>
        <time>2018-02-09T10:06:57Z</time>
      </trkpt>
      <trkpt lat="46.0269" lon="4.70657">
        <ele>190</ele>
        <time>2018-02-09T10:06:58Z</time>
      </trkpt>
      <trkpt lat="46.02693" lon="4.70659">
        <ele>189</ele>
        <time>2018-02-09T10:06:59Z</time>
      </trkpt>
      <trkpt lat="46.02699" lon="4.70659">
        <ele>189</ele>
        <time>2018-02-09T10:07:00Z</time>
      </trkpt>
      <trkpt lat="46.02703" lon="4.7066">
        <ele>189</ele>
        <time>2018-02-09T10:07:01Z</time>
      </trkpt>
      <trkpt lat="46.02709" lon="4.70659">
        <ele>189</ele>
        <time>2018-02-09T10:07:02Z</time>
      </trkpt>
      <trkpt lat="46.02717" lon="4.70662">
        <ele>189</ele>
        <time>2018-02-09T10:07:04Z</time>
      </trkpt>
      <trkpt lat="46.02721" lon="4.70664">
        <ele>189</ele>
        <time>2018-02-09T10:07:05Z</time>
      </trkpt>
      <trkpt lat="46.0273" lon="4.70665">
        <ele>189</ele>
        <time>2018-02-09T10:07:07Z</time>
      </trkpt>
      <trkpt lat="46.02735" lon="4.70666">
        <ele>189</ele>
        <time>2018-02-09T10:07:08Z</time>
      </trkpt>
      <trkpt lat="46.0274" lon="4.70667">
        <ele>189</ele>
        <time>2018-02-09T10:07:09Z</time>
      </trkpt>
      <trkpt lat="46.02745" lon="4.70668">
        <ele>189</ele>
        <time>2018-02-09T10:07:10Z</time>
      </trkpt>
      <trkpt lat="46.02749" lon="4.70669">
        <ele>189</ele>
        <time>2018-02-09T10:07:11Z</time>
      </trkpt>
      <trkpt lat="46.02754" lon="4.70669">
        <ele>189</ele>
        <time>2018-02-09T10:07:12Z</time>
      </trkpt>
      <trkpt lat="46.02759" lon="4.70669">
        <ele>189</ele>
        <time>2018-02-09T10:07:13Z</time>
      </trkpt>
      <trkpt lat="46.02763" lon="4.70672">
        <ele>189</ele>
        <time>2018-02-09T10:07:14Z</time>
      </trkpt>
      <trkpt lat="46.02768" lon="4.70672">
        <ele>189</ele>
        <time>2018-02-09T10:07:15Z</time>
      </trkpt>
      <trkpt lat="46.02772" lon="4.70673">
        <ele>189</ele>
        <time>2018-02-09T10:07:16Z</time>
      </trkpt>
      <trkpt lat="46.02781" lon="4.70675">
        <ele>189</ele>
        <time>2018-02-09T10:07:18Z</time>
      </trkpt>
      <trkpt lat="46.02785" lon="4.70676">
        <ele>189</ele>
        <time>2018-02-09T10:07:19Z</time>
      </trkpt>
      <trkpt lat="46.0279" lon="4.70676">
        <ele>189</ele>
        <time>2018-02-09T10:07:20Z</time>
      </trkpt>
      <trkpt lat="46.02795" lon="4.70676">
        <ele>189</ele>
        <time>2018-02-09T10:07:21Z</time>
      </trkpt>
      <trkpt lat="46.028" lon="4.70676">
        <ele>189</ele>
        <time>2018-02-09T10:07:22Z</time>
      </trkpt>
      <trkpt lat="46.02805" lon="4.70676">
        <ele>189</ele>
        <time>2018-02-09T10:07:23Z</time>
      </trkpt>
      <trkpt lat="46.0281" lon="4.70674">
        <ele>189</ele>
        <time>2018-02-09T10:07:24Z</time>
      </trkpt>
      <trkpt lat="46.02816" lon="4.70673">
        <ele>189</ele>
        <time>2018-02-09T10:07:25Z</time>
      </trkpt>
      <trkpt lat="46.02821" lon="4.70673">
        <ele>189</ele>
        <time>2018-02-09T10:07:26Z</time>
      </trkpt>
      <trkpt lat="46.02826" lon="4.70672">
        <ele>189</ele>
        <time>2018-02-09T10:07:27Z</time>
      </trkpt>
      <trkpt lat="46.02831" lon="4.70669">
        <ele>189</ele>
        <time>2018-02-09T10:07:28Z</time>
      </trkpt>
      <trkpt lat="46.02836" lon="4.70668">
        <ele>189</ele>
        <time>2018-02-09T10:07:29Z</time>
      </trkpt>
      <trkpt lat="46.02842" lon="4.70668">
        <ele>189</ele>
        <time>2018-02-09T10:07:30Z</time>
      </trkpt>
      <trkpt lat="46.02847" lon="4.70665">
        <ele>190</ele>
        <time>2018-02-09T10:07:31Z</time>
      </trkpt>
      <trkpt lat="46.02851" lon="4.70665">
        <ele>190</ele>
        <time>2018-02-09T10:07:32Z</time>
      </trkpt>
      <trkpt lat="46.02856" lon="4.70664">
        <ele>190</ele>
        <time>2018-02-09T10:07:33Z</time>
      </trkpt>
      <trkpt lat="46.02861" lon="4.70663">
        <ele>190</ele>
        <time>2018-02-09T10:07:34Z</time>
      </trkpt>
      <trkpt lat="46.02866" lon="4.70662">
        <ele>190</ele>
        <time>2018-02-09T10:07:35Z</time>
      </trkpt>
      <trkpt lat="46.0287" lon="4.70662">
        <ele>190</ele>
        <time>2018-02-09T10:07:36Z</time>
      </trkpt>
      <trkpt lat="46.02875" lon="4.70662">
        <ele>190</ele>
        <time>2018-02-09T10:07:37Z</time>
      </trkpt>
      <trkpt lat="46.02883" lon="4.70663">
        <ele>190</ele>
        <time>2018-02-09T10:07:39Z</time>
      </trkpt>
      <trkpt lat="46.02889" lon="4.70662">
        <ele>190</ele>
        <time>2018-02-09T10:07:40Z</time>
      </trkpt>
      <trkpt lat="46.02897" lon="4.70662">
        <ele>191</ele>
        <time>2018-02-09T10:07:42Z</time>
      </trkpt>
      <trkpt lat="46.02901" lon="4.70662">
        <ele>191</ele>
        <time>2018-02-09T10:07:43Z</time>
      </trkpt>
      <trkpt lat="46.02905" lon="4.70661">
        <ele>191</ele>
        <time>2018-02-09T10:07:44Z</time>
      </trkpt>
      <trkpt lat="46.0291" lon="4.7066">
        <ele>191</ele>
        <time>2018-02-09T10:07:45Z</time>
      </trkpt>
      <trkpt lat="46.02915" lon="4.70659">
        <ele>191</ele>
        <time>2018-02-09T10:07:46Z</time>
      </trkpt>
      <trkpt lat="46.02919" lon="4.70657">
        <ele>191</ele>
        <time>2018-02-09T10:07:47Z</time>
      </trkpt>
      <trkpt lat="46.02926" lon="4.70649">
        <ele>192</ele>
        <time>2018-02-09T10:07:49Z</time>
      </trkpt>
      <trkpt lat="46.02928" lon="4.70643">
        <ele>192</ele>
        <time>2018-02-09T10:07:50Z</time>
      </trkpt>
      <trkpt lat="46.0293" lon="4.70637">
        <ele>192</ele>
        <time>2018-02-09T10:07:51Z</time>
      </trkpt>
      <trkpt lat="46.02931" lon="4.70631">
        <ele>192</ele>
        <time>2018-02-09T10:07:52Z</time>
      </trkpt>
      <trkpt lat="46.02933" lon="4.70624">
        <ele>192</ele>
        <time>2018-02-09T10:07:53Z</time>
      </trkpt>
      <trkpt lat="46.02934" lon="4.70617">
        <ele>192</ele>
        <time>2018-02-09T10:07:54Z</time>
      </trkpt>
      <trkpt lat="46.02937" lon="4.70606">
        <ele>192</ele>
        <time>2018-02-09T10:07:56Z</time>
      </trkpt>
      <trkpt lat="46.02939" lon="4.706">
        <ele>192</ele>
        <time>2018-02-09T10:07:57Z</time>
      </trkpt>
      <trkpt lat="46.02942" lon="4.70589">
        <ele>192</ele>
        <time>2018-02-09T10:07:59Z</time>
      </trkpt>
      <trkpt lat="46.02945" lon="4.70583">
        <ele>191</ele>
        <time>2018-02-09T10:08:00Z</time>
      </trkpt>
      <trkpt lat="46.02949" lon="4.70572">
        <ele>191</ele>
        <time>2018-02-09T10:08:02Z</time>
      </trkpt>
      <trkpt lat="46.02951" lon="4.70566">
        <ele>191</ele>
        <time>2018-02-09T10:08:03Z</time>
      </trkpt>
      <trkpt lat="46.02955" lon="4.7056">
        <ele>191</ele>
        <time>2018-02-09T10:08:04Z</time>
      </trkpt>
      <trkpt lat="46.02958" lon="4.70555">
        <ele>191</ele>
        <time>2018-02-09T10:08:05Z</time>
      </trkpt>
      <trkpt lat="46.02962" lon="4.7055">
        <ele>191</ele>
        <time>2018-02-09T10:08:06Z</time>
      </trkpt>
      <trkpt lat="46.02966" lon="4.70547">
        <ele>191</ele>
        <time>2018-02-09T10:08:07Z</time>
      </trkpt>
      <trkpt lat="46.02971" lon="4.70542">
        <ele>191</ele>
        <time>2018-02-09T10:08:08Z</time>
      </trkpt>
      <trkpt lat="46.02975" lon="4.70539">
        <ele>191</ele>
        <time>2018-02-09T10:08:09Z</time>
      </trkpt>
      <trkpt lat="46.02978" lon="4.70536">
        <ele>191</ele>
        <time>2018-02-09T10:08:10Z</time>
      </trkpt>
      <trkpt lat="46.02982" lon="4.70532">
        <ele>191</ele>
        <time>2018-02-09T10:08:11Z</time>
      </trkpt>
      <trkpt lat="46.0299" lon="4.70527">
        <ele>191</ele>
        <time>2018-02-09T10:08:13Z</time>
      </trkpt>
      <trkpt lat="46.02994" lon="4.70524">
        <ele>191</ele>
        <time>2018-02-09T10:08:14Z</time>
      </trkpt>
      <trkpt lat="46.03001" lon="4.70516">
        <ele>191</ele>
        <time>2018-02-09T10:08:16Z</time>
      </trkpt>
      <trkpt lat="46.03004" lon="4.70512">
        <ele>191</ele>
        <time>2018-02-09T10:08:17Z</time>
      </trkpt>
      <trkpt lat="46.03008" lon="4.70509">
        <ele>191</ele>
        <time>2018-02-09T10:08:18Z</time>
      </trkpt>
      <trkpt lat="46.03012" lon="4.70504">
        <ele>191</ele>
        <time>2018-02-09T10:08:19Z</time>
      </trkpt>
      <trkpt lat="46.03019" lon="4.70498">
        <ele>191</ele>
        <time>2018-02-09T10:08:21Z</time>
      </trkpt>
      <trkpt lat="46.03023" lon="4.70493">
        <ele>191</ele>
        <time>2018-02-09T10:08:22Z</time>
      </trkpt>
      <trkpt lat="46.0303" lon="4.70487">
        <ele>191</ele>
        <time>2018-02-09T10:08:24Z</time>
      </trkpt>
      <trkpt lat="46.03034" lon="4.70483">
        <ele>191</ele>
        <time>2018-02-09T10:08:25Z</time>
      </trkpt>
      <trkpt lat="46.03038" lon="4.70477">
        <ele>191</ele>
        <time>2018-02-09T10:08:26Z</time>
      </trkpt>
      <trkpt lat="46.03043" lon="4.70474">
        <ele>191</ele>
        <time>2018-02-09T10:08:27Z</time>
      </trkpt>
      <trkpt lat="46.03048" lon="4.7047">
        <ele>191</ele>
        <time>2018-02-09T10:08:28Z</time>
      </trkpt>
      <trkpt lat="46.03052" lon="4.70465">
        <ele>191</ele>
        <time>2018-02-09T10:08:29Z</time>
      </trkpt>
      <trkpt lat="46.03057" lon="4.70461">
        <ele>191</ele>
        <time>2018-02-09T10:08:30Z</time>
      </trkpt>
      <trkpt lat="46.03061" lon="4.70458">
        <ele>191</ele>
        <time>2018-02-09T10:08:31Z</time>
      </trkpt>
      <trkpt lat="46.03066" lon="4.70455">
        <ele>191</ele>
        <time>2018-02-09T10:08:32Z</time>
      </trkpt>
      <trkpt lat="46.03071" lon="4.70453">
        <ele>191</ele>
        <time>2018-02-09T10:08:33Z</time>
      </trkpt>
      <trkpt lat="46.03076" lon="4.7045">
        <ele>191</ele>
        <time>2018-02-09T10:08:34Z</time>
      </trkpt>
      <trkpt lat="46.0308" lon="4.70447">
        <ele>191</ele>
        <time>2018-02-09T10:08:35Z</time>
      </trkpt>
      <trkpt lat="46.03085" lon="4.70445">
        <ele>192</ele>
        <time>2018-02-09T10:08:36Z</time>
      </trkpt>
      <trkpt lat="46.0309" lon="4.70443">
        <ele>192</ele>
        <time>2018-02-09T10:08:37Z</time>
      </trkpt>
      <trkpt lat="46.03095" lon="4.7044">
        <ele>192</ele>
        <time>2018-02-09T10:08:38Z</time>
      </trkpt>
      <trkpt lat="46.031" lon="4.70438">
        <ele>192</ele>
        <time>2018-02-09T10:08:39Z</time>
      </trkpt>
      <trkpt lat="46.03105" lon="4.70435">
        <ele>192</ele>
        <time>2018-02-09T10:08:40Z</time>
      </trkpt>
      <trkpt lat="46.0311" lon="4.70433">
        <ele>192</ele>
        <time>2018-02-09T10:08:41Z</time>
      </trkpt>
      <trkpt lat="46.03114" lon="4.70431">
        <ele>192</ele>
        <time>2018-02-09T10:08:42Z</time>
      </trkpt>
      <trkpt lat="46.0312" lon="4.70429">
        <ele>192</ele>
        <time>2018-02-09T10:08:43Z</time>
      </trkpt>
      <trkpt lat="46.03125" lon="4.70424">
        <ele>192</ele>
        <time>2018-02-09T10:08:44Z</time>
      </trkpt>
      <trkpt lat="46.0313" lon="4.70421">
        <ele>192</ele>
        <time>2018-02-09T10:08:45Z</time>
      </trkpt>
      <trkpt lat="46.03136" lon="4.70418">
        <ele>192</ele>
        <time>2018-02-09T10:08:46Z</time>
      </trkpt>
      <trkpt lat="46.03141" lon="4.70416">
        <ele>192</ele>
        <time>2018-02-09T10:08:47Z</time>
      </trkpt>
      <trkpt lat="46.03146" lon="4.70413">
        <ele>192</ele>
        <time>2018-02-09T10:08:48Z</time>
      </trkpt>
      <trkpt lat="46.03151" lon="4.70411">
        <ele>192</ele>
        <time>2018-02-09T10:08:49Z</time>
      </trkpt>
      <trkpt lat="46.03156" lon="4.70409">
        <ele>192</ele>
        <time>2018-02-09T10:08:50Z</time>
      </trkpt>
      <trkpt lat="46.03161" lon="4.70407">
        <ele>192</ele>
        <time>2018-02-09T10:08:51Z</time>
      </trkpt>
      <trkpt lat="46.03166" lon="4.70404">
        <ele>192</ele>
        <time>2018-02-09T10:08:52Z</time>
      </trkpt>
      <trkpt lat="46.03171" lon="4.70401">
        <ele>192</ele>
        <time>2018-02-09T10:08:53Z</time>
      </trkpt>
      <trkpt lat="46.03175" lon="4.70399">
        <ele>192</ele>
        <time>2018-02-09T10:08:54Z</time>
      </trkpt>
      <trkpt lat="46.03181" lon="4.70396">
        <ele>192</ele>
        <time>2018-02-09T10:08:55Z</time>
      </trkpt>
      <trkpt lat="46.03186" lon="4.70393">
        <ele>192</ele>
        <time>2018-02-09T10:08:56Z</time>
      </trkpt>
      <trkpt lat="46.03191" lon="4.70391">
        <ele>192</ele>
        <time>2018-02-09T10:08:57Z</time>
      </trkpt>
      <trkpt lat="46.03196" lon="4.70388">
        <ele>192</ele>
        <time>2018-02-09T10:08:58Z</time>
      </trkpt>
      <trkpt lat="46.03201" lon="4.70386">
        <ele>192</ele>
        <time>2018-02-09T10:08:59Z</time>
      </trkpt>
      <trkpt lat="46.03205" lon="4.70383">
        <ele>192</ele>
        <time>2018-02-09T10:09:00Z</time>
      </trkpt>
      <trkpt lat="46.0321" lon="4.7038">
        <ele>192</ele>
        <time>2018-02-09T10:09:01Z</time>
      </trkpt>
      <trkpt lat="46.03217" lon="4.70377">
        <ele>192</ele>
        <time>2018-02-09T10:09:03Z</time>
      </trkpt>
      <trkpt lat="46.03222" lon="4.70374">
        <ele>192</ele>
        <time>2018-02-09T10:09:04Z</time>
      </trkpt>
      <trkpt lat="46.03228" lon="4.70371">
        <ele>192</ele>
        <time>2018-02-09T10:09:05Z</time>
      </trkpt>
      <trkpt lat="46.03233" lon="4.70369">
        <ele>192</ele>
        <time>2018-02-09T10:09:06Z</time>
      </trkpt>
      <trkpt lat="46.03236" lon="4.70368">
        <ele>192</ele>
        <time>2018-02-09T10:09:07Z</time>
      </trkpt>
      <trkpt lat="46.03242" lon="4.70365">
        <ele>192</ele>
        <time>2018-02-09T10:09:08Z</time>
      </trkpt>
      <trkpt lat="46.03247" lon="4.70363">
        <ele>192</ele>
        <time>2018-02-09T10:09:09Z</time>
      </trkpt>
      <trkpt lat="46.03252" lon="4.70361">
        <ele>191</ele>
        <time>2018-02-09T10:09:10Z</time>
      </trkpt>
      <trkpt lat="46.03257" lon="4.70358">
        <ele>191</ele>
        <time>2018-02-09T10:09:11Z</time>
      </trkpt>
      <trkpt lat="46.03262" lon="4.70356">
        <ele>191</ele>
        <time>2018-02-09T10:09:12Z</time>
      </trkpt>
      <trkpt lat="46.03267" lon="4.70355">
        <ele>191</ele>
        <time>2018-02-09T10:09:13Z</time>
      </trkpt>
      <trkpt lat="46.03272" lon="4.70353">
        <ele>191</ele>
        <time>2018-02-09T10:09:14Z</time>
      </trkpt>
      <trkpt lat="46.03277" lon="4.70352">
        <ele>191</ele>
        <time>2018-02-09T10:09:15Z</time>
      </trkpt>
      <trkpt lat="46.03283" lon="4.7035">
        <ele>191</ele>
        <time>2018-02-09T10:09:16Z</time>
      </trkpt>
      <trkpt lat="46.03288" lon="4.70348">
        <ele>191</ele>
        <time>2018-02-09T10:09:17Z</time>
      </trkpt>
      <trkpt lat="46.03293" lon="4.70346">
        <ele>191</ele>
        <time>2018-02-09T10:09:18Z</time>
      </trkpt>
      <trkpt lat="46.03298" lon="4.70345">
        <ele>191</ele>
        <time>2018-02-09T10:09:19Z</time>
      </trkpt>
      <trkpt lat="46.03304" lon="4.70342">
        <ele>191</ele>
        <time>2018-02-09T10:09:20Z</time>
      </trkpt>
      <trkpt lat="46.0331" lon="4.7034">
        <ele>191</ele>
        <time>2018-02-09T10:09:21Z</time>
      </trkpt>
      <trkpt lat="46.03316" lon="4.70338">
        <ele>191</ele>
        <time>2018-02-09T10:09:22Z</time>
      </trkpt>
      <trkpt lat="46.03321" lon="4.70337">
        <ele>191</ele>
        <time>2018-02-09T10:09:23Z</time>
      </trkpt>
      <trkpt lat="46.03328" lon="4.70335">
        <ele>191</ele>
        <time>2018-02-09T10:09:24Z</time>
      </trkpt>
      <trkpt lat="46.03334" lon="4.70332">
        <ele>191</ele>
        <time>2018-02-09T10:09:25Z</time>
      </trkpt>
      <trkpt lat="46.0334" lon="4.7033">
        <ele>191</ele>
        <time>2018-02-09T10:09:26Z</time>
      </trkpt>
      <trkpt lat="46.03346" lon="4.70328">
        <ele>191</ele>
        <time>2018-02-09T10:09:27Z</time>
      </trkpt>
      <trkpt lat="46.03352" lon="4.70325">
        <ele>191</ele>
        <time>2018-02-09T10:09:28Z</time>
      </trkpt>
      <trkpt lat="46.03358" lon="4.70323">
        <ele>191</ele>
        <time>2018-02-09T10:09:29Z</time>
      </trkpt>
      <trkpt lat="46.03364" lon="4.70321">
        <ele>191</ele>
        <time>2018-02-09T10:09:30Z</time>
      </trkpt>
      <trkpt lat="46.0337" lon="4.70318">
        <ele>191</ele>
        <time>2018-02-09T10:09:31Z</time>
      </trkpt>
      <trkpt lat="46.03377" lon="4.70316">
        <ele>191</ele>
        <time>2018-02-09T10:09:32Z</time>
      </trkpt>
      <trkpt lat="46.03383" lon="4.70314">
        <ele>191</ele>
        <time>2018-02-09T10:09:33Z</time>
      </trkpt>
      <trkpt lat="46.03389" lon="4.70312">
        <ele>190</ele>
        <time>2018-02-09T10:09:34Z</time>
      </trkpt>
      <trkpt lat="46.03395" lon="4.70308">
        <ele>190</ele>
        <time>2018-02-09T10:09:35Z</time>
      </trkpt>
      <trkpt lat="46.03402" lon="4.70306">
        <ele>190</ele>
        <time>2018-02-09T10:09:36Z</time>
      </trkpt>
      <trkpt lat="46.03408" lon="4.70302">
        <ele>190</ele>
        <time>2018-02-09T10:09:37Z</time>
      </trkpt>
      <trkpt lat="46.03413" lon="4.703">
        <ele>190</ele>
        <time>2018-02-09T10:09:38Z</time>
      </trkpt>
      <trkpt lat="46.03419" lon="4.70297">
        <ele>188</ele>
        <time>2018-02-09T10:09:39Z</time>
      </trkpt>
      <trkpt lat="46.03425" lon="4.70295">
        <ele>188</ele>
        <time>2018-02-09T10:09:40Z</time>
      </trkpt>
      <trkpt lat="46.03431" lon="4.70293">
        <ele>188</ele>
        <time>2018-02-09T10:09:41Z</time>
      </trkpt>
      <trkpt lat="46.03437" lon="4.70292">
        <ele>188</ele>
        <time>2018-02-09T10:09:42Z</time>
      </trkpt>
      <trkpt lat="46.03444" lon="4.7029">
        <ele>188</ele>
        <time>2018-02-09T10:09:43Z</time>
      </trkpt>
      <trkpt lat="46.03449" lon="4.70289">
        <ele>188</ele>
        <time>2018-02-09T10:09:44Z</time>
      </trkpt>
      <trkpt lat="46.03455" lon="4.70287">
        <ele>188</ele>
        <time>2018-02-09T10:09:45Z</time>
      </trkpt>
      <trkpt lat="46.0346" lon="4.70284">
        <ele>188</ele>
        <time>2018-02-09T10:09:46Z</time>
      </trkpt>
      <trkpt lat="46.03466" lon="4.70283">
        <ele>188</ele>
        <time>2018-02-09T10:09:47Z</time>
      </trkpt>
      <trkpt lat="46.03472" lon="4.7028">
        <ele>188</ele>
        <time>2018-02-09T10:09:48Z</time>
      </trkpt>
      <trkpt lat="46.03477" lon="4.70279">
        <ele>188</ele>
        <time>2018-02-09T10:09:49Z</time>
      </trkpt>
      <trkpt lat="46.03482" lon="4.70277">
        <ele>188</ele>
        <time>2018-02-09T10:09:50Z</time>
      </trkpt>
      <trkpt lat="46.03487" lon="4.70276">
        <ele>188</ele>
        <time>2018-02-09T10:09:51Z</time>
      </trkpt>
      <trkpt lat="46.03493" lon="4.70274">
        <ele>188</ele>
        <time>2018-02-09T10:09:52Z</time>
      </trkpt>
      <trkpt lat="46.03498" lon="4.70272">
        <ele>187</ele>
        <time>2018-02-09T10:09:53Z</time>
      </trkpt>
      <trkpt lat="46.03504" lon="4.70268">
        <ele>187</ele>
        <time>2018-02-09T10:09:54Z</time>
      </trkpt>
      <trkpt lat="46.03509" lon="4.70266">
        <ele>187</ele>
        <time>2018-02-09T10:09:55Z</time>
      </trkpt>
      <trkpt lat="46.03514" lon="4.70265">
        <ele>187</ele>
        <time>2018-02-09T10:09:56Z</time>
      </trkpt>
      <trkpt lat="46.03522" lon="4.70257">
        <ele>187</ele>
        <time>2018-02-09T10:09:57Z</time>
      </trkpt>
      <trkpt lat="46.03529" lon="4.70257">
        <ele>187</ele>
        <time>2018-02-09T10:09:59Z</time>
      </trkpt>
      <trkpt lat="46.03534" lon="4.70256">
        <ele>188</ele>
        <time>2018-02-09T10:10:00Z</time>
      </trkpt>
      <trkpt lat="46.03542" lon="4.70253">
        <ele>188</ele>
        <time>2018-02-09T10:10:02Z</time>
      </trkpt>
      <trkpt lat="46.03546" lon="4.7025">
        <ele>188</ele>
        <time>2018-02-09T10:10:03Z</time>
      </trkpt>
      <trkpt lat="46.03554" lon="4.70248">
        <ele>190</ele>
        <time>2018-02-09T10:10:05Z</time>
      </trkpt>
      <trkpt lat="46.03559" lon="4.70246">
        <ele>190</ele>
        <time>2018-02-09T10:10:06Z</time>
      </trkpt>
      <trkpt lat="46.03562" lon="4.70245">
        <ele>190</ele>
        <time>2018-02-09T10:10:07Z</time>
      </trkpt>
      <trkpt lat="46.03568" lon="4.70241">
        <ele>190</ele>
        <time>2018-02-09T10:10:08Z</time>
      </trkpt>
      <trkpt lat="46.03576" lon="4.70239">
        <ele>190</ele>
        <time>2018-02-09T10:10:10Z</time>
      </trkpt>
      <trkpt lat="46.03581" lon="4.70238">
        <ele>190</ele>
        <time>2018-02-09T10:10:11Z</time>
      </trkpt>
      <trkpt lat="46.03585" lon="4.70236">
        <ele>190</ele>
        <time>2018-02-09T10:10:12Z</time>
      </trkpt>
      <trkpt lat="46.03591" lon="4.70234">
        <ele>190</ele>
        <time>2018-02-09T10:10:13Z</time>
      </trkpt>
      <trkpt lat="46.03599" lon="4.70231">
        <ele>190</ele>
        <time>2018-02-09T10:10:15Z</time>
      </trkpt>
      <trkpt lat="46.03602" lon="4.7023">
        <ele>190</ele>
        <time>2018-02-09T10:10:16Z</time>
      </trkpt>
      <trkpt lat="46.03611" lon="4.70227">
        <ele>190</ele>
        <time>2018-02-09T10:10:18Z</time>
      </trkpt>
      <trkpt lat="46.03616" lon="4.70226">
        <ele>190</ele>
        <time>2018-02-09T10:10:19Z</time>
      </trkpt>
      <trkpt lat="46.03621" lon="4.70225">
        <ele>190</ele>
        <time>2018-02-09T10:10:20Z</time>
      </trkpt>
      <trkpt lat="46.03626" lon="4.70224">
        <ele>190</ele>
        <time>2018-02-09T10:10:21Z</time>
      </trkpt>
      <trkpt lat="46.03632" lon="4.7022">
        <ele>190</ele>
        <time>2018-02-09T10:10:22Z</time>
      </trkpt>
      <trkpt lat="46.03637" lon="4.70219">
        <ele>190</ele>
        <time>2018-02-09T10:10:23Z</time>
      </trkpt>
      <trkpt lat="46.03646" lon="4.70216">
        <ele>190</ele>
        <time>2018-02-09T10:10:25Z</time>
      </trkpt>
      <trkpt lat="46.03651" lon="4.70214">
        <ele>190</ele>
        <time>2018-02-09T10:10:26Z</time>
      </trkpt>
      <trkpt lat="46.03657" lon="4.70213">
        <ele>190</ele>
        <time>2018-02-09T10:10:27Z</time>
      </trkpt>
      <trkpt lat="46.03662" lon="4.7021">
        <ele>190</ele>
        <time>2018-02-09T10:10:28Z</time>
      </trkpt>
      <trkpt lat="46.03668" lon="4.70208">
        <ele>189</ele>
        <time>2018-02-09T10:10:29Z</time>
      </trkpt>
      <trkpt lat="46.03674" lon="4.70205">
        <ele>189</ele>
        <time>2018-02-09T10:10:30Z</time>
      </trkpt>
      <trkpt lat="46.03679" lon="4.70204">
        <ele>189</ele>
        <time>2018-02-09T10:10:31Z</time>
      </trkpt>
      <trkpt lat="46.03685" lon="4.70202">
        <ele>189</ele>
        <time>2018-02-09T10:10:32Z</time>
      </trkpt>
      <trkpt lat="46.0369" lon="4.70201">
        <ele>189</ele>
        <time>2018-02-09T10:10:33Z</time>
      </trkpt>
      <trkpt lat="46.03696" lon="4.70199">
        <ele>189</ele>
        <time>2018-02-09T10:10:34Z</time>
      </trkpt>
      <trkpt lat="46.03703" lon="4.70196">
        <ele>188</ele>
        <time>2018-02-09T10:10:35Z</time>
      </trkpt>
      <trkpt lat="46.03709" lon="4.70194">
        <ele>188</ele>
        <time>2018-02-09T10:10:36Z</time>
      </trkpt>
      <trkpt lat="46.03716" lon="4.7019">
        <ele>188</ele>
        <time>2018-02-09T10:10:37Z</time>
      </trkpt>
      <trkpt lat="46.03722" lon="4.70186">
        <ele>188</ele>
        <time>2018-02-09T10:10:38Z</time>
      </trkpt>
      <trkpt lat="46.03728" lon="4.70184">
        <ele>188</ele>
        <time>2018-02-09T10:10:39Z</time>
      </trkpt>
      <trkpt lat="46.03732" lon="4.70182">
        <ele>188</ele>
        <time>2018-02-09T10:10:40Z</time>
      </trkpt>
      <trkpt lat="46.03738" lon="4.7018">
        <ele>188</ele>
        <time>2018-02-09T10:10:41Z</time>
      </trkpt>
      <trkpt lat="46.03743" lon="4.70179">
        <ele>188</ele>
        <time>2018-02-09T10:10:42Z</time>
      </trkpt>
      <trkpt lat="46.03747" lon="4.70177">
        <ele>187</ele>
        <time>2018-02-09T10:10:43Z</time>
      </trkpt>
      <trkpt lat="46.03752" lon="4.70175">
        <ele>188</ele>
        <time>2018-02-09T10:10:44Z</time>
      </trkpt>
      <trkpt lat="46.03758" lon="4.70174">
        <ele>188</ele>
        <time>2018-02-09T10:10:45Z</time>
      </trkpt>
      <trkpt lat="46.03762" lon="4.70171">
        <ele>188</ele>
        <time>2018-02-09T10:10:46Z</time>
      </trkpt>
      <trkpt lat="46.03769" lon="4.70169">
        <ele>188</ele>
        <time>2018-02-09T10:10:47Z</time>
      </trkpt>
      <trkpt lat="46.03774" lon="4.70168">
        <ele>189</ele>
        <time>2018-02-09T10:10:48Z</time>
      </trkpt>
      <trkpt lat="46.03779" lon="4.70165">
        <ele>189</ele>
        <time>2018-02-09T10:10:49Z</time>
      </trkpt>
      <trkpt lat="46.03786" lon="4.70162">
        <ele>189</ele>
        <time>2018-02-09T10:10:50Z</time>
      </trkpt>
      <trkpt lat="46.03792" lon="4.70158">
        <ele>189</ele>
        <time>2018-02-09T10:10:51Z</time>
      </trkpt>
      <trkpt lat="46.03798" lon="4.70156">
        <ele>189</ele>
        <time>2018-02-09T10:10:52Z</time>
      </trkpt>
      <trkpt lat="46.03804" lon="4.70154">
        <ele>190</ele>
        <time>2018-02-09T10:10:53Z</time>
      </trkpt>
      <trkpt lat="46.03808" lon="4.70151">
        <ele>190</ele>
        <time>2018-02-09T10:10:54Z</time>
      </trkpt>
      <trkpt lat="46.03815" lon="4.70148">
        <ele>190</ele>
        <time>2018-02-09T10:10:55Z</time>
      </trkpt>
      <trkpt lat="46.03819" lon="4.70146">
        <ele>190</ele>
        <time>2018-02-09T10:10:56Z</time>
      </trkpt>
      <trkpt lat="46.03827" lon="4.70142">
        <ele>190</ele>
        <time>2018-02-09T10:10:58Z</time>
      </trkpt>
      <trkpt lat="46.03832" lon="4.7014">
        <ele>190</ele>
        <time>2018-02-09T10:10:59Z</time>
      </trkpt>
      <trkpt lat="46.03838" lon="4.70139">
        <ele>192</ele>
        <time>2018-02-09T10:11:00Z</time>
      </trkpt>
      <trkpt lat="46.03843" lon="4.70137">
        <ele>192</ele>
        <time>2018-02-09T10:11:01Z</time>
      </trkpt>
      <trkpt lat="46.03851" lon="4.70135">
        <ele>193</ele>
        <time>2018-02-09T10:11:03Z</time>
      </trkpt>
      <trkpt lat="46.03856" lon="4.70134">
        <ele>193</ele>
        <time>2018-02-09T10:11:04Z</time>
      </trkpt>
      <trkpt lat="46.03861" lon="4.70132">
        <ele>193</ele>
        <time>2018-02-09T10:11:05Z</time>
      </trkpt>
      <trkpt lat="46.03865" lon="4.70132">
        <ele>193</ele>
        <time>2018-02-09T10:11:06Z</time>
      </trkpt>
      <trkpt lat="46.03874" lon="4.70128">
        <ele>193</ele>
        <time>2018-02-09T10:11:08Z</time>
      </trkpt>
      <trkpt lat="46.03877" lon="4.70126">
        <ele>193</ele>
        <time>2018-02-09T10:11:09Z</time>
      </trkpt>
      <trkpt lat="46.03881" lon="4.70124">
        <ele>193</ele>
        <time>2018-02-09T10:11:10Z</time>
      </trkpt>
      <trkpt lat="46.03886" lon="4.70122">
        <ele>193</ele>
        <time>2018-02-09T10:11:11Z</time>
      </trkpt>
      <trkpt lat="46.03891" lon="4.70119">
        <ele>193</ele>
        <time>2018-02-09T10:11:12Z</time>
      </trkpt>
      <trkpt lat="46.03896" lon="4.70116">
        <ele>194</ele>
        <time>2018-02-09T10:11:13Z</time>
      </trkpt>
      <trkpt lat="46.03903" lon="4.70111">
        <ele>194</ele>
        <time>2018-02-09T10:11:15Z</time>
      </trkpt>
      <trkpt lat="46.03909" lon="4.70109">
        <ele>194</ele>
        <time>2018-02-09T10:11:16Z</time>
      </trkpt>
      <trkpt lat="46.03914" lon="4.70107">
        <ele>194</ele>
        <time>2018-02-09T10:11:17Z</time>
      </trkpt>
      <trkpt lat="46.03918" lon="4.70106">
        <ele>195</ele>
        <time>2018-02-09T10:11:18Z</time>
      </trkpt>
      <trkpt lat="46.03924" lon="4.70105">
        <ele>195</ele>
        <time>2018-02-09T10:11:19Z</time>
      </trkpt>
      <trkpt lat="46.03928" lon="4.70106">
        <ele>196</ele>
        <time>2018-02-09T10:11:20Z</time>
      </trkpt>
      <trkpt lat="46.03937" lon="4.70104">
        <ele>196</ele>
        <time>2018-02-09T10:11:22Z</time>
      </trkpt>
      <trkpt lat="46.03942" lon="4.70102">
        <ele>196</ele>
        <time>2018-02-09T10:11:23Z</time>
      </trkpt>
      <trkpt lat="46.03948" lon="4.70102">
        <ele>196</ele>
        <time>2018-02-09T10:11:25Z</time>
      </trkpt>
      <trkpt lat="46.03951" lon="4.70101">
        <ele>196</ele>
        <time>2018-02-09T10:11:26Z</time>
      </trkpt>
      <trkpt lat="46.03956" lon="4.70101">
        <ele>196</ele>
        <time>2018-02-09T10:11:27Z</time>
      </trkpt>
      <trkpt lat="46.03961" lon="4.70099">
        <ele>196</ele>
        <time>2018-02-09T10:11:28Z</time>
      </trkpt>
      <trkpt lat="46.03969" lon="4.70096">
        <ele>196</ele>
        <time>2018-02-09T10:11:30Z</time>
      </trkpt>
      <trkpt lat="46.03973" lon="4.70095">
        <ele>196</ele>
        <time>2018-02-09T10:11:31Z</time>
      </trkpt>
      <trkpt lat="46.03978" lon="4.70094">
        <ele>196</ele>
        <time>2018-02-09T10:11:32Z</time>
      </trkpt>
      <trkpt lat="46.03982" lon="4.70093">
        <ele>196</ele>
        <time>2018-02-09T10:11:33Z</time>
      </trkpt>
      <trkpt lat="46.03988" lon="4.70092">
        <ele>196</ele>
        <time>2018-02-09T10:11:34Z</time>
      </trkpt>
      <trkpt lat="46.03992" lon="4.70092">
        <ele>196</ele>
        <time>2018-02-09T10:11:35Z</time>
      </trkpt>
      <trkpt lat="46.03998" lon="4.7009">
        <ele>196</ele>
        <time>2018-02-09T10:11:36Z</time>
      </trkpt>
      <trkpt lat="46.04002" lon="4.70091">
        <ele>196</ele>
        <time>2018-02-09T10:11:37Z</time>
      </trkpt>
      <trkpt lat="46.04006" lon="4.70091">
        <ele>196</ele>
        <time>2018-02-09T10:11:38Z</time>
      </trkpt>
      <trkpt lat="46.04012" lon="4.70086">
        <ele>196</ele>
        <time>2018-02-09T10:11:39Z</time>
      </trkpt>
      <trkpt lat="46.04017" lon="4.70085">
        <ele>195</ele>
        <time>2018-02-09T10:11:40Z</time>
      </trkpt>
      <trkpt lat="46.04022" lon="4.70086">
        <ele>195</ele>
        <time>2018-02-09T10:11:41Z</time>
      </trkpt>
      <trkpt lat="46.04028" lon="4.70087">
        <ele>195</ele>
        <time>2018-02-09T10:11:42Z</time>
      </trkpt>
      <trkpt lat="46.04035" lon="4.70084">
        <ele>195</ele>
        <time>2018-02-09T10:11:43Z</time>
      </trkpt>
      <trkpt lat="46.0404" lon="4.70085">
        <ele>195</ele>
        <time>2018-02-09T10:11:44Z</time>
      </trkpt>
      <trkpt lat="46.04046" lon="4.70084">
        <ele>195</ele>
        <time>2018-02-09T10:11:45Z</time>
      </trkpt>
      <trkpt lat="46.04052" lon="4.70084">
        <ele>195</ele>
        <time>2018-02-09T10:11:46Z</time>
      </trkpt>
      <trkpt lat="46.04058" lon="4.70083">
        <ele>194</ele>
        <time>2018-02-09T10:11:47Z</time>
      </trkpt>
      <trkpt lat="46.04065" lon="4.70084">
        <ele>195</ele>
        <time>2018-02-09T10:11:49Z</time>
      </trkpt>
      <trkpt lat="46.04072" lon="4.70085">
        <ele>194</ele>
        <time>2018-02-09T10:11:50Z</time>
      </trkpt>
      <trkpt lat="46.04077" lon="4.70084">
        <ele>194</ele>
        <time>2018-02-09T10:11:51Z</time>
      </trkpt>
      <trkpt lat="46.04082" lon="4.70083">
        <ele>194</ele>
        <time>2018-02-09T10:11:52Z</time>
      </trkpt>
      <trkpt lat="46.04087" lon="4.70082">
        <ele>194</ele>
        <time>2018-02-09T10:11:53Z</time>
      </trkpt>
      <trkpt lat="46.04092" lon="4.7008">
        <ele>193</ele>
        <time>2018-02-09T10:11:54Z</time>
      </trkpt>
      <trkpt lat="46.04097" lon="4.70079">
        <ele>193</ele>
        <time>2018-02-09T10:11:55Z</time>
      </trkpt>
      <trkpt lat="46.04101" lon="4.70076">
        <ele>193</ele>
        <time>2018-02-09T10:11:56Z</time>
      </trkpt>
      <trkpt lat="46.04106" lon="4.70072">
        <ele>193</ele>
        <time>2018-02-09T10:11:57Z</time>
      </trkpt>
      <trkpt lat="46.04111" lon="4.70071">
        <ele>193</ele>
        <time>2018-02-09T10:11:58Z</time>
      </trkpt>
      <trkpt lat="46.04114" lon="4.7007">
        <ele>192</ele>
        <time>2018-02-09T10:11:59Z</time>
      </trkpt>
      <trkpt lat="46.04121" lon="4.70065">
        <ele>192</ele>
        <time>2018-02-09T10:12:00Z</time>
      </trkpt>
      <trkpt lat="46.04128" lon="4.70061">
        <ele>192</ele>
        <time>2018-02-09T10:12:02Z</time>
      </trkpt>
      <trkpt lat="46.04134" lon="4.70058">
        <ele>192</ele>
        <time>2018-02-09T10:12:03Z</time>
      </trkpt>
      <trkpt lat="46.04138" lon="4.70055">
        <ele>192</ele>
        <time>2018-02-09T10:12:04Z</time>
      </trkpt>
      <trkpt lat="46.04143" lon="4.70051">
        <ele>191</ele>
        <time>2018-02-09T10:12:05Z</time>
      </trkpt>
      <trkpt lat="46.04149" lon="4.70047">
        <ele>191</ele>
        <time>2018-02-09T10:12:06Z</time>
      </trkpt>
      <trkpt lat="46.04152" lon="4.70043">
        <ele>191</ele>
        <time>2018-02-09T10:12:07Z</time>
      </trkpt>
      <trkpt lat="46.04158" lon="4.70041">
        <ele>191</ele>
        <time>2018-02-09T10:12:08Z</time>
      </trkpt>
      <trkpt lat="46.04161" lon="4.70037">
        <ele>191</ele>
        <time>2018-02-09T10:12:09Z</time>
      </trkpt>
      <trkpt lat="46.04167" lon="4.70033">
        <ele>191</ele>
        <time>2018-02-09T10:12:10Z</time>
      </trkpt>
      <trkpt lat="46.04173" lon="4.70028">
        <ele>189</ele>
        <time>2018-02-09T10:12:11Z</time>
      </trkpt>
      <trkpt lat="46.04178" lon="4.70024">
        <ele>189</ele>
        <time>2018-02-09T10:12:12Z</time>
      </trkpt>
      <trkpt lat="46.04183" lon="4.70022">
        <ele>189</ele>
        <time>2018-02-09T10:12:13Z</time>
      </trkpt>
      <trkpt lat="46.04191" lon="4.70017">
        <ele>188</ele>
        <time>2018-02-09T10:12:15Z</time>
      </trkpt>
      <trkpt lat="46.04197" lon="4.70011">
        <ele>188</ele>
        <time>2018-02-09T10:12:16Z</time>
      </trkpt>
      <trkpt lat="46.04202" lon="4.70007">
        <ele>188</ele>
        <time>2018-02-09T10:12:17Z</time>
      </trkpt>
      <trkpt lat="46.04205" lon="4.70004">
        <ele>188</ele>
        <time>2018-02-09T10:12:18Z</time>
      </trkpt>
      <trkpt lat="46.04212" lon="4.69999">
        <ele>188</ele>
        <time>2018-02-09T10:12:20Z</time>
      </trkpt>
      <trkpt lat="46.04216" lon="4.69995">
        <ele>188</ele>
        <time>2018-02-09T10:12:21Z</time>
      </trkpt>
      <trkpt lat="46.04219" lon="4.69992">
        <ele>188</ele>
        <time>2018-02-09T10:12:22Z</time>
      </trkpt>
      <trkpt lat="46.04224" lon="4.69985">
        <ele>188</ele>
        <time>2018-02-09T10:12:23Z</time>
      </trkpt>
      <trkpt lat="46.0423" lon="4.69981">
        <ele>188</ele>
        <time>2018-02-09T10:12:25Z</time>
      </trkpt>
      <trkpt lat="46.04233" lon="4.69979">
        <ele>188</ele>
        <time>2018-02-09T10:12:26Z</time>
      </trkpt>
      <trkpt lat="46.04238" lon="4.69974">
        <ele>188</ele>
        <time>2018-02-09T10:12:28Z</time>
      </trkpt>
      <trkpt lat="46.04241" lon="4.69971">
        <ele>188</ele>
        <time>2018-02-09T10:12:29Z</time>
      </trkpt>
      <trkpt lat="46.04245" lon="4.69967">
        <ele>188</ele>
        <time>2018-02-09T10:12:30Z</time>
      </trkpt>
      <trkpt lat="46.04249" lon="4.69964">
        <ele>188</ele>
        <time>2018-02-09T10:12:31Z</time>
      </trkpt>
      <trkpt lat="46.04256" lon="4.69956">
        <ele>188</ele>
        <time>2018-02-09T10:12:33Z</time>
      </trkpt>
      <trkpt lat="46.04261" lon="4.69952">
        <ele>188</ele>
        <time>2018-02-09T10:12:34Z</time>
      </trkpt>
      <trkpt lat="46.04265" lon="4.69948">
        <ele>188</ele>
        <time>2018-02-09T10:12:35Z</time>
      </trkpt>
      <trkpt lat="46.0427" lon="4.69945">
        <ele>189</ele>
        <time>2018-02-09T10:12:36Z</time>
      </trkpt>
      <trkpt lat="46.04276" lon="4.69939">
        <ele>189</ele>
        <time>2018-02-09T10:12:38Z</time>
      </trkpt>
      <trkpt lat="46.0428" lon="4.69935">
        <ele>189</ele>
        <time>2018-02-09T10:12:39Z</time>
      </trkpt>
      <trkpt lat="46.04286" lon="4.69929">
        <ele>189</ele>
        <time>2018-02-09T10:12:41Z</time>
      </trkpt>
      <trkpt lat="46.04289" lon="4.69926">
        <ele>189</ele>
        <time>2018-02-09T10:12:42Z</time>
      </trkpt>
      <trkpt lat="46.04295" lon="4.69917">
        <ele>189</ele>
        <time>2018-02-09T10:12:44Z</time>
      </trkpt>
      <trkpt lat="46.04298" lon="4.69913">
        <ele>190</ele>
        <time>2018-02-09T10:12:45Z</time>
      </trkpt>
      <trkpt lat="46.04304" lon="4.69906">
        <ele>190</ele>
        <time>2018-02-09T10:12:47Z</time>
      </trkpt>
      <trkpt lat="46.04307" lon="4.69901">
        <ele>190</ele>
        <time>2018-02-09T10:12:48Z</time>
      </trkpt>
      <trkpt lat="46.04313" lon="4.69893">
        <ele>190</ele>
        <time>2018-02-09T10:12:50Z</time>
      </trkpt>
      <trkpt lat="46.04316" lon="4.69888">
        <ele>190</ele>
        <time>2018-02-09T10:12:51Z</time>
      </trkpt>
      <trkpt lat="46.04321" lon="4.69879">
        <ele>190</ele>
        <time>2018-02-09T10:12:53Z</time>
      </trkpt>
      <trkpt lat="46.04324" lon="4.69874">
        <ele>191</ele>
        <time>2018-02-09T10:12:54Z</time>
      </trkpt>
      <trkpt lat="46.04329" lon="4.69865">
        <ele>191</ele>
        <time>2018-02-09T10:12:56Z</time>
      </trkpt>
      <trkpt lat="46.04332" lon="4.6986">
        <ele>191</ele>
        <time>2018-02-09T10:12:57Z</time>
      </trkpt>
      <trkpt lat="46.04335" lon="4.69855">
        <ele>192</ele>
        <time>2018-02-09T10:12:58Z</time>
      </trkpt>
      <trkpt lat="46.04338" lon="4.6985">
        <ele>192</ele>
        <time>2018-02-09T10:12:59Z</time>
      </trkpt>
      <trkpt lat="46.04346" lon="4.69843">
        <ele>192</ele>
        <time>2018-02-09T10:13:01Z</time>
      </trkpt>
      <trkpt lat="46.04349" lon="4.6984">
        <ele>193</ele>
        <time>2018-02-09T10:13:02Z</time>
      </trkpt>
      <trkpt lat="46.04357" lon="4.69835">
        <ele>193</ele>
        <time>2018-02-09T10:13:04Z</time>
      </trkpt>
      <trkpt lat="46.04361" lon="4.69833">
        <ele>193</ele>
        <time>2018-02-09T10:13:05Z</time>
      </trkpt>
      <trkpt lat="46.04369" lon="4.6983">
        <ele>193</ele>
        <time>2018-02-09T10:13:07Z</time>
      </trkpt>
      <trkpt lat="46.04373" lon="4.69828">
        <ele>194</ele>
        <time>2018-02-09T10:13:08Z</time>
      </trkpt>
      <trkpt lat="46.04381" lon="4.69823">
        <ele>194</ele>
        <time>2018-02-09T10:13:10Z</time>
      </trkpt>
      <trkpt lat="46.04385" lon="4.69821">
        <ele>194</ele>
        <time>2018-02-09T10:13:11Z</time>
      </trkpt>
      <trkpt lat="46.04392" lon="4.69816">
        <ele>194</ele>
        <time>2018-02-09T10:13:13Z</time>
      </trkpt>
      <trkpt lat="46.04396" lon="4.69814">
        <ele>194</ele>
        <time>2018-02-09T10:13:14Z</time>
      </trkpt>
      <trkpt lat="46.04403" lon="4.69812">
        <ele>194</ele>
        <time>2018-02-09T10:13:16Z</time>
      </trkpt>
      <trkpt lat="46.04407" lon="4.69812">
        <ele>194</ele>
        <time>2018-02-09T10:13:17Z</time>
      </trkpt>
      <trkpt lat="46.04414" lon="4.69812">
        <ele>194</ele>
        <time>2018-02-09T10:13:19Z</time>
      </trkpt>
      <trkpt lat="46.04418" lon="4.69811">
        <ele>196</ele>
        <time>2018-02-09T10:13:20Z</time>
      </trkpt>
      <trkpt lat="46.04426" lon="4.69809">
        <ele>196</ele>
        <time>2018-02-09T10:13:22Z</time>
      </trkpt>
      <trkpt lat="46.04429" lon="4.69808">
        <ele>196</ele>
        <time>2018-02-09T10:13:23Z</time>
      </trkpt>
      <trkpt lat="46.04436" lon="4.69805">
        <ele>196</ele>
        <time>2018-02-09T10:13:25Z</time>
      </trkpt>
      <trkpt lat="46.0444" lon="4.69804">
        <ele>196</ele>
        <time>2018-02-09T10:13:26Z</time>
      </trkpt>
      <trkpt lat="46.04447" lon="4.69802">
        <ele>196</ele>
        <time>2018-02-09T10:13:28Z</time>
      </trkpt>
      <trkpt lat="46.04451" lon="4.69801">
        <ele>196</ele>
        <time>2018-02-09T10:13:29Z</time>
      </trkpt>
      <trkpt lat="46.04458" lon="4.69799">
        <ele>196</ele>
        <time>2018-02-09T10:13:31Z</time>
      </trkpt>
      <trkpt lat="46.04462" lon="4.69799">
        <ele>197</ele>
        <time>2018-02-09T10:13:32Z</time>
      </trkpt>
      <trkpt lat="46.04469" lon="4.69798">
        <ele>197</ele>
        <time>2018-02-09T10:13:34Z</time>
      </trkpt>
      <trkpt lat="46.04473" lon="4.69798">
        <ele>197</ele>
        <time>2018-02-09T10:13:35Z</time>
      </trkpt>
      <trkpt lat="46.0448" lon="4.69796">
        <ele>197</ele>
        <time>2018-02-09T10:13:37Z</time>
      </trkpt>
      <trkpt lat="46.04483" lon="4.69795">
        <ele>197</ele>
        <time>2018-02-09T10:13:38Z</time>
      </trkpt>
      <trkpt lat="46.0449" lon="4.69793">
        <ele>197</ele>
        <time>2018-02-09T10:13:40Z</time>
      </trkpt>
      <trkpt lat="46.04493" lon="4.69792">
        <ele>197</ele>
        <time>2018-02-09T10:13:41Z</time>
      </trkpt>
      <trkpt lat="46.04501" lon="4.69791">
        <ele>199</ele>
        <time>2018-02-09T10:13:43Z</time>
      </trkpt>
      <trkpt lat="46.04504" lon="4.69791">
        <ele>199</ele>
        <time>2018-02-09T10:13:44Z</time>
      </trkpt>
      <trkpt lat="46.04511" lon="4.6979">
        <ele>199</ele>
        <time>2018-02-09T10:13:46Z</time>
      </trkpt>
      <trkpt lat="46.04514" lon="4.69789">
        <ele>199</ele>
        <time>2018-02-09T10:13:47Z</time>
      </trkpt>
      <trkpt lat="46.0452" lon="4.6979">
        <ele>199</ele>
        <time>2018-02-09T10:13:49Z</time>
      </trkpt>
      <trkpt lat="46.04523" lon="4.69791">
        <ele>199</ele>
        <time>2018-02-09T10:13:50Z</time>
      </trkpt>
      <trkpt lat="46.04532" lon="4.6979">
        <ele>199</ele>
        <time>2018-02-09T10:13:53Z</time>
      </trkpt>
      <trkpt lat="46.04535" lon="4.69791">
        <ele>199</ele>
        <time>2018-02-09T10:13:54Z</time>
      </trkpt>
      <trkpt lat="46.04541" lon="4.69793">
        <ele>199</ele>
        <time>2018-02-09T10:13:56Z</time>
      </trkpt>
      <trkpt lat="46.04544" lon="4.69794">
        <ele>199</ele>
        <time>2018-02-09T10:13:57Z</time>
      </trkpt>
      <trkpt lat="46.0455" lon="4.69797">
        <ele>199</ele>
        <time>2018-02-09T10:13:59Z</time>
      </trkpt>
      <trkpt lat="46.04554" lon="4.69798">
        <ele>199</ele>
        <time>2018-02-09T10:14:00Z</time>
      </trkpt>
      <trkpt lat="46.04562" lon="4.69799">
        <ele>199</ele>
        <time>2018-02-09T10:14:02Z</time>
      </trkpt>
      <trkpt lat="46.04566" lon="4.698">
        <ele>200</ele>
        <time>2018-02-09T10:14:03Z</time>
      </trkpt>
      <trkpt lat="46.04573" lon="4.69801">
        <ele>200</ele>
        <time>2018-02-09T10:14:05Z</time>
      </trkpt>
      <trkpt lat="46.04577" lon="4.69802">
        <ele>200</ele>
        <time>2018-02-09T10:14:06Z</time>
      </trkpt>
      <trkpt lat="46.04585" lon="4.69805">
        <ele>201</ele>
        <time>2018-02-09T10:14:08Z</time>
      </trkpt>
      <trkpt lat="46.04588" lon="4.69806">
        <ele>201</ele>
        <time>2018-02-09T10:14:09Z</time>
      </trkpt>
      <trkpt lat="46.04596" lon="4.69809">
        <ele>201</ele>
        <time>2018-02-09T10:14:11Z</time>
      </trkpt>
      <trkpt lat="46.04599" lon="4.69809">
        <ele>201</ele>
        <time>2018-02-09T10:14:12Z</time>
      </trkpt>
      <trkpt lat="46.04607" lon="4.69812">
        <ele>201</ele>
        <time>2018-02-09T10:14:14Z</time>
      </trkpt>
      <trkpt lat="46.0461" lon="4.69813">
        <ele>201</ele>
        <time>2018-02-09T10:14:15Z</time>
      </trkpt>
      <trkpt lat="46.04618" lon="4.69817">
        <ele>202</ele>
        <time>2018-02-09T10:14:17Z</time>
      </trkpt>
      <trkpt lat="46.04622" lon="4.69818">
        <ele>202</ele>
        <time>2018-02-09T10:14:18Z</time>
      </trkpt>
      <trkpt lat="46.04629" lon="4.6982">
        <ele>202</ele>
        <time>2018-02-09T10:14:20Z</time>
      </trkpt>
      <trkpt lat="46.04632" lon="4.69821">
        <ele>202</ele>
        <time>2018-02-09T10:14:21Z</time>
      </trkpt>
      <trkpt lat="46.0464" lon="4.69824">
        <ele>202</ele>
        <time>2018-02-09T10:14:23Z</time>
      </trkpt>
      <trkpt lat="46.04644" lon="4.69825">
        <ele>202</ele>
        <time>2018-02-09T10:14:24Z</time>
      </trkpt>
      <trkpt lat="46.04652" lon="4.69828">
        <ele>202</ele>
        <time>2018-02-09T10:14:26Z</time>
      </trkpt>
      <trkpt lat="46.04656" lon="4.6983">
        <ele>203</ele>
        <time>2018-02-09T10:14:27Z</time>
      </trkpt>
      <trkpt lat="46.04663" lon="4.69834">
        <ele>203</ele>
        <time>2018-02-09T10:14:29Z</time>
      </trkpt>
      <trkpt lat="46.04667" lon="4.69836">
        <ele>203</ele>
        <time>2018-02-09T10:14:30Z</time>
      </trkpt>
      <trkpt lat="46.04675" lon="4.69839">
        <ele>203</ele>
        <time>2018-02-09T10:14:32Z</time>
      </trkpt>
      <trkpt lat="46.04679" lon="4.69841">
        <ele>202</ele>
        <time>2018-02-09T10:14:33Z</time>
      </trkpt>
      <trkpt lat="46.04687" lon="4.69842">
        <ele>202</ele>
        <time>2018-02-09T10:14:35Z</time>
      </trkpt>
      <trkpt lat="46.04691" lon="4.69842">
        <ele>202</ele>
        <time>2018-02-09T10:14:36Z</time>
      </trkpt>
      <trkpt lat="46.04699" lon="4.69844">
        <ele>202</ele>
        <time>2018-02-09T10:14:38Z</time>
      </trkpt>
      <trkpt lat="46.04703" lon="4.69844">
        <ele>202</ele>
        <time>2018-02-09T10:14:39Z</time>
      </trkpt>
      <trkpt lat="46.04711" lon="4.69844">
        <ele>203</ele>
        <time>2018-02-09T10:14:41Z</time>
      </trkpt>
      <trkpt lat="46.04715" lon="4.69843">
        <ele>203</ele>
        <time>2018-02-09T10:14:42Z</time>
      </trkpt>
      <trkpt lat="46.04724" lon="4.69843">
        <ele>203</ele>
        <time>2018-02-09T10:14:44Z</time>
      </trkpt>
      <trkpt lat="46.04728" lon="4.69843">
        <ele>203</ele>
        <time>2018-02-09T10:14:45Z</time>
      </trkpt>
      <trkpt lat="46.04736" lon="4.69842">
        <ele>203</ele>
        <time>2018-02-09T10:14:47Z</time>
      </trkpt>
      <trkpt lat="46.0474" lon="4.69841">
        <ele>204</ele>
        <time>2018-02-09T10:14:48Z</time>
      </trkpt>
      <trkpt lat="46.04747" lon="4.69841">
        <ele>204</ele>
        <time>2018-02-09T10:14:50Z</time>
      </trkpt>
      <trkpt lat="46.04751" lon="4.69841">
        <ele>205</ele>
        <time>2018-02-09T10:14:51Z</time>
      </trkpt>
      <trkpt lat="46.04758" lon="4.69841">
        <ele>205</ele>
        <time>2018-02-09T10:14:53Z</time>
      </trkpt>
      <trkpt lat="46.04762" lon="4.69841">
        <ele>205</ele>
        <time>2018-02-09T10:14:54Z</time>
      </trkpt>
      <trkpt lat="46.0477" lon="4.69841">
        <ele>205</ele>
        <time>2018-02-09T10:14:56Z</time>
      </trkpt>
      <trkpt lat="46.04774" lon="4.69841">
        <ele>205</ele>
        <time>2018-02-09T10:14:57Z</time>
      </trkpt>
      <trkpt lat="46.04782" lon="4.69843">
        <ele>205</ele>
        <time>2018-02-09T10:14:59Z</time>
      </trkpt>
      <trkpt lat="46.04785" lon="4.69843">
        <ele>205</ele>
        <time>2018-02-09T10:15:00Z</time>
      </trkpt>
      <trkpt lat="46.04793" lon="4.6984">
        <ele>205</ele>
        <time>2018-02-09T10:15:02Z</time>
      </trkpt>
      <trkpt lat="46.04795" lon="4.69836">
        <ele>205</ele>
        <time>2018-02-09T10:15:03Z</time>
      </trkpt>
      <trkpt lat="46.04797" lon="4.69826">
        <ele>206</ele>
        <time>2018-02-09T10:15:05Z</time>
      </trkpt>
      <trkpt lat="46.04797" lon="4.6982">
        <ele>206</ele>
        <time>2018-02-09T10:15:06Z</time>
      </trkpt>
      <trkpt lat="46.04799" lon="4.69811">
        <ele>206</ele>
        <time>2018-02-09T10:15:08Z</time>
      </trkpt>
      <trkpt lat="46.04804" lon="4.69813">
        <ele>206</ele>
        <time>2018-02-09T10:15:09Z</time>
      </trkpt>
      <trkpt lat="46.0481" lon="4.69813">
        <ele>206</ele>
        <time>2018-02-09T10:15:11Z</time>
      </trkpt>
      <trkpt lat="46.04815" lon="4.69815">
        <ele>207</ele>
        <time>2018-02-09T10:15:12Z</time>
      </trkpt>
      <trkpt lat="46.04822" lon="4.69818">
        <ele>207</ele>
        <time>2018-02-09T10:15:14Z</time>
      </trkpt>
      <trkpt lat="46.04825" lon="4.6982">
        <ele>207</ele>
        <time>2018-02-09T10:15:15Z</time>
      </trkpt>
      <trkpt lat="46.04832" lon="4.69823">
        <ele>207</ele>
        <time>2018-02-09T10:15:17Z</time>
      </trkpt>
      <trkpt lat="46.04835" lon="4.69824">
        <ele>207</ele>
        <time>2018-02-09T10:15:18Z</time>
      </trkpt>
      <trkpt lat="46.04842" lon="4.69827">
        <ele>207</ele>
        <time>2018-02-09T10:15:20Z</time>
      </trkpt>
      <trkpt lat="46.04846" lon="4.69829">
        <ele>207</ele>
        <time>2018-02-09T10:15:21Z</time>
      </trkpt>
      <trkpt lat="46.04854" lon="4.69834">
        <ele>206</ele>
        <time>2018-02-09T10:15:23Z</time>
      </trkpt>
      <trkpt lat="46.04859" lon="4.69836">
        <ele>206</ele>
        <time>2018-02-09T10:15:24Z</time>
      </trkpt>
      <trkpt lat="46.04867" lon="4.6984">
        <ele>206</ele>
        <time>2018-02-09T10:15:26Z</time>
      </trkpt>
      <trkpt lat="46.04872" lon="4.69842">
        <ele>206</ele>
        <time>2018-02-09T10:15:27Z</time>
      </trkpt>
      <trkpt lat="46.04877" lon="4.69845">
        <ele>206</ele>
        <time>2018-02-09T10:15:28Z</time>
      </trkpt>
      <trkpt lat="46.04881" lon="4.69848">
        <ele>206</ele>
        <time>2018-02-09T10:15:29Z</time>
      </trkpt>
      <trkpt lat="46.04888" lon="4.69854">
        <ele>206</ele>
        <time>2018-02-09T10:15:31Z</time>
      </trkpt>
      <trkpt lat="46.04892" lon="4.69857">
        <ele>206</ele>
        <time>2018-02-09T10:15:32Z</time>
      </trkpt>
      <trkpt lat="46.04899" lon="4.69861">
        <ele>206</ele>
        <time>2018-02-09T10:15:34Z</time>
      </trkpt>
      <trkpt lat="46.04903" lon="4.69864">
        <ele>206</ele>
        <time>2018-02-09T10:15:35Z</time>
      </trkpt>
      <trkpt lat="46.0491" lon="4.69867">
        <ele>206</ele>
        <time>2018-02-09T10:15:37Z</time>
      </trkpt>
      <trkpt lat="46.04914" lon="4.69868">
        <ele>206</ele>
        <time>2018-02-09T10:15:38Z</time>
      </trkpt>
      <trkpt lat="46.04922" lon="4.69874">
        <ele>207</ele>
        <time>2018-02-09T10:15:40Z</time>
      </trkpt>
      <trkpt lat="46.04927" lon="4.69876">
        <ele>207</ele>
        <time>2018-02-09T10:15:41Z</time>
      </trkpt>
      <trkpt lat="46.04932" lon="4.69879">
        <ele>207</ele>
        <time>2018-02-09T10:15:42Z</time>
      </trkpt>
      <trkpt lat="46.04936" lon="4.69883">
        <ele>207</ele>
        <time>2018-02-09T10:15:43Z</time>
      </trkpt>
      <trkpt lat="46.0494" lon="4.69885">
        <ele>207</ele>
        <time>2018-02-09T10:15:44Z</time>
      </trkpt>
      <trkpt lat="46.04944" lon="4.69889">
        <ele>207</ele>
        <time>2018-02-09T10:15:45Z</time>
      </trkpt>
      <trkpt lat="46.04948" lon="4.69894">
        <ele>207</ele>
        <time>2018-02-09T10:15:46Z</time>
      </trkpt>
      <trkpt lat="46.04952" lon="4.69897">
        <ele>207</ele>
        <time>2018-02-09T10:15:47Z</time>
      </trkpt>
      <trkpt lat="46.04958" lon="4.69905">
        <ele>207</ele>
        <time>2018-02-09T10:15:49Z</time>
      </trkpt>
      <trkpt lat="46.04961" lon="4.69909">
        <ele>206</ele>
        <time>2018-02-09T10:15:50Z</time>
      </trkpt>
      <trkpt lat="46.04964" lon="4.69914">
        <ele>206</ele>
        <time>2018-02-09T10:15:51Z</time>
      </trkpt>
      <trkpt lat="46.04967" lon="4.6992">
        <ele>206</ele>
        <time>2018-02-09T10:15:52Z</time>
      </trkpt>
      <trkpt lat="46.0497" lon="4.69927">
        <ele>206</ele>
        <time>2018-02-09T10:15:53Z</time>
      </trkpt>
      <trkpt lat="46.04973" lon="4.69932">
        <ele>206</ele>
        <time>2018-02-09T10:15:54Z</time>
      </trkpt>
      <trkpt lat="46.04979" lon="4.69942">
        <ele>206</ele>
        <time>2018-02-09T10:15:56Z</time>
      </trkpt>
      <trkpt lat="46.04982" lon="4.69946">
        <ele>206</ele>
        <time>2018-02-09T10:15:57Z</time>
      </trkpt>
      <trkpt lat="46.04986" lon="4.69951">
        <ele>206</ele>
        <time>2018-02-09T10:15:58Z</time>
      </trkpt>
      <trkpt lat="46.04989" lon="4.69956">
        <ele>206</ele>
        <time>2018-02-09T10:15:59Z</time>
      </trkpt>
      <trkpt lat="46.04994" lon="4.69965">
        <ele>205</ele>
        <time>2018-02-09T10:16:01Z</time>
      </trkpt>
      <trkpt lat="46.04997" lon="4.6997">
        <ele>205</ele>
        <time>2018-02-09T10:16:02Z</time>
      </trkpt>
      <trkpt lat="46.05003" lon="4.69979">
        <ele>205</ele>
        <time>2018-02-09T10:16:04Z</time>
      </trkpt>
      <trkpt lat="46.05007" lon="4.69984">
        <ele>205</ele>
        <time>2018-02-09T10:16:05Z</time>
      </trkpt>
      <trkpt lat="46.05011" lon="4.69989">
        <ele>205</ele>
        <time>2018-02-09T10:16:06Z</time>
      </trkpt>
      <trkpt lat="46.05015" lon="4.69994">
        <ele>205</ele>
        <time>2018-02-09T10:16:07Z</time>
      </trkpt>
      <trkpt lat="46.05019" lon="4.7">
        <ele>204</ele>
        <time>2018-02-09T10:16:08Z</time>
      </trkpt>
      <trkpt lat="46.05023" lon="4.70006">
        <ele>204</ele>
        <time>2018-02-09T10:16:09Z</time>
      </trkpt>
      <trkpt lat="46.05028" lon="4.70011">
        <ele>204</ele>
        <time>2018-02-09T10:16:10Z</time>
      </trkpt>
      <trkpt lat="46.05033" lon="4.70015">
        <ele>204</ele>
        <time>2018-02-09T10:16:11Z</time>
      </trkpt>
      <trkpt lat="46.05037" lon="4.7002">
        <ele>204</ele>
        <time>2018-02-09T10:16:12Z</time>
      </trkpt>
      <trkpt lat="46.05042" lon="4.70024">
        <ele>204</ele>
        <time>2018-02-09T10:16:13Z</time>
      </trkpt>
      <trkpt lat="46.05048" lon="4.70027">
        <ele>204</ele>
        <time>2018-02-09T10:16:14Z</time>
      </trkpt>
      <trkpt lat="46.05053" lon="4.7003">
        <ele>204</ele>
        <time>2018-02-09T10:16:15Z</time>
      </trkpt>
      <trkpt lat="46.05058" lon="4.70034">
        <ele>204</ele>
        <time>2018-02-09T10:16:16Z</time>
      </trkpt>
      <trkpt lat="46.05062" lon="4.70037">
        <ele>204</ele>
        <time>2018-02-09T10:16:17Z</time>
      </trkpt>
      <trkpt lat="46.05068" lon="4.7004">
        <ele>204</ele>
        <time>2018-02-09T10:16:18Z</time>
      </trkpt>
      <trkpt lat="46.05073" lon="4.70041">
        <ele>204</ele>
        <time>2018-02-09T10:16:19Z</time>
      </trkpt>
      <trkpt lat="46.05079" lon="4.70039">
        <ele>204</ele>
        <time>2018-02-09T10:16:20Z</time>
      </trkpt>
      <trkpt lat="46.05083" lon="4.70037">
        <ele>204</ele>
        <time>2018-02-09T10:16:21Z</time>
      </trkpt>
      <trkpt lat="46.05087" lon="4.70033">
        <ele>203</ele>
        <time>2018-02-09T10:16:22Z</time>
      </trkpt>
      <trkpt lat="46.0509" lon="4.70028">
        <ele>203</ele>
        <time>2018-02-09T10:16:23Z</time>
      </trkpt>
      <trkpt lat="46.05092" lon="4.70023">
        <ele>203</ele>
        <time>2018-02-09T10:16:24Z</time>
      </trkpt>
      <trkpt lat="46.05095" lon="4.70017">
        <ele>203</ele>
        <time>2018-02-09T10:16:25Z</time>
      </trkpt>
      <trkpt lat="46.05097" lon="4.7001">
        <ele>203</ele>
        <time>2018-02-09T10:16:26Z</time>
      </trkpt>
      <trkpt lat="46.05099" lon="4.70002">
        <ele>204</ele>
        <time>2018-02-09T10:16:27Z</time>
      </trkpt>
      <trkpt lat="46.051" lon="4.69995">
        <ele>204</ele>
        <time>2018-02-09T10:16:28Z</time>
      </trkpt>
      <trkpt lat="46.05101" lon="4.69987">
        <ele>204</ele>
        <time>2018-02-09T10:16:29Z</time>
      </trkpt>
      <trkpt lat="46.05102" lon="4.6998">
        <ele>203</ele>
        <time>2018-02-09T10:16:30Z</time>
      </trkpt>
      <trkpt lat="46.05104" lon="4.69972">
        <ele>203</ele>
        <time>2018-02-09T10:16:31Z</time>
      </trkpt>
      <trkpt lat="46.05105" lon="4.69965">
        <ele>203</ele>
        <time>2018-02-09T10:16:32Z</time>
      </trkpt>
      <trkpt lat="46.05107" lon="4.69958">
        <ele>203</ele>
        <time>2018-02-09T10:16:33Z</time>
      </trkpt>
      <trkpt lat="46.05108" lon="4.69952">
        <ele>203</ele>
        <time>2018-02-09T10:16:34Z</time>
      </trkpt>
      <trkpt lat="46.05109" lon="4.69945">
        <ele>203</ele>
        <time>2018-02-09T10:16:35Z</time>
      </trkpt>
      <trkpt lat="46.0511" lon="4.69938">
        <ele>203</ele>
        <time>2018-02-09T10:16:36Z</time>
      </trkpt>
      <trkpt lat="46.0511" lon="4.69932">
        <ele>203</ele>
        <time>2018-02-09T10:16:37Z</time>
      </trkpt>
      <trkpt lat="46.05111" lon="4.69926">
        <ele>203</ele>
        <time>2018-02-09T10:16:38Z</time>
      </trkpt>
      <trkpt lat="46.05113" lon="4.69919">
        <ele>203</ele>
        <time>2018-02-09T10:16:39Z</time>
      </trkpt>
      <trkpt lat="46.05114" lon="4.69907">
        <ele>204</ele>
        <time>2018-02-09T10:16:41Z</time>
      </trkpt>
      <trkpt lat="46.05115" lon="4.699">
        <ele>204</ele>
        <time>2018-02-09T10:16:42Z</time>
      </trkpt>
      <trkpt lat="46.05116" lon="4.69893">
        <ele>204</ele>
        <time>2018-02-09T10:16:43Z</time>
      </trkpt>
      <trkpt lat="46.05118" lon="4.69887">
        <ele>204</ele>
        <time>2018-02-09T10:16:44Z</time>
      </trkpt>
      <trkpt lat="46.0512" lon="4.69875">
        <ele>204</ele>
        <time>2018-02-09T10:16:46Z</time>
      </trkpt>
      <trkpt lat="46.05121" lon="4.69869">
        <ele>204</ele>
        <time>2018-02-09T10:16:47Z</time>
      </trkpt>
      <trkpt lat="46.05123" lon="4.69861">
        <ele>204</ele>
        <time>2018-02-09T10:16:48Z</time>
      </trkpt>
      <trkpt lat="46.05124" lon="4.69854">
        <ele>204</ele>
        <time>2018-02-09T10:16:49Z</time>
      </trkpt>
      <trkpt lat="46.05126" lon="4.69847">
        <ele>204</ele>
        <time>2018-02-09T10:16:50Z</time>
      </trkpt>
      <trkpt lat="46.05128" lon="4.69841">
        <ele>204</ele>
        <time>2018-02-09T10:16:51Z</time>
      </trkpt>
      <trkpt lat="46.05131" lon="4.69837">
        <ele>204</ele>
        <time>2018-02-09T10:16:52Z</time>
      </trkpt>
      <trkpt lat="46.05136" lon="4.69832">
        <ele>204</ele>
        <time>2018-02-09T10:16:53Z</time>
      </trkpt>
      <trkpt lat="46.05141" lon="4.69831">
        <ele>204</ele>
        <time>2018-02-09T10:16:54Z</time>
      </trkpt>
      <trkpt lat="46.05147" lon="4.69831">
        <ele>204</ele>
        <time>2018-02-09T10:16:55Z</time>
      </trkpt>
      <trkpt lat="46.05152" lon="4.69831">
        <ele>204</ele>
        <time>2018-02-09T10:16:56Z</time>
      </trkpt>
      <trkpt lat="46.05158" lon="4.69833">
        <ele>203</ele>
        <time>2018-02-09T10:16:57Z</time>
      </trkpt>
      <trkpt lat="46.05164" lon="4.69834">
        <ele>203</ele>
        <time>2018-02-09T10:16:58Z</time>
      </trkpt>
      <trkpt lat="46.0517" lon="4.69837">
        <ele>203</ele>
        <time>2018-02-09T10:16:59Z</time>
      </trkpt>
      <trkpt lat="46.05176" lon="4.69839">
        <ele>202</ele>
        <time>2018-02-09T10:17:00Z</time>
      </trkpt>
      <trkpt lat="46.05181" lon="4.69841">
        <ele>202</ele>
        <time>2018-02-09T10:17:01Z</time>
      </trkpt>
      <trkpt lat="46.05187" lon="4.69843">
        <ele>202</ele>
        <time>2018-02-09T10:17:02Z</time>
      </trkpt>
      <trkpt lat="46.05194" lon="4.69846">
        <ele>202</ele>
        <time>2018-02-09T10:17:03Z</time>
      </trkpt>
      <trkpt lat="46.052" lon="4.69848">
        <ele>201</ele>
        <time>2018-02-09T10:17:04Z</time>
      </trkpt>
      <trkpt lat="46.05206" lon="4.6985">
        <ele>201</ele>
        <time>2018-02-09T10:17:05Z</time>
      </trkpt>
      <trkpt lat="46.05212" lon="4.69852">
        <ele>201</ele>
        <time>2018-02-09T10:17:06Z</time>
      </trkpt>
      <trkpt lat="46.05218" lon="4.69855">
        <ele>201</ele>
        <time>2018-02-09T10:17:07Z</time>
      </trkpt>
      <trkpt lat="46.05225" lon="4.69857">
        <ele>201</ele>
        <time>2018-02-09T10:17:08Z</time>
      </trkpt>
      <trkpt lat="46.0523" lon="4.69859">
        <ele>201</ele>
        <time>2018-02-09T10:17:09Z</time>
      </trkpt>
      <trkpt lat="46.05236" lon="4.69861">
        <ele>201</ele>
        <time>2018-02-09T10:17:10Z</time>
      </trkpt>
      <trkpt lat="46.05243" lon="4.69863">
        <ele>201</ele>
        <time>2018-02-09T10:17:11Z</time>
      </trkpt>
      <trkpt lat="46.05249" lon="4.69864">
        <ele>200</ele>
        <time>2018-02-09T10:17:12Z</time>
      </trkpt>
      <trkpt lat="46.05255" lon="4.69865">
        <ele>199</ele>
        <time>2018-02-09T10:17:13Z</time>
      </trkpt>
      <trkpt lat="46.05262" lon="4.69866">
        <ele>199</ele>
        <time>2018-02-09T10:17:14Z</time>
      </trkpt>
      <trkpt lat="46.05269" lon="4.69869">
        <ele>199</ele>
        <time>2018-02-09T10:17:15Z</time>
      </trkpt>
      <trkpt lat="46.05275" lon="4.69871">
        <ele>199</ele>
        <time>2018-02-09T10:17:16Z</time>
      </trkpt>
      <trkpt lat="46.0528" lon="4.69873">
        <ele>199</ele>
        <time>2018-02-09T10:17:17Z</time>
      </trkpt>
      <trkpt lat="46.05286" lon="4.69876">
        <ele>199</ele>
        <time>2018-02-09T10:17:18Z</time>
      </trkpt>
      <trkpt lat="46.05292" lon="4.69877">
        <ele>199</ele>
        <time>2018-02-09T10:17:19Z</time>
      </trkpt>
      <trkpt lat="46.05297" lon="4.69877">
        <ele>199</ele>
        <time>2018-02-09T10:17:20Z</time>
      </trkpt>
      <trkpt lat="46.05304" lon="4.69878">
        <ele>199</ele>
        <time>2018-02-09T10:17:21Z</time>
      </trkpt>
      <trkpt lat="46.05309" lon="4.69879">
        <ele>199</ele>
        <time>2018-02-09T10:17:22Z</time>
      </trkpt>
      <trkpt lat="46.05315" lon="4.6988">
        <ele>199</ele>
        <time>2018-02-09T10:17:23Z</time>
      </trkpt>
      <trkpt lat="46.0532" lon="4.69881">
        <ele>199</ele>
        <time>2018-02-09T10:17:24Z</time>
      </trkpt>
      <trkpt lat="46.05327" lon="4.69882">
        <ele>199</ele>
        <time>2018-02-09T10:17:25Z</time>
      </trkpt>
      <trkpt lat="46.05333" lon="4.69882">
        <ele>199</ele>
        <time>2018-02-09T10:17:26Z</time>
      </trkpt>
      <trkpt lat="46.05339" lon="4.69885">
        <ele>199</ele>
        <time>2018-02-09T10:17:27Z</time>
      </trkpt>
      <trkpt lat="46.05346" lon="4.69886">
        <ele>199</ele>
        <time>2018-02-09T10:17:28Z</time>
      </trkpt>
      <trkpt lat="46.05352" lon="4.69887">
        <ele>199</ele>
        <time>2018-02-09T10:17:29Z</time>
      </trkpt>
      <trkpt lat="46.05358" lon="4.69889">
        <ele>199</ele>
        <time>2018-02-09T10:17:30Z</time>
      </trkpt>
      <trkpt lat="46.05364" lon="4.69892">
        <ele>199</ele>
        <time>2018-02-09T10:17:31Z</time>
      </trkpt>
      <trkpt lat="46.05369" lon="4.69895">
        <ele>199</ele>
        <time>2018-02-09T10:17:32Z</time>
      </trkpt>
      <trkpt lat="46.05374" lon="4.69897">
        <ele>199</ele>
        <time>2018-02-09T10:17:33Z</time>
      </trkpt>
      <trkpt lat="46.0538" lon="4.699">
        <ele>199</ele>
        <time>2018-02-09T10:17:34Z</time>
      </trkpt>
      <trkpt lat="46.05386" lon="4.69901">
        <ele>199</ele>
        <time>2018-02-09T10:17:35Z</time>
      </trkpt>
      <trkpt lat="46.05392" lon="4.69903">
        <ele>199</ele>
        <time>2018-02-09T10:17:36Z</time>
      </trkpt>
      <trkpt lat="46.05398" lon="4.69904">
        <ele>199</ele>
        <time>2018-02-09T10:17:37Z</time>
      </trkpt>
      <trkpt lat="46.05403" lon="4.69904">
        <ele>199</ele>
        <time>2018-02-09T10:17:38Z</time>
      </trkpt>
      <trkpt lat="46.05409" lon="4.69904">
        <ele>199</ele>
        <time>2018-02-09T10:17:39Z</time>
      </trkpt>
      <trkpt lat="46.05415" lon="4.69904">
        <ele>199</ele>
        <time>2018-02-09T10:17:40Z</time>
      </trkpt>
      <trkpt lat="46.0542" lon="4.69903">
        <ele>199</ele>
        <time>2018-02-09T10:17:41Z</time>
      </trkpt>
      <trkpt lat="46.05426" lon="4.69901">
        <ele>199</ele>
        <time>2018-02-09T10:17:42Z</time>
      </trkpt>
      <trkpt lat="46.05431" lon="4.69899">
        <ele>199</ele>
        <time>2018-02-09T10:17:43Z</time>
      </trkpt>
      <trkpt lat="46.05437" lon="4.69897">
        <ele>199</ele>
        <time>2018-02-09T10:17:44Z</time>
      </trkpt>
      <trkpt lat="46.05442" lon="4.69895">
        <ele>199</ele>
        <time>2018-02-09T10:17:45Z</time>
      </trkpt>
      <trkpt lat="46.05447" lon="4.69894">
        <ele>199</ele>
        <time>2018-02-09T10:17:46Z</time>
      </trkpt>
      <trkpt lat="46.05453" lon="4.69892">
        <ele>199</ele>
        <time>2018-02-09T10:17:47Z</time>
      </trkpt>
      <trkpt lat="46.05458" lon="4.6989">
        <ele>199</ele>
        <time>2018-02-09T10:17:48Z</time>
      </trkpt>
      <trkpt lat="46.05463" lon="4.69889">
        <ele>199</ele>
        <time>2018-02-09T10:17:49Z</time>
      </trkpt>
      <trkpt lat="46.05468" lon="4.69887">
        <ele>199</ele>
        <time>2018-02-09T10:17:50Z</time>
      </trkpt>
      <trkpt lat="46.05474" lon="4.69885">
        <ele>199</ele>
        <time>2018-02-09T10:17:51Z</time>
      </trkpt>
      <trkpt lat="46.05479" lon="4.69882">
        <ele>199</ele>
        <time>2018-02-09T10:17:52Z</time>
      </trkpt>
      <trkpt lat="46.05485" lon="4.69881">
        <ele>199</ele>
        <time>2018-02-09T10:17:53Z</time>
      </trkpt>
      <trkpt lat="46.0549" lon="4.6988">
        <ele>199</ele>
        <time>2018-02-09T10:17:54Z</time>
      </trkpt>
      <trkpt lat="46.05495" lon="4.69878">
        <ele>199</ele>
        <time>2018-02-09T10:17:55Z</time>
      </trkpt>
      <trkpt lat="46.05501" lon="4.69876">
        <ele>199</ele>
        <time>2018-02-09T10:17:56Z</time>
      </trkpt>
      <trkpt lat="46.05506" lon="4.69874">
        <ele>199</ele>
        <time>2018-02-09T10:17:57Z</time>
      </trkpt>
      <trkpt lat="46.05512" lon="4.69871">
        <ele>199</ele>
        <time>2018-02-09T10:17:58Z</time>
      </trkpt>
      <trkpt lat="46.05517" lon="4.69869">
        <ele>199</ele>
        <time>2018-02-09T10:17:59Z</time>
      </trkpt>
      <trkpt lat="46.05523" lon="4.69867">
        <ele>200</ele>
        <time>2018-02-09T10:18:00Z</time>
      </trkpt>
      <trkpt lat="46.05529" lon="4.69865">
        <ele>200</ele>
        <time>2018-02-09T10:18:01Z</time>
      </trkpt>
      <trkpt lat="46.05533" lon="4.69862">
        <ele>200</ele>
        <time>2018-02-09T10:18:02Z</time>
      </trkpt>
      <trkpt lat="46.05538" lon="4.6986">
        <ele>200</ele>
        <time>2018-02-09T10:18:03Z</time>
      </trkpt>
      <trkpt lat="46.05543" lon="4.69859">
        <ele>200</ele>
        <time>2018-02-09T10:18:04Z</time>
      </trkpt>
      <trkpt lat="46.05548" lon="4.69858">
        <ele>200</ele>
        <time>2018-02-09T10:18:05Z</time>
      </trkpt>
      <trkpt lat="46.05556" lon="4.69854">
        <ele>200</ele>
        <time>2018-02-09T10:18:07Z</time>
      </trkpt>
      <trkpt lat="46.05559" lon="4.69854">
        <ele>200</ele>
        <time>2018-02-09T10:18:08Z</time>
      </trkpt>
      <trkpt lat="46.05566" lon="4.69853">
        <ele>200</ele>
        <time>2018-02-09T10:18:10Z</time>
      </trkpt>
      <trkpt lat="46.05568" lon="4.69853">
        <ele>200</ele>
        <time>2018-02-09T10:18:11Z</time>
      </trkpt>
      <trkpt lat="46.05574" lon="4.69857">
        <ele>200</ele>
        <time>2018-02-09T10:18:13Z</time>
      </trkpt>
      <trkpt lat="46.05576" lon="4.69861">
        <ele>200</ele>
        <time>2018-02-09T10:18:14Z</time>
      </trkpt>
      <trkpt lat="46.05581" lon="4.69871">
        <ele>200</ele>
        <time>2018-02-09T10:18:16Z</time>
      </trkpt>
      <trkpt lat="46.05583" lon="4.69876">
        <ele>200</ele>
        <time>2018-02-09T10:18:17Z</time>
      </trkpt>
      <trkpt lat="46.05585" lon="4.69882">
        <ele>201</ele>
        <time>2018-02-09T10:18:18Z</time>
      </trkpt>
      <trkpt lat="46.05588" lon="4.69887">
        <ele>201</ele>
        <time>2018-02-09T10:18:19Z</time>
      </trkpt>
      <trkpt lat="46.05591" lon="4.69893">
        <ele>201</ele>
        <time>2018-02-09T10:18:20Z</time>
      </trkpt>
      <trkpt lat="46.05594" lon="4.69899">
        <ele>201</ele>
        <time>2018-02-09T10:18:21Z</time>
      </trkpt>
      <trkpt lat="46.05597" lon="4.69906">
        <ele>201</ele>
        <time>2018-02-09T10:18:22Z</time>
      </trkpt>
      <trkpt lat="46.056" lon="4.69912">
        <ele>201</ele>
        <time>2018-02-09T10:18:23Z</time>
      </trkpt>
      <trkpt lat="46.05603" lon="4.69919">
        <ele>201</ele>
        <time>2018-02-09T10:18:24Z</time>
      </trkpt>
      <trkpt lat="46.05607" lon="4.69925">
        <ele>201</ele>
        <time>2018-02-09T10:18:25Z</time>
      </trkpt>
      <trkpt lat="46.0561" lon="4.69931">
        <ele>201</ele>
        <time>2018-02-09T10:18:26Z</time>
      </trkpt>
      <trkpt lat="46.05613" lon="4.69937">
        <ele>201</ele>
        <time>2018-02-09T10:18:27Z</time>
      </trkpt>
      <trkpt lat="46.05617" lon="4.69943">
        <ele>201</ele>
        <time>2018-02-09T10:18:28Z</time>
      </trkpt>
      <trkpt lat="46.0562" lon="4.69948">
        <ele>201</ele>
        <time>2018-02-09T10:18:29Z</time>
      </trkpt>
      <trkpt lat="46.05622" lon="4.69955">
        <ele>201</ele>
        <time>2018-02-09T10:18:30Z</time>
      </trkpt>
      <trkpt lat="46.05626" lon="4.6996">
        <ele>201</ele>
        <time>2018-02-09T10:18:31Z</time>
      </trkpt>
      <trkpt lat="46.05629" lon="4.69966">
        <ele>201</ele>
        <time>2018-02-09T10:18:32Z</time>
      </trkpt>
      <trkpt lat="46.05631" lon="4.69972">
        <ele>200</ele>
        <time>2018-02-09T10:18:33Z</time>
      </trkpt>
      <trkpt lat="46.05634" lon="4.69978">
        <ele>200</ele>
        <time>2018-02-09T10:18:34Z</time>
      </trkpt>
      <trkpt lat="46.05638" lon="4.69986">
        <ele>200</ele>
        <time>2018-02-09T10:18:35Z</time>
      </trkpt>
      <trkpt lat="46.05641" lon="4.69993">
        <ele>200</ele>
        <time>2018-02-09T10:18:36Z</time>
      </trkpt>
      <trkpt lat="46.05643" lon="4.69998">
        <ele>200</ele>
        <time>2018-02-09T10:18:37Z</time>
      </trkpt>
      <trkpt lat="46.05646" lon="4.70003">
        <ele>200</ele>
        <time>2018-02-09T10:18:38Z</time>
      </trkpt>
      <trkpt lat="46.05648" lon="4.70009">
        <ele>200</ele>
        <time>2018-02-09T10:18:39Z</time>
      </trkpt>
      <trkpt lat="46.05651" lon="4.70014">
        <ele>200</ele>
        <time>2018-02-09T10:18:40Z</time>
      </trkpt>
      <trkpt lat="46.05655" lon="4.70021">
        <ele>200</ele>
        <time>2018-02-09T10:18:41Z</time>
      </trkpt>
      <trkpt lat="46.05658" lon="4.70026">
        <ele>200</ele>
        <time>2018-02-09T10:18:42Z</time>
      </trkpt>
      <trkpt lat="46.05662" lon="4.70032">
        <ele>200</ele>
        <time>2018-02-09T10:18:43Z</time>
      </trkpt>
      <trkpt lat="46.05665" lon="4.70038">
        <ele>200</ele>
        <time>2018-02-09T10:18:44Z</time>
      </trkpt>
      <trkpt lat="46.05668" lon="4.70044">
        <ele>199</ele>
        <time>2018-02-09T10:18:45Z</time>
      </trkpt>
      <trkpt lat="46.05671" lon="4.7005">
        <ele>199</ele>
        <time>2018-02-09T10:18:46Z</time>
      </trkpt>
      <trkpt lat="46.05674" lon="4.70059">
        <ele>199</ele>
        <time>2018-02-09T10:18:47Z</time>
      </trkpt>
      <trkpt lat="46.05678" lon="4.70065">
        <ele>199</ele>
        <time>2018-02-09T10:18:48Z</time>
      </trkpt>
      <trkpt lat="46.05681" lon="4.70072">
        <ele>199</ele>
        <time>2018-02-09T10:18:49Z</time>
      </trkpt>
      <trkpt lat="46.05685" lon="4.70079">
        <ele>199</ele>
        <time>2018-02-09T10:18:50Z</time>
      </trkpt>
      <trkpt lat="46.05689" lon="4.70086">
        <ele>199</ele>
        <time>2018-02-09T10:18:51Z</time>
      </trkpt>
      <trkpt lat="46.05694" lon="4.70091">
        <ele>198</ele>
        <time>2018-02-09T10:18:52Z</time>
      </trkpt>
      <trkpt lat="46.05696" lon="4.70097">
        <ele>198</ele>
        <time>2018-02-09T10:18:53Z</time>
      </trkpt>
      <trkpt lat="46.057" lon="4.70104">
        <ele>198</ele>
        <time>2018-02-09T10:18:54Z</time>
      </trkpt>
      <trkpt lat="46.05703" lon="4.7011">
        <ele>198</ele>
        <time>2018-02-09T10:18:55Z</time>
      </trkpt>
      <trkpt lat="46.05706" lon="4.70115">
        <ele>198</ele>
        <time>2018-02-09T10:18:56Z</time>
      </trkpt>
      <trkpt lat="46.05708" lon="4.70121">
        <ele>198</ele>
        <time>2018-02-09T10:18:57Z</time>
      </trkpt>
      <trkpt lat="46.05711" lon="4.70128">
        <ele>198</ele>
        <time>2018-02-09T10:18:58Z</time>
      </trkpt>
      <trkpt lat="46.05715" lon="4.70135">
        <ele>198</ele>
        <time>2018-02-09T10:18:59Z</time>
      </trkpt>
      <trkpt lat="46.05719" lon="4.70141">
        <ele>198</ele>
        <time>2018-02-09T10:19:00Z</time>
      </trkpt>
      <trkpt lat="46.05722" lon="4.70148">
        <ele>198</ele>
        <time>2018-02-09T10:19:01Z</time>
      </trkpt>
      <trkpt lat="46.05725" lon="4.70155">
        <ele>198</ele>
        <time>2018-02-09T10:19:02Z</time>
      </trkpt>
      <trkpt lat="46.05729" lon="4.70162">
        <ele>198</ele>
        <time>2018-02-09T10:19:03Z</time>
      </trkpt>
      <trkpt lat="46.05732" lon="4.70168">
        <ele>198</ele>
        <time>2018-02-09T10:19:04Z</time>
      </trkpt>
      <trkpt lat="46.05735" lon="4.70175">
        <ele>198</ele>
        <time>2018-02-09T10:19:05Z</time>
      </trkpt>
      <trkpt lat="46.05739" lon="4.70182">
        <ele>198</ele>
        <time>2018-02-09T10:19:06Z</time>
      </trkpt>
      <trkpt lat="46.05742" lon="4.70189">
        <ele>198</ele>
        <time>2018-02-09T10:19:07Z</time>
      </trkpt>
      <trkpt lat="46.05746" lon="4.70195">
        <ele>198</ele>
        <time>2018-02-09T10:19:08Z</time>
      </trkpt>
      <trkpt lat="46.0575" lon="4.70201">
        <ele>198</ele>
        <time>2018-02-09T10:19:09Z</time>
      </trkpt>
      <trkpt lat="46.05753" lon="4.70207">
        <ele>198</ele>
        <time>2018-02-09T10:19:10Z</time>
      </trkpt>
      <trkpt lat="46.05757" lon="4.70214">
        <ele>198</ele>
        <time>2018-02-09T10:19:11Z</time>
      </trkpt>
      <trkpt lat="46.0576" lon="4.70219">
        <ele>198</ele>
        <time>2018-02-09T10:19:12Z</time>
      </trkpt>
      <trkpt lat="46.05764" lon="4.70225">
        <ele>198</ele>
        <time>2018-02-09T10:19:13Z</time>
      </trkpt>
      <trkpt lat="46.05768" lon="4.70231">
        <ele>198</ele>
        <time>2018-02-09T10:19:14Z</time>
      </trkpt>
      <trkpt lat="46.05771" lon="4.70237">
        <ele>198</ele>
        <time>2018-02-09T10:19:15Z</time>
      </trkpt>
      <trkpt lat="46.05776" lon="4.70243">
        <ele>198</ele>
        <time>2018-02-09T10:19:16Z</time>
      </trkpt>
      <trkpt lat="46.05779" lon="4.70249">
        <ele>198</ele>
        <time>2018-02-09T10:19:17Z</time>
      </trkpt>
      <trkpt lat="46.05783" lon="4.70256">
        <ele>198</ele>
        <time>2018-02-09T10:19:18Z</time>
      </trkpt>
      <trkpt lat="46.05787" lon="4.70262">
        <ele>198</ele>
        <time>2018-02-09T10:19:19Z</time>
      </trkpt>
      <trkpt lat="46.05791" lon="4.70268">
        <ele>198</ele>
        <time>2018-02-09T10:19:20Z</time>
      </trkpt>
      <trkpt lat="46.05795" lon="4.70275">
        <ele>197</ele>
        <time>2018-02-09T10:19:21Z</time>
      </trkpt>
      <trkpt lat="46.05799" lon="4.70282">
        <ele>197</ele>
        <time>2018-02-09T10:19:22Z</time>
      </trkpt>
      <trkpt lat="46.05803" lon="4.70288">
        <ele>197</ele>
        <time>2018-02-09T10:19:23Z</time>
      </trkpt>
      <trkpt lat="46.05807" lon="4.70296">
        <ele>197</ele>
        <time>2018-02-09T10:19:24Z</time>
      </trkpt>
      <trkpt lat="46.0581" lon="4.70302">
        <ele>197</ele>
        <time>2018-02-09T10:19:25Z</time>
      </trkpt>
      <trkpt lat="46.05815" lon="4.70308">
        <ele>197</ele>
        <time>2018-02-09T10:19:26Z</time>
      </trkpt>
      <trkpt lat="46.05819" lon="4.70314">
        <ele>197</ele>
        <time>2018-02-09T10:19:27Z</time>
      </trkpt>
      <trkpt lat="46.05823" lon="4.70319">
        <ele>197</ele>
        <time>2018-02-09T10:19:28Z</time>
      </trkpt>
      <trkpt lat="46.05827" lon="4.70324">
        <ele>197</ele>
        <time>2018-02-09T10:19:29Z</time>
      </trkpt>
      <trkpt lat="46.05832" lon="4.7033">
        <ele>197</ele>
        <time>2018-02-09T10:19:30Z</time>
      </trkpt>
      <trkpt lat="46.05837" lon="4.70335">
        <ele>197</ele>
        <time>2018-02-09T10:19:31Z</time>
      </trkpt>
      <trkpt lat="46.05841" lon="4.70341">
        <ele>197</ele>
        <time>2018-02-09T10:19:32Z</time>
      </trkpt>
      <trkpt lat="46.05845" lon="4.70347">
        <ele>196</ele>
        <time>2018-02-09T10:19:33Z</time>
      </trkpt>
      <trkpt lat="46.05849" lon="4.70354">
        <ele>196</ele>
        <time>2018-02-09T10:19:34Z</time>
      </trkpt>
      <trkpt lat="46.05854" lon="4.7036">
        <ele>196</ele>
        <time>2018-02-09T10:19:35Z</time>
      </trkpt>
      <trkpt lat="46.05857" lon="4.70367">
        <ele>196</ele>
        <time>2018-02-09T10:19:36Z</time>
      </trkpt>
      <trkpt lat="46.05861" lon="4.70373">
        <ele>196</ele>
        <time>2018-02-09T10:19:37Z</time>
      </trkpt>
      <trkpt lat="46.05865" lon="4.70379">
        <ele>196</ele>
        <time>2018-02-09T10:19:38Z</time>
      </trkpt>
      <trkpt lat="46.05868" lon="4.70385">
        <ele>196</ele>
        <time>2018-02-09T10:19:39Z</time>
      </trkpt>
      <trkpt lat="46.05872" lon="4.70392">
        <ele>196</ele>
        <time>2018-02-09T10:19:40Z</time>
      </trkpt>
      <trkpt lat="46.05876" lon="4.70399">
        <ele>196</ele>
        <time>2018-02-09T10:19:41Z</time>
      </trkpt>
      <trkpt lat="46.05881" lon="4.70406">
        <ele>196</ele>
        <time>2018-02-09T10:19:42Z</time>
      </trkpt>
      <trkpt lat="46.05885" lon="4.70412">
        <ele>196</ele>
        <time>2018-02-09T10:19:43Z</time>
      </trkpt>
      <trkpt lat="46.0589" lon="4.70418">
        <ele>195</ele>
        <time>2018-02-09T10:19:44Z</time>
      </trkpt>
      <trkpt lat="46.05893" lon="4.70425">
        <ele>195</ele>
        <time>2018-02-09T10:19:45Z</time>
      </trkpt>
      <trkpt lat="46.05897" lon="4.70432">
        <ele>195</ele>
        <time>2018-02-09T10:19:46Z</time>
      </trkpt>
      <trkpt lat="46.05901" lon="4.70438">
        <ele>195</ele>
        <time>2018-02-09T10:19:47Z</time>
      </trkpt>
      <trkpt lat="46.05906" lon="4.70444">
        <ele>195</ele>
        <time>2018-02-09T10:19:48Z</time>
      </trkpt>
      <trkpt lat="46.0591" lon="4.70451">
        <ele>195</ele>
        <time>2018-02-09T10:19:49Z</time>
      </trkpt>
      <trkpt lat="46.05914" lon="4.70458">
        <ele>195</ele>
        <time>2018-02-09T10:19:50Z</time>
      </trkpt>
      <trkpt lat="46.05917" lon="4.70465">
        <ele>195</ele>
        <time>2018-02-09T10:19:51Z</time>
      </trkpt>
      <trkpt lat="46.05921" lon="4.70472">
        <ele>195</ele>
        <time>2018-02-09T10:19:52Z</time>
      </trkpt>
      <trkpt lat="46.05925" lon="4.70479">
        <ele>195</ele>
        <time>2018-02-09T10:19:53Z</time>
      </trkpt>
      <trkpt lat="46.05928" lon="4.70487">
        <ele>195</ele>
        <time>2018-02-09T10:19:54Z</time>
      </trkpt>
      <trkpt lat="46.0593" lon="4.70496">
        <ele>196</ele>
        <time>2018-02-09T10:19:55Z</time>
      </trkpt>
      <trkpt lat="46.05931" lon="4.70503">
        <ele>195</ele>
        <time>2018-02-09T10:19:56Z</time>
      </trkpt>
      <trkpt lat="46.05932" lon="4.70511">
        <ele>195</ele>
        <time>2018-02-09T10:19:57Z</time>
      </trkpt>
      <trkpt lat="46.05932" lon="4.70519">
        <ele>195</ele>
        <time>2018-02-09T10:19:58Z</time>
      </trkpt>
      <trkpt lat="46.05931" lon="4.70529">
        <ele>195</ele>
        <time>2018-02-09T10:19:59Z</time>
      </trkpt>
      <trkpt lat="46.05929" lon="4.70536">
        <ele>195</ele>
        <time>2018-02-09T10:20:00Z</time>
      </trkpt>
      <trkpt lat="46.05926" lon="4.70544">
        <ele>195</ele>
        <time>2018-02-09T10:20:01Z</time>
      </trkpt>
      <trkpt lat="46.05924" lon="4.70551">
        <ele>195</ele>
        <time>2018-02-09T10:20:02Z</time>
      </trkpt>
      <trkpt lat="46.05922" lon="4.70559">
        <ele>195</ele>
        <time>2018-02-09T10:20:03Z</time>
      </trkpt>
      <trkpt lat="46.0592" lon="4.70566">
        <ele>195</ele>
        <time>2018-02-09T10:20:04Z</time>
      </trkpt>
      <trkpt lat="46.05917" lon="4.70574">
        <ele>195</ele>
        <time>2018-02-09T10:20:05Z</time>
      </trkpt>
      <trkpt lat="46.05915" lon="4.70582">
        <ele>195</ele>
        <time>2018-02-09T10:20:06Z</time>
      </trkpt>
      <trkpt lat="46.05913" lon="4.70591">
        <ele>195</ele>
        <time>2018-02-09T10:20:07Z</time>
      </trkpt>
      <trkpt lat="46.05912" lon="4.70599">
        <ele>194</ele>
        <time>2018-02-09T10:20:08Z</time>
      </trkpt>
      <trkpt lat="46.05911" lon="4.70608">
        <ele>194</ele>
        <time>2018-02-09T10:20:09Z</time>
      </trkpt>
      <trkpt lat="46.0591" lon="4.70618">
        <ele>194</ele>
        <time>2018-02-09T10:20:10Z</time>
      </trkpt>
      <trkpt lat="46.05909" lon="4.70626">
        <ele>194</ele>
        <time>2018-02-09T10:20:11Z</time>
      </trkpt>
      <trkpt lat="46.05908" lon="4.70635">
        <ele>194</ele>
        <time>2018-02-09T10:20:12Z</time>
      </trkpt>
      <trkpt lat="46.05907" lon="4.70644">
        <ele>194</ele>
        <time>2018-02-09T10:20:13Z</time>
      </trkpt>
      <trkpt lat="46.05907" lon="4.70652">
        <ele>194</ele>
        <time>2018-02-09T10:20:14Z</time>
      </trkpt>
      <trkpt lat="46.05907" lon="4.70662">
        <ele>194</ele>
        <time>2018-02-09T10:20:15Z</time>
      </trkpt>
      <trkpt lat="46.05906" lon="4.7067">
        <ele>194</ele>
        <time>2018-02-09T10:20:16Z</time>
      </trkpt>
      <trkpt lat="46.05906" lon="4.70678">
        <ele>194</ele>
        <time>2018-02-09T10:20:17Z</time>
      </trkpt>
      <trkpt lat="46.05907" lon="4.70686">
        <ele>194</ele>
        <time>2018-02-09T10:20:18Z</time>
      </trkpt>
      <trkpt lat="46.05908" lon="4.70694">
        <ele>194</ele>
        <time>2018-02-09T10:20:19Z</time>
      </trkpt>
      <trkpt lat="46.05909" lon="4.70702">
        <ele>194</ele>
        <time>2018-02-09T10:20:20Z</time>
      </trkpt>
      <trkpt lat="46.05908" lon="4.70709">
        <ele>194</ele>
        <time>2018-02-09T10:20:21Z</time>
      </trkpt>
      <trkpt lat="46.05909" lon="4.70716">
        <ele>194</ele>
        <time>2018-02-09T10:20:22Z</time>
      </trkpt>
      <trkpt lat="46.05911" lon="4.70723">
        <ele>194</ele>
        <time>2018-02-09T10:20:23Z</time>
      </trkpt>
      <trkpt lat="46.05912" lon="4.70731">
        <ele>194</ele>
        <time>2018-02-09T10:20:24Z</time>
      </trkpt>
      <trkpt lat="46.05914" lon="4.70741">
        <ele>194</ele>
        <time>2018-02-09T10:20:25Z</time>
      </trkpt>
      <trkpt lat="46.05916" lon="4.70749">
        <ele>194</ele>
        <time>2018-02-09T10:20:26Z</time>
      </trkpt>
      <trkpt lat="46.05918" lon="4.70758">
        <ele>194</ele>
        <time>2018-02-09T10:20:27Z</time>
      </trkpt>
      <trkpt lat="46.05919" lon="4.70767">
        <ele>194</ele>
        <time>2018-02-09T10:20:28Z</time>
      </trkpt>
      <trkpt lat="46.05921" lon="4.70775">
        <ele>194</ele>
        <time>2018-02-09T10:20:29Z</time>
      </trkpt>
      <trkpt lat="46.05923" lon="4.70784">
        <ele>194</ele>
        <time>2018-02-09T10:20:30Z</time>
      </trkpt>
      <trkpt lat="46.05924" lon="4.70792">
        <ele>194</ele>
        <time>2018-02-09T10:20:31Z</time>
      </trkpt>
      <trkpt lat="46.05925" lon="4.708">
        <ele>194</ele>
        <time>2018-02-09T10:20:32Z</time>
      </trkpt>
      <trkpt lat="46.05926" lon="4.70807">
        <ele>194</ele>
        <time>2018-02-09T10:20:33Z</time>
      </trkpt>
      <trkpt lat="46.05927" lon="4.70815">
        <ele>194</ele>
        <time>2018-02-09T10:20:34Z</time>
      </trkpt>
      <trkpt lat="46.05927" lon="4.70823">
        <ele>195</ele>
        <time>2018-02-09T10:20:35Z</time>
      </trkpt>
      <trkpt lat="46.05928" lon="4.70832">
        <ele>195</ele>
        <time>2018-02-09T10:20:36Z</time>
      </trkpt>
      <trkpt lat="46.05929" lon="4.70839">
        <ele>194</ele>
        <time>2018-02-09T10:20:37Z</time>
      </trkpt>
      <trkpt lat="46.05929" lon="4.70847">
        <ele>194</ele>
        <time>2018-02-09T10:20:38Z</time>
      </trkpt>
      <trkpt lat="46.0593" lon="4.70855">
        <ele>194</ele>
        <time>2018-02-09T10:20:39Z</time>
      </trkpt>
      <trkpt lat="46.0593" lon="4.70862">
        <ele>194</ele>
        <time>2018-02-09T10:20:40Z</time>
      </trkpt>
      <trkpt lat="46.05931" lon="4.7087">
        <ele>194</ele>
        <time>2018-02-09T10:20:41Z</time>
      </trkpt>
      <trkpt lat="46.05931" lon="4.70878">
        <ele>194</ele>
        <time>2018-02-09T10:20:42Z</time>
      </trkpt>
      <trkpt lat="46.05932" lon="4.70886">
        <ele>194</ele>
        <time>2018-02-09T10:20:43Z</time>
      </trkpt>
      <trkpt lat="46.05932" lon="4.70895">
        <ele>194</ele>
        <time>2018-02-09T10:20:44Z</time>
      </trkpt>
      <trkpt lat="46.05933" lon="4.70903">
        <ele>194</ele>
        <time>2018-02-09T10:20:45Z</time>
      </trkpt>
      <trkpt lat="46.05934" lon="4.70912">
        <ele>194</ele>
        <time>2018-02-09T10:20:46Z</time>
      </trkpt>
      <trkpt lat="46.05935" lon="4.70921">
        <ele>194</ele>
        <time>2018-02-09T10:20:47Z</time>
      </trkpt>
      <trkpt lat="46.05937" lon="4.70928">
        <ele>194</ele>
        <time>2018-02-09T10:20:48Z</time>
      </trkpt>
      <trkpt lat="46.05938" lon="4.70936">
        <ele>194</ele>
        <time>2018-02-09T10:20:49Z</time>
      </trkpt>
      <trkpt lat="46.0594" lon="4.70944">
        <ele>193</ele>
        <time>2018-02-09T10:20:50Z</time>
      </trkpt>
      <trkpt lat="46.05941" lon="4.70951">
        <ele>193</ele>
        <time>2018-02-09T10:20:51Z</time>
      </trkpt>
      <trkpt lat="46.05943" lon="4.70958">
        <ele>193</ele>
        <time>2018-02-09T10:20:52Z</time>
      </trkpt>
      <trkpt lat="46.05944" lon="4.70965">
        <ele>193</ele>
        <time>2018-02-09T10:20:53Z</time>
      </trkpt>
      <trkpt lat="46.05946" lon="4.70972">
        <ele>193</ele>
        <time>2018-02-09T10:20:54Z</time>
      </trkpt>
      <trkpt lat="46.05949" lon="4.70978">
        <ele>193</ele>
        <time>2018-02-09T10:20:55Z</time>
      </trkpt>
      <trkpt lat="46.05951" lon="4.70985">
        <ele>193</ele>
        <time>2018-02-09T10:20:56Z</time>
      </trkpt>
      <trkpt lat="46.05953" lon="4.70993">
        <ele>193</ele>
        <time>2018-02-09T10:20:57Z</time>
      </trkpt>
      <trkpt lat="46.05954" lon="4.71001">
        <ele>193</ele>
        <time>2018-02-09T10:20:58Z</time>
      </trkpt>
      <trkpt lat="46.05957" lon="4.71009">
        <ele>193</ele>
        <time>2018-02-09T10:20:59Z</time>
      </trkpt>
      <trkpt lat="46.0596" lon="4.71016">
        <ele>193</ele>
        <time>2018-02-09T10:21:00Z</time>
      </trkpt>
      <trkpt lat="46.05962" lon="4.71024">
        <ele>193</ele>
        <time>2018-02-09T10:21:01Z</time>
      </trkpt>
      <trkpt lat="46.05966" lon="4.71031">
        <ele>193</ele>
        <time>2018-02-09T10:21:02Z</time>
      </trkpt>
      <trkpt lat="46.05969" lon="4.71038">
        <ele>193</ele>
        <time>2018-02-09T10:21:03Z</time>
      </trkpt>
      <trkpt lat="46.05972" lon="4.71047">
        <ele>192</ele>
        <time>2018-02-09T10:21:04Z</time>
      </trkpt>
      <trkpt lat="46.05974" lon="4.71053">
        <ele>193</ele>
        <time>2018-02-09T10:21:05Z</time>
      </trkpt>
      <trkpt lat="46.05978" lon="4.7106">
        <ele>193</ele>
        <time>2018-02-09T10:21:06Z</time>
      </trkpt>
      <trkpt lat="46.05981" lon="4.71066">
        <ele>193</ele>
        <time>2018-02-09T10:21:07Z</time>
      </trkpt>
      <trkpt lat="46.05984" lon="4.71073">
        <ele>193</ele>
        <time>2018-02-09T10:21:08Z</time>
      </trkpt>
      <trkpt lat="46.05987" lon="4.71079">
        <ele>193</ele>
        <time>2018-02-09T10:21:09Z</time>
      </trkpt>
      <trkpt lat="46.0599" lon="4.71086">
        <ele>193</ele>
        <time>2018-02-09T10:21:10Z</time>
      </trkpt>
      <trkpt lat="46.05993" lon="4.71093">
        <ele>193</ele>
        <time>2018-02-09T10:21:11Z</time>
      </trkpt>
      <trkpt lat="46.05996" lon="4.71098">
        <ele>193</ele>
        <time>2018-02-09T10:21:12Z</time>
      </trkpt>
      <trkpt lat="46.05997" lon="4.71104">
        <ele>193</ele>
        <time>2018-02-09T10:21:13Z</time>
      </trkpt>
      <trkpt lat="46.06" lon="4.71111">
        <ele>193</ele>
        <time>2018-02-09T10:21:14Z</time>
      </trkpt>
      <trkpt lat="46.06002" lon="4.71117">
        <ele>193</ele>
        <time>2018-02-09T10:21:15Z</time>
      </trkpt>
      <trkpt lat="46.06004" lon="4.71124">
        <ele>193</ele>
        <time>2018-02-09T10:21:16Z</time>
      </trkpt>
      <trkpt lat="46.06007" lon="4.7113">
        <ele>193</ele>
        <time>2018-02-09T10:21:17Z</time>
      </trkpt>
      <trkpt lat="46.0601" lon="4.71137">
        <ele>193</ele>
        <time>2018-02-09T10:21:18Z</time>
      </trkpt>
      <trkpt lat="46.06013" lon="4.71145">
        <ele>193</ele>
        <time>2018-02-09T10:21:19Z</time>
      </trkpt>
      <trkpt lat="46.06016" lon="4.71151">
        <ele>194</ele>
        <time>2018-02-09T10:21:20Z</time>
      </trkpt>
      <trkpt lat="46.06019" lon="4.71158">
        <ele>194</ele>
        <time>2018-02-09T10:21:21Z</time>
      </trkpt>
      <trkpt lat="46.06021" lon="4.71165">
        <ele>194</ele>
        <time>2018-02-09T10:21:22Z</time>
      </trkpt>
      <trkpt lat="46.06023" lon="4.71173">
        <ele>194</ele>
        <time>2018-02-09T10:21:23Z</time>
      </trkpt>
      <trkpt lat="46.06025" lon="4.71179">
        <ele>193</ele>
        <time>2018-02-09T10:21:24Z</time>
      </trkpt>
      <trkpt lat="46.06028" lon="4.71185">
        <ele>193</ele>
        <time>2018-02-09T10:21:25Z</time>
      </trkpt>
      <trkpt lat="46.0603" lon="4.71191">
        <ele>193</ele>
        <time>2018-02-09T10:21:26Z</time>
      </trkpt>
      <trkpt lat="46.06033" lon="4.71197">
        <ele>193</ele>
        <time>2018-02-09T10:21:27Z</time>
      </trkpt>
      <trkpt lat="46.06036" lon="4.71203">
        <ele>193</ele>
        <time>2018-02-09T10:21:28Z</time>
      </trkpt>
      <trkpt lat="46.06038" lon="4.71209">
        <ele>193</ele>
        <time>2018-02-09T10:21:29Z</time>
      </trkpt>
      <trkpt lat="46.06041" lon="4.71216">
        <ele>193</ele>
        <time>2018-02-09T10:21:30Z</time>
      </trkpt>
      <trkpt lat="46.06043" lon="4.71222">
        <ele>193</ele>
        <time>2018-02-09T10:21:31Z</time>
      </trkpt>
      <trkpt lat="46.06045" lon="4.71229">
        <ele>193</ele>
        <time>2018-02-09T10:21:32Z</time>
      </trkpt>
      <trkpt lat="46.06047" lon="4.71236">
        <ele>193</ele>
        <time>2018-02-09T10:21:33Z</time>
      </trkpt>
      <trkpt lat="46.0605" lon="4.71244">
        <ele>193</ele>
        <time>2018-02-09T10:21:34Z</time>
      </trkpt>
      <trkpt lat="46.06052" lon="4.71251">
        <ele>193</ele>
        <time>2018-02-09T10:21:35Z</time>
      </trkpt>
      <trkpt lat="46.06055" lon="4.71257">
        <ele>193</ele>
        <time>2018-02-09T10:21:36Z</time>
      </trkpt>
      <trkpt lat="46.06057" lon="4.71263">
        <ele>193</ele>
        <time>2018-02-09T10:21:37Z</time>
      </trkpt>
      <trkpt lat="46.0606" lon="4.71271">
        <ele>193</ele>
        <time>2018-02-09T10:21:38Z</time>
      </trkpt>
      <trkpt lat="46.06062" lon="4.71278">
        <ele>193</ele>
        <time>2018-02-09T10:21:39Z</time>
      </trkpt>
      <trkpt lat="46.06064" lon="4.71283">
        <ele>193</ele>
        <time>2018-02-09T10:21:40Z</time>
      </trkpt>
      <trkpt lat="46.06067" lon="4.7129">
        <ele>193</ele>
        <time>2018-02-09T10:21:41Z</time>
      </trkpt>
      <trkpt lat="46.06069" lon="4.71297">
        <ele>193</ele>
        <time>2018-02-09T10:21:42Z</time>
      </trkpt>
      <trkpt lat="46.06072" lon="4.71303">
        <ele>193</ele>
        <time>2018-02-09T10:21:43Z</time>
      </trkpt>
      <trkpt lat="46.06074" lon="4.7131">
        <ele>193</ele>
        <time>2018-02-09T10:21:44Z</time>
      </trkpt>
      <trkpt lat="46.06077" lon="4.71315">
        <ele>193</ele>
        <time>2018-02-09T10:21:45Z</time>
      </trkpt>
      <trkpt lat="46.06079" lon="4.71323">
        <ele>193</ele>
        <time>2018-02-09T10:21:46Z</time>
      </trkpt>
      <trkpt lat="46.06082" lon="4.71329">
        <ele>193</ele>
        <time>2018-02-09T10:21:47Z</time>
      </trkpt>
      <trkpt lat="46.06084" lon="4.71335">
        <ele>193</ele>
        <time>2018-02-09T10:21:48Z</time>
      </trkpt>
      <trkpt lat="46.06086" lon="4.71342">
        <ele>193</ele>
        <time>2018-02-09T10:21:49Z</time>
      </trkpt>
      <trkpt lat="46.06088" lon="4.71347">
        <ele>193</ele>
        <time>2018-02-09T10:21:50Z</time>
      </trkpt>
      <trkpt lat="46.0609" lon="4.71353">
        <ele>193</ele>
        <time>2018-02-09T10:21:51Z</time>
      </trkpt>
      <trkpt lat="46.06093" lon="4.71365">
        <ele>193</ele>
        <time>2018-02-09T10:21:53Z</time>
      </trkpt>
      <trkpt lat="46.06095" lon="4.71371">
        <ele>193</ele>
        <time>2018-02-09T10:21:54Z</time>
      </trkpt>
      <trkpt lat="46.06097" lon="4.71377">
        <ele>193</ele>
        <time>2018-02-09T10:21:55Z</time>
      </trkpt>
      <trkpt lat="46.06098" lon="4.71384">
        <ele>193</ele>
        <time>2018-02-09T10:21:56Z</time>
      </trkpt>
      <trkpt lat="46.06101" lon="4.71391">
        <ele>193</ele>
        <time>2018-02-09T10:21:57Z</time>
      </trkpt>
      <trkpt lat="46.06103" lon="4.71398">
        <ele>193</ele>
        <time>2018-02-09T10:21:58Z</time>
      </trkpt>
      <trkpt lat="46.06105" lon="4.71405">
        <ele>193</ele>
        <time>2018-02-09T10:21:59Z</time>
      </trkpt>
      <trkpt lat="46.06107" lon="4.71412">
        <ele>193</ele>
        <time>2018-02-09T10:22:00Z</time>
      </trkpt>
      <trkpt lat="46.06109" lon="4.71419">
        <ele>193</ele>
        <time>2018-02-09T10:22:01Z</time>
      </trkpt>
      <trkpt lat="46.06111" lon="4.71425">
        <ele>193</ele>
        <time>2018-02-09T10:22:02Z</time>
      </trkpt>
      <trkpt lat="46.06112" lon="4.71433">
        <ele>193</ele>
        <time>2018-02-09T10:22:03Z</time>
      </trkpt>
      <trkpt lat="46.06114" lon="4.7144">
        <ele>193</ele>
        <time>2018-02-09T10:22:04Z</time>
      </trkpt>
      <trkpt lat="46.06117" lon="4.71451">
        <ele>193</ele>
        <time>2018-02-09T10:22:06Z</time>
      </trkpt>
      <trkpt lat="46.06119" lon="4.71457">
        <ele>193</ele>
        <time>2018-02-09T10:22:07Z</time>
      </trkpt>
      <trkpt lat="46.06122" lon="4.71464">
        <ele>193</ele>
        <time>2018-02-09T10:22:08Z</time>
      </trkpt>
      <trkpt lat="46.06123" lon="4.7147">
        <ele>193</ele>
        <time>2018-02-09T10:22:09Z</time>
      </trkpt>
      <trkpt lat="46.06125" lon="4.71478">
        <ele>192</ele>
        <time>2018-02-09T10:22:10Z</time>
      </trkpt>
      <trkpt lat="46.06128" lon="4.71485">
        <ele>192</ele>
        <time>2018-02-09T10:22:11Z</time>
      </trkpt>
      <trkpt lat="46.0613" lon="4.71493">
        <ele>192</ele>
        <time>2018-02-09T10:22:12Z</time>
      </trkpt>
      <trkpt lat="46.06132" lon="4.715">
        <ele>192</ele>
        <time>2018-02-09T10:22:13Z</time>
      </trkpt>
      <trkpt lat="46.06134" lon="4.71506">
        <ele>192</ele>
        <time>2018-02-09T10:22:14Z</time>
      </trkpt>
      <trkpt lat="46.06136" lon="4.71512">
        <ele>192</ele>
        <time>2018-02-09T10:22:15Z</time>
      </trkpt>
      <trkpt lat="46.06138" lon="4.71519">
        <ele>192</ele>
        <time>2018-02-09T10:22:16Z</time>
      </trkpt>
      <trkpt lat="46.06144" lon="4.71526">
        <ele>192</ele>
        <time>2018-02-09T10:22:17Z</time>
      </trkpt>
      <trkpt lat="46.06147" lon="4.71533">
        <ele>192</ele>
        <time>2018-02-09T10:22:18Z</time>
      </trkpt>
      <trkpt lat="46.06151" lon="4.7154">
        <ele>192</ele>
        <time>2018-02-09T10:22:19Z</time>
      </trkpt>
      <trkpt lat="46.06156" lon="4.71546">
        <ele>192</ele>
        <time>2018-02-09T10:22:20Z</time>
      </trkpt>
      <trkpt lat="46.0616" lon="4.71551">
        <ele>192</ele>
        <time>2018-02-09T10:22:21Z</time>
      </trkpt>
      <trkpt lat="46.06164" lon="4.71557">
        <ele>192</ele>
        <time>2018-02-09T10:22:22Z</time>
      </trkpt>
      <trkpt lat="46.06168" lon="4.71562">
        <ele>191</ele>
        <time>2018-02-09T10:22:23Z</time>
      </trkpt>
      <trkpt lat="46.06173" lon="4.71567">
        <ele>191</ele>
        <time>2018-02-09T10:22:24Z</time>
      </trkpt>
      <trkpt lat="46.06177" lon="4.71572">
        <ele>191</ele>
        <time>2018-02-09T10:22:25Z</time>
      </trkpt>
      <trkpt lat="46.06181" lon="4.71576">
        <ele>191</ele>
        <time>2018-02-09T10:22:26Z</time>
      </trkpt>
      <trkpt lat="46.06185" lon="4.71582">
        <ele>191</ele>
        <time>2018-02-09T10:22:27Z</time>
      </trkpt>
      <trkpt lat="46.06189" lon="4.71589">
        <ele>191</ele>
        <time>2018-02-09T10:22:28Z</time>
      </trkpt>
      <trkpt lat="46.06192" lon="4.71594">
        <ele>191</ele>
        <time>2018-02-09T10:22:29Z</time>
      </trkpt>
      <trkpt lat="46.06197" lon="4.716">
        <ele>191</ele>
        <time>2018-02-09T10:22:30Z</time>
      </trkpt>
      <trkpt lat="46.062" lon="4.71605">
        <ele>191</ele>
        <time>2018-02-09T10:22:31Z</time>
      </trkpt>
      <trkpt lat="46.06205" lon="4.7161">
        <ele>191</ele>
        <time>2018-02-09T10:22:32Z</time>
      </trkpt>
      <trkpt lat="46.06208" lon="4.71615">
        <ele>191</ele>
        <time>2018-02-09T10:22:33Z</time>
      </trkpt>
      <trkpt lat="46.06212" lon="4.71621">
        <ele>191</ele>
        <time>2018-02-09T10:22:34Z</time>
      </trkpt>
      <trkpt lat="46.06216" lon="4.71628">
        <ele>191</ele>
        <time>2018-02-09T10:22:35Z</time>
      </trkpt>
      <trkpt lat="46.0622" lon="4.71635">
        <ele>191</ele>
        <time>2018-02-09T10:22:36Z</time>
      </trkpt>
      <trkpt lat="46.06224" lon="4.71642">
        <ele>191</ele>
        <time>2018-02-09T10:22:37Z</time>
      </trkpt>
      <trkpt lat="46.06228" lon="4.71649">
        <ele>191</ele>
        <time>2018-02-09T10:22:38Z</time>
      </trkpt>
      <trkpt lat="46.06231" lon="4.71655">
        <ele>191</ele>
        <time>2018-02-09T10:22:39Z</time>
      </trkpt>
      <trkpt lat="46.06235" lon="4.71663">
        <ele>191</ele>
        <time>2018-02-09T10:22:40Z</time>
      </trkpt>
      <trkpt lat="46.06238" lon="4.71669">
        <ele>191</ele>
        <time>2018-02-09T10:22:41Z</time>
      </trkpt>
      <trkpt lat="46.0624" lon="4.71676">
        <ele>191</ele>
        <time>2018-02-09T10:22:42Z</time>
      </trkpt>
      <trkpt lat="46.06243" lon="4.71683">
        <ele>191</ele>
        <time>2018-02-09T10:22:43Z</time>
      </trkpt>
      <trkpt lat="46.06245" lon="4.71691">
        <ele>191</ele>
        <time>2018-02-09T10:22:44Z</time>
      </trkpt>
      <trkpt lat="46.06247" lon="4.71698">
        <ele>191</ele>
        <time>2018-02-09T10:22:45Z</time>
      </trkpt>
      <trkpt lat="46.0625" lon="4.71706">
        <ele>191</ele>
        <time>2018-02-09T10:22:46Z</time>
      </trkpt>
      <trkpt lat="46.06251" lon="4.71713">
        <ele>190</ele>
        <time>2018-02-09T10:22:47Z</time>
      </trkpt>
      <trkpt lat="46.06254" lon="4.71719">
        <ele>190</ele>
        <time>2018-02-09T10:22:48Z</time>
      </trkpt>
      <trkpt lat="46.06256" lon="4.71726">
        <ele>190</ele>
        <time>2018-02-09T10:22:49Z</time>
      </trkpt>
      <trkpt lat="46.06258" lon="4.71732">
        <ele>190</ele>
        <time>2018-02-09T10:22:50Z</time>
      </trkpt>
      <trkpt lat="46.06261" lon="4.71739">
        <ele>190</ele>
        <time>2018-02-09T10:22:51Z</time>
      </trkpt>
      <trkpt lat="46.06264" lon="4.71745">
        <ele>190</ele>
        <time>2018-02-09T10:22:52Z</time>
      </trkpt>
      <trkpt lat="46.06266" lon="4.71752">
        <ele>190</ele>
        <time>2018-02-09T10:22:53Z</time>
      </trkpt>
      <trkpt lat="46.06268" lon="4.71759">
        <ele>190</ele>
        <time>2018-02-09T10:22:54Z</time>
      </trkpt>
      <trkpt lat="46.06271" lon="4.71765">
        <ele>190</ele>
        <time>2018-02-09T10:22:55Z</time>
      </trkpt>
      <trkpt lat="46.06272" lon="4.71772">
        <ele>190</ele>
        <time>2018-02-09T10:22:56Z</time>
      </trkpt>
      <trkpt lat="46.06275" lon="4.7178">
        <ele>190</ele>
        <time>2018-02-09T10:22:57Z</time>
      </trkpt>
      <trkpt lat="46.06276" lon="4.71788">
        <ele>190</ele>
        <time>2018-02-09T10:22:58Z</time>
      </trkpt>
      <trkpt lat="46.06278" lon="4.71795">
        <ele>190</ele>
        <time>2018-02-09T10:22:59Z</time>
      </trkpt>
      <trkpt lat="46.0628" lon="4.71803">
        <ele>190</ele>
        <time>2018-02-09T10:23:00Z</time>
      </trkpt>
      <trkpt lat="46.06282" lon="4.7181">
        <ele>190</ele>
        <time>2018-02-09T10:23:01Z</time>
      </trkpt>
      <trkpt lat="46.06283" lon="4.71817">
        <ele>189</ele>
        <time>2018-02-09T10:23:02Z</time>
      </trkpt>
      <trkpt lat="46.06285" lon="4.71824">
        <ele>189</ele>
        <time>2018-02-09T10:23:03Z</time>
      </trkpt>
      <trkpt lat="46.06286" lon="4.71832">
        <ele>189</ele>
        <time>2018-02-09T10:23:04Z</time>
      </trkpt>
      <trkpt lat="46.06289" lon="4.71841">
        <ele>189</ele>
        <time>2018-02-09T10:23:05Z</time>
      </trkpt>
      <trkpt lat="46.06291" lon="4.71849">
        <ele>189</ele>
        <time>2018-02-09T10:23:06Z</time>
      </trkpt>
      <trkpt lat="46.06293" lon="4.71858">
        <ele>189</ele>
        <time>2018-02-09T10:23:07Z</time>
      </trkpt>
      <trkpt lat="46.06295" lon="4.71866">
        <ele>189</ele>
        <time>2018-02-09T10:23:08Z</time>
      </trkpt>
      <trkpt lat="46.06297" lon="4.71875">
        <ele>189</ele>
        <time>2018-02-09T10:23:09Z</time>
      </trkpt>
      <trkpt lat="46.06299" lon="4.71884">
        <ele>189</ele>
        <time>2018-02-09T10:23:10Z</time>
      </trkpt>
      <trkpt lat="46.06301" lon="4.71894">
        <ele>189</ele>
        <time>2018-02-09T10:23:11Z</time>
      </trkpt>
      <trkpt lat="46.06303" lon="4.71908">
        <ele>189</ele>
        <time>2018-02-09T10:23:13Z</time>
      </trkpt>
      <trkpt lat="46.06305" lon="4.71917">
        <ele>190</ele>
        <time>2018-02-09T10:23:14Z</time>
      </trkpt>
      <trkpt lat="46.06308" lon="4.71924">
        <ele>190</ele>
        <time>2018-02-09T10:23:15Z</time>
      </trkpt>
      <trkpt lat="46.0631" lon="4.71931">
        <ele>190</ele>
        <time>2018-02-09T10:23:16Z</time>
      </trkpt>
      <trkpt lat="46.06313" lon="4.71939">
        <ele>190</ele>
        <time>2018-02-09T10:23:17Z</time>
      </trkpt>
      <trkpt lat="46.06314" lon="4.71945">
        <ele>190</ele>
        <time>2018-02-09T10:23:18Z</time>
      </trkpt>
      <trkpt lat="46.06316" lon="4.71953">
        <ele>190</ele>
        <time>2018-02-09T10:23:19Z</time>
      </trkpt>
      <trkpt lat="46.06319" lon="4.71964">
        <ele>190</ele>
        <time>2018-02-09T10:23:21Z</time>
      </trkpt>
      <trkpt lat="46.0632" lon="4.71969">
        <ele>190</ele>
        <time>2018-02-09T10:23:22Z</time>
      </trkpt>
      <trkpt lat="46.06323" lon="4.71981">
        <ele>190</ele>
        <time>2018-02-09T10:23:24Z</time>
      </trkpt>
      <trkpt lat="46.06325" lon="4.71986">
        <ele>190</ele>
        <time>2018-02-09T10:23:25Z</time>
      </trkpt>
      <trkpt lat="46.06327" lon="4.71992">
        <ele>189</ele>
        <time>2018-02-09T10:23:26Z</time>
      </trkpt>
      <trkpt lat="46.06329" lon="4.71999">
        <ele>189</ele>
        <time>2018-02-09T10:23:27Z</time>
      </trkpt>
      <trkpt lat="46.06331" lon="4.72007">
        <ele>189</ele>
        <time>2018-02-09T10:23:28Z</time>
      </trkpt>
      <trkpt lat="46.06332" lon="4.72013">
        <ele>189</ele>
        <time>2018-02-09T10:23:29Z</time>
      </trkpt>
      <trkpt lat="46.06334" lon="4.7202">
        <ele>189</ele>
        <time>2018-02-09T10:23:30Z</time>
      </trkpt>
      <trkpt lat="46.06336" lon="4.72028">
        <ele>189</ele>
        <time>2018-02-09T10:23:31Z</time>
      </trkpt>
      <trkpt lat="46.06339" lon="4.72035">
        <ele>189</ele>
        <time>2018-02-09T10:23:32Z</time>
      </trkpt>
      <trkpt lat="46.06342" lon="4.72041">
        <ele>189</ele>
        <time>2018-02-09T10:23:33Z</time>
      </trkpt>
      <trkpt lat="46.06344" lon="4.72049">
        <ele>189</ele>
        <time>2018-02-09T10:23:34Z</time>
      </trkpt>
      <trkpt lat="46.06347" lon="4.72055">
        <ele>189</ele>
        <time>2018-02-09T10:23:35Z</time>
      </trkpt>
      <trkpt lat="46.06349" lon="4.72064">
        <ele>189</ele>
        <time>2018-02-09T10:23:36Z</time>
      </trkpt>
      <trkpt lat="46.06351" lon="4.7207">
        <ele>189</ele>
        <time>2018-02-09T10:23:37Z</time>
      </trkpt>
      <trkpt lat="46.06353" lon="4.72076">
        <ele>189</ele>
        <time>2018-02-09T10:23:38Z</time>
      </trkpt>
      <trkpt lat="46.06356" lon="4.72082">
        <ele>189</ele>
        <time>2018-02-09T10:23:39Z</time>
      </trkpt>
      <trkpt lat="46.06358" lon="4.72088">
        <ele>189</ele>
        <time>2018-02-09T10:23:40Z</time>
      </trkpt>
      <trkpt lat="46.0636" lon="4.72094">
        <ele>189</ele>
        <time>2018-02-09T10:23:41Z</time>
      </trkpt>
      <trkpt lat="46.06363" lon="4.721">
        <ele>189</ele>
        <time>2018-02-09T10:23:42Z</time>
      </trkpt>
      <trkpt lat="46.06365" lon="4.72106">
        <ele>189</ele>
        <time>2018-02-09T10:23:43Z</time>
      </trkpt>
      <trkpt lat="46.06366" lon="4.72112">
        <ele>189</ele>
        <time>2018-02-09T10:23:44Z</time>
      </trkpt>
      <trkpt lat="46.06368" lon="4.72119">
        <ele>189</ele>
        <time>2018-02-09T10:23:45Z</time>
      </trkpt>
      <trkpt lat="46.0637" lon="4.72125">
        <ele>189</ele>
        <time>2018-02-09T10:23:46Z</time>
      </trkpt>
      <trkpt lat="46.06372" lon="4.72131">
        <ele>189</ele>
        <time>2018-02-09T10:23:47Z</time>
      </trkpt>
      <trkpt lat="46.06374" lon="4.72137">
        <ele>189</ele>
        <time>2018-02-09T10:23:48Z</time>
      </trkpt>
      <trkpt lat="46.06376" lon="4.72143">
        <ele>189</ele>
        <time>2018-02-09T10:23:49Z</time>
      </trkpt>
      <trkpt lat="46.06378" lon="4.72149">
        <ele>189</ele>
        <time>2018-02-09T10:23:50Z</time>
      </trkpt>
      <trkpt lat="46.06381" lon="4.72155">
        <ele>189</ele>
        <time>2018-02-09T10:23:51Z</time>
      </trkpt>
      <trkpt lat="46.06383" lon="4.72161">
        <ele>189</ele>
        <time>2018-02-09T10:23:52Z</time>
      </trkpt>
      <trkpt lat="46.06385" lon="4.72169">
        <ele>189</ele>
        <time>2018-02-09T10:23:53Z</time>
      </trkpt>
      <trkpt lat="46.06388" lon="4.72174">
        <ele>189</ele>
        <time>2018-02-09T10:23:54Z</time>
      </trkpt>
      <trkpt lat="46.0639" lon="4.72181">
        <ele>189</ele>
        <time>2018-02-09T10:23:55Z</time>
      </trkpt>
      <trkpt lat="46.06392" lon="4.72186">
        <ele>189</ele>
        <time>2018-02-09T10:23:56Z</time>
      </trkpt>
      <trkpt lat="46.06395" lon="4.72192">
        <ele>189</ele>
        <time>2018-02-09T10:23:57Z</time>
      </trkpt>
      <trkpt lat="46.06397" lon="4.72199">
        <ele>190</ele>
        <time>2018-02-09T10:23:58Z</time>
      </trkpt>
      <trkpt lat="46.06399" lon="4.72205">
        <ele>190</ele>
        <time>2018-02-09T10:23:59Z</time>
      </trkpt>
      <trkpt lat="46.064" lon="4.72211">
        <ele>190</ele>
        <time>2018-02-09T10:24:00Z</time>
      </trkpt>
      <trkpt lat="46.06402" lon="4.72217">
        <ele>190</ele>
        <time>2018-02-09T10:24:01Z</time>
      </trkpt>
      <trkpt lat="46.06406" lon="4.72228">
        <ele>190</ele>
        <time>2018-02-09T10:24:03Z</time>
      </trkpt>
      <trkpt lat="46.06407" lon="4.72233">
        <ele>190</ele>
        <time>2018-02-09T10:24:04Z</time>
      </trkpt>
      <trkpt lat="46.0641" lon="4.72244">
        <ele>189</ele>
        <time>2018-02-09T10:24:06Z</time>
      </trkpt>
      <trkpt lat="46.06412" lon="4.72249">
        <ele>189</ele>
        <time>2018-02-09T10:24:07Z</time>
      </trkpt>
      <trkpt lat="46.06414" lon="4.72255">
        <ele>190</ele>
        <time>2018-02-09T10:24:08Z</time>
      </trkpt>
      <trkpt lat="46.06415" lon="4.72262">
        <ele>191</ele>
        <time>2018-02-09T10:24:09Z</time>
      </trkpt>
      <trkpt lat="46.06415" lon="4.72268">
        <ele>191</ele>
        <time>2018-02-09T10:24:10Z</time>
      </trkpt>
      <trkpt lat="46.06416" lon="4.72275">
        <ele>191</ele>
        <time>2018-02-09T10:24:11Z</time>
      </trkpt>
      <trkpt lat="46.06419" lon="4.72287">
        <ele>190</ele>
        <time>2018-02-09T10:24:13Z</time>
      </trkpt>
      <trkpt lat="46.06424" lon="4.72292">
        <ele>190</ele>
        <time>2018-02-09T10:24:14Z</time>
      </trkpt>
      <trkpt lat="46.06429" lon="4.72295">
        <ele>190</ele>
        <time>2018-02-09T10:24:15Z</time>
      </trkpt>
      <trkpt lat="46.06435" lon="4.72296">
        <ele>190</ele>
        <time>2018-02-09T10:24:16Z</time>
      </trkpt>
      <trkpt lat="46.0644" lon="4.72296">
        <ele>190</ele>
        <time>2018-02-09T10:24:17Z</time>
      </trkpt>
      <trkpt lat="46.06445" lon="4.72298">
        <ele>190</ele>
        <time>2018-02-09T10:24:18Z</time>
      </trkpt>
      <trkpt lat="46.06451" lon="4.72307">
        <ele>191</ele>
        <time>2018-02-09T10:24:20Z</time>
      </trkpt>
      <trkpt lat="46.0645" lon="4.72314">
        <ele>191</ele>
        <time>2018-02-09T10:24:21Z</time>
      </trkpt>
      <trkpt lat="46.0645" lon="4.72322">
        <ele>191</ele>
        <time>2018-02-09T10:24:22Z</time>
      </trkpt>
      <trkpt lat="46.06448" lon="4.72328">
        <ele>191</ele>
        <time>2018-02-09T10:24:23Z</time>
      </trkpt>
      <trkpt lat="46.06446" lon="4.72336">
        <ele>194</ele>
        <time>2018-02-09T10:24:24Z</time>
      </trkpt>
      <trkpt lat="46.06444" lon="4.72342">
        <ele>194</ele>
        <time>2018-02-09T10:24:25Z</time>
      </trkpt>
      <trkpt lat="46.06443" lon="4.72354">
        <ele>194</ele>
        <time>2018-02-09T10:24:27Z</time>
      </trkpt>
      <trkpt lat="46.0644" lon="4.72359">
        <ele>194</ele>
        <time>2018-02-09T10:24:28Z</time>
      </trkpt>
      <trkpt lat="46.06438" lon="4.7237">
        <ele>194</ele>
        <time>2018-02-09T10:24:30Z</time>
      </trkpt>
      <trkpt lat="46.06437" lon="4.72375">
        <ele>195</ele>
        <time>2018-02-09T10:24:31Z</time>
      </trkpt>
      <trkpt lat="46.06435" lon="4.72383">
        <ele>195</ele>
        <time>2018-02-09T10:24:33Z</time>
      </trkpt>
      <trkpt lat="46.06434" lon="4.72387">
        <ele>195</ele>
        <time>2018-02-09T10:24:34Z</time>
      </trkpt>
      <trkpt lat="46.0643" lon="4.72394">
        <ele>195</ele>
        <time>2018-02-09T10:24:36Z</time>
      </trkpt>
      <trkpt lat="46.06429" lon="4.72398">
        <ele>195</ele>
        <time>2018-02-09T10:24:37Z</time>
      </trkpt>
      <trkpt lat="46.06427" lon="4.72407">
        <ele>195</ele>
        <time>2018-02-09T10:24:39Z</time>
      </trkpt>
      <trkpt lat="46.06426" lon="4.72412">
        <ele>195</ele>
        <time>2018-02-09T10:24:40Z</time>
      </trkpt>
      <trkpt lat="46.06423" lon="4.72421">
        <ele>196</ele>
        <time>2018-02-09T10:24:42Z</time>
      </trkpt>
      <trkpt lat="46.06422" lon="4.72425">
        <ele>196</ele>
        <time>2018-02-09T10:24:43Z</time>
      </trkpt>
      <trkpt lat="46.06419" lon="4.72435">
        <ele>197</ele>
        <time>2018-02-09T10:24:45Z</time>
      </trkpt>
      <trkpt lat="46.06418" lon="4.7244">
        <ele>197</ele>
        <time>2018-02-09T10:24:46Z</time>
      </trkpt>
      <trkpt lat="46.06414" lon="4.72449">
        <ele>197</ele>
        <time>2018-02-09T10:24:48Z</time>
      </trkpt>
      <trkpt lat="46.06412" lon="4.72453">
        <ele>197</ele>
        <time>2018-02-09T10:24:49Z</time>
      </trkpt>
      <trkpt lat="46.06407" lon="4.7246">
        <ele>197</ele>
        <time>2018-02-09T10:24:51Z</time>
      </trkpt>
      <trkpt lat="46.06405" lon="4.72462">
        <ele>197</ele>
        <time>2018-02-09T10:24:52Z</time>
      </trkpt>
      <trkpt lat="46.06398" lon="4.7247">
        <ele>198</ele>
        <time>2018-02-09T10:24:55Z</time>
      </trkpt>
      <trkpt lat="46.06396" lon="4.72474">
        <ele>198</ele>
        <time>2018-02-09T10:24:56Z</time>
      </trkpt>
      <trkpt lat="46.06396" lon="4.72484">
        <ele>198</ele>
        <time>2018-02-09T10:24:58Z</time>
      </trkpt>
      <trkpt lat="46.06397" lon="4.7249">
        <ele>198</ele>
        <time>2018-02-09T10:24:59Z</time>
      </trkpt>
      <trkpt lat="46.06401" lon="4.72496">
        <ele>198</ele>
        <time>2018-02-09T10:25:00Z</time>
      </trkpt>
      <trkpt lat="46.06404" lon="4.72503">
        <ele>198</ele>
        <time>2018-02-09T10:25:01Z</time>
      </trkpt>
      <trkpt lat="46.06406" lon="4.72509">
        <ele>198</ele>
        <time>2018-02-09T10:25:02Z</time>
      </trkpt>
      <trkpt lat="46.06408" lon="4.72516">
        <ele>198</ele>
        <time>2018-02-09T10:25:03Z</time>
      </trkpt>
      <trkpt lat="46.06409" lon="4.72523">
        <ele>197</ele>
        <time>2018-02-09T10:25:04Z</time>
      </trkpt>
      <trkpt lat="46.06411" lon="4.7253">
        <ele>197</ele>
        <time>2018-02-09T10:25:05Z</time>
      </trkpt>
      <trkpt lat="46.06411" lon="4.72536">
        <ele>197</ele>
        <time>2018-02-09T10:25:06Z</time>
      </trkpt>
      <trkpt lat="46.06412" lon="4.72544">
        <ele>196</ele>
        <time>2018-02-09T10:25:07Z</time>
      </trkpt>
      <trkpt lat="46.06413" lon="4.72552">
        <ele>196</ele>
        <time>2018-02-09T10:25:08Z</time>
      </trkpt>
      <trkpt lat="46.06416" lon="4.7256">
        <ele>196</ele>
        <time>2018-02-09T10:25:09Z</time>
      </trkpt>
      <trkpt lat="46.06416" lon="4.72567">
        <ele>196</ele>
        <time>2018-02-09T10:25:10Z</time>
      </trkpt>
      <trkpt lat="46.06418" lon="4.72575">
        <ele>195</ele>
        <time>2018-02-09T10:25:11Z</time>
      </trkpt>
      <trkpt lat="46.06419" lon="4.72583">
        <ele>195</ele>
        <time>2018-02-09T10:25:12Z</time>
      </trkpt>
      <trkpt lat="46.0642" lon="4.72591">
        <ele>194</ele>
        <time>2018-02-09T10:25:13Z</time>
      </trkpt>
      <trkpt lat="46.06422" lon="4.726">
        <ele>194</ele>
        <time>2018-02-09T10:25:14Z</time>
      </trkpt>
      <trkpt lat="46.06423" lon="4.72608">
        <ele>193</ele>
        <time>2018-02-09T10:25:15Z</time>
      </trkpt>
      <trkpt lat="46.06426" lon="4.72618">
        <ele>193</ele>
        <time>2018-02-09T10:25:16Z</time>
      </trkpt>
      <trkpt lat="46.06427" lon="4.72626">
        <ele>193</ele>
        <time>2018-02-09T10:25:17Z</time>
      </trkpt>
      <trkpt lat="46.06427" lon="4.72634">
        <ele>192</ele>
        <time>2018-02-09T10:25:18Z</time>
      </trkpt>
      <trkpt lat="46.06429" lon="4.72643">
        <ele>192</ele>
        <time>2018-02-09T10:25:19Z</time>
      </trkpt>
      <trkpt lat="46.06431" lon="4.72652">
        <ele>192</ele>
        <time>2018-02-09T10:25:20Z</time>
      </trkpt>
      <trkpt lat="46.06434" lon="4.72661">
        <ele>192</ele>
        <time>2018-02-09T10:25:21Z</time>
      </trkpt>
      <trkpt lat="46.06436" lon="4.72671">
        <ele>191</ele>
        <time>2018-02-09T10:25:22Z</time>
      </trkpt>
      <trkpt lat="46.06437" lon="4.72681">
        <ele>191</ele>
        <time>2018-02-09T10:25:23Z</time>
      </trkpt>
      <trkpt lat="46.06438" lon="4.7269">
        <ele>190</ele>
        <time>2018-02-09T10:25:24Z</time>
      </trkpt>
      <trkpt lat="46.0644" lon="4.72698">
        <ele>190</ele>
        <time>2018-02-09T10:25:25Z</time>
      </trkpt>
      <trkpt lat="46.06441" lon="4.72707">
        <ele>190</ele>
        <time>2018-02-09T10:25:26Z</time>
      </trkpt>
      <trkpt lat="46.06442" lon="4.72716">
        <ele>190</ele>
        <time>2018-02-09T10:25:27Z</time>
      </trkpt>
      <trkpt lat="46.06444" lon="4.72726">
        <ele>190</ele>
        <time>2018-02-09T10:25:28Z</time>
      </trkpt>
      <trkpt lat="46.06445" lon="4.72736">
        <ele>189</ele>
        <time>2018-02-09T10:25:29Z</time>
      </trkpt>
      <trkpt lat="46.06447" lon="4.72746">
        <ele>189</ele>
        <time>2018-02-09T10:25:30Z</time>
      </trkpt>
      <trkpt lat="46.06449" lon="4.72756">
        <ele>188</ele>
        <time>2018-02-09T10:25:31Z</time>
      </trkpt>
      <trkpt lat="46.0645" lon="4.72766">
        <ele>188</ele>
        <time>2018-02-09T10:25:32Z</time>
      </trkpt>
      <trkpt lat="46.06452" lon="4.72775">
        <ele>188</ele>
        <time>2018-02-09T10:25:33Z</time>
      </trkpt>
      <trkpt lat="46.06454" lon="4.72785">
        <ele>188</ele>
        <time>2018-02-09T10:25:34Z</time>
      </trkpt>
      <trkpt lat="46.06456" lon="4.72795">
        <ele>188</ele>
        <time>2018-02-09T10:25:35Z</time>
      </trkpt>
      <trkpt lat="46.06459" lon="4.72805">
        <ele>188</ele>
        <time>2018-02-09T10:25:36Z</time>
      </trkpt>
      <trkpt lat="46.0646" lon="4.72814">
        <ele>188</ele>
        <time>2018-02-09T10:25:37Z</time>
      </trkpt>
      <trkpt lat="46.06462" lon="4.72823">
        <ele>188</ele>
        <time>2018-02-09T10:25:38Z</time>
      </trkpt>
      <trkpt lat="46.06464" lon="4.72833">
        <ele>188</ele>
        <time>2018-02-09T10:25:39Z</time>
      </trkpt>
      <trkpt lat="46.06465" lon="4.72843">
        <ele>188</ele>
        <time>2018-02-09T10:25:40Z</time>
      </trkpt>
      <trkpt lat="46.06466" lon="4.72852">
        <ele>188</ele>
        <time>2018-02-09T10:25:41Z</time>
      </trkpt>
      <trkpt lat="46.06467" lon="4.72861">
        <ele>188</ele>
        <time>2018-02-09T10:25:42Z</time>
      </trkpt>
      <trkpt lat="46.06469" lon="4.7287">
        <ele>188</ele>
        <time>2018-02-09T10:25:43Z</time>
      </trkpt>
      <trkpt lat="46.06469" lon="4.7288">
        <ele>188</ele>
        <time>2018-02-09T10:25:44Z</time>
      </trkpt>
      <trkpt lat="46.06471" lon="4.72889">
        <ele>188</ele>
        <time>2018-02-09T10:25:45Z</time>
      </trkpt>
      <trkpt lat="46.06473" lon="4.72899">
        <ele>188</ele>
        <time>2018-02-09T10:25:46Z</time>
      </trkpt>
      <trkpt lat="46.06475" lon="4.72909">
        <ele>188</ele>
        <time>2018-02-09T10:25:47Z</time>
      </trkpt>
      <trkpt lat="46.06477" lon="4.7292">
        <ele>188</ele>
        <time>2018-02-09T10:25:48Z</time>
      </trkpt>
      <trkpt lat="46.06478" lon="4.72928">
        <ele>188</ele>
        <time>2018-02-09T10:25:49Z</time>
      </trkpt>
      <trkpt lat="46.0648" lon="4.72938">
        <ele>188</ele>
        <time>2018-02-09T10:25:50Z</time>
      </trkpt>
      <trkpt lat="46.06483" lon="4.72948">
        <ele>188</ele>
        <time>2018-02-09T10:25:51Z</time>
      </trkpt>
      <trkpt lat="46.06484" lon="4.72957">
        <ele>188</ele>
        <time>2018-02-09T10:25:52Z</time>
      </trkpt>
      <trkpt lat="46.06484" lon="4.72966">
        <ele>188</ele>
        <time>2018-02-09T10:25:53Z</time>
      </trkpt>
      <trkpt lat="46.06484" lon="4.72974">
        <ele>189</ele>
        <time>2018-02-09T10:25:54Z</time>
      </trkpt>
      <trkpt lat="46.06482" lon="4.72983">
        <ele>189</ele>
        <time>2018-02-09T10:25:55Z</time>
      </trkpt>
      <trkpt lat="46.06481" lon="4.72991">
        <ele>189</ele>
        <time>2018-02-09T10:25:56Z</time>
      </trkpt>
      <trkpt lat="46.06481" lon="4.72999">
        <ele>189</ele>
        <time>2018-02-09T10:25:57Z</time>
      </trkpt>
      <trkpt lat="46.06485" lon="4.73005">
        <ele>189</ele>
        <time>2018-02-09T10:25:58Z</time>
      </trkpt>
      <trkpt lat="46.0649" lon="4.7301">
        <ele>189</ele>
        <time>2018-02-09T10:25:59Z</time>
      </trkpt>
      <trkpt lat="46.06494" lon="4.73014">
        <ele>189</ele>
        <time>2018-02-09T10:26:00Z</time>
      </trkpt>
      <trkpt lat="46.06498" lon="4.7302">
        <ele>189</ele>
        <time>2018-02-09T10:26:01Z</time>
      </trkpt>
      <trkpt lat="46.06501" lon="4.73027">
        <ele>189</ele>
        <time>2018-02-09T10:26:02Z</time>
      </trkpt>
      <trkpt lat="46.06504" lon="4.73035">
        <ele>189</ele>
        <time>2018-02-09T10:26:03Z</time>
      </trkpt>
      <trkpt lat="46.06507" lon="4.73043">
        <ele>189</ele>
        <time>2018-02-09T10:26:04Z</time>
      </trkpt>
      <trkpt lat="46.06511" lon="4.73051">
        <ele>188</ele>
        <time>2018-02-09T10:26:05Z</time>
      </trkpt>
      <trkpt lat="46.06514" lon="4.73059">
        <ele>188</ele>
        <time>2018-02-09T10:26:06Z</time>
      </trkpt>
      <trkpt lat="46.06517" lon="4.73067">
        <ele>188</ele>
        <time>2018-02-09T10:26:07Z</time>
      </trkpt>
      <trkpt lat="46.0652" lon="4.73076">
        <ele>188</ele>
        <time>2018-02-09T10:26:08Z</time>
      </trkpt>
      <trkpt lat="46.06523" lon="4.73084">
        <ele>188</ele>
        <time>2018-02-09T10:26:09Z</time>
      </trkpt>
      <trkpt lat="46.06526" lon="4.73092">
        <ele>188</ele>
        <time>2018-02-09T10:26:10Z</time>
      </trkpt>
      <trkpt lat="46.06529" lon="4.73101">
        <ele>188</ele>
        <time>2018-02-09T10:26:11Z</time>
      </trkpt>
      <trkpt lat="46.06532" lon="4.73109">
        <ele>188</ele>
        <time>2018-02-09T10:26:12Z</time>
      </trkpt>
      <trkpt lat="46.06536" lon="4.73118">
        <ele>188</ele>
        <time>2018-02-09T10:26:13Z</time>
      </trkpt>
      <trkpt lat="46.06539" lon="4.73127">
        <ele>188</ele>
        <time>2018-02-09T10:26:14Z</time>
      </trkpt>
      <trkpt lat="46.06542" lon="4.73135">
        <ele>188</ele>
        <time>2018-02-09T10:26:15Z</time>
      </trkpt>
      <trkpt lat="46.06544" lon="4.73145">
        <ele>187</ele>
        <time>2018-02-09T10:26:16Z</time>
      </trkpt>
      <trkpt lat="46.06545" lon="4.73155">
        <ele>187</ele>
        <time>2018-02-09T10:26:17Z</time>
      </trkpt>
      <trkpt lat="46.06546" lon="4.73165">
        <ele>187</ele>
        <time>2018-02-09T10:26:18Z</time>
      </trkpt>
      <trkpt lat="46.06549" lon="4.73174">
        <ele>187</ele>
        <time>2018-02-09T10:26:19Z</time>
      </trkpt>
      <trkpt lat="46.06549" lon="4.73184">
        <ele>187</ele>
        <time>2018-02-09T10:26:20Z</time>
      </trkpt>
      <trkpt lat="46.06551" lon="4.73194">
        <ele>187</ele>
        <time>2018-02-09T10:26:21Z</time>
      </trkpt>
      <trkpt lat="46.06551" lon="4.73204">
        <ele>186</ele>
        <time>2018-02-09T10:26:22Z</time>
      </trkpt>
      <trkpt lat="46.06552" lon="4.73213">
        <ele>186</ele>
        <time>2018-02-09T10:26:23Z</time>
      </trkpt>
      <trkpt lat="46.06553" lon="4.73223">
        <ele>186</ele>
        <time>2018-02-09T10:26:24Z</time>
      </trkpt>
      <trkpt lat="46.06555" lon="4.73232">
        <ele>186</ele>
        <time>2018-02-09T10:26:25Z</time>
      </trkpt>
      <trkpt lat="46.06557" lon="4.73242">
        <ele>186</ele>
        <time>2018-02-09T10:26:26Z</time>
      </trkpt>
      <trkpt lat="46.06561" lon="4.73249">
        <ele>186</ele>
        <time>2018-02-09T10:26:27Z</time>
      </trkpt>
      <trkpt lat="46.06565" lon="4.73258">
        <ele>184</ele>
        <time>2018-02-09T10:26:28Z</time>
      </trkpt>
      <trkpt lat="46.06568" lon="4.73265">
        <ele>184</ele>
        <time>2018-02-09T10:26:29Z</time>
      </trkpt>
      <trkpt lat="46.06572" lon="4.73274">
        <ele>184</ele>
        <time>2018-02-09T10:26:30Z</time>
      </trkpt>
      <trkpt lat="46.06575" lon="4.73283">
        <ele>184</ele>
        <time>2018-02-09T10:26:31Z</time>
      </trkpt>
      <trkpt lat="46.06578" lon="4.73293">
        <ele>184</ele>
        <time>2018-02-09T10:26:32Z</time>
      </trkpt>
      <trkpt lat="46.06581" lon="4.73302">
        <ele>183</ele>
        <time>2018-02-09T10:26:33Z</time>
      </trkpt>
      <trkpt lat="46.06583" lon="4.73312">
        <ele>183</ele>
        <time>2018-02-09T10:26:34Z</time>
      </trkpt>
      <trkpt lat="46.06584" lon="4.73322">
        <ele>182</ele>
        <time>2018-02-09T10:26:35Z</time>
      </trkpt>
      <trkpt lat="46.06586" lon="4.73331">
        <ele>182</ele>
        <time>2018-02-09T10:26:36Z</time>
      </trkpt>
      <trkpt lat="46.06589" lon="4.7334">
        <ele>182</ele>
        <time>2018-02-09T10:26:37Z</time>
      </trkpt>
      <trkpt lat="46.06594" lon="4.73346">
        <ele>182</ele>
        <time>2018-02-09T10:26:38Z</time>
      </trkpt>
      <trkpt lat="46.06601" lon="4.7335">
        <ele>182</ele>
        <time>2018-02-09T10:26:39Z</time>
      </trkpt>
      <trkpt lat="46.06608" lon="4.73355">
        <ele>182</ele>
        <time>2018-02-09T10:26:40Z</time>
      </trkpt>
      <trkpt lat="46.06614" lon="4.73358">
        <ele>182</ele>
        <time>2018-02-09T10:26:41Z</time>
      </trkpt>
      <trkpt lat="46.06621" lon="4.73362">
        <ele>182</ele>
        <time>2018-02-09T10:26:42Z</time>
      </trkpt>
      <trkpt lat="46.06628" lon="4.73365">
        <ele>182</ele>
        <time>2018-02-09T10:26:43Z</time>
      </trkpt>
      <trkpt lat="46.06634" lon="4.7337">
        <ele>182</ele>
        <time>2018-02-09T10:26:44Z</time>
      </trkpt>
      <trkpt lat="46.06642" lon="4.73375">
        <ele>182</ele>
        <time>2018-02-09T10:26:45Z</time>
      </trkpt>
      <trkpt lat="46.06649" lon="4.73381">
        <ele>182</ele>
        <time>2018-02-09T10:26:46Z</time>
      </trkpt>
      <trkpt lat="46.06655" lon="4.73388">
        <ele>182</ele>
        <time>2018-02-09T10:26:47Z</time>
      </trkpt>
      <trkpt lat="46.0666" lon="4.73397">
        <ele>182</ele>
        <time>2018-02-09T10:26:48Z</time>
      </trkpt>
      <trkpt lat="46.06667" lon="4.73405">
        <ele>181</ele>
        <time>2018-02-09T10:26:49Z</time>
      </trkpt>
      <trkpt lat="46.06673" lon="4.73413">
        <ele>182</ele>
        <time>2018-02-09T10:26:50Z</time>
      </trkpt>
      <trkpt lat="46.06679" lon="4.73421">
        <ele>181</ele>
        <time>2018-02-09T10:26:51Z</time>
      </trkpt>
      <trkpt lat="46.06684" lon="4.73429">
        <ele>181</ele>
        <time>2018-02-09T10:26:52Z</time>
      </trkpt>
      <trkpt lat="46.06689" lon="4.73437">
        <ele>181</ele>
        <time>2018-02-09T10:26:53Z</time>
      </trkpt>
      <trkpt lat="46.06695" lon="4.73444">
        <ele>181</ele>
        <time>2018-02-09T10:26:54Z</time>
      </trkpt>
      <trkpt lat="46.067" lon="4.73452">
        <ele>180</ele>
        <time>2018-02-09T10:26:55Z</time>
      </trkpt>
      <trkpt lat="46.06706" lon="4.73459">
        <ele>180</ele>
        <time>2018-02-09T10:26:56Z</time>
      </trkpt>
      <trkpt lat="46.0671" lon="4.73465">
        <ele>180</ele>
        <time>2018-02-09T10:26:57Z</time>
      </trkpt>
      <trkpt lat="46.06715" lon="4.73472">
        <ele>180</ele>
        <time>2018-02-09T10:26:58Z</time>
      </trkpt>
      <trkpt lat="46.06719" lon="4.73478">
        <ele>180</ele>
        <time>2018-02-09T10:26:59Z</time>
      </trkpt>
      <trkpt lat="46.06724" lon="4.73485">
        <ele>180</ele>
        <time>2018-02-09T10:27:00Z</time>
      </trkpt>
      <trkpt lat="46.06728" lon="4.73492">
        <ele>180</ele>
        <time>2018-02-09T10:27:01Z</time>
      </trkpt>
      <trkpt lat="46.06732" lon="4.73498">
        <ele>180</ele>
        <time>2018-02-09T10:27:02Z</time>
      </trkpt>
      <trkpt lat="46.06737" lon="4.73505">
        <ele>180</ele>
        <time>2018-02-09T10:27:03Z</time>
      </trkpt>
      <trkpt lat="46.06741" lon="4.73512">
        <ele>180</ele>
        <time>2018-02-09T10:27:04Z</time>
      </trkpt>
      <trkpt lat="46.06746" lon="4.73522">
        <ele>180</ele>
        <time>2018-02-09T10:27:05Z</time>
      </trkpt>
      <trkpt lat="46.0675" lon="4.7353">
        <ele>180</ele>
        <time>2018-02-09T10:27:06Z</time>
      </trkpt>
      <trkpt lat="46.06756" lon="4.73535">
        <ele>179</ele>
        <time>2018-02-09T10:27:07Z</time>
      </trkpt>
      <trkpt lat="46.06761" lon="4.73543">
        <ele>179</ele>
        <time>2018-02-09T10:27:08Z</time>
      </trkpt>
      <trkpt lat="46.06766" lon="4.7355">
        <ele>179</ele>
        <time>2018-02-09T10:27:09Z</time>
      </trkpt>
      <trkpt lat="46.0677" lon="4.73558">
        <ele>179</ele>
        <time>2018-02-09T10:27:10Z</time>
      </trkpt>
      <trkpt lat="46.06773" lon="4.73566">
        <ele>180</ele>
        <time>2018-02-09T10:27:11Z</time>
      </trkpt>
      <trkpt lat="46.06776" lon="4.73575">
        <ele>180</ele>
        <time>2018-02-09T10:27:12Z</time>
      </trkpt>
      <trkpt lat="46.0678" lon="4.73584">
        <ele>179</ele>
        <time>2018-02-09T10:27:13Z</time>
      </trkpt>
      <trkpt lat="46.06784" lon="4.73591">
        <ele>179</ele>
        <time>2018-02-09T10:27:14Z</time>
      </trkpt>
      <trkpt lat="46.06788" lon="4.73598">
        <ele>179</ele>
        <time>2018-02-09T10:27:15Z</time>
      </trkpt>
      <trkpt lat="46.06793" lon="4.73605">
        <ele>179</ele>
        <time>2018-02-09T10:27:16Z</time>
      </trkpt>
      <trkpt lat="46.06799" lon="4.7361">
        <ele>178</ele>
        <time>2018-02-09T10:27:17Z</time>
      </trkpt>
      <trkpt lat="46.06804" lon="4.73617">
        <ele>178</ele>
        <time>2018-02-09T10:27:18Z</time>
      </trkpt>
      <trkpt lat="46.06809" lon="4.73623">
        <ele>178</ele>
        <time>2018-02-09T10:27:19Z</time>
      </trkpt>
      <trkpt lat="46.06814" lon="4.7363">
        <ele>178</ele>
        <time>2018-02-09T10:27:20Z</time>
      </trkpt>
      <trkpt lat="46.06819" lon="4.73637">
        <ele>178</ele>
        <time>2018-02-09T10:27:21Z</time>
      </trkpt>
      <trkpt lat="46.06823" lon="4.73643">
        <ele>177</ele>
        <time>2018-02-09T10:27:22Z</time>
      </trkpt>
      <trkpt lat="46.06828" lon="4.73648">
        <ele>177</ele>
        <time>2018-02-09T10:27:23Z</time>
      </trkpt>
      <trkpt lat="46.06832" lon="4.73652">
        <ele>177</ele>
        <time>2018-02-09T10:27:24Z</time>
      </trkpt>
      <trkpt lat="46.06836" lon="4.73657">
        <ele>176</ele>
        <time>2018-02-09T10:27:25Z</time>
      </trkpt>
      <trkpt lat="46.06839" lon="4.73661">
        <ele>176</ele>
        <time>2018-02-09T10:27:26Z</time>
      </trkpt>
      <trkpt lat="46.06844" lon="4.73666">
        <ele>176</ele>
        <time>2018-02-09T10:27:27Z</time>
      </trkpt>
      <trkpt lat="46.06848" lon="4.73671">
        <ele>176</ele>
        <time>2018-02-09T10:27:28Z</time>
      </trkpt>
      <trkpt lat="46.06853" lon="4.73676">
        <ele>176</ele>
        <time>2018-02-09T10:27:29Z</time>
      </trkpt>
      <trkpt lat="46.06858" lon="4.7368">
        <ele>176</ele>
        <time>2018-02-09T10:27:30Z</time>
      </trkpt>
      <trkpt lat="46.06862" lon="4.73684">
        <ele>176</ele>
        <time>2018-02-09T10:27:31Z</time>
      </trkpt>
      <trkpt lat="46.06867" lon="4.73689">
        <ele>176</ele>
        <time>2018-02-09T10:27:32Z</time>
      </trkpt>
      <trkpt lat="46.06871" lon="4.73693">
        <ele>176</ele>
        <time>2018-02-09T10:27:33Z</time>
      </trkpt>
      <trkpt lat="46.06875" lon="4.73698">
        <ele>176</ele>
        <time>2018-02-09T10:27:34Z</time>
      </trkpt>
      <trkpt lat="46.0688" lon="4.73703">
        <ele>176</ele>
        <time>2018-02-09T10:27:35Z</time>
      </trkpt>
      <trkpt lat="46.06884" lon="4.73708">
        <ele>176</ele>
        <time>2018-02-09T10:27:36Z</time>
      </trkpt>
      <trkpt lat="46.06889" lon="4.73713">
        <ele>176</ele>
        <time>2018-02-09T10:27:37Z</time>
      </trkpt>
      <trkpt lat="46.06893" lon="4.73717">
        <ele>176</ele>
        <time>2018-02-09T10:27:38Z</time>
      </trkpt>
      <trkpt lat="46.06897" lon="4.73723">
        <ele>176</ele>
        <time>2018-02-09T10:27:39Z</time>
      </trkpt>
      <trkpt lat="46.069" lon="4.73728">
        <ele>176</ele>
        <time>2018-02-09T10:27:40Z</time>
      </trkpt>
      <trkpt lat="46.06904" lon="4.73734">
        <ele>177</ele>
        <time>2018-02-09T10:27:41Z</time>
      </trkpt>
      <trkpt lat="46.06908" lon="4.7374">
        <ele>177</ele>
        <time>2018-02-09T10:27:42Z</time>
      </trkpt>
      <trkpt lat="46.06911" lon="4.73745">
        <ele>177</ele>
        <time>2018-02-09T10:27:43Z</time>
      </trkpt>
      <trkpt lat="46.06915" lon="4.73752">
        <ele>177</ele>
        <time>2018-02-09T10:27:44Z</time>
      </trkpt>
      <trkpt lat="46.06919" lon="4.73757">
        <ele>177</ele>
        <time>2018-02-09T10:27:45Z</time>
      </trkpt>
      <trkpt lat="46.06923" lon="4.73762">
        <ele>177</ele>
        <time>2018-02-09T10:27:46Z</time>
      </trkpt>
      <trkpt lat="46.06928" lon="4.73767">
        <ele>176</ele>
        <time>2018-02-09T10:27:47Z</time>
      </trkpt>
      <trkpt lat="46.06934" lon="4.73771">
        <ele>176</ele>
        <time>2018-02-09T10:27:48Z</time>
      </trkpt>
      <trkpt lat="46.0694" lon="4.73774">
        <ele>176</ele>
        <time>2018-02-09T10:27:49Z</time>
      </trkpt>
      <trkpt lat="46.06945" lon="4.73779">
        <ele>176</ele>
        <time>2018-02-09T10:27:50Z</time>
      </trkpt>
      <trkpt lat="46.06951" lon="4.73782">
        <ele>176</ele>
        <time>2018-02-09T10:27:51Z</time>
      </trkpt>
      <trkpt lat="46.06957" lon="4.73786">
        <ele>176</ele>
        <time>2018-02-09T10:27:52Z</time>
      </trkpt>
      <trkpt lat="46.06963" lon="4.73789">
        <ele>176</ele>
        <time>2018-02-09T10:27:53Z</time>
      </trkpt>
      <trkpt lat="46.06969" lon="4.7379">
        <ele>176</ele>
        <time>2018-02-09T10:27:54Z</time>
      </trkpt>
      <trkpt lat="46.06975" lon="4.73792">
        <ele>176</ele>
        <time>2018-02-09T10:27:55Z</time>
      </trkpt>
      <trkpt lat="46.06982" lon="4.73794">
        <ele>176</ele>
        <time>2018-02-09T10:27:56Z</time>
      </trkpt>
      <trkpt lat="46.06989" lon="4.73795">
        <ele>176</ele>
        <time>2018-02-09T10:27:57Z</time>
      </trkpt>
      <trkpt lat="46.06995" lon="4.73796">
        <ele>176</ele>
        <time>2018-02-09T10:27:58Z</time>
      </trkpt>
      <trkpt lat="46.07003" lon="4.73796">
        <ele>176</ele>
        <time>2018-02-09T10:27:59Z</time>
      </trkpt>
      <trkpt lat="46.07009" lon="4.73797">
        <ele>177</ele>
        <time>2018-02-09T10:28:00Z</time>
      </trkpt>
      <trkpt lat="46.07015" lon="4.73798">
        <ele>177</ele>
        <time>2018-02-09T10:28:01Z</time>
      </trkpt>
      <trkpt lat="46.07022" lon="4.73797">
        <ele>177</ele>
        <time>2018-02-09T10:28:02Z</time>
      </trkpt>
      <trkpt lat="46.07029" lon="4.73798">
        <ele>177</ele>
        <time>2018-02-09T10:28:03Z</time>
      </trkpt>
      <trkpt lat="46.07035" lon="4.73798">
        <ele>177</ele>
        <time>2018-02-09T10:28:04Z</time>
      </trkpt>
      <trkpt lat="46.07041" lon="4.73798">
        <ele>177</ele>
        <time>2018-02-09T10:28:05Z</time>
      </trkpt>
      <trkpt lat="46.07047" lon="4.73799">
        <ele>177</ele>
        <time>2018-02-09T10:28:06Z</time>
      </trkpt>
      <trkpt lat="46.07053" lon="4.73801">
        <ele>177</ele>
        <time>2018-02-09T10:28:07Z</time>
      </trkpt>
      <trkpt lat="46.07059" lon="4.73802">
        <ele>177</ele>
        <time>2018-02-09T10:28:08Z</time>
      </trkpt>
      <trkpt lat="46.07066" lon="4.73805">
        <ele>178</ele>
        <time>2018-02-09T10:28:09Z</time>
      </trkpt>
      <trkpt lat="46.07072" lon="4.73807">
        <ele>178</ele>
        <time>2018-02-09T10:28:10Z</time>
      </trkpt>
      <trkpt lat="46.07077" lon="4.7381">
        <ele>178</ele>
        <time>2018-02-09T10:28:11Z</time>
      </trkpt>
      <trkpt lat="46.07082" lon="4.73812">
        <ele>178</ele>
        <time>2018-02-09T10:28:12Z</time>
      </trkpt>
      <trkpt lat="46.07088" lon="4.73815">
        <ele>178</ele>
        <time>2018-02-09T10:28:13Z</time>
      </trkpt>
      <trkpt lat="46.07093" lon="4.73819">
        <ele>178</ele>
        <time>2018-02-09T10:28:14Z</time>
      </trkpt>
      <trkpt lat="46.07097" lon="4.73824">
        <ele>178</ele>
        <time>2018-02-09T10:28:15Z</time>
      </trkpt>
      <trkpt lat="46.07102" lon="4.73829">
        <ele>178</ele>
        <time>2018-02-09T10:28:16Z</time>
      </trkpt>
      <trkpt lat="46.07107" lon="4.73832">
        <ele>178</ele>
        <time>2018-02-09T10:28:17Z</time>
      </trkpt>
      <trkpt lat="46.07111" lon="4.73836">
        <ele>177</ele>
        <time>2018-02-09T10:28:18Z</time>
      </trkpt>
      <trkpt lat="46.07116" lon="4.73841">
        <ele>177</ele>
        <time>2018-02-09T10:28:19Z</time>
      </trkpt>
      <trkpt lat="46.0712" lon="4.73846">
        <ele>177</ele>
        <time>2018-02-09T10:28:20Z</time>
      </trkpt>
      <trkpt lat="46.07125" lon="4.73852">
        <ele>177</ele>
        <time>2018-02-09T10:28:21Z</time>
      </trkpt>
      <trkpt lat="46.07128" lon="4.73859">
        <ele>176</ele>
        <time>2018-02-09T10:28:22Z</time>
      </trkpt>
      <trkpt lat="46.07132" lon="4.73865">
        <ele>176</ele>
        <time>2018-02-09T10:28:23Z</time>
      </trkpt>
      <trkpt lat="46.07134" lon="4.73871">
        <ele>176</ele>
        <time>2018-02-09T10:28:24Z</time>
      </trkpt>
      <trkpt lat="46.07139" lon="4.73878">
        <ele>176</ele>
        <time>2018-02-09T10:28:25Z</time>
      </trkpt>
      <trkpt lat="46.07142" lon="4.73883">
        <ele>176</ele>
        <time>2018-02-09T10:28:26Z</time>
      </trkpt>
      <trkpt lat="46.07145" lon="4.7389">
        <ele>177</ele>
        <time>2018-02-09T10:28:27Z</time>
      </trkpt>
      <trkpt lat="46.07148" lon="4.73897">
        <ele>177</ele>
        <time>2018-02-09T10:28:28Z</time>
      </trkpt>
      <trkpt lat="46.07151" lon="4.73904">
        <ele>177</ele>
        <time>2018-02-09T10:28:29Z</time>
      </trkpt>
      <trkpt lat="46.07154" lon="4.73912">
        <ele>177</ele>
        <time>2018-02-09T10:28:30Z</time>
      </trkpt>
      <trkpt lat="46.07158" lon="4.73919">
        <ele>177</ele>
        <time>2018-02-09T10:28:31Z</time>
      </trkpt>
      <trkpt lat="46.0716" lon="4.73927">
        <ele>177</ele>
        <time>2018-02-09T10:28:32Z</time>
      </trkpt>
      <trkpt lat="46.07163" lon="4.73933">
        <ele>177</ele>
        <time>2018-02-09T10:28:33Z</time>
      </trkpt>
      <trkpt lat="46.07165" lon="4.73942">
        <ele>177</ele>
        <time>2018-02-09T10:28:34Z</time>
      </trkpt>
      <trkpt lat="46.07167" lon="4.73948">
        <ele>177</ele>
        <time>2018-02-09T10:28:35Z</time>
      </trkpt>
      <trkpt lat="46.07169" lon="4.73954">
        <ele>177</ele>
        <time>2018-02-09T10:28:36Z</time>
      </trkpt>
      <trkpt lat="46.07172" lon="4.73962">
        <ele>178</ele>
        <time>2018-02-09T10:28:37Z</time>
      </trkpt>
      <trkpt lat="46.07175" lon="4.73969">
        <ele>178</ele>
        <time>2018-02-09T10:28:38Z</time>
      </trkpt>
      <trkpt lat="46.07177" lon="4.73976">
        <ele>178</ele>
        <time>2018-02-09T10:28:39Z</time>
      </trkpt>
      <trkpt lat="46.0718" lon="4.73983">
        <ele>178</ele>
        <time>2018-02-09T10:28:40Z</time>
      </trkpt>
      <trkpt lat="46.07182" lon="4.73989">
        <ele>178</ele>
        <time>2018-02-09T10:28:41Z</time>
      </trkpt>
      <trkpt lat="46.07186" lon="4.74">
        <ele>178</ele>
        <time>2018-02-09T10:28:43Z</time>
      </trkpt>
      <trkpt lat="46.07188" lon="4.74005">
        <ele>178</ele>
        <time>2018-02-09T10:28:44Z</time>
      </trkpt>
      <trkpt lat="46.07191" lon="4.74016">
        <ele>178</ele>
        <time>2018-02-09T10:28:46Z</time>
      </trkpt>
      <trkpt lat="46.07192" lon="4.74021">
        <ele>178</ele>
        <time>2018-02-09T10:28:47Z</time>
      </trkpt>
      <trkpt lat="46.07195" lon="4.7403">
        <ele>178</ele>
        <time>2018-02-09T10:28:49Z</time>
      </trkpt>
      <trkpt lat="46.07197" lon="4.74036">
        <ele>178</ele>
        <time>2018-02-09T10:28:50Z</time>
      </trkpt>
      <trkpt lat="46.07201" lon="4.74045">
        <ele>178</ele>
        <time>2018-02-09T10:28:52Z</time>
      </trkpt>
      <trkpt lat="46.07203" lon="4.7405">
        <ele>178</ele>
        <time>2018-02-09T10:28:53Z</time>
      </trkpt>
      <trkpt lat="46.07207" lon="4.7406">
        <ele>178</ele>
        <time>2018-02-09T10:28:55Z</time>
      </trkpt>
      <trkpt lat="46.07209" lon="4.74064">
        <ele>177</ele>
        <time>2018-02-09T10:28:56Z</time>
      </trkpt>
      <trkpt lat="46.07212" lon="4.74075">
        <ele>177</ele>
        <time>2018-02-09T10:28:58Z</time>
      </trkpt>
      <trkpt lat="46.07214" lon="4.7408">
        <ele>177</ele>
        <time>2018-02-09T10:28:59Z</time>
      </trkpt>
      <trkpt lat="46.07216" lon="4.74086">
        <ele>177</ele>
        <time>2018-02-09T10:29:00Z</time>
      </trkpt>
      <trkpt lat="46.07218" lon="4.74092">
        <ele>177</ele>
        <time>2018-02-09T10:29:01Z</time>
      </trkpt>
      <trkpt lat="46.0722" lon="4.74101">
        <ele>177</ele>
        <time>2018-02-09T10:29:02Z</time>
      </trkpt>
      <trkpt lat="46.07222" lon="4.74106">
        <ele>177</ele>
        <time>2018-02-09T10:29:03Z</time>
      </trkpt>
      <trkpt lat="46.07224" lon="4.74112">
        <ele>177</ele>
        <time>2018-02-09T10:29:04Z</time>
      </trkpt>
      <trkpt lat="46.07226" lon="4.74118">
        <ele>177</ele>
        <time>2018-02-09T10:29:05Z</time>
      </trkpt>
      <trkpt lat="46.07228" lon="4.74124">
        <ele>177</ele>
        <time>2018-02-09T10:29:06Z</time>
      </trkpt>
      <trkpt lat="46.07231" lon="4.7413">
        <ele>177</ele>
        <time>2018-02-09T10:29:07Z</time>
      </trkpt>
      <trkpt lat="46.07233" lon="4.74137">
        <ele>177</ele>
        <time>2018-02-09T10:29:08Z</time>
      </trkpt>
      <trkpt lat="46.07236" lon="4.74143">
        <ele>177</ele>
        <time>2018-02-09T10:29:09Z</time>
      </trkpt>
      <trkpt lat="46.07239" lon="4.74152">
        <ele>177</ele>
        <time>2018-02-09T10:29:10Z</time>
      </trkpt>
      <trkpt lat="46.07241" lon="4.74159">
        <ele>177</ele>
        <time>2018-02-09T10:29:11Z</time>
      </trkpt>
      <trkpt lat="46.07244" lon="4.74166">
        <ele>177</ele>
        <time>2018-02-09T10:29:12Z</time>
      </trkpt>
      <trkpt lat="46.07246" lon="4.74174">
        <ele>177</ele>
        <time>2018-02-09T10:29:13Z</time>
      </trkpt>
      <trkpt lat="46.07249" lon="4.74181">
        <ele>176</ele>
        <time>2018-02-09T10:29:14Z</time>
      </trkpt>
      <trkpt lat="46.07252" lon="4.74189">
        <ele>176</ele>
        <time>2018-02-09T10:29:15Z</time>
      </trkpt>
      <trkpt lat="46.07255" lon="4.74197">
        <ele>176</ele>
        <time>2018-02-09T10:29:16Z</time>
      </trkpt>
      <trkpt lat="46.07257" lon="4.74205">
        <ele>176</ele>
        <time>2018-02-09T10:29:17Z</time>
      </trkpt>
      <trkpt lat="46.0726" lon="4.74215">
        <ele>176</ele>
        <time>2018-02-09T10:29:18Z</time>
      </trkpt>
      <trkpt lat="46.07263" lon="4.74223">
        <ele>176</ele>
        <time>2018-02-09T10:29:19Z</time>
      </trkpt>
      <trkpt lat="46.07266" lon="4.74232">
        <ele>175</ele>
        <time>2018-02-09T10:29:20Z</time>
      </trkpt>
      <trkpt lat="46.07269" lon="4.74242">
        <ele>175</ele>
        <time>2018-02-09T10:29:21Z</time>
      </trkpt>
      <trkpt lat="46.07272" lon="4.74252">
        <ele>175</ele>
        <time>2018-02-09T10:29:22Z</time>
      </trkpt>
      <trkpt lat="46.07276" lon="4.74262">
        <ele>175</ele>
        <time>2018-02-09T10:29:23Z</time>
      </trkpt>
      <trkpt lat="46.07279" lon="4.74272">
        <ele>175</ele>
        <time>2018-02-09T10:29:24Z</time>
      </trkpt>
      <trkpt lat="46.07283" lon="4.74283">
        <ele>175</ele>
        <time>2018-02-09T10:29:25Z</time>
      </trkpt>
      <trkpt lat="46.07286" lon="4.74294">
        <ele>174</ele>
        <time>2018-02-09T10:29:26Z</time>
      </trkpt>
      <trkpt lat="46.07289" lon="4.74304">
        <ele>174</ele>
        <time>2018-02-09T10:29:27Z</time>
      </trkpt>
      <trkpt lat="46.07291" lon="4.74316">
        <ele>174</ele>
        <time>2018-02-09T10:29:28Z</time>
      </trkpt>
      <trkpt lat="46.07293" lon="4.74327">
        <ele>174</ele>
        <time>2018-02-09T10:29:29Z</time>
      </trkpt>
      <trkpt lat="46.07294" lon="4.74337">
        <ele>174</ele>
        <time>2018-02-09T10:29:30Z</time>
      </trkpt>
      <trkpt lat="46.07296" lon="4.74349">
        <ele>174</ele>
        <time>2018-02-09T10:29:31Z</time>
      </trkpt>
      <trkpt lat="46.07297" lon="4.74359">
        <ele>174</ele>
        <time>2018-02-09T10:29:32Z</time>
      </trkpt>
      <trkpt lat="46.07298" lon="4.7437">
        <ele>174</ele>
        <time>2018-02-09T10:29:33Z</time>
      </trkpt>
      <trkpt lat="46.07299" lon="4.7438">
        <ele>174</ele>
        <time>2018-02-09T10:29:34Z</time>
      </trkpt>
      <trkpt lat="46.073" lon="4.74389">
        <ele>174</ele>
        <time>2018-02-09T10:29:35Z</time>
      </trkpt>
      <trkpt lat="46.07301" lon="4.74398">
        <ele>174</ele>
        <time>2018-02-09T10:29:36Z</time>
      </trkpt>
      <trkpt lat="46.07301" lon="4.74408">
        <ele>174</ele>
        <time>2018-02-09T10:29:37Z</time>
      </trkpt>
      <trkpt lat="46.07303" lon="4.74417">
        <ele>175</ele>
        <time>2018-02-09T10:29:38Z</time>
      </trkpt>
      <trkpt lat="46.07304" lon="4.74426">
        <ele>175</ele>
        <time>2018-02-09T10:29:39Z</time>
      </trkpt>
      <trkpt lat="46.07305" lon="4.74436">
        <ele>175</ele>
        <time>2018-02-09T10:29:40Z</time>
      </trkpt>
      <trkpt lat="46.07306" lon="4.74444">
        <ele>175</ele>
        <time>2018-02-09T10:29:41Z</time>
      </trkpt>
      <trkpt lat="46.07308" lon="4.74453">
        <ele>175</ele>
        <time>2018-02-09T10:29:42Z</time>
      </trkpt>
      <trkpt lat="46.0731" lon="4.74461">
        <ele>175</ele>
        <time>2018-02-09T10:29:43Z</time>
      </trkpt>
      <trkpt lat="46.07312" lon="4.7447">
        <ele>175</ele>
        <time>2018-02-09T10:29:44Z</time>
      </trkpt>
      <trkpt lat="46.07315" lon="4.74479">
        <ele>175</ele>
        <time>2018-02-09T10:29:45Z</time>
      </trkpt>
      <trkpt lat="46.07317" lon="4.74487">
        <ele>175</ele>
        <time>2018-02-09T10:29:46Z</time>
      </trkpt>
      <trkpt lat="46.07322" lon="4.74494">
        <ele>175</ele>
        <time>2018-02-09T10:29:47Z</time>
      </trkpt>
      <trkpt lat="46.07326" lon="4.74502">
        <ele>176</ele>
        <time>2018-02-09T10:29:48Z</time>
      </trkpt>
      <trkpt lat="46.07329" lon="4.7451">
        <ele>176</ele>
        <time>2018-02-09T10:29:49Z</time>
      </trkpt>
      <trkpt lat="46.07333" lon="4.74518">
        <ele>175</ele>
        <time>2018-02-09T10:29:50Z</time>
      </trkpt>
      <trkpt lat="46.07337" lon="4.74525">
        <ele>175</ele>
        <time>2018-02-09T10:29:51Z</time>
      </trkpt>
      <trkpt lat="46.07341" lon="4.74533">
        <ele>175</ele>
        <time>2018-02-09T10:29:52Z</time>
      </trkpt>
      <trkpt lat="46.07346" lon="4.7454">
        <ele>175</ele>
        <time>2018-02-09T10:29:53Z</time>
      </trkpt>
      <trkpt lat="46.07351" lon="4.74548">
        <ele>175</ele>
        <time>2018-02-09T10:29:54Z</time>
      </trkpt>
      <trkpt lat="46.07355" lon="4.74553">
        <ele>175</ele>
        <time>2018-02-09T10:29:55Z</time>
      </trkpt>
      <trkpt lat="46.0736" lon="4.74561">
        <ele>175</ele>
        <time>2018-02-09T10:29:56Z</time>
      </trkpt>
      <trkpt lat="46.07365" lon="4.74568">
        <ele>175</ele>
        <time>2018-02-09T10:29:57Z</time>
      </trkpt>
      <trkpt lat="46.07369" lon="4.74575">
        <ele>175</ele>
        <time>2018-02-09T10:29:58Z</time>
      </trkpt>
      <trkpt lat="46.07373" lon="4.74581">
        <ele>175</ele>
        <time>2018-02-09T10:29:59Z</time>
      </trkpt>
      <trkpt lat="46.07376" lon="4.74588">
        <ele>174</ele>
        <time>2018-02-09T10:30:00Z</time>
      </trkpt>
      <trkpt lat="46.0738" lon="4.74595">
        <ele>174</ele>
        <time>2018-02-09T10:30:01Z</time>
      </trkpt>
      <trkpt lat="46.07383" lon="4.74603">
        <ele>174</ele>
        <time>2018-02-09T10:30:02Z</time>
      </trkpt>
      <trkpt lat="46.07386" lon="4.74609">
        <ele>174</ele>
        <time>2018-02-09T10:30:03Z</time>
      </trkpt>
      <trkpt lat="46.07388" lon="4.74615">
        <ele>174</ele>
        <time>2018-02-09T10:30:04Z</time>
      </trkpt>
      <trkpt lat="46.07391" lon="4.74622">
        <ele>174</ele>
        <time>2018-02-09T10:30:05Z</time>
      </trkpt>
      <trkpt lat="46.07394" lon="4.74629">
        <ele>174</ele>
        <time>2018-02-09T10:30:06Z</time>
      </trkpt>
      <trkpt lat="46.07399" lon="4.74636">
        <ele>174</ele>
        <time>2018-02-09T10:30:07Z</time>
      </trkpt>
      <trkpt lat="46.07401" lon="4.74642">
        <ele>174</ele>
        <time>2018-02-09T10:30:08Z</time>
      </trkpt>
      <trkpt lat="46.07404" lon="4.7465">
        <ele>173</ele>
        <time>2018-02-09T10:30:09Z</time>
      </trkpt>
      <trkpt lat="46.07408" lon="4.74658">
        <ele>173</ele>
        <time>2018-02-09T10:30:10Z</time>
      </trkpt>
      <trkpt lat="46.07411" lon="4.74665">
        <ele>172</ele>
        <time>2018-02-09T10:30:11Z</time>
      </trkpt>
      <trkpt lat="46.07415" lon="4.74671">
        <ele>172</ele>
        <time>2018-02-09T10:30:12Z</time>
      </trkpt>
      <trkpt lat="46.07418" lon="4.7468">
        <ele>172</ele>
        <time>2018-02-09T10:30:13Z</time>
      </trkpt>
      <trkpt lat="46.07421" lon="4.74687">
        <ele>172</ele>
        <time>2018-02-09T10:30:14Z</time>
      </trkpt>
      <trkpt lat="46.07425" lon="4.74694">
        <ele>173</ele>
        <time>2018-02-09T10:30:15Z</time>
      </trkpt>
      <trkpt lat="46.07429" lon="4.747">
        <ele>173</ele>
        <time>2018-02-09T10:30:16Z</time>
      </trkpt>
      <trkpt lat="46.07433" lon="4.74709">
        <ele>173</ele>
        <time>2018-02-09T10:30:17Z</time>
      </trkpt>
      <trkpt lat="46.07438" lon="4.74716">
        <ele>173</ele>
        <time>2018-02-09T10:30:18Z</time>
      </trkpt>
      <trkpt lat="46.07442" lon="4.74722">
        <ele>173</ele>
        <time>2018-02-09T10:30:19Z</time>
      </trkpt>
      <trkpt lat="46.07445" lon="4.74729">
        <ele>173</ele>
        <time>2018-02-09T10:30:20Z</time>
      </trkpt>
      <trkpt lat="46.07449" lon="4.74736">
        <ele>173</ele>
        <time>2018-02-09T10:30:21Z</time>
      </trkpt>
      <trkpt lat="46.07453" lon="4.74742">
        <ele>173</ele>
        <time>2018-02-09T10:30:22Z</time>
      </trkpt>
      <trkpt lat="46.07456" lon="4.74749">
        <ele>173</ele>
        <time>2018-02-09T10:30:23Z</time>
      </trkpt>
      <trkpt lat="46.0746" lon="4.74755">
        <ele>173</ele>
        <time>2018-02-09T10:30:24Z</time>
      </trkpt>
      <trkpt lat="46.07465" lon="4.74759">
        <ele>173</ele>
        <time>2018-02-09T10:30:25Z</time>
      </trkpt>
      <trkpt lat="46.07469" lon="4.74764">
        <ele>173</ele>
        <time>2018-02-09T10:30:26Z</time>
      </trkpt>
      <trkpt lat="46.07474" lon="4.74769">
        <ele>173</ele>
        <time>2018-02-09T10:30:27Z</time>
      </trkpt>
      <trkpt lat="46.07479" lon="4.74775">
        <ele>173</ele>
        <time>2018-02-09T10:30:28Z</time>
      </trkpt>
      <trkpt lat="46.07484" lon="4.74779">
        <ele>173</ele>
        <time>2018-02-09T10:30:29Z</time>
      </trkpt>
      <trkpt lat="46.07488" lon="4.74783">
        <ele>173</ele>
        <time>2018-02-09T10:30:30Z</time>
      </trkpt>
      <trkpt lat="46.07493" lon="4.74787">
        <ele>173</ele>
        <time>2018-02-09T10:30:31Z</time>
      </trkpt>
      <trkpt lat="46.07498" lon="4.74791">
        <ele>173</ele>
        <time>2018-02-09T10:30:32Z</time>
      </trkpt>
      <trkpt lat="46.07503" lon="4.74795">
        <ele>172</ele>
        <time>2018-02-09T10:30:33Z</time>
      </trkpt>
      <trkpt lat="46.07509" lon="4.74798">
        <ele>172</ele>
        <time>2018-02-09T10:30:34Z</time>
      </trkpt>
      <trkpt lat="46.07513" lon="4.74803">
        <ele>172</ele>
        <time>2018-02-09T10:30:35Z</time>
      </trkpt>
      <trkpt lat="46.07518" lon="4.74808">
        <ele>172</ele>
        <time>2018-02-09T10:30:36Z</time>
      </trkpt>
      <trkpt lat="46.07523" lon="4.74812">
        <ele>172</ele>
        <time>2018-02-09T10:30:37Z</time>
      </trkpt>
      <trkpt lat="46.07529" lon="4.74816">
        <ele>172</ele>
        <time>2018-02-09T10:30:38Z</time>
      </trkpt>
      <trkpt lat="46.07534" lon="4.74821">
        <ele>172</ele>
        <time>2018-02-09T10:30:39Z</time>
      </trkpt>
      <trkpt lat="46.07539" lon="4.74825">
        <ele>172</ele>
        <time>2018-02-09T10:30:40Z</time>
      </trkpt>
      <trkpt lat="46.07544" lon="4.74829">
        <ele>172</ele>
        <time>2018-02-09T10:30:41Z</time>
      </trkpt>
      <trkpt lat="46.07549" lon="4.74833">
        <ele>172</ele>
        <time>2018-02-09T10:30:42Z</time>
      </trkpt>
      <trkpt lat="46.07554" lon="4.74837">
        <ele>171</ele>
        <time>2018-02-09T10:30:43Z</time>
      </trkpt>
      <trkpt lat="46.07559" lon="4.74842">
        <ele>171</ele>
        <time>2018-02-09T10:30:44Z</time>
      </trkpt>
      <trkpt lat="46.07565" lon="4.74846">
        <ele>171</ele>
        <time>2018-02-09T10:30:45Z</time>
      </trkpt>
      <trkpt lat="46.0757" lon="4.7485">
        <ele>171</ele>
        <time>2018-02-09T10:30:46Z</time>
      </trkpt>
      <trkpt lat="46.07576" lon="4.74853">
        <ele>171</ele>
        <time>2018-02-09T10:30:47Z</time>
      </trkpt>
      <trkpt lat="46.07581" lon="4.74857">
        <ele>171</ele>
        <time>2018-02-09T10:30:48Z</time>
      </trkpt>
      <trkpt lat="46.07585" lon="4.74861">
        <ele>171</ele>
        <time>2018-02-09T10:30:49Z</time>
      </trkpt>
      <trkpt lat="46.0759" lon="4.74866">
        <ele>171</ele>
        <time>2018-02-09T10:30:50Z</time>
      </trkpt>
      <trkpt lat="46.07595" lon="4.7487">
        <ele>171</ele>
        <time>2018-02-09T10:30:51Z</time>
      </trkpt>
      <trkpt lat="46.076" lon="4.74874">
        <ele>171</ele>
        <time>2018-02-09T10:30:52Z</time>
      </trkpt>
      <trkpt lat="46.07605" lon="4.74878">
        <ele>171</ele>
        <time>2018-02-09T10:30:53Z</time>
      </trkpt>
      <trkpt lat="46.0761" lon="4.74882">
        <ele>171</ele>
        <time>2018-02-09T10:30:54Z</time>
      </trkpt>
      <trkpt lat="46.07614" lon="4.74886">
        <ele>171</ele>
        <time>2018-02-09T10:30:55Z</time>
      </trkpt>
      <trkpt lat="46.07618" lon="4.7489">
        <ele>171</ele>
        <time>2018-02-09T10:30:56Z</time>
      </trkpt>
      <trkpt lat="46.07623" lon="4.74894">
        <ele>171</ele>
        <time>2018-02-09T10:30:57Z</time>
      </trkpt>
      <trkpt lat="46.07629" lon="4.74897">
        <ele>171</ele>
        <time>2018-02-09T10:30:58Z</time>
      </trkpt>
      <trkpt lat="46.07634" lon="4.74901">
        <ele>171</ele>
        <time>2018-02-09T10:30:59Z</time>
      </trkpt>
      <trkpt lat="46.07639" lon="4.74906">
        <ele>171</ele>
        <time>2018-02-09T10:31:00Z</time>
      </trkpt>
      <trkpt lat="46.07644" lon="4.74911">
        <ele>171</ele>
        <time>2018-02-09T10:31:01Z</time>
      </trkpt>
      <trkpt lat="46.0765" lon="4.74915">
        <ele>171</ele>
        <time>2018-02-09T10:31:02Z</time>
      </trkpt>
      <trkpt lat="46.07655" lon="4.7492">
        <ele>172</ele>
        <time>2018-02-09T10:31:03Z</time>
      </trkpt>
      <trkpt lat="46.07662" lon="4.74923">
        <ele>172</ele>
        <time>2018-02-09T10:31:04Z</time>
      </trkpt>
      <trkpt lat="46.07667" lon="4.74928">
        <ele>172</ele>
        <time>2018-02-09T10:31:05Z</time>
      </trkpt>
      <trkpt lat="46.07671" lon="4.74936">
        <ele>172</ele>
        <time>2018-02-09T10:31:06Z</time>
      </trkpt>
      <trkpt lat="46.07677" lon="4.74941">
        <ele>172</ele>
        <time>2018-02-09T10:31:07Z</time>
      </trkpt>
      <trkpt lat="46.07682" lon="4.74945">
        <ele>172</ele>
        <time>2018-02-09T10:31:08Z</time>
      </trkpt>
      <trkpt lat="46.07688" lon="4.7495">
        <ele>172</ele>
        <time>2018-02-09T10:31:09Z</time>
      </trkpt>
      <trkpt lat="46.07694" lon="4.74954">
        <ele>172</ele>
        <time>2018-02-09T10:31:10Z</time>
      </trkpt>
      <trkpt lat="46.07699" lon="4.74958">
        <ele>172</ele>
        <time>2018-02-09T10:31:11Z</time>
      </trkpt>
      <trkpt lat="46.07706" lon="4.74962">
        <ele>172</ele>
        <time>2018-02-09T10:31:12Z</time>
      </trkpt>
      <trkpt lat="46.0771" lon="4.74967">
        <ele>172</ele>
        <time>2018-02-09T10:31:13Z</time>
      </trkpt>
      <trkpt lat="46.07716" lon="4.7497">
        <ele>172</ele>
        <time>2018-02-09T10:31:14Z</time>
      </trkpt>
      <trkpt lat="46.07721" lon="4.74976">
        <ele>172</ele>
        <time>2018-02-09T10:31:15Z</time>
      </trkpt>
      <trkpt lat="46.07726" lon="4.74979">
        <ele>172</ele>
        <time>2018-02-09T10:31:16Z</time>
      </trkpt>
      <trkpt lat="46.07731" lon="4.74983">
        <ele>173</ele>
        <time>2018-02-09T10:31:17Z</time>
      </trkpt>
      <trkpt lat="46.07735" lon="4.74986">
        <ele>173</ele>
        <time>2018-02-09T10:31:18Z</time>
      </trkpt>
      <trkpt lat="46.0774" lon="4.74991">
        <ele>173</ele>
        <time>2018-02-09T10:31:19Z</time>
      </trkpt>
      <trkpt lat="46.07745" lon="4.74994">
        <ele>173</ele>
        <time>2018-02-09T10:31:20Z</time>
      </trkpt>
      <trkpt lat="46.0775" lon="4.74998">
        <ele>173</ele>
        <time>2018-02-09T10:31:21Z</time>
      </trkpt>
      <trkpt lat="46.07755" lon="4.75001">
        <ele>173</ele>
        <time>2018-02-09T10:31:22Z</time>
      </trkpt>
      <trkpt lat="46.0776" lon="4.75005">
        <ele>172</ele>
        <time>2018-02-09T10:31:23Z</time>
      </trkpt>
      <trkpt lat="46.07765" lon="4.75009">
        <ele>172</ele>
        <time>2018-02-09T10:31:24Z</time>
      </trkpt>
      <trkpt lat="46.0777" lon="4.75012">
        <ele>172</ele>
        <time>2018-02-09T10:31:25Z</time>
      </trkpt>
      <trkpt lat="46.07775" lon="4.75018">
        <ele>172</ele>
        <time>2018-02-09T10:31:26Z</time>
      </trkpt>
      <trkpt lat="46.0778" lon="4.75022">
        <ele>172</ele>
        <time>2018-02-09T10:31:27Z</time>
      </trkpt>
      <trkpt lat="46.07786" lon="4.75027">
        <ele>172</ele>
        <time>2018-02-09T10:31:28Z</time>
      </trkpt>
      <trkpt lat="46.07791" lon="4.7503">
        <ele>172</ele>
        <time>2018-02-09T10:31:29Z</time>
      </trkpt>
      <trkpt lat="46.07795" lon="4.75033">
        <ele>171</ele>
        <time>2018-02-09T10:31:30Z</time>
      </trkpt>
      <trkpt lat="46.07799" lon="4.75038">
        <ele>171</ele>
        <time>2018-02-09T10:31:31Z</time>
      </trkpt>
      <trkpt lat="46.07803" lon="4.75043">
        <ele>171</ele>
        <time>2018-02-09T10:31:32Z</time>
      </trkpt>
      <trkpt lat="46.07807" lon="4.75047">
        <ele>171</ele>
        <time>2018-02-09T10:31:33Z</time>
      </trkpt>
      <trkpt lat="46.07811" lon="4.75052">
        <ele>171</ele>
        <time>2018-02-09T10:31:34Z</time>
      </trkpt>
      <trkpt lat="46.07816" lon="4.75057">
        <ele>171</ele>
        <time>2018-02-09T10:31:35Z</time>
      </trkpt>
      <trkpt lat="46.0782" lon="4.75062">
        <ele>171</ele>
        <time>2018-02-09T10:31:36Z</time>
      </trkpt>
      <trkpt lat="46.07825" lon="4.75067">
        <ele>171</ele>
        <time>2018-02-09T10:31:37Z</time>
      </trkpt>
      <trkpt lat="46.07828" lon="4.75072">
        <ele>171</ele>
        <time>2018-02-09T10:31:38Z</time>
      </trkpt>
      <trkpt lat="46.07832" lon="4.75077">
        <ele>171</ele>
        <time>2018-02-09T10:31:39Z</time>
      </trkpt>
      <trkpt lat="46.07837" lon="4.75082">
        <ele>171</ele>
        <time>2018-02-09T10:31:40Z</time>
      </trkpt>
      <trkpt lat="46.07841" lon="4.75088">
        <ele>171</ele>
        <time>2018-02-09T10:31:41Z</time>
      </trkpt>
      <trkpt lat="46.07845" lon="4.75093">
        <ele>171</ele>
        <time>2018-02-09T10:31:42Z</time>
      </trkpt>
      <trkpt lat="46.07849" lon="4.75098">
        <ele>171</ele>
        <time>2018-02-09T10:31:43Z</time>
      </trkpt>
      <trkpt lat="46.07853" lon="4.75105">
        <ele>171</ele>
        <time>2018-02-09T10:31:44Z</time>
      </trkpt>
      <trkpt lat="46.07857" lon="4.7511">
        <ele>171</ele>
        <time>2018-02-09T10:31:45Z</time>
      </trkpt>
      <trkpt lat="46.0786" lon="4.75117">
        <ele>171</ele>
        <time>2018-02-09T10:31:46Z</time>
      </trkpt>
      <trkpt lat="46.07864" lon="4.75123">
        <ele>171</ele>
        <time>2018-02-09T10:31:47Z</time>
      </trkpt>
      <trkpt lat="46.07867" lon="4.75129">
        <ele>171</ele>
        <time>2018-02-09T10:31:48Z</time>
      </trkpt>
      <trkpt lat="46.0787" lon="4.75134">
        <ele>171</ele>
        <time>2018-02-09T10:31:49Z</time>
      </trkpt>
      <trkpt lat="46.07874" lon="4.7514">
        <ele>171</ele>
        <time>2018-02-09T10:31:50Z</time>
      </trkpt>
      <trkpt lat="46.07877" lon="4.75146">
        <ele>171</ele>
        <time>2018-02-09T10:31:51Z</time>
      </trkpt>
      <trkpt lat="46.0788" lon="4.75152">
        <ele>171</ele>
        <time>2018-02-09T10:31:52Z</time>
      </trkpt>
      <trkpt lat="46.07884" lon="4.75158">
        <ele>171</ele>
        <time>2018-02-09T10:31:53Z</time>
      </trkpt>
      <trkpt lat="46.07887" lon="4.75163">
        <ele>171</ele>
        <time>2018-02-09T10:31:54Z</time>
      </trkpt>
      <trkpt lat="46.07891" lon="4.75169">
        <ele>171</ele>
        <time>2018-02-09T10:31:55Z</time>
      </trkpt>
      <trkpt lat="46.07894" lon="4.75176">
        <ele>171</ele>
        <time>2018-02-09T10:31:56Z</time>
      </trkpt>
      <trkpt lat="46.07897" lon="4.75181">
        <ele>171</ele>
        <time>2018-02-09T10:31:57Z</time>
      </trkpt>
      <trkpt lat="46.079" lon="4.75187">
        <ele>171</ele>
        <time>2018-02-09T10:31:58Z</time>
      </trkpt>
      <trkpt lat="46.07904" lon="4.75193">
        <ele>171</ele>
        <time>2018-02-09T10:31:59Z</time>
      </trkpt>
      <trkpt lat="46.07907" lon="4.75198">
        <ele>171</ele>
        <time>2018-02-09T10:32:00Z</time>
      </trkpt>
      <trkpt lat="46.07911" lon="4.75205">
        <ele>171</ele>
        <time>2018-02-09T10:32:01Z</time>
      </trkpt>
      <trkpt lat="46.07914" lon="4.75211">
        <ele>171</ele>
        <time>2018-02-09T10:32:02Z</time>
      </trkpt>
      <trkpt lat="46.07918" lon="4.75218">
        <ele>171</ele>
        <time>2018-02-09T10:32:03Z</time>
      </trkpt>
      <trkpt lat="46.07921" lon="4.75224">
        <ele>171</ele>
        <time>2018-02-09T10:32:04Z</time>
      </trkpt>
      <trkpt lat="46.07924" lon="4.75231">
        <ele>170</ele>
        <time>2018-02-09T10:32:05Z</time>
      </trkpt>
      <trkpt lat="46.07928" lon="4.75239">
        <ele>170</ele>
        <time>2018-02-09T10:32:06Z</time>
      </trkpt>
      <trkpt lat="46.07931" lon="4.75247">
        <ele>170</ele>
        <time>2018-02-09T10:32:07Z</time>
      </trkpt>
      <trkpt lat="46.07934" lon="4.75254">
        <ele>170</ele>
        <time>2018-02-09T10:32:08Z</time>
      </trkpt>
      <trkpt lat="46.07937" lon="4.7526">
        <ele>170</ele>
        <time>2018-02-09T10:32:09Z</time>
      </trkpt>
      <trkpt lat="46.0794" lon="4.75267">
        <ele>169</ele>
        <time>2018-02-09T10:32:10Z</time>
      </trkpt>
      <trkpt lat="46.07944" lon="4.75274">
        <ele>169</ele>
        <time>2018-02-09T10:32:11Z</time>
      </trkpt>
      <trkpt lat="46.07947" lon="4.7528">
        <ele>169</ele>
        <time>2018-02-09T10:32:12Z</time>
      </trkpt>
      <trkpt lat="46.0795" lon="4.75285">
        <ele>169</ele>
        <time>2018-02-09T10:32:13Z</time>
      </trkpt>
      <trkpt lat="46.07953" lon="4.75292">
        <ele>169</ele>
        <time>2018-02-09T10:32:14Z</time>
      </trkpt>
      <trkpt lat="46.07957" lon="4.75299">
        <ele>169</ele>
        <time>2018-02-09T10:32:15Z</time>
      </trkpt>
      <trkpt lat="46.0796" lon="4.75305">
        <ele>169</ele>
        <time>2018-02-09T10:32:16Z</time>
      </trkpt>
      <trkpt lat="46.07962" lon="4.75311">
        <ele>169</ele>
        <time>2018-02-09T10:32:17Z</time>
      </trkpt>
      <trkpt lat="46.07965" lon="4.75318">
        <ele>169</ele>
        <time>2018-02-09T10:32:18Z</time>
      </trkpt>
      <trkpt lat="46.07969" lon="4.75325">
        <ele>169</ele>
        <time>2018-02-09T10:32:19Z</time>
      </trkpt>
      <trkpt lat="46.07973" lon="4.75333">
        <ele>169</ele>
        <time>2018-02-09T10:32:20Z</time>
      </trkpt>
      <trkpt lat="46.07976" lon="4.7534">
        <ele>168</ele>
        <time>2018-02-09T10:32:21Z</time>
      </trkpt>
      <trkpt lat="46.07979" lon="4.75347">
        <ele>168</ele>
        <time>2018-02-09T10:32:22Z</time>
      </trkpt>
      <trkpt lat="46.07982" lon="4.75353">
        <ele>168</ele>
        <time>2018-02-09T10:32:23Z</time>
      </trkpt>
      <trkpt lat="46.07985" lon="4.7536">
        <ele>168</ele>
        <time>2018-02-09T10:32:24Z</time>
      </trkpt>
      <trkpt lat="46.07989" lon="4.75366">
        <ele>168</ele>
        <time>2018-02-09T10:32:25Z</time>
      </trkpt>
      <trkpt lat="46.07993" lon="4.75373">
        <ele>168</ele>
        <time>2018-02-09T10:32:26Z</time>
      </trkpt>
      <trkpt lat="46.07996" lon="4.7538">
        <ele>168</ele>
        <time>2018-02-09T10:32:27Z</time>
      </trkpt>
      <trkpt lat="46.07999" lon="4.75387">
        <ele>167</ele>
        <time>2018-02-09T10:32:28Z</time>
      </trkpt>
      <trkpt lat="46.08002" lon="4.75392">
        <ele>167</ele>
        <time>2018-02-09T10:32:29Z</time>
      </trkpt>
      <trkpt lat="46.08007" lon="4.75402">
        <ele>166</ele>
        <time>2018-02-09T10:32:31Z</time>
      </trkpt>
      <trkpt lat="46.08009" lon="4.75404">
        <ele>166</ele>
        <time>2018-02-09T10:32:32Z</time>
      </trkpt>
      <trkpt lat="46.08012" lon="4.75413">
        <ele>166</ele>
        <time>2018-02-09T10:32:34Z</time>
      </trkpt>
      <trkpt lat="46.08014" lon="4.75417">
        <ele>166</ele>
        <time>2018-02-09T10:32:35Z</time>
      </trkpt>
      <trkpt lat="46.08018" lon="4.75425">
        <ele>166</ele>
        <time>2018-02-09T10:32:37Z</time>
      </trkpt>
      <trkpt lat="46.0802" lon="4.75429">
        <ele>166</ele>
        <time>2018-02-09T10:32:38Z</time>
      </trkpt>
      <trkpt lat="46.08025" lon="4.75437">
        <ele>166</ele>
        <time>2018-02-09T10:32:40Z</time>
      </trkpt>
      <trkpt lat="46.08027" lon="4.75441">
        <ele>166</ele>
        <time>2018-02-09T10:32:41Z</time>
      </trkpt>
      <trkpt lat="46.08031" lon="4.75451">
        <ele>166</ele>
        <time>2018-02-09T10:32:43Z</time>
      </trkpt>
      <trkpt lat="46.08033" lon="4.75455">
        <ele>166</ele>
        <time>2018-02-09T10:32:44Z</time>
      </trkpt>
      <trkpt lat="46.08037" lon="4.75465">
        <ele>166</ele>
        <time>2018-02-09T10:32:46Z</time>
      </trkpt>
      <trkpt lat="46.08039" lon="4.75469">
        <ele>166</ele>
        <time>2018-02-09T10:32:47Z</time>
      </trkpt>
      <trkpt lat="46.08044" lon="4.75479">
        <ele>166</ele>
        <time>2018-02-09T10:32:49Z</time>
      </trkpt>
      <trkpt lat="46.08047" lon="4.75484">
        <ele>166</ele>
        <time>2018-02-09T10:32:50Z</time>
      </trkpt>
      <trkpt lat="46.08051" lon="4.75492">
        <ele>166</ele>
        <time>2018-02-09T10:32:52Z</time>
      </trkpt>
      <trkpt lat="46.08053" lon="4.75498">
        <ele>166</ele>
        <time>2018-02-09T10:32:53Z</time>
      </trkpt>
      <trkpt lat="46.08055" lon="4.75503">
        <ele>167</ele>
        <time>2018-02-09T10:32:54Z</time>
      </trkpt>
      <trkpt lat="46.08056" lon="4.7551">
        <ele>167</ele>
        <time>2018-02-09T10:32:55Z</time>
      </trkpt>
      <trkpt lat="46.08059" lon="4.75515">
        <ele>167</ele>
        <time>2018-02-09T10:32:56Z</time>
      </trkpt>
      <trkpt lat="46.08061" lon="4.75522">
        <ele>168</ele>
        <time>2018-02-09T10:32:57Z</time>
      </trkpt>
      <trkpt lat="46.08064" lon="4.75528">
        <ele>168</ele>
        <time>2018-02-09T10:32:58Z</time>
      </trkpt>
      <trkpt lat="46.08066" lon="4.75534">
        <ele>168</ele>
        <time>2018-02-09T10:32:59Z</time>
      </trkpt>
      <trkpt lat="46.08069" lon="4.7554">
        <ele>169</ele>
        <time>2018-02-09T10:33:00Z</time>
      </trkpt>
      <trkpt lat="46.08072" lon="4.75546">
        <ele>169</ele>
        <time>2018-02-09T10:33:01Z</time>
      </trkpt>
      <trkpt lat="46.08075" lon="4.75552">
        <ele>169</ele>
        <time>2018-02-09T10:33:02Z</time>
      </trkpt>
      <trkpt lat="46.08077" lon="4.75558">
        <ele>170</ele>
        <time>2018-02-09T10:33:03Z</time>
      </trkpt>
      <trkpt lat="46.0808" lon="4.75564">
        <ele>171</ele>
        <time>2018-02-09T10:33:04Z</time>
      </trkpt>
      <trkpt lat="46.08083" lon="4.7557">
        <ele>173</ele>
        <time>2018-02-09T10:33:05Z</time>
      </trkpt>
      <trkpt lat="46.08087" lon="4.75579">
        <ele>174</ele>
        <time>2018-02-09T10:33:07Z</time>
      </trkpt>
      <trkpt lat="46.08089" lon="4.75582">
        <ele>174</ele>
        <time>2018-02-09T10:33:08Z</time>
      </trkpt>
      <trkpt lat="46.08085" lon="4.7559">
        <ele>174</ele>
        <time>2018-02-09T10:33:12Z</time>
      </trkpt>
      <trkpt lat="46.08082" lon="4.75594">
        <ele>174</ele>
        <time>2018-02-09T10:33:13Z</time>
      </trkpt>
      <trkpt lat="46.08076" lon="4.75601">
        <ele>173</ele>
        <time>2018-02-09T10:33:15Z</time>
      </trkpt>
      <trkpt lat="46.08073" lon="4.75604">
        <ele>173</ele>
        <time>2018-02-09T10:33:16Z</time>
      </trkpt>
      <trkpt lat="46.08068" lon="4.75609">
        <ele>173</ele>
        <time>2018-02-09T10:33:18Z</time>
      </trkpt>
      <trkpt lat="46.08066" lon="4.75611">
        <ele>173</ele>
        <time>2018-02-09T10:33:19Z</time>
      </trkpt>
      <trkpt lat="46.08059" lon="4.75619">
        <ele>173</ele>
        <time>2018-02-09T10:33:24Z</time>
      </trkpt>
      <trkpt lat="46.08058" lon="4.75619">
        <ele>173</ele>
        <time>2018-02-09T10:33:25Z</time>
      </trkpt>
      <trkpt lat="46.08049" lon="4.75623">
        <ele>173</ele>
        <time>2018-02-09T10:34:50Z</time>
      </trkpt>
      <trkpt lat="46.08048" lon="4.75623">
        <ele>173</ele>
        <time>2018-02-09T10:34:51Z</time>
      </trkpt>
      <trkpt lat="46.08049" lon="4.7561">
        <ele>173</ele>
        <time>2018-02-09T10:39:30Z</time>
      </trkpt>
      <trkpt lat="46.08049" lon="4.7561">
        <ele>173</ele>
        <time>2018-02-09T10:39:31Z</time>
      </trkpt>
      <trkpt lat="46.08045" lon="4.75621">
        <ele>173</ele>
        <time>2018-02-09T10:49:17Z</time>
      </trkpt>
      <trkpt lat="46.08045" lon="4.75621">
        <ele>173</ele>
        <time>2018-02-09T10:49:18Z</time>
      </trkpt>
      <trkpt lat="46.08047" lon="4.75627">
        <ele>173</ele>
        <time>2018-02-09T10:49:54Z</time>
      </trkpt>
      <trkpt lat="46.08047" lon="4.75627">
        <ele>173</ele>
        <time>2018-02-09T10:49:55Z</time>
      </trkpt>
      <trkpt lat="46.08047" lon="4.75627">
        <ele>173</ele>
        <time>2018-02-09T10:49:56Z</time>
      </trkpt>
      <trkpt lat="46.08039" lon="4.75627">
        <ele>173</ele>
        <time>2018-02-09T10:50:00Z</time>
      </trkpt>
      <trkpt lat="46.08036" lon="4.75628">
        <ele>173</ele>
        <time>2018-02-09T10:50:01Z</time>
      </trkpt>
      <trkpt lat="46.08033" lon="4.75638">
        <ele>173</ele>
        <time>2018-02-09T10:50:07Z</time>
      </trkpt>
      <trkpt lat="46.08033" lon="4.75641">
        <ele>173</ele>
        <time>2018-02-09T10:50:08Z</time>
      </trkpt>
      <trkpt lat="46.08027" lon="4.75646">
        <ele>174</ele>
        <time>2018-02-09T10:50:11Z</time>
      </trkpt>
      <trkpt lat="46.08024" lon="4.75647">
        <ele>174</ele>
        <time>2018-02-09T10:50:12Z</time>
      </trkpt>
      <trkpt lat="46.08018" lon="4.75649">
        <ele>174</ele>
        <time>2018-02-09T10:50:14Z</time>
      </trkpt>
      <trkpt lat="46.08015" lon="4.7565">
        <ele>174</ele>
        <time>2018-02-09T10:50:15Z</time>
      </trkpt>
      <trkpt lat="46.08008" lon="4.75656">
        <ele>175</ele>
        <time>2018-02-09T10:50:18Z</time>
      </trkpt>
      <trkpt lat="46.08005" lon="4.75658">
        <ele>175</ele>
        <time>2018-02-09T10:50:19Z</time>
      </trkpt>
      <trkpt lat="46.07999" lon="4.75664">
        <ele>175</ele>
        <time>2018-02-09T10:50:21Z</time>
      </trkpt>
      <trkpt lat="46.07996" lon="4.75667">
        <ele>175</ele>
        <time>2018-02-09T10:50:22Z</time>
      </trkpt>
      <trkpt lat="46.07989" lon="4.75673">
        <ele>175</ele>
        <time>2018-02-09T10:50:24Z</time>
      </trkpt>
      <trkpt lat="46.07986" lon="4.75677">
        <ele>174</ele>
        <time>2018-02-09T10:50:25Z</time>
      </trkpt>
      <trkpt lat="46.07979" lon="4.75683">
        <ele>174</ele>
        <time>2018-02-09T10:50:26Z</time>
      </trkpt>
      <trkpt lat="46.07975" lon="4.75687">
        <ele>174</ele>
        <time>2018-02-09T10:50:27Z</time>
      </trkpt>
      <trkpt lat="46.07969" lon="4.75693">
        <ele>173</ele>
        <time>2018-02-09T10:50:29Z</time>
      </trkpt>
      <trkpt lat="46.07966" lon="4.75696">
        <ele>173</ele>
        <time>2018-02-09T10:50:30Z</time>
      </trkpt>
      <trkpt lat="46.07961" lon="4.75702">
        <ele>173</ele>
        <time>2018-02-09T10:50:32Z</time>
      </trkpt>
      <trkpt lat="46.07959" lon="4.75705">
        <ele>173</ele>
        <time>2018-02-09T10:50:33Z</time>
      </trkpt>
      <trkpt lat="46.07954" lon="4.75709">
        <ele>173</ele>
        <time>2018-02-09T10:50:34Z</time>
      </trkpt>
      <trkpt lat="46.0795" lon="4.75711">
        <ele>173</ele>
        <time>2018-02-09T10:50:35Z</time>
      </trkpt>
      <trkpt lat="46.07945" lon="4.75715">
        <ele>173</ele>
        <time>2018-02-09T10:50:36Z</time>
      </trkpt>
      <trkpt lat="46.07941" lon="4.75718">
        <ele>173</ele>
        <time>2018-02-09T10:50:37Z</time>
      </trkpt>
      <trkpt lat="46.07933" lon="4.75723">
        <ele>173</ele>
        <time>2018-02-09T10:50:39Z</time>
      </trkpt>
      <trkpt lat="46.0793" lon="4.75726">
        <ele>173</ele>
        <time>2018-02-09T10:50:40Z</time>
      </trkpt>
      <trkpt lat="46.07926" lon="4.75731">
        <ele>173</ele>
        <time>2018-02-09T10:50:41Z</time>
      </trkpt>
      <trkpt lat="46.07922" lon="4.75735">
        <ele>173</ele>
        <time>2018-02-09T10:50:42Z</time>
      </trkpt>
      <trkpt lat="46.07915" lon="4.75742">
        <ele>172</ele>
        <time>2018-02-09T10:50:44Z</time>
      </trkpt>
      <trkpt lat="46.07911" lon="4.75747">
        <ele>172</ele>
        <time>2018-02-09T10:50:45Z</time>
      </trkpt>
      <trkpt lat="46.07907" lon="4.7575">
        <ele>171</ele>
        <time>2018-02-09T10:50:46Z</time>
      </trkpt>
      <trkpt lat="46.07903" lon="4.75755">
        <ele>172</ele>
        <time>2018-02-09T10:50:47Z</time>
      </trkpt>
      <trkpt lat="46.07899" lon="4.75758">
        <ele>172</ele>
        <time>2018-02-09T10:50:48Z</time>
      </trkpt>
      <trkpt lat="46.07895" lon="4.75762">
        <ele>172</ele>
        <time>2018-02-09T10:50:49Z</time>
      </trkpt>
      <trkpt lat="46.0789" lon="4.75766">
        <ele>172</ele>
        <time>2018-02-09T10:50:50Z</time>
      </trkpt>
      <trkpt lat="46.07887" lon="4.75771">
        <ele>172</ele>
        <time>2018-02-09T10:50:51Z</time>
      </trkpt>
      <trkpt lat="46.07881" lon="4.75775">
        <ele>171</ele>
        <time>2018-02-09T10:50:52Z</time>
      </trkpt>
      <trkpt lat="46.07878" lon="4.7578">
        <ele>171</ele>
        <time>2018-02-09T10:50:53Z</time>
      </trkpt>
      <trkpt lat="46.07871" lon="4.75788">
        <ele>171</ele>
        <time>2018-02-09T10:50:55Z</time>
      </trkpt>
      <trkpt lat="46.07867" lon="4.75792">
        <ele>171</ele>
        <time>2018-02-09T10:50:56Z</time>
      </trkpt>
      <trkpt lat="46.07863" lon="4.75797">
        <ele>171</ele>
        <time>2018-02-09T10:50:57Z</time>
      </trkpt>
      <trkpt lat="46.07859" lon="4.75801">
        <ele>171</ele>
        <time>2018-02-09T10:50:58Z</time>
      </trkpt>
      <trkpt lat="46.07855" lon="4.75805">
        <ele>172</ele>
        <time>2018-02-09T10:50:59Z</time>
      </trkpt>
      <trkpt lat="46.07851" lon="4.7581">
        <ele>172</ele>
        <time>2018-02-09T10:51:00Z</time>
      </trkpt>
      <trkpt lat="46.07845" lon="4.75815">
        <ele>172</ele>
        <time>2018-02-09T10:51:01Z</time>
      </trkpt>
      <trkpt lat="46.07841" lon="4.75818">
        <ele>172</ele>
        <time>2018-02-09T10:51:02Z</time>
      </trkpt>
      <trkpt lat="46.07837" lon="4.75821">
        <ele>172</ele>
        <time>2018-02-09T10:51:03Z</time>
      </trkpt>
      <trkpt lat="46.07833" lon="4.75826">
        <ele>172</ele>
        <time>2018-02-09T10:51:04Z</time>
      </trkpt>
      <trkpt lat="46.07827" lon="4.75833">
        <ele>172</ele>
        <time>2018-02-09T10:51:06Z</time>
      </trkpt>
      <trkpt lat="46.07823" lon="4.75838">
        <ele>173</ele>
        <time>2018-02-09T10:51:07Z</time>
      </trkpt>
      <trkpt lat="46.07817" lon="4.75845">
        <ele>172</ele>
        <time>2018-02-09T10:51:09Z</time>
      </trkpt>
      <trkpt lat="46.07814" lon="4.75849">
        <ele>172</ele>
        <time>2018-02-09T10:51:10Z</time>
      </trkpt>
      <trkpt lat="46.07806" lon="4.75856">
        <ele>172</ele>
        <time>2018-02-09T10:51:12Z</time>
      </trkpt>
      <trkpt lat="46.07803" lon="4.7586">
        <ele>172</ele>
        <time>2018-02-09T10:51:13Z</time>
      </trkpt>
      <trkpt lat="46.07798" lon="4.75865">
        <ele>172</ele>
        <time>2018-02-09T10:51:14Z</time>
      </trkpt>
      <trkpt lat="46.07794" lon="4.75869">
        <ele>172</ele>
        <time>2018-02-09T10:51:15Z</time>
      </trkpt>
      <trkpt lat="46.0779" lon="4.75873">
        <ele>172</ele>
        <time>2018-02-09T10:51:16Z</time>
      </trkpt>
      <trkpt lat="46.07786" lon="4.75876">
        <ele>172</ele>
        <time>2018-02-09T10:51:17Z</time>
      </trkpt>
      <trkpt lat="46.07781" lon="4.7588">
        <ele>172</ele>
        <time>2018-02-09T10:51:18Z</time>
      </trkpt>
      <trkpt lat="46.07776" lon="4.75884">
        <ele>172</ele>
        <time>2018-02-09T10:51:19Z</time>
      </trkpt>
      <trkpt lat="46.07772" lon="4.75888">
        <ele>172</ele>
        <time>2018-02-09T10:51:20Z</time>
      </trkpt>
      <trkpt lat="46.07767" lon="4.75892">
        <ele>173</ele>
        <time>2018-02-09T10:51:21Z</time>
      </trkpt>
      <trkpt lat="46.07763" lon="4.75897">
        <ele>173</ele>
        <time>2018-02-09T10:51:22Z</time>
      </trkpt>
      <trkpt lat="46.07759" lon="4.75901">
        <ele>173</ele>
        <time>2018-02-09T10:51:23Z</time>
      </trkpt>
      <trkpt lat="46.07755" lon="4.75904">
        <ele>173</ele>
        <time>2018-02-09T10:51:24Z</time>
      </trkpt>
      <trkpt lat="46.0775" lon="4.75907">
        <ele>172</ele>
        <time>2018-02-09T10:51:25Z</time>
      </trkpt>
      <trkpt lat="46.07742" lon="4.75912">
        <ele>172</ele>
        <time>2018-02-09T10:51:27Z</time>
      </trkpt>
      <trkpt lat="46.07739" lon="4.75915">
        <ele>172</ele>
        <time>2018-02-09T10:51:28Z</time>
      </trkpt>
      <trkpt lat="46.07732" lon="4.7592">
        <ele>173</ele>
        <time>2018-02-09T10:51:30Z</time>
      </trkpt>
      <trkpt lat="46.07728" lon="4.75923">
        <ele>173</ele>
        <time>2018-02-09T10:51:31Z</time>
      </trkpt>
      <trkpt lat="46.0772" lon="4.75929">
        <ele>172</ele>
        <time>2018-02-09T10:51:33Z</time>
      </trkpt>
      <trkpt lat="46.07717" lon="4.75933">
        <ele>172</ele>
        <time>2018-02-09T10:51:34Z</time>
      </trkpt>
      <trkpt lat="46.07709" lon="4.75939">
        <ele>172</ele>
        <time>2018-02-09T10:51:36Z</time>
      </trkpt>
      <trkpt lat="46.07705" lon="4.75942">
        <ele>172</ele>
        <time>2018-02-09T10:51:37Z</time>
      </trkpt>
      <trkpt lat="46.07697" lon="4.75947">
        <ele>172</ele>
        <time>2018-02-09T10:51:39Z</time>
      </trkpt>
      <trkpt lat="46.07693" lon="4.75949">
        <ele>172</ele>
        <time>2018-02-09T10:51:40Z</time>
      </trkpt>
      <trkpt lat="46.07688" lon="4.75953">
        <ele>172</ele>
        <time>2018-02-09T10:51:41Z</time>
      </trkpt>
      <trkpt lat="46.07684" lon="4.75956">
        <ele>172</ele>
        <time>2018-02-09T10:51:42Z</time>
      </trkpt>
      <trkpt lat="46.0768" lon="4.75959">
        <ele>172</ele>
        <time>2018-02-09T10:51:43Z</time>
      </trkpt>
      <trkpt lat="46.07676" lon="4.75961">
        <ele>172</ele>
        <time>2018-02-09T10:51:44Z</time>
      </trkpt>
      <trkpt lat="46.07671" lon="4.75964">
        <ele>172</ele>
        <time>2018-02-09T10:51:45Z</time>
      </trkpt>
      <trkpt lat="46.07666" lon="4.75966">
        <ele>169</ele>
        <time>2018-02-09T10:51:46Z</time>
      </trkpt>
      <trkpt lat="46.07662" lon="4.75969">
        <ele>169</ele>
        <time>2018-02-09T10:51:47Z</time>
      </trkpt>
      <trkpt lat="46.07658" lon="4.75971">
        <ele>169</ele>
        <time>2018-02-09T10:51:48Z</time>
      </trkpt>
      <trkpt lat="46.07651" lon="4.75977">
        <ele>170</ele>
        <time>2018-02-09T10:51:50Z</time>
      </trkpt>
      <trkpt lat="46.0765" lon="4.75982">
        <ele>170</ele>
        <time>2018-02-09T10:51:51Z</time>
      </trkpt>
      <trkpt lat="46.07646" lon="4.75992">
        <ele>170</ele>
        <time>2018-02-09T10:51:53Z</time>
      </trkpt>
      <trkpt lat="46.07645" lon="4.75997">
        <ele>170</ele>
        <time>2018-02-09T10:51:54Z</time>
      </trkpt>
      <trkpt lat="46.07647" lon="4.76009">
        <ele>172</ele>
        <time>2018-02-09T10:51:56Z</time>
      </trkpt>
      <trkpt lat="46.07649" lon="4.76013">
        <ele>172</ele>
        <time>2018-02-09T10:51:57Z</time>
      </trkpt>
      <trkpt lat="46.07652" lon="4.76023">
        <ele>172</ele>
        <time>2018-02-09T10:51:59Z</time>
      </trkpt>
      <trkpt lat="46.07654" lon="4.76027">
        <ele>172</ele>
        <time>2018-02-09T10:52:00Z</time>
      </trkpt>
      <trkpt lat="46.07658" lon="4.76037">
        <ele>172</ele>
        <time>2018-02-09T10:52:02Z</time>
      </trkpt>
      <trkpt lat="46.07658" lon="4.76046">
        <ele>172</ele>
        <time>2018-02-09T10:52:03Z</time>
      </trkpt>
      <trkpt lat="46.07663" lon="4.76055">
        <ele>172</ele>
        <time>2018-02-09T10:52:06Z</time>
      </trkpt>
      <trkpt lat="46.07665" lon="4.76059">
        <ele>172</ele>
        <time>2018-02-09T10:52:07Z</time>
      </trkpt>
      <trkpt lat="46.07667" lon="4.76066">
        <ele>174</ele>
        <time>2018-02-09T10:52:08Z</time>
      </trkpt>
      <trkpt lat="46.07669" lon="4.76071">
        <ele>174</ele>
        <time>2018-02-09T10:52:09Z</time>
      </trkpt>
      <trkpt lat="46.07674" lon="4.76081">
        <ele>173</ele>
        <time>2018-02-09T10:52:11Z</time>
      </trkpt>
      <trkpt lat="46.07676" lon="4.76086">
        <ele>173</ele>
        <time>2018-02-09T10:52:12Z</time>
      </trkpt>
      <trkpt lat="46.07678" lon="4.76096">
        <ele>173</ele>
        <time>2018-02-09T10:52:14Z</time>
      </trkpt>
      <trkpt lat="46.07678" lon="4.761">
        <ele>173</ele>
        <time>2018-02-09T10:52:15Z</time>
      </trkpt>
      <trkpt lat="46.07674" lon="4.76108">
        <ele>173</ele>
        <time>2018-02-09T10:52:17Z</time>
      </trkpt>
      <trkpt lat="46.07671" lon="4.76112">
        <ele>173</ele>
        <time>2018-02-09T10:52:18Z</time>
      </trkpt>
      <trkpt lat="46.07664" lon="4.76115">
        <ele>172</ele>
        <time>2018-02-09T10:52:19Z</time>
      </trkpt>
      <trkpt lat="46.0766" lon="4.76119">
        <ele>172</ele>
        <time>2018-02-09T10:52:20Z</time>
      </trkpt>
      <trkpt lat="46.07657" lon="4.76123">
        <ele>172</ele>
        <time>2018-02-09T10:52:21Z</time>
      </trkpt>
      <trkpt lat="46.07653" lon="4.76128">
        <ele>172</ele>
        <time>2018-02-09T10:52:22Z</time>
      </trkpt>
      <trkpt lat="46.07649" lon="4.76133">
        <ele>172</ele>
        <time>2018-02-09T10:52:23Z</time>
      </trkpt>
      <trkpt lat="46.07645" lon="4.76138">
        <ele>172</ele>
        <time>2018-02-09T10:52:24Z</time>
      </trkpt>
      <trkpt lat="46.07642" lon="4.76142">
        <ele>172</ele>
        <time>2018-02-09T10:52:25Z</time>
      </trkpt>
      <trkpt lat="46.07638" lon="4.76146">
        <ele>172</ele>
        <time>2018-02-09T10:52:26Z</time>
      </trkpt>
      <trkpt lat="46.07633" lon="4.7615">
        <ele>172</ele>
        <time>2018-02-09T10:52:27Z</time>
      </trkpt>
      <trkpt lat="46.07629" lon="4.76154">
        <ele>172</ele>
        <time>2018-02-09T10:52:28Z</time>
      </trkpt>
      <trkpt lat="46.07625" lon="4.76159">
        <ele>172</ele>
        <time>2018-02-09T10:52:29Z</time>
      </trkpt>
      <trkpt lat="46.07621" lon="4.76165">
        <ele>172</ele>
        <time>2018-02-09T10:52:30Z</time>
      </trkpt>
      <trkpt lat="46.07618" lon="4.76169">
        <ele>173</ele>
        <time>2018-02-09T10:52:31Z</time>
      </trkpt>
      <trkpt lat="46.07613" lon="4.76174">
        <ele>173</ele>
        <time>2018-02-09T10:52:32Z</time>
      </trkpt>
      <trkpt lat="46.07609" lon="4.76178">
        <ele>173</ele>
        <time>2018-02-09T10:52:33Z</time>
      </trkpt>
      <trkpt lat="46.07605" lon="4.76183">
        <ele>173</ele>
        <time>2018-02-09T10:52:34Z</time>
      </trkpt>
      <trkpt lat="46.07601" lon="4.76187">
        <ele>173</ele>
        <time>2018-02-09T10:52:35Z</time>
      </trkpt>
      <trkpt lat="46.07597" lon="4.76192">
        <ele>173</ele>
        <time>2018-02-09T10:52:36Z</time>
      </trkpt>
      <trkpt lat="46.07592" lon="4.76197">
        <ele>173</ele>
        <time>2018-02-09T10:52:37Z</time>
      </trkpt>
      <trkpt lat="46.07588" lon="4.76201">
        <ele>173</ele>
        <time>2018-02-09T10:52:38Z</time>
      </trkpt>
      <trkpt lat="46.07584" lon="4.76206">
        <ele>173</ele>
        <time>2018-02-09T10:52:39Z</time>
      </trkpt>
      <trkpt lat="46.07579" lon="4.76211">
        <ele>173</ele>
        <time>2018-02-09T10:52:40Z</time>
      </trkpt>
      <trkpt lat="46.07575" lon="4.76216">
        <ele>173</ele>
        <time>2018-02-09T10:52:41Z</time>
      </trkpt>
      <trkpt lat="46.07571" lon="4.76221">
        <ele>173</ele>
        <time>2018-02-09T10:52:42Z</time>
      </trkpt>
      <trkpt lat="46.07566" lon="4.76225">
        <ele>173</ele>
        <time>2018-02-09T10:52:43Z</time>
      </trkpt>
      <trkpt lat="46.07562" lon="4.7623">
        <ele>173</ele>
        <time>2018-02-09T10:52:44Z</time>
      </trkpt>
      <trkpt lat="46.07558" lon="4.76234">
        <ele>173</ele>
        <time>2018-02-09T10:52:45Z</time>
      </trkpt>
      <trkpt lat="46.07553" lon="4.76238">
        <ele>173</ele>
        <time>2018-02-09T10:52:46Z</time>
      </trkpt>
      <trkpt lat="46.07549" lon="4.76243">
        <ele>173</ele>
        <time>2018-02-09T10:52:47Z</time>
      </trkpt>
      <trkpt lat="46.07545" lon="4.76247">
        <ele>173</ele>
        <time>2018-02-09T10:52:48Z</time>
      </trkpt>
      <trkpt lat="46.07541" lon="4.76251">
        <ele>174</ele>
        <time>2018-02-09T10:52:49Z</time>
      </trkpt>
      <trkpt lat="46.07537" lon="4.76255">
        <ele>174</ele>
        <time>2018-02-09T10:52:50Z</time>
      </trkpt>
      <trkpt lat="46.07533" lon="4.7626">
        <ele>174</ele>
        <time>2018-02-09T10:52:51Z</time>
      </trkpt>
      <trkpt lat="46.07529" lon="4.76265">
        <ele>174</ele>
        <time>2018-02-09T10:52:52Z</time>
      </trkpt>
      <trkpt lat="46.07525" lon="4.76269">
        <ele>174</ele>
        <time>2018-02-09T10:52:53Z</time>
      </trkpt>
      <trkpt lat="46.07521" lon="4.76273">
        <ele>174</ele>
        <time>2018-02-09T10:52:54Z</time>
      </trkpt>
      <trkpt lat="46.07517" lon="4.76278">
        <ele>174</ele>
        <time>2018-02-09T10:52:55Z</time>
      </trkpt>
      <trkpt lat="46.07514" lon="4.76282">
        <ele>174</ele>
        <time>2018-02-09T10:52:56Z</time>
      </trkpt>
      <trkpt lat="46.07509" lon="4.76286">
        <ele>174</ele>
        <time>2018-02-09T10:52:57Z</time>
      </trkpt>
      <trkpt lat="46.07503" lon="4.76291">
        <ele>174</ele>
        <time>2018-02-09T10:52:58Z</time>
      </trkpt>
      <trkpt lat="46.07499" lon="4.76295">
        <ele>173</ele>
        <time>2018-02-09T10:52:59Z</time>
      </trkpt>
      <trkpt lat="46.07494" lon="4.76299">
        <ele>173</ele>
        <time>2018-02-09T10:53:00Z</time>
      </trkpt>
      <trkpt lat="46.0749" lon="4.76303">
        <ele>173</ele>
        <time>2018-02-09T10:53:01Z</time>
      </trkpt>
      <trkpt lat="46.07485" lon="4.76305">
        <ele>173</ele>
        <time>2018-02-09T10:53:02Z</time>
      </trkpt>
      <trkpt lat="46.0748" lon="4.76305">
        <ele>172</ele>
        <time>2018-02-09T10:53:03Z</time>
      </trkpt>
      <trkpt lat="46.07474" lon="4.76307">
        <ele>172</ele>
        <time>2018-02-09T10:53:04Z</time>
      </trkpt>
      <trkpt lat="46.0747" lon="4.7631">
        <ele>172</ele>
        <time>2018-02-09T10:53:05Z</time>
      </trkpt>
      <trkpt lat="46.07466" lon="4.76315">
        <ele>172</ele>
        <time>2018-02-09T10:53:06Z</time>
      </trkpt>
      <trkpt lat="46.07464" lon="4.76322">
        <ele>172</ele>
        <time>2018-02-09T10:53:07Z</time>
      </trkpt>
      <trkpt lat="46.07462" lon="4.76329">
        <ele>172</ele>
        <time>2018-02-09T10:53:08Z</time>
      </trkpt>
      <trkpt lat="46.0746" lon="4.76335">
        <ele>172</ele>
        <time>2018-02-09T10:53:09Z</time>
      </trkpt>
      <trkpt lat="46.07456" lon="4.7634">
        <ele>172</ele>
        <time>2018-02-09T10:53:10Z</time>
      </trkpt>
      <trkpt lat="46.07449" lon="4.76348">
        <ele>172</ele>
        <time>2018-02-09T10:53:12Z</time>
      </trkpt>
      <trkpt lat="46.07445" lon="4.76352">
        <ele>171</ele>
        <time>2018-02-09T10:53:13Z</time>
      </trkpt>
      <trkpt lat="46.07441" lon="4.76357">
        <ele>171</ele>
        <time>2018-02-09T10:53:14Z</time>
      </trkpt>
      <trkpt lat="46.07437" lon="4.76362">
        <ele>171</ele>
        <time>2018-02-09T10:53:15Z</time>
      </trkpt>
      <trkpt lat="46.07433" lon="4.76367">
        <ele>171</ele>
        <time>2018-02-09T10:53:16Z</time>
      </trkpt>
      <trkpt lat="46.07428" lon="4.76371">
        <ele>171</ele>
        <time>2018-02-09T10:53:17Z</time>
      </trkpt>
      <trkpt lat="46.07424" lon="4.76376">
        <ele>171</ele>
        <time>2018-02-09T10:53:18Z</time>
      </trkpt>
      <trkpt lat="46.0742" lon="4.76381">
        <ele>171</ele>
        <time>2018-02-09T10:53:19Z</time>
      </trkpt>
      <trkpt lat="46.07416" lon="4.76385">
        <ele>170</ele>
        <time>2018-02-09T10:53:20Z</time>
      </trkpt>
      <trkpt lat="46.07412" lon="4.76391">
        <ele>170</ele>
        <time>2018-02-09T10:53:21Z</time>
      </trkpt>
      <trkpt lat="46.07408" lon="4.76395">
        <ele>170</ele>
        <time>2018-02-09T10:53:22Z</time>
      </trkpt>
      <trkpt lat="46.07403" lon="4.76399">
        <ele>170</ele>
        <time>2018-02-09T10:53:23Z</time>
      </trkpt>
      <trkpt lat="46.07399" lon="4.76404">
        <ele>170</ele>
        <time>2018-02-09T10:53:24Z</time>
      </trkpt>
      <trkpt lat="46.07394" lon="4.76409">
        <ele>170</ele>
        <time>2018-02-09T10:53:25Z</time>
      </trkpt>
      <trkpt lat="46.07389" lon="4.76413">
        <ele>170</ele>
        <time>2018-02-09T10:53:26Z</time>
      </trkpt>
      <trkpt lat="46.07385" lon="4.76418">
        <ele>171</ele>
        <time>2018-02-09T10:53:27Z</time>
      </trkpt>
      <trkpt lat="46.07381" lon="4.76424">
        <ele>171</ele>
        <time>2018-02-09T10:53:28Z</time>
      </trkpt>
      <trkpt lat="46.07376" lon="4.7643">
        <ele>171</ele>
        <time>2018-02-09T10:53:29Z</time>
      </trkpt>
      <trkpt lat="46.07371" lon="4.76435">
        <ele>171</ele>
        <time>2018-02-09T10:53:30Z</time>
      </trkpt>
      <trkpt lat="46.07366" lon="4.76441">
        <ele>171</ele>
        <time>2018-02-09T10:53:31Z</time>
      </trkpt>
      <trkpt lat="46.07362" lon="4.76445">
        <ele>171</ele>
        <time>2018-02-09T10:53:32Z</time>
      </trkpt>
      <trkpt lat="46.07357" lon="4.7645">
        <ele>171</ele>
        <time>2018-02-09T10:53:33Z</time>
      </trkpt>
      <trkpt lat="46.07353" lon="4.76455">
        <ele>171</ele>
        <time>2018-02-09T10:53:34Z</time>
      </trkpt>
      <trkpt lat="46.07348" lon="4.76459">
        <ele>171</ele>
        <time>2018-02-09T10:53:35Z</time>
      </trkpt>
      <trkpt lat="46.07343" lon="4.76464">
        <ele>171</ele>
        <time>2018-02-09T10:53:36Z</time>
      </trkpt>
      <trkpt lat="46.07338" lon="4.76468">
        <ele>171</ele>
        <time>2018-02-09T10:53:37Z</time>
      </trkpt>
      <trkpt lat="46.07333" lon="4.76474">
        <ele>170</ele>
        <time>2018-02-09T10:53:38Z</time>
      </trkpt>
      <trkpt lat="46.07328" lon="4.76479">
        <ele>170</ele>
        <time>2018-02-09T10:53:39Z</time>
      </trkpt>
      <trkpt lat="46.07324" lon="4.76484">
        <ele>170</ele>
        <time>2018-02-09T10:53:40Z</time>
      </trkpt>
      <trkpt lat="46.07319" lon="4.76489">
        <ele>170</ele>
        <time>2018-02-09T10:53:41Z</time>
      </trkpt>
      <trkpt lat="46.07314" lon="4.76494">
        <ele>170</ele>
        <time>2018-02-09T10:53:42Z</time>
      </trkpt>
      <trkpt lat="46.0731" lon="4.76498">
        <ele>170</ele>
        <time>2018-02-09T10:53:43Z</time>
      </trkpt>
      <trkpt lat="46.07306" lon="4.76504">
        <ele>170</ele>
        <time>2018-02-09T10:53:44Z</time>
      </trkpt>
      <trkpt lat="46.07302" lon="4.76509">
        <ele>170</ele>
        <time>2018-02-09T10:53:45Z</time>
      </trkpt>
      <trkpt lat="46.07297" lon="4.76513">
        <ele>170</ele>
        <time>2018-02-09T10:53:46Z</time>
      </trkpt>
      <trkpt lat="46.07293" lon="4.76518">
        <ele>170</ele>
        <time>2018-02-09T10:53:47Z</time>
      </trkpt>
      <trkpt lat="46.07289" lon="4.76523">
        <ele>170</ele>
        <time>2018-02-09T10:53:48Z</time>
      </trkpt>
      <trkpt lat="46.07284" lon="4.76527">
        <ele>170</ele>
        <time>2018-02-09T10:53:49Z</time>
      </trkpt>
      <trkpt lat="46.07279" lon="4.76534">
        <ele>170</ele>
        <time>2018-02-09T10:53:50Z</time>
      </trkpt>
      <trkpt lat="46.07276" lon="4.76539">
        <ele>170</ele>
        <time>2018-02-09T10:53:51Z</time>
      </trkpt>
      <trkpt lat="46.07272" lon="4.76543">
        <ele>170</ele>
        <time>2018-02-09T10:53:52Z</time>
      </trkpt>
      <trkpt lat="46.07268" lon="4.76548">
        <ele>170</ele>
        <time>2018-02-09T10:53:53Z</time>
      </trkpt>
      <trkpt lat="46.07264" lon="4.76553">
        <ele>170</ele>
        <time>2018-02-09T10:53:54Z</time>
      </trkpt>
      <trkpt lat="46.0726" lon="4.76558">
        <ele>170</ele>
        <time>2018-02-09T10:53:55Z</time>
      </trkpt>
      <trkpt lat="46.07256" lon="4.76562">
        <ele>170</ele>
        <time>2018-02-09T10:53:56Z</time>
      </trkpt>
      <trkpt lat="46.07252" lon="4.76566">
        <ele>170</ele>
        <time>2018-02-09T10:53:57Z</time>
      </trkpt>
      <trkpt lat="46.07247" lon="4.76571">
        <ele>170</ele>
        <time>2018-02-09T10:53:58Z</time>
      </trkpt>
      <trkpt lat="46.07242" lon="4.76575">
        <ele>170</ele>
        <time>2018-02-09T10:53:59Z</time>
      </trkpt>
      <trkpt lat="46.07238" lon="4.76581">
        <ele>170</ele>
        <time>2018-02-09T10:54:00Z</time>
      </trkpt>
      <trkpt lat="46.07234" lon="4.76585">
        <ele>170</ele>
        <time>2018-02-09T10:54:01Z</time>
      </trkpt>
      <trkpt lat="46.07231" lon="4.76589">
        <ele>170</ele>
        <time>2018-02-09T10:54:02Z</time>
      </trkpt>
      <trkpt lat="46.07227" lon="4.76595">
        <ele>170</ele>
        <time>2018-02-09T10:54:03Z</time>
      </trkpt>
      <trkpt lat="46.07223" lon="4.766">
        <ele>170</ele>
        <time>2018-02-09T10:54:04Z</time>
      </trkpt>
      <trkpt lat="46.0722" lon="4.76605">
        <ele>170</ele>
        <time>2018-02-09T10:54:05Z</time>
      </trkpt>
      <trkpt lat="46.07217" lon="4.76611">
        <ele>170</ele>
        <time>2018-02-09T10:54:06Z</time>
      </trkpt>
      <trkpt lat="46.07213" lon="4.76617">
        <ele>170</ele>
        <time>2018-02-09T10:54:07Z</time>
      </trkpt>
      <trkpt lat="46.07208" lon="4.76622">
        <ele>171</ele>
        <time>2018-02-09T10:54:08Z</time>
      </trkpt>
      <trkpt lat="46.07205" lon="4.76627">
        <ele>170</ele>
        <time>2018-02-09T10:54:09Z</time>
      </trkpt>
      <trkpt lat="46.07201" lon="4.76633">
        <ele>170</ele>
        <time>2018-02-09T10:54:10Z</time>
      </trkpt>
      <trkpt lat="46.07198" lon="4.76639">
        <ele>170</ele>
        <time>2018-02-09T10:54:11Z</time>
      </trkpt>
      <trkpt lat="46.07195" lon="4.76644">
        <ele>170</ele>
        <time>2018-02-09T10:54:12Z</time>
      </trkpt>
      <trkpt lat="46.0719" lon="4.7665">
        <ele>170</ele>
        <time>2018-02-09T10:54:13Z</time>
      </trkpt>
      <trkpt lat="46.07186" lon="4.76655">
        <ele>170</ele>
        <time>2018-02-09T10:54:14Z</time>
      </trkpt>
      <trkpt lat="46.07183" lon="4.76661">
        <ele>170</ele>
        <time>2018-02-09T10:54:15Z</time>
      </trkpt>
      <trkpt lat="46.07179" lon="4.76667">
        <ele>170</ele>
        <time>2018-02-09T10:54:16Z</time>
      </trkpt>
      <trkpt lat="46.07176" lon="4.76673">
        <ele>170</ele>
        <time>2018-02-09T10:54:17Z</time>
      </trkpt>
      <trkpt lat="46.07173" lon="4.76679">
        <ele>170</ele>
        <time>2018-02-09T10:54:18Z</time>
      </trkpt>
      <trkpt lat="46.07169" lon="4.76684">
        <ele>170</ele>
        <time>2018-02-09T10:54:19Z</time>
      </trkpt>
      <trkpt lat="46.07166" lon="4.76691">
        <ele>170</ele>
        <time>2018-02-09T10:54:20Z</time>
      </trkpt>
      <trkpt lat="46.07163" lon="4.76697">
        <ele>170</ele>
        <time>2018-02-09T10:54:21Z</time>
      </trkpt>
      <trkpt lat="46.07159" lon="4.76704">
        <ele>170</ele>
        <time>2018-02-09T10:54:22Z</time>
      </trkpt>
      <trkpt lat="46.07156" lon="4.7671">
        <ele>170</ele>
        <time>2018-02-09T10:54:23Z</time>
      </trkpt>
      <trkpt lat="46.07152" lon="4.76717">
        <ele>170</ele>
        <time>2018-02-09T10:54:24Z</time>
      </trkpt>
      <trkpt lat="46.07149" lon="4.76724">
        <ele>170</ele>
        <time>2018-02-09T10:54:25Z</time>
      </trkpt>
      <trkpt lat="46.07145" lon="4.76731">
        <ele>171</ele>
        <time>2018-02-09T10:54:26Z</time>
      </trkpt>
      <trkpt lat="46.07142" lon="4.76738">
        <ele>171</ele>
        <time>2018-02-09T10:54:27Z</time>
      </trkpt>
      <trkpt lat="46.07138" lon="4.76745">
        <ele>171</ele>
        <time>2018-02-09T10:54:28Z</time>
      </trkpt>
      <trkpt lat="46.07134" lon="4.76752">
        <ele>171</ele>
        <time>2018-02-09T10:54:29Z</time>
      </trkpt>
      <trkpt lat="46.0713" lon="4.76759">
        <ele>171</ele>
        <time>2018-02-09T10:54:30Z</time>
      </trkpt>
      <trkpt lat="46.07127" lon="4.76766">
        <ele>171</ele>
        <time>2018-02-09T10:54:31Z</time>
      </trkpt>
      <trkpt lat="46.07124" lon="4.76774">
        <ele>171</ele>
        <time>2018-02-09T10:54:32Z</time>
      </trkpt>
      <trkpt lat="46.0712" lon="4.76781">
        <ele>171</ele>
        <time>2018-02-09T10:54:33Z</time>
      </trkpt>
      <trkpt lat="46.07117" lon="4.76787">
        <ele>171</ele>
        <time>2018-02-09T10:54:34Z</time>
      </trkpt>
      <trkpt lat="46.07113" lon="4.76794">
        <ele>172</ele>
        <time>2018-02-09T10:54:35Z</time>
      </trkpt>
      <trkpt lat="46.0711" lon="4.76801">
        <ele>172</ele>
        <time>2018-02-09T10:54:36Z</time>
      </trkpt>
      <trkpt lat="46.07106" lon="4.76808">
        <ele>172</ele>
        <time>2018-02-09T10:54:37Z</time>
      </trkpt>
      <trkpt lat="46.07102" lon="4.76816">
        <ele>172</ele>
        <time>2018-02-09T10:54:38Z</time>
      </trkpt>
      <trkpt lat="46.07099" lon="4.76822">
        <ele>172</ele>
        <time>2018-02-09T10:54:39Z</time>
      </trkpt>
      <trkpt lat="46.07095" lon="4.76829">
        <ele>172</ele>
        <time>2018-02-09T10:54:40Z</time>
      </trkpt>
      <trkpt lat="46.07091" lon="4.76836">
        <ele>172</ele>
        <time>2018-02-09T10:54:41Z</time>
      </trkpt>
      <trkpt lat="46.07088" lon="4.76844">
        <ele>172</ele>
        <time>2018-02-09T10:54:42Z</time>
      </trkpt>
      <trkpt lat="46.07084" lon="4.76852">
        <ele>172</ele>
        <time>2018-02-09T10:54:43Z</time>
      </trkpt>
      <trkpt lat="46.0708" lon="4.76859">
        <ele>172</ele>
        <time>2018-02-09T10:54:44Z</time>
      </trkpt>
      <trkpt lat="46.07076" lon="4.76867">
        <ele>172</ele>
        <time>2018-02-09T10:54:45Z</time>
      </trkpt>
      <trkpt lat="46.07073" lon="4.76876">
        <ele>172</ele>
        <time>2018-02-09T10:54:46Z</time>
      </trkpt>
      <trkpt lat="46.07069" lon="4.76883">
        <ele>172</ele>
        <time>2018-02-09T10:54:47Z</time>
      </trkpt>
      <trkpt lat="46.07065" lon="4.76891">
        <ele>172</ele>
        <time>2018-02-09T10:54:48Z</time>
      </trkpt>
      <trkpt lat="46.07061" lon="4.76898">
        <ele>172</ele>
        <time>2018-02-09T10:54:49Z</time>
      </trkpt>
      <trkpt lat="46.07057" lon="4.76905">
        <ele>172</ele>
        <time>2018-02-09T10:54:50Z</time>
      </trkpt>
      <trkpt lat="46.07054" lon="4.76912">
        <ele>172</ele>
        <time>2018-02-09T10:54:51Z</time>
      </trkpt>
      <trkpt lat="46.0705" lon="4.7692">
        <ele>173</ele>
        <time>2018-02-09T10:54:52Z</time>
      </trkpt>
      <trkpt lat="46.07046" lon="4.76927">
        <ele>173</ele>
        <time>2018-02-09T10:54:53Z</time>
      </trkpt>
      <trkpt lat="46.07042" lon="4.76933">
        <ele>173</ele>
        <time>2018-02-09T10:54:54Z</time>
      </trkpt>
      <trkpt lat="46.0704" lon="4.7694">
        <ele>173</ele>
        <time>2018-02-09T10:54:55Z</time>
      </trkpt>
      <trkpt lat="46.07035" lon="4.76946">
        <ele>173</ele>
        <time>2018-02-09T10:54:56Z</time>
      </trkpt>
      <trkpt lat="46.07032" lon="4.76954">
        <ele>173</ele>
        <time>2018-02-09T10:54:57Z</time>
      </trkpt>
      <trkpt lat="46.07028" lon="4.76961">
        <ele>173</ele>
        <time>2018-02-09T10:54:58Z</time>
      </trkpt>
      <trkpt lat="46.07025" lon="4.76967">
        <ele>173</ele>
        <time>2018-02-09T10:54:59Z</time>
      </trkpt>
      <trkpt lat="46.07022" lon="4.76973">
        <ele>173</ele>
        <time>2018-02-09T10:55:00Z</time>
      </trkpt>
      <trkpt lat="46.07019" lon="4.7698">
        <ele>173</ele>
        <time>2018-02-09T10:55:01Z</time>
      </trkpt>
      <trkpt lat="46.07016" lon="4.76986">
        <ele>173</ele>
        <time>2018-02-09T10:55:02Z</time>
      </trkpt>
      <trkpt lat="46.07014" lon="4.76992">
        <ele>173</ele>
        <time>2018-02-09T10:55:03Z</time>
      </trkpt>
      <trkpt lat="46.07011" lon="4.77">
        <ele>173</ele>
        <time>2018-02-09T10:55:04Z</time>
      </trkpt>
      <trkpt lat="46.07007" lon="4.77006">
        <ele>173</ele>
        <time>2018-02-09T10:55:05Z</time>
      </trkpt>
      <trkpt lat="46.07004" lon="4.77011">
        <ele>173</ele>
        <time>2018-02-09T10:55:06Z</time>
      </trkpt>
      <trkpt lat="46.07" lon="4.77018">
        <ele>174</ele>
        <time>2018-02-09T10:55:07Z</time>
      </trkpt>
      <trkpt lat="46.06995" lon="4.77027">
        <ele>173</ele>
        <time>2018-02-09T10:55:09Z</time>
      </trkpt>
      <trkpt lat="46.06993" lon="4.77032">
        <ele>173</ele>
        <time>2018-02-09T10:55:10Z</time>
      </trkpt>
      <trkpt lat="46.06987" lon="4.77042">
        <ele>173</ele>
        <time>2018-02-09T10:55:12Z</time>
      </trkpt>
      <trkpt lat="46.06984" lon="4.77046">
        <ele>173</ele>
        <time>2018-02-09T10:55:13Z</time>
      </trkpt>
      <trkpt lat="46.06979" lon="4.77056">
        <ele>173</ele>
        <time>2018-02-09T10:55:15Z</time>
      </trkpt>
      <trkpt lat="46.06976" lon="4.7706">
        <ele>173</ele>
        <time>2018-02-09T10:55:16Z</time>
      </trkpt>
      <trkpt lat="46.06967" lon="4.77062">
        <ele>173</ele>
        <time>2018-02-09T10:55:18Z</time>
      </trkpt>
      <trkpt lat="46.06962" lon="4.77063">
        <ele>173</ele>
        <time>2018-02-09T10:55:19Z</time>
      </trkpt>
      <trkpt lat="46.06956" lon="4.77063">
        <ele>173</ele>
        <time>2018-02-09T10:55:20Z</time>
      </trkpt>
      <trkpt lat="46.0695" lon="4.77063">
        <ele>173</ele>
        <time>2018-02-09T10:55:21Z</time>
      </trkpt>
      <trkpt lat="46.06944" lon="4.77063">
        <ele>173</ele>
        <time>2018-02-09T10:55:22Z</time>
      </trkpt>
      <trkpt lat="46.06938" lon="4.77064">
        <ele>173</ele>
        <time>2018-02-09T10:55:23Z</time>
      </trkpt>
      <trkpt lat="46.06933" lon="4.77065">
        <ele>173</ele>
        <time>2018-02-09T10:55:24Z</time>
      </trkpt>
      <trkpt lat="46.06926" lon="4.77065">
        <ele>173</ele>
        <time>2018-02-09T10:55:25Z</time>
      </trkpt>
      <trkpt lat="46.06921" lon="4.77064">
        <ele>173</ele>
        <time>2018-02-09T10:55:26Z</time>
      </trkpt>
      <trkpt lat="46.06915" lon="4.77064">
        <ele>173</ele>
        <time>2018-02-09T10:55:27Z</time>
      </trkpt>
      <trkpt lat="46.06909" lon="4.77065">
        <ele>173</ele>
        <time>2018-02-09T10:55:28Z</time>
      </trkpt>
      <trkpt lat="46.06903" lon="4.77065">
        <ele>173</ele>
        <time>2018-02-09T10:55:29Z</time>
      </trkpt>
      <trkpt lat="46.06896" lon="4.77065">
        <ele>173</ele>
        <time>2018-02-09T10:55:30Z</time>
      </trkpt>
      <trkpt lat="46.06892" lon="4.77065">
        <ele>173</ele>
        <time>2018-02-09T10:55:31Z</time>
      </trkpt>
      <trkpt lat="46.06887" lon="4.77066">
        <ele>173</ele>
        <time>2018-02-09T10:55:32Z</time>
      </trkpt>
      <trkpt lat="46.06882" lon="4.77067">
        <ele>173</ele>
        <time>2018-02-09T10:55:33Z</time>
      </trkpt>
      <trkpt lat="46.06877" lon="4.77068">
        <ele>173</ele>
        <time>2018-02-09T10:55:34Z</time>
      </trkpt>
      <trkpt lat="46.06872" lon="4.77069">
        <ele>173</ele>
        <time>2018-02-09T10:55:35Z</time>
      </trkpt>
      <trkpt lat="46.06867" lon="4.7707">
        <ele>173</ele>
        <time>2018-02-09T10:55:36Z</time>
      </trkpt>
      <trkpt lat="46.06861" lon="4.77071">
        <ele>173</ele>
        <time>2018-02-09T10:55:37Z</time>
      </trkpt>
      <trkpt lat="46.06856" lon="4.77072">
        <ele>173</ele>
        <time>2018-02-09T10:55:38Z</time>
      </trkpt>
      <trkpt lat="46.0685" lon="4.77074">
        <ele>173</ele>
        <time>2018-02-09T10:55:39Z</time>
      </trkpt>
      <trkpt lat="46.06845" lon="4.77077">
        <ele>173</ele>
        <time>2018-02-09T10:55:40Z</time>
      </trkpt>
      <trkpt lat="46.0684" lon="4.77079">
        <ele>173</ele>
        <time>2018-02-09T10:55:41Z</time>
      </trkpt>
      <trkpt lat="46.06835" lon="4.77082">
        <ele>173</ele>
        <time>2018-02-09T10:55:42Z</time>
      </trkpt>
      <trkpt lat="46.06829" lon="4.77084">
        <ele>173</ele>
        <time>2018-02-09T10:55:43Z</time>
      </trkpt>
      <trkpt lat="46.06825" lon="4.77088">
        <ele>173</ele>
        <time>2018-02-09T10:55:44Z</time>
      </trkpt>
      <trkpt lat="46.0682" lon="4.77091">
        <ele>173</ele>
        <time>2018-02-09T10:55:45Z</time>
      </trkpt>
      <trkpt lat="46.06815" lon="4.77095">
        <ele>173</ele>
        <time>2018-02-09T10:55:46Z</time>
      </trkpt>
      <trkpt lat="46.0681" lon="4.77099">
        <ele>172</ele>
        <time>2018-02-09T10:55:47Z</time>
      </trkpt>
      <trkpt lat="46.06805" lon="4.77103">
        <ele>172</ele>
        <time>2018-02-09T10:55:48Z</time>
      </trkpt>
      <trkpt lat="46.068" lon="4.77107">
        <ele>172</ele>
        <time>2018-02-09T10:55:49Z</time>
      </trkpt>
      <trkpt lat="46.06795" lon="4.77111">
        <ele>172</ele>
        <time>2018-02-09T10:55:50Z</time>
      </trkpt>
      <trkpt lat="46.0679" lon="4.77115">
        <ele>172</ele>
        <time>2018-02-09T10:55:51Z</time>
      </trkpt>
      <trkpt lat="46.06786" lon="4.7712">
        <ele>172</ele>
        <time>2018-02-09T10:55:52Z</time>
      </trkpt>
      <trkpt lat="46.0678" lon="4.77124">
        <ele>172</ele>
        <time>2018-02-09T10:55:53Z</time>
      </trkpt>
      <trkpt lat="46.06775" lon="4.77129">
        <ele>172</ele>
        <time>2018-02-09T10:55:54Z</time>
      </trkpt>
      <trkpt lat="46.06771" lon="4.77134">
        <ele>172</ele>
        <time>2018-02-09T10:55:55Z</time>
      </trkpt>
      <trkpt lat="46.06767" lon="4.77139">
        <ele>172</ele>
        <time>2018-02-09T10:55:56Z</time>
      </trkpt>
      <trkpt lat="46.06762" lon="4.77144">
        <ele>172</ele>
        <time>2018-02-09T10:55:57Z</time>
      </trkpt>
      <trkpt lat="46.06759" lon="4.77149">
        <ele>172</ele>
        <time>2018-02-09T10:55:58Z</time>
      </trkpt>
      <trkpt lat="46.06756" lon="4.77155">
        <ele>172</ele>
        <time>2018-02-09T10:55:59Z</time>
      </trkpt>
      <trkpt lat="46.06752" lon="4.77159">
        <ele>172</ele>
        <time>2018-02-09T10:56:00Z</time>
      </trkpt>
      <trkpt lat="46.06747" lon="4.77163">
        <ele>172</ele>
        <time>2018-02-09T10:56:01Z</time>
      </trkpt>
      <trkpt lat="46.06742" lon="4.77168">
        <ele>172</ele>
        <time>2018-02-09T10:56:02Z</time>
      </trkpt>
      <trkpt lat="46.06737" lon="4.77171">
        <ele>172</ele>
        <time>2018-02-09T10:56:03Z</time>
      </trkpt>
      <trkpt lat="46.06732" lon="4.77175">
        <ele>172</ele>
        <time>2018-02-09T10:56:04Z</time>
      </trkpt>
      <trkpt lat="46.06726" lon="4.77179">
        <ele>172</ele>
        <time>2018-02-09T10:56:05Z</time>
      </trkpt>
      <trkpt lat="46.06721" lon="4.77184">
        <ele>172</ele>
        <time>2018-02-09T10:56:06Z</time>
      </trkpt>
      <trkpt lat="46.06715" lon="4.77188">
        <ele>172</ele>
        <time>2018-02-09T10:56:07Z</time>
      </trkpt>
      <trkpt lat="46.0671" lon="4.77192">
        <ele>172</ele>
        <time>2018-02-09T10:56:08Z</time>
      </trkpt>
      <trkpt lat="46.06705" lon="4.77194">
        <ele>172</ele>
        <time>2018-02-09T10:56:09Z</time>
      </trkpt>
      <trkpt lat="46.067" lon="4.77195">
        <ele>172</ele>
        <time>2018-02-09T10:56:10Z</time>
      </trkpt>
      <trkpt lat="46.06695" lon="4.77195">
        <ele>172</ele>
        <time>2018-02-09T10:56:11Z</time>
      </trkpt>
      <trkpt lat="46.06686" lon="4.77196">
        <ele>172</ele>
        <time>2018-02-09T10:56:13Z</time>
      </trkpt>
      <trkpt lat="46.06683" lon="4.77197">
        <ele>172</ele>
        <time>2018-02-09T10:56:14Z</time>
      </trkpt>
      <trkpt lat="46.06676" lon="4.77201">
        <ele>172</ele>
        <time>2018-02-09T10:56:16Z</time>
      </trkpt>
      <trkpt lat="46.06674" lon="4.77205">
        <ele>172</ele>
        <time>2018-02-09T10:56:17Z</time>
      </trkpt>
      <trkpt lat="46.06673" lon="4.77216">
        <ele>172</ele>
        <time>2018-02-09T10:56:19Z</time>
      </trkpt>
      <trkpt lat="46.06674" lon="4.77222">
        <ele>172</ele>
        <time>2018-02-09T10:56:20Z</time>
      </trkpt>
      <trkpt lat="46.06676" lon="4.77229">
        <ele>172</ele>
        <time>2018-02-09T10:56:21Z</time>
      </trkpt>
      <trkpt lat="46.06676" lon="4.77235">
        <ele>172</ele>
        <time>2018-02-09T10:56:22Z</time>
      </trkpt>
      <trkpt lat="46.06676" lon="4.77242">
        <ele>173</ele>
        <time>2018-02-09T10:56:23Z</time>
      </trkpt>
      <trkpt lat="46.06674" lon="4.77248">
        <ele>173</ele>
        <time>2018-02-09T10:56:24Z</time>
      </trkpt>
      <trkpt lat="46.06671" lon="4.77259">
        <ele>173</ele>
        <time>2018-02-09T10:56:26Z</time>
      </trkpt>
      <trkpt lat="46.06668" lon="4.77265">
        <ele>173</ele>
        <time>2018-02-09T10:56:27Z</time>
      </trkpt>
      <trkpt lat="46.06666" lon="4.77269">
        <ele>173</ele>
        <time>2018-02-09T10:56:28Z</time>
      </trkpt>
      <trkpt lat="46.06664" lon="4.77277">
        <ele>174</ele>
        <time>2018-02-09T10:56:29Z</time>
      </trkpt>
      <trkpt lat="46.06662" lon="4.77284">
        <ele>174</ele>
        <time>2018-02-09T10:56:30Z</time>
      </trkpt>
      <trkpt lat="46.06659" lon="4.77289">
        <ele>174</ele>
        <time>2018-02-09T10:56:31Z</time>
      </trkpt>
      <trkpt lat="46.06654" lon="4.773">
        <ele>174</ele>
        <time>2018-02-09T10:56:33Z</time>
      </trkpt>
      <trkpt lat="46.06652" lon="4.77307">
        <ele>174</ele>
        <time>2018-02-09T10:56:34Z</time>
      </trkpt>
      <trkpt lat="46.0665" lon="4.77314">
        <ele>174</ele>
        <time>2018-02-09T10:56:35Z</time>
      </trkpt>
      <trkpt lat="46.06647" lon="4.77321">
        <ele>174</ele>
        <time>2018-02-09T10:56:36Z</time>
      </trkpt>
      <trkpt lat="46.06645" lon="4.77328">
        <ele>174</ele>
        <time>2018-02-09T10:56:37Z</time>
      </trkpt>
      <trkpt lat="46.06643" lon="4.77335">
        <ele>175</ele>
        <time>2018-02-09T10:56:38Z</time>
      </trkpt>
      <trkpt lat="46.0664" lon="4.77341">
        <ele>175</ele>
        <time>2018-02-09T10:56:39Z</time>
      </trkpt>
      <trkpt lat="46.06638" lon="4.77346">
        <ele>176</ele>
        <time>2018-02-09T10:56:40Z</time>
      </trkpt>
      <trkpt lat="46.06635" lon="4.77353">
        <ele>176</ele>
        <time>2018-02-09T10:56:41Z</time>
      </trkpt>
      <trkpt lat="46.06631" lon="4.77359">
        <ele>176</ele>
        <time>2018-02-09T10:56:42Z</time>
      </trkpt>
      <trkpt lat="46.06629" lon="4.77366">
        <ele>176</ele>
        <time>2018-02-09T10:56:43Z</time>
      </trkpt>
      <trkpt lat="46.06627" lon="4.77372">
        <ele>176</ele>
        <time>2018-02-09T10:56:44Z</time>
      </trkpt>
      <trkpt lat="46.06624" lon="4.77383">
        <ele>176</ele>
        <time>2018-02-09T10:56:46Z</time>
      </trkpt>
      <trkpt lat="46.06621" lon="4.77389">
        <ele>177</ele>
        <time>2018-02-09T10:56:47Z</time>
      </trkpt>
      <trkpt lat="46.06617" lon="4.77399">
        <ele>177</ele>
        <time>2018-02-09T10:56:49Z</time>
      </trkpt>
      <trkpt lat="46.06615" lon="4.77404">
        <ele>177</ele>
        <time>2018-02-09T10:56:50Z</time>
      </trkpt>
      <trkpt lat="46.06612" lon="4.7741">
        <ele>177</ele>
        <time>2018-02-09T10:56:51Z</time>
      </trkpt>
      <trkpt lat="46.06609" lon="4.77416">
        <ele>177</ele>
        <time>2018-02-09T10:56:52Z</time>
      </trkpt>
      <trkpt lat="46.06606" lon="4.77423">
        <ele>179</ele>
        <time>2018-02-09T10:56:53Z</time>
      </trkpt>
      <trkpt lat="46.06603" lon="4.77429">
        <ele>179</ele>
        <time>2018-02-09T10:56:54Z</time>
      </trkpt>
      <trkpt lat="46.066" lon="4.77434">
        <ele>179</ele>
        <time>2018-02-09T10:56:55Z</time>
      </trkpt>
      <trkpt lat="46.06599" lon="4.7744">
        <ele>179</ele>
        <time>2018-02-09T10:56:56Z</time>
      </trkpt>
      <trkpt lat="46.06597" lon="4.77446">
        <ele>180</ele>
        <time>2018-02-09T10:56:57Z</time>
      </trkpt>
      <trkpt lat="46.06597" lon="4.77454">
        <ele>180</ele>
        <time>2018-02-09T10:56:58Z</time>
      </trkpt>
      <trkpt lat="46.06596" lon="4.77462">
        <ele>180</ele>
        <time>2018-02-09T10:56:59Z</time>
      </trkpt>
      <trkpt lat="46.06596" lon="4.77469">
        <ele>181</ele>
        <time>2018-02-09T10:57:00Z</time>
      </trkpt>
      <trkpt lat="46.06602" lon="4.77479">
        <ele>181</ele>
        <time>2018-02-09T10:57:02Z</time>
      </trkpt>
      <trkpt lat="46.06604" lon="4.77484">
        <ele>181</ele>
        <time>2018-02-09T10:57:03Z</time>
      </trkpt>
      <trkpt lat="46.06608" lon="4.77494">
        <ele>181</ele>
        <time>2018-02-09T10:57:05Z</time>
      </trkpt>
      <trkpt lat="46.06611" lon="4.77498">
        <ele>181</ele>
        <time>2018-02-09T10:57:06Z</time>
      </trkpt>
      <trkpt lat="46.06614" lon="4.77503">
        <ele>183</ele>
        <time>2018-02-09T10:57:07Z</time>
      </trkpt>
      <trkpt lat="46.06617" lon="4.77509">
        <ele>183</ele>
        <time>2018-02-09T10:57:08Z</time>
      </trkpt>
      <trkpt lat="46.06621" lon="4.7752">
        <ele>183</ele>
        <time>2018-02-09T10:57:10Z</time>
      </trkpt>
      <trkpt lat="46.06622" lon="4.77526">
        <ele>183</ele>
        <time>2018-02-09T10:57:11Z</time>
      </trkpt>
      <trkpt lat="46.06625" lon="4.77535">
        <ele>183</ele>
        <time>2018-02-09T10:57:13Z</time>
      </trkpt>
      <trkpt lat="46.06626" lon="4.7754">
        <ele>183</ele>
        <time>2018-02-09T10:57:14Z</time>
      </trkpt>
      <trkpt lat="46.06628" lon="4.77549">
        <ele>183</ele>
        <time>2018-02-09T10:57:16Z</time>
      </trkpt>
      <trkpt lat="46.06629" lon="4.77553">
        <ele>183</ele>
        <time>2018-02-09T10:57:17Z</time>
      </trkpt>
      <trkpt lat="46.06631" lon="4.77561">
        <ele>183</ele>
        <time>2018-02-09T10:57:19Z</time>
      </trkpt>
      <trkpt lat="46.06632" lon="4.77566">
        <ele>183</ele>
        <time>2018-02-09T10:57:20Z</time>
      </trkpt>
      <trkpt lat="46.06633" lon="4.77575">
        <ele>183</ele>
        <time>2018-02-09T10:57:22Z</time>
      </trkpt>
      <trkpt lat="46.06633" lon="4.77579">
        <ele>183</ele>
        <time>2018-02-09T10:57:23Z</time>
      </trkpt>
      <trkpt lat="46.06632" lon="4.77592">
        <ele>185</ele>
        <time>2018-02-09T10:57:26Z</time>
      </trkpt>
      <trkpt lat="46.06632" lon="4.77595">
        <ele>185</ele>
        <time>2018-02-09T10:57:27Z</time>
      </trkpt>
      <trkpt lat="46.06631" lon="4.77608">
        <ele>185</ele>
        <time>2018-02-09T10:57:30Z</time>
      </trkpt>
      <trkpt lat="46.0663" lon="4.77613">
        <ele>185</ele>
        <time>2018-02-09T10:57:31Z</time>
      </trkpt>
      <trkpt lat="46.06628" lon="4.77625">
        <ele>185</ele>
        <time>2018-02-09T10:57:34Z</time>
      </trkpt>
      <trkpt lat="46.06627" lon="4.77628">
        <ele>185</ele>
        <time>2018-02-09T10:57:35Z</time>
      </trkpt>
      <trkpt lat="46.06624" lon="4.7764">
        <ele>185</ele>
        <time>2018-02-09T10:57:38Z</time>
      </trkpt>
      <trkpt lat="46.06623" lon="4.77644">
        <ele>185</ele>
        <time>2018-02-09T10:57:39Z</time>
      </trkpt>
      <trkpt lat="46.0662" lon="4.77652">
        <ele>185</ele>
        <time>2018-02-09T10:57:41Z</time>
      </trkpt>
      <trkpt lat="46.06618" lon="4.77656">
        <ele>185</ele>
        <time>2018-02-09T10:57:42Z</time>
      </trkpt>
      <trkpt lat="46.06613" lon="4.77666">
        <ele>185</ele>
        <time>2018-02-09T10:57:45Z</time>
      </trkpt>
      <trkpt lat="46.06611" lon="4.77669">
        <ele>187</ele>
        <time>2018-02-09T10:57:46Z</time>
      </trkpt>
      <trkpt lat="46.06605" lon="4.77675">
        <ele>187</ele>
        <time>2018-02-09T10:57:49Z</time>
      </trkpt>
      <trkpt lat="46.06603" lon="4.77677">
        <ele>187</ele>
        <time>2018-02-09T10:57:50Z</time>
      </trkpt>
      <trkpt lat="46.06597" lon="4.77681">
        <ele>187</ele>
        <time>2018-02-09T10:57:52Z</time>
      </trkpt>
      <trkpt lat="46.06594" lon="4.77683">
        <ele>187</ele>
        <time>2018-02-09T10:57:53Z</time>
      </trkpt>
      <trkpt lat="46.06587" lon="4.77688">
        <ele>187</ele>
        <time>2018-02-09T10:57:55Z</time>
      </trkpt>
      <trkpt lat="46.06584" lon="4.7769">
        <ele>187</ele>
        <time>2018-02-09T10:57:56Z</time>
      </trkpt>
      <trkpt lat="46.06578" lon="4.77693">
        <ele>188</ele>
        <time>2018-02-09T10:57:58Z</time>
      </trkpt>
      <trkpt lat="46.06575" lon="4.77694">
        <ele>188</ele>
        <time>2018-02-09T10:57:59Z</time>
      </trkpt>
      <trkpt lat="46.06568" lon="4.77698">
        <ele>188</ele>
        <time>2018-02-09T10:58:02Z</time>
      </trkpt>
      <trkpt lat="46.06565" lon="4.777">
        <ele>189</ele>
        <time>2018-02-09T10:58:03Z</time>
      </trkpt>
      <trkpt lat="46.0656" lon="4.77704">
        <ele>189</ele>
        <time>2018-02-09T10:58:05Z</time>
      </trkpt>
      <trkpt lat="46.06557" lon="4.77708">
        <ele>189</ele>
        <time>2018-02-09T10:58:06Z</time>
      </trkpt>
      <trkpt lat="46.06554" lon="4.77716">
        <ele>189</ele>
        <time>2018-02-09T10:58:08Z</time>
      </trkpt>
      <trkpt lat="46.06552" lon="4.77719">
        <ele>189</ele>
        <time>2018-02-09T10:58:09Z</time>
      </trkpt>
      <trkpt lat="46.06548" lon="4.77728">
        <ele>189</ele>
        <time>2018-02-09T10:58:11Z</time>
      </trkpt>
      <trkpt lat="46.06545" lon="4.77732">
        <ele>189</ele>
        <time>2018-02-09T10:58:12Z</time>
      </trkpt>
      <trkpt lat="46.06541" lon="4.7774">
        <ele>190</ele>
        <time>2018-02-09T10:58:14Z</time>
      </trkpt>
      <trkpt lat="46.0654" lon="4.77744">
        <ele>190</ele>
        <time>2018-02-09T10:58:15Z</time>
      </trkpt>
      <trkpt lat="46.06536" lon="4.77753">
        <ele>191</ele>
        <time>2018-02-09T10:58:17Z</time>
      </trkpt>
      <trkpt lat="46.06533" lon="4.77756">
        <ele>191</ele>
        <time>2018-02-09T10:58:18Z</time>
      </trkpt>
      <trkpt lat="46.06529" lon="4.77762">
        <ele>192</ele>
        <time>2018-02-09T10:58:20Z</time>
      </trkpt>
      <trkpt lat="46.06526" lon="4.77765">
        <ele>192</ele>
        <time>2018-02-09T10:58:21Z</time>
      </trkpt>
      <trkpt lat="46.06522" lon="4.77773">
        <ele>192</ele>
        <time>2018-02-09T10:58:23Z</time>
      </trkpt>
      <trkpt lat="46.0652" lon="4.77776">
        <ele>192</ele>
        <time>2018-02-09T10:58:24Z</time>
      </trkpt>
      <trkpt lat="46.06515" lon="4.77786">
        <ele>192</ele>
        <time>2018-02-09T10:58:27Z</time>
      </trkpt>
      <trkpt lat="46.06513" lon="4.77789">
        <ele>192</ele>
        <time>2018-02-09T10:58:28Z</time>
      </trkpt>
      <trkpt lat="46.0651" lon="4.77798">
        <ele>192</ele>
        <time>2018-02-09T10:58:30Z</time>
      </trkpt>
      <trkpt lat="46.06508" lon="4.77803">
        <ele>192</ele>
        <time>2018-02-09T10:58:31Z</time>
      </trkpt>
      <trkpt lat="46.06504" lon="4.77814">
        <ele>192</ele>
        <time>2018-02-09T10:58:34Z</time>
      </trkpt>
      <trkpt lat="46.06503" lon="4.77818">
        <ele>192</ele>
        <time>2018-02-09T10:58:35Z</time>
      </trkpt>
      <trkpt lat="46.06498" lon="4.77828">
        <ele>192</ele>
        <time>2018-02-09T10:58:38Z</time>
      </trkpt>
      <trkpt lat="46.06497" lon="4.77832">
        <ele>192</ele>
        <time>2018-02-09T10:58:39Z</time>
      </trkpt>
      <trkpt lat="46.06493" lon="4.7784">
        <ele>192</ele>
        <time>2018-02-09T10:58:41Z</time>
      </trkpt>
      <trkpt lat="46.06491" lon="4.77844">
        <ele>192</ele>
        <time>2018-02-09T10:58:42Z</time>
      </trkpt>
      <trkpt lat="46.06487" lon="4.77851">
        <ele>192</ele>
        <time>2018-02-09T10:58:44Z</time>
      </trkpt>
      <trkpt lat="46.06486" lon="4.77855">
        <ele>192</ele>
        <time>2018-02-09T10:58:45Z</time>
      </trkpt>
      <trkpt lat="46.06483" lon="4.77863">
        <ele>192</ele>
        <time>2018-02-09T10:58:47Z</time>
      </trkpt>
      <trkpt lat="46.06482" lon="4.77867">
        <ele>193</ele>
        <time>2018-02-09T10:58:48Z</time>
      </trkpt>
      <trkpt lat="46.06478" lon="4.77877">
        <ele>193</ele>
        <time>2018-02-09T10:58:51Z</time>
      </trkpt>
      <trkpt lat="46.06478" lon="4.77879">
        <ele>193</ele>
        <time>2018-02-09T10:58:52Z</time>
      </trkpt>
      <trkpt lat="46.06473" lon="4.77888">
        <ele>193</ele>
        <time>2018-02-09T10:58:54Z</time>
      </trkpt>
      <trkpt lat="46.06472" lon="4.77892">
        <ele>193</ele>
        <time>2018-02-09T10:58:55Z</time>
      </trkpt>
      <trkpt lat="46.06469" lon="4.77901">
        <ele>193</ele>
        <time>2018-02-09T10:58:57Z</time>
      </trkpt>
      <trkpt lat="46.06467" lon="4.77906">
        <ele>193</ele>
        <time>2018-02-09T10:58:58Z</time>
      </trkpt>
      <trkpt lat="46.06464" lon="4.77916">
        <ele>193</ele>
        <time>2018-02-09T10:59:00Z</time>
      </trkpt>
      <trkpt lat="46.06463" lon="4.77921">
        <ele>194</ele>
        <time>2018-02-09T10:59:01Z</time>
      </trkpt>
      <trkpt lat="46.0646" lon="4.77931">
        <ele>195</ele>
        <time>2018-02-09T10:59:03Z</time>
      </trkpt>
      <trkpt lat="46.06457" lon="4.77938">
        <ele>195</ele>
        <time>2018-02-09T10:59:04Z</time>
      </trkpt>
      <trkpt lat="46.06454" lon="4.77948">
        <ele>195</ele>
        <time>2018-02-09T10:59:06Z</time>
      </trkpt>
      <trkpt lat="46.06453" lon="4.77953">
        <ele>195</ele>
        <time>2018-02-09T10:59:07Z</time>
      </trkpt>
      <trkpt lat="46.06451" lon="4.77963">
        <ele>195</ele>
        <time>2018-02-09T10:59:09Z</time>
      </trkpt>
      <trkpt lat="46.0645" lon="4.77968">
        <ele>195</ele>
        <time>2018-02-09T10:59:10Z</time>
      </trkpt>
      <trkpt lat="46.06449" lon="4.77976">
        <ele>195</ele>
        <time>2018-02-09T10:59:12Z</time>
      </trkpt>
      <trkpt lat="46.06448" lon="4.77981">
        <ele>195</ele>
        <time>2018-02-09T10:59:13Z</time>
      </trkpt>
      <trkpt lat="46.06445" lon="4.77992">
        <ele>195</ele>
        <time>2018-02-09T10:59:16Z</time>
      </trkpt>
      <trkpt lat="46.06444" lon="4.77997">
        <ele>195</ele>
        <time>2018-02-09T10:59:17Z</time>
      </trkpt>
      <trkpt lat="46.06442" lon="4.78004">
        <ele>197</ele>
        <time>2018-02-09T10:59:19Z</time>
      </trkpt>
      <trkpt lat="46.0644" lon="4.78008">
        <ele>197</ele>
        <time>2018-02-09T10:59:20Z</time>
      </trkpt>
      <trkpt lat="46.06437" lon="4.78016">
        <ele>197</ele>
        <time>2018-02-09T10:59:22Z</time>
      </trkpt>
      <trkpt lat="46.06435" lon="4.7802">
        <ele>197</ele>
        <time>2018-02-09T10:59:23Z</time>
      </trkpt>
      <trkpt lat="46.06429" lon="4.78029">
        <ele>198</ele>
        <time>2018-02-09T10:59:26Z</time>
      </trkpt>
      <trkpt lat="46.06427" lon="4.78032">
        <ele>198</ele>
        <time>2018-02-09T10:59:27Z</time>
      </trkpt>
      <trkpt lat="46.06422" lon="4.78037">
        <ele>198</ele>
        <time>2018-02-09T10:59:29Z</time>
      </trkpt>
      <trkpt lat="46.0642" lon="4.78041">
        <ele>198</ele>
        <time>2018-02-09T10:59:30Z</time>
      </trkpt>
      <trkpt lat="46.06415" lon="4.7805">
        <ele>197</ele>
        <time>2018-02-09T10:59:32Z</time>
      </trkpt>
      <trkpt lat="46.06412" lon="4.78053">
        <ele>198</ele>
        <time>2018-02-09T10:59:33Z</time>
      </trkpt>
      <trkpt lat="46.06406" lon="4.78058">
        <ele>198</ele>
        <time>2018-02-09T10:59:35Z</time>
      </trkpt>
      <trkpt lat="46.06404" lon="4.78063">
        <ele>198</ele>
        <time>2018-02-09T10:59:36Z</time>
      </trkpt>
      <trkpt lat="46.064" lon="4.78072">
        <ele>198</ele>
        <time>2018-02-09T10:59:38Z</time>
      </trkpt>
      <trkpt lat="46.06399" lon="4.78076">
        <ele>198</ele>
        <time>2018-02-09T10:59:39Z</time>
      </trkpt>
      <trkpt lat="46.06395" lon="4.78086">
        <ele>200</ele>
        <time>2018-02-09T10:59:41Z</time>
      </trkpt>
      <trkpt lat="46.06394" lon="4.78091">
        <ele>200</ele>
        <time>2018-02-09T10:59:42Z</time>
      </trkpt>
      <trkpt lat="46.06391" lon="4.78101">
        <ele>200</ele>
        <time>2018-02-09T10:59:44Z</time>
      </trkpt>
      <trkpt lat="46.0639" lon="4.78106">
        <ele>200</ele>
        <time>2018-02-09T10:59:45Z</time>
      </trkpt>
      <trkpt lat="46.06387" lon="4.78117">
        <ele>200</ele>
        <time>2018-02-09T10:59:47Z</time>
      </trkpt>
      <trkpt lat="46.06387" lon="4.78122">
        <ele>200</ele>
        <time>2018-02-09T10:59:48Z</time>
      </trkpt>
      <trkpt lat="46.06386" lon="4.78134">
        <ele>201</ele>
        <time>2018-02-09T10:59:50Z</time>
      </trkpt>
      <trkpt lat="46.06386" lon="4.7814">
        <ele>201</ele>
        <time>2018-02-09T10:59:51Z</time>
      </trkpt>
      <trkpt lat="46.06386" lon="4.78152">
        <ele>201</ele>
        <time>2018-02-09T10:59:53Z</time>
      </trkpt>
      <trkpt lat="46.06386" lon="4.78157">
        <ele>201</ele>
        <time>2018-02-09T10:59:54Z</time>
      </trkpt>
      <trkpt lat="46.06386" lon="4.78168">
        <ele>204</ele>
        <time>2018-02-09T10:59:56Z</time>
      </trkpt>
      <trkpt lat="46.06386" lon="4.78172">
        <ele>204</ele>
        <time>2018-02-09T10:59:57Z</time>
      </trkpt>
      <trkpt lat="46.06386" lon="4.78182">
        <ele>204</ele>
        <time>2018-02-09T10:59:59Z</time>
      </trkpt>
      <trkpt lat="46.06384" lon="4.78196">
        <ele>204</ele>
        <time>2018-02-09T11:00:02Z</time>
      </trkpt>
      <trkpt lat="46.06379" lon="4.78204">
        <ele>204</ele>
        <time>2018-02-09T11:00:04Z</time>
      </trkpt>
      <trkpt lat="46.06376" lon="4.78207">
        <ele>204</ele>
        <time>2018-02-09T11:00:05Z</time>
      </trkpt>
      <trkpt lat="46.06369" lon="4.78212">
        <ele>204</ele>
        <time>2018-02-09T11:00:07Z</time>
      </trkpt>
      <trkpt lat="46.06365" lon="4.78215">
        <ele>204</ele>
        <time>2018-02-09T11:00:08Z</time>
      </trkpt>
      <trkpt lat="46.0636" lon="4.78222">
        <ele>205</ele>
        <time>2018-02-09T11:00:10Z</time>
      </trkpt>
      <trkpt lat="46.06358" lon="4.78226">
        <ele>205</ele>
        <time>2018-02-09T11:00:11Z</time>
      </trkpt>
      <trkpt lat="46.06354" lon="4.78233">
        <ele>205</ele>
        <time>2018-02-09T11:00:13Z</time>
      </trkpt>
      <trkpt lat="46.06352" lon="4.78237">
        <ele>205</ele>
        <time>2018-02-09T11:00:14Z</time>
      </trkpt>
      <trkpt lat="46.06349" lon="4.78244">
        <ele>205</ele>
        <time>2018-02-09T11:00:16Z</time>
      </trkpt>
      <trkpt lat="46.06347" lon="4.78248">
        <ele>205</ele>
        <time>2018-02-09T11:00:17Z</time>
      </trkpt>
      <trkpt lat="46.06344" lon="4.78256">
        <ele>206</ele>
        <time>2018-02-09T11:00:19Z</time>
      </trkpt>
      <trkpt lat="46.06343" lon="4.7826">
        <ele>206</ele>
        <time>2018-02-09T11:00:20Z</time>
      </trkpt>
      <trkpt lat="46.0634" lon="4.78272">
        <ele>207</ele>
        <time>2018-02-09T11:00:27Z</time>
      </trkpt>
      <trkpt lat="46.0634" lon="4.78272">
        <ele>207</ele>
        <time>2018-02-09T11:00:28Z</time>
      </trkpt>
      <trkpt lat="46.06341" lon="4.78262">
        <ele>206</ele>
        <time>2018-02-09T11:00:36Z</time>
      </trkpt>
      <trkpt lat="46.06343" lon="4.78259">
        <ele>206</ele>
        <time>2018-02-09T11:00:37Z</time>
      </trkpt>
      <trkpt lat="46.06343" lon="4.7825">
        <ele>205</ele>
        <time>2018-02-09T11:00:38Z</time>
      </trkpt>
      <trkpt lat="46.06341" lon="4.78242">
        <ele>205</ele>
        <time>2018-02-09T11:00:39Z</time>
      </trkpt>
      <trkpt lat="46.06338" lon="4.7824">
        <ele>205</ele>
        <time>2018-02-09T11:00:40Z</time>
      </trkpt>
      <trkpt lat="46.06333" lon="4.78235">
        <ele>206</ele>
        <time>2018-02-09T11:00:41Z</time>
      </trkpt>
      <trkpt lat="46.06325" lon="4.78233">
        <ele>206</ele>
        <time>2018-02-09T11:00:42Z</time>
      </trkpt>
      <trkpt lat="46.06322" lon="4.7823">
        <ele>205</ele>
        <time>2018-02-09T11:00:43Z</time>
      </trkpt>
      <trkpt lat="46.06315" lon="4.78227">
        <ele>205</ele>
        <time>2018-02-09T11:00:44Z</time>
      </trkpt>
      <trkpt lat="46.06309" lon="4.78224">
        <ele>205</ele>
        <time>2018-02-09T11:00:45Z</time>
      </trkpt>
      <trkpt lat="46.06301" lon="4.78218">
        <ele>205</ele>
        <time>2018-02-09T11:00:47Z</time>
      </trkpt>
      <trkpt lat="46.06297" lon="4.78215">
        <ele>205</ele>
        <time>2018-02-09T11:00:48Z</time>
      </trkpt>
      <trkpt lat="46.06288" lon="4.78212">
        <ele>205</ele>
        <time>2018-02-09T11:00:50Z</time>
      </trkpt>
      <trkpt lat="46.06283" lon="4.78209">
        <ele>205</ele>
        <time>2018-02-09T11:00:51Z</time>
      </trkpt>
      <trkpt lat="46.06276" lon="4.78205">
        <ele>205</ele>
        <time>2018-02-09T11:00:53Z</time>
      </trkpt>
      <trkpt lat="46.06272" lon="4.78203">
        <ele>205</ele>
        <time>2018-02-09T11:00:54Z</time>
      </trkpt>
      <trkpt lat="46.06267" lon="4.78201">
        <ele>205</ele>
        <time>2018-02-09T11:00:56Z</time>
      </trkpt>
      <trkpt lat="46.06262" lon="4.78198">
        <ele>205</ele>
        <time>2018-02-09T11:00:57Z</time>
      </trkpt>
      <trkpt lat="46.06259" lon="4.78195">
        <ele>205</ele>
        <time>2018-02-09T11:00:58Z</time>
      </trkpt>
      <trkpt lat="46.06251" lon="4.78194">
        <ele>205</ele>
        <time>2018-02-09T11:00:59Z</time>
      </trkpt>
      <trkpt lat="46.06247" lon="4.78191">
        <ele>206</ele>
        <time>2018-02-09T11:01:00Z</time>
      </trkpt>
      <trkpt lat="46.06243" lon="4.78187">
        <ele>206</ele>
        <time>2018-02-09T11:01:01Z</time>
      </trkpt>
      <trkpt lat="46.0624" lon="4.78184">
        <ele>206</ele>
        <time>2018-02-09T11:01:02Z</time>
      </trkpt>
      <trkpt lat="46.06234" lon="4.78182">
        <ele>206</ele>
        <time>2018-02-09T11:01:03Z</time>
      </trkpt>
      <trkpt lat="46.06229" lon="4.78178">
        <ele>206</ele>
        <time>2018-02-09T11:01:04Z</time>
      </trkpt>
      <trkpt lat="46.06225" lon="4.78174">
        <ele>206</ele>
        <time>2018-02-09T11:01:05Z</time>
      </trkpt>
      <trkpt lat="46.06217" lon="4.78168">
        <ele>206</ele>
        <time>2018-02-09T11:01:07Z</time>
      </trkpt>
      <trkpt lat="46.06213" lon="4.78166">
        <ele>205</ele>
        <time>2018-02-09T11:01:08Z</time>
      </trkpt>
      <trkpt lat="46.06205" lon="4.78161">
        <ele>205</ele>
        <time>2018-02-09T11:01:10Z</time>
      </trkpt>
      <trkpt lat="46.06203" lon="4.78157">
        <ele>205</ele>
        <time>2018-02-09T11:01:11Z</time>
      </trkpt>
      <trkpt lat="46.06195" lon="4.78154">
        <ele>205</ele>
        <time>2018-02-09T11:01:13Z</time>
      </trkpt>
      <trkpt lat="46.06193" lon="4.78151">
        <ele>206</ele>
        <time>2018-02-09T11:01:14Z</time>
      </trkpt>
      <trkpt lat="46.06186" lon="4.78149">
        <ele>206</ele>
        <time>2018-02-09T11:01:16Z</time>
      </trkpt>
      <trkpt lat="46.06182" lon="4.78147">
        <ele>206</ele>
        <time>2018-02-09T11:01:17Z</time>
      </trkpt>
      <trkpt lat="46.06176" lon="4.78144">
        <ele>206</ele>
        <time>2018-02-09T11:01:19Z</time>
      </trkpt>
      <trkpt lat="46.06173" lon="4.78142">
        <ele>206</ele>
        <time>2018-02-09T11:01:20Z</time>
      </trkpt>
      <trkpt lat="46.06166" lon="4.78135">
        <ele>208</ele>
        <time>2018-02-09T11:01:22Z</time>
      </trkpt>
      <trkpt lat="46.06163" lon="4.78132">
        <ele>208</ele>
        <time>2018-02-09T11:01:23Z</time>
      </trkpt>
      <trkpt lat="46.06156" lon="4.78126">
        <ele>208</ele>
        <time>2018-02-09T11:01:25Z</time>
      </trkpt>
      <trkpt lat="46.06154" lon="4.78123">
        <ele>208</ele>
        <time>2018-02-09T11:01:26Z</time>
      </trkpt>
      <trkpt lat="46.06148" lon="4.78117">
        <ele>208</ele>
        <time>2018-02-09T11:01:28Z</time>
      </trkpt>
      <trkpt lat="46.06145" lon="4.78115">
        <ele>208</ele>
        <time>2018-02-09T11:01:29Z</time>
      </trkpt>
      <trkpt lat="46.06139" lon="4.7811">
        <ele>208</ele>
        <time>2018-02-09T11:01:31Z</time>
      </trkpt>
      <trkpt lat="46.06134" lon="4.78103">
        <ele>209</ele>
        <time>2018-02-09T11:01:32Z</time>
      </trkpt>
      <trkpt lat="46.06131" lon="4.78093">
        <ele>209</ele>
        <time>2018-02-09T11:01:35Z</time>
      </trkpt>
      <trkpt lat="46.0613" lon="4.7809">
        <ele>209</ele>
        <time>2018-02-09T11:01:36Z</time>
      </trkpt>
      <trkpt lat="46.06128" lon="4.78083">
        <ele>209</ele>
        <time>2018-02-09T11:01:38Z</time>
      </trkpt>
      <trkpt lat="46.06124" lon="4.78079">
        <ele>209</ele>
        <time>2018-02-09T11:01:39Z</time>
      </trkpt>
      <trkpt lat="46.06119" lon="4.78076">
        <ele>210</ele>
        <time>2018-02-09T11:01:40Z</time>
      </trkpt>
      <trkpt lat="46.06115" lon="4.78073">
        <ele>210</ele>
        <time>2018-02-09T11:01:41Z</time>
      </trkpt>
      <trkpt lat="46.06112" lon="4.78064">
        <ele>210</ele>
        <time>2018-02-09T11:01:43Z</time>
      </trkpt>
      <trkpt lat="46.06108" lon="4.7806">
        <ele>210</ele>
        <time>2018-02-09T11:01:44Z</time>
      </trkpt>
      <trkpt lat="46.06102" lon="4.78057">
        <ele>210</ele>
        <time>2018-02-09T11:01:45Z</time>
      </trkpt>
      <trkpt lat="46.06099" lon="4.78054">
        <ele>210</ele>
        <time>2018-02-09T11:01:46Z</time>
      </trkpt>
      <trkpt lat="46.06093" lon="4.7805">
        <ele>210</ele>
        <time>2018-02-09T11:01:47Z</time>
      </trkpt>
      <trkpt lat="46.06087" lon="4.78047">
        <ele>210</ele>
        <time>2018-02-09T11:01:48Z</time>
      </trkpt>
      <trkpt lat="46.06083" lon="4.78044">
        <ele>211</ele>
        <time>2018-02-09T11:01:49Z</time>
      </trkpt>
      <trkpt lat="46.06077" lon="4.78042">
        <ele>211</ele>
        <time>2018-02-09T11:01:50Z</time>
      </trkpt>
      <trkpt lat="46.06072" lon="4.7804">
        <ele>211</ele>
        <time>2018-02-09T11:01:51Z</time>
      </trkpt>
      <trkpt lat="46.06067" lon="4.78036">
        <ele>211</ele>
        <time>2018-02-09T11:01:52Z</time>
      </trkpt>
      <trkpt lat="46.06063" lon="4.78032">
        <ele>211</ele>
        <time>2018-02-09T11:01:53Z</time>
      </trkpt>
      <trkpt lat="46.06059" lon="4.78027">
        <ele>211</ele>
        <time>2018-02-09T11:01:54Z</time>
      </trkpt>
      <trkpt lat="46.06055" lon="4.78023">
        <ele>211</ele>
        <time>2018-02-09T11:01:55Z</time>
      </trkpt>
      <trkpt lat="46.0605" lon="4.78019">
        <ele>211</ele>
        <time>2018-02-09T11:01:56Z</time>
      </trkpt>
      <trkpt lat="46.06046" lon="4.78014">
        <ele>211</ele>
        <time>2018-02-09T11:01:57Z</time>
      </trkpt>
      <trkpt lat="46.06042" lon="4.78009">
        <ele>211</ele>
        <time>2018-02-09T11:01:58Z</time>
      </trkpt>
      <trkpt lat="46.06038" lon="4.78004">
        <ele>211</ele>
        <time>2018-02-09T11:01:59Z</time>
      </trkpt>
      <trkpt lat="46.06035" lon="4.77999">
        <ele>211</ele>
        <time>2018-02-09T11:02:00Z</time>
      </trkpt>
      <trkpt lat="46.06029" lon="4.77991">
        <ele>211</ele>
        <time>2018-02-09T11:02:02Z</time>
      </trkpt>
      <trkpt lat="46.06025" lon="4.77986">
        <ele>211</ele>
        <time>2018-02-09T11:02:03Z</time>
      </trkpt>
      <trkpt lat="46.06019" lon="4.77978">
        <ele>211</ele>
        <time>2018-02-09T11:02:05Z</time>
      </trkpt>
      <trkpt lat="46.06016" lon="4.77973">
        <ele>211</ele>
        <time>2018-02-09T11:02:06Z</time>
      </trkpt>
      <trkpt lat="46.06009" lon="4.77967">
        <ele>211</ele>
        <time>2018-02-09T11:02:08Z</time>
      </trkpt>
      <trkpt lat="46.06005" lon="4.77964">
        <ele>211</ele>
        <time>2018-02-09T11:02:09Z</time>
      </trkpt>
      <trkpt lat="46.05998" lon="4.77956">
        <ele>212</ele>
        <time>2018-02-09T11:02:11Z</time>
      </trkpt>
      <trkpt lat="46.05995" lon="4.77952">
        <ele>212</ele>
        <time>2018-02-09T11:02:12Z</time>
      </trkpt>
      <trkpt lat="46.05992" lon="4.77946">
        <ele>212</ele>
        <time>2018-02-09T11:02:13Z</time>
      </trkpt>
      <trkpt lat="46.0599" lon="4.7794">
        <ele>212</ele>
        <time>2018-02-09T11:02:14Z</time>
      </trkpt>
      <trkpt lat="46.05988" lon="4.77934">
        <ele>212</ele>
        <time>2018-02-09T11:02:15Z</time>
      </trkpt>
      <trkpt lat="46.05986" lon="4.77928">
        <ele>212</ele>
        <time>2018-02-09T11:02:16Z</time>
      </trkpt>
      <trkpt lat="46.05982" lon="4.77918">
        <ele>212</ele>
        <time>2018-02-09T11:02:18Z</time>
      </trkpt>
      <trkpt lat="46.05979" lon="4.77912">
        <ele>211</ele>
        <time>2018-02-09T11:02:19Z</time>
      </trkpt>
      <trkpt lat="46.05975" lon="4.77901">
        <ele>211</ele>
        <time>2018-02-09T11:02:21Z</time>
      </trkpt>
      <trkpt lat="46.05972" lon="4.77897">
        <ele>211</ele>
        <time>2018-02-09T11:02:22Z</time>
      </trkpt>
      <trkpt lat="46.05968" lon="4.77892">
        <ele>211</ele>
        <time>2018-02-09T11:02:23Z</time>
      </trkpt>
      <trkpt lat="46.05964" lon="4.77888">
        <ele>211</ele>
        <time>2018-02-09T11:02:24Z</time>
      </trkpt>
      <trkpt lat="46.05958" lon="4.77879">
        <ele>211</ele>
        <time>2018-02-09T11:02:26Z</time>
      </trkpt>
      <trkpt lat="46.05957" lon="4.77874">
        <ele>211</ele>
        <time>2018-02-09T11:02:27Z</time>
      </trkpt>
      <trkpt lat="46.05951" lon="4.77864">
        <ele>211</ele>
        <time>2018-02-09T11:02:29Z</time>
      </trkpt>
      <trkpt lat="46.05949" lon="4.77859">
        <ele>211</ele>
        <time>2018-02-09T11:02:30Z</time>
      </trkpt>
      <trkpt lat="46.05945" lon="4.77853">
        <ele>211</ele>
        <time>2018-02-09T11:02:31Z</time>
      </trkpt>
      <trkpt lat="46.05944" lon="4.77847">
        <ele>211</ele>
        <time>2018-02-09T11:02:32Z</time>
      </trkpt>
      <trkpt lat="46.0594" lon="4.77842">
        <ele>211</ele>
        <time>2018-02-09T11:02:33Z</time>
      </trkpt>
      <trkpt lat="46.05936" lon="4.77837">
        <ele>211</ele>
        <time>2018-02-09T11:02:34Z</time>
      </trkpt>
      <trkpt lat="46.05929" lon="4.7783">
        <ele>210</ele>
        <time>2018-02-09T11:02:36Z</time>
      </trkpt>
      <trkpt lat="46.05925" lon="4.77824">
        <ele>210</ele>
        <time>2018-02-09T11:02:37Z</time>
      </trkpt>
      <trkpt lat="46.05921" lon="4.7782">
        <ele>210</ele>
        <time>2018-02-09T11:02:38Z</time>
      </trkpt>
      <trkpt lat="46.05918" lon="4.77813">
        <ele>210</ele>
        <time>2018-02-09T11:02:39Z</time>
      </trkpt>
      <trkpt lat="46.05912" lon="4.77803">
        <ele>210</ele>
        <time>2018-02-09T11:02:41Z</time>
      </trkpt>
      <trkpt lat="46.0591" lon="4.77798">
        <ele>210</ele>
        <time>2018-02-09T11:02:42Z</time>
      </trkpt>
      <trkpt lat="46.05907" lon="4.77791">
        <ele>210</ele>
        <time>2018-02-09T11:02:43Z</time>
      </trkpt>
      <trkpt lat="46.05904" lon="4.77786">
        <ele>210</ele>
        <time>2018-02-09T11:02:44Z</time>
      </trkpt>
      <trkpt lat="46.05901" lon="4.77783">
        <ele>210</ele>
        <time>2018-02-09T11:02:45Z</time>
      </trkpt>
      <trkpt lat="46.05897" lon="4.77774">
        <ele>210</ele>
        <time>2018-02-09T11:02:46Z</time>
      </trkpt>
      <trkpt lat="46.05895" lon="4.77766">
        <ele>210</ele>
        <time>2018-02-09T11:02:47Z</time>
      </trkpt>
      <trkpt lat="46.05893" lon="4.77759">
        <ele>209</ele>
        <time>2018-02-09T11:02:48Z</time>
      </trkpt>
      <trkpt lat="46.05892" lon="4.77752">
        <ele>209</ele>
        <time>2018-02-09T11:02:49Z</time>
      </trkpt>
      <trkpt lat="46.0589" lon="4.77743">
        <ele>209</ele>
        <time>2018-02-09T11:02:50Z</time>
      </trkpt>
      <trkpt lat="46.05889" lon="4.77735">
        <ele>209</ele>
        <time>2018-02-09T11:02:51Z</time>
      </trkpt>
      <trkpt lat="46.05889" lon="4.77726">
        <ele>209</ele>
        <time>2018-02-09T11:02:52Z</time>
      </trkpt>
      <trkpt lat="46.05888" lon="4.77718">
        <ele>209</ele>
        <time>2018-02-09T11:02:53Z</time>
      </trkpt>
      <trkpt lat="46.05886" lon="4.77709">
        <ele>208</ele>
        <time>2018-02-09T11:02:54Z</time>
      </trkpt>
      <trkpt lat="46.05885" lon="4.77699">
        <ele>208</ele>
        <time>2018-02-09T11:02:55Z</time>
      </trkpt>
      <trkpt lat="46.05883" lon="4.7769">
        <ele>208</ele>
        <time>2018-02-09T11:02:56Z</time>
      </trkpt>
      <trkpt lat="46.05881" lon="4.77682">
        <ele>208</ele>
        <time>2018-02-09T11:02:57Z</time>
      </trkpt>
      <trkpt lat="46.05878" lon="4.77675">
        <ele>208</ele>
        <time>2018-02-09T11:02:58Z</time>
      </trkpt>
      <trkpt lat="46.05875" lon="4.77665">
        <ele>208</ele>
        <time>2018-02-09T11:02:59Z</time>
      </trkpt>
      <trkpt lat="46.05871" lon="4.77659">
        <ele>208</ele>
        <time>2018-02-09T11:03:00Z</time>
      </trkpt>
      <trkpt lat="46.05867" lon="4.77652">
        <ele>208</ele>
        <time>2018-02-09T11:03:01Z</time>
      </trkpt>
      <trkpt lat="46.05863" lon="4.77648">
        <ele>208</ele>
        <time>2018-02-09T11:03:02Z</time>
      </trkpt>
      <trkpt lat="46.05858" lon="4.77644">
        <ele>208</ele>
        <time>2018-02-09T11:03:03Z</time>
      </trkpt>
      <trkpt lat="46.05854" lon="4.7764">
        <ele>208</ele>
        <time>2018-02-09T11:03:04Z</time>
      </trkpt>
      <trkpt lat="46.0585" lon="4.77635">
        <ele>208</ele>
        <time>2018-02-09T11:03:05Z</time>
      </trkpt>
      <trkpt lat="46.05846" lon="4.77631">
        <ele>208</ele>
        <time>2018-02-09T11:03:06Z</time>
      </trkpt>
      <trkpt lat="46.05842" lon="4.77627">
        <ele>208</ele>
        <time>2018-02-09T11:03:07Z</time>
      </trkpt>
      <trkpt lat="46.05838" lon="4.77622">
        <ele>208</ele>
        <time>2018-02-09T11:03:08Z</time>
      </trkpt>
      <trkpt lat="46.05833" lon="4.77618">
        <ele>209</ele>
        <time>2018-02-09T11:03:09Z</time>
      </trkpt>
      <trkpt lat="46.05829" lon="4.77613">
        <ele>209</ele>
        <time>2018-02-09T11:03:10Z</time>
      </trkpt>
      <trkpt lat="46.05825" lon="4.77609">
        <ele>209</ele>
        <time>2018-02-09T11:03:11Z</time>
      </trkpt>
      <trkpt lat="46.05821" lon="4.77605">
        <ele>208</ele>
        <time>2018-02-09T11:03:12Z</time>
      </trkpt>
      <trkpt lat="46.05816" lon="4.776">
        <ele>208</ele>
        <time>2018-02-09T11:03:13Z</time>
      </trkpt>
      <trkpt lat="46.05812" lon="4.77597">
        <ele>209</ele>
        <time>2018-02-09T11:03:14Z</time>
      </trkpt>
      <trkpt lat="46.05808" lon="4.77592">
        <ele>209</ele>
        <time>2018-02-09T11:03:15Z</time>
      </trkpt>
      <trkpt lat="46.05805" lon="4.77588">
        <ele>209</ele>
        <time>2018-02-09T11:03:16Z</time>
      </trkpt>
      <trkpt lat="46.05801" lon="4.77582">
        <ele>208</ele>
        <time>2018-02-09T11:03:17Z</time>
      </trkpt>
      <trkpt lat="46.05797" lon="4.77578">
        <ele>208</ele>
        <time>2018-02-09T11:03:18Z</time>
      </trkpt>
      <trkpt lat="46.05793" lon="4.77574">
        <ele>208</ele>
        <time>2018-02-09T11:03:19Z</time>
      </trkpt>
      <trkpt lat="46.05791" lon="4.77569">
        <ele>208</ele>
        <time>2018-02-09T11:03:20Z</time>
      </trkpt>
      <trkpt lat="46.05787" lon="4.77564">
        <ele>208</ele>
        <time>2018-02-09T11:03:21Z</time>
      </trkpt>
      <trkpt lat="46.05783" lon="4.77561">
        <ele>208</ele>
        <time>2018-02-09T11:03:22Z</time>
      </trkpt>
      <trkpt lat="46.0578" lon="4.77556">
        <ele>208</ele>
        <time>2018-02-09T11:03:23Z</time>
      </trkpt>
      <trkpt lat="46.05776" lon="4.77549">
        <ele>208</ele>
        <time>2018-02-09T11:03:24Z</time>
      </trkpt>
      <trkpt lat="46.05771" lon="4.77539">
        <ele>208</ele>
        <time>2018-02-09T11:03:26Z</time>
      </trkpt>
      <trkpt lat="46.05767" lon="4.77533">
        <ele>208</ele>
        <time>2018-02-09T11:03:27Z</time>
      </trkpt>
      <trkpt lat="46.05765" lon="4.77527">
        <ele>208</ele>
        <time>2018-02-09T11:03:28Z</time>
      </trkpt>
      <trkpt lat="46.05762" lon="4.77522">
        <ele>208</ele>
        <time>2018-02-09T11:03:29Z</time>
      </trkpt>
      <trkpt lat="46.05758" lon="4.77517">
        <ele>208</ele>
        <time>2018-02-09T11:03:30Z</time>
      </trkpt>
      <trkpt lat="46.05754" lon="4.77511">
        <ele>208</ele>
        <time>2018-02-09T11:03:31Z</time>
      </trkpt>
      <trkpt lat="46.05751" lon="4.77505">
        <ele>208</ele>
        <time>2018-02-09T11:03:32Z</time>
      </trkpt>
      <trkpt lat="46.05747" lon="4.77498">
        <ele>208</ele>
        <time>2018-02-09T11:03:33Z</time>
      </trkpt>
      <trkpt lat="46.05743" lon="4.77492">
        <ele>208</ele>
        <time>2018-02-09T11:03:34Z</time>
      </trkpt>
      <trkpt lat="46.05739" lon="4.77486">
        <ele>207</ele>
        <time>2018-02-09T11:03:35Z</time>
      </trkpt>
      <trkpt lat="46.05735" lon="4.7748">
        <ele>207</ele>
        <time>2018-02-09T11:03:36Z</time>
      </trkpt>
      <trkpt lat="46.05731" lon="4.77476">
        <ele>207</ele>
        <time>2018-02-09T11:03:37Z</time>
      </trkpt>
      <trkpt lat="46.05726" lon="4.77471">
        <ele>207</ele>
        <time>2018-02-09T11:03:38Z</time>
      </trkpt>
      <trkpt lat="46.05722" lon="4.77466">
        <ele>207</ele>
        <time>2018-02-09T11:03:39Z</time>
      </trkpt>
      <trkpt lat="46.05718" lon="4.77462">
        <ele>207</ele>
        <time>2018-02-09T11:03:40Z</time>
      </trkpt>
      <trkpt lat="46.05714" lon="4.77457">
        <ele>207</ele>
        <time>2018-02-09T11:03:41Z</time>
      </trkpt>
      <trkpt lat="46.05709" lon="4.77453">
        <ele>207</ele>
        <time>2018-02-09T11:03:42Z</time>
      </trkpt>
      <trkpt lat="46.05704" lon="4.77449">
        <ele>207</ele>
        <time>2018-02-09T11:03:43Z</time>
      </trkpt>
      <trkpt lat="46.05699" lon="4.77446">
        <ele>207</ele>
        <time>2018-02-09T11:03:44Z</time>
      </trkpt>
      <trkpt lat="46.05694" lon="4.77443">
        <ele>206</ele>
        <time>2018-02-09T11:03:45Z</time>
      </trkpt>
      <trkpt lat="46.0569" lon="4.7744">
        <ele>206</ele>
        <time>2018-02-09T11:03:46Z</time>
      </trkpt>
      <trkpt lat="46.05686" lon="4.77437">
        <ele>206</ele>
        <time>2018-02-09T11:03:47Z</time>
      </trkpt>
      <trkpt lat="46.05682" lon="4.77434">
        <ele>206</ele>
        <time>2018-02-09T11:03:48Z</time>
      </trkpt>
      <trkpt lat="46.05678" lon="4.7743">
        <ele>206</ele>
        <time>2018-02-09T11:03:49Z</time>
      </trkpt>
      <trkpt lat="46.05673" lon="4.77426">
        <ele>206</ele>
        <time>2018-02-09T11:03:50Z</time>
      </trkpt>
      <trkpt lat="46.05668" lon="4.77421">
        <ele>205</ele>
        <time>2018-02-09T11:03:51Z</time>
      </trkpt>
      <trkpt lat="46.05664" lon="4.77416">
        <ele>205</ele>
        <time>2018-02-09T11:03:52Z</time>
      </trkpt>
      <trkpt lat="46.05659" lon="4.77411">
        <ele>204</ele>
        <time>2018-02-09T11:03:53Z</time>
      </trkpt>
      <trkpt lat="46.05654" lon="4.77406">
        <ele>204</ele>
        <time>2018-02-09T11:03:54Z</time>
      </trkpt>
      <trkpt lat="46.05648" lon="4.77401">
        <ele>204</ele>
        <time>2018-02-09T11:03:55Z</time>
      </trkpt>
      <trkpt lat="46.05643" lon="4.77395">
        <ele>203</ele>
        <time>2018-02-09T11:03:56Z</time>
      </trkpt>
      <trkpt lat="46.05637" lon="4.77389">
        <ele>203</ele>
        <time>2018-02-09T11:03:57Z</time>
      </trkpt>
      <trkpt lat="46.05633" lon="4.77385">
        <ele>203</ele>
        <time>2018-02-09T11:03:58Z</time>
      </trkpt>
      <trkpt lat="46.05627" lon="4.77379">
        <ele>203</ele>
        <time>2018-02-09T11:03:59Z</time>
      </trkpt>
      <trkpt lat="46.05621" lon="4.77374">
        <ele>203</ele>
        <time>2018-02-09T11:04:00Z</time>
      </trkpt>
      <trkpt lat="46.05615" lon="4.7737">
        <ele>203</ele>
        <time>2018-02-09T11:04:01Z</time>
      </trkpt>
      <trkpt lat="46.0561" lon="4.77367">
        <ele>202</ele>
        <time>2018-02-09T11:04:02Z</time>
      </trkpt>
      <trkpt lat="46.05605" lon="4.77363">
        <ele>202</ele>
        <time>2018-02-09T11:04:03Z</time>
      </trkpt>
      <trkpt lat="46.05598" lon="4.77358">
        <ele>202</ele>
        <time>2018-02-09T11:04:04Z</time>
      </trkpt>
      <trkpt lat="46.05592" lon="4.77355">
        <ele>202</ele>
        <time>2018-02-09T11:04:05Z</time>
      </trkpt>
      <trkpt lat="46.05586" lon="4.7735">
        <ele>201</ele>
        <time>2018-02-09T11:04:06Z</time>
      </trkpt>
      <trkpt lat="46.05581" lon="4.77347">
        <ele>201</ele>
        <time>2018-02-09T11:04:07Z</time>
      </trkpt>
      <trkpt lat="46.05575" lon="4.77344">
        <ele>201</ele>
        <time>2018-02-09T11:04:08Z</time>
      </trkpt>
      <trkpt lat="46.0557" lon="4.7734">
        <ele>201</ele>
        <time>2018-02-09T11:04:09Z</time>
      </trkpt>
      <trkpt lat="46.05564" lon="4.77336">
        <ele>201</ele>
        <time>2018-02-09T11:04:10Z</time>
      </trkpt>
      <trkpt lat="46.05558" lon="4.77333">
        <ele>200</ele>
        <time>2018-02-09T11:04:11Z</time>
      </trkpt>
      <trkpt lat="46.05552" lon="4.77328">
        <ele>200</ele>
        <time>2018-02-09T11:04:12Z</time>
      </trkpt>
      <trkpt lat="46.05545" lon="4.77324">
        <ele>200</ele>
        <time>2018-02-09T11:04:13Z</time>
      </trkpt>
      <trkpt lat="46.05539" lon="4.7732">
        <ele>200</ele>
        <time>2018-02-09T11:04:14Z</time>
      </trkpt>
      <trkpt lat="46.05533" lon="4.77318">
        <ele>200</ele>
        <time>2018-02-09T11:04:15Z</time>
      </trkpt>
      <trkpt lat="46.05527" lon="4.77314">
        <ele>200</ele>
        <time>2018-02-09T11:04:16Z</time>
      </trkpt>
      <trkpt lat="46.05521" lon="4.77311">
        <ele>200</ele>
        <time>2018-02-09T11:04:17Z</time>
      </trkpt>
      <trkpt lat="46.05515" lon="4.77308">
        <ele>200</ele>
        <time>2018-02-09T11:04:18Z</time>
      </trkpt>
      <trkpt lat="46.05509" lon="4.77305">
        <ele>200</ele>
        <time>2018-02-09T11:04:19Z</time>
      </trkpt>
      <trkpt lat="46.05504" lon="4.77303">
        <ele>200</ele>
        <time>2018-02-09T11:04:20Z</time>
      </trkpt>
      <trkpt lat="46.05499" lon="4.77299">
        <ele>201</ele>
        <time>2018-02-09T11:04:21Z</time>
      </trkpt>
      <trkpt lat="46.05492" lon="4.77296">
        <ele>201</ele>
        <time>2018-02-09T11:04:22Z</time>
      </trkpt>
      <trkpt lat="46.05487" lon="4.77294">
        <ele>201</ele>
        <time>2018-02-09T11:04:23Z</time>
      </trkpt>
      <trkpt lat="46.05482" lon="4.77291">
        <ele>201</ele>
        <time>2018-02-09T11:04:24Z</time>
      </trkpt>
      <trkpt lat="46.05478" lon="4.77288">
        <ele>201</ele>
        <time>2018-02-09T11:04:25Z</time>
      </trkpt>
      <trkpt lat="46.05473" lon="4.77285">
        <ele>201</ele>
        <time>2018-02-09T11:04:26Z</time>
      </trkpt>
      <trkpt lat="46.05468" lon="4.77282">
        <ele>201</ele>
        <time>2018-02-09T11:04:27Z</time>
      </trkpt>
      <trkpt lat="46.05463" lon="4.77279">
        <ele>201</ele>
        <time>2018-02-09T11:04:28Z</time>
      </trkpt>
      <trkpt lat="46.05459" lon="4.77277">
        <ele>201</ele>
        <time>2018-02-09T11:04:29Z</time>
      </trkpt>
      <trkpt lat="46.05453" lon="4.77275">
        <ele>201</ele>
        <time>2018-02-09T11:04:30Z</time>
      </trkpt>
      <trkpt lat="46.05449" lon="4.77272">
        <ele>201</ele>
        <time>2018-02-09T11:04:31Z</time>
      </trkpt>
      <trkpt lat="46.05444" lon="4.7727">
        <ele>201</ele>
        <time>2018-02-09T11:04:32Z</time>
      </trkpt>
      <trkpt lat="46.05439" lon="4.77266">
        <ele>201</ele>
        <time>2018-02-09T11:04:33Z</time>
      </trkpt>
      <trkpt lat="46.05432" lon="4.77265">
        <ele>201</ele>
        <time>2018-02-09T11:04:34Z</time>
      </trkpt>
      <trkpt lat="46.05427" lon="4.77262">
        <ele>201</ele>
        <time>2018-02-09T11:04:35Z</time>
      </trkpt>
      <trkpt lat="46.05421" lon="4.77259">
        <ele>201</ele>
        <time>2018-02-09T11:04:36Z</time>
      </trkpt>
      <trkpt lat="46.05415" lon="4.77256">
        <ele>202</ele>
        <time>2018-02-09T11:04:37Z</time>
      </trkpt>
      <trkpt lat="46.05409" lon="4.77252">
        <ele>202</ele>
        <time>2018-02-09T11:04:38Z</time>
      </trkpt>
      <trkpt lat="46.05404" lon="4.77248">
        <ele>202</ele>
        <time>2018-02-09T11:04:39Z</time>
      </trkpt>
      <trkpt lat="46.05396" lon="4.77246">
        <ele>202</ele>
        <time>2018-02-09T11:04:40Z</time>
      </trkpt>
      <trkpt lat="46.05391" lon="4.77242">
        <ele>202</ele>
        <time>2018-02-09T11:04:41Z</time>
      </trkpt>
      <trkpt lat="46.05386" lon="4.77239">
        <ele>202</ele>
        <time>2018-02-09T11:04:42Z</time>
      </trkpt>
      <trkpt lat="46.05382" lon="4.77235">
        <ele>203</ele>
        <time>2018-02-09T11:04:43Z</time>
      </trkpt>
      <trkpt lat="46.05376" lon="4.77232">
        <ele>203</ele>
        <time>2018-02-09T11:04:44Z</time>
      </trkpt>
      <trkpt lat="46.0537" lon="4.77228">
        <ele>203</ele>
        <time>2018-02-09T11:04:45Z</time>
      </trkpt>
      <trkpt lat="46.05365" lon="4.77226">
        <ele>203</ele>
        <time>2018-02-09T11:04:46Z</time>
      </trkpt>
      <trkpt lat="46.0536" lon="4.77223">
        <ele>203</ele>
        <time>2018-02-09T11:04:47Z</time>
      </trkpt>
      <trkpt lat="46.05354" lon="4.7722">
        <ele>203</ele>
        <time>2018-02-09T11:04:48Z</time>
      </trkpt>
      <trkpt lat="46.05349" lon="4.77217">
        <ele>203</ele>
        <time>2018-02-09T11:04:49Z</time>
      </trkpt>
      <trkpt lat="46.05344" lon="4.77215">
        <ele>203</ele>
        <time>2018-02-09T11:04:50Z</time>
      </trkpt>
      <trkpt lat="46.05339" lon="4.77212">
        <ele>203</ele>
        <time>2018-02-09T11:04:51Z</time>
      </trkpt>
      <trkpt lat="46.05335" lon="4.77209">
        <ele>203</ele>
        <time>2018-02-09T11:04:52Z</time>
      </trkpt>
      <trkpt lat="46.0533" lon="4.77206">
        <ele>205</ele>
        <time>2018-02-09T11:04:53Z</time>
      </trkpt>
      <trkpt lat="46.05323" lon="4.77201">
        <ele>205</ele>
        <time>2018-02-09T11:04:55Z</time>
      </trkpt>
      <trkpt lat="46.05319" lon="4.77198">
        <ele>205</ele>
        <time>2018-02-09T11:04:56Z</time>
      </trkpt>
      <trkpt lat="46.05315" lon="4.77193">
        <ele>205</ele>
        <time>2018-02-09T11:04:57Z</time>
      </trkpt>
      <trkpt lat="46.05311" lon="4.77189">
        <ele>205</ele>
        <time>2018-02-09T11:04:58Z</time>
      </trkpt>
      <trkpt lat="46.05307" lon="4.77185">
        <ele>205</ele>
        <time>2018-02-09T11:04:59Z</time>
      </trkpt>
      <trkpt lat="46.05302" lon="4.77181">
        <ele>205</ele>
        <time>2018-02-09T11:05:00Z</time>
      </trkpt>
      <trkpt lat="46.05294" lon="4.77178">
        <ele>205</ele>
        <time>2018-02-09T11:05:02Z</time>
      </trkpt>
      <trkpt lat="46.05291" lon="4.77174">
        <ele>206</ele>
        <time>2018-02-09T11:05:03Z</time>
      </trkpt>
      <trkpt lat="46.05286" lon="4.77169">
        <ele>206</ele>
        <time>2018-02-09T11:05:04Z</time>
      </trkpt>
      <trkpt lat="46.05282" lon="4.77165">
        <ele>204</ele>
        <time>2018-02-09T11:05:05Z</time>
      </trkpt>
      <trkpt lat="46.05279" lon="4.77159">
        <ele>204</ele>
        <time>2018-02-09T11:05:06Z</time>
      </trkpt>
      <trkpt lat="46.05275" lon="4.77154">
        <ele>204</ele>
        <time>2018-02-09T11:05:07Z</time>
      </trkpt>
      <trkpt lat="46.05272" lon="4.7715">
        <ele>204</ele>
        <time>2018-02-09T11:05:08Z</time>
      </trkpt>
      <trkpt lat="46.05267" lon="4.77147">
        <ele>204</ele>
        <time>2018-02-09T11:05:09Z</time>
      </trkpt>
      <trkpt lat="46.0526" lon="4.77139">
        <ele>204</ele>
        <time>2018-02-09T11:05:11Z</time>
      </trkpt>
      <trkpt lat="46.05257" lon="4.77135">
        <ele>204</ele>
        <time>2018-02-09T11:05:12Z</time>
      </trkpt>
      <trkpt lat="46.05253" lon="4.77129">
        <ele>204</ele>
        <time>2018-02-09T11:05:13Z</time>
      </trkpt>
      <trkpt lat="46.05249" lon="4.77124">
        <ele>204</ele>
        <time>2018-02-09T11:05:14Z</time>
      </trkpt>
      <trkpt lat="46.05243" lon="4.77119">
        <ele>204</ele>
        <time>2018-02-09T11:05:15Z</time>
      </trkpt>
      <trkpt lat="46.05237" lon="4.77113">
        <ele>203</ele>
        <time>2018-02-09T11:05:16Z</time>
      </trkpt>
      <trkpt lat="46.05233" lon="4.77108">
        <ele>203</ele>
        <time>2018-02-09T11:05:17Z</time>
      </trkpt>
      <trkpt lat="46.05228" lon="4.77101">
        <ele>203</ele>
        <time>2018-02-09T11:05:18Z</time>
      </trkpt>
      <trkpt lat="46.05225" lon="4.77093">
        <ele>203</ele>
        <time>2018-02-09T11:05:19Z</time>
      </trkpt>
      <trkpt lat="46.05222" lon="4.77085">
        <ele>203</ele>
        <time>2018-02-09T11:05:20Z</time>
      </trkpt>
      <trkpt lat="46.05218" lon="4.77077">
        <ele>201</ele>
        <time>2018-02-09T11:05:21Z</time>
      </trkpt>
      <trkpt lat="46.05217" lon="4.77069">
        <ele>201</ele>
        <time>2018-02-09T11:05:22Z</time>
      </trkpt>
      <trkpt lat="46.05214" lon="4.7706">
        <ele>201</ele>
        <time>2018-02-09T11:05:23Z</time>
      </trkpt>
      <trkpt lat="46.05211" lon="4.77052">
        <ele>201</ele>
        <time>2018-02-09T11:05:24Z</time>
      </trkpt>
      <trkpt lat="46.05209" lon="4.77041">
        <ele>200</ele>
        <time>2018-02-09T11:05:25Z</time>
      </trkpt>
      <trkpt lat="46.05206" lon="4.77032">
        <ele>200</ele>
        <time>2018-02-09T11:05:26Z</time>
      </trkpt>
      <trkpt lat="46.05202" lon="4.77023">
        <ele>200</ele>
        <time>2018-02-09T11:05:27Z</time>
      </trkpt>
      <trkpt lat="46.05198" lon="4.77013">
        <ele>200</ele>
        <time>2018-02-09T11:05:28Z</time>
      </trkpt>
      <trkpt lat="46.05194" lon="4.77004">
        <ele>200</ele>
        <time>2018-02-09T11:05:29Z</time>
      </trkpt>
      <trkpt lat="46.0519" lon="4.76995">
        <ele>198</ele>
        <time>2018-02-09T11:05:30Z</time>
      </trkpt>
      <trkpt lat="46.05186" lon="4.76986">
        <ele>198</ele>
        <time>2018-02-09T11:05:31Z</time>
      </trkpt>
      <trkpt lat="46.05183" lon="4.76978">
        <ele>198</ele>
        <time>2018-02-09T11:05:32Z</time>
      </trkpt>
      <trkpt lat="46.05183" lon="4.76967">
        <ele>198</ele>
        <time>2018-02-09T11:05:33Z</time>
      </trkpt>
      <trkpt lat="46.05176" lon="4.76961">
        <ele>198</ele>
        <time>2018-02-09T11:05:34Z</time>
      </trkpt>
      <trkpt lat="46.0517" lon="4.76954">
        <ele>197</ele>
        <time>2018-02-09T11:05:35Z</time>
      </trkpt>
      <trkpt lat="46.05166" lon="4.76946">
        <ele>196</ele>
        <time>2018-02-09T11:05:36Z</time>
      </trkpt>
      <trkpt lat="46.05161" lon="4.76938">
        <ele>196</ele>
        <time>2018-02-09T11:05:37Z</time>
      </trkpt>
      <trkpt lat="46.05157" lon="4.7693">
        <ele>196</ele>
        <time>2018-02-09T11:05:38Z</time>
      </trkpt>
      <trkpt lat="46.05154" lon="4.76921">
        <ele>196</ele>
        <time>2018-02-09T11:05:39Z</time>
      </trkpt>
      <trkpt lat="46.05148" lon="4.76914">
        <ele>195</ele>
        <time>2018-02-09T11:05:40Z</time>
      </trkpt>
      <trkpt lat="46.05144" lon="4.76906">
        <ele>195</ele>
        <time>2018-02-09T11:05:41Z</time>
      </trkpt>
      <trkpt lat="46.05139" lon="4.76897">
        <ele>195</ele>
        <time>2018-02-09T11:05:42Z</time>
      </trkpt>
      <trkpt lat="46.05135" lon="4.76886">
        <ele>195</ele>
        <time>2018-02-09T11:05:43Z</time>
      </trkpt>
      <trkpt lat="46.05133" lon="4.7688">
        <ele>195</ele>
        <time>2018-02-09T11:05:44Z</time>
      </trkpt>
      <trkpt lat="46.0513" lon="4.76872">
        <ele>195</ele>
        <time>2018-02-09T11:05:45Z</time>
      </trkpt>
      <trkpt lat="46.05127" lon="4.76864">
        <ele>195</ele>
        <time>2018-02-09T11:05:46Z</time>
      </trkpt>
      <trkpt lat="46.05124" lon="4.76857">
        <ele>195</ele>
        <time>2018-02-09T11:05:47Z</time>
      </trkpt>
      <trkpt lat="46.0512" lon="4.76849">
        <ele>195</ele>
        <time>2018-02-09T11:05:48Z</time>
      </trkpt>
      <trkpt lat="46.05116" lon="4.76842">
        <ele>195</ele>
        <time>2018-02-09T11:05:49Z</time>
      </trkpt>
      <trkpt lat="46.05114" lon="4.76834">
        <ele>195</ele>
        <time>2018-02-09T11:05:50Z</time>
      </trkpt>
      <trkpt lat="46.05111" lon="4.76826">
        <ele>194</ele>
        <time>2018-02-09T11:05:51Z</time>
      </trkpt>
      <trkpt lat="46.05108" lon="4.76819">
        <ele>194</ele>
        <time>2018-02-09T11:05:52Z</time>
      </trkpt>
      <trkpt lat="46.05107" lon="4.76811">
        <ele>194</ele>
        <time>2018-02-09T11:05:53Z</time>
      </trkpt>
      <trkpt lat="46.05103" lon="4.76802">
        <ele>194</ele>
        <time>2018-02-09T11:05:54Z</time>
      </trkpt>
      <trkpt lat="46.05102" lon="4.76794">
        <ele>194</ele>
        <time>2018-02-09T11:05:55Z</time>
      </trkpt>
      <trkpt lat="46.05101" lon="4.76787">
        <ele>194</ele>
        <time>2018-02-09T11:05:56Z</time>
      </trkpt>
      <trkpt lat="46.05099" lon="4.76778">
        <ele>194</ele>
        <time>2018-02-09T11:05:57Z</time>
      </trkpt>
      <trkpt lat="46.05099" lon="4.76769">
        <ele>194</ele>
        <time>2018-02-09T11:05:58Z</time>
      </trkpt>
      <trkpt lat="46.05092" lon="4.76764">
        <ele>194</ele>
        <time>2018-02-09T11:05:59Z</time>
      </trkpt>
      <trkpt lat="46.0509" lon="4.76755">
        <ele>194</ele>
        <time>2018-02-09T11:06:00Z</time>
      </trkpt>
      <trkpt lat="46.05091" lon="4.76743">
        <ele>194</ele>
        <time>2018-02-09T11:06:01Z</time>
      </trkpt>
      <trkpt lat="46.05089" lon="4.76735">
        <ele>193</ele>
        <time>2018-02-09T11:06:02Z</time>
      </trkpt>
      <trkpt lat="46.05088" lon="4.76728">
        <ele>193</ele>
        <time>2018-02-09T11:06:03Z</time>
      </trkpt>
      <trkpt lat="46.05088" lon="4.76721">
        <ele>193</ele>
        <time>2018-02-09T11:06:04Z</time>
      </trkpt>
      <trkpt lat="46.05087" lon="4.76713">
        <ele>193</ele>
        <time>2018-02-09T11:06:05Z</time>
      </trkpt>
      <trkpt lat="46.05085" lon="4.76706">
        <ele>193</ele>
        <time>2018-02-09T11:06:06Z</time>
      </trkpt>
      <trkpt lat="46.05082" lon="4.76698">
        <ele>193</ele>
        <time>2018-02-09T11:06:07Z</time>
      </trkpt>
      <trkpt lat="46.0508" lon="4.7669">
        <ele>193</ele>
        <time>2018-02-09T11:06:08Z</time>
      </trkpt>
      <trkpt lat="46.05079" lon="4.76682">
        <ele>193</ele>
        <time>2018-02-09T11:06:09Z</time>
      </trkpt>
      <trkpt lat="46.05078" lon="4.76676">
        <ele>193</ele>
        <time>2018-02-09T11:06:10Z</time>
      </trkpt>
      <trkpt lat="46.05076" lon="4.76669">
        <ele>193</ele>
        <time>2018-02-09T11:06:11Z</time>
      </trkpt>
      <trkpt lat="46.05074" lon="4.76663">
        <ele>193</ele>
        <time>2018-02-09T11:06:12Z</time>
      </trkpt>
      <trkpt lat="46.05073" lon="4.76655">
        <ele>192</ele>
        <time>2018-02-09T11:06:13Z</time>
      </trkpt>
      <trkpt lat="46.05072" lon="4.76648">
        <ele>192</ele>
        <time>2018-02-09T11:06:14Z</time>
      </trkpt>
      <trkpt lat="46.05072" lon="4.76636">
        <ele>192</ele>
        <time>2018-02-09T11:06:16Z</time>
      </trkpt>
      <trkpt lat="46.05072" lon="4.76633">
        <ele>192</ele>
        <time>2018-02-09T11:06:17Z</time>
      </trkpt>
      <trkpt lat="46.0507" lon="4.76623">
        <ele>192</ele>
        <time>2018-02-09T11:06:19Z</time>
      </trkpt>
      <trkpt lat="46.05071" lon="4.7662">
        <ele>192</ele>
        <time>2018-02-09T11:06:20Z</time>
      </trkpt>
      <trkpt lat="46.05072" lon="4.76607">
        <ele>191</ele>
        <time>2018-02-09T11:06:27Z</time>
      </trkpt>
      <trkpt lat="46.05071" lon="4.76604">
        <ele>191</ele>
        <time>2018-02-09T11:06:28Z</time>
      </trkpt>
      <trkpt lat="46.05064" lon="4.76596">
        <ele>191</ele>
        <time>2018-02-09T11:06:31Z</time>
      </trkpt>
      <trkpt lat="46.05061" lon="4.76594">
        <ele>191</ele>
        <time>2018-02-09T11:06:32Z</time>
      </trkpt>
      <trkpt lat="46.05055" lon="4.76588">
        <ele>191</ele>
        <time>2018-02-09T11:06:34Z</time>
      </trkpt>
      <trkpt lat="46.05052" lon="4.76586">
        <ele>191</ele>
        <time>2018-02-09T11:06:35Z</time>
      </trkpt>
      <trkpt lat="46.05044" lon="4.7658">
        <ele>190</ele>
        <time>2018-02-09T11:06:37Z</time>
      </trkpt>
      <trkpt lat="46.0504" lon="4.76578">
        <ele>190</ele>
        <time>2018-02-09T11:06:38Z</time>
      </trkpt>
      <trkpt lat="46.05033" lon="4.76572">
        <ele>190</ele>
        <time>2018-02-09T11:06:40Z</time>
      </trkpt>
      <trkpt lat="46.0503" lon="4.76569">
        <ele>190</ele>
        <time>2018-02-09T11:06:41Z</time>
      </trkpt>
      <trkpt lat="46.05021" lon="4.76567">
        <ele>190</ele>
        <time>2018-02-09T11:06:43Z</time>
      </trkpt>
      <trkpt lat="46.05019" lon="4.76567">
        <ele>190</ele>
        <time>2018-02-09T11:06:44Z</time>
      </trkpt>
      <trkpt lat="46.05015" lon="4.76563">
        <ele>190</ele>
        <time>2018-02-09T11:06:45Z</time>
      </trkpt>
      <trkpt lat="46.0501" lon="4.7656">
        <ele>190</ele>
        <time>2018-02-09T11:06:46Z</time>
      </trkpt>
      <trkpt lat="46.05003" lon="4.76552">
        <ele>190</ele>
        <time>2018-02-09T11:06:48Z</time>
      </trkpt>
      <trkpt lat="46.05001" lon="4.76549">
        <ele>190</ele>
        <time>2018-02-09T11:06:49Z</time>
      </trkpt>
      <trkpt lat="46.04999" lon="4.76542">
        <ele>191</ele>
        <time>2018-02-09T11:06:50Z</time>
      </trkpt>
      <trkpt lat="46.04997" lon="4.76537">
        <ele>191</ele>
        <time>2018-02-09T11:06:51Z</time>
      </trkpt>
      <trkpt lat="46.04995" lon="4.76531">
        <ele>191</ele>
        <time>2018-02-09T11:06:52Z</time>
      </trkpt>
      <trkpt lat="46.04992" lon="4.76525">
        <ele>191</ele>
        <time>2018-02-09T11:06:53Z</time>
      </trkpt>
      <trkpt lat="46.0499" lon="4.76519">
        <ele>191</ele>
        <time>2018-02-09T11:06:54Z</time>
      </trkpt>
      <trkpt lat="46.04987" lon="4.76513">
        <ele>191</ele>
        <time>2018-02-09T11:06:55Z</time>
      </trkpt>
      <trkpt lat="46.04984" lon="4.76506">
        <ele>191</ele>
        <time>2018-02-09T11:06:56Z</time>
      </trkpt>
      <trkpt lat="46.04981" lon="4.76501">
        <ele>191</ele>
        <time>2018-02-09T11:06:57Z</time>
      </trkpt>
      <trkpt lat="46.04978" lon="4.7649">
        <ele>191</ele>
        <time>2018-02-09T11:06:59Z</time>
      </trkpt>
      <trkpt lat="46.04975" lon="4.76484">
        <ele>191</ele>
        <time>2018-02-09T11:07:00Z</time>
      </trkpt>
      <trkpt lat="46.04973" lon="4.76478">
        <ele>191</ele>
        <time>2018-02-09T11:07:01Z</time>
      </trkpt>
      <trkpt lat="46.04972" lon="4.7647">
        <ele>191</ele>
        <time>2018-02-09T11:07:02Z</time>
      </trkpt>
      <trkpt lat="46.0497" lon="4.76463">
        <ele>191</ele>
        <time>2018-02-09T11:07:03Z</time>
      </trkpt>
      <trkpt lat="46.04969" lon="4.76456">
        <ele>191</ele>
        <time>2018-02-09T11:07:04Z</time>
      </trkpt>
      <trkpt lat="46.04968" lon="4.76449">
        <ele>190</ele>
        <time>2018-02-09T11:07:05Z</time>
      </trkpt>
      <trkpt lat="46.04963" lon="4.76443">
        <ele>190</ele>
        <time>2018-02-09T11:07:06Z</time>
      </trkpt>
      <trkpt lat="46.0496" lon="4.76439">
        <ele>191</ele>
        <time>2018-02-09T11:07:07Z</time>
      </trkpt>
      <trkpt lat="46.04955" lon="4.76435">
        <ele>191</ele>
        <time>2018-02-09T11:07:08Z</time>
      </trkpt>
      <trkpt lat="46.04948" lon="4.76428">
        <ele>191</ele>
        <time>2018-02-09T11:07:10Z</time>
      </trkpt>
      <trkpt lat="46.04944" lon="4.76426">
        <ele>191</ele>
        <time>2018-02-09T11:07:11Z</time>
      </trkpt>
      <trkpt lat="46.04941" lon="4.76425">
        <ele>191</ele>
        <time>2018-02-09T11:07:12Z</time>
      </trkpt>
      <trkpt lat="46.04934" lon="4.76426">
        <ele>191</ele>
        <time>2018-02-09T11:07:13Z</time>
      </trkpt>
      <trkpt lat="46.0493" lon="4.76427">
        <ele>191</ele>
        <time>2018-02-09T11:07:14Z</time>
      </trkpt>
      <trkpt lat="46.04924" lon="4.7643">
        <ele>191</ele>
        <time>2018-02-09T11:07:15Z</time>
      </trkpt>
      <trkpt lat="46.0492" lon="4.76432">
        <ele>191</ele>
        <time>2018-02-09T11:07:16Z</time>
      </trkpt>
      <trkpt lat="46.04915" lon="4.76434">
        <ele>193</ele>
        <time>2018-02-09T11:07:17Z</time>
      </trkpt>
      <trkpt lat="46.04908" lon="4.76439">
        <ele>193</ele>
        <time>2018-02-09T11:07:19Z</time>
      </trkpt>
      <trkpt lat="46.04902" lon="4.76441">
        <ele>193</ele>
        <time>2018-02-09T11:07:20Z</time>
      </trkpt>
      <trkpt lat="46.04897" lon="4.76445">
        <ele>193</ele>
        <time>2018-02-09T11:07:22Z</time>
      </trkpt>
      <trkpt lat="46.04893" lon="4.76446">
        <ele>193</ele>
        <time>2018-02-09T11:07:23Z</time>
      </trkpt>
      <trkpt lat="46.04885" lon="4.76447">
        <ele>193</ele>
        <time>2018-02-09T11:07:25Z</time>
      </trkpt>
      <trkpt lat="46.04881" lon="4.76447">
        <ele>193</ele>
        <time>2018-02-09T11:07:26Z</time>
      </trkpt>
      <trkpt lat="46.04873" lon="4.76446">
        <ele>193</ele>
        <time>2018-02-09T11:07:28Z</time>
      </trkpt>
      <trkpt lat="46.04869" lon="4.76447">
        <ele>193</ele>
        <time>2018-02-09T11:07:29Z</time>
      </trkpt>
      <trkpt lat="46.04861" lon="4.76445">
        <ele>193</ele>
        <time>2018-02-09T11:07:31Z</time>
      </trkpt>
      <trkpt lat="46.04857" lon="4.76444">
        <ele>193</ele>
        <time>2018-02-09T11:07:32Z</time>
      </trkpt>
      <trkpt lat="46.04851" lon="4.76441">
        <ele>193</ele>
        <time>2018-02-09T11:07:34Z</time>
      </trkpt>
      <trkpt lat="46.04846" lon="4.7644">
        <ele>194</ele>
        <time>2018-02-09T11:07:35Z</time>
      </trkpt>
      <trkpt lat="46.04841" lon="4.76439">
        <ele>194</ele>
        <time>2018-02-09T11:07:37Z</time>
      </trkpt>
      <trkpt lat="46.04837" lon="4.76439">
        <ele>194</ele>
        <time>2018-02-09T11:07:38Z</time>
      </trkpt>
      <trkpt lat="46.04829" lon="4.76436">
        <ele>193</ele>
        <time>2018-02-09T11:07:40Z</time>
      </trkpt>
      <trkpt lat="46.04825" lon="4.76434">
        <ele>193</ele>
        <time>2018-02-09T11:07:41Z</time>
      </trkpt>
      <trkpt lat="46.04821" lon="4.76433">
        <ele>193</ele>
        <time>2018-02-09T11:07:42Z</time>
      </trkpt>
      <trkpt lat="46.04811" lon="4.76433">
        <ele>193</ele>
        <time>2018-02-09T11:07:43Z</time>
      </trkpt>
      <trkpt lat="46.04803" lon="4.76434">
        <ele>193</ele>
        <time>2018-02-09T11:07:45Z</time>
      </trkpt>
      <trkpt lat="46.04797" lon="4.76435">
        <ele>193</ele>
        <time>2018-02-09T11:07:46Z</time>
      </trkpt>
      <trkpt lat="46.04794" lon="4.76438">
        <ele>193</ele>
        <time>2018-02-09T11:07:47Z</time>
      </trkpt>
      <trkpt lat="46.04789" lon="4.76443">
        <ele>192</ele>
        <time>2018-02-09T11:07:48Z</time>
      </trkpt>
      <trkpt lat="46.04782" lon="4.76447">
        <ele>192</ele>
        <time>2018-02-09T11:07:49Z</time>
      </trkpt>
      <trkpt lat="46.0478" lon="4.76451">
        <ele>192</ele>
        <time>2018-02-09T11:07:50Z</time>
      </trkpt>
      <trkpt lat="46.04772" lon="4.76456">
        <ele>192</ele>
        <time>2018-02-09T11:07:52Z</time>
      </trkpt>
      <trkpt lat="46.04763" lon="4.76462">
        <ele>192</ele>
        <time>2018-02-09T11:07:53Z</time>
      </trkpt>
      <trkpt lat="46.04758" lon="4.76465">
        <ele>192</ele>
        <time>2018-02-09T11:07:54Z</time>
      </trkpt>
      <trkpt lat="46.04751" lon="4.76467">
        <ele>192</ele>
        <time>2018-02-09T11:07:55Z</time>
      </trkpt>
      <trkpt lat="46.04743" lon="4.76472">
        <ele>190</ele>
        <time>2018-02-09T11:07:56Z</time>
      </trkpt>
      <trkpt lat="46.04737" lon="4.76475">
        <ele>190</ele>
        <time>2018-02-09T11:07:57Z</time>
      </trkpt>
      <trkpt lat="46.0473" lon="4.76477">
        <ele>189</ele>
        <time>2018-02-09T11:07:58Z</time>
      </trkpt>
      <trkpt lat="46.04724" lon="4.7648">
        <ele>189</ele>
        <time>2018-02-09T11:07:59Z</time>
      </trkpt>
      <trkpt lat="46.04718" lon="4.76483">
        <ele>189</ele>
        <time>2018-02-09T11:08:00Z</time>
      </trkpt>
      <trkpt lat="46.04712" lon="4.76485">
        <ele>189</ele>
        <time>2018-02-09T11:08:01Z</time>
      </trkpt>
      <trkpt lat="46.04707" lon="4.76486">
        <ele>189</ele>
        <time>2018-02-09T11:08:02Z</time>
      </trkpt>
      <trkpt lat="46.047" lon="4.76489">
        <ele>188</ele>
        <time>2018-02-09T11:08:03Z</time>
      </trkpt>
      <trkpt lat="46.04694" lon="4.76492">
        <ele>188</ele>
        <time>2018-02-09T11:08:04Z</time>
      </trkpt>
      <trkpt lat="46.04688" lon="4.76494">
        <ele>188</ele>
        <time>2018-02-09T11:08:05Z</time>
      </trkpt>
      <trkpt lat="46.04684" lon="4.76498">
        <ele>187</ele>
        <time>2018-02-09T11:08:06Z</time>
      </trkpt>
      <trkpt lat="46.04677" lon="4.76501">
        <ele>187</ele>
        <time>2018-02-09T11:08:07Z</time>
      </trkpt>
      <trkpt lat="46.04672" lon="4.76505">
        <ele>186</ele>
        <time>2018-02-09T11:08:08Z</time>
      </trkpt>
      <trkpt lat="46.04667" lon="4.76506">
        <ele>186</ele>
        <time>2018-02-09T11:08:09Z</time>
      </trkpt>
      <trkpt lat="46.04661" lon="4.76508">
        <ele>186</ele>
        <time>2018-02-09T11:08:10Z</time>
      </trkpt>
      <trkpt lat="46.04655" lon="4.76508">
        <ele>186</ele>
        <time>2018-02-09T11:08:11Z</time>
      </trkpt>
      <trkpt lat="46.0465" lon="4.76509">
        <ele>186</ele>
        <time>2018-02-09T11:08:12Z</time>
      </trkpt>
      <trkpt lat="46.04643" lon="4.7651">
        <ele>186</ele>
        <time>2018-02-09T11:08:13Z</time>
      </trkpt>
      <trkpt lat="46.04638" lon="4.76512">
        <ele>186</ele>
        <time>2018-02-09T11:08:14Z</time>
      </trkpt>
      <trkpt lat="46.04633" lon="4.76513">
        <ele>186</ele>
        <time>2018-02-09T11:08:15Z</time>
      </trkpt>
      <trkpt lat="46.04629" lon="4.76515">
        <ele>186</ele>
        <time>2018-02-09T11:08:16Z</time>
      </trkpt>
      <trkpt lat="46.04624" lon="4.76517">
        <ele>186</ele>
        <time>2018-02-09T11:08:17Z</time>
      </trkpt>
      <trkpt lat="46.04618" lon="4.76518">
        <ele>186</ele>
        <time>2018-02-09T11:08:18Z</time>
      </trkpt>
      <trkpt lat="46.04612" lon="4.7652">
        <ele>186</ele>
        <time>2018-02-09T11:08:19Z</time>
      </trkpt>
      <trkpt lat="46.04608" lon="4.76523">
        <ele>186</ele>
        <time>2018-02-09T11:08:20Z</time>
      </trkpt>
      <trkpt lat="46.04603" lon="4.76524">
        <ele>186</ele>
        <time>2018-02-09T11:08:21Z</time>
      </trkpt>
      <trkpt lat="46.04598" lon="4.76528">
        <ele>186</ele>
        <time>2018-02-09T11:08:22Z</time>
      </trkpt>
      <trkpt lat="46.04593" lon="4.76528">
        <ele>186</ele>
        <time>2018-02-09T11:08:23Z</time>
      </trkpt>
      <trkpt lat="46.04588" lon="4.76531">
        <ele>186</ele>
        <time>2018-02-09T11:08:24Z</time>
      </trkpt>
      <trkpt lat="46.04584" lon="4.76534">
        <ele>186</ele>
        <time>2018-02-09T11:08:25Z</time>
      </trkpt>
      <trkpt lat="46.04575" lon="4.76536">
        <ele>187</ele>
        <time>2018-02-09T11:08:27Z</time>
      </trkpt>
      <trkpt lat="46.04568" lon="4.76541">
        <ele>187</ele>
        <time>2018-02-09T11:08:28Z</time>
      </trkpt>
      <trkpt lat="46.0456" lon="4.76543">
        <ele>187</ele>
        <time>2018-02-09T11:08:30Z</time>
      </trkpt>
      <trkpt lat="46.04555" lon="4.76545">
        <ele>188</ele>
        <time>2018-02-09T11:08:31Z</time>
      </trkpt>
      <trkpt lat="46.04551" lon="4.76547">
        <ele>188</ele>
        <time>2018-02-09T11:08:32Z</time>
      </trkpt>
      <trkpt lat="46.04545" lon="4.76549">
        <ele>188</ele>
        <time>2018-02-09T11:08:33Z</time>
      </trkpt>
      <trkpt lat="46.04541" lon="4.76551">
        <ele>188</ele>
        <time>2018-02-09T11:08:34Z</time>
      </trkpt>
      <trkpt lat="46.04536" lon="4.76552">
        <ele>188</ele>
        <time>2018-02-09T11:08:35Z</time>
      </trkpt>
      <trkpt lat="46.04529" lon="4.76553">
        <ele>188</ele>
        <time>2018-02-09T11:08:37Z</time>
      </trkpt>
      <trkpt lat="46.04525" lon="4.76552">
        <ele>189</ele>
        <time>2018-02-09T11:08:38Z</time>
      </trkpt>
      <trkpt lat="46.04517" lon="4.76553">
        <ele>189</ele>
        <time>2018-02-09T11:08:40Z</time>
      </trkpt>
      <trkpt lat="46.04513" lon="4.76554">
        <ele>189</ele>
        <time>2018-02-09T11:08:41Z</time>
      </trkpt>
      <trkpt lat="46.04505" lon="4.76555">
        <ele>189</ele>
        <time>2018-02-09T11:08:43Z</time>
      </trkpt>
      <trkpt lat="46.04503" lon="4.76556">
        <ele>189</ele>
        <time>2018-02-09T11:08:44Z</time>
      </trkpt>
      <trkpt lat="46.04494" lon="4.76555">
        <ele>192</ele>
        <time>2018-02-09T11:08:47Z</time>
      </trkpt>
      <trkpt lat="46.0449" lon="4.76554">
        <ele>193</ele>
        <time>2018-02-09T11:08:48Z</time>
      </trkpt>
      <trkpt lat="46.04483" lon="4.76556">
        <ele>193</ele>
        <time>2018-02-09T11:08:51Z</time>
      </trkpt>
      <trkpt lat="46.0448" lon="4.76555">
        <ele>193</ele>
        <time>2018-02-09T11:08:52Z</time>
      </trkpt>
      <trkpt lat="46.04473" lon="4.76554">
        <ele>193</ele>
        <time>2018-02-09T11:08:54Z</time>
      </trkpt>
      <trkpt lat="46.04469" lon="4.76554">
        <ele>193</ele>
        <time>2018-02-09T11:08:55Z</time>
      </trkpt>
      <trkpt lat="46.04462" lon="4.76556">
        <ele>194</ele>
        <time>2018-02-09T11:08:57Z</time>
      </trkpt>
      <trkpt lat="46.0446" lon="4.76557">
        <ele>194</ele>
        <time>2018-02-09T11:08:58Z</time>
      </trkpt>
      <trkpt lat="46.04453" lon="4.76559">
        <ele>194</ele>
        <time>2018-02-09T11:09:00Z</time>
      </trkpt>
      <trkpt lat="46.0445" lon="4.76559">
        <ele>194</ele>
        <time>2018-02-09T11:09:01Z</time>
      </trkpt>
      <trkpt lat="46.04445" lon="4.7656">
        <ele>195</ele>
        <time>2018-02-09T11:09:02Z</time>
      </trkpt>
      <trkpt lat="46.04441" lon="4.76561">
        <ele>195</ele>
        <time>2018-02-09T11:09:03Z</time>
      </trkpt>
      <trkpt lat="46.04434" lon="4.76562">
        <ele>195</ele>
        <time>2018-02-09T11:09:05Z</time>
      </trkpt>
      <trkpt lat="46.04431" lon="4.76562">
        <ele>195</ele>
        <time>2018-02-09T11:09:06Z</time>
      </trkpt>
      <trkpt lat="46.04423" lon="4.76562">
        <ele>196</ele>
        <time>2018-02-09T11:09:08Z</time>
      </trkpt>
      <trkpt lat="46.04419" lon="4.76561">
        <ele>196</ele>
        <time>2018-02-09T11:09:09Z</time>
      </trkpt>
      <trkpt lat="46.04412" lon="4.76559">
        <ele>197</ele>
        <time>2018-02-09T11:09:11Z</time>
      </trkpt>
      <trkpt lat="46.04408" lon="4.76559">
        <ele>197</ele>
        <time>2018-02-09T11:09:12Z</time>
      </trkpt>
      <trkpt lat="46.04401" lon="4.76559">
        <ele>197</ele>
        <time>2018-02-09T11:09:14Z</time>
      </trkpt>
      <trkpt lat="46.04397" lon="4.76559">
        <ele>197</ele>
        <time>2018-02-09T11:09:15Z</time>
      </trkpt>
      <trkpt lat="46.04391" lon="4.7656">
        <ele>197</ele>
        <time>2018-02-09T11:09:17Z</time>
      </trkpt>
      <trkpt lat="46.04388" lon="4.76561">
        <ele>197</ele>
        <time>2018-02-09T11:09:18Z</time>
      </trkpt>
      <trkpt lat="46.04384" lon="4.76563">
        <ele>197</ele>
        <time>2018-02-09T11:09:19Z</time>
      </trkpt>
      <trkpt lat="46.04379" lon="4.76564">
        <ele>197</ele>
        <time>2018-02-09T11:09:20Z</time>
      </trkpt>
      <trkpt lat="46.04373" lon="4.76565">
        <ele>197</ele>
        <time>2018-02-09T11:09:21Z</time>
      </trkpt>
      <trkpt lat="46.04368" lon="4.76566">
        <ele>197</ele>
        <time>2018-02-09T11:09:22Z</time>
      </trkpt>
      <trkpt lat="46.04364" lon="4.76567">
        <ele>197</ele>
        <time>2018-02-09T11:09:23Z</time>
      </trkpt>
      <trkpt lat="46.04359" lon="4.76568">
        <ele>197</ele>
        <time>2018-02-09T11:09:24Z</time>
      </trkpt>
      <trkpt lat="46.04351" lon="4.7657">
        <ele>198</ele>
        <time>2018-02-09T11:09:26Z</time>
      </trkpt>
      <trkpt lat="46.04348" lon="4.7657">
        <ele>198</ele>
        <time>2018-02-09T11:09:27Z</time>
      </trkpt>
      <trkpt lat="46.04342" lon="4.76571">
        <ele>198</ele>
        <time>2018-02-09T11:09:30Z</time>
      </trkpt>
      <trkpt lat="46.04338" lon="4.76572">
        <ele>198</ele>
        <time>2018-02-09T11:09:31Z</time>
      </trkpt>
      <trkpt lat="46.04331" lon="4.76575">
        <ele>198</ele>
        <time>2018-02-09T11:09:33Z</time>
      </trkpt>
      <trkpt lat="46.04326" lon="4.76576">
        <ele>198</ele>
        <time>2018-02-09T11:09:34Z</time>
      </trkpt>
      <trkpt lat="46.04319" lon="4.76576">
        <ele>198</ele>
        <time>2018-02-09T11:09:36Z</time>
      </trkpt>
      <trkpt lat="46.04316" lon="4.76576">
        <ele>197</ele>
        <time>2018-02-09T11:09:37Z</time>
      </trkpt>
      <trkpt lat="46.04313" lon="4.76576">
        <ele>197</ele>
        <time>2018-02-09T11:09:38Z</time>
      </trkpt>
      <trkpt lat="46.043" lon="4.7658">
        <ele>197</ele>
        <time>2018-02-09T11:09:39Z</time>
      </trkpt>
      <trkpt lat="46.04294" lon="4.76582">
        <ele>197</ele>
        <time>2018-02-09T11:09:42Z</time>
      </trkpt>
      <trkpt lat="46.04291" lon="4.76583">
        <ele>197</ele>
        <time>2018-02-09T11:09:43Z</time>
      </trkpt>
      <trkpt lat="46.04284" lon="4.76583">
        <ele>197</ele>
        <time>2018-02-09T11:09:44Z</time>
      </trkpt>
      <trkpt lat="46.04279" lon="4.76584">
        <ele>198</ele>
        <time>2018-02-09T11:09:45Z</time>
      </trkpt>
      <trkpt lat="46.04271" lon="4.76585">
        <ele>197</ele>
        <time>2018-02-09T11:09:47Z</time>
      </trkpt>
      <trkpt lat="46.04269" lon="4.76586">
        <ele>197</ele>
        <time>2018-02-09T11:09:48Z</time>
      </trkpt>
      <trkpt lat="46.04264" lon="4.76587">
        <ele>197</ele>
        <time>2018-02-09T11:09:49Z</time>
      </trkpt>
      <trkpt lat="46.04259" lon="4.76587">
        <ele>197</ele>
        <time>2018-02-09T11:09:50Z</time>
      </trkpt>
      <trkpt lat="46.04255" lon="4.76586">
        <ele>197</ele>
        <time>2018-02-09T11:09:52Z</time>
      </trkpt>
      <trkpt lat="46.0425" lon="4.76588">
        <ele>197</ele>
        <time>2018-02-09T11:09:53Z</time>
      </trkpt>
      <trkpt lat="46.04242" lon="4.76588">
        <ele>197</ele>
        <time>2018-02-09T11:09:55Z</time>
      </trkpt>
      <trkpt lat="46.04238" lon="4.76588">
        <ele>197</ele>
        <time>2018-02-09T11:09:56Z</time>
      </trkpt>
      <trkpt lat="46.0423" lon="4.76588">
        <ele>198</ele>
        <time>2018-02-09T11:09:58Z</time>
      </trkpt>
      <trkpt lat="46.04225" lon="4.76588">
        <ele>198</ele>
        <time>2018-02-09T11:09:59Z</time>
      </trkpt>
      <trkpt lat="46.0422" lon="4.76589">
        <ele>198</ele>
        <time>2018-02-09T11:10:00Z</time>
      </trkpt>
      <trkpt lat="46.04216" lon="4.7659">
        <ele>198</ele>
        <time>2018-02-09T11:10:01Z</time>
      </trkpt>
      <trkpt lat="46.04208" lon="4.76592">
        <ele>198</ele>
        <time>2018-02-09T11:10:03Z</time>
      </trkpt>
      <trkpt lat="46.04204" lon="4.76594">
        <ele>198</ele>
        <time>2018-02-09T11:10:04Z</time>
      </trkpt>
      <trkpt lat="46.04196" lon="4.76598">
        <ele>198</ele>
        <time>2018-02-09T11:10:07Z</time>
      </trkpt>
      <trkpt lat="46.04193" lon="4.76599">
        <ele>198</ele>
        <time>2018-02-09T11:10:08Z</time>
      </trkpt>
      <trkpt lat="46.04186" lon="4.76605">
        <ele>198</ele>
        <time>2018-02-09T11:10:10Z</time>
      </trkpt>
      <trkpt lat="46.04183" lon="4.76608">
        <ele>198</ele>
        <time>2018-02-09T11:10:11Z</time>
      </trkpt>
      <trkpt lat="46.04179" lon="4.76611">
        <ele>198</ele>
        <time>2018-02-09T11:10:12Z</time>
      </trkpt>
      <trkpt lat="46.04175" lon="4.76614">
        <ele>198</ele>
        <time>2018-02-09T11:10:13Z</time>
      </trkpt>
      <trkpt lat="46.04168" lon="4.76618">
        <ele>198</ele>
        <time>2018-02-09T11:10:15Z</time>
      </trkpt>
      <trkpt lat="46.04165" lon="4.76621">
        <ele>199</ele>
        <time>2018-02-09T11:10:16Z</time>
      </trkpt>
      <trkpt lat="46.04159" lon="4.76627">
        <ele>199</ele>
        <time>2018-02-09T11:10:18Z</time>
      </trkpt>
      <trkpt lat="46.04157" lon="4.7663">
        <ele>200</ele>
        <time>2018-02-09T11:10:19Z</time>
      </trkpt>
      <trkpt lat="46.0415" lon="4.76635">
        <ele>200</ele>
        <time>2018-02-09T11:10:21Z</time>
      </trkpt>
      <trkpt lat="46.04146" lon="4.76637">
        <ele>200</ele>
        <time>2018-02-09T11:10:22Z</time>
      </trkpt>
      <trkpt lat="46.04138" lon="4.76641">
        <ele>200</ele>
        <time>2018-02-09T11:10:24Z</time>
      </trkpt>
      <trkpt lat="46.04134" lon="4.76643">
        <ele>200</ele>
        <time>2018-02-09T11:10:25Z</time>
      </trkpt>
      <trkpt lat="46.04126" lon="4.76647">
        <ele>200</ele>
        <time>2018-02-09T11:10:27Z</time>
      </trkpt>
      <trkpt lat="46.04123" lon="4.76648">
        <ele>200</ele>
        <time>2018-02-09T11:10:28Z</time>
      </trkpt>
      <trkpt lat="46.04116" lon="4.7665">
        <ele>200</ele>
        <time>2018-02-09T11:10:30Z</time>
      </trkpt>
      <trkpt lat="46.04113" lon="4.76651">
        <ele>200</ele>
        <time>2018-02-09T11:10:31Z</time>
      </trkpt>
      <trkpt lat="46.04107" lon="4.76651">
        <ele>200</ele>
        <time>2018-02-09T11:10:33Z</time>
      </trkpt>
      <trkpt lat="46.04103" lon="4.7665">
        <ele>200</ele>
        <time>2018-02-09T11:10:34Z</time>
      </trkpt>
      <trkpt lat="46.04097" lon="4.76651">
        <ele>201</ele>
        <time>2018-02-09T11:10:36Z</time>
      </trkpt>
      <trkpt lat="46.04094" lon="4.76652">
        <ele>201</ele>
        <time>2018-02-09T11:10:37Z</time>
      </trkpt>
      <trkpt lat="46.04087" lon="4.76654">
        <ele>201</ele>
        <time>2018-02-09T11:10:39Z</time>
      </trkpt>
      <trkpt lat="46.04085" lon="4.76655">
        <ele>201</ele>
        <time>2018-02-09T11:10:40Z</time>
      </trkpt>
      <trkpt lat="46.04078" lon="4.76656">
        <ele>202</ele>
        <time>2018-02-09T11:10:42Z</time>
      </trkpt>
      <trkpt lat="46.04074" lon="4.76657">
        <ele>201</ele>
        <time>2018-02-09T11:10:43Z</time>
      </trkpt>
      <trkpt lat="46.04066" lon="4.76657">
        <ele>201</ele>
        <time>2018-02-09T11:10:45Z</time>
      </trkpt>
      <trkpt lat="46.04062" lon="4.76657">
        <ele>201</ele>
        <time>2018-02-09T11:10:46Z</time>
      </trkpt>
      <trkpt lat="46.04054" lon="4.76657">
        <ele>201</ele>
        <time>2018-02-09T11:10:48Z</time>
      </trkpt>
      <trkpt lat="46.04049" lon="4.76656">
        <ele>201</ele>
        <time>2018-02-09T11:10:49Z</time>
      </trkpt>
      <trkpt lat="46.04044" lon="4.76656">
        <ele>201</ele>
        <time>2018-02-09T11:10:50Z</time>
      </trkpt>
      <trkpt lat="46.0404" lon="4.76656">
        <ele>201</ele>
        <time>2018-02-09T11:10:51Z</time>
      </trkpt>
      <trkpt lat="46.04032" lon="4.76658">
        <ele>201</ele>
        <time>2018-02-09T11:10:53Z</time>
      </trkpt>
      <trkpt lat="46.04028" lon="4.76659">
        <ele>201</ele>
        <time>2018-02-09T11:10:54Z</time>
      </trkpt>
      <trkpt lat="46.04021" lon="4.7666">
        <ele>201</ele>
        <time>2018-02-09T11:10:56Z</time>
      </trkpt>
      <trkpt lat="46.04017" lon="4.76661">
        <ele>201</ele>
        <time>2018-02-09T11:10:57Z</time>
      </trkpt>
      <trkpt lat="46.04008" lon="4.76662">
        <ele>202</ele>
        <time>2018-02-09T11:10:59Z</time>
      </trkpt>
      <trkpt lat="46.04004" lon="4.76663">
        <ele>202</ele>
        <time>2018-02-09T11:11:00Z</time>
      </trkpt>
      <trkpt lat="46.03996" lon="4.76664">
        <ele>202</ele>
        <time>2018-02-09T11:11:02Z</time>
      </trkpt>
      <trkpt lat="46.03992" lon="4.76665">
        <ele>202</ele>
        <time>2018-02-09T11:11:03Z</time>
      </trkpt>
      <trkpt lat="46.03984" lon="4.76665">
        <ele>202</ele>
        <time>2018-02-09T11:11:05Z</time>
      </trkpt>
      <trkpt lat="46.0398" lon="4.76665">
        <ele>202</ele>
        <time>2018-02-09T11:11:06Z</time>
      </trkpt>
      <trkpt lat="46.03972" lon="4.76667">
        <ele>203</ele>
        <time>2018-02-09T11:11:08Z</time>
      </trkpt>
      <trkpt lat="46.03968" lon="4.76668">
        <ele>203</ele>
        <time>2018-02-09T11:11:09Z</time>
      </trkpt>
      <trkpt lat="46.03961" lon="4.7667">
        <ele>203</ele>
        <time>2018-02-09T11:11:11Z</time>
      </trkpt>
      <trkpt lat="46.03957" lon="4.76671">
        <ele>204</ele>
        <time>2018-02-09T11:11:12Z</time>
      </trkpt>
      <trkpt lat="46.03949" lon="4.76675">
        <ele>204</ele>
        <time>2018-02-09T11:11:14Z</time>
      </trkpt>
      <trkpt lat="46.03945" lon="4.76676">
        <ele>204</ele>
        <time>2018-02-09T11:11:15Z</time>
      </trkpt>
      <trkpt lat="46.03936" lon="4.76679">
        <ele>204</ele>
        <time>2018-02-09T11:11:17Z</time>
      </trkpt>
      <trkpt lat="46.03932" lon="4.76681">
        <ele>204</ele>
        <time>2018-02-09T11:11:18Z</time>
      </trkpt>
      <trkpt lat="46.03924" lon="4.76684">
        <ele>204</ele>
        <time>2018-02-09T11:11:20Z</time>
      </trkpt>
      <trkpt lat="46.03919" lon="4.76686">
        <ele>204</ele>
        <time>2018-02-09T11:11:21Z</time>
      </trkpt>
      <trkpt lat="46.03912" lon="4.76688">
        <ele>205</ele>
        <time>2018-02-09T11:11:23Z</time>
      </trkpt>
      <trkpt lat="46.03908" lon="4.7669">
        <ele>205</ele>
        <time>2018-02-09T11:11:24Z</time>
      </trkpt>
      <trkpt lat="46.039" lon="4.76692">
        <ele>205</ele>
        <time>2018-02-09T11:11:26Z</time>
      </trkpt>
      <trkpt lat="46.03897" lon="4.76693">
        <ele>205</ele>
        <time>2018-02-09T11:11:27Z</time>
      </trkpt>
      <trkpt lat="46.03889" lon="4.76695">
        <ele>205</ele>
        <time>2018-02-09T11:11:29Z</time>
      </trkpt>
      <trkpt lat="46.03885" lon="4.76696">
        <ele>205</ele>
        <time>2018-02-09T11:11:30Z</time>
      </trkpt>
      <trkpt lat="46.03878" lon="4.76697">
        <ele>205</ele>
        <time>2018-02-09T11:11:32Z</time>
      </trkpt>
      <trkpt lat="46.03875" lon="4.76697">
        <ele>205</ele>
        <time>2018-02-09T11:11:33Z</time>
      </trkpt>
      <trkpt lat="46.03867" lon="4.76698">
        <ele>205</ele>
        <time>2018-02-09T11:11:35Z</time>
      </trkpt>
      <trkpt lat="46.03863" lon="4.76699">
        <ele>205</ele>
        <time>2018-02-09T11:11:36Z</time>
      </trkpt>
      <trkpt lat="46.03858" lon="4.76702">
        <ele>205</ele>
        <time>2018-02-09T11:11:37Z</time>
      </trkpt>
      <trkpt lat="46.0385" lon="4.76707">
        <ele>205</ele>
        <time>2018-02-09T11:11:38Z</time>
      </trkpt>
      <trkpt lat="46.03842" lon="4.76708">
        <ele>205</ele>
        <time>2018-02-09T11:11:40Z</time>
      </trkpt>
      <trkpt lat="46.0384" lon="4.7671">
        <ele>205</ele>
        <time>2018-02-09T11:11:41Z</time>
      </trkpt>
      <trkpt lat="46.03833" lon="4.7671">
        <ele>205</ele>
        <time>2018-02-09T11:11:43Z</time>
      </trkpt>
      <trkpt lat="46.03829" lon="4.7671">
        <ele>205</ele>
        <time>2018-02-09T11:11:44Z</time>
      </trkpt>
      <trkpt lat="46.03824" lon="4.7671">
        <ele>205</ele>
        <time>2018-02-09T11:11:45Z</time>
      </trkpt>
      <trkpt lat="46.0382" lon="4.76709">
        <ele>205</ele>
        <time>2018-02-09T11:11:46Z</time>
      </trkpt>
      <trkpt lat="46.03811" lon="4.76711">
        <ele>205</ele>
        <time>2018-02-09T11:11:48Z</time>
      </trkpt>
      <trkpt lat="46.03806" lon="4.76711">
        <ele>205</ele>
        <time>2018-02-09T11:11:49Z</time>
      </trkpt>
      <trkpt lat="46.038" lon="4.76711">
        <ele>205</ele>
        <time>2018-02-09T11:11:50Z</time>
      </trkpt>
      <trkpt lat="46.03796" lon="4.76711">
        <ele>205</ele>
        <time>2018-02-09T11:11:51Z</time>
      </trkpt>
      <trkpt lat="46.03789" lon="4.76714">
        <ele>205</ele>
        <time>2018-02-09T11:11:53Z</time>
      </trkpt>
      <trkpt lat="46.03785" lon="4.76714">
        <ele>205</ele>
        <time>2018-02-09T11:11:54Z</time>
      </trkpt>
      <trkpt lat="46.03779" lon="4.76713">
        <ele>205</ele>
        <time>2018-02-09T11:11:55Z</time>
      </trkpt>
      <trkpt lat="46.03775" lon="4.76712">
        <ele>205</ele>
        <time>2018-02-09T11:11:56Z</time>
      </trkpt>
      <trkpt lat="46.03768" lon="4.76711">
        <ele>205</ele>
        <time>2018-02-09T11:11:57Z</time>
      </trkpt>
      <trkpt lat="46.03764" lon="4.76706">
        <ele>205</ele>
        <time>2018-02-09T11:11:58Z</time>
      </trkpt>
      <trkpt lat="46.03756" lon="4.76703">
        <ele>205</ele>
        <time>2018-02-09T11:12:00Z</time>
      </trkpt>
      <trkpt lat="46.0375" lon="4.76702">
        <ele>205</ele>
        <time>2018-02-09T11:12:01Z</time>
      </trkpt>
      <trkpt lat="46.03744" lon="4.76702">
        <ele>205</ele>
        <time>2018-02-09T11:12:02Z</time>
      </trkpt>
      <trkpt lat="46.0374" lon="4.76701">
        <ele>205</ele>
        <time>2018-02-09T11:12:03Z</time>
      </trkpt>
      <trkpt lat="46.03735" lon="4.767">
        <ele>205</ele>
        <time>2018-02-09T11:12:04Z</time>
      </trkpt>
      <trkpt lat="46.03731" lon="4.76697">
        <ele>205</ele>
        <time>2018-02-09T11:12:05Z</time>
      </trkpt>
      <trkpt lat="46.03724" lon="4.76697">
        <ele>205</ele>
        <time>2018-02-09T11:12:06Z</time>
      </trkpt>
      <trkpt lat="46.0372" lon="4.76696">
        <ele>205</ele>
        <time>2018-02-09T11:12:07Z</time>
      </trkpt>
      <trkpt lat="46.03713" lon="4.76688">
        <ele>205</ele>
        <time>2018-02-09T11:12:09Z</time>
      </trkpt>
      <trkpt lat="46.03709" lon="4.76686">
        <ele>205</ele>
        <time>2018-02-09T11:12:10Z</time>
      </trkpt>
      <trkpt lat="46.03703" lon="4.76683">
        <ele>205</ele>
        <time>2018-02-09T11:12:11Z</time>
      </trkpt>
      <trkpt lat="46.03699" lon="4.76678">
        <ele>205</ele>
        <time>2018-02-09T11:12:12Z</time>
      </trkpt>
      <trkpt lat="46.03695" lon="4.76675">
        <ele>205</ele>
        <time>2018-02-09T11:12:13Z</time>
      </trkpt>
      <trkpt lat="46.03691" lon="4.76671">
        <ele>205</ele>
        <time>2018-02-09T11:12:14Z</time>
      </trkpt>
      <trkpt lat="46.03688" lon="4.76664">
        <ele>204</ele>
        <time>2018-02-09T11:12:15Z</time>
      </trkpt>
      <trkpt lat="46.03684" lon="4.76659">
        <ele>204</ele>
        <time>2018-02-09T11:12:16Z</time>
      </trkpt>
      <trkpt lat="46.03682" lon="4.76652">
        <ele>204</ele>
        <time>2018-02-09T11:12:17Z</time>
      </trkpt>
      <trkpt lat="46.03682" lon="4.76646">
        <ele>204</ele>
        <time>2018-02-09T11:12:18Z</time>
      </trkpt>
      <trkpt lat="46.03682" lon="4.76638">
        <ele>204</ele>
        <time>2018-02-09T11:12:19Z</time>
      </trkpt>
      <trkpt lat="46.03681" lon="4.76631">
        <ele>203</ele>
        <time>2018-02-09T11:12:20Z</time>
      </trkpt>
      <trkpt lat="46.03678" lon="4.76623">
        <ele>203</ele>
        <time>2018-02-09T11:12:21Z</time>
      </trkpt>
      <trkpt lat="46.03675" lon="4.76614">
        <ele>203</ele>
        <time>2018-02-09T11:12:22Z</time>
      </trkpt>
      <trkpt lat="46.03669" lon="4.76606">
        <ele>203</ele>
        <time>2018-02-09T11:12:23Z</time>
      </trkpt>
      <trkpt lat="46.03665" lon="4.76596">
        <ele>202</ele>
        <time>2018-02-09T11:12:24Z</time>
      </trkpt>
      <trkpt lat="46.0366" lon="4.76589">
        <ele>202</ele>
        <time>2018-02-09T11:12:25Z</time>
      </trkpt>
      <trkpt lat="46.03656" lon="4.76585">
        <ele>202</ele>
        <time>2018-02-09T11:12:26Z</time>
      </trkpt>
      <trkpt lat="46.03651" lon="4.76579">
        <ele>201</ele>
        <time>2018-02-09T11:12:27Z</time>
      </trkpt>
      <trkpt lat="46.03647" lon="4.76572">
        <ele>201</ele>
        <time>2018-02-09T11:12:28Z</time>
      </trkpt>
      <trkpt lat="46.03642" lon="4.76565">
        <ele>201</ele>
        <time>2018-02-09T11:12:29Z</time>
      </trkpt>
      <trkpt lat="46.03636" lon="4.76558">
        <ele>201</ele>
        <time>2018-02-09T11:12:30Z</time>
      </trkpt>
      <trkpt lat="46.03633" lon="4.76549">
        <ele>200</ele>
        <time>2018-02-09T11:12:31Z</time>
      </trkpt>
      <trkpt lat="46.03629" lon="4.7654">
        <ele>200</ele>
        <time>2018-02-09T11:12:32Z</time>
      </trkpt>
      <trkpt lat="46.03624" lon="4.76532">
        <ele>200</ele>
        <time>2018-02-09T11:12:33Z</time>
      </trkpt>
      <trkpt lat="46.03623" lon="4.76522">
        <ele>200</ele>
        <time>2018-02-09T11:12:34Z</time>
      </trkpt>
      <trkpt lat="46.03619" lon="4.76513">
        <ele>200</ele>
        <time>2018-02-09T11:12:35Z</time>
      </trkpt>
      <trkpt lat="46.03617" lon="4.76503">
        <ele>200</ele>
        <time>2018-02-09T11:12:36Z</time>
      </trkpt>
      <trkpt lat="46.03614" lon="4.76495">
        <ele>199</ele>
        <time>2018-02-09T11:12:37Z</time>
      </trkpt>
      <trkpt lat="46.03609" lon="4.76489">
        <ele>199</ele>
        <time>2018-02-09T11:12:38Z</time>
      </trkpt>
      <trkpt lat="46.03606" lon="4.7648">
        <ele>199</ele>
        <time>2018-02-09T11:12:39Z</time>
      </trkpt>
      <trkpt lat="46.03603" lon="4.76473">
        <ele>199</ele>
        <time>2018-02-09T11:12:40Z</time>
      </trkpt>
      <trkpt lat="46.03598" lon="4.76471">
        <ele>199</ele>
        <time>2018-02-09T11:12:41Z</time>
      </trkpt>
      <trkpt lat="46.03594" lon="4.76465">
        <ele>199</ele>
        <time>2018-02-09T11:12:42Z</time>
      </trkpt>
      <trkpt lat="46.0359" lon="4.76456">
        <ele>199</ele>
        <time>2018-02-09T11:12:43Z</time>
      </trkpt>
      <trkpt lat="46.03593" lon="4.76448">
        <ele>199</ele>
        <time>2018-02-09T11:12:44Z</time>
      </trkpt>
      <trkpt lat="46.03592" lon="4.76441">
        <ele>199</ele>
        <time>2018-02-09T11:12:45Z</time>
      </trkpt>
      <trkpt lat="46.03591" lon="4.76433">
        <ele>199</ele>
        <time>2018-02-09T11:12:46Z</time>
      </trkpt>
      <trkpt lat="46.03591" lon="4.76425">
        <ele>199</ele>
        <time>2018-02-09T11:12:47Z</time>
      </trkpt>
      <trkpt lat="46.03591" lon="4.76417">
        <ele>198</ele>
        <time>2018-02-09T11:12:48Z</time>
      </trkpt>
      <trkpt lat="46.03593" lon="4.76407">
        <ele>198</ele>
        <time>2018-02-09T11:12:49Z</time>
      </trkpt>
      <trkpt lat="46.03594" lon="4.76398">
        <ele>198</ele>
        <time>2018-02-09T11:12:50Z</time>
      </trkpt>
      <trkpt lat="46.03595" lon="4.7639">
        <ele>197</ele>
        <time>2018-02-09T11:12:51Z</time>
      </trkpt>
      <trkpt lat="46.03593" lon="4.76381">
        <ele>197</ele>
        <time>2018-02-09T11:12:52Z</time>
      </trkpt>
      <trkpt lat="46.03595" lon="4.76373">
        <ele>197</ele>
        <time>2018-02-09T11:12:53Z</time>
      </trkpt>
      <trkpt lat="46.03598" lon="4.76359">
        <ele>196</ele>
        <time>2018-02-09T11:12:54Z</time>
      </trkpt>
      <trkpt lat="46.03599" lon="4.7635">
        <ele>196</ele>
        <time>2018-02-09T11:12:55Z</time>
      </trkpt>
      <trkpt lat="46.036" lon="4.7634">
        <ele>196</ele>
        <time>2018-02-09T11:12:56Z</time>
      </trkpt>
      <trkpt lat="46.03602" lon="4.76331">
        <ele>195</ele>
        <time>2018-02-09T11:12:57Z</time>
      </trkpt>
      <trkpt lat="46.03602" lon="4.76321">
        <ele>195</ele>
        <time>2018-02-09T11:12:58Z</time>
      </trkpt>
      <trkpt lat="46.03603" lon="4.76311">
        <ele>195</ele>
        <time>2018-02-09T11:12:59Z</time>
      </trkpt>
      <trkpt lat="46.03605" lon="4.76303">
        <ele>195</ele>
        <time>2018-02-09T11:13:00Z</time>
      </trkpt>
      <trkpt lat="46.03605" lon="4.76294">
        <ele>195</ele>
        <time>2018-02-09T11:13:01Z</time>
      </trkpt>
      <trkpt lat="46.03606" lon="4.76285">
        <ele>194</ele>
        <time>2018-02-09T11:13:02Z</time>
      </trkpt>
      <trkpt lat="46.03608" lon="4.76271">
        <ele>194</ele>
        <time>2018-02-09T11:13:03Z</time>
      </trkpt>
      <trkpt lat="46.0361" lon="4.76262">
        <ele>194</ele>
        <time>2018-02-09T11:13:04Z</time>
      </trkpt>
      <trkpt lat="46.03611" lon="4.76254">
        <ele>194</ele>
        <time>2018-02-09T11:13:05Z</time>
      </trkpt>
      <trkpt lat="46.03612" lon="4.76246">
        <ele>193</ele>
        <time>2018-02-09T11:13:06Z</time>
      </trkpt>
      <trkpt lat="46.03614" lon="4.76237">
        <ele>193</ele>
        <time>2018-02-09T11:13:07Z</time>
      </trkpt>
      <trkpt lat="46.03615" lon="4.76229">
        <ele>193</ele>
        <time>2018-02-09T11:13:08Z</time>
      </trkpt>
      <trkpt lat="46.03616" lon="4.7622">
        <ele>193</ele>
        <time>2018-02-09T11:13:09Z</time>
      </trkpt>
      <trkpt lat="46.03618" lon="4.76212">
        <ele>193</ele>
        <time>2018-02-09T11:13:10Z</time>
      </trkpt>
      <trkpt lat="46.03619" lon="4.76204">
        <ele>193</ele>
        <time>2018-02-09T11:13:11Z</time>
      </trkpt>
      <trkpt lat="46.03621" lon="4.76196">
        <ele>193</ele>
        <time>2018-02-09T11:13:12Z</time>
      </trkpt>
      <trkpt lat="46.03622" lon="4.76187">
        <ele>193</ele>
        <time>2018-02-09T11:13:13Z</time>
      </trkpt>
      <trkpt lat="46.03623" lon="4.76179">
        <ele>193</ele>
        <time>2018-02-09T11:13:14Z</time>
      </trkpt>
      <trkpt lat="46.03626" lon="4.76167">
        <ele>192</ele>
        <time>2018-02-09T11:13:15Z</time>
      </trkpt>
      <trkpt lat="46.03625" lon="4.7616">
        <ele>192</ele>
        <time>2018-02-09T11:13:16Z</time>
      </trkpt>
      <trkpt lat="46.03626" lon="4.76151">
        <ele>192</ele>
        <time>2018-02-09T11:13:17Z</time>
      </trkpt>
      <trkpt lat="46.03625" lon="4.76142">
        <ele>192</ele>
        <time>2018-02-09T11:13:18Z</time>
      </trkpt>
      <trkpt lat="46.03626" lon="4.76133">
        <ele>192</ele>
        <time>2018-02-09T11:13:19Z</time>
      </trkpt>
      <trkpt lat="46.03626" lon="4.76125">
        <ele>192</ele>
        <time>2018-02-09T11:13:20Z</time>
      </trkpt>
      <trkpt lat="46.03625" lon="4.76118">
        <ele>192</ele>
        <time>2018-02-09T11:13:21Z</time>
      </trkpt>
      <trkpt lat="46.03624" lon="4.7611">
        <ele>192</ele>
        <time>2018-02-09T11:13:22Z</time>
      </trkpt>
      <trkpt lat="46.03623" lon="4.76102">
        <ele>192</ele>
        <time>2018-02-09T11:13:23Z</time>
      </trkpt>
      <trkpt lat="46.03623" lon="4.76092">
        <ele>192</ele>
        <time>2018-02-09T11:13:24Z</time>
      </trkpt>
      <trkpt lat="46.03622" lon="4.76083">
        <ele>191</ele>
        <time>2018-02-09T11:13:25Z</time>
      </trkpt>
      <trkpt lat="46.0362" lon="4.76075">
        <ele>191</ele>
        <time>2018-02-09T11:13:26Z</time>
      </trkpt>
      <trkpt lat="46.03621" lon="4.76067">
        <ele>191</ele>
        <time>2018-02-09T11:13:27Z</time>
      </trkpt>
      <trkpt lat="46.03619" lon="4.7606">
        <ele>191</ele>
        <time>2018-02-09T11:13:28Z</time>
      </trkpt>
      <trkpt lat="46.03617" lon="4.76053">
        <ele>191</ele>
        <time>2018-02-09T11:13:29Z</time>
      </trkpt>
      <trkpt lat="46.03613" lon="4.76042">
        <ele>191</ele>
        <time>2018-02-09T11:13:31Z</time>
      </trkpt>
      <trkpt lat="46.03611" lon="4.76037">
        <ele>191</ele>
        <time>2018-02-09T11:13:32Z</time>
      </trkpt>
      <trkpt lat="46.03609" lon="4.7603">
        <ele>191</ele>
        <time>2018-02-09T11:13:33Z</time>
      </trkpt>
      <trkpt lat="46.03607" lon="4.76021">
        <ele>191</ele>
        <time>2018-02-09T11:13:34Z</time>
      </trkpt>
      <trkpt lat="46.03605" lon="4.76016">
        <ele>191</ele>
        <time>2018-02-09T11:13:35Z</time>
      </trkpt>
      <trkpt lat="46.03603" lon="4.76009">
        <ele>191</ele>
        <time>2018-02-09T11:13:36Z</time>
      </trkpt>
      <trkpt lat="46.03601" lon="4.76001">
        <ele>191</ele>
        <time>2018-02-09T11:13:37Z</time>
      </trkpt>
      <trkpt lat="46.03599" lon="4.75995">
        <ele>190</ele>
        <time>2018-02-09T11:13:38Z</time>
      </trkpt>
      <trkpt lat="46.03596" lon="4.75988">
        <ele>190</ele>
        <time>2018-02-09T11:13:39Z</time>
      </trkpt>
      <trkpt lat="46.03594" lon="4.75981">
        <ele>190</ele>
        <time>2018-02-09T11:13:40Z</time>
      </trkpt>
      <trkpt lat="46.03592" lon="4.75973">
        <ele>190</ele>
        <time>2018-02-09T11:13:41Z</time>
      </trkpt>
      <trkpt lat="46.03589" lon="4.75966">
        <ele>190</ele>
        <time>2018-02-09T11:13:42Z</time>
      </trkpt>
      <trkpt lat="46.03587" lon="4.75959">
        <ele>190</ele>
        <time>2018-02-09T11:13:43Z</time>
      </trkpt>
      <trkpt lat="46.03583" lon="4.75953">
        <ele>190</ele>
        <time>2018-02-09T11:13:44Z</time>
      </trkpt>
      <trkpt lat="46.0358" lon="4.75947">
        <ele>190</ele>
        <time>2018-02-09T11:13:45Z</time>
      </trkpt>
      <trkpt lat="46.03577" lon="4.75941">
        <ele>190</ele>
        <time>2018-02-09T11:13:46Z</time>
      </trkpt>
      <trkpt lat="46.03575" lon="4.75934">
        <ele>190</ele>
        <time>2018-02-09T11:13:47Z</time>
      </trkpt>
      <trkpt lat="46.03573" lon="4.75927">
        <ele>189</ele>
        <time>2018-02-09T11:13:48Z</time>
      </trkpt>
      <trkpt lat="46.0357" lon="4.7592">
        <ele>189</ele>
        <time>2018-02-09T11:13:49Z</time>
      </trkpt>
      <trkpt lat="46.03567" lon="4.75914">
        <ele>189</ele>
        <time>2018-02-09T11:13:50Z</time>
      </trkpt>
      <trkpt lat="46.03563" lon="4.75905">
        <ele>189</ele>
        <time>2018-02-09T11:13:51Z</time>
      </trkpt>
      <trkpt lat="46.0356" lon="4.75899">
        <ele>189</ele>
        <time>2018-02-09T11:13:52Z</time>
      </trkpt>
      <trkpt lat="46.03557" lon="4.75893">
        <ele>189</ele>
        <time>2018-02-09T11:13:53Z</time>
      </trkpt>
      <trkpt lat="46.03554" lon="4.75887">
        <ele>189</ele>
        <time>2018-02-09T11:13:54Z</time>
      </trkpt>
      <trkpt lat="46.03548" lon="4.7588">
        <ele>189</ele>
        <time>2018-02-09T11:13:55Z</time>
      </trkpt>
      <trkpt lat="46.03541" lon="4.75874">
        <ele>190</ele>
        <time>2018-02-09T11:13:56Z</time>
      </trkpt>
      <trkpt lat="46.03539" lon="4.75866">
        <ele>190</ele>
        <time>2018-02-09T11:13:57Z</time>
      </trkpt>
      <trkpt lat="46.03537" lon="4.7586">
        <ele>190</ele>
        <time>2018-02-09T11:13:58Z</time>
      </trkpt>
      <trkpt lat="46.03535" lon="4.75853">
        <ele>190</ele>
        <time>2018-02-09T11:13:59Z</time>
      </trkpt>
      <trkpt lat="46.0353" lon="4.75847">
        <ele>190</ele>
        <time>2018-02-09T11:14:00Z</time>
      </trkpt>
      <trkpt lat="46.03527" lon="4.7584">
        <ele>190</ele>
        <time>2018-02-09T11:14:01Z</time>
      </trkpt>
      <trkpt lat="46.03523" lon="4.75833">
        <ele>190</ele>
        <time>2018-02-09T11:14:02Z</time>
      </trkpt>
      <trkpt lat="46.03519" lon="4.75823">
        <ele>190</ele>
        <time>2018-02-09T11:14:04Z</time>
      </trkpt>
      <trkpt lat="46.03516" lon="4.75816">
        <ele>190</ele>
        <time>2018-02-09T11:14:05Z</time>
      </trkpt>
      <trkpt lat="46.03515" lon="4.75809">
        <ele>189</ele>
        <time>2018-02-09T11:14:06Z</time>
      </trkpt>
      <trkpt lat="46.03513" lon="4.75804">
        <ele>189</ele>
        <time>2018-02-09T11:14:07Z</time>
      </trkpt>
      <trkpt lat="46.03509" lon="4.75797">
        <ele>189</ele>
        <time>2018-02-09T11:14:08Z</time>
      </trkpt>
      <trkpt lat="46.03503" lon="4.7579">
        <ele>189</ele>
        <time>2018-02-09T11:14:09Z</time>
      </trkpt>
      <trkpt lat="46.035" lon="4.75783">
        <ele>190</ele>
        <time>2018-02-09T11:14:10Z</time>
      </trkpt>
      <trkpt lat="46.03495" lon="4.75774">
        <ele>189</ele>
        <time>2018-02-09T11:14:11Z</time>
      </trkpt>
      <trkpt lat="46.03493" lon="4.75767">
        <ele>189</ele>
        <time>2018-02-09T11:14:12Z</time>
      </trkpt>
      <trkpt lat="46.0349" lon="4.75759">
        <ele>189</ele>
        <time>2018-02-09T11:14:13Z</time>
      </trkpt>
      <trkpt lat="46.03486" lon="4.75749">
        <ele>189</ele>
        <time>2018-02-09T11:14:14Z</time>
      </trkpt>
      <trkpt lat="46.03485" lon="4.75745">
        <ele>189</ele>
        <time>2018-02-09T11:14:15Z</time>
      </trkpt>
      <trkpt lat="46.03481" lon="4.75742">
        <ele>189</ele>
        <time>2018-02-09T11:14:16Z</time>
      </trkpt>
      <trkpt lat="46.03474" lon="4.75735">
        <ele>189</ele>
        <time>2018-02-09T11:14:17Z</time>
      </trkpt>
      <trkpt lat="46.03477" lon="4.75723">
        <ele>189</ele>
        <time>2018-02-09T11:14:18Z</time>
      </trkpt>
      <trkpt lat="46.03474" lon="4.75713">
        <ele>189</ele>
        <time>2018-02-09T11:14:19Z</time>
      </trkpt>
      <trkpt lat="46.03469" lon="4.75707">
        <ele>189</ele>
        <time>2018-02-09T11:14:20Z</time>
      </trkpt>
      <trkpt lat="46.03467" lon="4.75699">
        <ele>189</ele>
        <time>2018-02-09T11:14:21Z</time>
      </trkpt>
      <trkpt lat="46.03464" lon="4.75693">
        <ele>189</ele>
        <time>2018-02-09T11:14:22Z</time>
      </trkpt>
      <trkpt lat="46.03462" lon="4.75685">
        <ele>189</ele>
        <time>2018-02-09T11:14:23Z</time>
      </trkpt>
      <trkpt lat="46.03458" lon="4.75678">
        <ele>189</ele>
        <time>2018-02-09T11:14:24Z</time>
      </trkpt>
      <trkpt lat="46.03456" lon="4.75672">
        <ele>189</ele>
        <time>2018-02-09T11:14:25Z</time>
      </trkpt>
      <trkpt lat="46.03455" lon="4.75668">
        <ele>189</ele>
        <time>2018-02-09T11:14:26Z</time>
      </trkpt>
      <trkpt lat="46.03452" lon="4.7566">
        <ele>188</ele>
        <time>2018-02-09T11:14:27Z</time>
      </trkpt>
      <trkpt lat="46.03449" lon="4.75653">
        <ele>188</ele>
        <time>2018-02-09T11:14:28Z</time>
      </trkpt>
      <trkpt lat="46.03446" lon="4.75647">
        <ele>188</ele>
        <time>2018-02-09T11:14:29Z</time>
      </trkpt>
      <trkpt lat="46.03443" lon="4.75641">
        <ele>188</ele>
        <time>2018-02-09T11:14:30Z</time>
      </trkpt>
      <trkpt lat="46.03441" lon="4.75635">
        <ele>188</ele>
        <time>2018-02-09T11:14:31Z</time>
      </trkpt>
      <trkpt lat="46.03441" lon="4.75623">
        <ele>188</ele>
        <time>2018-02-09T11:14:45Z</time>
      </trkpt>
      <trkpt lat="46.03439" lon="4.7562">
        <ele>188</ele>
        <time>2018-02-09T11:14:46Z</time>
      </trkpt>
      <trkpt lat="46.0343" lon="4.75618">
        <ele>188</ele>
        <time>2018-02-09T11:14:49Z</time>
      </trkpt>
      <trkpt lat="46.03427" lon="4.75618">
        <ele>188</ele>
        <time>2018-02-09T11:14:50Z</time>
      </trkpt>
      <trkpt lat="46.0342" lon="4.75617">
        <ele>188</ele>
        <time>2018-02-09T11:14:52Z</time>
      </trkpt>
      <trkpt lat="46.03418" lon="4.75617">
        <ele>188</ele>
        <time>2018-02-09T11:14:53Z</time>
      </trkpt>
      <trkpt lat="46.0341" lon="4.75617">
        <ele>188</ele>
        <time>2018-02-09T11:14:55Z</time>
      </trkpt>
      <trkpt lat="46.03403" lon="4.75618">
        <ele>188</ele>
        <time>2018-02-09T11:14:56Z</time>
      </trkpt>
      <trkpt lat="46.03398" lon="4.7562">
        <ele>188</ele>
        <time>2018-02-09T11:14:57Z</time>
      </trkpt>
      <trkpt lat="46.03393" lon="4.75622">
        <ele>188</ele>
        <time>2018-02-09T11:14:58Z</time>
      </trkpt>
      <trkpt lat="46.03389" lon="4.75624">
        <ele>188</ele>
        <time>2018-02-09T11:14:59Z</time>
      </trkpt>
      <trkpt lat="46.03384" lon="4.75624">
        <ele>188</ele>
        <time>2018-02-09T11:15:00Z</time>
      </trkpt>
      <trkpt lat="46.03379" lon="4.75624">
        <ele>188</ele>
        <time>2018-02-09T11:15:01Z</time>
      </trkpt>
      <trkpt lat="46.03372" lon="4.75626">
        <ele>188</ele>
        <time>2018-02-09T11:15:02Z</time>
      </trkpt>
      <trkpt lat="46.03366" lon="4.75626">
        <ele>188</ele>
        <time>2018-02-09T11:15:03Z</time>
      </trkpt>
      <trkpt lat="46.03359" lon="4.75627">
        <ele>188</ele>
        <time>2018-02-09T11:15:04Z</time>
      </trkpt>
      <trkpt lat="46.03352" lon="4.75626">
        <ele>188</ele>
        <time>2018-02-09T11:15:05Z</time>
      </trkpt>
      <trkpt lat="46.03346" lon="4.75626">
        <ele>188</ele>
        <time>2018-02-09T11:15:06Z</time>
      </trkpt>
      <trkpt lat="46.0334" lon="4.75627">
        <ele>188</ele>
        <time>2018-02-09T11:15:07Z</time>
      </trkpt>
      <trkpt lat="46.03335" lon="4.75627">
        <ele>188</ele>
        <time>2018-02-09T11:15:08Z</time>
      </trkpt>
      <trkpt lat="46.03329" lon="4.75627">
        <ele>189</ele>
        <time>2018-02-09T11:15:09Z</time>
      </trkpt>
      <trkpt lat="46.03325" lon="4.75625">
        <ele>189</ele>
        <time>2018-02-09T11:15:10Z</time>
      </trkpt>
      <trkpt lat="46.03315" lon="4.75627">
        <ele>189</ele>
        <time>2018-02-09T11:15:11Z</time>
      </trkpt>
      <trkpt lat="46.03309" lon="4.75625">
        <ele>189</ele>
        <time>2018-02-09T11:15:12Z</time>
      </trkpt>
      <trkpt lat="46.03304" lon="4.75626">
        <ele>189</ele>
        <time>2018-02-09T11:15:13Z</time>
      </trkpt>
      <trkpt lat="46.03298" lon="4.75627">
        <ele>189</ele>
        <time>2018-02-09T11:15:14Z</time>
      </trkpt>
      <trkpt lat="46.03293" lon="4.75631">
        <ele>189</ele>
        <time>2018-02-09T11:15:15Z</time>
      </trkpt>
      <trkpt lat="46.03289" lon="4.75636">
        <ele>190</ele>
        <time>2018-02-09T11:15:16Z</time>
      </trkpt>
      <trkpt lat="46.03285" lon="4.75641">
        <ele>190</ele>
        <time>2018-02-09T11:15:17Z</time>
      </trkpt>
      <trkpt lat="46.0328" lon="4.75645">
        <ele>190</ele>
        <time>2018-02-09T11:15:18Z</time>
      </trkpt>
      <trkpt lat="46.03274" lon="4.75649">
        <ele>191</ele>
        <time>2018-02-09T11:15:19Z</time>
      </trkpt>
      <trkpt lat="46.03268" lon="4.75651">
        <ele>191</ele>
        <time>2018-02-09T11:15:20Z</time>
      </trkpt>
      <trkpt lat="46.03261" lon="4.75653">
        <ele>192</ele>
        <time>2018-02-09T11:15:21Z</time>
      </trkpt>
      <trkpt lat="46.03256" lon="4.75653">
        <ele>192</ele>
        <time>2018-02-09T11:15:22Z</time>
      </trkpt>
      <trkpt lat="46.0325" lon="4.75654">
        <ele>193</ele>
        <time>2018-02-09T11:15:23Z</time>
      </trkpt>
      <trkpt lat="46.03244" lon="4.75654">
        <ele>192</ele>
        <time>2018-02-09T11:15:24Z</time>
      </trkpt>
      <trkpt lat="46.03237" lon="4.75655">
        <ele>192</ele>
        <time>2018-02-09T11:15:25Z</time>
      </trkpt>
      <trkpt lat="46.03232" lon="4.75656">
        <ele>191</ele>
        <time>2018-02-09T11:15:26Z</time>
      </trkpt>
      <trkpt lat="46.03227" lon="4.75659">
        <ele>191</ele>
        <time>2018-02-09T11:15:27Z</time>
      </trkpt>
      <trkpt lat="46.03222" lon="4.75659">
        <ele>191</ele>
        <time>2018-02-09T11:15:28Z</time>
      </trkpt>
      <trkpt lat="46.03217" lon="4.7566">
        <ele>190</ele>
        <time>2018-02-09T11:15:29Z</time>
      </trkpt>
      <trkpt lat="46.03211" lon="4.75661">
        <ele>190</ele>
        <time>2018-02-09T11:15:30Z</time>
      </trkpt>
      <trkpt lat="46.03202" lon="4.75666">
        <ele>189</ele>
        <time>2018-02-09T11:15:31Z</time>
      </trkpt>
      <trkpt lat="46.03196" lon="4.75668">
        <ele>192</ele>
        <time>2018-02-09T11:15:32Z</time>
      </trkpt>
      <trkpt lat="46.0319" lon="4.75667">
        <ele>191</ele>
        <time>2018-02-09T11:15:33Z</time>
      </trkpt>
      <trkpt lat="46.03185" lon="4.75669">
        <ele>191</ele>
        <time>2018-02-09T11:15:34Z</time>
      </trkpt>
      <trkpt lat="46.0318" lon="4.7567">
        <ele>190</ele>
        <time>2018-02-09T11:15:35Z</time>
      </trkpt>
      <trkpt lat="46.03175" lon="4.75669">
        <ele>190</ele>
        <time>2018-02-09T11:15:36Z</time>
      </trkpt>
      <trkpt lat="46.03167" lon="4.75669">
        <ele>189</ele>
        <time>2018-02-09T11:15:37Z</time>
      </trkpt>
      <trkpt lat="46.03162" lon="4.75668">
        <ele>188</ele>
        <time>2018-02-09T11:15:38Z</time>
      </trkpt>
      <trkpt lat="46.03158" lon="4.7567">
        <ele>188</ele>
        <time>2018-02-09T11:15:39Z</time>
      </trkpt>
      <trkpt lat="46.03153" lon="4.75671">
        <ele>187</ele>
        <time>2018-02-09T11:15:40Z</time>
      </trkpt>
      <trkpt lat="46.03146" lon="4.75671">
        <ele>187</ele>
        <time>2018-02-09T11:15:41Z</time>
      </trkpt>
      <trkpt lat="46.03141" lon="4.7567">
        <ele>187</ele>
        <time>2018-02-09T11:15:42Z</time>
      </trkpt>
      <trkpt lat="46.03136" lon="4.75671">
        <ele>187</ele>
        <time>2018-02-09T11:15:43Z</time>
      </trkpt>
      <trkpt lat="46.0313" lon="4.75672">
        <ele>187</ele>
        <time>2018-02-09T11:15:44Z</time>
      </trkpt>
      <trkpt lat="46.03124" lon="4.75673">
        <ele>186</ele>
        <time>2018-02-09T11:15:45Z</time>
      </trkpt>
      <trkpt lat="46.03118" lon="4.75673">
        <ele>186</ele>
        <time>2018-02-09T11:15:46Z</time>
      </trkpt>
      <trkpt lat="46.0311" lon="4.75675">
        <ele>186</ele>
        <time>2018-02-09T11:15:47Z</time>
      </trkpt>
      <trkpt lat="46.03105" lon="4.75675">
        <ele>186</ele>
        <time>2018-02-09T11:15:48Z</time>
      </trkpt>
      <trkpt lat="46.03098" lon="4.75676">
        <ele>185</ele>
        <time>2018-02-09T11:15:49Z</time>
      </trkpt>
      <trkpt lat="46.03092" lon="4.75676">
        <ele>185</ele>
        <time>2018-02-09T11:15:50Z</time>
      </trkpt>
      <trkpt lat="46.03087" lon="4.75676">
        <ele>185</ele>
        <time>2018-02-09T11:15:51Z</time>
      </trkpt>
      <trkpt lat="46.0308" lon="4.75676">
        <ele>184</ele>
        <time>2018-02-09T11:15:52Z</time>
      </trkpt>
      <trkpt lat="46.03074" lon="4.75677">
        <ele>184</ele>
        <time>2018-02-09T11:15:53Z</time>
      </trkpt>
      <trkpt lat="46.03069" lon="4.75679">
        <ele>184</ele>
        <time>2018-02-09T11:15:54Z</time>
      </trkpt>
      <trkpt lat="46.03064" lon="4.75679">
        <ele>184</ele>
        <time>2018-02-09T11:15:55Z</time>
      </trkpt>
      <trkpt lat="46.03059" lon="4.7568">
        <ele>184</ele>
        <time>2018-02-09T11:15:56Z</time>
      </trkpt>
      <trkpt lat="46.03054" lon="4.7568">
        <ele>184</ele>
        <time>2018-02-09T11:15:57Z</time>
      </trkpt>
      <trkpt lat="46.03049" lon="4.75682">
        <ele>184</ele>
        <time>2018-02-09T11:15:58Z</time>
      </trkpt>
      <trkpt lat="46.03042" lon="4.75684">
        <ele>184</ele>
        <time>2018-02-09T11:15:59Z</time>
      </trkpt>
      <trkpt lat="46.03034" lon="4.75686">
        <ele>183</ele>
        <time>2018-02-09T11:16:01Z</time>
      </trkpt>
      <trkpt lat="46.03028" lon="4.75688">
        <ele>183</ele>
        <time>2018-02-09T11:16:02Z</time>
      </trkpt>
      <trkpt lat="46.03023" lon="4.75689">
        <ele>183</ele>
        <time>2018-02-09T11:16:03Z</time>
      </trkpt>
      <trkpt lat="46.03018" lon="4.75692">
        <ele>183</ele>
        <time>2018-02-09T11:16:04Z</time>
      </trkpt>
      <trkpt lat="46.03013" lon="4.75696">
        <ele>183</ele>
        <time>2018-02-09T11:16:05Z</time>
      </trkpt>
      <trkpt lat="46.03008" lon="4.75698">
        <ele>183</ele>
        <time>2018-02-09T11:16:06Z</time>
      </trkpt>
      <trkpt lat="46.03003" lon="4.757">
        <ele>183</ele>
        <time>2018-02-09T11:16:07Z</time>
      </trkpt>
      <trkpt lat="46.02999" lon="4.75701">
        <ele>183</ele>
        <time>2018-02-09T11:16:08Z</time>
      </trkpt>
      <trkpt lat="46.02993" lon="4.75704">
        <ele>183</ele>
        <time>2018-02-09T11:16:09Z</time>
      </trkpt>
      <trkpt lat="46.02987" lon="4.75704">
        <ele>183</ele>
        <time>2018-02-09T11:16:10Z</time>
      </trkpt>
      <trkpt lat="46.02982" lon="4.75706">
        <ele>183</ele>
        <time>2018-02-09T11:16:11Z</time>
      </trkpt>
      <trkpt lat="46.02977" lon="4.75707">
        <ele>183</ele>
        <time>2018-02-09T11:16:12Z</time>
      </trkpt>
      <trkpt lat="46.02972" lon="4.75709">
        <ele>183</ele>
        <time>2018-02-09T11:16:13Z</time>
      </trkpt>
      <trkpt lat="46.02967" lon="4.75711">
        <ele>183</ele>
        <time>2018-02-09T11:16:14Z</time>
      </trkpt>
      <trkpt lat="46.02962" lon="4.75712">
        <ele>183</ele>
        <time>2018-02-09T11:16:15Z</time>
      </trkpt>
      <trkpt lat="46.02956" lon="4.75714">
        <ele>183</ele>
        <time>2018-02-09T11:16:16Z</time>
      </trkpt>
      <trkpt lat="46.0295" lon="4.75714">
        <ele>183</ele>
        <time>2018-02-09T11:16:17Z</time>
      </trkpt>
      <trkpt lat="46.02945" lon="4.75714">
        <ele>183</ele>
        <time>2018-02-09T11:16:18Z</time>
      </trkpt>
      <trkpt lat="46.02939" lon="4.75713">
        <ele>183</ele>
        <time>2018-02-09T11:16:19Z</time>
      </trkpt>
      <trkpt lat="46.02934" lon="4.75714">
        <ele>183</ele>
        <time>2018-02-09T11:16:20Z</time>
      </trkpt>
      <trkpt lat="46.02928" lon="4.75714">
        <ele>183</ele>
        <time>2018-02-09T11:16:21Z</time>
      </trkpt>
      <trkpt lat="46.02923" lon="4.75714">
        <ele>183</ele>
        <time>2018-02-09T11:16:22Z</time>
      </trkpt>
      <trkpt lat="46.02917" lon="4.75715">
        <ele>183</ele>
        <time>2018-02-09T11:16:23Z</time>
      </trkpt>
      <trkpt lat="46.02909" lon="4.75717">
        <ele>183</ele>
        <time>2018-02-09T11:16:24Z</time>
      </trkpt>
      <trkpt lat="46.02903" lon="4.75718">
        <ele>183</ele>
        <time>2018-02-09T11:16:25Z</time>
      </trkpt>
      <trkpt lat="46.02897" lon="4.75718">
        <ele>183</ele>
        <time>2018-02-09T11:16:26Z</time>
      </trkpt>
      <trkpt lat="46.02891" lon="4.7572">
        <ele>183</ele>
        <time>2018-02-09T11:16:27Z</time>
      </trkpt>
      <trkpt lat="46.02885" lon="4.75719">
        <ele>183</ele>
        <time>2018-02-09T11:16:28Z</time>
      </trkpt>
      <trkpt lat="46.02879" lon="4.75719">
        <ele>183</ele>
        <time>2018-02-09T11:16:29Z</time>
      </trkpt>
      <trkpt lat="46.02873" lon="4.75719">
        <ele>183</ele>
        <time>2018-02-09T11:16:30Z</time>
      </trkpt>
      <trkpt lat="46.02867" lon="4.75718">
        <ele>183</ele>
        <time>2018-02-09T11:16:31Z</time>
      </trkpt>
      <trkpt lat="46.02861" lon="4.75718">
        <ele>183</ele>
        <time>2018-02-09T11:16:32Z</time>
      </trkpt>
      <trkpt lat="46.02856" lon="4.75716">
        <ele>183</ele>
        <time>2018-02-09T11:16:33Z</time>
      </trkpt>
      <trkpt lat="46.0285" lon="4.75718">
        <ele>183</ele>
        <time>2018-02-09T11:16:34Z</time>
      </trkpt>
      <trkpt lat="46.02842" lon="4.75721">
        <ele>184</ele>
        <time>2018-02-09T11:16:35Z</time>
      </trkpt>
      <trkpt lat="46.02835" lon="4.7572">
        <ele>184</ele>
        <time>2018-02-09T11:16:36Z</time>
      </trkpt>
      <trkpt lat="46.0283" lon="4.75718">
        <ele>184</ele>
        <time>2018-02-09T11:16:37Z</time>
      </trkpt>
      <trkpt lat="46.02824" lon="4.75715">
        <ele>183</ele>
        <time>2018-02-09T11:16:38Z</time>
      </trkpt>
      <trkpt lat="46.02819" lon="4.75713">
        <ele>183</ele>
        <time>2018-02-09T11:16:39Z</time>
      </trkpt>
      <trkpt lat="46.02813" lon="4.75712">
        <ele>183</ele>
        <time>2018-02-09T11:16:40Z</time>
      </trkpt>
      <trkpt lat="46.02807" lon="4.7571">
        <ele>183</ele>
        <time>2018-02-09T11:16:41Z</time>
      </trkpt>
      <trkpt lat="46.02801" lon="4.75709">
        <ele>183</ele>
        <time>2018-02-09T11:16:42Z</time>
      </trkpt>
      <trkpt lat="46.02795" lon="4.75708">
        <ele>183</ele>
        <time>2018-02-09T11:16:43Z</time>
      </trkpt>
      <trkpt lat="46.02789" lon="4.75707">
        <ele>183</ele>
        <time>2018-02-09T11:16:44Z</time>
      </trkpt>
      <trkpt lat="46.02782" lon="4.75706">
        <ele>183</ele>
        <time>2018-02-09T11:16:45Z</time>
      </trkpt>
      <trkpt lat="46.02775" lon="4.75706">
        <ele>183</ele>
        <time>2018-02-09T11:16:46Z</time>
      </trkpt>
      <trkpt lat="46.02769" lon="4.75706">
        <ele>183</ele>
        <time>2018-02-09T11:16:47Z</time>
      </trkpt>
      <trkpt lat="46.02763" lon="4.75706">
        <ele>183</ele>
        <time>2018-02-09T11:16:48Z</time>
      </trkpt>
      <trkpt lat="46.02757" lon="4.75706">
        <ele>182</ele>
        <time>2018-02-09T11:16:49Z</time>
      </trkpt>
      <trkpt lat="46.02751" lon="4.75706">
        <ele>183</ele>
        <time>2018-02-09T11:16:50Z</time>
      </trkpt>
      <trkpt lat="46.02745" lon="4.75707">
        <ele>182</ele>
        <time>2018-02-09T11:16:51Z</time>
      </trkpt>
      <trkpt lat="46.02739" lon="4.75709">
        <ele>182</ele>
        <time>2018-02-09T11:16:52Z</time>
      </trkpt>
      <trkpt lat="46.02735" lon="4.75712">
        <ele>182</ele>
        <time>2018-02-09T11:16:53Z</time>
      </trkpt>
      <trkpt lat="46.02728" lon="4.75716">
        <ele>182</ele>
        <time>2018-02-09T11:16:54Z</time>
      </trkpt>
      <trkpt lat="46.02722" lon="4.75719">
        <ele>182</ele>
        <time>2018-02-09T11:16:55Z</time>
      </trkpt>
      <trkpt lat="46.02717" lon="4.75723">
        <ele>182</ele>
        <time>2018-02-09T11:16:56Z</time>
      </trkpt>
      <trkpt lat="46.02711" lon="4.75725">
        <ele>182</ele>
        <time>2018-02-09T11:16:57Z</time>
      </trkpt>
      <trkpt lat="46.02706" lon="4.75727">
        <ele>182</ele>
        <time>2018-02-09T11:16:58Z</time>
      </trkpt>
      <trkpt lat="46.02701" lon="4.7573">
        <ele>182</ele>
        <time>2018-02-09T11:16:59Z</time>
      </trkpt>
      <trkpt lat="46.02695" lon="4.75731">
        <ele>182</ele>
        <time>2018-02-09T11:17:00Z</time>
      </trkpt>
      <trkpt lat="46.02689" lon="4.75736">
        <ele>182</ele>
        <time>2018-02-09T11:17:01Z</time>
      </trkpt>
      <trkpt lat="46.02684" lon="4.75737">
        <ele>181</ele>
        <time>2018-02-09T11:17:02Z</time>
      </trkpt>
      <trkpt lat="46.02679" lon="4.75737">
        <ele>181</ele>
        <time>2018-02-09T11:17:03Z</time>
      </trkpt>
      <trkpt lat="46.02674" lon="4.75737">
        <ele>181</ele>
        <time>2018-02-09T11:17:04Z</time>
      </trkpt>
      <trkpt lat="46.02668" lon="4.75736">
        <ele>181</ele>
        <time>2018-02-09T11:17:05Z</time>
      </trkpt>
      <trkpt lat="46.02662" lon="4.75739">
        <ele>181</ele>
        <time>2018-02-09T11:17:06Z</time>
      </trkpt>
      <trkpt lat="46.02658" lon="4.75738">
        <ele>181</ele>
        <time>2018-02-09T11:17:07Z</time>
      </trkpt>
      <trkpt lat="46.02653" lon="4.75737">
        <ele>182</ele>
        <time>2018-02-09T11:17:08Z</time>
      </trkpt>
      <trkpt lat="46.02649" lon="4.75737">
        <ele>182</ele>
        <time>2018-02-09T11:17:09Z</time>
      </trkpt>
      <trkpt lat="46.02643" lon="4.75738">
        <ele>182</ele>
        <time>2018-02-09T11:17:10Z</time>
      </trkpt>
      <trkpt lat="46.02634" lon="4.75741">
        <ele>182</ele>
        <time>2018-02-09T11:17:13Z</time>
      </trkpt>
      <trkpt lat="46.02631" lon="4.75741">
        <ele>182</ele>
        <time>2018-02-09T11:17:14Z</time>
      </trkpt>
      <trkpt lat="46.02623" lon="4.75739">
        <ele>182</ele>
        <time>2018-02-09T11:17:16Z</time>
      </trkpt>
      <trkpt lat="46.0262" lon="4.75738">
        <ele>182</ele>
        <time>2018-02-09T11:17:17Z</time>
      </trkpt>
      <trkpt lat="46.02612" lon="4.75736">
        <ele>182</ele>
        <time>2018-02-09T11:17:20Z</time>
      </trkpt>
      <trkpt lat="46.02609" lon="4.75736">
        <ele>182</ele>
        <time>2018-02-09T11:17:21Z</time>
      </trkpt>
      <trkpt lat="46.02601" lon="4.75736">
        <ele>183</ele>
        <time>2018-02-09T11:17:25Z</time>
      </trkpt>
      <trkpt lat="46.02599" lon="4.75736">
        <ele>183</ele>
        <time>2018-02-09T11:17:26Z</time>
      </trkpt>
      <trkpt lat="46.0259" lon="4.75735">
        <ele>183</ele>
        <time>2018-02-09T11:17:29Z</time>
      </trkpt>
      <trkpt lat="46.02587" lon="4.75735">
        <ele>183</ele>
        <time>2018-02-09T11:17:30Z</time>
      </trkpt>
      <trkpt lat="46.02581" lon="4.75736">
        <ele>184</ele>
        <time>2018-02-09T11:17:32Z</time>
      </trkpt>
      <trkpt lat="46.02578" lon="4.75736">
        <ele>185</ele>
        <time>2018-02-09T11:17:33Z</time>
      </trkpt>
      <trkpt lat="46.02571" lon="4.75736">
        <ele>185</ele>
        <time>2018-02-09T11:17:35Z</time>
      </trkpt>
      <trkpt lat="46.02568" lon="4.75736">
        <ele>185</ele>
        <time>2018-02-09T11:17:36Z</time>
      </trkpt>
      <trkpt lat="46.02559" lon="4.75735">
        <ele>185</ele>
        <time>2018-02-09T11:17:39Z</time>
      </trkpt>
      <trkpt lat="46.02557" lon="4.75735">
        <ele>186</ele>
        <time>2018-02-09T11:17:40Z</time>
      </trkpt>
      <trkpt lat="46.02549" lon="4.75735">
        <ele>186</ele>
        <time>2018-02-09T11:17:44Z</time>
      </trkpt>
      <trkpt lat="46.02546" lon="4.75736">
        <ele>186</ele>
        <time>2018-02-09T11:17:45Z</time>
      </trkpt>
      <trkpt lat="46.02539" lon="4.75738">
        <ele>186</ele>
        <time>2018-02-09T11:17:48Z</time>
      </trkpt>
      <trkpt lat="46.02537" lon="4.75738">
        <ele>187</ele>
        <time>2018-02-09T11:17:49Z</time>
      </trkpt>
      <trkpt lat="46.02529" lon="4.7574">
        <ele>187</ele>
        <time>2018-02-09T11:17:52Z</time>
      </trkpt>
      <trkpt lat="46.02526" lon="4.7574">
        <ele>187</ele>
        <time>2018-02-09T11:17:53Z</time>
      </trkpt>
      <trkpt lat="46.02517" lon="4.75742">
        <ele>188</ele>
        <time>2018-02-09T11:17:56Z</time>
      </trkpt>
      <trkpt lat="46.02514" lon="4.75743">
        <ele>188</ele>
        <time>2018-02-09T11:17:57Z</time>
      </trkpt>
      <trkpt lat="46.02506" lon="4.75744">
        <ele>189</ele>
        <time>2018-02-09T11:18:00Z</time>
      </trkpt>
      <trkpt lat="46.02503" lon="4.75746">
        <ele>189</ele>
        <time>2018-02-09T11:18:01Z</time>
      </trkpt>
      <trkpt lat="46.02496" lon="4.7575">
        <ele>190</ele>
        <time>2018-02-09T11:18:04Z</time>
      </trkpt>
      <trkpt lat="46.02494" lon="4.75751">
        <ele>190</ele>
        <time>2018-02-09T11:18:05Z</time>
      </trkpt>
      <trkpt lat="46.02486" lon="4.75755">
        <ele>190</ele>
        <time>2018-02-09T11:18:08Z</time>
      </trkpt>
      <trkpt lat="46.02483" lon="4.75756">
        <ele>190</ele>
        <time>2018-02-09T11:18:09Z</time>
      </trkpt>
      <trkpt lat="46.02476" lon="4.75761">
        <ele>191</ele>
        <time>2018-02-09T11:18:12Z</time>
      </trkpt>
      <trkpt lat="46.02474" lon="4.75762">
        <ele>191</ele>
        <time>2018-02-09T11:18:13Z</time>
      </trkpt>
      <trkpt lat="46.02467" lon="4.75764">
        <ele>191</ele>
        <time>2018-02-09T11:18:16Z</time>
      </trkpt>
      <trkpt lat="46.02465" lon="4.75765">
        <ele>191</ele>
        <time>2018-02-09T11:18:17Z</time>
      </trkpt>
      <trkpt lat="46.02458" lon="4.75769">
        <ele>191</ele>
        <time>2018-02-09T11:18:20Z</time>
      </trkpt>
      <trkpt lat="46.02455" lon="4.7577">
        <ele>191</ele>
        <time>2018-02-09T11:18:21Z</time>
      </trkpt>
      <trkpt lat="46.02448" lon="4.75775">
        <ele>191</ele>
        <time>2018-02-09T11:18:25Z</time>
      </trkpt>
      <trkpt lat="46.02446" lon="4.75776">
        <ele>191</ele>
        <time>2018-02-09T11:18:26Z</time>
      </trkpt>
      <trkpt lat="46.02439" lon="4.75779">
        <ele>191</ele>
        <time>2018-02-09T11:18:29Z</time>
      </trkpt>
      <trkpt lat="46.02436" lon="4.7578">
        <ele>191</ele>
        <time>2018-02-09T11:18:30Z</time>
      </trkpt>
      <trkpt lat="46.0243" lon="4.75785">
        <ele>191</ele>
        <time>2018-02-09T11:18:33Z</time>
      </trkpt>
      <trkpt lat="46.02428" lon="4.75787">
        <ele>191</ele>
        <time>2018-02-09T11:18:34Z</time>
      </trkpt>
      <trkpt lat="46.02422" lon="4.7579">
        <ele>192</ele>
        <time>2018-02-09T11:18:36Z</time>
      </trkpt>
      <trkpt lat="46.02419" lon="4.75791">
        <ele>192</ele>
        <time>2018-02-09T11:18:37Z</time>
      </trkpt>
      <trkpt lat="46.02412" lon="4.75796">
        <ele>192</ele>
        <time>2018-02-09T11:18:39Z</time>
      </trkpt>
      <trkpt lat="46.0241" lon="4.75799">
        <ele>192</ele>
        <time>2018-02-09T11:18:40Z</time>
      </trkpt>
      <trkpt lat="46.02404" lon="4.75803">
        <ele>192</ele>
        <time>2018-02-09T11:18:42Z</time>
      </trkpt>
      <trkpt lat="46.02401" lon="4.75805">
        <ele>192</ele>
        <time>2018-02-09T11:18:43Z</time>
      </trkpt>
      <trkpt lat="46.02395" lon="4.75809">
        <ele>192</ele>
        <time>2018-02-09T11:18:45Z</time>
      </trkpt>
      <trkpt lat="46.02392" lon="4.75811">
        <ele>192</ele>
        <time>2018-02-09T11:18:46Z</time>
      </trkpt>
      <trkpt lat="46.02386" lon="4.75816">
        <ele>192</ele>
        <time>2018-02-09T11:18:49Z</time>
      </trkpt>
      <trkpt lat="46.02384" lon="4.75817">
        <ele>192</ele>
        <time>2018-02-09T11:18:50Z</time>
      </trkpt>
      <trkpt lat="46.02378" lon="4.75821">
        <ele>192</ele>
        <time>2018-02-09T11:18:52Z</time>
      </trkpt>
      <trkpt lat="46.02376" lon="4.75823">
        <ele>192</ele>
        <time>2018-02-09T11:18:53Z</time>
      </trkpt>
      <trkpt lat="46.0237" lon="4.75827">
        <ele>192</ele>
        <time>2018-02-09T11:18:55Z</time>
      </trkpt>
      <trkpt lat="46.02367" lon="4.75829">
        <ele>192</ele>
        <time>2018-02-09T11:18:56Z</time>
      </trkpt>
      <trkpt lat="46.02361" lon="4.75833">
        <ele>192</ele>
        <time>2018-02-09T11:18:58Z</time>
      </trkpt>
      <trkpt lat="46.02358" lon="4.75836">
        <ele>193</ele>
        <time>2018-02-09T11:18:59Z</time>
      </trkpt>
      <trkpt lat="46.02351" lon="4.75841">
        <ele>193</ele>
        <time>2018-02-09T11:19:01Z</time>
      </trkpt>
      <trkpt lat="46.02348" lon="4.75844">
        <ele>193</ele>
        <time>2018-02-09T11:19:02Z</time>
      </trkpt>
      <trkpt lat="46.02342" lon="4.75849">
        <ele>193</ele>
        <time>2018-02-09T11:19:04Z</time>
      </trkpt>
      <trkpt lat="46.02339" lon="4.75852">
        <ele>193</ele>
        <time>2018-02-09T11:19:05Z</time>
      </trkpt>
      <trkpt lat="46.02334" lon="4.75857">
        <ele>193</ele>
        <time>2018-02-09T11:19:07Z</time>
      </trkpt>
      <trkpt lat="46.02332" lon="4.7586">
        <ele>193</ele>
        <time>2018-02-09T11:19:08Z</time>
      </trkpt>
      <trkpt lat="46.02327" lon="4.75865">
        <ele>193</ele>
        <time>2018-02-09T11:19:09Z</time>
      </trkpt>
      <trkpt lat="46.02323" lon="4.75869">
        <ele>193</ele>
        <time>2018-02-09T11:19:10Z</time>
      </trkpt>
      <trkpt lat="46.02315" lon="4.75875">
        <ele>193</ele>
        <time>2018-02-09T11:19:12Z</time>
      </trkpt>
      <trkpt lat="46.02311" lon="4.75879">
        <ele>193</ele>
        <time>2018-02-09T11:19:13Z</time>
      </trkpt>
      <trkpt lat="46.02304" lon="4.75886">
        <ele>193</ele>
        <time>2018-02-09T11:19:15Z</time>
      </trkpt>
      <trkpt lat="46.023" lon="4.75889">
        <ele>193</ele>
        <time>2018-02-09T11:19:16Z</time>
      </trkpt>
      <trkpt lat="46.02293" lon="4.75895">
        <ele>193</ele>
        <time>2018-02-09T11:19:17Z</time>
      </trkpt>
      <trkpt lat="46.02288" lon="4.75899">
        <ele>193</ele>
        <time>2018-02-09T11:19:18Z</time>
      </trkpt>
      <trkpt lat="46.02281" lon="4.75905">
        <ele>193</ele>
        <time>2018-02-09T11:19:20Z</time>
      </trkpt>
      <trkpt lat="46.02277" lon="4.75909">
        <ele>193</ele>
        <time>2018-02-09T11:19:21Z</time>
      </trkpt>
      <trkpt lat="46.0227" lon="4.75916">
        <ele>193</ele>
        <time>2018-02-09T11:19:23Z</time>
      </trkpt>
      <trkpt lat="46.02266" lon="4.7592">
        <ele>193</ele>
        <time>2018-02-09T11:19:24Z</time>
      </trkpt>
      <trkpt lat="46.02261" lon="4.75927">
        <ele>193</ele>
        <time>2018-02-09T11:19:26Z</time>
      </trkpt>
      <trkpt lat="46.02254" lon="4.75931">
        <ele>193</ele>
        <time>2018-02-09T11:19:27Z</time>
      </trkpt>
      <trkpt lat="46.0225" lon="4.75935">
        <ele>193</ele>
        <time>2018-02-09T11:19:28Z</time>
      </trkpt>
      <trkpt lat="46.02245" lon="4.75938">
        <ele>193</ele>
        <time>2018-02-09T11:19:29Z</time>
      </trkpt>
      <trkpt lat="46.02241" lon="4.75941">
        <ele>193</ele>
        <time>2018-02-09T11:19:30Z</time>
      </trkpt>
      <trkpt lat="46.02235" lon="4.75947">
        <ele>193</ele>
        <time>2018-02-09T11:19:31Z</time>
      </trkpt>
      <trkpt lat="46.02229" lon="4.75951">
        <ele>193</ele>
        <time>2018-02-09T11:19:32Z</time>
      </trkpt>
      <trkpt lat="46.02223" lon="4.75955">
        <ele>193</ele>
        <time>2018-02-09T11:19:33Z</time>
      </trkpt>
      <trkpt lat="46.02218" lon="4.75958">
        <ele>192</ele>
        <time>2018-02-09T11:19:34Z</time>
      </trkpt>
      <trkpt lat="46.02213" lon="4.75963">
        <ele>192</ele>
        <time>2018-02-09T11:19:35Z</time>
      </trkpt>
      <trkpt lat="46.02208" lon="4.75966">
        <ele>192</ele>
        <time>2018-02-09T11:19:36Z</time>
      </trkpt>
      <trkpt lat="46.02203" lon="4.7597">
        <ele>192</ele>
        <time>2018-02-09T11:19:37Z</time>
      </trkpt>
      <trkpt lat="46.02195" lon="4.75975">
        <ele>192</ele>
        <time>2018-02-09T11:19:38Z</time>
      </trkpt>
      <trkpt lat="46.02191" lon="4.75979">
        <ele>192</ele>
        <time>2018-02-09T11:19:39Z</time>
      </trkpt>
      <trkpt lat="46.02186" lon="4.75983">
        <ele>192</ele>
        <time>2018-02-09T11:19:40Z</time>
      </trkpt>
      <trkpt lat="46.02181" lon="4.75987">
        <ele>192</ele>
        <time>2018-02-09T11:19:41Z</time>
      </trkpt>
      <trkpt lat="46.02176" lon="4.75995">
        <ele>192</ele>
        <time>2018-02-09T11:19:43Z</time>
      </trkpt>
      <trkpt lat="46.02171" lon="4.75998">
        <ele>192</ele>
        <time>2018-02-09T11:19:44Z</time>
      </trkpt>
      <trkpt lat="46.02165" lon="4.76002">
        <ele>192</ele>
        <time>2018-02-09T11:19:46Z</time>
      </trkpt>
      <trkpt lat="46.02163" lon="4.76004">
        <ele>192</ele>
        <time>2018-02-09T11:19:47Z</time>
      </trkpt>
      <trkpt lat="46.02156" lon="4.76011">
        <ele>193</ele>
        <time>2018-02-09T11:19:49Z</time>
      </trkpt>
      <trkpt lat="46.02153" lon="4.76015">
        <ele>193</ele>
        <time>2018-02-09T11:19:50Z</time>
      </trkpt>
      <trkpt lat="46.02149" lon="4.76019">
        <ele>193</ele>
        <time>2018-02-09T11:19:51Z</time>
      </trkpt>
      <trkpt lat="46.02145" lon="4.76022">
        <ele>193</ele>
        <time>2018-02-09T11:19:52Z</time>
      </trkpt>
      <trkpt lat="46.02138" lon="4.76029">
        <ele>193</ele>
        <time>2018-02-09T11:19:54Z</time>
      </trkpt>
      <trkpt lat="46.02135" lon="4.76033">
        <ele>193</ele>
        <time>2018-02-09T11:19:55Z</time>
      </trkpt>
      <trkpt lat="46.0213" lon="4.76037">
        <ele>193</ele>
        <time>2018-02-09T11:19:56Z</time>
      </trkpt>
      <trkpt lat="46.02126" lon="4.7604">
        <ele>193</ele>
        <time>2018-02-09T11:19:57Z</time>
      </trkpt>
      <trkpt lat="46.02121" lon="4.76044">
        <ele>194</ele>
        <time>2018-02-09T11:19:58Z</time>
      </trkpt>
      <trkpt lat="46.02117" lon="4.76048">
        <ele>194</ele>
        <time>2018-02-09T11:19:59Z</time>
      </trkpt>
      <trkpt lat="46.02113" lon="4.76052">
        <ele>194</ele>
        <time>2018-02-09T11:20:00Z</time>
      </trkpt>
      <trkpt lat="46.0211" lon="4.76056">
        <ele>194</ele>
        <time>2018-02-09T11:20:01Z</time>
      </trkpt>
      <trkpt lat="46.02106" lon="4.7606">
        <ele>194</ele>
        <time>2018-02-09T11:20:02Z</time>
      </trkpt>
      <trkpt lat="46.02102" lon="4.76062">
        <ele>194</ele>
        <time>2018-02-09T11:20:03Z</time>
      </trkpt>
      <trkpt lat="46.02094" lon="4.76067">
        <ele>195</ele>
        <time>2018-02-09T11:20:05Z</time>
      </trkpt>
      <trkpt lat="46.0209" lon="4.7607">
        <ele>195</ele>
        <time>2018-02-09T11:20:06Z</time>
      </trkpt>
      <trkpt lat="46.02086" lon="4.76072">
        <ele>195</ele>
        <time>2018-02-09T11:20:07Z</time>
      </trkpt>
      <trkpt lat="46.0208" lon="4.76075">
        <ele>196</ele>
        <time>2018-02-09T11:20:08Z</time>
      </trkpt>
      <trkpt lat="46.02072" lon="4.76079">
        <ele>196</ele>
        <time>2018-02-09T11:20:10Z</time>
      </trkpt>
      <trkpt lat="46.02067" lon="4.76081">
        <ele>195</ele>
        <time>2018-02-09T11:20:11Z</time>
      </trkpt>
      <trkpt lat="46.02059" lon="4.76084">
        <ele>197</ele>
        <time>2018-02-09T11:20:13Z</time>
      </trkpt>
      <trkpt lat="46.02055" lon="4.76085">
        <ele>197</ele>
        <time>2018-02-09T11:20:14Z</time>
      </trkpt>
      <trkpt lat="46.02049" lon="4.76086">
        <ele>197</ele>
        <time>2018-02-09T11:20:16Z</time>
      </trkpt>
      <trkpt lat="46.02045" lon="4.76087">
        <ele>197</ele>
        <time>2018-02-09T11:20:17Z</time>
      </trkpt>
      <trkpt lat="46.02036" lon="4.76088">
        <ele>197</ele>
        <time>2018-02-09T11:20:20Z</time>
      </trkpt>
      <trkpt lat="46.02032" lon="4.76089">
        <ele>197</ele>
        <time>2018-02-09T11:20:21Z</time>
      </trkpt>
      <trkpt lat="46.02028" lon="4.76089">
        <ele>197</ele>
        <time>2018-02-09T11:20:22Z</time>
      </trkpt>
      <trkpt lat="46.02023" lon="4.76092">
        <ele>197</ele>
        <time>2018-02-09T11:20:23Z</time>
      </trkpt>
      <trkpt lat="46.02018" lon="4.76093">
        <ele>197</ele>
        <time>2018-02-09T11:20:24Z</time>
      </trkpt>
      <trkpt lat="46.02008" lon="4.76096">
        <ele>197</ele>
        <time>2018-02-09T11:20:25Z</time>
      </trkpt>
      <trkpt lat="46.01999" lon="4.76099">
        <ele>198</ele>
        <time>2018-02-09T11:20:26Z</time>
      </trkpt>
      <trkpt lat="46.01993" lon="4.76098">
        <ele>198</ele>
        <time>2018-02-09T11:20:27Z</time>
      </trkpt>
      <trkpt lat="46.01989" lon="4.76101">
        <ele>198</ele>
        <time>2018-02-09T11:20:28Z</time>
      </trkpt>
      <trkpt lat="46.01984" lon="4.76101">
        <ele>198</ele>
        <time>2018-02-09T11:20:29Z</time>
      </trkpt>
      <trkpt lat="46.01979" lon="4.76102">
        <ele>198</ele>
        <time>2018-02-09T11:20:30Z</time>
      </trkpt>
      <trkpt lat="46.01975" lon="4.76104">
        <ele>198</ele>
        <time>2018-02-09T11:20:31Z</time>
      </trkpt>
      <trkpt lat="46.01968" lon="4.76104">
        <ele>198</ele>
        <time>2018-02-09T11:20:33Z</time>
      </trkpt>
      <trkpt lat="46.01965" lon="4.76104">
        <ele>198</ele>
        <time>2018-02-09T11:20:34Z</time>
      </trkpt>
      <trkpt lat="46.0196" lon="4.76107">
        <ele>198</ele>
        <time>2018-02-09T11:20:35Z</time>
      </trkpt>
      <trkpt lat="46.01956" lon="4.76108">
        <ele>198</ele>
        <time>2018-02-09T11:20:36Z</time>
      </trkpt>
      <trkpt lat="46.01951" lon="4.7611">
        <ele>198</ele>
        <time>2018-02-09T11:20:37Z</time>
      </trkpt>
      <trkpt lat="46.01945" lon="4.7611">
        <ele>198</ele>
        <time>2018-02-09T11:20:38Z</time>
      </trkpt>
      <trkpt lat="46.01939" lon="4.76112">
        <ele>198</ele>
        <time>2018-02-09T11:20:40Z</time>
      </trkpt>
      <trkpt lat="46.01935" lon="4.76113">
        <ele>198</ele>
        <time>2018-02-09T11:20:41Z</time>
      </trkpt>
      <trkpt lat="46.01932" lon="4.76113">
        <ele>198</ele>
        <time>2018-02-09T11:20:43Z</time>
      </trkpt>
      <trkpt lat="46.01926" lon="4.76117">
        <ele>198</ele>
        <time>2018-02-09T11:20:44Z</time>
      </trkpt>
      <trkpt lat="46.01921" lon="4.7612">
        <ele>198</ele>
        <time>2018-02-09T11:20:45Z</time>
      </trkpt>
      <trkpt lat="46.01917" lon="4.76123">
        <ele>198</ele>
        <time>2018-02-09T11:20:46Z</time>
      </trkpt>
      <trkpt lat="46.01909" lon="4.76124">
        <ele>199</ele>
        <time>2018-02-09T11:20:48Z</time>
      </trkpt>
      <trkpt lat="46.01909" lon="4.76128">
        <ele>199</ele>
        <time>2018-02-09T11:20:49Z</time>
      </trkpt>
      <trkpt lat="46.01902" lon="4.76128">
        <ele>199</ele>
        <time>2018-02-09T11:20:50Z</time>
      </trkpt>
      <trkpt lat="46.01896" lon="4.76129">
        <ele>199</ele>
        <time>2018-02-09T11:20:51Z</time>
      </trkpt>
      <trkpt lat="46.01887" lon="4.76132">
        <ele>199</ele>
        <time>2018-02-09T11:20:53Z</time>
      </trkpt>
      <trkpt lat="46.01883" lon="4.76133">
        <ele>199</ele>
        <time>2018-02-09T11:20:54Z</time>
      </trkpt>
      <trkpt lat="46.01874" lon="4.76134">
        <ele>199</ele>
        <time>2018-02-09T11:20:56Z</time>
      </trkpt>
      <trkpt lat="46.0187" lon="4.76134">
        <ele>199</ele>
        <time>2018-02-09T11:20:57Z</time>
      </trkpt>
      <trkpt lat="46.01861" lon="4.76135">
        <ele>199</ele>
        <time>2018-02-09T11:20:59Z</time>
      </trkpt>
      <trkpt lat="46.01858" lon="4.76132">
        <ele>199</ele>
        <time>2018-02-09T11:21:00Z</time>
      </trkpt>
      <trkpt lat="46.01849" lon="4.7613">
        <ele>199</ele>
        <time>2018-02-09T11:21:02Z</time>
      </trkpt>
      <trkpt lat="46.01845" lon="4.76128">
        <ele>199</ele>
        <time>2018-02-09T11:21:03Z</time>
      </trkpt>
      <trkpt lat="46.0184" lon="4.76127">
        <ele>199</ele>
        <time>2018-02-09T11:21:04Z</time>
      </trkpt>
      <trkpt lat="46.01834" lon="4.76125">
        <ele>199</ele>
        <time>2018-02-09T11:21:05Z</time>
      </trkpt>
      <trkpt lat="46.01829" lon="4.76125">
        <ele>198</ele>
        <time>2018-02-09T11:21:06Z</time>
      </trkpt>
      <trkpt lat="46.01825" lon="4.76124">
        <ele>198</ele>
        <time>2018-02-09T11:21:07Z</time>
      </trkpt>
      <trkpt lat="46.0182" lon="4.76127">
        <ele>198</ele>
        <time>2018-02-09T11:21:08Z</time>
      </trkpt>
      <trkpt lat="46.01815" lon="4.76128">
        <ele>198</ele>
        <time>2018-02-09T11:21:09Z</time>
      </trkpt>
      <trkpt lat="46.01806" lon="4.76129">
        <ele>198</ele>
        <time>2018-02-09T11:21:11Z</time>
      </trkpt>
      <trkpt lat="46.01801" lon="4.76128">
        <ele>198</ele>
        <time>2018-02-09T11:21:12Z</time>
      </trkpt>
      <trkpt lat="46.01793" lon="4.76127">
        <ele>198</ele>
        <time>2018-02-09T11:21:14Z</time>
      </trkpt>
      <trkpt lat="46.01789" lon="4.76128">
        <ele>198</ele>
        <time>2018-02-09T11:21:15Z</time>
      </trkpt>
      <trkpt lat="46.01781" lon="4.76126">
        <ele>198</ele>
        <time>2018-02-09T11:21:17Z</time>
      </trkpt>
      <trkpt lat="46.01778" lon="4.76125">
        <ele>198</ele>
        <time>2018-02-09T11:21:18Z</time>
      </trkpt>
      <trkpt lat="46.01773" lon="4.76124">
        <ele>198</ele>
        <time>2018-02-09T11:21:19Z</time>
      </trkpt>
      <trkpt lat="46.01768" lon="4.76126">
        <ele>198</ele>
        <time>2018-02-09T11:21:20Z</time>
      </trkpt>
      <trkpt lat="46.01763" lon="4.76128">
        <ele>198</ele>
        <time>2018-02-09T11:21:21Z</time>
      </trkpt>
      <trkpt lat="46.01759" lon="4.76127">
        <ele>198</ele>
        <time>2018-02-09T11:21:22Z</time>
      </trkpt>
      <trkpt lat="46.01754" lon="4.76126">
        <ele>198</ele>
        <time>2018-02-09T11:21:23Z</time>
      </trkpt>
      <trkpt lat="46.01748" lon="4.76125">
        <ele>197</ele>
        <time>2018-02-09T11:21:24Z</time>
      </trkpt>
      <trkpt lat="46.0174" lon="4.76125">
        <ele>197</ele>
        <time>2018-02-09T11:21:26Z</time>
      </trkpt>
      <trkpt lat="46.01734" lon="4.76124">
        <ele>197</ele>
        <time>2018-02-09T11:21:27Z</time>
      </trkpt>
      <trkpt lat="46.01725" lon="4.76122">
        <ele>197</ele>
        <time>2018-02-09T11:21:29Z</time>
      </trkpt>
      <trkpt lat="46.01719" lon="4.76121">
        <ele>197</ele>
        <time>2018-02-09T11:21:30Z</time>
      </trkpt>
      <trkpt lat="46.01714" lon="4.76121">
        <ele>197</ele>
        <time>2018-02-09T11:21:31Z</time>
      </trkpt>
      <trkpt lat="46.0171" lon="4.76121">
        <ele>198</ele>
        <time>2018-02-09T11:21:32Z</time>
      </trkpt>
      <trkpt lat="46.01702" lon="4.76121">
        <ele>198</ele>
        <time>2018-02-09T11:21:34Z</time>
      </trkpt>
      <trkpt lat="46.01697" lon="4.76121">
        <ele>198</ele>
        <time>2018-02-09T11:21:35Z</time>
      </trkpt>
      <trkpt lat="46.0169" lon="4.76119">
        <ele>198</ele>
        <time>2018-02-09T11:21:37Z</time>
      </trkpt>
      <trkpt lat="46.01686" lon="4.7612">
        <ele>198</ele>
        <time>2018-02-09T11:21:38Z</time>
      </trkpt>
      <trkpt lat="46.01678" lon="4.76118">
        <ele>198</ele>
        <time>2018-02-09T11:21:40Z</time>
      </trkpt>
      <trkpt lat="46.01673" lon="4.76118">
        <ele>198</ele>
        <time>2018-02-09T11:21:41Z</time>
      </trkpt>
      <trkpt lat="46.01665" lon="4.76117">
        <ele>199</ele>
        <time>2018-02-09T11:21:43Z</time>
      </trkpt>
      <trkpt lat="46.01659" lon="4.76116">
        <ele>199</ele>
        <time>2018-02-09T11:21:44Z</time>
      </trkpt>
      <trkpt lat="46.01654" lon="4.76116">
        <ele>199</ele>
        <time>2018-02-09T11:21:45Z</time>
      </trkpt>
      <trkpt lat="46.01649" lon="4.76115">
        <ele>199</ele>
        <time>2018-02-09T11:21:46Z</time>
      </trkpt>
      <trkpt lat="46.01644" lon="4.76114">
        <ele>199</ele>
        <time>2018-02-09T11:21:47Z</time>
      </trkpt>
      <trkpt lat="46.01639" lon="4.76113">
        <ele>199</ele>
        <time>2018-02-09T11:21:48Z</time>
      </trkpt>
      <trkpt lat="46.01631" lon="4.76113">
        <ele>199</ele>
        <time>2018-02-09T11:21:50Z</time>
      </trkpt>
      <trkpt lat="46.01626" lon="4.76113">
        <ele>199</ele>
        <time>2018-02-09T11:21:51Z</time>
      </trkpt>
      <trkpt lat="46.01618" lon="4.76112">
        <ele>200</ele>
        <time>2018-02-09T11:21:53Z</time>
      </trkpt>
      <trkpt lat="46.01613" lon="4.76111">
        <ele>200</ele>
        <time>2018-02-09T11:21:54Z</time>
      </trkpt>
      <trkpt lat="46.01604" lon="4.76109">
        <ele>200</ele>
        <time>2018-02-09T11:21:56Z</time>
      </trkpt>
      <trkpt lat="46.01599" lon="4.76108">
        <ele>200</ele>
        <time>2018-02-09T11:21:57Z</time>
      </trkpt>
      <trkpt lat="46.01591" lon="4.76106">
        <ele>200</ele>
        <time>2018-02-09T11:21:59Z</time>
      </trkpt>
      <trkpt lat="46.01586" lon="4.76105">
        <ele>200</ele>
        <time>2018-02-09T11:22:00Z</time>
      </trkpt>
      <trkpt lat="46.01578" lon="4.76104">
        <ele>202</ele>
        <time>2018-02-09T11:22:02Z</time>
      </trkpt>
      <trkpt lat="46.01574" lon="4.76102">
        <ele>202</ele>
        <time>2018-02-09T11:22:03Z</time>
      </trkpt>
      <trkpt lat="46.01567" lon="4.76101">
        <ele>202</ele>
        <time>2018-02-09T11:22:05Z</time>
      </trkpt>
      <trkpt lat="46.01562" lon="4.761">
        <ele>202</ele>
        <time>2018-02-09T11:22:06Z</time>
      </trkpt>
      <trkpt lat="46.01553" lon="4.76097">
        <ele>202</ele>
        <time>2018-02-09T11:22:08Z</time>
      </trkpt>
      <trkpt lat="46.01549" lon="4.76095">
        <ele>202</ele>
        <time>2018-02-09T11:22:09Z</time>
      </trkpt>
      <trkpt lat="46.01543" lon="4.76093">
        <ele>202</ele>
        <time>2018-02-09T11:22:10Z</time>
      </trkpt>
      <trkpt lat="46.01539" lon="4.76091">
        <ele>202</ele>
        <time>2018-02-09T11:22:11Z</time>
      </trkpt>
      <trkpt lat="46.01535" lon="4.7609">
        <ele>202</ele>
        <time>2018-02-09T11:22:12Z</time>
      </trkpt>
      <trkpt lat="46.0153" lon="4.76088">
        <ele>202</ele>
        <time>2018-02-09T11:22:13Z</time>
      </trkpt>
      <trkpt lat="46.01521" lon="4.76086">
        <ele>203</ele>
        <time>2018-02-09T11:22:15Z</time>
      </trkpt>
      <trkpt lat="46.01516" lon="4.76085">
        <ele>203</ele>
        <time>2018-02-09T11:22:16Z</time>
      </trkpt>
      <trkpt lat="46.01508" lon="4.76083">
        <ele>203</ele>
        <time>2018-02-09T11:22:18Z</time>
      </trkpt>
      <trkpt lat="46.01502" lon="4.76082">
        <ele>203</ele>
        <time>2018-02-09T11:22:19Z</time>
      </trkpt>
      <trkpt lat="46.01498" lon="4.76081">
        <ele>203</ele>
        <time>2018-02-09T11:22:20Z</time>
      </trkpt>
      <trkpt lat="46.01493" lon="4.7608">
        <ele>203</ele>
        <time>2018-02-09T11:22:21Z</time>
      </trkpt>
      <trkpt lat="46.01484" lon="4.76078">
        <ele>203</ele>
        <time>2018-02-09T11:22:23Z</time>
      </trkpt>
      <trkpt lat="46.01479" lon="4.76077">
        <ele>203</ele>
        <time>2018-02-09T11:22:24Z</time>
      </trkpt>
      <trkpt lat="46.01474" lon="4.76077">
        <ele>203</ele>
        <time>2018-02-09T11:22:25Z</time>
      </trkpt>
      <trkpt lat="46.0147" lon="4.76075">
        <ele>203</ele>
        <time>2018-02-09T11:22:26Z</time>
      </trkpt>
      <trkpt lat="46.01466" lon="4.76073">
        <ele>203</ele>
        <time>2018-02-09T11:22:27Z</time>
      </trkpt>
      <trkpt lat="46.01461" lon="4.76071">
        <ele>203</ele>
        <time>2018-02-09T11:22:28Z</time>
      </trkpt>
      <trkpt lat="46.01453" lon="4.76069">
        <ele>203</ele>
        <time>2018-02-09T11:22:30Z</time>
      </trkpt>
      <trkpt lat="46.01449" lon="4.76067">
        <ele>203</ele>
        <time>2018-02-09T11:22:31Z</time>
      </trkpt>
      <trkpt lat="46.01445" lon="4.76065">
        <ele>203</ele>
        <time>2018-02-09T11:22:32Z</time>
      </trkpt>
      <trkpt lat="46.01441" lon="4.76063">
        <ele>203</ele>
        <time>2018-02-09T11:22:33Z</time>
      </trkpt>
      <trkpt lat="46.01436" lon="4.76059">
        <ele>203</ele>
        <time>2018-02-09T11:22:34Z</time>
      </trkpt>
      <trkpt lat="46.01432" lon="4.76057">
        <ele>203</ele>
        <time>2018-02-09T11:22:35Z</time>
      </trkpt>
      <trkpt lat="46.01427" lon="4.76054">
        <ele>203</ele>
        <time>2018-02-09T11:22:36Z</time>
      </trkpt>
      <trkpt lat="46.01423" lon="4.76051">
        <ele>204</ele>
        <time>2018-02-09T11:22:37Z</time>
      </trkpt>
      <trkpt lat="46.01419" lon="4.76048">
        <ele>204</ele>
        <time>2018-02-09T11:22:38Z</time>
      </trkpt>
      <trkpt lat="46.01414" lon="4.76046">
        <ele>203</ele>
        <time>2018-02-09T11:22:39Z</time>
      </trkpt>
      <trkpt lat="46.0141" lon="4.76042">
        <ele>203</ele>
        <time>2018-02-09T11:22:40Z</time>
      </trkpt>
      <trkpt lat="46.01406" lon="4.76039">
        <ele>204</ele>
        <time>2018-02-09T11:22:41Z</time>
      </trkpt>
      <trkpt lat="46.01397" lon="4.76036">
        <ele>204</ele>
        <time>2018-02-09T11:22:43Z</time>
      </trkpt>
      <trkpt lat="46.01393" lon="4.76036">
        <ele>203</ele>
        <time>2018-02-09T11:22:44Z</time>
      </trkpt>
      <trkpt lat="46.01389" lon="4.76035">
        <ele>203</ele>
        <time>2018-02-09T11:22:45Z</time>
      </trkpt>
      <trkpt lat="46.01384" lon="4.76035">
        <ele>203</ele>
        <time>2018-02-09T11:22:46Z</time>
      </trkpt>
      <trkpt lat="46.0138" lon="4.76035">
        <ele>203</ele>
        <time>2018-02-09T11:22:47Z</time>
      </trkpt>
      <trkpt lat="46.01374" lon="4.76036">
        <ele>203</ele>
        <time>2018-02-09T11:22:48Z</time>
      </trkpt>
      <trkpt lat="46.0137" lon="4.76037">
        <ele>203</ele>
        <time>2018-02-09T11:22:49Z</time>
      </trkpt>
      <trkpt lat="46.01365" lon="4.76039">
        <ele>203</ele>
        <time>2018-02-09T11:22:50Z</time>
      </trkpt>
      <trkpt lat="46.01361" lon="4.7604">
        <ele>203</ele>
        <time>2018-02-09T11:22:51Z</time>
      </trkpt>
      <trkpt lat="46.01356" lon="4.76043">
        <ele>203</ele>
        <time>2018-02-09T11:22:52Z</time>
      </trkpt>
      <trkpt lat="46.01349" lon="4.76046">
        <ele>203</ele>
        <time>2018-02-09T11:22:54Z</time>
      </trkpt>
      <trkpt lat="46.01345" lon="4.76047">
        <ele>203</ele>
        <time>2018-02-09T11:22:55Z</time>
      </trkpt>
      <trkpt lat="46.01339" lon="4.76048">
        <ele>203</ele>
        <time>2018-02-09T11:22:56Z</time>
      </trkpt>
      <trkpt lat="46.01335" lon="4.76049">
        <ele>203</ele>
        <time>2018-02-09T11:22:57Z</time>
      </trkpt>
      <trkpt lat="46.01326" lon="4.76051">
        <ele>203</ele>
        <time>2018-02-09T11:22:59Z</time>
      </trkpt>
      <trkpt lat="46.01322" lon="4.76052">
        <ele>203</ele>
        <time>2018-02-09T11:23:00Z</time>
      </trkpt>
      <trkpt lat="46.01314" lon="4.76054">
        <ele>203</ele>
        <time>2018-02-09T11:23:02Z</time>
      </trkpt>
      <trkpt lat="46.0131" lon="4.76056">
        <ele>203</ele>
        <time>2018-02-09T11:23:03Z</time>
      </trkpt>
      <trkpt lat="46.01306" lon="4.76057">
        <ele>203</ele>
        <time>2018-02-09T11:23:04Z</time>
      </trkpt>
      <trkpt lat="46.01301" lon="4.76059">
        <ele>203</ele>
        <time>2018-02-09T11:23:05Z</time>
      </trkpt>
      <trkpt lat="46.01297" lon="4.76059">
        <ele>204</ele>
        <time>2018-02-09T11:23:06Z</time>
      </trkpt>
      <trkpt lat="46.01292" lon="4.76061">
        <ele>204</ele>
        <time>2018-02-09T11:23:07Z</time>
      </trkpt>
      <trkpt lat="46.01285" lon="4.76063">
        <ele>204</ele>
        <time>2018-02-09T11:23:09Z</time>
      </trkpt>
      <trkpt lat="46.01281" lon="4.76063">
        <ele>204</ele>
        <time>2018-02-09T11:23:10Z</time>
      </trkpt>
      <trkpt lat="46.01273" lon="4.76064">
        <ele>204</ele>
        <time>2018-02-09T11:23:12Z</time>
      </trkpt>
      <trkpt lat="46.01268" lon="4.76065">
        <ele>204</ele>
        <time>2018-02-09T11:23:13Z</time>
      </trkpt>
      <trkpt lat="46.0126" lon="4.76066">
        <ele>204</ele>
        <time>2018-02-09T11:23:15Z</time>
      </trkpt>
      <trkpt lat="46.01255" lon="4.76066">
        <ele>204</ele>
        <time>2018-02-09T11:23:16Z</time>
      </trkpt>
      <trkpt lat="46.01247" lon="4.76066">
        <ele>205</ele>
        <time>2018-02-09T11:23:18Z</time>
      </trkpt>
      <trkpt lat="46.01243" lon="4.76066">
        <ele>205</ele>
        <time>2018-02-09T11:23:19Z</time>
      </trkpt>
      <trkpt lat="46.01235" lon="4.76066">
        <ele>205</ele>
        <time>2018-02-09T11:23:21Z</time>
      </trkpt>
      <trkpt lat="46.01231" lon="4.76066">
        <ele>205</ele>
        <time>2018-02-09T11:23:22Z</time>
      </trkpt>
      <trkpt lat="46.01224" lon="4.76066">
        <ele>206</ele>
        <time>2018-02-09T11:23:24Z</time>
      </trkpt>
      <trkpt lat="46.0122" lon="4.76066">
        <ele>206</ele>
        <time>2018-02-09T11:23:25Z</time>
      </trkpt>
      <trkpt lat="46.01212" lon="4.76063">
        <ele>206</ele>
        <time>2018-02-09T11:23:27Z</time>
      </trkpt>
      <trkpt lat="46.01209" lon="4.76062">
        <ele>206</ele>
        <time>2018-02-09T11:23:28Z</time>
      </trkpt>
      <trkpt lat="46.01202" lon="4.76059">
        <ele>206</ele>
        <time>2018-02-09T11:23:30Z</time>
      </trkpt>
      <trkpt lat="46.01198" lon="4.76058">
        <ele>206</ele>
        <time>2018-02-09T11:23:31Z</time>
      </trkpt>
      <trkpt lat="46.01192" lon="4.76056">
        <ele>206</ele>
        <time>2018-02-09T11:23:33Z</time>
      </trkpt>
      <trkpt lat="46.01189" lon="4.76055">
        <ele>206</ele>
        <time>2018-02-09T11:23:34Z</time>
      </trkpt>
      <trkpt lat="46.01181" lon="4.7605">
        <ele>207</ele>
        <time>2018-02-09T11:23:36Z</time>
      </trkpt>
      <trkpt lat="46.01178" lon="4.76049">
        <ele>207</ele>
        <time>2018-02-09T11:23:37Z</time>
      </trkpt>
      <trkpt lat="46.0117" lon="4.76046">
        <ele>207</ele>
        <time>2018-02-09T11:23:40Z</time>
      </trkpt>
      <trkpt lat="46.01168" lon="4.76047">
        <ele>207</ele>
        <time>2018-02-09T11:23:41Z</time>
      </trkpt>
      <trkpt lat="46.01161" lon="4.76047">
        <ele>208</ele>
        <time>2018-02-09T11:23:45Z</time>
      </trkpt>
      <trkpt lat="46.01157" lon="4.76047">
        <ele>208</ele>
        <time>2018-02-09T11:23:46Z</time>
      </trkpt>
      <trkpt lat="46.0115" lon="4.76048">
        <ele>208</ele>
        <time>2018-02-09T11:23:48Z</time>
      </trkpt>
      <trkpt lat="46.01145" lon="4.76048">
        <ele>208</ele>
        <time>2018-02-09T11:23:49Z</time>
      </trkpt>
      <trkpt lat="46.0114" lon="4.7605">
        <ele>208</ele>
        <time>2018-02-09T11:23:50Z</time>
      </trkpt>
      <trkpt lat="46.01136" lon="4.76051">
        <ele>208</ele>
        <time>2018-02-09T11:23:51Z</time>
      </trkpt>
      <trkpt lat="46.01127" lon="4.76053">
        <ele>208</ele>
        <time>2018-02-09T11:23:53Z</time>
      </trkpt>
      <trkpt lat="46.01123" lon="4.76054">
        <ele>208</ele>
        <time>2018-02-09T11:23:54Z</time>
      </trkpt>
      <trkpt lat="46.01115" lon="4.76055">
        <ele>208</ele>
        <time>2018-02-09T11:23:56Z</time>
      </trkpt>
      <trkpt lat="46.01111" lon="4.76056">
        <ele>208</ele>
        <time>2018-02-09T11:23:57Z</time>
      </trkpt>
      <trkpt lat="46.01103" lon="4.76056">
        <ele>208</ele>
        <time>2018-02-09T11:23:59Z</time>
      </trkpt>
      <trkpt lat="46.01099" lon="4.76056">
        <ele>208</ele>
        <time>2018-02-09T11:24:00Z</time>
      </trkpt>
      <trkpt lat="46.01092" lon="4.76057">
        <ele>208</ele>
        <time>2018-02-09T11:24:02Z</time>
      </trkpt>
      <trkpt lat="46.01089" lon="4.76058">
        <ele>208</ele>
        <time>2018-02-09T11:24:03Z</time>
      </trkpt>
      <trkpt lat="46.01082" lon="4.7606">
        <ele>209</ele>
        <time>2018-02-09T11:24:06Z</time>
      </trkpt>
      <trkpt lat="46.01078" lon="4.76061">
        <ele>209</ele>
        <time>2018-02-09T11:24:07Z</time>
      </trkpt>
      <trkpt lat="46.01071" lon="4.76062">
        <ele>209</ele>
        <time>2018-02-09T11:24:09Z</time>
      </trkpt>
      <trkpt lat="46.01067" lon="4.76063">
        <ele>209</ele>
        <time>2018-02-09T11:24:10Z</time>
      </trkpt>
      <trkpt lat="46.01059" lon="4.76065">
        <ele>209</ele>
        <time>2018-02-09T11:24:13Z</time>
      </trkpt>
      <trkpt lat="46.01056" lon="4.76066">
        <ele>210</ele>
        <time>2018-02-09T11:24:14Z</time>
      </trkpt>
      <trkpt lat="46.01049" lon="4.76067">
        <ele>210</ele>
        <time>2018-02-09T11:24:16Z</time>
      </trkpt>
      <trkpt lat="46.01045" lon="4.76068">
        <ele>210</ele>
        <time>2018-02-09T11:24:17Z</time>
      </trkpt>
      <trkpt lat="46.01038" lon="4.7607">
        <ele>210</ele>
        <time>2018-02-09T11:24:20Z</time>
      </trkpt>
      <trkpt lat="46.01035" lon="4.7607">
        <ele>210</ele>
        <time>2018-02-09T11:24:21Z</time>
      </trkpt>
      <trkpt lat="46.01026" lon="4.7607">
        <ele>210</ele>
        <time>2018-02-09T11:24:24Z</time>
      </trkpt>
      <trkpt lat="46.01023" lon="4.76071">
        <ele>210</ele>
        <time>2018-02-09T11:24:25Z</time>
      </trkpt>
      <trkpt lat="46.01016" lon="4.76072">
        <ele>211</ele>
        <time>2018-02-09T11:24:27Z</time>
      </trkpt>
      <trkpt lat="46.01012" lon="4.76072">
        <ele>211</ele>
        <time>2018-02-09T11:24:28Z</time>
      </trkpt>
      <trkpt lat="46.01005" lon="4.76072">
        <ele>211</ele>
        <time>2018-02-09T11:24:30Z</time>
      </trkpt>
      <trkpt lat="46.01002" lon="4.76072">
        <ele>211</ele>
        <time>2018-02-09T11:24:31Z</time>
      </trkpt>
      <trkpt lat="46.00994" lon="4.76072">
        <ele>212</ele>
        <time>2018-02-09T11:24:33Z</time>
      </trkpt>
      <trkpt lat="46.0099" lon="4.76071">
        <ele>212</ele>
        <time>2018-02-09T11:24:34Z</time>
      </trkpt>
      <trkpt lat="46.00982" lon="4.76071">
        <ele>212</ele>
        <time>2018-02-09T11:24:36Z</time>
      </trkpt>
      <trkpt lat="46.00978" lon="4.76071">
        <ele>212</ele>
        <time>2018-02-09T11:24:37Z</time>
      </trkpt>
      <trkpt lat="46.0097" lon="4.76072">
        <ele>212</ele>
        <time>2018-02-09T11:24:39Z</time>
      </trkpt>
      <trkpt lat="46.00966" lon="4.76073">
        <ele>212</ele>
        <time>2018-02-09T11:24:40Z</time>
      </trkpt>
      <trkpt lat="46.00958" lon="4.76075">
        <ele>212</ele>
        <time>2018-02-09T11:24:42Z</time>
      </trkpt>
      <trkpt lat="46.00954" lon="4.76076">
        <ele>212</ele>
        <time>2018-02-09T11:24:43Z</time>
      </trkpt>
      <trkpt lat="46.00946" lon="4.76077">
        <ele>212</ele>
        <time>2018-02-09T11:24:45Z</time>
      </trkpt>
      <trkpt lat="46.00942" lon="4.76078">
        <ele>212</ele>
        <time>2018-02-09T11:24:46Z</time>
      </trkpt>
      <trkpt lat="46.00934" lon="4.7608">
        <ele>212</ele>
        <time>2018-02-09T11:24:48Z</time>
      </trkpt>
      <trkpt lat="46.00931" lon="4.7608">
        <ele>213</ele>
        <time>2018-02-09T11:24:49Z</time>
      </trkpt>
      <trkpt lat="46.00923" lon="4.76081">
        <ele>213</ele>
        <time>2018-02-09T11:24:51Z</time>
      </trkpt>
      <trkpt lat="46.0092" lon="4.76082">
        <ele>213</ele>
        <time>2018-02-09T11:24:52Z</time>
      </trkpt>
      <trkpt lat="46.00913" lon="4.76083">
        <ele>213</ele>
        <time>2018-02-09T11:24:54Z</time>
      </trkpt>
      <trkpt lat="46.00909" lon="4.76084">
        <ele>214</ele>
        <time>2018-02-09T11:24:55Z</time>
      </trkpt>
      <trkpt lat="46.00903" lon="4.76086">
        <ele>214</ele>
        <time>2018-02-09T11:24:57Z</time>
      </trkpt>
      <trkpt lat="46.00899" lon="4.76087">
        <ele>214</ele>
        <time>2018-02-09T11:24:58Z</time>
      </trkpt>
      <trkpt lat="46.00892" lon="4.76088">
        <ele>214</ele>
        <time>2018-02-09T11:25:00Z</time>
      </trkpt>
      <trkpt lat="46.00889" lon="4.76089">
        <ele>215</ele>
        <time>2018-02-09T11:25:01Z</time>
      </trkpt>
      <trkpt lat="46.00882" lon="4.76091">
        <ele>215</ele>
        <time>2018-02-09T11:25:03Z</time>
      </trkpt>
      <trkpt lat="46.00879" lon="4.76091">
        <ele>215</ele>
        <time>2018-02-09T11:25:04Z</time>
      </trkpt>
      <trkpt lat="46.00872" lon="4.76093">
        <ele>215</ele>
        <time>2018-02-09T11:25:06Z</time>
      </trkpt>
      <trkpt lat="46.00869" lon="4.76094">
        <ele>215</ele>
        <time>2018-02-09T11:25:07Z</time>
      </trkpt>
      <trkpt lat="46.00862" lon="4.76095">
        <ele>215</ele>
        <time>2018-02-09T11:25:09Z</time>
      </trkpt>
      <trkpt lat="46.00858" lon="4.76095">
        <ele>215</ele>
        <time>2018-02-09T11:25:10Z</time>
      </trkpt>
      <trkpt lat="46.00851" lon="4.76096">
        <ele>216</ele>
        <time>2018-02-09T11:25:12Z</time>
      </trkpt>
      <trkpt lat="46.00848" lon="4.76097">
        <ele>216</ele>
        <time>2018-02-09T11:25:13Z</time>
      </trkpt>
      <trkpt lat="46.00841" lon="4.76098">
        <ele>216</ele>
        <time>2018-02-09T11:25:15Z</time>
      </trkpt>
      <trkpt lat="46.00838" lon="4.76099">
        <ele>216</ele>
        <time>2018-02-09T11:25:16Z</time>
      </trkpt>
      <trkpt lat="46.00832" lon="4.761">
        <ele>217</ele>
        <time>2018-02-09T11:25:18Z</time>
      </trkpt>
      <trkpt lat="46.00829" lon="4.76101">
        <ele>217</ele>
        <time>2018-02-09T11:25:19Z</time>
      </trkpt>
      <trkpt lat="46.0082" lon="4.76102">
        <ele>218</ele>
        <time>2018-02-09T11:25:22Z</time>
      </trkpt>
      <trkpt lat="46.00817" lon="4.76102">
        <ele>218</ele>
        <time>2018-02-09T11:25:23Z</time>
      </trkpt>
      <trkpt lat="46.00811" lon="4.76103">
        <ele>218</ele>
        <time>2018-02-09T11:25:25Z</time>
      </trkpt>
      <trkpt lat="46.00808" lon="4.76103">
        <ele>218</ele>
        <time>2018-02-09T11:25:26Z</time>
      </trkpt>
      <trkpt lat="46.00802" lon="4.76104">
        <ele>218</ele>
        <time>2018-02-09T11:25:28Z</time>
      </trkpt>
      <trkpt lat="46.00799" lon="4.76105">
        <ele>218</ele>
        <time>2018-02-09T11:25:29Z</time>
      </trkpt>
      <trkpt lat="46.00792" lon="4.76106">
        <ele>219</ele>
        <time>2018-02-09T11:25:31Z</time>
      </trkpt>
      <trkpt lat="46.00789" lon="4.76106">
        <ele>219</ele>
        <time>2018-02-09T11:25:32Z</time>
      </trkpt>
      <trkpt lat="46.00781" lon="4.76107">
        <ele>219</ele>
        <time>2018-02-09T11:25:35Z</time>
      </trkpt>
      <trkpt lat="46.00778" lon="4.76107">
        <ele>219</ele>
        <time>2018-02-09T11:25:36Z</time>
      </trkpt>
      <trkpt lat="46.0077" lon="4.76107">
        <ele>219</ele>
        <time>2018-02-09T11:25:39Z</time>
      </trkpt>
      <trkpt lat="46.00768" lon="4.76107">
        <ele>219</ele>
        <time>2018-02-09T11:25:40Z</time>
      </trkpt>
      <trkpt lat="46.00759" lon="4.76108">
        <ele>219</ele>
        <time>2018-02-09T11:25:43Z</time>
      </trkpt>
      <trkpt lat="46.00756" lon="4.76109">
        <ele>219</ele>
        <time>2018-02-09T11:25:44Z</time>
      </trkpt>
      <trkpt lat="46.00748" lon="4.76109">
        <ele>223</ele>
        <time>2018-02-09T11:25:47Z</time>
      </trkpt>
      <trkpt lat="46.00746" lon="4.76109">
        <ele>223</ele>
        <time>2018-02-09T11:25:48Z</time>
      </trkpt>
      <trkpt lat="46.00739" lon="4.76109">
        <ele>223</ele>
        <time>2018-02-09T11:25:51Z</time>
      </trkpt>
      <trkpt lat="46.00736" lon="4.76109">
        <ele>223</ele>
        <time>2018-02-09T11:25:52Z</time>
      </trkpt>
      <trkpt lat="46.00729" lon="4.76111">
        <ele>223</ele>
        <time>2018-02-09T11:25:55Z</time>
      </trkpt>
      <trkpt lat="46.00726" lon="4.76112">
        <ele>224</ele>
        <time>2018-02-09T11:25:56Z</time>
      </trkpt>
      <trkpt lat="46.00717" lon="4.76111">
        <ele>224</ele>
        <time>2018-02-09T11:26:00Z</time>
      </trkpt>
      <trkpt lat="46.00715" lon="4.76111">
        <ele>224</ele>
        <time>2018-02-09T11:26:01Z</time>
      </trkpt>
      <trkpt lat="46.00708" lon="4.76113">
        <ele>224</ele>
        <time>2018-02-09T11:26:04Z</time>
      </trkpt>
      <trkpt lat="46.00705" lon="4.76113">
        <ele>225</ele>
        <time>2018-02-09T11:26:05Z</time>
      </trkpt>
      <trkpt lat="46.00698" lon="4.76113">
        <ele>225</ele>
        <time>2018-02-09T11:26:07Z</time>
      </trkpt>
      <trkpt lat="46.00696" lon="4.76113">
        <ele>225</ele>
        <time>2018-02-09T11:26:08Z</time>
      </trkpt>
      <trkpt lat="46.00688" lon="4.76114">
        <ele>225</ele>
        <time>2018-02-09T11:26:11Z</time>
      </trkpt>
      <trkpt lat="46.00686" lon="4.76114">
        <ele>225</ele>
        <time>2018-02-09T11:26:12Z</time>
      </trkpt>
      <trkpt lat="46.00678" lon="4.76115">
        <ele>226</ele>
        <time>2018-02-09T11:26:18Z</time>
      </trkpt>
      <trkpt lat="46.00676" lon="4.76115">
        <ele>226</ele>
        <time>2018-02-09T11:26:19Z</time>
      </trkpt>
      <trkpt lat="46.00668" lon="4.76119">
        <ele>226</ele>
        <time>2018-02-09T11:26:23Z</time>
      </trkpt>
      <trkpt lat="46.00666" lon="4.76119">
        <ele>228</ele>
        <time>2018-02-09T11:26:24Z</time>
      </trkpt>
      <trkpt lat="46.00659" lon="4.76122">
        <ele>228</ele>
        <time>2018-02-09T11:26:28Z</time>
      </trkpt>
      <trkpt lat="46.00657" lon="4.76123">
        <ele>228</ele>
        <time>2018-02-09T11:26:29Z</time>
      </trkpt>
      <trkpt lat="46.00649" lon="4.76121">
        <ele>228</ele>
        <time>2018-02-09T11:26:34Z</time>
      </trkpt>
      <trkpt lat="46.00648" lon="4.7612">
        <ele>228</ele>
        <time>2018-02-09T11:26:35Z</time>
      </trkpt>
      <trkpt lat="46.0064" lon="4.76118">
        <ele>228</ele>
        <time>2018-02-09T11:26:41Z</time>
      </trkpt>
      <trkpt lat="46.00639" lon="4.76117">
        <ele>228</ele>
        <time>2018-02-09T11:26:42Z</time>
      </trkpt>
      <trkpt lat="46.00632" lon="4.76113">
        <ele>228</ele>
        <time>2018-02-09T11:26:48Z</time>
      </trkpt>
      <trkpt lat="46.00629" lon="4.76113">
        <ele>228</ele>
        <time>2018-02-09T11:26:49Z</time>
      </trkpt>
      <trkpt lat="46.00624" lon="4.76121">
        <ele>228</ele>
        <time>2018-02-09T11:26:53Z</time>
      </trkpt>
      <trkpt lat="46.00624" lon="4.76124">
        <ele>228</ele>
        <time>2018-02-09T11:26:54Z</time>
      </trkpt>
      <trkpt lat="46.00624" lon="4.76136">
        <ele>228</ele>
        <time>2018-02-09T11:26:58Z</time>
      </trkpt>
      <trkpt lat="46.00625" lon="4.76139">
        <ele>228</ele>
        <time>2018-02-09T11:26:59Z</time>
      </trkpt>
      <trkpt lat="46.00628" lon="4.76149">
        <ele>228</ele>
        <time>2018-02-09T11:27:02Z</time>
      </trkpt>
      <trkpt lat="46.00629" lon="4.76152">
        <ele>228</ele>
        <time>2018-02-09T11:27:03Z</time>
      </trkpt>
      <trkpt lat="46.00632" lon="4.76162">
        <ele>228</ele>
        <time>2018-02-09T11:27:06Z</time>
      </trkpt>
      <trkpt lat="46.00632" lon="4.76166">
        <ele>228</ele>
        <time>2018-02-09T11:27:07Z</time>
      </trkpt>
      <trkpt lat="46.0063" lon="4.76176">
        <ele>230</ele>
        <time>2018-02-09T11:27:10Z</time>
      </trkpt>
      <trkpt lat="46.00629" lon="4.7618">
        <ele>230</ele>
        <time>2018-02-09T11:27:11Z</time>
      </trkpt>
      <trkpt lat="46.00627" lon="4.76188">
        <ele>230</ele>
        <time>2018-02-09T11:27:13Z</time>
      </trkpt>
      <trkpt lat="46.00625" lon="4.76192">
        <ele>230</ele>
        <time>2018-02-09T11:27:14Z</time>
      </trkpt>
      <trkpt lat="46.00618" lon="4.76195">
        <ele>230</ele>
        <time>2018-02-09T11:27:16Z</time>
      </trkpt>
      <trkpt lat="46.00614" lon="4.76195">
        <ele>230</ele>
        <time>2018-02-09T11:27:17Z</time>
      </trkpt>
      <trkpt lat="46.00606" lon="4.76192">
        <ele>230</ele>
        <time>2018-02-09T11:27:19Z</time>
      </trkpt>
      <trkpt lat="46.00601" lon="4.7619">
        <ele>230</ele>
        <time>2018-02-09T11:27:20Z</time>
      </trkpt>
      <trkpt lat="46.00596" lon="4.76188">
        <ele>230</ele>
        <time>2018-02-09T11:27:21Z</time>
      </trkpt>
      <trkpt lat="46.00591" lon="4.76186">
        <ele>230</ele>
        <time>2018-02-09T11:27:22Z</time>
      </trkpt>
      <trkpt lat="46.00586" lon="4.76185">
        <ele>230</ele>
        <time>2018-02-09T11:27:23Z</time>
      </trkpt>
      <trkpt lat="46.00581" lon="4.76184">
        <ele>230</ele>
        <time>2018-02-09T11:27:24Z</time>
      </trkpt>
      <trkpt lat="46.00576" lon="4.76183">
        <ele>230</ele>
        <time>2018-02-09T11:27:25Z</time>
      </trkpt>
      <trkpt lat="46.00568" lon="4.76182">
        <ele>230</ele>
        <time>2018-02-09T11:27:26Z</time>
      </trkpt>
      <trkpt lat="46.00564" lon="4.76181">
        <ele>230</ele>
        <time>2018-02-09T11:27:27Z</time>
      </trkpt>
      <trkpt lat="46.00558" lon="4.7618">
        <ele>230</ele>
        <time>2018-02-09T11:27:28Z</time>
      </trkpt>
      <trkpt lat="46.00552" lon="4.76177">
        <ele>230</ele>
        <time>2018-02-09T11:27:29Z</time>
      </trkpt>
      <trkpt lat="46.00546" lon="4.76175">
        <ele>230</ele>
        <time>2018-02-09T11:27:30Z</time>
      </trkpt>
      <trkpt lat="46.00541" lon="4.76172">
        <ele>230</ele>
        <time>2018-02-09T11:27:31Z</time>
      </trkpt>
      <trkpt lat="46.00533" lon="4.76169">
        <ele>230</ele>
        <time>2018-02-09T11:27:32Z</time>
      </trkpt>
      <trkpt lat="46.00526" lon="4.76165">
        <ele>228</ele>
        <time>2018-02-09T11:27:33Z</time>
      </trkpt>
      <trkpt lat="46.0052" lon="4.76158">
        <ele>228</ele>
        <time>2018-02-09T11:27:34Z</time>
      </trkpt>
      <trkpt lat="46.00514" lon="4.76151">
        <ele>228</ele>
        <time>2018-02-09T11:27:35Z</time>
      </trkpt>
      <trkpt lat="46.00508" lon="4.76145">
        <ele>228</ele>
        <time>2018-02-09T11:27:36Z</time>
      </trkpt>
      <trkpt lat="46.00502" lon="4.76138">
        <ele>227</ele>
        <time>2018-02-09T11:27:37Z</time>
      </trkpt>
      <trkpt lat="46.00496" lon="4.76131">
        <ele>228</ele>
        <time>2018-02-09T11:27:38Z</time>
      </trkpt>
      <trkpt lat="46.00489" lon="4.76123">
        <ele>227</ele>
        <time>2018-02-09T11:27:39Z</time>
      </trkpt>
      <trkpt lat="46.00482" lon="4.76115">
        <ele>227</ele>
        <time>2018-02-09T11:27:40Z</time>
      </trkpt>
      <trkpt lat="46.00476" lon="4.76108">
        <ele>227</ele>
        <time>2018-02-09T11:27:41Z</time>
      </trkpt>
      <trkpt lat="46.00468" lon="4.761">
        <ele>227</ele>
        <time>2018-02-09T11:27:42Z</time>
      </trkpt>
      <trkpt lat="46.00461" lon="4.76094">
        <ele>227</ele>
        <time>2018-02-09T11:27:43Z</time>
      </trkpt>
      <trkpt lat="46.00453" lon="4.76089">
        <ele>227</ele>
        <time>2018-02-09T11:27:44Z</time>
      </trkpt>
      <trkpt lat="46.00447" lon="4.76085">
        <ele>227</ele>
        <time>2018-02-09T11:27:45Z</time>
      </trkpt>
      <trkpt lat="46.00439" lon="4.7608">
        <ele>224</ele>
        <time>2018-02-09T11:27:46Z</time>
      </trkpt>
      <trkpt lat="46.00426" lon="4.7608">
        <ele>225</ele>
        <time>2018-02-09T11:27:47Z</time>
      </trkpt>
      <trkpt lat="46.00418" lon="4.76077">
        <ele>225</ele>
        <time>2018-02-09T11:27:48Z</time>
      </trkpt>
      <trkpt lat="46.0041" lon="4.76074">
        <ele>226</ele>
        <time>2018-02-09T11:27:49Z</time>
      </trkpt>
      <trkpt lat="46.00402" lon="4.76073">
        <ele>226</ele>
        <time>2018-02-09T11:27:50Z</time>
      </trkpt>
      <trkpt lat="46.00395" lon="4.76074">
        <ele>226</ele>
        <time>2018-02-09T11:27:51Z</time>
      </trkpt>
      <trkpt lat="46.00388" lon="4.76075">
        <ele>226</ele>
        <time>2018-02-09T11:27:52Z</time>
      </trkpt>
      <trkpt lat="46.00384" lon="4.76076">
        <ele>226</ele>
        <time>2018-02-09T11:27:53Z</time>
      </trkpt>
      <trkpt lat="46.00377" lon="4.76074">
        <ele>226</ele>
        <time>2018-02-09T11:27:54Z</time>
      </trkpt>
      <trkpt lat="46.00372" lon="4.7607">
        <ele>226</ele>
        <time>2018-02-09T11:27:55Z</time>
      </trkpt>
      <trkpt lat="46.00369" lon="4.76064">
        <ele>226</ele>
        <time>2018-02-09T11:27:56Z</time>
      </trkpt>
      <trkpt lat="46.00364" lon="4.7606">
        <ele>226</ele>
        <time>2018-02-09T11:27:57Z</time>
      </trkpt>
      <trkpt lat="46.00362" lon="4.76053">
        <ele>226</ele>
        <time>2018-02-09T11:27:58Z</time>
      </trkpt>
      <trkpt lat="46.00369" lon="4.76048">
        <ele>226</ele>
        <time>2018-02-09T11:27:59Z</time>
      </trkpt>
      <trkpt lat="46.00374" lon="4.76043">
        <ele>225</ele>
        <time>2018-02-09T11:28:00Z</time>
      </trkpt>
      <trkpt lat="46.00378" lon="4.76037">
        <ele>225</ele>
        <time>2018-02-09T11:28:01Z</time>
      </trkpt>
      <trkpt lat="46.00382" lon="4.76031">
        <ele>225</ele>
        <time>2018-02-09T11:28:02Z</time>
      </trkpt>
      <trkpt lat="46.00389" lon="4.76026">
        <ele>224</ele>
        <time>2018-02-09T11:28:03Z</time>
      </trkpt>
      <trkpt lat="46.00395" lon="4.7602">
        <ele>224</ele>
        <time>2018-02-09T11:28:04Z</time>
      </trkpt>
      <trkpt lat="46.00402" lon="4.76014">
        <ele>223</ele>
        <time>2018-02-09T11:28:05Z</time>
      </trkpt>
      <trkpt lat="46.00407" lon="4.76009">
        <ele>223</ele>
        <time>2018-02-09T11:28:06Z</time>
      </trkpt>
      <trkpt lat="46.00413" lon="4.76004">
        <ele>222</ele>
        <time>2018-02-09T11:28:07Z</time>
      </trkpt>
      <trkpt lat="46.00422" lon="4.75995">
        <ele>220</ele>
        <time>2018-02-09T11:28:08Z</time>
      </trkpt>
      <trkpt lat="46.00424" lon="4.75989">
        <ele>220</ele>
        <time>2018-02-09T11:28:09Z</time>
      </trkpt>
      <trkpt lat="46.00431" lon="4.75976">
        <ele>219</ele>
        <time>2018-02-09T11:28:10Z</time>
      </trkpt>
      <trkpt lat="46.00436" lon="4.75964">
        <ele>219</ele>
        <time>2018-02-09T11:28:11Z</time>
      </trkpt>
      <trkpt lat="46.00438" lon="4.75955">
        <ele>219</ele>
        <time>2018-02-09T11:28:12Z</time>
      </trkpt>
      <trkpt lat="46.00439" lon="4.75943">
        <ele>218</ele>
        <time>2018-02-09T11:28:13Z</time>
      </trkpt>
      <trkpt lat="46.00438" lon="4.75928">
        <ele>218</ele>
        <time>2018-02-09T11:28:14Z</time>
      </trkpt>
      <trkpt lat="46.00434" lon="4.75917">
        <ele>217</ele>
        <time>2018-02-09T11:28:15Z</time>
      </trkpt>
      <trkpt lat="46.00428" lon="4.75908">
        <ele>217</ele>
        <time>2018-02-09T11:28:16Z</time>
      </trkpt>
      <trkpt lat="46.00423" lon="4.75899">
        <ele>217</ele>
        <time>2018-02-09T11:28:17Z</time>
      </trkpt>
      <trkpt lat="46.00421" lon="4.75885">
        <ele>217</ele>
        <time>2018-02-09T11:28:18Z</time>
      </trkpt>
      <trkpt lat="46.00416" lon="4.75875">
        <ele>215</ele>
        <time>2018-02-09T11:28:19Z</time>
      </trkpt>
      <trkpt lat="46.00411" lon="4.75865">
        <ele>215</ele>
        <time>2018-02-09T11:28:20Z</time>
      </trkpt>
      <trkpt lat="46.00406" lon="4.75855">
        <ele>215</ele>
        <time>2018-02-09T11:28:21Z</time>
      </trkpt>
      <trkpt lat="46.00401" lon="4.75843">
        <ele>214</ele>
        <time>2018-02-09T11:28:22Z</time>
      </trkpt>
      <trkpt lat="46.00395" lon="4.75832">
        <ele>213</ele>
        <time>2018-02-09T11:28:23Z</time>
      </trkpt>
      <trkpt lat="46.00389" lon="4.75823">
        <ele>213</ele>
        <time>2018-02-09T11:28:24Z</time>
      </trkpt>
      <trkpt lat="46.00383" lon="4.75812">
        <ele>213</ele>
        <time>2018-02-09T11:28:25Z</time>
      </trkpt>
      <trkpt lat="46.00379" lon="4.75802">
        <ele>213</ele>
        <time>2018-02-09T11:28:26Z</time>
      </trkpt>
      <trkpt lat="46.00373" lon="4.75792">
        <ele>213</ele>
        <time>2018-02-09T11:28:27Z</time>
      </trkpt>
      <trkpt lat="46.00367" lon="4.75782">
        <ele>213</ele>
        <time>2018-02-09T11:28:28Z</time>
      </trkpt>
      <trkpt lat="46.00364" lon="4.75772">
        <ele>212</ele>
        <time>2018-02-09T11:28:29Z</time>
      </trkpt>
      <trkpt lat="46.00357" lon="4.75763">
        <ele>212</ele>
        <time>2018-02-09T11:28:30Z</time>
      </trkpt>
      <trkpt lat="46.00351" lon="4.75753">
        <ele>211</ele>
        <time>2018-02-09T11:28:31Z</time>
      </trkpt>
      <trkpt lat="46.00345" lon="4.75743">
        <ele>210</ele>
        <time>2018-02-09T11:28:32Z</time>
      </trkpt>
      <trkpt lat="46.00341" lon="4.75732">
        <ele>210</ele>
        <time>2018-02-09T11:28:33Z</time>
      </trkpt>
      <trkpt lat="46.00334" lon="4.75722">
        <ele>210</ele>
        <time>2018-02-09T11:28:34Z</time>
      </trkpt>
      <trkpt lat="46.00328" lon="4.75713">
        <ele>208</ele>
        <time>2018-02-09T11:28:35Z</time>
      </trkpt>
      <trkpt lat="46.00321" lon="4.75704">
        <ele>208</ele>
        <time>2018-02-09T11:28:36Z</time>
      </trkpt>
      <trkpt lat="46.00314" lon="4.75694">
        <ele>208</ele>
        <time>2018-02-09T11:28:37Z</time>
      </trkpt>
      <trkpt lat="46.00308" lon="4.75684">
        <ele>208</ele>
        <time>2018-02-09T11:28:38Z</time>
      </trkpt>
      <trkpt lat="46.00299" lon="4.75675">
        <ele>208</ele>
        <time>2018-02-09T11:28:39Z</time>
      </trkpt>
      <trkpt lat="46.00295" lon="4.75664">
        <ele>206</ele>
        <time>2018-02-09T11:28:40Z</time>
      </trkpt>
      <trkpt lat="46.00288" lon="4.75652">
        <ele>206</ele>
        <time>2018-02-09T11:28:41Z</time>
      </trkpt>
      <trkpt lat="46.00282" lon="4.75641">
        <ele>206</ele>
        <time>2018-02-09T11:28:42Z</time>
      </trkpt>
      <trkpt lat="46.00277" lon="4.75628">
        <ele>206</ele>
        <time>2018-02-09T11:28:43Z</time>
      </trkpt>
      <trkpt lat="46.00271" lon="4.75616">
        <ele>206</ele>
        <time>2018-02-09T11:28:44Z</time>
      </trkpt>
      <trkpt lat="46.00263" lon="4.75606">
        <ele>205</ele>
        <time>2018-02-09T11:28:45Z</time>
      </trkpt>
      <trkpt lat="46.00255" lon="4.75595">
        <ele>205</ele>
        <time>2018-02-09T11:28:46Z</time>
      </trkpt>
      <trkpt lat="46.00248" lon="4.75585">
        <ele>205</ele>
        <time>2018-02-09T11:28:47Z</time>
      </trkpt>
      <trkpt lat="46.00241" lon="4.75575">
        <ele>205</ele>
        <time>2018-02-09T11:28:48Z</time>
      </trkpt>
      <trkpt lat="46.00235" lon="4.75563">
        <ele>205</ele>
        <time>2018-02-09T11:28:49Z</time>
      </trkpt>
      <trkpt lat="46.00229" lon="4.7555">
        <ele>205</ele>
        <time>2018-02-09T11:28:50Z</time>
      </trkpt>
      <trkpt lat="46.00223" lon="4.75538">
        <ele>205</ele>
        <time>2018-02-09T11:28:51Z</time>
      </trkpt>
      <trkpt lat="46.00221" lon="4.75522">
        <ele>204</ele>
        <time>2018-02-09T11:28:52Z</time>
      </trkpt>
      <trkpt lat="46.00218" lon="4.75506">
        <ele>203</ele>
        <time>2018-02-09T11:28:53Z</time>
      </trkpt>
      <trkpt lat="46.00216" lon="4.75489">
        <ele>198</ele>
        <time>2018-02-09T11:28:54Z</time>
      </trkpt>
      <trkpt lat="46.00214" lon="4.75475">
        <ele>198</ele>
        <time>2018-02-09T11:28:55Z</time>
      </trkpt>
      <trkpt lat="46.00211" lon="4.7546">
        <ele>197</ele>
        <time>2018-02-09T11:28:56Z</time>
      </trkpt>
      <trkpt lat="46.00211" lon="4.75446">
        <ele>197</ele>
        <time>2018-02-09T11:28:57Z</time>
      </trkpt>
      <trkpt lat="46.00213" lon="4.75433">
        <ele>197</ele>
        <time>2018-02-09T11:28:58Z</time>
      </trkpt>
      <trkpt lat="46.00215" lon="4.75418">
        <ele>196</ele>
        <time>2018-02-09T11:28:59Z</time>
      </trkpt>
      <trkpt lat="46.00213" lon="4.75405">
        <ele>192</ele>
        <time>2018-02-09T11:29:00Z</time>
      </trkpt>
      <trkpt lat="46.00212" lon="4.75389">
        <ele>192</ele>
        <time>2018-02-09T11:29:01Z</time>
      </trkpt>
      <trkpt lat="46.00212" lon="4.75375">
        <ele>191</ele>
        <time>2018-02-09T11:29:02Z</time>
      </trkpt>
      <trkpt lat="46.00213" lon="4.7536">
        <ele>191</ele>
        <time>2018-02-09T11:29:03Z</time>
      </trkpt>
      <trkpt lat="46.00214" lon="4.75345">
        <ele>190</ele>
        <time>2018-02-09T11:29:04Z</time>
      </trkpt>
      <trkpt lat="46.00214" lon="4.75328">
        <ele>186</ele>
        <time>2018-02-09T11:29:05Z</time>
      </trkpt>
      <trkpt lat="46.00212" lon="4.75313">
        <ele>186</ele>
        <time>2018-02-09T11:29:06Z</time>
      </trkpt>
      <trkpt lat="46.00212" lon="4.75299">
        <ele>185</ele>
        <time>2018-02-09T11:29:07Z</time>
      </trkpt>
      <trkpt lat="46.00211" lon="4.75284">
        <ele>185</ele>
        <time>2018-02-09T11:29:08Z</time>
      </trkpt>
      <trkpt lat="46.00209" lon="4.75269">
        <ele>184</ele>
        <time>2018-02-09T11:29:09Z</time>
      </trkpt>
      <trkpt lat="46.0021" lon="4.75255">
        <ele>184</ele>
        <time>2018-02-09T11:29:10Z</time>
      </trkpt>
      <trkpt lat="46.00209" lon="4.75241">
        <ele>180</ele>
        <time>2018-02-09T11:29:11Z</time>
      </trkpt>
      <trkpt lat="46.00209" lon="4.75227">
        <ele>180</ele>
        <time>2018-02-09T11:29:12Z</time>
      </trkpt>
      <trkpt lat="46.0021" lon="4.75215">
        <ele>180</ele>
        <time>2018-02-09T11:29:13Z</time>
      </trkpt>
      <trkpt lat="46.0021" lon="4.75201">
        <ele>179</ele>
        <time>2018-02-09T11:29:14Z</time>
      </trkpt>
      <trkpt lat="46.0021" lon="4.75187">
        <ele>179</ele>
        <time>2018-02-09T11:29:15Z</time>
      </trkpt>
      <trkpt lat="46.0021" lon="4.75174">
        <ele>179</ele>
        <time>2018-02-09T11:29:16Z</time>
      </trkpt>
      <trkpt lat="46.0021" lon="4.75165">
        <ele>177</ele>
        <time>2018-02-09T11:29:17Z</time>
      </trkpt>
      <trkpt lat="46.0021" lon="4.75157">
        <ele>177</ele>
        <time>2018-02-09T11:29:18Z</time>
      </trkpt>
      <trkpt lat="46.0021" lon="4.7515">
        <ele>177</ele>
        <time>2018-02-09T11:29:19Z</time>
      </trkpt>
      <trkpt lat="46.00212" lon="4.75138">
        <ele>176</ele>
        <time>2018-02-09T11:29:21Z</time>
      </trkpt>
      <trkpt lat="46.00211" lon="4.75131">
        <ele>176</ele>
        <time>2018-02-09T11:29:22Z</time>
      </trkpt>
      <trkpt lat="46.00211" lon="4.75121">
        <ele>176</ele>
        <time>2018-02-09T11:29:24Z</time>
      </trkpt>
      <trkpt lat="46.00211" lon="4.75117">
        <ele>176</ele>
        <time>2018-02-09T11:29:25Z</time>
      </trkpt>
      <trkpt lat="46.00206" lon="4.75107">
        <ele>176</ele>
        <time>2018-02-09T11:29:33Z</time>
      </trkpt>
      <trkpt lat="46.00204" lon="4.75106">
        <ele>176</ele>
        <time>2018-02-09T11:29:34Z</time>
      </trkpt>
      <trkpt lat="46.00195" lon="4.75106">
        <ele>176</ele>
        <time>2018-02-09T11:29:37Z</time>
      </trkpt>
      <trkpt lat="46.00192" lon="4.75107">
        <ele>176</ele>
        <time>2018-02-09T11:29:38Z</time>
      </trkpt>
      <trkpt lat="46.00184" lon="4.75109">
        <ele>176</ele>
        <time>2018-02-09T11:29:40Z</time>
      </trkpt>
      <trkpt lat="46.00179" lon="4.7511">
        <ele>176</ele>
        <time>2018-02-09T11:29:41Z</time>
      </trkpt>
      <trkpt lat="46.00171" lon="4.75112">
        <ele>176</ele>
        <time>2018-02-09T11:29:43Z</time>
      </trkpt>
      <trkpt lat="46.00166" lon="4.75113">
        <ele>175</ele>
        <time>2018-02-09T11:29:44Z</time>
      </trkpt>
      <trkpt lat="46.00158" lon="4.75112">
        <ele>175</ele>
        <time>2018-02-09T11:29:46Z</time>
      </trkpt>
      <trkpt lat="46.00155" lon="4.75112">
        <ele>175</ele>
        <time>2018-02-09T11:29:47Z</time>
      </trkpt>
      <trkpt lat="46.00148" lon="4.75111">
        <ele>175</ele>
        <time>2018-02-09T11:29:48Z</time>
      </trkpt>
      <trkpt lat="46.00143" lon="4.7511">
        <ele>175</ele>
        <time>2018-02-09T11:29:49Z</time>
      </trkpt>
      <trkpt lat="46.00134" lon="4.75112">
        <ele>175</ele>
        <time>2018-02-09T11:29:50Z</time>
      </trkpt>
      <trkpt lat="46.00128" lon="4.75113">
        <ele>175</ele>
        <time>2018-02-09T11:29:51Z</time>
      </trkpt>
      <trkpt lat="46.00123" lon="4.75111">
        <ele>175</ele>
        <time>2018-02-09T11:29:52Z</time>
      </trkpt>
      <trkpt lat="46.00118" lon="4.7511">
        <ele>175</ele>
        <time>2018-02-09T11:29:53Z</time>
      </trkpt>
      <trkpt lat="46.00112" lon="4.7511">
        <ele>175</ele>
        <time>2018-02-09T11:29:55Z</time>
      </trkpt>
      <trkpt lat="46.00108" lon="4.7511">
        <ele>175</ele>
        <time>2018-02-09T11:29:56Z</time>
      </trkpt>
      <trkpt lat="46.00103" lon="4.75109">
        <ele>175</ele>
        <time>2018-02-09T11:29:57Z</time>
      </trkpt>
      <trkpt lat="46.00098" lon="4.7511">
        <ele>175</ele>
        <time>2018-02-09T11:29:58Z</time>
      </trkpt>
      <trkpt lat="46.00089" lon="4.75109">
        <ele>175</ele>
        <time>2018-02-09T11:30:00Z</time>
      </trkpt>
      <trkpt lat="46.00084" lon="4.7511">
        <ele>175</ele>
        <time>2018-02-09T11:30:01Z</time>
      </trkpt>
      <trkpt lat="46.00079" lon="4.75109">
        <ele>174</ele>
        <time>2018-02-09T11:30:03Z</time>
      </trkpt>
      <trkpt lat="46.00074" lon="4.75108">
        <ele>174</ele>
        <time>2018-02-09T11:30:04Z</time>
      </trkpt>
      <trkpt lat="46.00066" lon="4.75105">
        <ele>174</ele>
        <time>2018-02-09T11:30:06Z</time>
      </trkpt>
      <trkpt lat="46.00063" lon="4.75106">
        <ele>174</ele>
        <time>2018-02-09T11:30:07Z</time>
      </trkpt>
      <trkpt lat="46.00054" lon="4.75106">
        <ele>174</ele>
        <time>2018-02-09T11:30:09Z</time>
      </trkpt>
      <trkpt lat="46.00051" lon="4.75106">
        <ele>174</ele>
        <time>2018-02-09T11:30:10Z</time>
      </trkpt>
      <trkpt lat="46.00047" lon="4.75106">
        <ele>174</ele>
        <time>2018-02-09T11:30:11Z</time>
      </trkpt>
      <trkpt lat="46.00042" lon="4.75107">
        <ele>174</ele>
        <time>2018-02-09T11:30:12Z</time>
      </trkpt>
      <trkpt lat="46.00034" lon="4.75107">
        <ele>174</ele>
        <time>2018-02-09T11:30:14Z</time>
      </trkpt>
      <trkpt lat="46.00029" lon="4.75107">
        <ele>174</ele>
        <time>2018-02-09T11:30:15Z</time>
      </trkpt>
      <trkpt lat="46.00021" lon="4.75107">
        <ele>174</ele>
        <time>2018-02-09T11:30:17Z</time>
      </trkpt>
      <trkpt lat="46.00017" lon="4.75106">
        <ele>174</ele>
        <time>2018-02-09T11:30:18Z</time>
      </trkpt>
      <trkpt lat="46.00013" lon="4.75105">
        <ele>174</ele>
        <time>2018-02-09T11:30:19Z</time>
      </trkpt>
      <trkpt lat="46.00008" lon="4.75105">
        <ele>174</ele>
        <time>2018-02-09T11:30:20Z</time>
      </trkpt>
      <trkpt lat="46.00003" lon="4.75107">
        <ele>174</ele>
        <time>2018-02-09T11:30:21Z</time>
      </trkpt>
      <trkpt lat="45.99998" lon="4.7511">
        <ele>173</ele>
        <time>2018-02-09T11:30:22Z</time>
      </trkpt>
      <trkpt lat="45.9999" lon="4.75116">
        <ele>173</ele>
        <time>2018-02-09T11:30:24Z</time>
      </trkpt>
      <trkpt lat="45.99985" lon="4.75118">
        <ele>173</ele>
        <time>2018-02-09T11:30:25Z</time>
      </trkpt>
      <trkpt lat="45.99981" lon="4.7512">
        <ele>173</ele>
        <time>2018-02-09T11:30:26Z</time>
      </trkpt>
      <trkpt lat="45.99977" lon="4.75123">
        <ele>173</ele>
        <time>2018-02-09T11:30:27Z</time>
      </trkpt>
      <trkpt lat="45.99972" lon="4.75125">
        <ele>173</ele>
        <time>2018-02-09T11:30:28Z</time>
      </trkpt>
      <trkpt lat="45.99966" lon="4.75127">
        <ele>173</ele>
        <time>2018-02-09T11:30:29Z</time>
      </trkpt>
      <trkpt lat="45.99961" lon="4.7513">
        <ele>173</ele>
        <time>2018-02-09T11:30:30Z</time>
      </trkpt>
      <trkpt lat="45.99955" lon="4.75132">
        <ele>173</ele>
        <time>2018-02-09T11:30:31Z</time>
      </trkpt>
      <trkpt lat="45.99951" lon="4.75134">
        <ele>173</ele>
        <time>2018-02-09T11:30:32Z</time>
      </trkpt>
      <trkpt lat="45.99946" lon="4.75136">
        <ele>173</ele>
        <time>2018-02-09T11:30:33Z</time>
      </trkpt>
      <trkpt lat="45.99942" lon="4.75137">
        <ele>173</ele>
        <time>2018-02-09T11:30:34Z</time>
      </trkpt>
      <trkpt lat="45.99936" lon="4.7514">
        <ele>173</ele>
        <time>2018-02-09T11:30:35Z</time>
      </trkpt>
      <trkpt lat="45.99931" lon="4.75143">
        <ele>173</ele>
        <time>2018-02-09T11:30:36Z</time>
      </trkpt>
      <trkpt lat="45.99926" lon="4.75145">
        <ele>173</ele>
        <time>2018-02-09T11:30:37Z</time>
      </trkpt>
      <trkpt lat="45.99922" lon="4.75148">
        <ele>173</ele>
        <time>2018-02-09T11:30:38Z</time>
      </trkpt>
      <trkpt lat="45.99915" lon="4.7515">
        <ele>172</ele>
        <time>2018-02-09T11:30:39Z</time>
      </trkpt>
      <trkpt lat="45.99909" lon="4.75153">
        <ele>172</ele>
        <time>2018-02-09T11:30:40Z</time>
      </trkpt>
      <trkpt lat="45.99903" lon="4.75156">
        <ele>172</ele>
        <time>2018-02-09T11:30:41Z</time>
      </trkpt>
      <trkpt lat="45.99899" lon="4.75157">
        <ele>172</ele>
        <time>2018-02-09T11:30:42Z</time>
      </trkpt>
      <trkpt lat="45.99893" lon="4.75159">
        <ele>172</ele>
        <time>2018-02-09T11:30:43Z</time>
      </trkpt>
      <trkpt lat="45.99886" lon="4.75162">
        <ele>172</ele>
        <time>2018-02-09T11:30:44Z</time>
      </trkpt>
      <trkpt lat="45.99882" lon="4.75164">
        <ele>172</ele>
        <time>2018-02-09T11:30:45Z</time>
      </trkpt>
      <trkpt lat="45.99875" lon="4.75168">
        <ele>174</ele>
        <time>2018-02-09T11:30:46Z</time>
      </trkpt>
      <trkpt lat="45.99871" lon="4.7517">
        <ele>174</ele>
        <time>2018-02-09T11:30:47Z</time>
      </trkpt>
      <trkpt lat="45.99866" lon="4.75173">
        <ele>174</ele>
        <time>2018-02-09T11:30:48Z</time>
      </trkpt>
      <trkpt lat="45.99862" lon="4.75175">
        <ele>174</ele>
        <time>2018-02-09T11:30:49Z</time>
      </trkpt>
      <trkpt lat="45.99857" lon="4.75177">
        <ele>174</ele>
        <time>2018-02-09T11:30:50Z</time>
      </trkpt>
      <trkpt lat="45.99853" lon="4.7518">
        <ele>174</ele>
        <time>2018-02-09T11:30:51Z</time>
      </trkpt>
      <trkpt lat="45.99844" lon="4.75183">
        <ele>174</ele>
        <time>2018-02-09T11:30:53Z</time>
      </trkpt>
      <trkpt lat="45.99839" lon="4.75185">
        <ele>174</ele>
        <time>2018-02-09T11:30:54Z</time>
      </trkpt>
      <trkpt lat="45.99831" lon="4.75189">
        <ele>173</ele>
        <time>2018-02-09T11:30:56Z</time>
      </trkpt>
      <trkpt lat="45.99826" lon="4.75191">
        <ele>174</ele>
        <time>2018-02-09T11:30:57Z</time>
      </trkpt>
      <trkpt lat="45.99822" lon="4.75193">
        <ele>174</ele>
        <time>2018-02-09T11:30:58Z</time>
      </trkpt>
      <trkpt lat="45.99817" lon="4.75195">
        <ele>174</ele>
        <time>2018-02-09T11:30:59Z</time>
      </trkpt>
      <trkpt lat="45.9981" lon="4.752">
        <ele>174</ele>
        <time>2018-02-09T11:31:01Z</time>
      </trkpt>
      <trkpt lat="45.99805" lon="4.75203">
        <ele>174</ele>
        <time>2018-02-09T11:31:02Z</time>
      </trkpt>
      <trkpt lat="45.998" lon="4.75205">
        <ele>174</ele>
        <time>2018-02-09T11:31:03Z</time>
      </trkpt>
      <trkpt lat="45.99796" lon="4.75206">
        <ele>174</ele>
        <time>2018-02-09T11:31:04Z</time>
      </trkpt>
      <trkpt lat="45.99788" lon="4.7521">
        <ele>174</ele>
        <time>2018-02-09T11:31:06Z</time>
      </trkpt>
      <trkpt lat="45.99784" lon="4.75212">
        <ele>174</ele>
        <time>2018-02-09T11:31:07Z</time>
      </trkpt>
      <trkpt lat="45.9978" lon="4.75214">
        <ele>174</ele>
        <time>2018-02-09T11:31:08Z</time>
      </trkpt>
      <trkpt lat="45.99772" lon="4.75218">
        <ele>175</ele>
        <time>2018-02-09T11:31:09Z</time>
      </trkpt>
      <trkpt lat="45.99767" lon="4.75219">
        <ele>175</ele>
        <time>2018-02-09T11:31:10Z</time>
      </trkpt>
      <trkpt lat="45.99762" lon="4.7522">
        <ele>175</ele>
        <time>2018-02-09T11:31:11Z</time>
      </trkpt>
      <trkpt lat="45.99758" lon="4.75223">
        <ele>175</ele>
        <time>2018-02-09T11:31:12Z</time>
      </trkpt>
      <trkpt lat="45.99754" lon="4.75226">
        <ele>175</ele>
        <time>2018-02-09T11:31:13Z</time>
      </trkpt>
      <trkpt lat="45.99748" lon="4.75227">
        <ele>175</ele>
        <time>2018-02-09T11:31:14Z</time>
      </trkpt>
      <trkpt lat="45.99742" lon="4.75229">
        <ele>175</ele>
        <time>2018-02-09T11:31:15Z</time>
      </trkpt>
      <trkpt lat="45.99735" lon="4.75234">
        <ele>175</ele>
        <time>2018-02-09T11:31:17Z</time>
      </trkpt>
      <trkpt lat="45.9973" lon="4.75237">
        <ele>175</ele>
        <time>2018-02-09T11:31:18Z</time>
      </trkpt>
      <trkpt lat="45.99724" lon="4.75238">
        <ele>174</ele>
        <time>2018-02-09T11:31:19Z</time>
      </trkpt>
      <trkpt lat="45.99719" lon="4.7524">
        <ele>174</ele>
        <time>2018-02-09T11:31:20Z</time>
      </trkpt>
      <trkpt lat="45.99713" lon="4.75243">
        <ele>174</ele>
        <time>2018-02-09T11:31:21Z</time>
      </trkpt>
      <trkpt lat="45.99708" lon="4.75243">
        <ele>174</ele>
        <time>2018-02-09T11:31:22Z</time>
      </trkpt>
      <trkpt lat="45.99703" lon="4.75245">
        <ele>174</ele>
        <time>2018-02-09T11:31:23Z</time>
      </trkpt>
      <trkpt lat="45.99698" lon="4.75247">
        <ele>174</ele>
        <time>2018-02-09T11:31:24Z</time>
      </trkpt>
      <trkpt lat="45.99692" lon="4.7525">
        <ele>176</ele>
        <time>2018-02-09T11:31:26Z</time>
      </trkpt>
      <trkpt lat="45.99687" lon="4.75253">
        <ele>175</ele>
        <time>2018-02-09T11:31:27Z</time>
      </trkpt>
      <trkpt lat="45.99685" lon="4.75256">
        <ele>175</ele>
        <time>2018-02-09T11:31:28Z</time>
      </trkpt>
      <trkpt lat="45.99679" lon="4.75259">
        <ele>175</ele>
        <time>2018-02-09T11:31:29Z</time>
      </trkpt>
      <trkpt lat="45.99673" lon="4.75261">
        <ele>175</ele>
        <time>2018-02-09T11:31:30Z</time>
      </trkpt>
      <trkpt lat="45.99669" lon="4.75263">
        <ele>175</ele>
        <time>2018-02-09T11:31:31Z</time>
      </trkpt>
      <trkpt lat="45.99664" lon="4.75266">
        <ele>174</ele>
        <time>2018-02-09T11:31:32Z</time>
      </trkpt>
      <trkpt lat="45.99659" lon="4.75268">
        <ele>174</ele>
        <time>2018-02-09T11:31:33Z</time>
      </trkpt>
      <trkpt lat="45.99653" lon="4.75269">
        <ele>174</ele>
        <time>2018-02-09T11:31:34Z</time>
      </trkpt>
      <trkpt lat="45.99648" lon="4.7527">
        <ele>174</ele>
        <time>2018-02-09T11:31:35Z</time>
      </trkpt>
      <trkpt lat="45.99642" lon="4.7527">
        <ele>174</ele>
        <time>2018-02-09T11:31:36Z</time>
      </trkpt>
      <trkpt lat="45.99637" lon="4.75269">
        <ele>174</ele>
        <time>2018-02-09T11:31:37Z</time>
      </trkpt>
      <trkpt lat="45.99633" lon="4.75269">
        <ele>174</ele>
        <time>2018-02-09T11:31:38Z</time>
      </trkpt>
      <trkpt lat="45.99627" lon="4.75267">
        <ele>174</ele>
        <time>2018-02-09T11:31:39Z</time>
      </trkpt>
      <trkpt lat="45.99622" lon="4.75268">
        <ele>174</ele>
        <time>2018-02-09T11:31:40Z</time>
      </trkpt>
      <trkpt lat="45.99617" lon="4.75267">
        <ele>174</ele>
        <time>2018-02-09T11:31:41Z</time>
      </trkpt>
      <trkpt lat="45.99609" lon="4.75267">
        <ele>173</ele>
        <time>2018-02-09T11:31:43Z</time>
      </trkpt>
      <trkpt lat="45.99606" lon="4.75269">
        <ele>173</ele>
        <time>2018-02-09T11:31:44Z</time>
      </trkpt>
      <trkpt lat="45.99598" lon="4.75271">
        <ele>173</ele>
        <time>2018-02-09T11:31:46Z</time>
      </trkpt>
      <trkpt lat="45.99593" lon="4.75271">
        <ele>173</ele>
        <time>2018-02-09T11:31:47Z</time>
      </trkpt>
      <trkpt lat="45.99589" lon="4.75271">
        <ele>173</ele>
        <time>2018-02-09T11:31:48Z</time>
      </trkpt>
      <trkpt lat="45.99582" lon="4.7527">
        <ele>172</ele>
        <time>2018-02-09T11:31:49Z</time>
      </trkpt>
      <trkpt lat="45.99578" lon="4.75268">
        <ele>172</ele>
        <time>2018-02-09T11:31:50Z</time>
      </trkpt>
      <trkpt lat="45.99574" lon="4.75265">
        <ele>172</ele>
        <time>2018-02-09T11:31:51Z</time>
      </trkpt>
      <trkpt lat="45.99566" lon="4.75262">
        <ele>172</ele>
        <time>2018-02-09T11:31:53Z</time>
      </trkpt>
      <trkpt lat="45.99562" lon="4.75263">
        <ele>172</ele>
        <time>2018-02-09T11:31:54Z</time>
      </trkpt>
      <trkpt lat="45.99559" lon="4.75266">
        <ele>172</ele>
        <time>2018-02-09T11:31:55Z</time>
      </trkpt>
      <trkpt lat="45.99554" lon="4.75269">
        <ele>172</ele>
        <time>2018-02-09T11:31:56Z</time>
      </trkpt>
      <trkpt lat="45.99551" lon="4.75274">
        <ele>172</ele>
        <time>2018-02-09T11:31:57Z</time>
      </trkpt>
      <trkpt lat="45.99547" lon="4.75279">
        <ele>172</ele>
        <time>2018-02-09T11:31:58Z</time>
      </trkpt>
      <trkpt lat="45.99543" lon="4.75282">
        <ele>172</ele>
        <time>2018-02-09T11:31:59Z</time>
      </trkpt>
      <trkpt lat="45.99539" lon="4.75286">
        <ele>172</ele>
        <time>2018-02-09T11:32:00Z</time>
      </trkpt>
      <trkpt lat="45.99535" lon="4.75288">
        <ele>172</ele>
        <time>2018-02-09T11:32:01Z</time>
      </trkpt>
      <trkpt lat="45.9953" lon="4.75291">
        <ele>172</ele>
        <time>2018-02-09T11:32:02Z</time>
      </trkpt>
      <trkpt lat="45.99524" lon="4.7529">
        <ele>172</ele>
        <time>2018-02-09T11:32:03Z</time>
      </trkpt>
      <trkpt lat="45.99519" lon="4.75291">
        <ele>172</ele>
        <time>2018-02-09T11:32:04Z</time>
      </trkpt>
      <trkpt lat="45.99512" lon="4.75293">
        <ele>172</ele>
        <time>2018-02-09T11:32:05Z</time>
      </trkpt>
      <trkpt lat="45.99506" lon="4.75294">
        <ele>172</ele>
        <time>2018-02-09T11:32:06Z</time>
      </trkpt>
      <trkpt lat="45.99501" lon="4.75296">
        <ele>172</ele>
        <time>2018-02-09T11:32:07Z</time>
      </trkpt>
      <trkpt lat="45.99496" lon="4.75298">
        <ele>171</ele>
        <time>2018-02-09T11:32:08Z</time>
      </trkpt>
      <trkpt lat="45.99487" lon="4.75301">
        <ele>171</ele>
        <time>2018-02-09T11:32:10Z</time>
      </trkpt>
      <trkpt lat="45.99482" lon="4.75304">
        <ele>171</ele>
        <time>2018-02-09T11:32:11Z</time>
      </trkpt>
      <trkpt lat="45.99477" lon="4.75304">
        <ele>171</ele>
        <time>2018-02-09T11:32:12Z</time>
      </trkpt>
      <trkpt lat="45.99471" lon="4.75306">
        <ele>171</ele>
        <time>2018-02-09T11:32:13Z</time>
      </trkpt>
      <trkpt lat="45.99466" lon="4.75306">
        <ele>171</ele>
        <time>2018-02-09T11:32:14Z</time>
      </trkpt>
      <trkpt lat="45.9946" lon="4.75307">
        <ele>171</ele>
        <time>2018-02-09T11:32:15Z</time>
      </trkpt>
      <trkpt lat="45.99455" lon="4.75308">
        <ele>171</ele>
        <time>2018-02-09T11:32:16Z</time>
      </trkpt>
      <trkpt lat="45.99449" lon="4.75308">
        <ele>171</ele>
        <time>2018-02-09T11:32:17Z</time>
      </trkpt>
      <trkpt lat="45.99444" lon="4.75308">
        <ele>171</ele>
        <time>2018-02-09T11:32:18Z</time>
      </trkpt>
      <trkpt lat="45.99438" lon="4.75309">
        <ele>171</ele>
        <time>2018-02-09T11:32:19Z</time>
      </trkpt>
      <trkpt lat="45.99432" lon="4.75309">
        <ele>171</ele>
        <time>2018-02-09T11:32:20Z</time>
      </trkpt>
      <trkpt lat="45.99425" lon="4.75311">
        <ele>171</ele>
        <time>2018-02-09T11:32:21Z</time>
      </trkpt>
      <trkpt lat="45.99419" lon="4.75312">
        <ele>171</ele>
        <time>2018-02-09T11:32:22Z</time>
      </trkpt>
      <trkpt lat="45.99413" lon="4.75313">
        <ele>170</ele>
        <time>2018-02-09T11:32:23Z</time>
      </trkpt>
      <trkpt lat="45.99406" lon="4.75316">
        <ele>170</ele>
        <time>2018-02-09T11:32:24Z</time>
      </trkpt>
      <trkpt lat="45.99401" lon="4.75317">
        <ele>170</ele>
        <time>2018-02-09T11:32:25Z</time>
      </trkpt>
      <trkpt lat="45.99396" lon="4.75321">
        <ele>170</ele>
        <time>2018-02-09T11:32:26Z</time>
      </trkpt>
      <trkpt lat="45.9939" lon="4.75324">
        <ele>170</ele>
        <time>2018-02-09T11:32:27Z</time>
      </trkpt>
      <trkpt lat="45.99385" lon="4.75328">
        <ele>170</ele>
        <time>2018-02-09T11:32:28Z</time>
      </trkpt>
      <trkpt lat="45.99381" lon="4.75333">
        <ele>170</ele>
        <time>2018-02-09T11:32:29Z</time>
      </trkpt>
      <trkpt lat="45.99376" lon="4.75338">
        <ele>171</ele>
        <time>2018-02-09T11:32:30Z</time>
      </trkpt>
      <trkpt lat="45.99372" lon="4.75344">
        <ele>172</ele>
        <time>2018-02-09T11:32:31Z</time>
      </trkpt>
      <trkpt lat="45.99368" lon="4.7535">
        <ele>172</ele>
        <time>2018-02-09T11:32:32Z</time>
      </trkpt>
      <trkpt lat="45.99363" lon="4.75356">
        <ele>172</ele>
        <time>2018-02-09T11:32:33Z</time>
      </trkpt>
      <trkpt lat="45.9936" lon="4.75363">
        <ele>172</ele>
        <time>2018-02-09T11:32:34Z</time>
      </trkpt>
      <trkpt lat="45.99356" lon="4.7537">
        <ele>172</ele>
        <time>2018-02-09T11:32:35Z</time>
      </trkpt>
      <trkpt lat="45.99352" lon="4.75377">
        <ele>172</ele>
        <time>2018-02-09T11:32:36Z</time>
      </trkpt>
      <trkpt lat="45.99348" lon="4.75384">
        <ele>172</ele>
        <time>2018-02-09T11:32:37Z</time>
      </trkpt>
      <trkpt lat="45.99345" lon="4.7539">
        <ele>172</ele>
        <time>2018-02-09T11:32:38Z</time>
      </trkpt>
      <trkpt lat="45.99341" lon="4.75396">
        <ele>173</ele>
        <time>2018-02-09T11:32:39Z</time>
      </trkpt>
      <trkpt lat="45.99338" lon="4.754">
        <ele>173</ele>
        <time>2018-02-09T11:32:40Z</time>
      </trkpt>
      <trkpt lat="45.99336" lon="4.75406">
        <ele>173</ele>
        <time>2018-02-09T11:32:41Z</time>
      </trkpt>
      <trkpt lat="45.99334" lon="4.75414">
        <ele>173</ele>
        <time>2018-02-09T11:32:42Z</time>
      </trkpt>
      <trkpt lat="45.99333" lon="4.75423">
        <ele>173</ele>
        <time>2018-02-09T11:32:43Z</time>
      </trkpt>
      <trkpt lat="45.99333" lon="4.75429">
        <ele>173</ele>
        <time>2018-02-09T11:32:44Z</time>
      </trkpt>
      <trkpt lat="45.99332" lon="4.75436">
        <ele>173</ele>
        <time>2018-02-09T11:32:45Z</time>
      </trkpt>
      <trkpt lat="45.9933" lon="4.75444">
        <ele>173</ele>
        <time>2018-02-09T11:32:46Z</time>
      </trkpt>
      <trkpt lat="45.99328" lon="4.75452">
        <ele>173</ele>
        <time>2018-02-09T11:32:47Z</time>
      </trkpt>
      <trkpt lat="45.99326" lon="4.75458">
        <ele>174</ele>
        <time>2018-02-09T11:32:48Z</time>
      </trkpt>
      <trkpt lat="45.99323" lon="4.75465">
        <ele>174</ele>
        <time>2018-02-09T11:32:49Z</time>
      </trkpt>
      <trkpt lat="45.9932" lon="4.75471">
        <ele>174</ele>
        <time>2018-02-09T11:32:50Z</time>
      </trkpt>
      <trkpt lat="45.99317" lon="4.75477">
        <ele>174</ele>
        <time>2018-02-09T11:32:51Z</time>
      </trkpt>
      <trkpt lat="45.99314" lon="4.75484">
        <ele>174</ele>
        <time>2018-02-09T11:32:52Z</time>
      </trkpt>
      <trkpt lat="45.99311" lon="4.7549">
        <ele>174</ele>
        <time>2018-02-09T11:32:53Z</time>
      </trkpt>
      <trkpt lat="45.99307" lon="4.75496">
        <ele>174</ele>
        <time>2018-02-09T11:32:54Z</time>
      </trkpt>
      <trkpt lat="45.99304" lon="4.755">
        <ele>177</ele>
        <time>2018-02-09T11:32:55Z</time>
      </trkpt>
      <trkpt lat="45.993" lon="4.75505">
        <ele>177</ele>
        <time>2018-02-09T11:32:56Z</time>
      </trkpt>
      <trkpt lat="45.99295" lon="4.75511">
        <ele>176</ele>
        <time>2018-02-09T11:32:57Z</time>
      </trkpt>
      <trkpt lat="45.99291" lon="4.75516">
        <ele>176</ele>
        <time>2018-02-09T11:32:58Z</time>
      </trkpt>
      <trkpt lat="45.99287" lon="4.75521">
        <ele>176</ele>
        <time>2018-02-09T11:32:59Z</time>
      </trkpt>
      <trkpt lat="45.99282" lon="4.75526">
        <ele>176</ele>
        <time>2018-02-09T11:33:00Z</time>
      </trkpt>
      <trkpt lat="45.99278" lon="4.75529">
        <ele>176</ele>
        <time>2018-02-09T11:33:01Z</time>
      </trkpt>
      <trkpt lat="45.99274" lon="4.75533">
        <ele>176</ele>
        <time>2018-02-09T11:33:02Z</time>
      </trkpt>
      <trkpt lat="45.99268" lon="4.75536">
        <ele>176</ele>
        <time>2018-02-09T11:33:03Z</time>
      </trkpt>
      <trkpt lat="45.99264" lon="4.7554">
        <ele>176</ele>
        <time>2018-02-09T11:33:04Z</time>
      </trkpt>
      <trkpt lat="45.9926" lon="4.75543">
        <ele>176</ele>
        <time>2018-02-09T11:33:05Z</time>
      </trkpt>
      <trkpt lat="45.99255" lon="4.75546">
        <ele>176</ele>
        <time>2018-02-09T11:33:06Z</time>
      </trkpt>
      <trkpt lat="45.9925" lon="4.75549">
        <ele>175</ele>
        <time>2018-02-09T11:33:07Z</time>
      </trkpt>
      <trkpt lat="45.99246" lon="4.75552">
        <ele>175</ele>
        <time>2018-02-09T11:33:08Z</time>
      </trkpt>
      <trkpt lat="45.99241" lon="4.75555">
        <ele>175</ele>
        <time>2018-02-09T11:33:09Z</time>
      </trkpt>
      <trkpt lat="45.99237" lon="4.75558">
        <ele>175</ele>
        <time>2018-02-09T11:33:10Z</time>
      </trkpt>
      <trkpt lat="45.99232" lon="4.75561">
        <ele>175</ele>
        <time>2018-02-09T11:33:11Z</time>
      </trkpt>
      <trkpt lat="45.99227" lon="4.75568">
        <ele>175</ele>
        <time>2018-02-09T11:33:13Z</time>
      </trkpt>
      <trkpt lat="45.99222" lon="4.75571">
        <ele>175</ele>
        <time>2018-02-09T11:33:14Z</time>
      </trkpt>
      <trkpt lat="45.99215" lon="4.75574">
        <ele>175</ele>
        <time>2018-02-09T11:33:15Z</time>
      </trkpt>
      <trkpt lat="45.9921" lon="4.75577">
        <ele>175</ele>
        <time>2018-02-09T11:33:16Z</time>
      </trkpt>
      <trkpt lat="45.99205" lon="4.7558">
        <ele>175</ele>
        <time>2018-02-09T11:33:17Z</time>
      </trkpt>
      <trkpt lat="45.99202" lon="4.75583">
        <ele>175</ele>
        <time>2018-02-09T11:33:18Z</time>
      </trkpt>
      <trkpt lat="45.99196" lon="4.75586">
        <ele>178</ele>
        <time>2018-02-09T11:33:19Z</time>
      </trkpt>
      <trkpt lat="45.99192" lon="4.75588">
        <ele>178</ele>
        <time>2018-02-09T11:33:20Z</time>
      </trkpt>
      <trkpt lat="45.99187" lon="4.75591">
        <ele>177</ele>
        <time>2018-02-09T11:33:21Z</time>
      </trkpt>
      <trkpt lat="45.99183" lon="4.75594">
        <ele>177</ele>
        <time>2018-02-09T11:33:22Z</time>
      </trkpt>
      <trkpt lat="45.99179" lon="4.75596">
        <ele>177</ele>
        <time>2018-02-09T11:33:23Z</time>
      </trkpt>
      <trkpt lat="45.99174" lon="4.75599">
        <ele>177</ele>
        <time>2018-02-09T11:33:24Z</time>
      </trkpt>
      <trkpt lat="45.99166" lon="4.75601">
        <ele>176</ele>
        <time>2018-02-09T11:33:25Z</time>
      </trkpt>
      <trkpt lat="45.99162" lon="4.75604">
        <ele>176</ele>
        <time>2018-02-09T11:33:26Z</time>
      </trkpt>
      <trkpt lat="45.99158" lon="4.75606">
        <ele>176</ele>
        <time>2018-02-09T11:33:27Z</time>
      </trkpt>
      <trkpt lat="45.99154" lon="4.75608">
        <ele>176</ele>
        <time>2018-02-09T11:33:28Z</time>
      </trkpt>
      <trkpt lat="45.99146" lon="4.75612">
        <ele>177</ele>
        <time>2018-02-09T11:33:29Z</time>
      </trkpt>
      <trkpt lat="45.99141" lon="4.75613">
        <ele>177</ele>
        <time>2018-02-09T11:33:30Z</time>
      </trkpt>
      <trkpt lat="45.99132" lon="4.75611">
        <ele>177</ele>
        <time>2018-02-09T11:33:32Z</time>
      </trkpt>
      <trkpt lat="45.99127" lon="4.75611">
        <ele>177</ele>
        <time>2018-02-09T11:33:33Z</time>
      </trkpt>
      <trkpt lat="45.99123" lon="4.75614">
        <ele>177</ele>
        <time>2018-02-09T11:33:34Z</time>
      </trkpt>
      <trkpt lat="45.99119" lon="4.75618">
        <ele>177</ele>
        <time>2018-02-09T11:33:35Z</time>
      </trkpt>
      <trkpt lat="45.99113" lon="4.75626">
        <ele>177</ele>
        <time>2018-02-09T11:33:37Z</time>
      </trkpt>
      <trkpt lat="45.99111" lon="4.75632">
        <ele>177</ele>
        <time>2018-02-09T11:33:38Z</time>
      </trkpt>
      <trkpt lat="45.99107" lon="4.75637">
        <ele>177</ele>
        <time>2018-02-09T11:33:39Z</time>
      </trkpt>
      <trkpt lat="45.99103" lon="4.75642">
        <ele>178</ele>
        <time>2018-02-09T11:33:40Z</time>
      </trkpt>
      <trkpt lat="45.99096" lon="4.75649">
        <ele>178</ele>
        <time>2018-02-09T11:33:42Z</time>
      </trkpt>
      <trkpt lat="45.99092" lon="4.75652">
        <ele>178</ele>
        <time>2018-02-09T11:33:43Z</time>
      </trkpt>
      <trkpt lat="45.99088" lon="4.75654">
        <ele>179</ele>
        <time>2018-02-09T11:33:44Z</time>
      </trkpt>
      <trkpt lat="45.99083" lon="4.75656">
        <ele>179</ele>
        <time>2018-02-09T11:33:45Z</time>
      </trkpt>
      <trkpt lat="45.99077" lon="4.75658">
        <ele>179</ele>
        <time>2018-02-09T11:33:47Z</time>
      </trkpt>
      <trkpt lat="45.99071" lon="4.7566">
        <ele>179</ele>
        <time>2018-02-09T11:33:48Z</time>
      </trkpt>
      <trkpt lat="45.99067" lon="4.7566">
        <ele>178</ele>
        <time>2018-02-09T11:33:49Z</time>
      </trkpt>
      <trkpt lat="45.99062" lon="4.7566">
        <ele>178</ele>
        <time>2018-02-09T11:33:50Z</time>
      </trkpt>
      <trkpt lat="45.99056" lon="4.75661">
        <ele>178</ele>
        <time>2018-02-09T11:33:51Z</time>
      </trkpt>
      <trkpt lat="45.99051" lon="4.75661">
        <ele>178</ele>
        <time>2018-02-09T11:33:52Z</time>
      </trkpt>
      <trkpt lat="45.99044" lon="4.75661">
        <ele>178</ele>
        <time>2018-02-09T11:33:53Z</time>
      </trkpt>
      <trkpt lat="45.9904" lon="4.75661">
        <ele>178</ele>
        <time>2018-02-09T11:33:54Z</time>
      </trkpt>
      <trkpt lat="45.99034" lon="4.75661">
        <ele>178</ele>
        <time>2018-02-09T11:33:55Z</time>
      </trkpt>
      <trkpt lat="45.9903" lon="4.7566">
        <ele>178</ele>
        <time>2018-02-09T11:33:56Z</time>
      </trkpt>
      <trkpt lat="45.99025" lon="4.75658">
        <ele>178</ele>
        <time>2018-02-09T11:33:57Z</time>
      </trkpt>
      <trkpt lat="45.9902" lon="4.75657">
        <ele>178</ele>
        <time>2018-02-09T11:33:58Z</time>
      </trkpt>
      <trkpt lat="45.99015" lon="4.75657">
        <ele>178</ele>
        <time>2018-02-09T11:33:59Z</time>
      </trkpt>
      <trkpt lat="45.99011" lon="4.75657">
        <ele>178</ele>
        <time>2018-02-09T11:34:00Z</time>
      </trkpt>
      <trkpt lat="45.99006" lon="4.75656">
        <ele>179</ele>
        <time>2018-02-09T11:34:01Z</time>
      </trkpt>
      <trkpt lat="45.99001" lon="4.75656">
        <ele>179</ele>
        <time>2018-02-09T11:34:02Z</time>
      </trkpt>
      <trkpt lat="45.98996" lon="4.75656">
        <ele>178</ele>
        <time>2018-02-09T11:34:03Z</time>
      </trkpt>
      <trkpt lat="45.98991" lon="4.75657">
        <ele>178</ele>
        <time>2018-02-09T11:34:04Z</time>
      </trkpt>
      <trkpt lat="45.98986" lon="4.75657">
        <ele>178</ele>
        <time>2018-02-09T11:34:05Z</time>
      </trkpt>
      <trkpt lat="45.98982" lon="4.75658">
        <ele>178</ele>
        <time>2018-02-09T11:34:06Z</time>
      </trkpt>
      <trkpt lat="45.98977" lon="4.7566">
        <ele>177</ele>
        <time>2018-02-09T11:34:07Z</time>
      </trkpt>
      <trkpt lat="45.98972" lon="4.7566">
        <ele>177</ele>
        <time>2018-02-09T11:34:08Z</time>
      </trkpt>
      <trkpt lat="45.98967" lon="4.75661">
        <ele>177</ele>
        <time>2018-02-09T11:34:09Z</time>
      </trkpt>
      <trkpt lat="45.98962" lon="4.75663">
        <ele>177</ele>
        <time>2018-02-09T11:34:10Z</time>
      </trkpt>
      <trkpt lat="45.98957" lon="4.75665">
        <ele>177</ele>
        <time>2018-02-09T11:34:11Z</time>
      </trkpt>
      <trkpt lat="45.98952" lon="4.75667">
        <ele>177</ele>
        <time>2018-02-09T11:34:12Z</time>
      </trkpt>
      <trkpt lat="45.98947" lon="4.75669">
        <ele>181</ele>
        <time>2018-02-09T11:34:13Z</time>
      </trkpt>
      <trkpt lat="45.98942" lon="4.75671">
        <ele>180</ele>
        <time>2018-02-09T11:34:14Z</time>
      </trkpt>
      <trkpt lat="45.98937" lon="4.75672">
        <ele>180</ele>
        <time>2018-02-09T11:34:15Z</time>
      </trkpt>
      <trkpt lat="45.98932" lon="4.75675">
        <ele>180</ele>
        <time>2018-02-09T11:34:16Z</time>
      </trkpt>
      <trkpt lat="45.98927" lon="4.75677">
        <ele>179</ele>
        <time>2018-02-09T11:34:17Z</time>
      </trkpt>
      <trkpt lat="45.98923" lon="4.75681">
        <ele>180</ele>
        <time>2018-02-09T11:34:18Z</time>
      </trkpt>
      <trkpt lat="45.98918" lon="4.75683">
        <ele>180</ele>
        <time>2018-02-09T11:34:19Z</time>
      </trkpt>
      <trkpt lat="45.98913" lon="4.75686">
        <ele>179</ele>
        <time>2018-02-09T11:34:20Z</time>
      </trkpt>
      <trkpt lat="45.98906" lon="4.75689">
        <ele>179</ele>
        <time>2018-02-09T11:34:21Z</time>
      </trkpt>
      <trkpt lat="45.98901" lon="4.75691">
        <ele>179</ele>
        <time>2018-02-09T11:34:22Z</time>
      </trkpt>
      <trkpt lat="45.98896" lon="4.75693">
        <ele>179</ele>
        <time>2018-02-09T11:34:23Z</time>
      </trkpt>
      <trkpt lat="45.98891" lon="4.75694">
        <ele>180</ele>
        <time>2018-02-09T11:34:24Z</time>
      </trkpt>
      <trkpt lat="45.98886" lon="4.75696">
        <ele>180</ele>
        <time>2018-02-09T11:34:25Z</time>
      </trkpt>
      <trkpt lat="45.98881" lon="4.75697">
        <ele>180</ele>
        <time>2018-02-09T11:34:26Z</time>
      </trkpt>
      <trkpt lat="45.98877" lon="4.75699">
        <ele>180</ele>
        <time>2018-02-09T11:34:27Z</time>
      </trkpt>
      <trkpt lat="45.98871" lon="4.75701">
        <ele>180</ele>
        <time>2018-02-09T11:34:28Z</time>
      </trkpt>
      <trkpt lat="45.98866" lon="4.75702">
        <ele>180</ele>
        <time>2018-02-09T11:34:29Z</time>
      </trkpt>
      <trkpt lat="45.98861" lon="4.75703">
        <ele>180</ele>
        <time>2018-02-09T11:34:30Z</time>
      </trkpt>
      <trkpt lat="45.98855" lon="4.75704">
        <ele>180</ele>
        <time>2018-02-09T11:34:31Z</time>
      </trkpt>
      <trkpt lat="45.9885" lon="4.75705">
        <ele>180</ele>
        <time>2018-02-09T11:34:32Z</time>
      </trkpt>
      <trkpt lat="45.98846" lon="4.75705">
        <ele>180</ele>
        <time>2018-02-09T11:34:33Z</time>
      </trkpt>
      <trkpt lat="45.98841" lon="4.75705">
        <ele>180</ele>
        <time>2018-02-09T11:34:34Z</time>
      </trkpt>
      <trkpt lat="45.98836" lon="4.75705">
        <ele>180</ele>
        <time>2018-02-09T11:34:35Z</time>
      </trkpt>
      <trkpt lat="45.98831" lon="4.75707">
        <ele>178</ele>
        <time>2018-02-09T11:34:36Z</time>
      </trkpt>
      <trkpt lat="45.98827" lon="4.75708">
        <ele>179</ele>
        <time>2018-02-09T11:34:37Z</time>
      </trkpt>
      <trkpt lat="45.98822" lon="4.75709">
        <ele>179</ele>
        <time>2018-02-09T11:34:38Z</time>
      </trkpt>
      <trkpt lat="45.98817" lon="4.7571">
        <ele>178</ele>
        <time>2018-02-09T11:34:39Z</time>
      </trkpt>
      <trkpt lat="45.98809" lon="4.75712">
        <ele>178</ele>
        <time>2018-02-09T11:34:40Z</time>
      </trkpt>
      <trkpt lat="45.98804" lon="4.75713">
        <ele>178</ele>
        <time>2018-02-09T11:34:41Z</time>
      </trkpt>
      <trkpt lat="45.98799" lon="4.75714">
        <ele>178</ele>
        <time>2018-02-09T11:34:42Z</time>
      </trkpt>
      <trkpt lat="45.98791" lon="4.75715">
        <ele>178</ele>
        <time>2018-02-09T11:34:44Z</time>
      </trkpt>
      <trkpt lat="45.98786" lon="4.75716">
        <ele>178</ele>
        <time>2018-02-09T11:34:45Z</time>
      </trkpt>
      <trkpt lat="45.98777" lon="4.75715">
        <ele>178</ele>
        <time>2018-02-09T11:34:48Z</time>
      </trkpt>
      <trkpt lat="45.98774" lon="4.75715">
        <ele>178</ele>
        <time>2018-02-09T11:34:49Z</time>
      </trkpt>
      <trkpt lat="45.98767" lon="4.75719">
        <ele>178</ele>
        <time>2018-02-09T11:34:51Z</time>
      </trkpt>
      <trkpt lat="45.98761" lon="4.7572">
        <ele>178</ele>
        <time>2018-02-09T11:34:52Z</time>
      </trkpt>
      <trkpt lat="45.98757" lon="4.75721">
        <ele>178</ele>
        <time>2018-02-09T11:34:53Z</time>
      </trkpt>
      <trkpt lat="45.98751" lon="4.75722">
        <ele>178</ele>
        <time>2018-02-09T11:34:54Z</time>
      </trkpt>
      <trkpt lat="45.98745" lon="4.75722">
        <ele>177</ele>
        <time>2018-02-09T11:34:55Z</time>
      </trkpt>
      <trkpt lat="45.98739" lon="4.75722">
        <ele>177</ele>
        <time>2018-02-09T11:34:56Z</time>
      </trkpt>
      <trkpt lat="45.98735" lon="4.75722">
        <ele>177</ele>
        <time>2018-02-09T11:34:57Z</time>
      </trkpt>
      <trkpt lat="45.98729" lon="4.75722">
        <ele>177</ele>
        <time>2018-02-09T11:34:58Z</time>
      </trkpt>
      <trkpt lat="45.98721" lon="4.75722">
        <ele>177</ele>
        <time>2018-02-09T11:34:59Z</time>
      </trkpt>
      <trkpt lat="45.98715" lon="4.75721">
        <ele>177</ele>
        <time>2018-02-09T11:35:00Z</time>
      </trkpt>
      <trkpt lat="45.9871" lon="4.75722">
        <ele>177</ele>
        <time>2018-02-09T11:35:01Z</time>
      </trkpt>
      <trkpt lat="45.98705" lon="4.75723">
        <ele>177</ele>
        <time>2018-02-09T11:35:02Z</time>
      </trkpt>
      <trkpt lat="45.98699" lon="4.75723">
        <ele>177</ele>
        <time>2018-02-09T11:35:03Z</time>
      </trkpt>
      <trkpt lat="45.98694" lon="4.75724">
        <ele>177</ele>
        <time>2018-02-09T11:35:04Z</time>
      </trkpt>
      <trkpt lat="45.98685" lon="4.75726">
        <ele>177</ele>
        <time>2018-02-09T11:35:05Z</time>
      </trkpt>
      <trkpt lat="45.98676" lon="4.75728">
        <ele>177</ele>
        <time>2018-02-09T11:35:06Z</time>
      </trkpt>
      <trkpt lat="45.9867" lon="4.75729">
        <ele>177</ele>
        <time>2018-02-09T11:35:07Z</time>
      </trkpt>
      <trkpt lat="45.98665" lon="4.75728">
        <ele>176</ele>
        <time>2018-02-09T11:35:08Z</time>
      </trkpt>
      <trkpt lat="45.98659" lon="4.75727">
        <ele>176</ele>
        <time>2018-02-09T11:35:09Z</time>
      </trkpt>
      <trkpt lat="45.98654" lon="4.75726">
        <ele>176</ele>
        <time>2018-02-09T11:35:10Z</time>
      </trkpt>
      <trkpt lat="45.98649" lon="4.75725">
        <ele>176</ele>
        <time>2018-02-09T11:35:11Z</time>
      </trkpt>
      <trkpt lat="45.98644" lon="4.75725">
        <ele>175</ele>
        <time>2018-02-09T11:35:12Z</time>
      </trkpt>
      <trkpt lat="45.98638" lon="4.75725">
        <ele>175</ele>
        <time>2018-02-09T11:35:13Z</time>
      </trkpt>
      <trkpt lat="45.98634" lon="4.75725">
        <ele>175</ele>
        <time>2018-02-09T11:35:14Z</time>
      </trkpt>
      <trkpt lat="45.98627" lon="4.75725">
        <ele>175</ele>
        <time>2018-02-09T11:35:16Z</time>
      </trkpt>
      <trkpt lat="45.98621" lon="4.75725">
        <ele>175</ele>
        <time>2018-02-09T11:35:17Z</time>
      </trkpt>
      <trkpt lat="45.98616" lon="4.75726">
        <ele>175</ele>
        <time>2018-02-09T11:35:18Z</time>
      </trkpt>
      <trkpt lat="45.98608" lon="4.75728">
        <ele>175</ele>
        <time>2018-02-09T11:35:19Z</time>
      </trkpt>
      <trkpt lat="45.98601" lon="4.75729">
        <ele>174</ele>
        <time>2018-02-09T11:35:20Z</time>
      </trkpt>
      <trkpt lat="45.98595" lon="4.75729">
        <ele>174</ele>
        <time>2018-02-09T11:35:21Z</time>
      </trkpt>
      <trkpt lat="45.98588" lon="4.75733">
        <ele>174</ele>
        <time>2018-02-09T11:35:24Z</time>
      </trkpt>
      <trkpt lat="45.98585" lon="4.75733">
        <ele>174</ele>
        <time>2018-02-09T11:35:25Z</time>
      </trkpt>
      <trkpt lat="45.9858" lon="4.75728">
        <ele>174</ele>
        <time>2018-02-09T11:35:28Z</time>
      </trkpt>
      <trkpt lat="45.98577" lon="4.75727">
        <ele>174</ele>
        <time>2018-02-09T11:35:29Z</time>
      </trkpt>
      <trkpt lat="45.98573" lon="4.75727">
        <ele>174</ele>
        <time>2018-02-09T11:35:30Z</time>
      </trkpt>
      <trkpt lat="45.98568" lon="4.75726">
        <ele>174</ele>
        <time>2018-02-09T11:35:31Z</time>
      </trkpt>
      <trkpt lat="45.98563" lon="4.75725">
        <ele>174</ele>
        <time>2018-02-09T11:35:32Z</time>
      </trkpt>
      <trkpt lat="45.98558" lon="4.75725">
        <ele>174</ele>
        <time>2018-02-09T11:35:33Z</time>
      </trkpt>
      <trkpt lat="45.98552" lon="4.75724">
        <ele>174</ele>
        <time>2018-02-09T11:35:34Z</time>
      </trkpt>
      <trkpt lat="45.98547" lon="4.75723">
        <ele>174</ele>
        <time>2018-02-09T11:35:35Z</time>
      </trkpt>
      <trkpt lat="45.98538" lon="4.7572">
        <ele>174</ele>
        <time>2018-02-09T11:35:37Z</time>
      </trkpt>
      <trkpt lat="45.98534" lon="4.75719">
        <ele>174</ele>
        <time>2018-02-09T11:35:38Z</time>
      </trkpt>
      <trkpt lat="45.9853" lon="4.75718">
        <ele>174</ele>
        <time>2018-02-09T11:35:39Z</time>
      </trkpt>
      <trkpt lat="45.98525" lon="4.75718">
        <ele>174</ele>
        <time>2018-02-09T11:35:40Z</time>
      </trkpt>
      <trkpt lat="45.98519" lon="4.75718">
        <ele>174</ele>
        <time>2018-02-09T11:35:41Z</time>
      </trkpt>
      <trkpt lat="45.98513" lon="4.75719">
        <ele>174</ele>
        <time>2018-02-09T11:35:42Z</time>
      </trkpt>
      <trkpt lat="45.98508" lon="4.75719">
        <ele>174</ele>
        <time>2018-02-09T11:35:43Z</time>
      </trkpt>
      <trkpt lat="45.98502" lon="4.75718">
        <ele>174</ele>
        <time>2018-02-09T11:35:44Z</time>
      </trkpt>
      <trkpt lat="45.98493" lon="4.75716">
        <ele>175</ele>
        <time>2018-02-09T11:35:46Z</time>
      </trkpt>
      <trkpt lat="45.98492" lon="4.75715">
        <ele>175</ele>
        <time>2018-02-09T11:35:47Z</time>
      </trkpt>
      <trkpt lat="45.98489" lon="4.75713">
        <ele>175</ele>
        <time>2018-02-09T11:35:48Z</time>
      </trkpt>
      <trkpt lat="45.98482" lon="4.75711">
        <ele>175</ele>
        <time>2018-02-09T11:35:49Z</time>
      </trkpt>
      <trkpt lat="45.98477" lon="4.75709">
        <ele>175</ele>
        <time>2018-02-09T11:35:50Z</time>
      </trkpt>
      <trkpt lat="45.98473" lon="4.75708">
        <ele>174</ele>
        <time>2018-02-09T11:35:51Z</time>
      </trkpt>
      <trkpt lat="45.98464" lon="4.75708">
        <ele>174</ele>
        <time>2018-02-09T11:35:53Z</time>
      </trkpt>
      <trkpt lat="45.9846" lon="4.75707">
        <ele>174</ele>
        <time>2018-02-09T11:35:54Z</time>
      </trkpt>
      <trkpt lat="45.98451" lon="4.75706">
        <ele>175</ele>
        <time>2018-02-09T11:35:56Z</time>
      </trkpt>
      <trkpt lat="45.98446" lon="4.75705">
        <ele>175</ele>
        <time>2018-02-09T11:35:57Z</time>
      </trkpt>
      <trkpt lat="45.98442" lon="4.75705">
        <ele>175</ele>
        <time>2018-02-09T11:35:58Z</time>
      </trkpt>
      <trkpt lat="45.98437" lon="4.75705">
        <ele>175</ele>
        <time>2018-02-09T11:35:59Z</time>
      </trkpt>
      <trkpt lat="45.98432" lon="4.75704">
        <ele>175</ele>
        <time>2018-02-09T11:36:00Z</time>
      </trkpt>
      <trkpt lat="45.98427" lon="4.75703">
        <ele>175</ele>
        <time>2018-02-09T11:36:01Z</time>
      </trkpt>
      <trkpt lat="45.98423" lon="4.75691">
        <ele>175</ele>
        <time>2018-02-09T11:36:04Z</time>
      </trkpt>
      <trkpt lat="45.98414" lon="4.75695">
        <ele>174</ele>
        <time>2018-02-09T11:36:05Z</time>
      </trkpt>
      <trkpt lat="45.98409" lon="4.75696">
        <ele>174</ele>
        <time>2018-02-09T11:36:06Z</time>
      </trkpt>
      <trkpt lat="45.98403" lon="4.75697">
        <ele>174</ele>
        <time>2018-02-09T11:36:07Z</time>
      </trkpt>
      <trkpt lat="45.98399" lon="4.75693">
        <ele>174</ele>
        <time>2018-02-09T11:36:08Z</time>
      </trkpt>
      <trkpt lat="45.98395" lon="4.75688">
        <ele>174</ele>
        <time>2018-02-09T11:36:09Z</time>
      </trkpt>
      <trkpt lat="45.98392" lon="4.75683">
        <ele>174</ele>
        <time>2018-02-09T11:36:10Z</time>
      </trkpt>
      <trkpt lat="45.98386" lon="4.75681">
        <ele>174</ele>
        <time>2018-02-09T11:36:11Z</time>
      </trkpt>
      <trkpt lat="45.98377" lon="4.7568">
        <ele>174</ele>
        <time>2018-02-09T11:36:13Z</time>
      </trkpt>
      <trkpt lat="45.98373" lon="4.75683">
        <ele>174</ele>
        <time>2018-02-09T11:36:14Z</time>
      </trkpt>
      <trkpt lat="45.98364" lon="4.75686">
        <ele>174</ele>
        <time>2018-02-09T11:36:15Z</time>
      </trkpt>
      <trkpt lat="45.98359" lon="4.75688">
        <ele>174</ele>
        <time>2018-02-09T11:36:16Z</time>
      </trkpt>
      <trkpt lat="45.98352" lon="4.75687">
        <ele>174</ele>
        <time>2018-02-09T11:36:17Z</time>
      </trkpt>
      <trkpt lat="45.98347" lon="4.75686">
        <ele>174</ele>
        <time>2018-02-09T11:36:18Z</time>
      </trkpt>
      <trkpt lat="45.98343" lon="4.75684">
        <ele>174</ele>
        <time>2018-02-09T11:36:19Z</time>
      </trkpt>
      <trkpt lat="45.98337" lon="4.75684">
        <ele>174</ele>
        <time>2018-02-09T11:36:20Z</time>
      </trkpt>
      <trkpt lat="45.98331" lon="4.75684">
        <ele>174</ele>
        <time>2018-02-09T11:36:21Z</time>
      </trkpt>
      <trkpt lat="45.98326" lon="4.75683">
        <ele>174</ele>
        <time>2018-02-09T11:36:22Z</time>
      </trkpt>
      <trkpt lat="45.9832" lon="4.75684">
        <ele>174</ele>
        <time>2018-02-09T11:36:23Z</time>
      </trkpt>
      <trkpt lat="45.98312" lon="4.75682">
        <ele>174</ele>
        <time>2018-02-09T11:36:25Z</time>
      </trkpt>
      <trkpt lat="45.98306" lon="4.75681">
        <ele>174</ele>
        <time>2018-02-09T11:36:26Z</time>
      </trkpt>
      <trkpt lat="45.983" lon="4.7568">
        <ele>174</ele>
        <time>2018-02-09T11:36:27Z</time>
      </trkpt>
      <trkpt lat="45.98296" lon="4.7568">
        <ele>174</ele>
        <time>2018-02-09T11:36:28Z</time>
      </trkpt>
      <trkpt lat="45.98289" lon="4.75679">
        <ele>174</ele>
        <time>2018-02-09T11:36:30Z</time>
      </trkpt>
      <trkpt lat="45.98285" lon="4.75678">
        <ele>174</ele>
        <time>2018-02-09T11:36:31Z</time>
      </trkpt>
      <trkpt lat="45.98277" lon="4.75678">
        <ele>174</ele>
        <time>2018-02-09T11:36:32Z</time>
      </trkpt>
      <trkpt lat="45.98272" lon="4.75678">
        <ele>173</ele>
        <time>2018-02-09T11:36:33Z</time>
      </trkpt>
      <trkpt lat="45.98267" lon="4.75677">
        <ele>173</ele>
        <time>2018-02-09T11:36:34Z</time>
      </trkpt>
      <trkpt lat="45.98262" lon="4.75678">
        <ele>173</ele>
        <time>2018-02-09T11:36:35Z</time>
      </trkpt>
      <trkpt lat="45.98258" lon="4.75678">
        <ele>173</ele>
        <time>2018-02-09T11:36:36Z</time>
      </trkpt>
      <trkpt lat="45.98253" lon="4.75679">
        <ele>173</ele>
        <time>2018-02-09T11:36:37Z</time>
      </trkpt>
      <trkpt lat="45.98247" lon="4.75677">
        <ele>173</ele>
        <time>2018-02-09T11:36:38Z</time>
      </trkpt>
      <trkpt lat="45.98241" lon="4.75677">
        <ele>173</ele>
        <time>2018-02-09T11:36:39Z</time>
      </trkpt>
      <trkpt lat="45.98235" lon="4.75678">
        <ele>174</ele>
        <time>2018-02-09T11:36:40Z</time>
      </trkpt>
      <trkpt lat="45.98225" lon="4.75681">
        <ele>174</ele>
        <time>2018-02-09T11:36:41Z</time>
      </trkpt>
      <trkpt lat="45.9822" lon="4.75682">
        <ele>174</ele>
        <time>2018-02-09T11:36:42Z</time>
      </trkpt>
      <trkpt lat="45.98216" lon="4.75682">
        <ele>174</ele>
        <time>2018-02-09T11:36:43Z</time>
      </trkpt>
      <trkpt lat="45.9821" lon="4.75684">
        <ele>174</ele>
        <time>2018-02-09T11:36:44Z</time>
      </trkpt>
      <trkpt lat="45.98205" lon="4.75683">
        <ele>174</ele>
        <time>2018-02-09T11:36:45Z</time>
      </trkpt>
      <trkpt lat="45.98198" lon="4.75683">
        <ele>174</ele>
        <time>2018-02-09T11:36:47Z</time>
      </trkpt>
      <trkpt lat="45.98193" lon="4.75683">
        <ele>174</ele>
        <time>2018-02-09T11:36:48Z</time>
      </trkpt>
      <trkpt lat="45.98188" lon="4.75684">
        <ele>174</ele>
        <time>2018-02-09T11:36:49Z</time>
      </trkpt>
      <trkpt lat="45.98182" lon="4.75684">
        <ele>174</ele>
        <time>2018-02-09T11:36:50Z</time>
      </trkpt>
      <trkpt lat="45.98174" lon="4.75686">
        <ele>174</ele>
        <time>2018-02-09T11:36:52Z</time>
      </trkpt>
      <trkpt lat="45.98169" lon="4.75687">
        <ele>174</ele>
        <time>2018-02-09T11:36:53Z</time>
      </trkpt>
      <trkpt lat="45.98165" lon="4.75688">
        <ele>174</ele>
        <time>2018-02-09T11:36:54Z</time>
      </trkpt>
      <trkpt lat="45.98159" lon="4.75689">
        <ele>174</ele>
        <time>2018-02-09T11:36:55Z</time>
      </trkpt>
      <trkpt lat="45.98153" lon="4.75692">
        <ele>174</ele>
        <time>2018-02-09T11:36:56Z</time>
      </trkpt>
      <trkpt lat="45.98149" lon="4.75692">
        <ele>174</ele>
        <time>2018-02-09T11:36:57Z</time>
      </trkpt>
      <trkpt lat="45.98144" lon="4.75693">
        <ele>174</ele>
        <time>2018-02-09T11:36:58Z</time>
      </trkpt>
      <trkpt lat="45.98139" lon="4.75692">
        <ele>174</ele>
        <time>2018-02-09T11:36:59Z</time>
      </trkpt>
      <trkpt lat="45.98134" lon="4.75692">
        <ele>174</ele>
        <time>2018-02-09T11:37:00Z</time>
      </trkpt>
      <trkpt lat="45.98128" lon="4.75693">
        <ele>174</ele>
        <time>2018-02-09T11:37:01Z</time>
      </trkpt>
      <trkpt lat="45.98123" lon="4.75693">
        <ele>174</ele>
        <time>2018-02-09T11:37:02Z</time>
      </trkpt>
      <trkpt lat="45.98118" lon="4.75693">
        <ele>174</ele>
        <time>2018-02-09T11:37:03Z</time>
      </trkpt>
      <trkpt lat="45.98113" lon="4.75693">
        <ele>174</ele>
        <time>2018-02-09T11:37:04Z</time>
      </trkpt>
      <trkpt lat="45.98108" lon="4.75693">
        <ele>174</ele>
        <time>2018-02-09T11:37:05Z</time>
      </trkpt>
      <trkpt lat="45.98102" lon="4.75693">
        <ele>174</ele>
        <time>2018-02-09T11:37:06Z</time>
      </trkpt>
      <trkpt lat="45.98097" lon="4.75694">
        <ele>174</ele>
        <time>2018-02-09T11:37:07Z</time>
      </trkpt>
      <trkpt lat="45.98092" lon="4.75694">
        <ele>174</ele>
        <time>2018-02-09T11:37:08Z</time>
      </trkpt>
      <trkpt lat="45.98088" lon="4.75695">
        <ele>174</ele>
        <time>2018-02-09T11:37:09Z</time>
      </trkpt>
      <trkpt lat="45.98083" lon="4.75695">
        <ele>174</ele>
        <time>2018-02-09T11:37:10Z</time>
      </trkpt>
      <trkpt lat="45.98079" lon="4.75696">
        <ele>174</ele>
        <time>2018-02-09T11:37:11Z</time>
      </trkpt>
      <trkpt lat="45.98072" lon="4.75696">
        <ele>174</ele>
        <time>2018-02-09T11:37:12Z</time>
      </trkpt>
      <trkpt lat="45.98068" lon="4.75695">
        <ele>174</ele>
        <time>2018-02-09T11:37:13Z</time>
      </trkpt>
      <trkpt lat="45.98063" lon="4.75696">
        <ele>174</ele>
        <time>2018-02-09T11:37:14Z</time>
      </trkpt>
      <trkpt lat="45.98059" lon="4.75697">
        <ele>174</ele>
        <time>2018-02-09T11:37:15Z</time>
      </trkpt>
      <trkpt lat="45.98054" lon="4.75697">
        <ele>174</ele>
        <time>2018-02-09T11:37:16Z</time>
      </trkpt>
      <trkpt lat="45.98049" lon="4.75698">
        <ele>174</ele>
        <time>2018-02-09T11:37:17Z</time>
      </trkpt>
      <trkpt lat="45.98042" lon="4.75699">
        <ele>174</ele>
        <time>2018-02-09T11:37:19Z</time>
      </trkpt>
      <trkpt lat="45.98036" lon="4.757">
        <ele>174</ele>
        <time>2018-02-09T11:37:20Z</time>
      </trkpt>
      <trkpt lat="45.98031" lon="4.75702">
        <ele>174</ele>
        <time>2018-02-09T11:37:21Z</time>
      </trkpt>
      <trkpt lat="45.98026" lon="4.75703">
        <ele>174</ele>
        <time>2018-02-09T11:37:22Z</time>
      </trkpt>
      <trkpt lat="45.98019" lon="4.75705">
        <ele>174</ele>
        <time>2018-02-09T11:37:23Z</time>
      </trkpt>
      <trkpt lat="45.98014" lon="4.75707">
        <ele>174</ele>
        <time>2018-02-09T11:37:24Z</time>
      </trkpt>
      <trkpt lat="45.98009" lon="4.75708">
        <ele>174</ele>
        <time>2018-02-09T11:37:25Z</time>
      </trkpt>
      <trkpt lat="45.98003" lon="4.75709">
        <ele>174</ele>
        <time>2018-02-09T11:37:26Z</time>
      </trkpt>
      <trkpt lat="45.97996" lon="4.75713">
        <ele>174</ele>
        <time>2018-02-09T11:37:28Z</time>
      </trkpt>
      <trkpt lat="45.97992" lon="4.75714">
        <ele>174</ele>
        <time>2018-02-09T11:37:29Z</time>
      </trkpt>
      <trkpt lat="45.97984" lon="4.75718">
        <ele>174</ele>
        <time>2018-02-09T11:37:31Z</time>
      </trkpt>
      <trkpt lat="45.9798" lon="4.75719">
        <ele>174</ele>
        <time>2018-02-09T11:37:32Z</time>
      </trkpt>
      <trkpt lat="45.97972" lon="4.75722">
        <ele>174</ele>
        <time>2018-02-09T11:37:34Z</time>
      </trkpt>
      <trkpt lat="45.97968" lon="4.75724">
        <ele>174</ele>
        <time>2018-02-09T11:37:35Z</time>
      </trkpt>
      <trkpt lat="45.97959" lon="4.75726">
        <ele>174</ele>
        <time>2018-02-09T11:37:37Z</time>
      </trkpt>
      <trkpt lat="45.97955" lon="4.75725">
        <ele>174</ele>
        <time>2018-02-09T11:37:38Z</time>
      </trkpt>
      <trkpt lat="45.97951" lon="4.75725">
        <ele>174</ele>
        <time>2018-02-09T11:37:39Z</time>
      </trkpt>
      <trkpt lat="45.97945" lon="4.75724">
        <ele>174</ele>
        <time>2018-02-09T11:37:40Z</time>
      </trkpt>
      <trkpt lat="45.97937" lon="4.75719">
        <ele>174</ele>
        <time>2018-02-09T11:37:42Z</time>
      </trkpt>
      <trkpt lat="45.97931" lon="4.75716">
        <ele>174</ele>
        <time>2018-02-09T11:37:43Z</time>
      </trkpt>
      <trkpt lat="45.97926" lon="4.75714">
        <ele>174</ele>
        <time>2018-02-09T11:37:44Z</time>
      </trkpt>
      <trkpt lat="45.9792" lon="4.75711">
        <ele>174</ele>
        <time>2018-02-09T11:37:45Z</time>
      </trkpt>
      <trkpt lat="45.97916" lon="4.75709">
        <ele>175</ele>
        <time>2018-02-09T11:37:46Z</time>
      </trkpt>
      <trkpt lat="45.97911" lon="4.75705">
        <ele>175</ele>
        <time>2018-02-09T11:37:47Z</time>
      </trkpt>
      <trkpt lat="45.97906" lon="4.75702">
        <ele>175</ele>
        <time>2018-02-09T11:37:48Z</time>
      </trkpt>
      <trkpt lat="45.97902" lon="4.75699">
        <ele>175</ele>
        <time>2018-02-09T11:37:49Z</time>
      </trkpt>
      <trkpt lat="45.97897" lon="4.75697">
        <ele>175</ele>
        <time>2018-02-09T11:37:50Z</time>
      </trkpt>
      <trkpt lat="45.97892" lon="4.75694">
        <ele>175</ele>
        <time>2018-02-09T11:37:51Z</time>
      </trkpt>
      <trkpt lat="45.97886" lon="4.75693">
        <ele>175</ele>
        <time>2018-02-09T11:37:52Z</time>
      </trkpt>
      <trkpt lat="45.97881" lon="4.7569">
        <ele>175</ele>
        <time>2018-02-09T11:37:53Z</time>
      </trkpt>
      <trkpt lat="45.97875" lon="4.75688">
        <ele>175</ele>
        <time>2018-02-09T11:37:54Z</time>
      </trkpt>
      <trkpt lat="45.97869" lon="4.75685">
        <ele>175</ele>
        <time>2018-02-09T11:37:55Z</time>
      </trkpt>
      <trkpt lat="45.97864" lon="4.75682">
        <ele>175</ele>
        <time>2018-02-09T11:37:56Z</time>
      </trkpt>
      <trkpt lat="45.97859" lon="4.7568">
        <ele>175</ele>
        <time>2018-02-09T11:37:57Z</time>
      </trkpt>
      <trkpt lat="45.97853" lon="4.75677">
        <ele>175</ele>
        <time>2018-02-09T11:37:58Z</time>
      </trkpt>
      <trkpt lat="45.97847" lon="4.75676">
        <ele>175</ele>
        <time>2018-02-09T11:37:59Z</time>
      </trkpt>
      <trkpt lat="45.97842" lon="4.75675">
        <ele>175</ele>
        <time>2018-02-09T11:38:00Z</time>
      </trkpt>
      <trkpt lat="45.97836" lon="4.75674">
        <ele>175</ele>
        <time>2018-02-09T11:38:01Z</time>
      </trkpt>
      <trkpt lat="45.9783" lon="4.75673">
        <ele>175</ele>
        <time>2018-02-09T11:38:02Z</time>
      </trkpt>
      <trkpt lat="45.97826" lon="4.75672">
        <ele>175</ele>
        <time>2018-02-09T11:38:03Z</time>
      </trkpt>
      <trkpt lat="45.9782" lon="4.75671">
        <ele>175</ele>
        <time>2018-02-09T11:38:04Z</time>
      </trkpt>
      <trkpt lat="45.97814" lon="4.75671">
        <ele>175</ele>
        <time>2018-02-09T11:38:05Z</time>
      </trkpt>
      <trkpt lat="45.9781" lon="4.7567">
        <ele>175</ele>
        <time>2018-02-09T11:38:06Z</time>
      </trkpt>
      <trkpt lat="45.97804" lon="4.75669">
        <ele>175</ele>
        <time>2018-02-09T11:38:07Z</time>
      </trkpt>
      <trkpt lat="45.97799" lon="4.75669">
        <ele>174</ele>
        <time>2018-02-09T11:38:08Z</time>
      </trkpt>
      <trkpt lat="45.97792" lon="4.75668">
        <ele>174</ele>
        <time>2018-02-09T11:38:09Z</time>
      </trkpt>
      <trkpt lat="45.97787" lon="4.75668">
        <ele>174</ele>
        <time>2018-02-09T11:38:10Z</time>
      </trkpt>
      <trkpt lat="45.97782" lon="4.75667">
        <ele>174</ele>
        <time>2018-02-09T11:38:11Z</time>
      </trkpt>
      <trkpt lat="45.97776" lon="4.75667">
        <ele>174</ele>
        <time>2018-02-09T11:38:12Z</time>
      </trkpt>
      <trkpt lat="45.97771" lon="4.75667">
        <ele>173</ele>
        <time>2018-02-09T11:38:13Z</time>
      </trkpt>
      <trkpt lat="45.97765" lon="4.75668">
        <ele>173</ele>
        <time>2018-02-09T11:38:14Z</time>
      </trkpt>
      <trkpt lat="45.9776" lon="4.75668">
        <ele>173</ele>
        <time>2018-02-09T11:38:15Z</time>
      </trkpt>
      <trkpt lat="45.97755" lon="4.75668">
        <ele>172</ele>
        <time>2018-02-09T11:38:16Z</time>
      </trkpt>
      <trkpt lat="45.9775" lon="4.75667">
        <ele>172</ele>
        <time>2018-02-09T11:38:17Z</time>
      </trkpt>
      <trkpt lat="45.97741" lon="4.75668">
        <ele>172</ele>
        <time>2018-02-09T11:38:19Z</time>
      </trkpt>
      <trkpt lat="45.97737" lon="4.7567">
        <ele>172</ele>
        <time>2018-02-09T11:38:20Z</time>
      </trkpt>
      <trkpt lat="45.97732" lon="4.7567">
        <ele>172</ele>
        <time>2018-02-09T11:38:21Z</time>
      </trkpt>
      <trkpt lat="45.97727" lon="4.75669">
        <ele>172</ele>
        <time>2018-02-09T11:38:22Z</time>
      </trkpt>
      <trkpt lat="45.97722" lon="4.75669">
        <ele>171</ele>
        <time>2018-02-09T11:38:23Z</time>
      </trkpt>
      <trkpt lat="45.97718" lon="4.7567">
        <ele>171</ele>
        <time>2018-02-09T11:38:24Z</time>
      </trkpt>
      <trkpt lat="45.97714" lon="4.7567">
        <ele>171</ele>
        <time>2018-02-09T11:38:25Z</time>
      </trkpt>
      <trkpt lat="45.97707" lon="4.7567">
        <ele>171</ele>
        <time>2018-02-09T11:38:26Z</time>
      </trkpt>
      <trkpt lat="45.97703" lon="4.75671">
        <ele>171</ele>
        <time>2018-02-09T11:38:27Z</time>
      </trkpt>
      <trkpt lat="45.97695" lon="4.7567">
        <ele>171</ele>
        <time>2018-02-09T11:38:28Z</time>
      </trkpt>
      <trkpt lat="45.97691" lon="4.7567">
        <ele>171</ele>
        <time>2018-02-09T11:38:29Z</time>
      </trkpt>
      <trkpt lat="45.97685" lon="4.7567">
        <ele>170</ele>
        <time>2018-02-09T11:38:30Z</time>
      </trkpt>
      <trkpt lat="45.97679" lon="4.75669">
        <ele>170</ele>
        <time>2018-02-09T11:38:31Z</time>
      </trkpt>
      <trkpt lat="45.97672" lon="4.75668">
        <ele>170</ele>
        <time>2018-02-09T11:38:32Z</time>
      </trkpt>
      <trkpt lat="45.97666" lon="4.75668">
        <ele>169</ele>
        <time>2018-02-09T11:38:33Z</time>
      </trkpt>
      <trkpt lat="45.9766" lon="4.75668">
        <ele>169</ele>
        <time>2018-02-09T11:38:34Z</time>
      </trkpt>
      <trkpt lat="45.97654" lon="4.75668">
        <ele>170</ele>
        <time>2018-02-09T11:38:35Z</time>
      </trkpt>
      <trkpt lat="45.97646" lon="4.75669">
        <ele>170</ele>
        <time>2018-02-09T11:38:36Z</time>
      </trkpt>
      <trkpt lat="45.9764" lon="4.75669">
        <ele>170</ele>
        <time>2018-02-09T11:38:37Z</time>
      </trkpt>
      <trkpt lat="45.97634" lon="4.75669">
        <ele>170</ele>
        <time>2018-02-09T11:38:38Z</time>
      </trkpt>
      <trkpt lat="45.97629" lon="4.7567">
        <ele>171</ele>
        <time>2018-02-09T11:38:39Z</time>
      </trkpt>
      <trkpt lat="45.97624" lon="4.75669">
        <ele>171</ele>
        <time>2018-02-09T11:38:40Z</time>
      </trkpt>
      <trkpt lat="45.9762" lon="4.75669">
        <ele>171</ele>
        <time>2018-02-09T11:38:41Z</time>
      </trkpt>
      <trkpt lat="45.97615" lon="4.75669">
        <ele>171</ele>
        <time>2018-02-09T11:38:42Z</time>
      </trkpt>
      <trkpt lat="45.97611" lon="4.75669">
        <ele>171</ele>
        <time>2018-02-09T11:38:43Z</time>
      </trkpt>
      <trkpt lat="45.97605" lon="4.75669">
        <ele>171</ele>
        <time>2018-02-09T11:38:44Z</time>
      </trkpt>
      <trkpt lat="45.97601" lon="4.75671">
        <ele>171</ele>
        <time>2018-02-09T11:38:45Z</time>
      </trkpt>
      <trkpt lat="45.97596" lon="4.75673">
        <ele>171</ele>
        <time>2018-02-09T11:38:46Z</time>
      </trkpt>
      <trkpt lat="45.97589" lon="4.75677">
        <ele>171</ele>
        <time>2018-02-09T11:38:48Z</time>
      </trkpt>
      <trkpt lat="45.97585" lon="4.7568">
        <ele>171</ele>
        <time>2018-02-09T11:38:49Z</time>
      </trkpt>
      <trkpt lat="45.97577" lon="4.75681">
        <ele>171</ele>
        <time>2018-02-09T11:38:51Z</time>
      </trkpt>
      <trkpt lat="45.97574" lon="4.75681">
        <ele>171</ele>
        <time>2018-02-09T11:38:52Z</time>
      </trkpt>
      <trkpt lat="45.97569" lon="4.75671">
        <ele>171</ele>
        <time>2018-02-09T11:39:00Z</time>
      </trkpt>
      <trkpt lat="45.97568" lon="4.75669">
        <ele>171</ele>
        <time>2018-02-09T11:39:01Z</time>
      </trkpt>
      <trkpt lat="45.97564" lon="4.75661">
        <ele>170</ele>
        <time>2018-02-09T11:39:04Z</time>
      </trkpt>
      <trkpt lat="45.97562" lon="4.75658">
        <ele>169</ele>
        <time>2018-02-09T11:39:05Z</time>
      </trkpt>
      <trkpt lat="45.97556" lon="4.75655">
        <ele>169</ele>
        <time>2018-02-09T11:39:07Z</time>
      </trkpt>
      <trkpt lat="45.97553" lon="4.75655">
        <ele>169</ele>
        <time>2018-02-09T11:39:08Z</time>
      </trkpt>
      <trkpt lat="45.97546" lon="4.75656">
        <ele>169</ele>
        <time>2018-02-09T11:39:10Z</time>
      </trkpt>
      <trkpt lat="45.97542" lon="4.75656">
        <ele>169</ele>
        <time>2018-02-09T11:39:11Z</time>
      </trkpt>
      <trkpt lat="45.97535" lon="4.75654">
        <ele>169</ele>
        <time>2018-02-09T11:39:13Z</time>
      </trkpt>
      <trkpt lat="45.97531" lon="4.75653">
        <ele>169</ele>
        <time>2018-02-09T11:39:14Z</time>
      </trkpt>
      <trkpt lat="45.97523" lon="4.75653">
        <ele>169</ele>
        <time>2018-02-09T11:39:16Z</time>
      </trkpt>
      <trkpt lat="45.97519" lon="4.75656">
        <ele>169</ele>
        <time>2018-02-09T11:39:17Z</time>
      </trkpt>
      <trkpt lat="45.97515" lon="4.75659">
        <ele>169</ele>
        <time>2018-02-09T11:39:18Z</time>
      </trkpt>
      <trkpt lat="45.97511" lon="4.75661">
        <ele>169</ele>
        <time>2018-02-09T11:39:19Z</time>
      </trkpt>
      <trkpt lat="45.97503" lon="4.75665">
        <ele>170</ele>
        <time>2018-02-09T11:39:21Z</time>
      </trkpt>
      <trkpt lat="45.97498" lon="4.75667">
        <ele>170</ele>
        <time>2018-02-09T11:39:22Z</time>
      </trkpt>
      <trkpt lat="45.97493" lon="4.75669">
        <ele>170</ele>
        <time>2018-02-09T11:39:23Z</time>
      </trkpt>
      <trkpt lat="45.97488" lon="4.7567">
        <ele>170</ele>
        <time>2018-02-09T11:39:24Z</time>
      </trkpt>
      <trkpt lat="45.9748" lon="4.75673">
        <ele>170</ele>
        <time>2018-02-09T11:39:26Z</time>
      </trkpt>
      <trkpt lat="45.97475" lon="4.75674">
        <ele>171</ele>
        <time>2018-02-09T11:39:27Z</time>
      </trkpt>
      <trkpt lat="45.97467" lon="4.75675">
        <ele>171</ele>
        <time>2018-02-09T11:39:29Z</time>
      </trkpt>
      <trkpt lat="45.97462" lon="4.75677">
        <ele>171</ele>
        <time>2018-02-09T11:39:30Z</time>
      </trkpt>
      <trkpt lat="45.97458" lon="4.75677">
        <ele>171</ele>
        <time>2018-02-09T11:39:31Z</time>
      </trkpt>
      <trkpt lat="45.97451" lon="4.75677">
        <ele>170</ele>
        <time>2018-02-09T11:39:32Z</time>
      </trkpt>
      <trkpt lat="45.97446" lon="4.75678">
        <ele>170</ele>
        <time>2018-02-09T11:39:33Z</time>
      </trkpt>
      <trkpt lat="45.97442" lon="4.75678">
        <ele>170</ele>
        <time>2018-02-09T11:39:34Z</time>
      </trkpt>
      <trkpt lat="45.97437" lon="4.75678">
        <ele>170</ele>
        <time>2018-02-09T11:39:35Z</time>
      </trkpt>
      <trkpt lat="45.97432" lon="4.75677">
        <ele>170</ele>
        <time>2018-02-09T11:39:36Z</time>
      </trkpt>
      <trkpt lat="45.97424" lon="4.75678">
        <ele>170</ele>
        <time>2018-02-09T11:39:38Z</time>
      </trkpt>
      <trkpt lat="45.97417" lon="4.7568">
        <ele>170</ele>
        <time>2018-02-09T11:39:39Z</time>
      </trkpt>
      <trkpt lat="45.97408" lon="4.7568">
        <ele>171</ele>
        <time>2018-02-09T11:39:41Z</time>
      </trkpt>
      <trkpt lat="45.97403" lon="4.75679">
        <ele>172</ele>
        <time>2018-02-09T11:39:42Z</time>
      </trkpt>
      <trkpt lat="45.97396" lon="4.7568">
        <ele>172</ele>
        <time>2018-02-09T11:39:43Z</time>
      </trkpt>
      <trkpt lat="45.97392" lon="4.75679">
        <ele>172</ele>
        <time>2018-02-09T11:39:44Z</time>
      </trkpt>
      <trkpt lat="45.97384" lon="4.75679">
        <ele>173</ele>
        <time>2018-02-09T11:39:46Z</time>
      </trkpt>
      <trkpt lat="45.97378" lon="4.75679">
        <ele>173</ele>
        <time>2018-02-09T11:39:47Z</time>
      </trkpt>
      <trkpt lat="45.97373" lon="4.75679">
        <ele>174</ele>
        <time>2018-02-09T11:39:48Z</time>
      </trkpt>
      <trkpt lat="45.97368" lon="4.75678">
        <ele>174</ele>
        <time>2018-02-09T11:39:49Z</time>
      </trkpt>
      <trkpt lat="45.97363" lon="4.75678">
        <ele>174</ele>
        <time>2018-02-09T11:39:50Z</time>
      </trkpt>
      <trkpt lat="45.97358" lon="4.75678">
        <ele>174</ele>
        <time>2018-02-09T11:39:51Z</time>
      </trkpt>
      <trkpt lat="45.97352" lon="4.75678">
        <ele>175</ele>
        <time>2018-02-09T11:39:52Z</time>
      </trkpt>
      <trkpt lat="45.97348" lon="4.75679">
        <ele>175</ele>
        <time>2018-02-09T11:39:53Z</time>
      </trkpt>
      <trkpt lat="45.97342" lon="4.75677">
        <ele>175</ele>
        <time>2018-02-09T11:39:54Z</time>
      </trkpt>
      <trkpt lat="45.97335" lon="4.75677">
        <ele>175</ele>
        <time>2018-02-09T11:39:55Z</time>
      </trkpt>
      <trkpt lat="45.97329" lon="4.75676">
        <ele>176</ele>
        <time>2018-02-09T11:39:56Z</time>
      </trkpt>
      <trkpt lat="45.97324" lon="4.75675">
        <ele>176</ele>
        <time>2018-02-09T11:39:57Z</time>
      </trkpt>
      <trkpt lat="45.97318" lon="4.75675">
        <ele>176</ele>
        <time>2018-02-09T11:39:58Z</time>
      </trkpt>
      <trkpt lat="45.97312" lon="4.75674">
        <ele>176</ele>
        <time>2018-02-09T11:39:59Z</time>
      </trkpt>
      <trkpt lat="45.97306" lon="4.75672">
        <ele>176</ele>
        <time>2018-02-09T11:40:00Z</time>
      </trkpt>
      <trkpt lat="45.973" lon="4.7567">
        <ele>176</ele>
        <time>2018-02-09T11:40:01Z</time>
      </trkpt>
      <trkpt lat="45.97296" lon="4.75668">
        <ele>176</ele>
        <time>2018-02-09T11:40:02Z</time>
      </trkpt>
      <trkpt lat="45.97291" lon="4.75667">
        <ele>176</ele>
        <time>2018-02-09T11:40:03Z</time>
      </trkpt>
      <trkpt lat="45.97282" lon="4.75665">
        <ele>172</ele>
        <time>2018-02-09T11:40:05Z</time>
      </trkpt>
      <trkpt lat="45.97278" lon="4.75665">
        <ele>172</ele>
        <time>2018-02-09T11:40:06Z</time>
      </trkpt>
      <trkpt lat="45.97272" lon="4.75664">
        <ele>172</ele>
        <time>2018-02-09T11:40:07Z</time>
      </trkpt>
      <trkpt lat="45.97267" lon="4.75663">
        <ele>172</ele>
        <time>2018-02-09T11:40:08Z</time>
      </trkpt>
      <trkpt lat="45.97261" lon="4.75662">
        <ele>173</ele>
        <time>2018-02-09T11:40:09Z</time>
      </trkpt>
      <trkpt lat="45.97255" lon="4.75659">
        <ele>173</ele>
        <time>2018-02-09T11:40:10Z</time>
      </trkpt>
      <trkpt lat="45.9725" lon="4.75658">
        <ele>173</ele>
        <time>2018-02-09T11:40:11Z</time>
      </trkpt>
      <trkpt lat="45.97246" lon="4.75656">
        <ele>173</ele>
        <time>2018-02-09T11:40:12Z</time>
      </trkpt>
      <trkpt lat="45.97241" lon="4.75653">
        <ele>173</ele>
        <time>2018-02-09T11:40:13Z</time>
      </trkpt>
      <trkpt lat="45.97234" lon="4.75653">
        <ele>173</ele>
        <time>2018-02-09T11:40:14Z</time>
      </trkpt>
      <trkpt lat="45.97229" lon="4.7565">
        <ele>173</ele>
        <time>2018-02-09T11:40:15Z</time>
      </trkpt>
      <trkpt lat="45.97223" lon="4.75649">
        <ele>173</ele>
        <time>2018-02-09T11:40:16Z</time>
      </trkpt>
      <trkpt lat="45.97218" lon="4.75646">
        <ele>173</ele>
        <time>2018-02-09T11:40:17Z</time>
      </trkpt>
      <trkpt lat="45.97213" lon="4.75644">
        <ele>173</ele>
        <time>2018-02-09T11:40:18Z</time>
      </trkpt>
      <trkpt lat="45.97207" lon="4.75643">
        <ele>173</ele>
        <time>2018-02-09T11:40:19Z</time>
      </trkpt>
      <trkpt lat="45.97202" lon="4.75641">
        <ele>173</ele>
        <time>2018-02-09T11:40:20Z</time>
      </trkpt>
      <trkpt lat="45.97195" lon="4.7564">
        <ele>173</ele>
        <time>2018-02-09T11:40:21Z</time>
      </trkpt>
      <trkpt lat="45.9719" lon="4.75637">
        <ele>173</ele>
        <time>2018-02-09T11:40:22Z</time>
      </trkpt>
      <trkpt lat="45.97183" lon="4.75636">
        <ele>174</ele>
        <time>2018-02-09T11:40:23Z</time>
      </trkpt>
      <trkpt lat="45.97177" lon="4.75635">
        <ele>174</ele>
        <time>2018-02-09T11:40:24Z</time>
      </trkpt>
      <trkpt lat="45.97172" lon="4.75633">
        <ele>174</ele>
        <time>2018-02-09T11:40:25Z</time>
      </trkpt>
      <trkpt lat="45.97166" lon="4.75631">
        <ele>176</ele>
        <time>2018-02-09T11:40:26Z</time>
      </trkpt>
      <trkpt lat="45.97161" lon="4.75629">
        <ele>176</ele>
        <time>2018-02-09T11:40:27Z</time>
      </trkpt>
      <trkpt lat="45.97156" lon="4.75626">
        <ele>176</ele>
        <time>2018-02-09T11:40:28Z</time>
      </trkpt>
      <trkpt lat="45.97151" lon="4.75624">
        <ele>176</ele>
        <time>2018-02-09T11:40:29Z</time>
      </trkpt>
      <trkpt lat="45.97145" lon="4.75621">
        <ele>176</ele>
        <time>2018-02-09T11:40:30Z</time>
      </trkpt>
      <trkpt lat="45.9714" lon="4.75618">
        <ele>176</ele>
        <time>2018-02-09T11:40:31Z</time>
      </trkpt>
      <trkpt lat="45.97134" lon="4.75615">
        <ele>176</ele>
        <time>2018-02-09T11:40:32Z</time>
      </trkpt>
      <trkpt lat="45.97128" lon="4.75612">
        <ele>176</ele>
        <time>2018-02-09T11:40:33Z</time>
      </trkpt>
      <trkpt lat="45.97123" lon="4.7561">
        <ele>176</ele>
        <time>2018-02-09T11:40:34Z</time>
      </trkpt>
      <trkpt lat="45.97117" lon="4.75608">
        <ele>176</ele>
        <time>2018-02-09T11:40:35Z</time>
      </trkpt>
      <trkpt lat="45.97113" lon="4.75606">
        <ele>176</ele>
        <time>2018-02-09T11:40:36Z</time>
      </trkpt>
      <trkpt lat="45.97108" lon="4.75604">
        <ele>176</ele>
        <time>2018-02-09T11:40:37Z</time>
      </trkpt>
      <trkpt lat="45.97102" lon="4.756">
        <ele>176</ele>
        <time>2018-02-09T11:40:38Z</time>
      </trkpt>
      <trkpt lat="45.97097" lon="4.75598">
        <ele>176</ele>
        <time>2018-02-09T11:40:39Z</time>
      </trkpt>
      <trkpt lat="45.97092" lon="4.75595">
        <ele>176</ele>
        <time>2018-02-09T11:40:40Z</time>
      </trkpt>
      <trkpt lat="45.97086" lon="4.75593">
        <ele>176</ele>
        <time>2018-02-09T11:40:41Z</time>
      </trkpt>
      <trkpt lat="45.97081" lon="4.7559">
        <ele>177</ele>
        <time>2018-02-09T11:40:42Z</time>
      </trkpt>
      <trkpt lat="45.97076" lon="4.75588">
        <ele>177</ele>
        <time>2018-02-09T11:40:43Z</time>
      </trkpt>
      <trkpt lat="45.9707" lon="4.75585">
        <ele>178</ele>
        <time>2018-02-09T11:40:44Z</time>
      </trkpt>
      <trkpt lat="45.97064" lon="4.75582">
        <ele>174</ele>
        <time>2018-02-09T11:40:45Z</time>
      </trkpt>
      <trkpt lat="45.97059" lon="4.75581">
        <ele>174</ele>
        <time>2018-02-09T11:40:46Z</time>
      </trkpt>
      <trkpt lat="45.97054" lon="4.75578">
        <ele>174</ele>
        <time>2018-02-09T11:40:47Z</time>
      </trkpt>
      <trkpt lat="45.97048" lon="4.75576">
        <ele>174</ele>
        <time>2018-02-09T11:40:48Z</time>
      </trkpt>
      <trkpt lat="45.97043" lon="4.75574">
        <ele>174</ele>
        <time>2018-02-09T11:40:49Z</time>
      </trkpt>
      <trkpt lat="45.97038" lon="4.75571">
        <ele>174</ele>
        <time>2018-02-09T11:40:50Z</time>
      </trkpt>
      <trkpt lat="45.97033" lon="4.75569">
        <ele>174</ele>
        <time>2018-02-09T11:40:51Z</time>
      </trkpt>
      <trkpt lat="45.97027" lon="4.75567">
        <ele>174</ele>
        <time>2018-02-09T11:40:52Z</time>
      </trkpt>
      <trkpt lat="45.97022" lon="4.75566">
        <ele>174</ele>
        <time>2018-02-09T11:40:53Z</time>
      </trkpt>
      <trkpt lat="45.97016" lon="4.75562">
        <ele>174</ele>
        <time>2018-02-09T11:40:54Z</time>
      </trkpt>
      <trkpt lat="45.97011" lon="4.75561">
        <ele>174</ele>
        <time>2018-02-09T11:40:55Z</time>
      </trkpt>
      <trkpt lat="45.97005" lon="4.75559">
        <ele>174</ele>
        <time>2018-02-09T11:40:56Z</time>
      </trkpt>
      <trkpt lat="45.96999" lon="4.75556">
        <ele>176</ele>
        <time>2018-02-09T11:40:57Z</time>
      </trkpt>
      <trkpt lat="45.96994" lon="4.75553">
        <ele>176</ele>
        <time>2018-02-09T11:40:58Z</time>
      </trkpt>
      <trkpt lat="45.96988" lon="4.7555">
        <ele>175</ele>
        <time>2018-02-09T11:40:59Z</time>
      </trkpt>
      <trkpt lat="45.96982" lon="4.75548">
        <ele>175</ele>
        <time>2018-02-09T11:41:00Z</time>
      </trkpt>
      <trkpt lat="45.96977" lon="4.75546">
        <ele>175</ele>
        <time>2018-02-09T11:41:01Z</time>
      </trkpt>
      <trkpt lat="45.96972" lon="4.75543">
        <ele>175</ele>
        <time>2018-02-09T11:41:02Z</time>
      </trkpt>
      <trkpt lat="45.96966" lon="4.75541">
        <ele>175</ele>
        <time>2018-02-09T11:41:03Z</time>
      </trkpt>
      <trkpt lat="45.9696" lon="4.75539">
        <ele>175</ele>
        <time>2018-02-09T11:41:04Z</time>
      </trkpt>
      <trkpt lat="45.96954" lon="4.75537">
        <ele>175</ele>
        <time>2018-02-09T11:41:05Z</time>
      </trkpt>
      <trkpt lat="45.9695" lon="4.75534">
        <ele>175</ele>
        <time>2018-02-09T11:41:06Z</time>
      </trkpt>
      <trkpt lat="45.96943" lon="4.75531">
        <ele>175</ele>
        <time>2018-02-09T11:41:07Z</time>
      </trkpt>
      <trkpt lat="45.96938" lon="4.75529">
        <ele>175</ele>
        <time>2018-02-09T11:41:08Z</time>
      </trkpt>
      <trkpt lat="45.96933" lon="4.75527">
        <ele>175</ele>
        <time>2018-02-09T11:41:09Z</time>
      </trkpt>
      <trkpt lat="45.96927" lon="4.75525">
        <ele>175</ele>
        <time>2018-02-09T11:41:10Z</time>
      </trkpt>
      <trkpt lat="45.96921" lon="4.75523">
        <ele>174</ele>
        <time>2018-02-09T11:41:11Z</time>
      </trkpt>
      <trkpt lat="45.96915" lon="4.75522">
        <ele>178</ele>
        <time>2018-02-09T11:41:12Z</time>
      </trkpt>
      <trkpt lat="45.96909" lon="4.7552">
        <ele>177</ele>
        <time>2018-02-09T11:41:13Z</time>
      </trkpt>
      <trkpt lat="45.96905" lon="4.75518">
        <ele>177</ele>
        <time>2018-02-09T11:41:14Z</time>
      </trkpt>
      <trkpt lat="45.96899" lon="4.75516">
        <ele>178</ele>
        <time>2018-02-09T11:41:15Z</time>
      </trkpt>
      <trkpt lat="45.96893" lon="4.75515">
        <ele>178</ele>
        <time>2018-02-09T11:41:16Z</time>
      </trkpt>
      <trkpt lat="45.96888" lon="4.75512">
        <ele>178</ele>
        <time>2018-02-09T11:41:17Z</time>
      </trkpt>
      <trkpt lat="45.96882" lon="4.75509">
        <ele>178</ele>
        <time>2018-02-09T11:41:18Z</time>
      </trkpt>
      <trkpt lat="45.96876" lon="4.75507">
        <ele>179</ele>
        <time>2018-02-09T11:41:19Z</time>
      </trkpt>
      <trkpt lat="45.9687" lon="4.75507">
        <ele>179</ele>
        <time>2018-02-09T11:41:20Z</time>
      </trkpt>
      <trkpt lat="45.96864" lon="4.75505">
        <ele>178</ele>
        <time>2018-02-09T11:41:21Z</time>
      </trkpt>
      <trkpt lat="45.96858" lon="4.75502">
        <ele>178</ele>
        <time>2018-02-09T11:41:22Z</time>
      </trkpt>
      <trkpt lat="45.96853" lon="4.75499">
        <ele>172</ele>
        <time>2018-02-09T11:41:23Z</time>
      </trkpt>
      <trkpt lat="45.96847" lon="4.75497">
        <ele>172</ele>
        <time>2018-02-09T11:41:24Z</time>
      </trkpt>
      <trkpt lat="45.96841" lon="4.75496">
        <ele>173</ele>
        <time>2018-02-09T11:41:25Z</time>
      </trkpt>
      <trkpt lat="45.96834" lon="4.75494">
        <ele>173</ele>
        <time>2018-02-09T11:41:26Z</time>
      </trkpt>
      <trkpt lat="45.96827" lon="4.75491">
        <ele>174</ele>
        <time>2018-02-09T11:41:27Z</time>
      </trkpt>
      <trkpt lat="45.96822" lon="4.75489">
        <ele>174</ele>
        <time>2018-02-09T11:41:28Z</time>
      </trkpt>
      <trkpt lat="45.96815" lon="4.75486">
        <ele>174</ele>
        <time>2018-02-09T11:41:29Z</time>
      </trkpt>
      <trkpt lat="45.96809" lon="4.75484">
        <ele>174</ele>
        <time>2018-02-09T11:41:30Z</time>
      </trkpt>
      <trkpt lat="45.96803" lon="4.75481">
        <ele>174</ele>
        <time>2018-02-09T11:41:31Z</time>
      </trkpt>
      <trkpt lat="45.96797" lon="4.75479">
        <ele>174</ele>
        <time>2018-02-09T11:41:32Z</time>
      </trkpt>
      <trkpt lat="45.96791" lon="4.75476">
        <ele>174</ele>
        <time>2018-02-09T11:41:33Z</time>
      </trkpt>
      <trkpt lat="45.96785" lon="4.75473">
        <ele>175</ele>
        <time>2018-02-09T11:41:34Z</time>
      </trkpt>
      <trkpt lat="45.96779" lon="4.75471">
        <ele>175</ele>
        <time>2018-02-09T11:41:35Z</time>
      </trkpt>
      <trkpt lat="45.96773" lon="4.75468">
        <ele>175</ele>
        <time>2018-02-09T11:41:36Z</time>
      </trkpt>
      <trkpt lat="45.96769" lon="4.75468">
        <ele>175</ele>
        <time>2018-02-09T11:41:37Z</time>
      </trkpt>
      <trkpt lat="45.96763" lon="4.75466">
        <ele>175</ele>
        <time>2018-02-09T11:41:38Z</time>
      </trkpt>
      <trkpt lat="45.96758" lon="4.75463">
        <ele>175</ele>
        <time>2018-02-09T11:41:39Z</time>
      </trkpt>
      <trkpt lat="45.96753" lon="4.75459">
        <ele>174</ele>
        <time>2018-02-09T11:41:40Z</time>
      </trkpt>
      <trkpt lat="45.96747" lon="4.75455">
        <ele>179</ele>
        <time>2018-02-09T11:41:41Z</time>
      </trkpt>
      <trkpt lat="45.96743" lon="4.75453">
        <ele>179</ele>
        <time>2018-02-09T11:41:42Z</time>
      </trkpt>
      <trkpt lat="45.96737" lon="4.75449">
        <ele>179</ele>
        <time>2018-02-09T11:41:43Z</time>
      </trkpt>
      <trkpt lat="45.96731" lon="4.75447">
        <ele>179</ele>
        <time>2018-02-09T11:41:44Z</time>
      </trkpt>
      <trkpt lat="45.96726" lon="4.75442">
        <ele>179</ele>
        <time>2018-02-09T11:41:45Z</time>
      </trkpt>
      <trkpt lat="45.9672" lon="4.75439">
        <ele>179</ele>
        <time>2018-02-09T11:41:46Z</time>
      </trkpt>
      <trkpt lat="45.96714" lon="4.75437">
        <ele>179</ele>
        <time>2018-02-09T11:41:47Z</time>
      </trkpt>
      <trkpt lat="45.96709" lon="4.75433">
        <ele>179</ele>
        <time>2018-02-09T11:41:48Z</time>
      </trkpt>
      <trkpt lat="45.96704" lon="4.7543">
        <ele>179</ele>
        <time>2018-02-09T11:41:49Z</time>
      </trkpt>
      <trkpt lat="45.96698" lon="4.75426">
        <ele>179</ele>
        <time>2018-02-09T11:41:50Z</time>
      </trkpt>
      <trkpt lat="45.96693" lon="4.75423">
        <ele>179</ele>
        <time>2018-02-09T11:41:51Z</time>
      </trkpt>
      <trkpt lat="45.96688" lon="4.7542">
        <ele>179</ele>
        <time>2018-02-09T11:41:52Z</time>
      </trkpt>
      <trkpt lat="45.96683" lon="4.75419">
        <ele>179</ele>
        <time>2018-02-09T11:41:53Z</time>
      </trkpt>
      <trkpt lat="45.96678" lon="4.75415">
        <ele>173</ele>
        <time>2018-02-09T11:41:54Z</time>
      </trkpt>
      <trkpt lat="45.96672" lon="4.75412">
        <ele>174</ele>
        <time>2018-02-09T11:41:55Z</time>
      </trkpt>
      <trkpt lat="45.96667" lon="4.75409">
        <ele>174</ele>
        <time>2018-02-09T11:41:56Z</time>
      </trkpt>
      <trkpt lat="45.96662" lon="4.75407">
        <ele>177</ele>
        <time>2018-02-09T11:41:57Z</time>
      </trkpt>
      <trkpt lat="45.96657" lon="4.75404">
        <ele>178</ele>
        <time>2018-02-09T11:41:58Z</time>
      </trkpt>
      <trkpt lat="45.96651" lon="4.75401">
        <ele>178</ele>
        <time>2018-02-09T11:41:59Z</time>
      </trkpt>
      <trkpt lat="45.96647" lon="4.75399">
        <ele>179</ele>
        <time>2018-02-09T11:42:00Z</time>
      </trkpt>
      <trkpt lat="45.96642" lon="4.75395">
        <ele>179</ele>
        <time>2018-02-09T11:42:01Z</time>
      </trkpt>
      <trkpt lat="45.96637" lon="4.75392">
        <ele>179</ele>
        <time>2018-02-09T11:42:02Z</time>
      </trkpt>
      <trkpt lat="45.96633" lon="4.7539">
        <ele>180</ele>
        <time>2018-02-09T11:42:03Z</time>
      </trkpt>
      <trkpt lat="45.96628" lon="4.75386">
        <ele>180</ele>
        <time>2018-02-09T11:42:04Z</time>
      </trkpt>
      <trkpt lat="45.96623" lon="4.75383">
        <ele>180</ele>
        <time>2018-02-09T11:42:05Z</time>
      </trkpt>
      <trkpt lat="45.96617" lon="4.75381">
        <ele>181</ele>
        <time>2018-02-09T11:42:06Z</time>
      </trkpt>
      <trkpt lat="45.96612" lon="4.7538">
        <ele>181</ele>
        <time>2018-02-09T11:42:07Z</time>
      </trkpt>
      <trkpt lat="45.96606" lon="4.75378">
        <ele>181</ele>
        <time>2018-02-09T11:42:08Z</time>
      </trkpt>
      <trkpt lat="45.96601" lon="4.75375">
        <ele>181</ele>
        <time>2018-02-09T11:42:09Z</time>
      </trkpt>
      <trkpt lat="45.96596" lon="4.75372">
        <ele>181</ele>
        <time>2018-02-09T11:42:10Z</time>
      </trkpt>
      <trkpt lat="45.96591" lon="4.75369">
        <ele>181</ele>
        <time>2018-02-09T11:42:11Z</time>
      </trkpt>
      <trkpt lat="45.96587" lon="4.75366">
        <ele>180</ele>
        <time>2018-02-09T11:42:12Z</time>
      </trkpt>
      <trkpt lat="45.96581" lon="4.75362">
        <ele>188</ele>
        <time>2018-02-09T11:42:13Z</time>
      </trkpt>
      <trkpt lat="45.96575" lon="4.75358">
        <ele>188</ele>
        <time>2018-02-09T11:42:14Z</time>
      </trkpt>
      <trkpt lat="45.9657" lon="4.75355">
        <ele>187</ele>
        <time>2018-02-09T11:42:15Z</time>
      </trkpt>
      <trkpt lat="45.96565" lon="4.75351">
        <ele>187</ele>
        <time>2018-02-09T11:42:16Z</time>
      </trkpt>
      <trkpt lat="45.96558" lon="4.75348">
        <ele>188</ele>
        <time>2018-02-09T11:42:17Z</time>
      </trkpt>
      <trkpt lat="45.96553" lon="4.75343">
        <ele>188</ele>
        <time>2018-02-09T11:42:18Z</time>
      </trkpt>
      <trkpt lat="45.96546" lon="4.75341">
        <ele>189</ele>
        <time>2018-02-09T11:42:19Z</time>
      </trkpt>
      <trkpt lat="45.96541" lon="4.75338">
        <ele>190</ele>
        <time>2018-02-09T11:42:20Z</time>
      </trkpt>
      <trkpt lat="45.96536" lon="4.75334">
        <ele>190</ele>
        <time>2018-02-09T11:42:21Z</time>
      </trkpt>
      <trkpt lat="45.96532" lon="4.75332">
        <ele>179</ele>
        <time>2018-02-09T11:42:22Z</time>
      </trkpt>
      <trkpt lat="45.96526" lon="4.75329">
        <ele>179</ele>
        <time>2018-02-09T11:42:23Z</time>
      </trkpt>
      <trkpt lat="45.96521" lon="4.75327">
        <ele>180</ele>
        <time>2018-02-09T11:42:24Z</time>
      </trkpt>
      <trkpt lat="45.96513" lon="4.75322">
        <ele>181</ele>
        <time>2018-02-09T11:42:26Z</time>
      </trkpt>
      <trkpt lat="45.96509" lon="4.75319">
        <ele>181</ele>
        <time>2018-02-09T11:42:27Z</time>
      </trkpt>
      <trkpt lat="45.96504" lon="4.75317">
        <ele>181</ele>
        <time>2018-02-09T11:42:28Z</time>
      </trkpt>
      <trkpt lat="45.965" lon="4.75315">
        <ele>186</ele>
        <time>2018-02-09T11:42:29Z</time>
      </trkpt>
      <trkpt lat="45.96491" lon="4.7531">
        <ele>186</ele>
        <time>2018-02-09T11:42:31Z</time>
      </trkpt>
      <trkpt lat="45.96489" lon="4.75307">
        <ele>186</ele>
        <time>2018-02-09T11:42:32Z</time>
      </trkpt>
      <trkpt lat="45.9648" lon="4.75305">
        <ele>186</ele>
        <time>2018-02-09T11:42:33Z</time>
      </trkpt>
      <trkpt lat="45.96475" lon="4.753">
        <ele>186</ele>
        <time>2018-02-09T11:42:34Z</time>
      </trkpt>
      <trkpt lat="45.9647" lon="4.75297">
        <ele>186</ele>
        <time>2018-02-09T11:42:35Z</time>
      </trkpt>
      <trkpt lat="45.96461" lon="4.75293">
        <ele>186</ele>
        <time>2018-02-09T11:42:37Z</time>
      </trkpt>
      <trkpt lat="45.96459" lon="4.75292">
        <ele>186</ele>
        <time>2018-02-09T11:42:38Z</time>
      </trkpt>
      <trkpt lat="45.96453" lon="4.75283">
        <ele>186</ele>
        <time>2018-02-09T11:42:41Z</time>
      </trkpt>
      <trkpt lat="45.9645" lon="4.7528">
        <ele>185</ele>
        <time>2018-02-09T11:42:42Z</time>
      </trkpt>
      <trkpt lat="45.96445" lon="4.75276">
        <ele>185</ele>
        <time>2018-02-09T11:42:44Z</time>
      </trkpt>
      <trkpt lat="45.96441" lon="4.75275">
        <ele>185</ele>
        <time>2018-02-09T11:42:45Z</time>
      </trkpt>
      <trkpt lat="45.96436" lon="4.75273">
        <ele>185</ele>
        <time>2018-02-09T11:42:46Z</time>
      </trkpt>
      <trkpt lat="45.96431" lon="4.75272">
        <ele>185</ele>
        <time>2018-02-09T11:42:47Z</time>
      </trkpt>
      <trkpt lat="45.96425" lon="4.75269">
        <ele>185</ele>
        <time>2018-02-09T11:42:48Z</time>
      </trkpt>
      <trkpt lat="45.96422" lon="4.75265">
        <ele>184</ele>
        <time>2018-02-09T11:42:49Z</time>
      </trkpt>
      <trkpt lat="45.96418" lon="4.75263">
        <ele>184</ele>
        <time>2018-02-09T11:42:50Z</time>
      </trkpt>
      <trkpt lat="45.96412" lon="4.7526">
        <ele>187</ele>
        <time>2018-02-09T11:42:51Z</time>
      </trkpt>
      <trkpt lat="45.96407" lon="4.75256">
        <ele>188</ele>
        <time>2018-02-09T11:42:52Z</time>
      </trkpt>
      <trkpt lat="45.96401" lon="4.75253">
        <ele>189</ele>
        <time>2018-02-09T11:42:53Z</time>
      </trkpt>
      <trkpt lat="45.96396" lon="4.75253">
        <ele>190</ele>
        <time>2018-02-09T11:42:54Z</time>
      </trkpt>
      <trkpt lat="45.96391" lon="4.75252">
        <ele>191</ele>
        <time>2018-02-09T11:42:55Z</time>
      </trkpt>
      <trkpt lat="45.96384" lon="4.75249">
        <ele>180</ele>
        <time>2018-02-09T11:42:57Z</time>
      </trkpt>
      <trkpt lat="45.96381" lon="4.75249">
        <ele>180</ele>
        <time>2018-02-09T11:42:58Z</time>
      </trkpt>
      <trkpt lat="45.96376" lon="4.75246">
        <ele>180</ele>
        <time>2018-02-09T11:42:59Z</time>
      </trkpt>
      <trkpt lat="45.96372" lon="4.75243">
        <ele>180</ele>
        <time>2018-02-09T11:43:00Z</time>
      </trkpt>
      <trkpt lat="45.96369" lon="4.75242">
        <ele>180</ele>
        <time>2018-02-09T11:43:01Z</time>
      </trkpt>
      <trkpt lat="45.96363" lon="4.75239">
        <ele>181</ele>
        <time>2018-02-09T11:43:02Z</time>
      </trkpt>
      <trkpt lat="45.96357" lon="4.75238">
        <ele>181</ele>
        <time>2018-02-09T11:43:03Z</time>
      </trkpt>
      <trkpt lat="45.9635" lon="4.75239">
        <ele>182</ele>
        <time>2018-02-09T11:43:04Z</time>
      </trkpt>
      <trkpt lat="45.96343" lon="4.75235">
        <ele>183</ele>
        <time>2018-02-09T11:43:06Z</time>
      </trkpt>
      <trkpt lat="45.96338" lon="4.75233">
        <ele>183</ele>
        <time>2018-02-09T11:43:07Z</time>
      </trkpt>
      <trkpt lat="45.96334" lon="4.7523">
        <ele>182</ele>
        <time>2018-02-09T11:43:08Z</time>
      </trkpt>
      <trkpt lat="45.96328" lon="4.7523">
        <ele>186</ele>
        <time>2018-02-09T11:43:09Z</time>
      </trkpt>
      <trkpt lat="45.9632" lon="4.75225">
        <ele>185</ele>
        <time>2018-02-09T11:43:11Z</time>
      </trkpt>
      <trkpt lat="45.96315" lon="4.75223">
        <ele>185</ele>
        <time>2018-02-09T11:43:12Z</time>
      </trkpt>
      <trkpt lat="45.96307" lon="4.75221">
        <ele>185</ele>
        <time>2018-02-09T11:43:14Z</time>
      </trkpt>
      <trkpt lat="45.96302" lon="4.75219">
        <ele>185</ele>
        <time>2018-02-09T11:43:15Z</time>
      </trkpt>
      <trkpt lat="45.96297" lon="4.75216">
        <ele>185</ele>
        <time>2018-02-09T11:43:16Z</time>
      </trkpt>
      <trkpt lat="45.96293" lon="4.75214">
        <ele>185</ele>
        <time>2018-02-09T11:43:17Z</time>
      </trkpt>
      <trkpt lat="45.96289" lon="4.75212">
        <ele>185</ele>
        <time>2018-02-09T11:43:18Z</time>
      </trkpt>
      <trkpt lat="45.96284" lon="4.75208">
        <ele>185</ele>
        <time>2018-02-09T11:43:19Z</time>
      </trkpt>
      <trkpt lat="45.96278" lon="4.75206">
        <ele>185</ele>
        <time>2018-02-09T11:43:21Z</time>
      </trkpt>
      <trkpt lat="45.96272" lon="4.75205">
        <ele>185</ele>
        <time>2018-02-09T11:43:22Z</time>
      </trkpt>
      <trkpt lat="45.96267" lon="4.75204">
        <ele>186</ele>
        <time>2018-02-09T11:43:23Z</time>
      </trkpt>
      <trkpt lat="45.96262" lon="4.75203">
        <ele>186</ele>
        <time>2018-02-09T11:43:24Z</time>
      </trkpt>
      <trkpt lat="45.96256" lon="4.75199">
        <ele>185</ele>
        <time>2018-02-09T11:43:26Z</time>
      </trkpt>
      <trkpt lat="45.96252" lon="4.75198">
        <ele>185</ele>
        <time>2018-02-09T11:43:27Z</time>
      </trkpt>
      <trkpt lat="45.96248" lon="4.75197">
        <ele>192</ele>
        <time>2018-02-09T11:43:28Z</time>
      </trkpt>
      <trkpt lat="45.96242" lon="4.75194">
        <ele>192</ele>
        <time>2018-02-09T11:43:29Z</time>
      </trkpt>
      <trkpt lat="45.96237" lon="4.75192">
        <ele>191</ele>
        <time>2018-02-09T11:43:30Z</time>
      </trkpt>
      <trkpt lat="45.96232" lon="4.7519">
        <ele>192</ele>
        <time>2018-02-09T11:43:31Z</time>
      </trkpt>
      <trkpt lat="45.96226" lon="4.75186">
        <ele>192</ele>
        <time>2018-02-09T11:43:33Z</time>
      </trkpt>
      <trkpt lat="45.96219" lon="4.75184">
        <ele>193</ele>
        <time>2018-02-09T11:43:34Z</time>
      </trkpt>
      <trkpt lat="45.96212" lon="4.75178">
        <ele>193</ele>
        <time>2018-02-09T11:43:36Z</time>
      </trkpt>
      <trkpt lat="45.96209" lon="4.75173">
        <ele>193</ele>
        <time>2018-02-09T11:43:37Z</time>
      </trkpt>
      <trkpt lat="45.96205" lon="4.75169">
        <ele>194</ele>
        <time>2018-02-09T11:43:38Z</time>
      </trkpt>
      <trkpt lat="45.962" lon="4.75165">
        <ele>186</ele>
        <time>2018-02-09T11:43:39Z</time>
      </trkpt>
      <trkpt lat="45.96195" lon="4.75162">
        <ele>186</ele>
        <time>2018-02-09T11:43:40Z</time>
      </trkpt>
      <trkpt lat="45.9619" lon="4.75158">
        <ele>187</ele>
        <time>2018-02-09T11:43:41Z</time>
      </trkpt>
      <trkpt lat="45.96185" lon="4.75156">
        <ele>188</ele>
        <time>2018-02-09T11:43:42Z</time>
      </trkpt>
      <trkpt lat="45.96181" lon="4.75155">
        <ele>188</ele>
        <time>2018-02-09T11:43:43Z</time>
      </trkpt>
      <trkpt lat="45.96177" lon="4.75151">
        <ele>188</ele>
        <time>2018-02-09T11:43:44Z</time>
      </trkpt>
      <trkpt lat="45.96174" lon="4.75146">
        <ele>188</ele>
        <time>2018-02-09T11:43:45Z</time>
      </trkpt>
      <trkpt lat="45.96169" lon="4.75138">
        <ele>186</ele>
        <time>2018-02-09T11:43:47Z</time>
      </trkpt>
      <trkpt lat="45.96166" lon="4.75135">
        <ele>191</ele>
        <time>2018-02-09T11:43:48Z</time>
      </trkpt>
      <trkpt lat="45.9616" lon="4.75131">
        <ele>190</ele>
        <time>2018-02-09T11:43:49Z</time>
      </trkpt>
      <trkpt lat="45.96156" lon="4.75127">
        <ele>190</ele>
        <time>2018-02-09T11:43:50Z</time>
      </trkpt>
      <trkpt lat="45.9615" lon="4.7512">
        <ele>189</ele>
        <time>2018-02-09T11:43:52Z</time>
      </trkpt>
      <trkpt lat="45.96146" lon="4.75116">
        <ele>189</ele>
        <time>2018-02-09T11:43:53Z</time>
      </trkpt>
      <trkpt lat="45.9614" lon="4.75107">
        <ele>188</ele>
        <time>2018-02-09T11:43:55Z</time>
      </trkpt>
      <trkpt lat="45.96137" lon="4.75104">
        <ele>188</ele>
        <time>2018-02-09T11:43:56Z</time>
      </trkpt>
      <trkpt lat="45.96132" lon="4.75096">
        <ele>188</ele>
        <time>2018-02-09T11:43:58Z</time>
      </trkpt>
      <trkpt lat="45.96129" lon="4.75094">
        <ele>188</ele>
        <time>2018-02-09T11:43:59Z</time>
      </trkpt>
      <trkpt lat="45.96125" lon="4.75086">
        <ele>188</ele>
        <time>2018-02-09T11:44:01Z</time>
      </trkpt>
      <trkpt lat="45.96122" lon="4.75082">
        <ele>182</ele>
        <time>2018-02-09T11:44:02Z</time>
      </trkpt>
      <trkpt lat="45.96117" lon="4.75075">
        <ele>183</ele>
        <time>2018-02-09T11:44:04Z</time>
      </trkpt>
      <trkpt lat="45.96114" lon="4.75072">
        <ele>183</ele>
        <time>2018-02-09T11:44:05Z</time>
      </trkpt>
      <trkpt lat="45.96107" lon="4.75066">
        <ele>183</ele>
        <time>2018-02-09T11:44:07Z</time>
      </trkpt>
      <trkpt lat="45.96103" lon="4.75063">
        <ele>184</ele>
        <time>2018-02-09T11:44:08Z</time>
      </trkpt>
      <trkpt lat="45.96098" lon="4.75061">
        <ele>184</ele>
        <time>2018-02-09T11:44:09Z</time>
      </trkpt>
      <trkpt lat="45.96093" lon="4.75058">
        <ele>184</ele>
        <time>2018-02-09T11:44:10Z</time>
      </trkpt>
      <trkpt lat="45.96088" lon="4.75056">
        <ele>184</ele>
        <time>2018-02-09T11:44:11Z</time>
      </trkpt>
      <trkpt lat="45.9608" lon="4.75055">
        <ele>189</ele>
        <time>2018-02-09T11:44:12Z</time>
      </trkpt>
      <trkpt lat="45.96072" lon="4.75051">
        <ele>188</ele>
        <time>2018-02-09T11:44:14Z</time>
      </trkpt>
      <trkpt lat="45.96068" lon="4.75049">
        <ele>188</ele>
        <time>2018-02-09T11:44:15Z</time>
      </trkpt>
      <trkpt lat="45.96063" lon="4.75049">
        <ele>188</ele>
        <time>2018-02-09T11:44:16Z</time>
      </trkpt>
      <trkpt lat="45.96059" lon="4.75048">
        <ele>188</ele>
        <time>2018-02-09T11:44:17Z</time>
      </trkpt>
      <trkpt lat="45.96053" lon="4.75047">
        <ele>188</ele>
        <time>2018-02-09T11:44:18Z</time>
      </trkpt>
      <trkpt lat="45.96049" lon="4.75046">
        <ele>189</ele>
        <time>2018-02-09T11:44:19Z</time>
      </trkpt>
      <trkpt lat="45.96044" lon="4.75047">
        <ele>189</ele>
        <time>2018-02-09T11:44:20Z</time>
      </trkpt>
      <trkpt lat="45.96039" lon="4.75048">
        <ele>189</ele>
        <time>2018-02-09T11:44:21Z</time>
      </trkpt>
      <trkpt lat="45.9603" lon="4.75049">
        <ele>189</ele>
        <time>2018-02-09T11:44:23Z</time>
      </trkpt>
      <trkpt lat="45.96028" lon="4.7505">
        <ele>189</ele>
        <time>2018-02-09T11:44:24Z</time>
      </trkpt>
      <trkpt lat="45.9602" lon="4.75052">
        <ele>190</ele>
        <time>2018-02-09T11:44:26Z</time>
      </trkpt>
      <trkpt lat="45.96015" lon="4.75053">
        <ele>190</ele>
        <time>2018-02-09T11:44:27Z</time>
      </trkpt>
      <trkpt lat="45.96007" lon="4.75056">
        <ele>191</ele>
        <time>2018-02-09T11:44:29Z</time>
      </trkpt>
      <trkpt lat="45.96003" lon="4.75058">
        <ele>191</ele>
        <time>2018-02-09T11:44:30Z</time>
      </trkpt>
      <trkpt lat="45.95995" lon="4.7506">
        <ele>191</ele>
        <time>2018-02-09T11:44:32Z</time>
      </trkpt>
      <trkpt lat="45.95991" lon="4.75061">
        <ele>191</ele>
        <time>2018-02-09T11:44:33Z</time>
      </trkpt>
      <trkpt lat="45.95983" lon="4.75064">
        <ele>191</ele>
        <time>2018-02-09T11:44:35Z</time>
      </trkpt>
      <trkpt lat="45.95979" lon="4.75066">
        <ele>191</ele>
        <time>2018-02-09T11:44:36Z</time>
      </trkpt>
      <trkpt lat="45.95972" lon="4.75069">
        <ele>191</ele>
        <time>2018-02-09T11:44:38Z</time>
      </trkpt>
      <trkpt lat="45.95968" lon="4.7507">
        <ele>191</ele>
        <time>2018-02-09T11:44:39Z</time>
      </trkpt>
      <trkpt lat="45.95961" lon="4.75074">
        <ele>191</ele>
        <time>2018-02-09T11:44:41Z</time>
      </trkpt>
      <trkpt lat="45.95957" lon="4.75076">
        <ele>190</ele>
        <time>2018-02-09T11:44:42Z</time>
      </trkpt>
      <trkpt lat="45.95949" lon="4.75079">
        <ele>190</ele>
        <time>2018-02-09T11:44:44Z</time>
      </trkpt>
      <trkpt lat="45.95945" lon="4.7508">
        <ele>190</ele>
        <time>2018-02-09T11:44:45Z</time>
      </trkpt>
      <trkpt lat="45.95937" lon="4.75082">
        <ele>190</ele>
        <time>2018-02-09T11:44:47Z</time>
      </trkpt>
      <trkpt lat="45.95933" lon="4.75084">
        <ele>192</ele>
        <time>2018-02-09T11:44:48Z</time>
      </trkpt>
      <trkpt lat="45.95925" lon="4.75088">
        <ele>191</ele>
        <time>2018-02-09T11:44:50Z</time>
      </trkpt>
      <trkpt lat="45.95921" lon="4.7509">
        <ele>191</ele>
        <time>2018-02-09T11:44:51Z</time>
      </trkpt>
      <trkpt lat="45.95914" lon="4.75093">
        <ele>190</ele>
        <time>2018-02-09T11:44:53Z</time>
      </trkpt>
      <trkpt lat="45.9591" lon="4.75094">
        <ele>190</ele>
        <time>2018-02-09T11:44:54Z</time>
      </trkpt>
      <trkpt lat="45.95903" lon="4.75097">
        <ele>190</ele>
        <time>2018-02-09T11:44:56Z</time>
      </trkpt>
      <trkpt lat="45.959" lon="4.75098">
        <ele>190</ele>
        <time>2018-02-09T11:44:57Z</time>
      </trkpt>
      <trkpt lat="45.95893" lon="4.75101">
        <ele>190</ele>
        <time>2018-02-09T11:44:59Z</time>
      </trkpt>
      <trkpt lat="45.9589" lon="4.75103">
        <ele>190</ele>
        <time>2018-02-09T11:45:00Z</time>
      </trkpt>
      <trkpt lat="45.95885" lon="4.75107">
        <ele>190</ele>
        <time>2018-02-09T11:45:02Z</time>
      </trkpt>
      <trkpt lat="45.95882" lon="4.7511">
        <ele>190</ele>
        <time>2018-02-09T11:45:03Z</time>
      </trkpt>
      <trkpt lat="45.95876" lon="4.75116">
        <ele>191</ele>
        <time>2018-02-09T11:45:05Z</time>
      </trkpt>
      <trkpt lat="45.95873" lon="4.75119">
        <ele>191</ele>
        <time>2018-02-09T11:45:06Z</time>
      </trkpt>
      <trkpt lat="45.95867" lon="4.75124">
        <ele>191</ele>
        <time>2018-02-09T11:45:08Z</time>
      </trkpt>
      <trkpt lat="45.95865" lon="4.75127">
        <ele>191</ele>
        <time>2018-02-09T11:45:09Z</time>
      </trkpt>
      <trkpt lat="45.95859" lon="4.75134">
        <ele>191</ele>
        <time>2018-02-09T11:45:11Z</time>
      </trkpt>
      <trkpt lat="45.95856" lon="4.75137">
        <ele>191</ele>
        <time>2018-02-09T11:45:12Z</time>
      </trkpt>
      <trkpt lat="45.9585" lon="4.75145">
        <ele>191</ele>
        <time>2018-02-09T11:45:14Z</time>
      </trkpt>
      <trkpt lat="45.95847" lon="4.75148">
        <ele>191</ele>
        <time>2018-02-09T11:45:15Z</time>
      </trkpt>
      <trkpt lat="45.95842" lon="4.75157">
        <ele>191</ele>
        <time>2018-02-09T11:45:17Z</time>
      </trkpt>
      <trkpt lat="45.95839" lon="4.75161">
        <ele>192</ele>
        <time>2018-02-09T11:45:18Z</time>
      </trkpt>
      <trkpt lat="45.95833" lon="4.75169">
        <ele>192</ele>
        <time>2018-02-09T11:45:20Z</time>
      </trkpt>
      <trkpt lat="45.9583" lon="4.75173">
        <ele>192</ele>
        <time>2018-02-09T11:45:21Z</time>
      </trkpt>
      <trkpt lat="45.95824" lon="4.75183">
        <ele>192</ele>
        <time>2018-02-09T11:45:23Z</time>
      </trkpt>
      <trkpt lat="45.95822" lon="4.75187">
        <ele>192</ele>
        <time>2018-02-09T11:45:24Z</time>
      </trkpt>
      <trkpt lat="45.95816" lon="4.75197">
        <ele>193</ele>
        <time>2018-02-09T11:45:26Z</time>
      </trkpt>
      <trkpt lat="45.95813" lon="4.75201">
        <ele>193</ele>
        <time>2018-02-09T11:45:27Z</time>
      </trkpt>
      <trkpt lat="45.9581" lon="4.75206">
        <ele>193</ele>
        <time>2018-02-09T11:45:28Z</time>
      </trkpt>
      <trkpt lat="45.95807" lon="4.75211">
        <ele>193</ele>
        <time>2018-02-09T11:45:29Z</time>
      </trkpt>
      <trkpt lat="45.95802" lon="4.75216">
        <ele>193</ele>
        <time>2018-02-09T11:45:30Z</time>
      </trkpt>
      <trkpt lat="45.95798" lon="4.7522">
        <ele>193</ele>
        <time>2018-02-09T11:45:31Z</time>
      </trkpt>
      <trkpt lat="45.95794" lon="4.75224">
        <ele>193</ele>
        <time>2018-02-09T11:45:32Z</time>
      </trkpt>
      <trkpt lat="45.95791" lon="4.75229">
        <ele>193</ele>
        <time>2018-02-09T11:45:33Z</time>
      </trkpt>
      <trkpt lat="45.95785" lon="4.75237">
        <ele>193</ele>
        <time>2018-02-09T11:45:35Z</time>
      </trkpt>
      <trkpt lat="45.95781" lon="4.75241">
        <ele>193</ele>
        <time>2018-02-09T11:45:36Z</time>
      </trkpt>
      <trkpt lat="45.95778" lon="4.75245">
        <ele>193</ele>
        <time>2018-02-09T11:45:37Z</time>
      </trkpt>
      <trkpt lat="45.95774" lon="4.75249">
        <ele>193</ele>
        <time>2018-02-09T11:45:38Z</time>
      </trkpt>
      <trkpt lat="45.95771" lon="4.75254">
        <ele>193</ele>
        <time>2018-02-09T11:45:39Z</time>
      </trkpt>
      <trkpt lat="45.95767" lon="4.75259">
        <ele>193</ele>
        <time>2018-02-09T11:45:40Z</time>
      </trkpt>
      <trkpt lat="45.95763" lon="4.75263">
        <ele>193</ele>
        <time>2018-02-09T11:45:41Z</time>
      </trkpt>
      <trkpt lat="45.9576" lon="4.75267">
        <ele>193</ele>
        <time>2018-02-09T11:45:42Z</time>
      </trkpt>
      <trkpt lat="45.95756" lon="4.75272">
        <ele>193</ele>
        <time>2018-02-09T11:45:43Z</time>
      </trkpt>
      <trkpt lat="45.95753" lon="4.75275">
        <ele>193</ele>
        <time>2018-02-09T11:45:44Z</time>
      </trkpt>
      <trkpt lat="45.95749" lon="4.7528">
        <ele>193</ele>
        <time>2018-02-09T11:45:45Z</time>
      </trkpt>
      <trkpt lat="45.95745" lon="4.75284">
        <ele>193</ele>
        <time>2018-02-09T11:45:46Z</time>
      </trkpt>
      <trkpt lat="45.95739" lon="4.75292">
        <ele>193</ele>
        <time>2018-02-09T11:45:48Z</time>
      </trkpt>
      <trkpt lat="45.95736" lon="4.75296">
        <ele>193</ele>
        <time>2018-02-09T11:45:49Z</time>
      </trkpt>
      <trkpt lat="45.95732" lon="4.75301">
        <ele>193</ele>
        <time>2018-02-09T11:45:50Z</time>
      </trkpt>
      <trkpt lat="45.95726" lon="4.75307">
        <ele>193</ele>
        <time>2018-02-09T11:45:51Z</time>
      </trkpt>
      <trkpt lat="45.95722" lon="4.75312">
        <ele>193</ele>
        <time>2018-02-09T11:45:52Z</time>
      </trkpt>
      <trkpt lat="45.95718" lon="4.75317">
        <ele>193</ele>
        <time>2018-02-09T11:45:53Z</time>
      </trkpt>
      <trkpt lat="45.95714" lon="4.75321">
        <ele>193</ele>
        <time>2018-02-09T11:45:54Z</time>
      </trkpt>
      <trkpt lat="45.9571" lon="4.75324">
        <ele>193</ele>
        <time>2018-02-09T11:45:55Z</time>
      </trkpt>
      <trkpt lat="45.95706" lon="4.75328">
        <ele>193</ele>
        <time>2018-02-09T11:45:56Z</time>
      </trkpt>
      <trkpt lat="45.95702" lon="4.75332">
        <ele>193</ele>
        <time>2018-02-09T11:45:57Z</time>
      </trkpt>
      <trkpt lat="45.95697" lon="4.75336">
        <ele>193</ele>
        <time>2018-02-09T11:45:58Z</time>
      </trkpt>
      <trkpt lat="45.95692" lon="4.7534">
        <ele>193</ele>
        <time>2018-02-09T11:45:59Z</time>
      </trkpt>
      <trkpt lat="45.95688" lon="4.75345">
        <ele>193</ele>
        <time>2018-02-09T11:46:00Z</time>
      </trkpt>
      <trkpt lat="45.95683" lon="4.75349">
        <ele>193</ele>
        <time>2018-02-09T11:46:01Z</time>
      </trkpt>
      <trkpt lat="45.95678" lon="4.75354">
        <ele>193</ele>
        <time>2018-02-09T11:46:02Z</time>
      </trkpt>
      <trkpt lat="45.95674" lon="4.75359">
        <ele>193</ele>
        <time>2018-02-09T11:46:03Z</time>
      </trkpt>
      <trkpt lat="45.95668" lon="4.75363">
        <ele>193</ele>
        <time>2018-02-09T11:46:04Z</time>
      </trkpt>
      <trkpt lat="45.95663" lon="4.75367">
        <ele>193</ele>
        <time>2018-02-09T11:46:05Z</time>
      </trkpt>
      <trkpt lat="45.95658" lon="4.75372">
        <ele>193</ele>
        <time>2018-02-09T11:46:06Z</time>
      </trkpt>
      <trkpt lat="45.95652" lon="4.75377">
        <ele>193</ele>
        <time>2018-02-09T11:46:07Z</time>
      </trkpt>
      <trkpt lat="45.95647" lon="4.75382">
        <ele>193</ele>
        <time>2018-02-09T11:46:08Z</time>
      </trkpt>
      <trkpt lat="45.95642" lon="4.75387">
        <ele>193</ele>
        <time>2018-02-09T11:46:09Z</time>
      </trkpt>
      <trkpt lat="45.95636" lon="4.75391">
        <ele>193</ele>
        <time>2018-02-09T11:46:10Z</time>
      </trkpt>
      <trkpt lat="45.9563" lon="4.75395">
        <ele>193</ele>
        <time>2018-02-09T11:46:11Z</time>
      </trkpt>
      <trkpt lat="45.95625" lon="4.75399">
        <ele>193</ele>
        <time>2018-02-09T11:46:12Z</time>
      </trkpt>
      <trkpt lat="45.95618" lon="4.75403">
        <ele>193</ele>
        <time>2018-02-09T11:46:13Z</time>
      </trkpt>
      <trkpt lat="45.95612" lon="4.75407">
        <ele>193</ele>
        <time>2018-02-09T11:46:14Z</time>
      </trkpt>
      <trkpt lat="45.95606" lon="4.75411">
        <ele>193</ele>
        <time>2018-02-09T11:46:15Z</time>
      </trkpt>
      <trkpt lat="45.95599" lon="4.75415">
        <ele>192</ele>
        <time>2018-02-09T11:46:16Z</time>
      </trkpt>
      <trkpt lat="45.95593" lon="4.75419">
        <ele>192</ele>
        <time>2018-02-09T11:46:17Z</time>
      </trkpt>
      <trkpt lat="45.95586" lon="4.75424">
        <ele>192</ele>
        <time>2018-02-09T11:46:18Z</time>
      </trkpt>
      <trkpt lat="45.9558" lon="4.75428">
        <ele>190</ele>
        <time>2018-02-09T11:46:19Z</time>
      </trkpt>
      <trkpt lat="45.95574" lon="4.75431">
        <ele>190</ele>
        <time>2018-02-09T11:46:20Z</time>
      </trkpt>
      <trkpt lat="45.95568" lon="4.75435">
        <ele>189</ele>
        <time>2018-02-09T11:46:21Z</time>
      </trkpt>
      <trkpt lat="45.95561" lon="4.75438">
        <ele>189</ele>
        <time>2018-02-09T11:46:22Z</time>
      </trkpt>
      <trkpt lat="45.95554" lon="4.75442">
        <ele>188</ele>
        <time>2018-02-09T11:46:23Z</time>
      </trkpt>
      <trkpt lat="45.95548" lon="4.75445">
        <ele>188</ele>
        <time>2018-02-09T11:46:24Z</time>
      </trkpt>
      <trkpt lat="45.95539" lon="4.75446">
        <ele>188</ele>
        <time>2018-02-09T11:46:25Z</time>
      </trkpt>
      <trkpt lat="45.95531" lon="4.75448">
        <ele>187</ele>
        <time>2018-02-09T11:46:26Z</time>
      </trkpt>
      <trkpt lat="45.95526" lon="4.75443">
        <ele>187</ele>
        <time>2018-02-09T11:46:27Z</time>
      </trkpt>
      <trkpt lat="45.95519" lon="4.75438">
        <ele>187</ele>
        <time>2018-02-09T11:46:28Z</time>
      </trkpt>
      <trkpt lat="45.95516" lon="4.75431">
        <ele>186</ele>
        <time>2018-02-09T11:46:29Z</time>
      </trkpt>
      <trkpt lat="45.95512" lon="4.75424">
        <ele>186</ele>
        <time>2018-02-09T11:46:30Z</time>
      </trkpt>
      <trkpt lat="45.9551" lon="4.75417">
        <ele>186</ele>
        <time>2018-02-09T11:46:31Z</time>
      </trkpt>
      <trkpt lat="45.95508" lon="4.7541">
        <ele>187</ele>
        <time>2018-02-09T11:46:32Z</time>
      </trkpt>
      <trkpt lat="45.95506" lon="4.75402">
        <ele>187</ele>
        <time>2018-02-09T11:46:33Z</time>
      </trkpt>
      <trkpt lat="45.95503" lon="4.75396">
        <ele>188</ele>
        <time>2018-02-09T11:46:34Z</time>
      </trkpt>
      <trkpt lat="45.95499" lon="4.7539">
        <ele>185</ele>
        <time>2018-02-09T11:46:35Z</time>
      </trkpt>
      <trkpt lat="45.95496" lon="4.75383">
        <ele>185</ele>
        <time>2018-02-09T11:46:36Z</time>
      </trkpt>
      <trkpt lat="45.95494" lon="4.75376">
        <ele>185</ele>
        <time>2018-02-09T11:46:37Z</time>
      </trkpt>
      <trkpt lat="45.95492" lon="4.7537">
        <ele>186</ele>
        <time>2018-02-09T11:46:38Z</time>
      </trkpt>
      <trkpt lat="45.95485" lon="4.75364">
        <ele>186</ele>
        <time>2018-02-09T11:46:39Z</time>
      </trkpt>
      <trkpt lat="45.95482" lon="4.75359">
        <ele>186</ele>
        <time>2018-02-09T11:46:40Z</time>
      </trkpt>
      <trkpt lat="45.9548" lon="4.75353">
        <ele>186</ele>
        <time>2018-02-09T11:46:41Z</time>
      </trkpt>
      <trkpt lat="45.95478" lon="4.75347">
        <ele>186</ele>
        <time>2018-02-09T11:46:42Z</time>
      </trkpt>
      <trkpt lat="45.95474" lon="4.7534">
        <ele>186</ele>
        <time>2018-02-09T11:46:43Z</time>
      </trkpt>
      <trkpt lat="45.95472" lon="4.75334">
        <ele>186</ele>
        <time>2018-02-09T11:46:44Z</time>
      </trkpt>
      <trkpt lat="45.95469" lon="4.75328">
        <ele>188</ele>
        <time>2018-02-09T11:46:45Z</time>
      </trkpt>
      <trkpt lat="45.95467" lon="4.75323">
        <ele>188</ele>
        <time>2018-02-09T11:46:46Z</time>
      </trkpt>
      <trkpt lat="45.95464" lon="4.75317">
        <ele>188</ele>
        <time>2018-02-09T11:46:47Z</time>
      </trkpt>
      <trkpt lat="45.95459" lon="4.75308">
        <ele>188</ele>
        <time>2018-02-09T11:46:49Z</time>
      </trkpt>
      <trkpt lat="45.95456" lon="4.75302">
        <ele>188</ele>
        <time>2018-02-09T11:46:50Z</time>
      </trkpt>
      <trkpt lat="45.95451" lon="4.75292">
        <ele>188</ele>
        <time>2018-02-09T11:46:52Z</time>
      </trkpt>
      <trkpt lat="45.95449" lon="4.75286">
        <ele>188</ele>
        <time>2018-02-09T11:46:53Z</time>
      </trkpt>
      <trkpt lat="45.95445" lon="4.7528">
        <ele>188</ele>
        <time>2018-02-09T11:46:54Z</time>
      </trkpt>
      <trkpt lat="45.95443" lon="4.75276">
        <ele>189</ele>
        <time>2018-02-09T11:46:55Z</time>
      </trkpt>
      <trkpt lat="45.9544" lon="4.75271">
        <ele>189</ele>
        <time>2018-02-09T11:46:56Z</time>
      </trkpt>
      <trkpt lat="45.95437" lon="4.75265">
        <ele>189</ele>
        <time>2018-02-09T11:46:57Z</time>
      </trkpt>
      <trkpt lat="45.95432" lon="4.75256">
        <ele>189</ele>
        <time>2018-02-09T11:46:59Z</time>
      </trkpt>
      <trkpt lat="45.95428" lon="4.75252">
        <ele>189</ele>
        <time>2018-02-09T11:47:00Z</time>
      </trkpt>
      <trkpt lat="45.95426" lon="4.75246">
        <ele>190</ele>
        <time>2018-02-09T11:47:01Z</time>
      </trkpt>
      <trkpt lat="45.95424" lon="4.75241">
        <ele>190</ele>
        <time>2018-02-09T11:47:02Z</time>
      </trkpt>
      <trkpt lat="45.95419" lon="4.75239">
        <ele>190</ele>
        <time>2018-02-09T11:47:03Z</time>
      </trkpt>
      <trkpt lat="45.95417" lon="4.75232">
        <ele>190</ele>
        <time>2018-02-09T11:47:04Z</time>
      </trkpt>
      <trkpt lat="45.95412" lon="4.75224">
        <ele>189</ele>
        <time>2018-02-09T11:47:06Z</time>
      </trkpt>
      <trkpt lat="45.9541" lon="4.75219">
        <ele>189</ele>
        <time>2018-02-09T11:47:07Z</time>
      </trkpt>
      <trkpt lat="45.95407" lon="4.75214">
        <ele>189</ele>
        <time>2018-02-09T11:47:08Z</time>
      </trkpt>
      <trkpt lat="45.95404" lon="4.75206">
        <ele>189</ele>
        <time>2018-02-09T11:47:09Z</time>
      </trkpt>
      <trkpt lat="45.95401" lon="4.75201">
        <ele>189</ele>
        <time>2018-02-09T11:47:10Z</time>
      </trkpt>
      <trkpt lat="45.95398" lon="4.75195">
        <ele>189</ele>
        <time>2018-02-09T11:47:11Z</time>
      </trkpt>
      <trkpt lat="45.95396" lon="4.75189">
        <ele>189</ele>
        <time>2018-02-09T11:47:12Z</time>
      </trkpt>
      <trkpt lat="45.95393" lon="4.75183">
        <ele>189</ele>
        <time>2018-02-09T11:47:13Z</time>
      </trkpt>
      <trkpt lat="45.9539" lon="4.75178">
        <ele>189</ele>
        <time>2018-02-09T11:47:14Z</time>
      </trkpt>
      <trkpt lat="45.95387" lon="4.75173">
        <ele>189</ele>
        <time>2018-02-09T11:47:15Z</time>
      </trkpt>
      <trkpt lat="45.95381" lon="4.75168">
        <ele>189</ele>
        <time>2018-02-09T11:47:16Z</time>
      </trkpt>
      <trkpt lat="45.95378" lon="4.75164">
        <ele>191</ele>
        <time>2018-02-09T11:47:17Z</time>
      </trkpt>
      <trkpt lat="45.95375" lon="4.75159">
        <ele>191</ele>
        <time>2018-02-09T11:47:18Z</time>
      </trkpt>
      <trkpt lat="45.95372" lon="4.75153">
        <ele>191</ele>
        <time>2018-02-09T11:47:19Z</time>
      </trkpt>
      <trkpt lat="45.95369" lon="4.75143">
        <ele>191</ele>
        <time>2018-02-09T11:47:21Z</time>
      </trkpt>
      <trkpt lat="45.95366" lon="4.75138">
        <ele>191</ele>
        <time>2018-02-09T11:47:22Z</time>
      </trkpt>
      <trkpt lat="45.95361" lon="4.75128">
        <ele>191</ele>
        <time>2018-02-09T11:47:24Z</time>
      </trkpt>
      <trkpt lat="45.95358" lon="4.75125">
        <ele>191</ele>
        <time>2018-02-09T11:47:25Z</time>
      </trkpt>
      <trkpt lat="45.95354" lon="4.75119">
        <ele>191</ele>
        <time>2018-02-09T11:47:26Z</time>
      </trkpt>
      <trkpt lat="45.95351" lon="4.75113">
        <ele>192</ele>
        <time>2018-02-09T11:47:27Z</time>
      </trkpt>
      <trkpt lat="45.95347" lon="4.75107">
        <ele>192</ele>
        <time>2018-02-09T11:47:28Z</time>
      </trkpt>
      <trkpt lat="45.95343" lon="4.75102">
        <ele>192</ele>
        <time>2018-02-09T11:47:29Z</time>
      </trkpt>
      <trkpt lat="45.9534" lon="4.75096">
        <ele>192</ele>
        <time>2018-02-09T11:47:30Z</time>
      </trkpt>
      <trkpt lat="45.95336" lon="4.7509">
        <ele>193</ele>
        <time>2018-02-09T11:47:31Z</time>
      </trkpt>
      <trkpt lat="45.95334" lon="4.75084">
        <ele>193</ele>
        <time>2018-02-09T11:47:32Z</time>
      </trkpt>
      <trkpt lat="45.95331" lon="4.75079">
        <ele>193</ele>
        <time>2018-02-09T11:47:33Z</time>
      </trkpt>
      <trkpt lat="45.95328" lon="4.75074">
        <ele>192</ele>
        <time>2018-02-09T11:47:34Z</time>
      </trkpt>
      <trkpt lat="45.95324" lon="4.75069">
        <ele>192</ele>
        <time>2018-02-09T11:47:35Z</time>
      </trkpt>
      <trkpt lat="45.9532" lon="4.75064">
        <ele>192</ele>
        <time>2018-02-09T11:47:36Z</time>
      </trkpt>
      <trkpt lat="45.95317" lon="4.75058">
        <ele>192</ele>
        <time>2018-02-09T11:47:37Z</time>
      </trkpt>
      <trkpt lat="45.95312" lon="4.75053">
        <ele>192</ele>
        <time>2018-02-09T11:47:38Z</time>
      </trkpt>
      <trkpt lat="45.95309" lon="4.75048">
        <ele>192</ele>
        <time>2018-02-09T11:47:39Z</time>
      </trkpt>
      <trkpt lat="45.95303" lon="4.75038">
        <ele>192</ele>
        <time>2018-02-09T11:47:41Z</time>
      </trkpt>
      <trkpt lat="45.953" lon="4.75033">
        <ele>191</ele>
        <time>2018-02-09T11:47:42Z</time>
      </trkpt>
      <trkpt lat="45.95296" lon="4.75024">
        <ele>191</ele>
        <time>2018-02-09T11:47:44Z</time>
      </trkpt>
      <trkpt lat="45.95292" lon="4.75019">
        <ele>191</ele>
        <time>2018-02-09T11:47:45Z</time>
      </trkpt>
      <trkpt lat="45.95289" lon="4.75015">
        <ele>191</ele>
        <time>2018-02-09T11:47:46Z</time>
      </trkpt>
      <trkpt lat="45.95286" lon="4.7501">
        <ele>191</ele>
        <time>2018-02-09T11:47:47Z</time>
      </trkpt>
      <trkpt lat="45.95282" lon="4.75005">
        <ele>191</ele>
        <time>2018-02-09T11:47:48Z</time>
      </trkpt>
      <trkpt lat="45.95279" lon="4.75">
        <ele>191</ele>
        <time>2018-02-09T11:47:49Z</time>
      </trkpt>
      <trkpt lat="45.95273" lon="4.74991">
        <ele>192</ele>
        <time>2018-02-09T11:47:51Z</time>
      </trkpt>
      <trkpt lat="45.9527" lon="4.74987">
        <ele>192</ele>
        <time>2018-02-09T11:47:52Z</time>
      </trkpt>
      <trkpt lat="45.95266" lon="4.74981">
        <ele>192</ele>
        <time>2018-02-09T11:47:53Z</time>
      </trkpt>
      <trkpt lat="45.95263" lon="4.74975">
        <ele>192</ele>
        <time>2018-02-09T11:47:54Z</time>
      </trkpt>
      <trkpt lat="45.95259" lon="4.7497">
        <ele>192</ele>
        <time>2018-02-09T11:47:55Z</time>
      </trkpt>
      <trkpt lat="45.95255" lon="4.74964">
        <ele>192</ele>
        <time>2018-02-09T11:47:56Z</time>
      </trkpt>
      <trkpt lat="45.95252" lon="4.74958">
        <ele>192</ele>
        <time>2018-02-09T11:47:57Z</time>
      </trkpt>
      <trkpt lat="45.95248" lon="4.74953">
        <ele>192</ele>
        <time>2018-02-09T11:47:58Z</time>
      </trkpt>
      <trkpt lat="45.95244" lon="4.74946">
        <ele>192</ele>
        <time>2018-02-09T11:47:59Z</time>
      </trkpt>
      <trkpt lat="45.9524" lon="4.7494">
        <ele>192</ele>
        <time>2018-02-09T11:48:00Z</time>
      </trkpt>
      <trkpt lat="45.95236" lon="4.74935">
        <ele>192</ele>
        <time>2018-02-09T11:48:01Z</time>
      </trkpt>
      <trkpt lat="45.95232" lon="4.74929">
        <ele>192</ele>
        <time>2018-02-09T11:48:02Z</time>
      </trkpt>
      <trkpt lat="45.95228" lon="4.74923">
        <ele>192</ele>
        <time>2018-02-09T11:48:03Z</time>
      </trkpt>
      <trkpt lat="45.95224" lon="4.74917">
        <ele>192</ele>
        <time>2018-02-09T11:48:04Z</time>
      </trkpt>
      <trkpt lat="45.95221" lon="4.74912">
        <ele>193</ele>
        <time>2018-02-09T11:48:05Z</time>
      </trkpt>
      <trkpt lat="45.95217" lon="4.74906">
        <ele>193</ele>
        <time>2018-02-09T11:48:06Z</time>
      </trkpt>
      <trkpt lat="45.95214" lon="4.74901">
        <ele>193</ele>
        <time>2018-02-09T11:48:07Z</time>
      </trkpt>
      <trkpt lat="45.95209" lon="4.74895">
        <ele>193</ele>
        <time>2018-02-09T11:48:08Z</time>
      </trkpt>
      <trkpt lat="45.95205" lon="4.74889">
        <ele>194</ele>
        <time>2018-02-09T11:48:09Z</time>
      </trkpt>
      <trkpt lat="45.95199" lon="4.74884">
        <ele>194</ele>
        <time>2018-02-09T11:48:10Z</time>
      </trkpt>
      <trkpt lat="45.95195" lon="4.74879">
        <ele>194</ele>
        <time>2018-02-09T11:48:11Z</time>
      </trkpt>
      <trkpt lat="45.95191" lon="4.74874">
        <ele>194</ele>
        <time>2018-02-09T11:48:12Z</time>
      </trkpt>
      <trkpt lat="45.95188" lon="4.74868">
        <ele>194</ele>
        <time>2018-02-09T11:48:13Z</time>
      </trkpt>
      <trkpt lat="45.95185" lon="4.74861">
        <ele>194</ele>
        <time>2018-02-09T11:48:14Z</time>
      </trkpt>
      <trkpt lat="45.95181" lon="4.74856">
        <ele>194</ele>
        <time>2018-02-09T11:48:15Z</time>
      </trkpt>
      <trkpt lat="45.95177" lon="4.74851">
        <ele>194</ele>
        <time>2018-02-09T11:48:16Z</time>
      </trkpt>
      <trkpt lat="45.95174" lon="4.74845">
        <ele>194</ele>
        <time>2018-02-09T11:48:17Z</time>
      </trkpt>
      <trkpt lat="45.95169" lon="4.74838">
        <ele>194</ele>
        <time>2018-02-09T11:48:18Z</time>
      </trkpt>
      <trkpt lat="45.95165" lon="4.74832">
        <ele>194</ele>
        <time>2018-02-09T11:48:19Z</time>
      </trkpt>
      <trkpt lat="45.95163" lon="4.74826">
        <ele>194</ele>
        <time>2018-02-09T11:48:20Z</time>
      </trkpt>
      <trkpt lat="45.95159" lon="4.7482">
        <ele>194</ele>
        <time>2018-02-09T11:48:21Z</time>
      </trkpt>
      <trkpt lat="45.95156" lon="4.74813">
        <ele>194</ele>
        <time>2018-02-09T11:48:22Z</time>
      </trkpt>
      <trkpt lat="45.95152" lon="4.74807">
        <ele>194</ele>
        <time>2018-02-09T11:48:23Z</time>
      </trkpt>
      <trkpt lat="45.95148" lon="4.74801">
        <ele>194</ele>
        <time>2018-02-09T11:48:24Z</time>
      </trkpt>
      <trkpt lat="45.95145" lon="4.74794">
        <ele>194</ele>
        <time>2018-02-09T11:48:25Z</time>
      </trkpt>
      <trkpt lat="45.95142" lon="4.74788">
        <ele>194</ele>
        <time>2018-02-09T11:48:26Z</time>
      </trkpt>
      <trkpt lat="45.95139" lon="4.74783">
        <ele>194</ele>
        <time>2018-02-09T11:48:27Z</time>
      </trkpt>
      <trkpt lat="45.95135" lon="4.74777">
        <ele>194</ele>
        <time>2018-02-09T11:48:28Z</time>
      </trkpt>
      <trkpt lat="45.95132" lon="4.74771">
        <ele>194</ele>
        <time>2018-02-09T11:48:29Z</time>
      </trkpt>
      <trkpt lat="45.95128" lon="4.74765">
        <ele>194</ele>
        <time>2018-02-09T11:48:30Z</time>
      </trkpt>
      <trkpt lat="45.95125" lon="4.7476">
        <ele>194</ele>
        <time>2018-02-09T11:48:31Z</time>
      </trkpt>
      <trkpt lat="45.95121" lon="4.74754">
        <ele>194</ele>
        <time>2018-02-09T11:48:32Z</time>
      </trkpt>
      <trkpt lat="45.95117" lon="4.74748">
        <ele>194</ele>
        <time>2018-02-09T11:48:33Z</time>
      </trkpt>
      <trkpt lat="45.95113" lon="4.74743">
        <ele>194</ele>
        <time>2018-02-09T11:48:34Z</time>
      </trkpt>
      <trkpt lat="45.9511" lon="4.74737">
        <ele>194</ele>
        <time>2018-02-09T11:48:35Z</time>
      </trkpt>
      <trkpt lat="45.95107" lon="4.74731">
        <ele>194</ele>
        <time>2018-02-09T11:48:36Z</time>
      </trkpt>
      <trkpt lat="45.95104" lon="4.74724">
        <ele>194</ele>
        <time>2018-02-09T11:48:37Z</time>
      </trkpt>
      <trkpt lat="45.951" lon="4.74717">
        <ele>194</ele>
        <time>2018-02-09T11:48:38Z</time>
      </trkpt>
      <trkpt lat="45.95097" lon="4.74711">
        <ele>194</ele>
        <time>2018-02-09T11:48:39Z</time>
      </trkpt>
      <trkpt lat="45.95093" lon="4.74706">
        <ele>194</ele>
        <time>2018-02-09T11:48:40Z</time>
      </trkpt>
      <trkpt lat="45.95089" lon="4.747">
        <ele>194</ele>
        <time>2018-02-09T11:48:41Z</time>
      </trkpt>
      <trkpt lat="45.95085" lon="4.74694">
        <ele>194</ele>
        <time>2018-02-09T11:48:42Z</time>
      </trkpt>
      <trkpt lat="45.95081" lon="4.74689">
        <ele>194</ele>
        <time>2018-02-09T11:48:43Z</time>
      </trkpt>
      <trkpt lat="45.95077" lon="4.74684">
        <ele>194</ele>
        <time>2018-02-09T11:48:44Z</time>
      </trkpt>
      <trkpt lat="45.95073" lon="4.74678">
        <ele>194</ele>
        <time>2018-02-09T11:48:45Z</time>
      </trkpt>
      <trkpt lat="45.9507" lon="4.74672">
        <ele>194</ele>
        <time>2018-02-09T11:48:46Z</time>
      </trkpt>
      <trkpt lat="45.95066" lon="4.74665">
        <ele>195</ele>
        <time>2018-02-09T11:48:47Z</time>
      </trkpt>
      <trkpt lat="45.95064" lon="4.74658">
        <ele>195</ele>
        <time>2018-02-09T11:48:48Z</time>
      </trkpt>
      <trkpt lat="45.95061" lon="4.74652">
        <ele>194</ele>
        <time>2018-02-09T11:48:49Z</time>
      </trkpt>
      <trkpt lat="45.95057" lon="4.74645">
        <ele>194</ele>
        <time>2018-02-09T11:48:50Z</time>
      </trkpt>
      <trkpt lat="45.95054" lon="4.74639">
        <ele>194</ele>
        <time>2018-02-09T11:48:51Z</time>
      </trkpt>
      <trkpt lat="45.9505" lon="4.74632">
        <ele>194</ele>
        <time>2018-02-09T11:48:52Z</time>
      </trkpt>
      <trkpt lat="45.95046" lon="4.74625">
        <ele>194</ele>
        <time>2018-02-09T11:48:53Z</time>
      </trkpt>
      <trkpt lat="45.95043" lon="4.74618">
        <ele>194</ele>
        <time>2018-02-09T11:48:54Z</time>
      </trkpt>
      <trkpt lat="45.95039" lon="4.74612">
        <ele>194</ele>
        <time>2018-02-09T11:48:55Z</time>
      </trkpt>
      <trkpt lat="45.95035" lon="4.74605">
        <ele>194</ele>
        <time>2018-02-09T11:48:56Z</time>
      </trkpt>
      <trkpt lat="45.95031" lon="4.74598">
        <ele>194</ele>
        <time>2018-02-09T11:48:57Z</time>
      </trkpt>
      <trkpt lat="45.95028" lon="4.74592">
        <ele>194</ele>
        <time>2018-02-09T11:48:58Z</time>
      </trkpt>
      <trkpt lat="45.95025" lon="4.74585">
        <ele>194</ele>
        <time>2018-02-09T11:48:59Z</time>
      </trkpt>
      <trkpt lat="45.95021" lon="4.74578">
        <ele>194</ele>
        <time>2018-02-09T11:49:00Z</time>
      </trkpt>
      <trkpt lat="45.95017" lon="4.74571">
        <ele>194</ele>
        <time>2018-02-09T11:49:01Z</time>
      </trkpt>
      <trkpt lat="45.95013" lon="4.74564">
        <ele>194</ele>
        <time>2018-02-09T11:49:02Z</time>
      </trkpt>
      <trkpt lat="45.9501" lon="4.74557">
        <ele>194</ele>
        <time>2018-02-09T11:49:03Z</time>
      </trkpt>
      <trkpt lat="45.95006" lon="4.7455">
        <ele>194</ele>
        <time>2018-02-09T11:49:04Z</time>
      </trkpt>
      <trkpt lat="45.95002" lon="4.74541">
        <ele>194</ele>
        <time>2018-02-09T11:49:05Z</time>
      </trkpt>
      <trkpt lat="45.94998" lon="4.74534">
        <ele>193</ele>
        <time>2018-02-09T11:49:06Z</time>
      </trkpt>
      <trkpt lat="45.94993" lon="4.74526">
        <ele>193</ele>
        <time>2018-02-09T11:49:07Z</time>
      </trkpt>
      <trkpt lat="45.94989" lon="4.74519">
        <ele>193</ele>
        <time>2018-02-09T11:49:08Z</time>
      </trkpt>
      <trkpt lat="45.94986" lon="4.7451">
        <ele>193</ele>
        <time>2018-02-09T11:49:09Z</time>
      </trkpt>
      <trkpt lat="45.94982" lon="4.74503">
        <ele>193</ele>
        <time>2018-02-09T11:49:10Z</time>
      </trkpt>
      <trkpt lat="45.94978" lon="4.74495">
        <ele>193</ele>
        <time>2018-02-09T11:49:11Z</time>
      </trkpt>
      <trkpt lat="45.94974" lon="4.74488">
        <ele>193</ele>
        <time>2018-02-09T11:49:12Z</time>
      </trkpt>
      <trkpt lat="45.9497" lon="4.7448">
        <ele>193</ele>
        <time>2018-02-09T11:49:13Z</time>
      </trkpt>
      <trkpt lat="45.94967" lon="4.74471">
        <ele>193</ele>
        <time>2018-02-09T11:49:14Z</time>
      </trkpt>
      <trkpt lat="45.94963" lon="4.74463">
        <ele>193</ele>
        <time>2018-02-09T11:49:15Z</time>
      </trkpt>
      <trkpt lat="45.94958" lon="4.74455">
        <ele>192</ele>
        <time>2018-02-09T11:49:16Z</time>
      </trkpt>
      <trkpt lat="45.94954" lon="4.74448">
        <ele>192</ele>
        <time>2018-02-09T11:49:17Z</time>
      </trkpt>
      <trkpt lat="45.9495" lon="4.74441">
        <ele>192</ele>
        <time>2018-02-09T11:49:18Z</time>
      </trkpt>
      <trkpt lat="45.94946" lon="4.74433">
        <ele>192</ele>
        <time>2018-02-09T11:49:19Z</time>
      </trkpt>
      <trkpt lat="45.94941" lon="4.74425">
        <ele>192</ele>
        <time>2018-02-09T11:49:20Z</time>
      </trkpt>
      <trkpt lat="45.94937" lon="4.74417">
        <ele>192</ele>
        <time>2018-02-09T11:49:21Z</time>
      </trkpt>
      <trkpt lat="45.94933" lon="4.74408">
        <ele>192</ele>
        <time>2018-02-09T11:49:22Z</time>
      </trkpt>
      <trkpt lat="45.94929" lon="4.744">
        <ele>192</ele>
        <time>2018-02-09T11:49:23Z</time>
      </trkpt>
      <trkpt lat="45.94924" lon="4.74392">
        <ele>192</ele>
        <time>2018-02-09T11:49:24Z</time>
      </trkpt>
      <trkpt lat="45.9492" lon="4.74384">
        <ele>192</ele>
        <time>2018-02-09T11:49:25Z</time>
      </trkpt>
      <trkpt lat="45.94916" lon="4.74376">
        <ele>191</ele>
        <time>2018-02-09T11:49:26Z</time>
      </trkpt>
      <trkpt lat="45.94912" lon="4.74367">
        <ele>191</ele>
        <time>2018-02-09T11:49:27Z</time>
      </trkpt>
      <trkpt lat="45.94908" lon="4.74359">
        <ele>191</ele>
        <time>2018-02-09T11:49:28Z</time>
      </trkpt>
      <trkpt lat="45.94902" lon="4.7435">
        <ele>191</ele>
        <time>2018-02-09T11:49:29Z</time>
      </trkpt>
      <trkpt lat="45.94898" lon="4.74342">
        <ele>191</ele>
        <time>2018-02-09T11:49:30Z</time>
      </trkpt>
      <trkpt lat="45.94894" lon="4.74333">
        <ele>191</ele>
        <time>2018-02-09T11:49:31Z</time>
      </trkpt>
      <trkpt lat="45.94888" lon="4.74324">
        <ele>191</ele>
        <time>2018-02-09T11:49:32Z</time>
      </trkpt>
      <trkpt lat="45.94883" lon="4.74315">
        <ele>191</ele>
        <time>2018-02-09T11:49:33Z</time>
      </trkpt>
      <trkpt lat="45.94879" lon="4.74307">
        <ele>191</ele>
        <time>2018-02-09T11:49:34Z</time>
      </trkpt>
      <trkpt lat="45.94874" lon="4.74297">
        <ele>191</ele>
        <time>2018-02-09T11:49:35Z</time>
      </trkpt>
      <trkpt lat="45.94871" lon="4.74288">
        <ele>191</ele>
        <time>2018-02-09T11:49:36Z</time>
      </trkpt>
      <trkpt lat="45.94866" lon="4.74278">
        <ele>191</ele>
        <time>2018-02-09T11:49:37Z</time>
      </trkpt>
      <trkpt lat="45.94862" lon="4.7427">
        <ele>190</ele>
        <time>2018-02-09T11:49:38Z</time>
      </trkpt>
      <trkpt lat="45.94857" lon="4.74261">
        <ele>190</ele>
        <time>2018-02-09T11:49:39Z</time>
      </trkpt>
      <trkpt lat="45.94854" lon="4.74252">
        <ele>190</ele>
        <time>2018-02-09T11:49:40Z</time>
      </trkpt>
      <trkpt lat="45.9485" lon="4.74244">
        <ele>190</ele>
        <time>2018-02-09T11:49:41Z</time>
      </trkpt>
      <trkpt lat="45.94846" lon="4.74236">
        <ele>190</ele>
        <time>2018-02-09T11:49:42Z</time>
      </trkpt>
      <trkpt lat="45.94841" lon="4.74228">
        <ele>190</ele>
        <time>2018-02-09T11:49:43Z</time>
      </trkpt>
      <trkpt lat="45.94837" lon="4.74219">
        <ele>190</ele>
        <time>2018-02-09T11:49:44Z</time>
      </trkpt>
      <trkpt lat="45.94833" lon="4.74212">
        <ele>189</ele>
        <time>2018-02-09T11:49:45Z</time>
      </trkpt>
      <trkpt lat="45.94828" lon="4.74204">
        <ele>189</ele>
        <time>2018-02-09T11:49:46Z</time>
      </trkpt>
      <trkpt lat="45.94824" lon="4.74198">
        <ele>189</ele>
        <time>2018-02-09T11:49:47Z</time>
      </trkpt>
      <trkpt lat="45.9482" lon="4.74191">
        <ele>189</ele>
        <time>2018-02-09T11:49:48Z</time>
      </trkpt>
      <trkpt lat="45.94816" lon="4.74182">
        <ele>189</ele>
        <time>2018-02-09T11:49:49Z</time>
      </trkpt>
      <trkpt lat="45.94812" lon="4.74174">
        <ele>189</ele>
        <time>2018-02-09T11:49:50Z</time>
      </trkpt>
      <trkpt lat="45.94808" lon="4.74167">
        <ele>189</ele>
        <time>2018-02-09T11:49:51Z</time>
      </trkpt>
      <trkpt lat="45.94804" lon="4.7416">
        <ele>189</ele>
        <time>2018-02-09T11:49:52Z</time>
      </trkpt>
      <trkpt lat="45.948" lon="4.74153">
        <ele>189</ele>
        <time>2018-02-09T11:49:53Z</time>
      </trkpt>
      <trkpt lat="45.94796" lon="4.74146">
        <ele>189</ele>
        <time>2018-02-09T11:49:54Z</time>
      </trkpt>
      <trkpt lat="45.94792" lon="4.7414">
        <ele>189</ele>
        <time>2018-02-09T11:49:55Z</time>
      </trkpt>
      <trkpt lat="45.94788" lon="4.74133">
        <ele>189</ele>
        <time>2018-02-09T11:49:56Z</time>
      </trkpt>
      <trkpt lat="45.94784" lon="4.74127">
        <ele>189</ele>
        <time>2018-02-09T11:49:57Z</time>
      </trkpt>
      <trkpt lat="45.94779" lon="4.74121">
        <ele>189</ele>
        <time>2018-02-09T11:49:58Z</time>
      </trkpt>
      <trkpt lat="45.94775" lon="4.74116">
        <ele>189</ele>
        <time>2018-02-09T11:49:59Z</time>
      </trkpt>
      <trkpt lat="45.94771" lon="4.7411">
        <ele>189</ele>
        <time>2018-02-09T11:50:00Z</time>
      </trkpt>
      <trkpt lat="45.94767" lon="4.74104">
        <ele>189</ele>
        <time>2018-02-09T11:50:01Z</time>
      </trkpt>
      <trkpt lat="45.94762" lon="4.74099">
        <ele>189</ele>
        <time>2018-02-09T11:50:02Z</time>
      </trkpt>
      <trkpt lat="45.94758" lon="4.74094">
        <ele>189</ele>
        <time>2018-02-09T11:50:03Z</time>
      </trkpt>
      <trkpt lat="45.94754" lon="4.74088">
        <ele>189</ele>
        <time>2018-02-09T11:50:04Z</time>
      </trkpt>
      <trkpt lat="45.9475" lon="4.74083">
        <ele>189</ele>
        <time>2018-02-09T11:50:05Z</time>
      </trkpt>
      <trkpt lat="45.94746" lon="4.74077">
        <ele>189</ele>
        <time>2018-02-09T11:50:06Z</time>
      </trkpt>
      <trkpt lat="45.9474" lon="4.74071">
        <ele>188</ele>
        <time>2018-02-09T11:50:07Z</time>
      </trkpt>
      <trkpt lat="45.94736" lon="4.74066">
        <ele>188</ele>
        <time>2018-02-09T11:50:08Z</time>
      </trkpt>
      <trkpt lat="45.94732" lon="4.7406">
        <ele>188</ele>
        <time>2018-02-09T11:50:09Z</time>
      </trkpt>
      <trkpt lat="45.94727" lon="4.74054">
        <ele>188</ele>
        <time>2018-02-09T11:50:10Z</time>
      </trkpt>
      <trkpt lat="45.94723" lon="4.74047">
        <ele>187</ele>
        <time>2018-02-09T11:50:11Z</time>
      </trkpt>
      <trkpt lat="45.94719" lon="4.74041">
        <ele>187</ele>
        <time>2018-02-09T11:50:12Z</time>
      </trkpt>
      <trkpt lat="45.94713" lon="4.74035">
        <ele>187</ele>
        <time>2018-02-09T11:50:13Z</time>
      </trkpt>
      <trkpt lat="45.94709" lon="4.74028">
        <ele>187</ele>
        <time>2018-02-09T11:50:14Z</time>
      </trkpt>
      <trkpt lat="45.94705" lon="4.74023">
        <ele>187</ele>
        <time>2018-02-09T11:50:15Z</time>
      </trkpt>
      <trkpt lat="45.947" lon="4.74016">
        <ele>187</ele>
        <time>2018-02-09T11:50:16Z</time>
      </trkpt>
      <trkpt lat="45.94696" lon="4.74009">
        <ele>187</ele>
        <time>2018-02-09T11:50:17Z</time>
      </trkpt>
      <trkpt lat="45.94692" lon="4.74003">
        <ele>187</ele>
        <time>2018-02-09T11:50:18Z</time>
      </trkpt>
      <trkpt lat="45.94689" lon="4.73998">
        <ele>187</ele>
        <time>2018-02-09T11:50:19Z</time>
      </trkpt>
      <trkpt lat="45.94685" lon="4.73992">
        <ele>187</ele>
        <time>2018-02-09T11:50:20Z</time>
      </trkpt>
      <trkpt lat="45.94681" lon="4.73986">
        <ele>187</ele>
        <time>2018-02-09T11:50:21Z</time>
      </trkpt>
      <trkpt lat="45.94675" lon="4.7398">
        <ele>187</ele>
        <time>2018-02-09T11:50:22Z</time>
      </trkpt>
      <trkpt lat="45.94671" lon="4.73975">
        <ele>187</ele>
        <time>2018-02-09T11:50:23Z</time>
      </trkpt>
      <trkpt lat="45.94667" lon="4.73969">
        <ele>187</ele>
        <time>2018-02-09T11:50:24Z</time>
      </trkpt>
      <trkpt lat="45.94665" lon="4.73964">
        <ele>187</ele>
        <time>2018-02-09T11:50:25Z</time>
      </trkpt>
      <trkpt lat="45.94659" lon="4.73957">
        <ele>187</ele>
        <time>2018-02-09T11:50:26Z</time>
      </trkpt>
      <trkpt lat="45.94654" lon="4.73951">
        <ele>187</ele>
        <time>2018-02-09T11:50:27Z</time>
      </trkpt>
      <trkpt lat="45.94651" lon="4.73945">
        <ele>187</ele>
        <time>2018-02-09T11:50:28Z</time>
      </trkpt>
      <trkpt lat="45.94646" lon="4.7394">
        <ele>187</ele>
        <time>2018-02-09T11:50:29Z</time>
      </trkpt>
      <trkpt lat="45.94641" lon="4.73934">
        <ele>187</ele>
        <time>2018-02-09T11:50:30Z</time>
      </trkpt>
      <trkpt lat="45.94636" lon="4.73928">
        <ele>187</ele>
        <time>2018-02-09T11:50:31Z</time>
      </trkpt>
      <trkpt lat="45.94631" lon="4.73921">
        <ele>187</ele>
        <time>2018-02-09T11:50:32Z</time>
      </trkpt>
      <trkpt lat="45.94626" lon="4.73915">
        <ele>187</ele>
        <time>2018-02-09T11:50:33Z</time>
      </trkpt>
      <trkpt lat="45.94621" lon="4.73908">
        <ele>187</ele>
        <time>2018-02-09T11:50:34Z</time>
      </trkpt>
      <trkpt lat="45.94616" lon="4.73901">
        <ele>187</ele>
        <time>2018-02-09T11:50:35Z</time>
      </trkpt>
      <trkpt lat="45.94609" lon="4.73895">
        <ele>187</ele>
        <time>2018-02-09T11:50:36Z</time>
      </trkpt>
      <trkpt lat="45.94603" lon="4.7389">
        <ele>187</ele>
        <time>2018-02-09T11:50:37Z</time>
      </trkpt>
      <trkpt lat="45.94597" lon="4.73883">
        <ele>187</ele>
        <time>2018-02-09T11:50:38Z</time>
      </trkpt>
      <trkpt lat="45.94591" lon="4.73878">
        <ele>187</ele>
        <time>2018-02-09T11:50:39Z</time>
      </trkpt>
      <trkpt lat="45.94586" lon="4.73871">
        <ele>187</ele>
        <time>2018-02-09T11:50:40Z</time>
      </trkpt>
      <trkpt lat="45.94581" lon="4.73864">
        <ele>186</ele>
        <time>2018-02-09T11:50:41Z</time>
      </trkpt>
      <trkpt lat="45.94576" lon="4.73858">
        <ele>186</ele>
        <time>2018-02-09T11:50:42Z</time>
      </trkpt>
      <trkpt lat="45.94572" lon="4.73851">
        <ele>186</ele>
        <time>2018-02-09T11:50:43Z</time>
      </trkpt>
      <trkpt lat="45.94567" lon="4.73845">
        <ele>186</ele>
        <time>2018-02-09T11:50:44Z</time>
      </trkpt>
      <trkpt lat="45.9456" lon="4.7384">
        <ele>186</ele>
        <time>2018-02-09T11:50:45Z</time>
      </trkpt>
      <trkpt lat="45.94554" lon="4.73836">
        <ele>186</ele>
        <time>2018-02-09T11:50:46Z</time>
      </trkpt>
      <trkpt lat="45.94549" lon="4.73831">
        <ele>186</ele>
        <time>2018-02-09T11:50:47Z</time>
      </trkpt>
      <trkpt lat="45.94544" lon="4.73827">
        <ele>186</ele>
        <time>2018-02-09T11:50:48Z</time>
      </trkpt>
      <trkpt lat="45.94538" lon="4.73822">
        <ele>186</ele>
        <time>2018-02-09T11:50:49Z</time>
      </trkpt>
      <trkpt lat="45.94534" lon="4.73817">
        <ele>186</ele>
        <time>2018-02-09T11:50:50Z</time>
      </trkpt>
      <trkpt lat="45.94529" lon="4.73812">
        <ele>186</ele>
        <time>2018-02-09T11:50:51Z</time>
      </trkpt>
      <trkpt lat="45.94525" lon="4.73807">
        <ele>186</ele>
        <time>2018-02-09T11:50:52Z</time>
      </trkpt>
      <trkpt lat="45.94521" lon="4.73801">
        <ele>186</ele>
        <time>2018-02-09T11:50:53Z</time>
      </trkpt>
      <trkpt lat="45.94517" lon="4.73796">
        <ele>186</ele>
        <time>2018-02-09T11:50:54Z</time>
      </trkpt>
      <trkpt lat="45.94512" lon="4.73791">
        <ele>186</ele>
        <time>2018-02-09T11:50:55Z</time>
      </trkpt>
      <trkpt lat="45.94507" lon="4.73787">
        <ele>186</ele>
        <time>2018-02-09T11:50:56Z</time>
      </trkpt>
      <trkpt lat="45.94503" lon="4.73783">
        <ele>186</ele>
        <time>2018-02-09T11:50:57Z</time>
      </trkpt>
      <trkpt lat="45.94498" lon="4.73778">
        <ele>186</ele>
        <time>2018-02-09T11:50:58Z</time>
      </trkpt>
      <trkpt lat="45.94493" lon="4.73773">
        <ele>186</ele>
        <time>2018-02-09T11:50:59Z</time>
      </trkpt>
      <trkpt lat="45.94489" lon="4.73768">
        <ele>186</ele>
        <time>2018-02-09T11:51:00Z</time>
      </trkpt>
      <trkpt lat="45.94486" lon="4.73762">
        <ele>186</ele>
        <time>2018-02-09T11:51:01Z</time>
      </trkpt>
      <trkpt lat="45.94484" lon="4.73755">
        <ele>186</ele>
        <time>2018-02-09T11:51:02Z</time>
      </trkpt>
      <trkpt lat="45.94482" lon="4.73748">
        <ele>186</ele>
        <time>2018-02-09T11:51:03Z</time>
      </trkpt>
      <trkpt lat="45.94482" lon="4.7374">
        <ele>186</ele>
        <time>2018-02-09T11:51:04Z</time>
      </trkpt>
      <trkpt lat="45.94482" lon="4.73733">
        <ele>186</ele>
        <time>2018-02-09T11:51:05Z</time>
      </trkpt>
      <trkpt lat="45.94483" lon="4.73725">
        <ele>186</ele>
        <time>2018-02-09T11:51:06Z</time>
      </trkpt>
      <trkpt lat="45.94484" lon="4.73718">
        <ele>186</ele>
        <time>2018-02-09T11:51:07Z</time>
      </trkpt>
      <trkpt lat="45.94485" lon="4.7371">
        <ele>186</ele>
        <time>2018-02-09T11:51:08Z</time>
      </trkpt>
      <trkpt lat="45.94486" lon="4.73701">
        <ele>186</ele>
        <time>2018-02-09T11:51:09Z</time>
      </trkpt>
      <trkpt lat="45.94486" lon="4.73694">
        <ele>186</ele>
        <time>2018-02-09T11:51:10Z</time>
      </trkpt>
      <trkpt lat="45.94487" lon="4.73686">
        <ele>186</ele>
        <time>2018-02-09T11:51:11Z</time>
      </trkpt>
      <trkpt lat="45.94487" lon="4.7368">
        <ele>186</ele>
        <time>2018-02-09T11:51:12Z</time>
      </trkpt>
      <trkpt lat="45.94488" lon="4.73672">
        <ele>185</ele>
        <time>2018-02-09T11:51:13Z</time>
      </trkpt>
      <trkpt lat="45.94489" lon="4.73665">
        <ele>185</ele>
        <time>2018-02-09T11:51:14Z</time>
      </trkpt>
      <trkpt lat="45.94491" lon="4.73656">
        <ele>185</ele>
        <time>2018-02-09T11:51:15Z</time>
      </trkpt>
      <trkpt lat="45.94493" lon="4.73648">
        <ele>186</ele>
        <time>2018-02-09T11:51:16Z</time>
      </trkpt>
      <trkpt lat="45.94493" lon="4.73641">
        <ele>186</ele>
        <time>2018-02-09T11:51:17Z</time>
      </trkpt>
      <trkpt lat="45.94494" lon="4.73634">
        <ele>186</ele>
        <time>2018-02-09T11:51:18Z</time>
      </trkpt>
      <trkpt lat="45.94495" lon="4.73625">
        <ele>186</ele>
        <time>2018-02-09T11:51:19Z</time>
      </trkpt>
      <trkpt lat="45.94496" lon="4.73617">
        <ele>186</ele>
        <time>2018-02-09T11:51:20Z</time>
      </trkpt>
      <trkpt lat="45.94497" lon="4.73606">
        <ele>186</ele>
        <time>2018-02-09T11:51:21Z</time>
      </trkpt>
      <trkpt lat="45.94497" lon="4.73599">
        <ele>185</ele>
        <time>2018-02-09T11:51:22Z</time>
      </trkpt>
      <trkpt lat="45.94493" lon="4.7359">
        <ele>185</ele>
        <time>2018-02-09T11:51:24Z</time>
      </trkpt>
      <trkpt lat="45.94496" lon="4.73576">
        <ele>185</ele>
        <time>2018-02-09T11:51:25Z</time>
      </trkpt>
      <trkpt lat="45.94497" lon="4.73568">
        <ele>185</ele>
        <time>2018-02-09T11:51:26Z</time>
      </trkpt>
      <trkpt lat="45.94498" lon="4.73558">
        <ele>185</ele>
        <time>2018-02-09T11:51:27Z</time>
      </trkpt>
      <trkpt lat="45.94498" lon="4.73549">
        <ele>185</ele>
        <time>2018-02-09T11:51:28Z</time>
      </trkpt>
      <trkpt lat="45.94497" lon="4.7354">
        <ele>184</ele>
        <time>2018-02-09T11:51:29Z</time>
      </trkpt>
      <trkpt lat="45.94497" lon="4.73532">
        <ele>184</ele>
        <time>2018-02-09T11:51:30Z</time>
      </trkpt>
      <trkpt lat="45.94498" lon="4.73522">
        <ele>184</ele>
        <time>2018-02-09T11:51:31Z</time>
      </trkpt>
      <trkpt lat="45.94498" lon="4.73512">
        <ele>184</ele>
        <time>2018-02-09T11:51:32Z</time>
      </trkpt>
      <trkpt lat="45.94498" lon="4.73503">
        <ele>183</ele>
        <time>2018-02-09T11:51:33Z</time>
      </trkpt>
      <trkpt lat="45.94497" lon="4.73494">
        <ele>183</ele>
        <time>2018-02-09T11:51:34Z</time>
      </trkpt>
      <trkpt lat="45.94498" lon="4.73483">
        <ele>182</ele>
        <time>2018-02-09T11:51:35Z</time>
      </trkpt>
      <trkpt lat="45.94499" lon="4.73474">
        <ele>182</ele>
        <time>2018-02-09T11:51:36Z</time>
      </trkpt>
      <trkpt lat="45.94499" lon="4.73464">
        <ele>182</ele>
        <time>2018-02-09T11:51:37Z</time>
      </trkpt>
      <trkpt lat="45.94499" lon="4.73456">
        <ele>182</ele>
        <time>2018-02-09T11:51:38Z</time>
      </trkpt>
      <trkpt lat="45.94499" lon="4.73445">
        <ele>181</ele>
        <time>2018-02-09T11:51:39Z</time>
      </trkpt>
      <trkpt lat="45.94499" lon="4.73435">
        <ele>181</ele>
        <time>2018-02-09T11:51:40Z</time>
      </trkpt>
      <trkpt lat="45.945" lon="4.73424">
        <ele>181</ele>
        <time>2018-02-09T11:51:41Z</time>
      </trkpt>
      <trkpt lat="45.94497" lon="4.73415">
        <ele>180</ele>
        <time>2018-02-09T11:51:42Z</time>
      </trkpt>
      <trkpt lat="45.94497" lon="4.73406">
        <ele>180</ele>
        <time>2018-02-09T11:51:43Z</time>
      </trkpt>
      <trkpt lat="45.94497" lon="4.73395">
        <ele>179</ele>
        <time>2018-02-09T11:51:44Z</time>
      </trkpt>
      <trkpt lat="45.94496" lon="4.73386">
        <ele>179</ele>
        <time>2018-02-09T11:51:45Z</time>
      </trkpt>
      <trkpt lat="45.94493" lon="4.73376">
        <ele>179</ele>
        <time>2018-02-09T11:51:46Z</time>
      </trkpt>
      <trkpt lat="45.94493" lon="4.73365">
        <ele>179</ele>
        <time>2018-02-09T11:51:47Z</time>
      </trkpt>
      <trkpt lat="45.94492" lon="4.73356">
        <ele>178</ele>
        <time>2018-02-09T11:51:48Z</time>
      </trkpt>
      <trkpt lat="45.94491" lon="4.73347">
        <ele>178</ele>
        <time>2018-02-09T11:51:49Z</time>
      </trkpt>
      <trkpt lat="45.94489" lon="4.73338">
        <ele>178</ele>
        <time>2018-02-09T11:51:50Z</time>
      </trkpt>
      <trkpt lat="45.94488" lon="4.73328">
        <ele>177</ele>
        <time>2018-02-09T11:51:51Z</time>
      </trkpt>
      <trkpt lat="45.94486" lon="4.73317">
        <ele>177</ele>
        <time>2018-02-09T11:51:52Z</time>
      </trkpt>
      <trkpt lat="45.94484" lon="4.73307">
        <ele>177</ele>
        <time>2018-02-09T11:51:53Z</time>
      </trkpt>
      <trkpt lat="45.94482" lon="4.73297">
        <ele>177</ele>
        <time>2018-02-09T11:51:54Z</time>
      </trkpt>
      <trkpt lat="45.94481" lon="4.73286">
        <ele>177</ele>
        <time>2018-02-09T11:51:55Z</time>
      </trkpt>
      <trkpt lat="45.94479" lon="4.73277">
        <ele>177</ele>
        <time>2018-02-09T11:51:56Z</time>
      </trkpt>
      <trkpt lat="45.94477" lon="4.73267">
        <ele>177</ele>
        <time>2018-02-09T11:51:57Z</time>
      </trkpt>
      <trkpt lat="45.94476" lon="4.73257">
        <ele>177</ele>
        <time>2018-02-09T11:51:58Z</time>
      </trkpt>
      <trkpt lat="45.94475" lon="4.73244">
        <ele>175</ele>
        <time>2018-02-09T11:51:59Z</time>
      </trkpt>
      <trkpt lat="45.94475" lon="4.73231">
        <ele>175</ele>
        <time>2018-02-09T11:52:00Z</time>
      </trkpt>
      <trkpt lat="45.94475" lon="4.73217">
        <ele>175</ele>
        <time>2018-02-09T11:52:01Z</time>
      </trkpt>
      <trkpt lat="45.94474" lon="4.73204">
        <ele>175</ele>
        <time>2018-02-09T11:52:02Z</time>
      </trkpt>
      <trkpt lat="45.94473" lon="4.73194">
        <ele>174</ele>
        <time>2018-02-09T11:52:03Z</time>
      </trkpt>
      <trkpt lat="45.94472" lon="4.73182">
        <ele>174</ele>
        <time>2018-02-09T11:52:04Z</time>
      </trkpt>
      <trkpt lat="45.94471" lon="4.73172">
        <ele>174</ele>
        <time>2018-02-09T11:52:05Z</time>
      </trkpt>
      <trkpt lat="45.94469" lon="4.73162">
        <ele>172</ele>
        <time>2018-02-09T11:52:06Z</time>
      </trkpt>
      <trkpt lat="45.94467" lon="4.73153">
        <ele>172</ele>
        <time>2018-02-09T11:52:07Z</time>
      </trkpt>
      <trkpt lat="45.94466" lon="4.73143">
        <ele>172</ele>
        <time>2018-02-09T11:52:08Z</time>
      </trkpt>
      <trkpt lat="45.94464" lon="4.73136">
        <ele>172</ele>
        <time>2018-02-09T11:52:09Z</time>
      </trkpt>
      <trkpt lat="45.94464" lon="4.73126">
        <ele>172</ele>
        <time>2018-02-09T11:52:10Z</time>
      </trkpt>
      <trkpt lat="45.94463" lon="4.73117">
        <ele>172</ele>
        <time>2018-02-09T11:52:11Z</time>
      </trkpt>
      <trkpt lat="45.94462" lon="4.73109">
        <ele>172</ele>
        <time>2018-02-09T11:52:12Z</time>
      </trkpt>
      <trkpt lat="45.94463" lon="4.73104">
        <ele>172</ele>
        <time>2018-02-09T11:52:13Z</time>
      </trkpt>
      <trkpt lat="45.94462" lon="4.73096">
        <ele>171</ele>
        <time>2018-02-09T11:52:14Z</time>
      </trkpt>
      <trkpt lat="45.94463" lon="4.73088">
        <ele>171</ele>
        <time>2018-02-09T11:52:15Z</time>
      </trkpt>
      <trkpt lat="45.94463" lon="4.73082">
        <ele>170</ele>
        <time>2018-02-09T11:52:16Z</time>
      </trkpt>
      <trkpt lat="45.94461" lon="4.73075">
        <ele>170</ele>
        <time>2018-02-09T11:52:17Z</time>
      </trkpt>
      <trkpt lat="45.9446" lon="4.73067">
        <ele>170</ele>
        <time>2018-02-09T11:52:18Z</time>
      </trkpt>
      <trkpt lat="45.94459" lon="4.7306">
        <ele>170</ele>
        <time>2018-02-09T11:52:19Z</time>
      </trkpt>
      <trkpt lat="45.94458" lon="4.73054">
        <ele>170</ele>
        <time>2018-02-09T11:52:20Z</time>
      </trkpt>
      <trkpt lat="45.94453" lon="4.73045">
        <ele>169</ele>
        <time>2018-02-09T11:53:03Z</time>
      </trkpt>
      <trkpt lat="45.94453" lon="4.73043">
        <ele>169</ele>
        <time>2018-02-09T11:53:04Z</time>
      </trkpt>
      <trkpt lat="45.94452" lon="4.73032">
        <ele>169</ele>
        <time>2018-02-09T11:53:08Z</time>
      </trkpt>
      <trkpt lat="45.94451" lon="4.7303">
        <ele>169</ele>
        <time>2018-02-09T11:53:09Z</time>
      </trkpt>
      <trkpt lat="45.94449" lon="4.73021">
        <ele>169</ele>
        <time>2018-02-09T11:53:12Z</time>
      </trkpt>
      <trkpt lat="45.94449" lon="4.73017">
        <ele>169</ele>
        <time>2018-02-09T11:53:13Z</time>
      </trkpt>
      <trkpt lat="45.94449" lon="4.73004">
        <ele>169</ele>
        <time>2018-02-09T11:53:16Z</time>
      </trkpt>
      <trkpt lat="45.94448" lon="4.73">
        <ele>167</ele>
        <time>2018-02-09T11:53:17Z</time>
      </trkpt>
      <trkpt lat="45.94447" lon="4.72989">
        <ele>167</ele>
        <time>2018-02-09T11:53:19Z</time>
      </trkpt>
      <trkpt lat="45.94446" lon="4.72984">
        <ele>167</ele>
        <time>2018-02-09T11:53:20Z</time>
      </trkpt>
      <trkpt lat="45.94443" lon="4.72973">
        <ele>167</ele>
        <time>2018-02-09T11:53:22Z</time>
      </trkpt>
      <trkpt lat="45.94442" lon="4.72968">
        <ele>167</ele>
        <time>2018-02-09T11:53:23Z</time>
      </trkpt>
      <trkpt lat="45.9444" lon="4.72959">
        <ele>167</ele>
        <time>2018-02-09T11:53:25Z</time>
      </trkpt>
      <trkpt lat="45.9444" lon="4.72953">
        <ele>167</ele>
        <time>2018-02-09T11:53:26Z</time>
      </trkpt>
      <trkpt lat="45.94438" lon="4.72944">
        <ele>167</ele>
        <time>2018-02-09T11:53:28Z</time>
      </trkpt>
      <trkpt lat="45.94437" lon="4.7294">
        <ele>167</ele>
        <time>2018-02-09T11:53:29Z</time>
      </trkpt>
      <trkpt lat="45.94436" lon="4.7293">
        <ele>167</ele>
        <time>2018-02-09T11:53:31Z</time>
      </trkpt>
      <trkpt lat="45.94435" lon="4.72925">
        <ele>167</ele>
        <time>2018-02-09T11:53:32Z</time>
      </trkpt>
      <trkpt lat="45.94434" lon="4.72914">
        <ele>166</ele>
        <time>2018-02-09T11:53:34Z</time>
      </trkpt>
      <trkpt lat="45.94434" lon="4.72909">
        <ele>166</ele>
        <time>2018-02-09T11:53:35Z</time>
      </trkpt>
      <trkpt lat="45.94432" lon="4.72898">
        <ele>166</ele>
        <time>2018-02-09T11:53:37Z</time>
      </trkpt>
      <trkpt lat="45.9443" lon="4.72892">
        <ele>166</ele>
        <time>2018-02-09T11:53:38Z</time>
      </trkpt>
      <trkpt lat="45.94429" lon="4.72886">
        <ele>166</ele>
        <time>2018-02-09T11:53:39Z</time>
      </trkpt>
      <trkpt lat="45.94429" lon="4.72879">
        <ele>166</ele>
        <time>2018-02-09T11:53:40Z</time>
      </trkpt>
      <trkpt lat="45.94428" lon="4.72873">
        <ele>166</ele>
        <time>2018-02-09T11:53:41Z</time>
      </trkpt>
      <trkpt lat="45.94427" lon="4.72865">
        <ele>166</ele>
        <time>2018-02-09T11:53:42Z</time>
      </trkpt>
      <trkpt lat="45.94426" lon="4.72857">
        <ele>166</ele>
        <time>2018-02-09T11:53:43Z</time>
      </trkpt>
      <trkpt lat="45.94425" lon="4.7285">
        <ele>166</ele>
        <time>2018-02-09T11:53:44Z</time>
      </trkpt>
      <trkpt lat="45.94423" lon="4.72843">
        <ele>166</ele>
        <time>2018-02-09T11:53:45Z</time>
      </trkpt>
      <trkpt lat="45.94423" lon="4.72836">
        <ele>166</ele>
        <time>2018-02-09T11:53:46Z</time>
      </trkpt>
      <trkpt lat="45.94421" lon="4.72829">
        <ele>166</ele>
        <time>2018-02-09T11:53:47Z</time>
      </trkpt>
      <trkpt lat="45.94419" lon="4.72821">
        <ele>167</ele>
        <time>2018-02-09T11:53:48Z</time>
      </trkpt>
      <trkpt lat="45.94419" lon="4.72812">
        <ele>167</ele>
        <time>2018-02-09T11:53:49Z</time>
      </trkpt>
      <trkpt lat="45.94417" lon="4.72804">
        <ele>167</ele>
        <time>2018-02-09T11:53:50Z</time>
      </trkpt>
      <trkpt lat="45.94417" lon="4.72797">
        <ele>168</ele>
        <time>2018-02-09T11:53:51Z</time>
      </trkpt>
      <trkpt lat="45.94416" lon="4.72788">
        <ele>168</ele>
        <time>2018-02-09T11:53:52Z</time>
      </trkpt>
      <trkpt lat="45.94415" lon="4.72779">
        <ele>169</ele>
        <time>2018-02-09T11:53:53Z</time>
      </trkpt>
      <trkpt lat="45.94413" lon="4.72771">
        <ele>169</ele>
        <time>2018-02-09T11:53:54Z</time>
      </trkpt>
      <trkpt lat="45.94412" lon="4.72763">
        <ele>170</ele>
        <time>2018-02-09T11:53:55Z</time>
      </trkpt>
      <trkpt lat="45.94412" lon="4.72754">
        <ele>170</ele>
        <time>2018-02-09T11:53:56Z</time>
      </trkpt>
      <trkpt lat="45.9441" lon="4.72745">
        <ele>171</ele>
        <time>2018-02-09T11:53:57Z</time>
      </trkpt>
      <trkpt lat="45.9441" lon="4.72737">
        <ele>171</ele>
        <time>2018-02-09T11:53:58Z</time>
      </trkpt>
      <trkpt lat="45.9441" lon="4.72729">
        <ele>172</ele>
        <time>2018-02-09T11:53:59Z</time>
      </trkpt>
      <trkpt lat="45.9441" lon="4.72719">
        <ele>172</ele>
        <time>2018-02-09T11:54:00Z</time>
      </trkpt>
      <trkpt lat="45.94408" lon="4.72711">
        <ele>172</ele>
        <time>2018-02-09T11:54:01Z</time>
      </trkpt>
      <trkpt lat="45.94408" lon="4.72703">
        <ele>172</ele>
        <time>2018-02-09T11:54:02Z</time>
      </trkpt>
      <trkpt lat="45.94408" lon="4.72694">
        <ele>173</ele>
        <time>2018-02-09T11:54:03Z</time>
      </trkpt>
      <trkpt lat="45.94407" lon="4.72686">
        <ele>173</ele>
        <time>2018-02-09T11:54:04Z</time>
      </trkpt>
      <trkpt lat="45.94407" lon="4.72675">
        <ele>173</ele>
        <time>2018-02-09T11:54:05Z</time>
      </trkpt>
      <trkpt lat="45.94406" lon="4.72667">
        <ele>173</ele>
        <time>2018-02-09T11:54:06Z</time>
      </trkpt>
      <trkpt lat="45.94407" lon="4.72661">
        <ele>174</ele>
        <time>2018-02-09T11:54:07Z</time>
      </trkpt>
      <trkpt lat="45.94407" lon="4.7265">
        <ele>174</ele>
        <time>2018-02-09T11:54:08Z</time>
      </trkpt>
      <trkpt lat="45.94405" lon="4.72641">
        <ele>174</ele>
        <time>2018-02-09T11:54:09Z</time>
      </trkpt>
      <trkpt lat="45.94405" lon="4.72632">
        <ele>174</ele>
        <time>2018-02-09T11:54:10Z</time>
      </trkpt>
      <trkpt lat="45.94402" lon="4.72626">
        <ele>174</ele>
        <time>2018-02-09T11:54:11Z</time>
      </trkpt>
      <trkpt lat="45.94402" lon="4.72618">
        <ele>173</ele>
        <time>2018-02-09T11:54:12Z</time>
      </trkpt>
      <trkpt lat="45.94401" lon="4.7261">
        <ele>173</ele>
        <time>2018-02-09T11:54:13Z</time>
      </trkpt>
      <trkpt lat="45.94399" lon="4.72602">
        <ele>173</ele>
        <time>2018-02-09T11:54:14Z</time>
      </trkpt>
      <trkpt lat="45.94398" lon="4.72593">
        <ele>173</ele>
        <time>2018-02-09T11:54:15Z</time>
      </trkpt>
      <trkpt lat="45.94395" lon="4.72585">
        <ele>173</ele>
        <time>2018-02-09T11:54:16Z</time>
      </trkpt>
      <trkpt lat="45.94394" lon="4.72577">
        <ele>173</ele>
        <time>2018-02-09T11:54:17Z</time>
      </trkpt>
      <trkpt lat="45.94391" lon="4.72569">
        <ele>173</ele>
        <time>2018-02-09T11:54:18Z</time>
      </trkpt>
      <trkpt lat="45.94389" lon="4.72562">
        <ele>173</ele>
        <time>2018-02-09T11:54:19Z</time>
      </trkpt>
      <trkpt lat="45.94388" lon="4.72554">
        <ele>173</ele>
        <time>2018-02-09T11:54:20Z</time>
      </trkpt>
      <trkpt lat="45.94386" lon="4.72546">
        <ele>173</ele>
        <time>2018-02-09T11:54:21Z</time>
      </trkpt>
      <trkpt lat="45.94384" lon="4.7254">
        <ele>174</ele>
        <time>2018-02-09T11:54:22Z</time>
      </trkpt>
      <trkpt lat="45.94384" lon="4.72533">
        <ele>174</ele>
        <time>2018-02-09T11:54:23Z</time>
      </trkpt>
      <trkpt lat="45.94382" lon="4.72526">
        <ele>174</ele>
        <time>2018-02-09T11:54:24Z</time>
      </trkpt>
      <trkpt lat="45.9438" lon="4.7252">
        <ele>174</ele>
        <time>2018-02-09T11:54:25Z</time>
      </trkpt>
      <trkpt lat="45.94378" lon="4.72512">
        <ele>174</ele>
        <time>2018-02-09T11:54:26Z</time>
      </trkpt>
      <trkpt lat="45.94375" lon="4.72504">
        <ele>174</ele>
        <time>2018-02-09T11:54:27Z</time>
      </trkpt>
      <trkpt lat="45.94372" lon="4.72497">
        <ele>173</ele>
        <time>2018-02-09T11:54:28Z</time>
      </trkpt>
      <trkpt lat="45.9437" lon="4.72489">
        <ele>173</ele>
        <time>2018-02-09T11:54:29Z</time>
      </trkpt>
      <trkpt lat="45.94367" lon="4.72482">
        <ele>173</ele>
        <time>2018-02-09T11:54:30Z</time>
      </trkpt>
      <trkpt lat="45.94365" lon="4.72475">
        <ele>173</ele>
        <time>2018-02-09T11:54:31Z</time>
      </trkpt>
      <trkpt lat="45.94362" lon="4.72467">
        <ele>173</ele>
        <time>2018-02-09T11:54:32Z</time>
      </trkpt>
      <trkpt lat="45.94357" lon="4.72461">
        <ele>173</ele>
        <time>2018-02-09T11:54:33Z</time>
      </trkpt>
      <trkpt lat="45.94354" lon="4.72454">
        <ele>173</ele>
        <time>2018-02-09T11:54:34Z</time>
      </trkpt>
      <trkpt lat="45.94351" lon="4.72445">
        <ele>173</ele>
        <time>2018-02-09T11:54:35Z</time>
      </trkpt>
      <trkpt lat="45.94348" lon="4.72437">
        <ele>173</ele>
        <time>2018-02-09T11:54:36Z</time>
      </trkpt>
      <trkpt lat="45.94344" lon="4.7243">
        <ele>173</ele>
        <time>2018-02-09T11:54:37Z</time>
      </trkpt>
      <trkpt lat="45.94342" lon="4.72424">
        <ele>173</ele>
        <time>2018-02-09T11:54:38Z</time>
      </trkpt>
      <trkpt lat="45.9434" lon="4.72416">
        <ele>173</ele>
        <time>2018-02-09T11:54:39Z</time>
      </trkpt>
      <trkpt lat="45.94337" lon="4.7241">
        <ele>173</ele>
        <time>2018-02-09T11:54:40Z</time>
      </trkpt>
      <trkpt lat="45.94333" lon="4.72405">
        <ele>173</ele>
        <time>2018-02-09T11:54:41Z</time>
      </trkpt>
      <trkpt lat="45.94329" lon="4.724">
        <ele>173</ele>
        <time>2018-02-09T11:54:42Z</time>
      </trkpt>
      <trkpt lat="45.94328" lon="4.72392">
        <ele>172</ele>
        <time>2018-02-09T11:54:43Z</time>
      </trkpt>
      <trkpt lat="45.94325" lon="4.72386">
        <ele>172</ele>
        <time>2018-02-09T11:54:44Z</time>
      </trkpt>
      <trkpt lat="45.94322" lon="4.7238">
        <ele>172</ele>
        <time>2018-02-09T11:54:45Z</time>
      </trkpt>
      <trkpt lat="45.9432" lon="4.72373">
        <ele>172</ele>
        <time>2018-02-09T11:54:46Z</time>
      </trkpt>
      <trkpt lat="45.94316" lon="4.72368">
        <ele>172</ele>
        <time>2018-02-09T11:54:47Z</time>
      </trkpt>
      <trkpt lat="45.94312" lon="4.72363">
        <ele>172</ele>
        <time>2018-02-09T11:54:48Z</time>
      </trkpt>
      <trkpt lat="45.94309" lon="4.72356">
        <ele>172</ele>
        <time>2018-02-09T11:54:49Z</time>
      </trkpt>
      <trkpt lat="45.94306" lon="4.72349">
        <ele>172</ele>
        <time>2018-02-09T11:54:50Z</time>
      </trkpt>
      <trkpt lat="45.94303" lon="4.72343">
        <ele>172</ele>
        <time>2018-02-09T11:54:51Z</time>
      </trkpt>
      <trkpt lat="45.94301" lon="4.72335">
        <ele>172</ele>
        <time>2018-02-09T11:54:52Z</time>
      </trkpt>
      <trkpt lat="45.94297" lon="4.72329">
        <ele>171</ele>
        <time>2018-02-09T11:54:53Z</time>
      </trkpt>
      <trkpt lat="45.94295" lon="4.72322">
        <ele>171</ele>
        <time>2018-02-09T11:54:54Z</time>
      </trkpt>
      <trkpt lat="45.94293" lon="4.72314">
        <ele>171</ele>
        <time>2018-02-09T11:54:55Z</time>
      </trkpt>
      <trkpt lat="45.9429" lon="4.72309">
        <ele>171</ele>
        <time>2018-02-09T11:54:56Z</time>
      </trkpt>
      <trkpt lat="45.94287" lon="4.72303">
        <ele>171</ele>
        <time>2018-02-09T11:54:57Z</time>
      </trkpt>
      <trkpt lat="45.94283" lon="4.72297">
        <ele>171</ele>
        <time>2018-02-09T11:54:58Z</time>
      </trkpt>
      <trkpt lat="45.94281" lon="4.72289">
        <ele>171</ele>
        <time>2018-02-09T11:54:59Z</time>
      </trkpt>
      <trkpt lat="45.94278" lon="4.72281">
        <ele>171</ele>
        <time>2018-02-09T11:55:00Z</time>
      </trkpt>
      <trkpt lat="45.94273" lon="4.72271">
        <ele>171</ele>
        <time>2018-02-09T11:55:02Z</time>
      </trkpt>
      <trkpt lat="45.94269" lon="4.72269">
        <ele>171</ele>
        <time>2018-02-09T11:55:03Z</time>
      </trkpt>
      <trkpt lat="45.94265" lon="4.72271">
        <ele>171</ele>
        <time>2018-02-09T11:55:04Z</time>
      </trkpt>
      <trkpt lat="45.9426" lon="4.72273">
        <ele>171</ele>
        <time>2018-02-09T11:55:05Z</time>
      </trkpt>
      <trkpt lat="45.94255" lon="4.72276">
        <ele>171</ele>
        <time>2018-02-09T11:55:06Z</time>
      </trkpt>
      <trkpt lat="45.9425" lon="4.72278">
        <ele>171</ele>
        <time>2018-02-09T11:55:07Z</time>
      </trkpt>
      <trkpt lat="45.94245" lon="4.72281">
        <ele>171</ele>
        <time>2018-02-09T11:55:08Z</time>
      </trkpt>
      <trkpt lat="45.94239" lon="4.72283">
        <ele>171</ele>
        <time>2018-02-09T11:55:09Z</time>
      </trkpt>
      <trkpt lat="45.94233" lon="4.72286">
        <ele>171</ele>
        <time>2018-02-09T11:55:10Z</time>
      </trkpt>
      <trkpt lat="45.94228" lon="4.72288">
        <ele>171</ele>
        <time>2018-02-09T11:55:11Z</time>
      </trkpt>
      <trkpt lat="45.94221" lon="4.72288">
        <ele>171</ele>
        <time>2018-02-09T11:55:12Z</time>
      </trkpt>
      <trkpt lat="45.94216" lon="4.72288">
        <ele>171</ele>
        <time>2018-02-09T11:55:13Z</time>
      </trkpt>
      <trkpt lat="45.94209" lon="4.72288">
        <ele>171</ele>
        <time>2018-02-09T11:55:14Z</time>
      </trkpt>
      <trkpt lat="45.94204" lon="4.72287">
        <ele>171</ele>
        <time>2018-02-09T11:55:15Z</time>
      </trkpt>
      <trkpt lat="45.94199" lon="4.72287">
        <ele>171</ele>
        <time>2018-02-09T11:55:16Z</time>
      </trkpt>
      <trkpt lat="45.94194" lon="4.72286">
        <ele>171</ele>
        <time>2018-02-09T11:55:17Z</time>
      </trkpt>
      <trkpt lat="45.94188" lon="4.72286">
        <ele>171</ele>
        <time>2018-02-09T11:55:18Z</time>
      </trkpt>
      <trkpt lat="45.94182" lon="4.72285">
        <ele>171</ele>
        <time>2018-02-09T11:55:19Z</time>
      </trkpt>
      <trkpt lat="45.94176" lon="4.72286">
        <ele>171</ele>
        <time>2018-02-09T11:55:20Z</time>
      </trkpt>
      <trkpt lat="45.94171" lon="4.72285">
        <ele>171</ele>
        <time>2018-02-09T11:55:21Z</time>
      </trkpt>
      <trkpt lat="45.94167" lon="4.72286">
        <ele>171</ele>
        <time>2018-02-09T11:55:22Z</time>
      </trkpt>
      <trkpt lat="45.94161" lon="4.72284">
        <ele>171</ele>
        <time>2018-02-09T11:55:23Z</time>
      </trkpt>
      <trkpt lat="45.94155" lon="4.72284">
        <ele>171</ele>
        <time>2018-02-09T11:55:24Z</time>
      </trkpt>
      <trkpt lat="45.9415" lon="4.72282">
        <ele>171</ele>
        <time>2018-02-09T11:55:25Z</time>
      </trkpt>
      <trkpt lat="45.94145" lon="4.7228">
        <ele>171</ele>
        <time>2018-02-09T11:55:26Z</time>
      </trkpt>
      <trkpt lat="45.94139" lon="4.72277">
        <ele>171</ele>
        <time>2018-02-09T11:55:27Z</time>
      </trkpt>
      <trkpt lat="45.94135" lon="4.72274">
        <ele>171</ele>
        <time>2018-02-09T11:55:28Z</time>
      </trkpt>
      <trkpt lat="45.9413" lon="4.72272">
        <ele>171</ele>
        <time>2018-02-09T11:55:29Z</time>
      </trkpt>
      <trkpt lat="45.94122" lon="4.72267">
        <ele>171</ele>
        <time>2018-02-09T11:55:31Z</time>
      </trkpt>
      <trkpt lat="45.94117" lon="4.72265">
        <ele>171</ele>
        <time>2018-02-09T11:55:32Z</time>
      </trkpt>
      <trkpt lat="45.94113" lon="4.72263">
        <ele>171</ele>
        <time>2018-02-09T11:55:33Z</time>
      </trkpt>
      <trkpt lat="45.94108" lon="4.72262">
        <ele>171</ele>
        <time>2018-02-09T11:55:34Z</time>
      </trkpt>
      <trkpt lat="45.94104" lon="4.72261">
        <ele>171</ele>
        <time>2018-02-09T11:55:35Z</time>
      </trkpt>
      <trkpt lat="45.94098" lon="4.72261">
        <ele>171</ele>
        <time>2018-02-09T11:55:36Z</time>
      </trkpt>
      <trkpt lat="45.94093" lon="4.72263">
        <ele>171</ele>
        <time>2018-02-09T11:55:37Z</time>
      </trkpt>
      <trkpt lat="45.94088" lon="4.72264">
        <ele>171</ele>
        <time>2018-02-09T11:55:38Z</time>
      </trkpt>
      <trkpt lat="45.94083" lon="4.72267">
        <ele>171</ele>
        <time>2018-02-09T11:55:39Z</time>
      </trkpt>
      <trkpt lat="45.94077" lon="4.7227">
        <ele>171</ele>
        <time>2018-02-09T11:55:40Z</time>
      </trkpt>
      <trkpt lat="45.94073" lon="4.72273">
        <ele>171</ele>
        <time>2018-02-09T11:55:41Z</time>
      </trkpt>
      <trkpt lat="45.94068" lon="4.72277">
        <ele>171</ele>
        <time>2018-02-09T11:55:42Z</time>
      </trkpt>
      <trkpt lat="45.94064" lon="4.72282">
        <ele>171</ele>
        <time>2018-02-09T11:55:43Z</time>
      </trkpt>
      <trkpt lat="45.9406" lon="4.72287">
        <ele>171</ele>
        <time>2018-02-09T11:55:44Z</time>
      </trkpt>
      <trkpt lat="45.94056" lon="4.72292">
        <ele>171</ele>
        <time>2018-02-09T11:55:45Z</time>
      </trkpt>
      <trkpt lat="45.94052" lon="4.72297">
        <ele>171</ele>
        <time>2018-02-09T11:55:46Z</time>
      </trkpt>
      <trkpt lat="45.94048" lon="4.72304">
        <ele>171</ele>
        <time>2018-02-09T11:55:47Z</time>
      </trkpt>
      <trkpt lat="45.94043" lon="4.72309">
        <ele>171</ele>
        <time>2018-02-09T11:55:48Z</time>
      </trkpt>
      <trkpt lat="45.9404" lon="4.72313">
        <ele>171</ele>
        <time>2018-02-09T11:55:49Z</time>
      </trkpt>
      <trkpt lat="45.94035" lon="4.72317">
        <ele>171</ele>
        <time>2018-02-09T11:55:50Z</time>
      </trkpt>
      <trkpt lat="45.94032" lon="4.72322">
        <ele>171</ele>
        <time>2018-02-09T11:55:51Z</time>
      </trkpt>
      <trkpt lat="45.94027" lon="4.72327">
        <ele>171</ele>
        <time>2018-02-09T11:55:52Z</time>
      </trkpt>
      <trkpt lat="45.94025" lon="4.72332">
        <ele>171</ele>
        <time>2018-02-09T11:55:53Z</time>
      </trkpt>
      <trkpt lat="45.94021" lon="4.72337">
        <ele>171</ele>
        <time>2018-02-09T11:55:54Z</time>
      </trkpt>
      <trkpt lat="45.94017" lon="4.72342">
        <ele>171</ele>
        <time>2018-02-09T11:55:55Z</time>
      </trkpt>
      <trkpt lat="45.94012" lon="4.72347">
        <ele>171</ele>
        <time>2018-02-09T11:55:56Z</time>
      </trkpt>
      <trkpt lat="45.94008" lon="4.72352">
        <ele>171</ele>
        <time>2018-02-09T11:55:57Z</time>
      </trkpt>
      <trkpt lat="45.94004" lon="4.72359">
        <ele>171</ele>
        <time>2018-02-09T11:55:58Z</time>
      </trkpt>
      <trkpt lat="45.94" lon="4.72364">
        <ele>171</ele>
        <time>2018-02-09T11:55:59Z</time>
      </trkpt>
      <trkpt lat="45.93996" lon="4.72369">
        <ele>171</ele>
        <time>2018-02-09T11:56:00Z</time>
      </trkpt>
      <trkpt lat="45.93991" lon="4.72374">
        <ele>171</ele>
        <time>2018-02-09T11:56:01Z</time>
      </trkpt>
      <trkpt lat="45.93987" lon="4.7238">
        <ele>171</ele>
        <time>2018-02-09T11:56:02Z</time>
      </trkpt>
      <trkpt lat="45.93983" lon="4.72384">
        <ele>171</ele>
        <time>2018-02-09T11:56:03Z</time>
      </trkpt>
      <trkpt lat="45.93978" lon="4.72389">
        <ele>171</ele>
        <time>2018-02-09T11:56:04Z</time>
      </trkpt>
      <trkpt lat="45.93975" lon="4.72394">
        <ele>171</ele>
        <time>2018-02-09T11:56:05Z</time>
      </trkpt>
      <trkpt lat="45.93971" lon="4.72399">
        <ele>171</ele>
        <time>2018-02-09T11:56:06Z</time>
      </trkpt>
      <trkpt lat="45.93966" lon="4.72404">
        <ele>171</ele>
        <time>2018-02-09T11:56:07Z</time>
      </trkpt>
      <trkpt lat="45.93962" lon="4.72408">
        <ele>171</ele>
        <time>2018-02-09T11:56:08Z</time>
      </trkpt>
      <trkpt lat="45.93958" lon="4.72413">
        <ele>171</ele>
        <time>2018-02-09T11:56:09Z</time>
      </trkpt>
      <trkpt lat="45.93954" lon="4.72418">
        <ele>171</ele>
        <time>2018-02-09T11:56:10Z</time>
      </trkpt>
      <trkpt lat="45.93951" lon="4.72422">
        <ele>171</ele>
        <time>2018-02-09T11:56:11Z</time>
      </trkpt>
      <trkpt lat="45.93947" lon="4.72426">
        <ele>171</ele>
        <time>2018-02-09T11:56:12Z</time>
      </trkpt>
      <trkpt lat="45.93944" lon="4.72431">
        <ele>171</ele>
        <time>2018-02-09T11:56:13Z</time>
      </trkpt>
      <trkpt lat="45.93941" lon="4.72436">
        <ele>171</ele>
        <time>2018-02-09T11:56:14Z</time>
      </trkpt>
      <trkpt lat="45.93937" lon="4.72441">
        <ele>171</ele>
        <time>2018-02-09T11:56:15Z</time>
      </trkpt>
      <trkpt lat="45.93933" lon="4.72446">
        <ele>171</ele>
        <time>2018-02-09T11:56:16Z</time>
      </trkpt>
      <trkpt lat="45.93928" lon="4.72451">
        <ele>171</ele>
        <time>2018-02-09T11:56:17Z</time>
      </trkpt>
      <trkpt lat="45.93924" lon="4.72456">
        <ele>171</ele>
        <time>2018-02-09T11:56:18Z</time>
      </trkpt>
      <trkpt lat="45.93921" lon="4.7246">
        <ele>171</ele>
        <time>2018-02-09T11:56:19Z</time>
      </trkpt>
      <trkpt lat="45.93917" lon="4.72466">
        <ele>171</ele>
        <time>2018-02-09T11:56:20Z</time>
      </trkpt>
      <trkpt lat="45.93913" lon="4.72471">
        <ele>172</ele>
        <time>2018-02-09T11:56:21Z</time>
      </trkpt>
      <trkpt lat="45.93911" lon="4.72476">
        <ele>172</ele>
        <time>2018-02-09T11:56:22Z</time>
      </trkpt>
      <trkpt lat="45.93907" lon="4.7248">
        <ele>172</ele>
        <time>2018-02-09T11:56:23Z</time>
      </trkpt>
      <trkpt lat="45.93903" lon="4.72485">
        <ele>172</ele>
        <time>2018-02-09T11:56:24Z</time>
      </trkpt>
      <trkpt lat="45.939" lon="4.72489">
        <ele>172</ele>
        <time>2018-02-09T11:56:25Z</time>
      </trkpt>
      <trkpt lat="45.93896" lon="4.72493">
        <ele>172</ele>
        <time>2018-02-09T11:56:26Z</time>
      </trkpt>
      <trkpt lat="45.93892" lon="4.72497">
        <ele>172</ele>
        <time>2018-02-09T11:56:27Z</time>
      </trkpt>
      <trkpt lat="45.93888" lon="4.72501">
        <ele>173</ele>
        <time>2018-02-09T11:56:28Z</time>
      </trkpt>
      <trkpt lat="45.93884" lon="4.72505">
        <ele>173</ele>
        <time>2018-02-09T11:56:29Z</time>
      </trkpt>
      <trkpt lat="45.9388" lon="4.72509">
        <ele>173</ele>
        <time>2018-02-09T11:56:30Z</time>
      </trkpt>
      <trkpt lat="45.93872" lon="4.72511">
        <ele>173</ele>
        <time>2018-02-09T11:56:32Z</time>
      </trkpt>
      <trkpt lat="45.93863" lon="4.7251">
        <ele>173</ele>
        <time>2018-02-09T11:56:33Z</time>
      </trkpt>
      <trkpt lat="45.93859" lon="4.72507">
        <ele>173</ele>
        <time>2018-02-09T11:56:34Z</time>
      </trkpt>
      <trkpt lat="45.93855" lon="4.72504">
        <ele>173</ele>
        <time>2018-02-09T11:56:35Z</time>
      </trkpt>
      <trkpt lat="45.93848" lon="4.72497">
        <ele>173</ele>
        <time>2018-02-09T11:56:37Z</time>
      </trkpt>
      <trkpt lat="45.93845" lon="4.72495">
        <ele>173</ele>
        <time>2018-02-09T11:56:38Z</time>
      </trkpt>
      <trkpt lat="45.9384" lon="4.72486">
        <ele>173</ele>
        <time>2018-02-09T11:56:40Z</time>
      </trkpt>
      <trkpt lat="45.93837" lon="4.72485">
        <ele>173</ele>
        <time>2018-02-09T11:56:41Z</time>
      </trkpt>
      <trkpt lat="45.93823" lon="4.72469">
        <ele>172</ele>
        <time>2018-02-09T11:56:42Z</time>
      </trkpt>
      <trkpt lat="45.93821" lon="4.72465">
        <ele>172</ele>
        <time>2018-02-09T11:56:43Z</time>
      </trkpt>
      <trkpt lat="45.93814" lon="4.72463">
        <ele>172</ele>
        <time>2018-02-09T11:56:44Z</time>
      </trkpt>
      <trkpt lat="45.93808" lon="4.72456">
        <ele>172</ele>
        <time>2018-02-09T11:56:46Z</time>
      </trkpt>
      <trkpt lat="45.93803" lon="4.72453">
        <ele>172</ele>
        <time>2018-02-09T11:56:47Z</time>
      </trkpt>
      <trkpt lat="45.93798" lon="4.72449">
        <ele>172</ele>
        <time>2018-02-09T11:56:48Z</time>
      </trkpt>
      <trkpt lat="45.93792" lon="4.72445">
        <ele>172</ele>
        <time>2018-02-09T11:56:49Z</time>
      </trkpt>
      <trkpt lat="45.93789" lon="4.72444">
        <ele>172</ele>
        <time>2018-02-09T11:56:50Z</time>
      </trkpt>
      <trkpt lat="45.93783" lon="4.7244">
        <ele>172</ele>
        <time>2018-02-09T11:56:51Z</time>
      </trkpt>
      <trkpt lat="45.93777" lon="4.72437">
        <ele>172</ele>
        <time>2018-02-09T11:56:52Z</time>
      </trkpt>
      <trkpt lat="45.93771" lon="4.72436">
        <ele>171</ele>
        <time>2018-02-09T11:56:53Z</time>
      </trkpt>
      <trkpt lat="45.93766" lon="4.72431">
        <ele>171</ele>
        <time>2018-02-09T11:56:54Z</time>
      </trkpt>
      <trkpt lat="45.9376" lon="4.72428">
        <ele>171</ele>
        <time>2018-02-09T11:56:55Z</time>
      </trkpt>
      <trkpt lat="45.93755" lon="4.7242">
        <ele>171</ele>
        <time>2018-02-09T11:56:57Z</time>
      </trkpt>
      <trkpt lat="45.93752" lon="4.72415">
        <ele>171</ele>
        <time>2018-02-09T11:56:58Z</time>
      </trkpt>
      <trkpt lat="45.93748" lon="4.72411">
        <ele>171</ele>
        <time>2018-02-09T11:56:59Z</time>
      </trkpt>
      <trkpt lat="45.93744" lon="4.72406">
        <ele>171</ele>
        <time>2018-02-09T11:57:00Z</time>
      </trkpt>
      <trkpt lat="45.93739" lon="4.724">
        <ele>171</ele>
        <time>2018-02-09T11:57:01Z</time>
      </trkpt>
      <trkpt lat="45.93735" lon="4.72395">
        <ele>171</ele>
        <time>2018-02-09T11:57:02Z</time>
      </trkpt>
      <trkpt lat="45.93728" lon="4.72389">
        <ele>171</ele>
        <time>2018-02-09T11:57:04Z</time>
      </trkpt>
      <trkpt lat="45.93723" lon="4.72385">
        <ele>171</ele>
        <time>2018-02-09T11:57:05Z</time>
      </trkpt>
      <trkpt lat="45.93718" lon="4.72382">
        <ele>171</ele>
        <time>2018-02-09T11:57:06Z</time>
      </trkpt>
      <trkpt lat="45.93714" lon="4.72378">
        <ele>171</ele>
        <time>2018-02-09T11:57:07Z</time>
      </trkpt>
      <trkpt lat="45.9371" lon="4.72374">
        <ele>172</ele>
        <time>2018-02-09T11:57:08Z</time>
      </trkpt>
      <trkpt lat="45.93706" lon="4.72368">
        <ele>171</ele>
        <time>2018-02-09T11:57:09Z</time>
      </trkpt>
      <trkpt lat="45.93701" lon="4.72364">
        <ele>171</ele>
        <time>2018-02-09T11:57:10Z</time>
      </trkpt>
      <trkpt lat="45.93698" lon="4.72361">
        <ele>171</ele>
        <time>2018-02-09T11:57:11Z</time>
      </trkpt>
      <trkpt lat="45.93692" lon="4.72356">
        <ele>171</ele>
        <time>2018-02-09T11:57:13Z</time>
      </trkpt>
      <trkpt lat="45.93688" lon="4.72352">
        <ele>171</ele>
        <time>2018-02-09T11:57:14Z</time>
      </trkpt>
      <trkpt lat="45.93684" lon="4.72348">
        <ele>171</ele>
        <time>2018-02-09T11:57:15Z</time>
      </trkpt>
      <trkpt lat="45.9368" lon="4.72341">
        <ele>171</ele>
        <time>2018-02-09T11:57:16Z</time>
      </trkpt>
      <trkpt lat="45.93677" lon="4.72335">
        <ele>171</ele>
        <time>2018-02-09T11:57:17Z</time>
      </trkpt>
      <trkpt lat="45.93673" lon="4.7233">
        <ele>171</ele>
        <time>2018-02-09T11:57:18Z</time>
      </trkpt>
      <trkpt lat="45.93669" lon="4.72323">
        <ele>171</ele>
        <time>2018-02-09T11:57:19Z</time>
      </trkpt>
      <trkpt lat="45.93664" lon="4.72318">
        <ele>172</ele>
        <time>2018-02-09T11:57:20Z</time>
      </trkpt>
      <trkpt lat="45.93659" lon="4.72312">
        <ele>172</ele>
        <time>2018-02-09T11:57:21Z</time>
      </trkpt>
      <trkpt lat="45.93656" lon="4.72308">
        <ele>172</ele>
        <time>2018-02-09T11:57:22Z</time>
      </trkpt>
      <trkpt lat="45.93652" lon="4.72306">
        <ele>172</ele>
        <time>2018-02-09T11:57:23Z</time>
      </trkpt>
      <trkpt lat="45.93646" lon="4.72301">
        <ele>172</ele>
        <time>2018-02-09T11:57:24Z</time>
      </trkpt>
      <trkpt lat="45.93641" lon="4.72298">
        <ele>172</ele>
        <time>2018-02-09T11:57:25Z</time>
      </trkpt>
      <trkpt lat="45.93637" lon="4.72294">
        <ele>172</ele>
        <time>2018-02-09T11:57:26Z</time>
      </trkpt>
      <trkpt lat="45.93635" lon="4.72289">
        <ele>172</ele>
        <time>2018-02-09T11:57:27Z</time>
      </trkpt>
      <trkpt lat="45.93631" lon="4.72283">
        <ele>172</ele>
        <time>2018-02-09T11:57:28Z</time>
      </trkpt>
      <trkpt lat="45.93625" lon="4.72281">
        <ele>172</ele>
        <time>2018-02-09T11:57:29Z</time>
      </trkpt>
      <trkpt lat="45.9362" lon="4.72277">
        <ele>172</ele>
        <time>2018-02-09T11:57:30Z</time>
      </trkpt>
      <trkpt lat="45.93615" lon="4.72273">
        <ele>172</ele>
        <time>2018-02-09T11:57:31Z</time>
      </trkpt>
      <trkpt lat="45.9361" lon="4.72269">
        <ele>172</ele>
        <time>2018-02-09T11:57:32Z</time>
      </trkpt>
      <trkpt lat="45.93606" lon="4.72265">
        <ele>173</ele>
        <time>2018-02-09T11:57:33Z</time>
      </trkpt>
      <trkpt lat="45.93599" lon="4.72261">
        <ele>173</ele>
        <time>2018-02-09T11:57:34Z</time>
      </trkpt>
      <trkpt lat="45.93594" lon="4.72251">
        <ele>173</ele>
        <time>2018-02-09T11:57:36Z</time>
      </trkpt>
      <trkpt lat="45.93591" lon="4.72247">
        <ele>173</ele>
        <time>2018-02-09T11:57:37Z</time>
      </trkpt>
      <trkpt lat="45.93586" lon="4.72243">
        <ele>173</ele>
        <time>2018-02-09T11:57:38Z</time>
      </trkpt>
      <trkpt lat="45.93583" lon="4.7224">
        <ele>173</ele>
        <time>2018-02-09T11:57:39Z</time>
      </trkpt>
      <trkpt lat="45.93576" lon="4.72235">
        <ele>173</ele>
        <time>2018-02-09T11:57:47Z</time>
      </trkpt>
      <trkpt lat="45.93575" lon="4.72234">
        <ele>173</ele>
        <time>2018-02-09T11:57:48Z</time>
      </trkpt>
      <trkpt lat="45.93568" lon="4.72229">
        <ele>173</ele>
        <time>2018-02-09T11:57:51Z</time>
      </trkpt>
      <trkpt lat="45.93565" lon="4.72228">
        <ele>173</ele>
        <time>2018-02-09T11:57:52Z</time>
      </trkpt>
      <trkpt lat="45.93557" lon="4.72223">
        <ele>173</ele>
        <time>2018-02-09T11:57:57Z</time>
      </trkpt>
      <trkpt lat="45.93556" lon="4.72222">
        <ele>173</ele>
        <time>2018-02-09T11:57:58Z</time>
      </trkpt>
      <trkpt lat="45.93549" lon="4.72223">
        <ele>172</ele>
        <time>2018-02-09T11:58:03Z</time>
      </trkpt>
      <trkpt lat="45.93547" lon="4.72225">
        <ele>172</ele>
        <time>2018-02-09T11:58:04Z</time>
      </trkpt>
      <trkpt lat="45.93543" lon="4.72234">
        <ele>172</ele>
        <time>2018-02-09T11:58:07Z</time>
      </trkpt>
      <trkpt lat="45.93541" lon="4.72238">
        <ele>172</ele>
        <time>2018-02-09T11:58:08Z</time>
      </trkpt>
      <trkpt lat="45.93539" lon="4.72247">
        <ele>172</ele>
        <time>2018-02-09T11:58:10Z</time>
      </trkpt>
      <trkpt lat="45.93537" lon="4.72251">
        <ele>172</ele>
        <time>2018-02-09T11:58:11Z</time>
      </trkpt>
      <trkpt lat="45.93534" lon="4.72261">
        <ele>172</ele>
        <time>2018-02-09T11:58:13Z</time>
      </trkpt>
      <trkpt lat="45.93532" lon="4.72266">
        <ele>172</ele>
        <time>2018-02-09T11:58:14Z</time>
      </trkpt>
      <trkpt lat="45.93528" lon="4.72275">
        <ele>172</ele>
        <time>2018-02-09T11:58:16Z</time>
      </trkpt>
      <trkpt lat="45.93526" lon="4.7228">
        <ele>172</ele>
        <time>2018-02-09T11:58:17Z</time>
      </trkpt>
      <trkpt lat="45.93523" lon="4.72286">
        <ele>172</ele>
        <time>2018-02-09T11:58:18Z</time>
      </trkpt>
      <trkpt lat="45.9352" lon="4.72292">
        <ele>172</ele>
        <time>2018-02-09T11:58:19Z</time>
      </trkpt>
      <trkpt lat="45.93517" lon="4.72298">
        <ele>172</ele>
        <time>2018-02-09T11:58:20Z</time>
      </trkpt>
      <trkpt lat="45.93514" lon="4.72303">
        <ele>172</ele>
        <time>2018-02-09T11:58:21Z</time>
      </trkpt>
      <trkpt lat="45.9351" lon="4.72308">
        <ele>173</ele>
        <time>2018-02-09T11:58:22Z</time>
      </trkpt>
      <trkpt lat="45.93505" lon="4.72313">
        <ele>173</ele>
        <time>2018-02-09T11:58:23Z</time>
      </trkpt>
      <trkpt lat="45.93501" lon="4.72319">
        <ele>173</ele>
        <time>2018-02-09T11:58:24Z</time>
      </trkpt>
      <trkpt lat="45.93497" lon="4.72324">
        <ele>173</ele>
        <time>2018-02-09T11:58:25Z</time>
      </trkpt>
      <trkpt lat="45.93493" lon="4.72329">
        <ele>173</ele>
        <time>2018-02-09T11:58:26Z</time>
      </trkpt>
      <trkpt lat="45.93489" lon="4.72335">
        <ele>173</ele>
        <time>2018-02-09T11:58:27Z</time>
      </trkpt>
      <trkpt lat="45.93485" lon="4.7234">
        <ele>173</ele>
        <time>2018-02-09T11:58:28Z</time>
      </trkpt>
      <trkpt lat="45.93481" lon="4.72345">
        <ele>173</ele>
        <time>2018-02-09T11:58:29Z</time>
      </trkpt>
      <trkpt lat="45.93477" lon="4.7235">
        <ele>173</ele>
        <time>2018-02-09T11:58:30Z</time>
      </trkpt>
      <trkpt lat="45.93474" lon="4.72355">
        <ele>173</ele>
        <time>2018-02-09T11:58:31Z</time>
      </trkpt>
      <trkpt lat="45.93467" lon="4.72364">
        <ele>173</ele>
        <time>2018-02-09T11:58:33Z</time>
      </trkpt>
      <trkpt lat="45.93463" lon="4.72369">
        <ele>173</ele>
        <time>2018-02-09T11:58:34Z</time>
      </trkpt>
      <trkpt lat="45.93459" lon="4.72375">
        <ele>173</ele>
        <time>2018-02-09T11:58:35Z</time>
      </trkpt>
      <trkpt lat="45.93455" lon="4.72379">
        <ele>173</ele>
        <time>2018-02-09T11:58:36Z</time>
      </trkpt>
      <trkpt lat="45.9345" lon="4.72383">
        <ele>173</ele>
        <time>2018-02-09T11:58:37Z</time>
      </trkpt>
      <trkpt lat="45.93446" lon="4.72387">
        <ele>173</ele>
        <time>2018-02-09T11:58:38Z</time>
      </trkpt>
      <trkpt lat="45.93442" lon="4.72391">
        <ele>173</ele>
        <time>2018-02-09T11:58:39Z</time>
      </trkpt>
      <trkpt lat="45.93437" lon="4.72394">
        <ele>173</ele>
        <time>2018-02-09T11:58:40Z</time>
      </trkpt>
      <trkpt lat="45.93434" lon="4.72397">
        <ele>173</ele>
        <time>2018-02-09T11:58:41Z</time>
      </trkpt>
      <trkpt lat="45.93429" lon="4.724">
        <ele>174</ele>
        <time>2018-02-09T11:58:42Z</time>
      </trkpt>
      <trkpt lat="45.93424" lon="4.72401">
        <ele>174</ele>
        <time>2018-02-09T11:58:43Z</time>
      </trkpt>
      <trkpt lat="45.93419" lon="4.72403">
        <ele>174</ele>
        <time>2018-02-09T11:58:44Z</time>
      </trkpt>
      <trkpt lat="45.93411" lon="4.72404">
        <ele>174</ele>
        <time>2018-02-09T11:58:46Z</time>
      </trkpt>
      <trkpt lat="45.93407" lon="4.72405">
        <ele>174</ele>
        <time>2018-02-09T11:58:47Z</time>
      </trkpt>
      <trkpt lat="45.93402" lon="4.72405">
        <ele>174</ele>
        <time>2018-02-09T11:58:48Z</time>
      </trkpt>
      <trkpt lat="45.93397" lon="4.72405">
        <ele>174</ele>
        <time>2018-02-09T11:58:49Z</time>
      </trkpt>
      <trkpt lat="45.93389" lon="4.72407">
        <ele>174</ele>
        <time>2018-02-09T11:58:51Z</time>
      </trkpt>
      <trkpt lat="45.93385" lon="4.7241">
        <ele>174</ele>
        <time>2018-02-09T11:58:52Z</time>
      </trkpt>
      <trkpt lat="45.93383" lon="4.72416">
        <ele>174</ele>
        <time>2018-02-09T11:58:53Z</time>
      </trkpt>
      <trkpt lat="45.93384" lon="4.72423">
        <ele>173</ele>
        <time>2018-02-09T11:58:54Z</time>
      </trkpt>
      <trkpt lat="45.93384" lon="4.72431">
        <ele>173</ele>
        <time>2018-02-09T11:58:55Z</time>
      </trkpt>
      <trkpt lat="45.93386" lon="4.72438">
        <ele>173</ele>
        <time>2018-02-09T11:58:56Z</time>
      </trkpt>
      <trkpt lat="45.93388" lon="4.72444">
        <ele>173</ele>
        <time>2018-02-09T11:58:57Z</time>
      </trkpt>
      <trkpt lat="45.93389" lon="4.72451">
        <ele>173</ele>
        <time>2018-02-09T11:58:58Z</time>
      </trkpt>
      <trkpt lat="45.93388" lon="4.72458">
        <ele>173</ele>
        <time>2018-02-09T11:58:59Z</time>
      </trkpt>
      <trkpt lat="45.93387" lon="4.72465">
        <ele>173</ele>
        <time>2018-02-09T11:59:00Z</time>
      </trkpt>
      <trkpt lat="45.93382" lon="4.72475">
        <ele>173</ele>
        <time>2018-02-09T11:59:02Z</time>
      </trkpt>
      <trkpt lat="45.93379" lon="4.72479">
        <ele>173</ele>
        <time>2018-02-09T11:59:03Z</time>
      </trkpt>
      <trkpt lat="45.93375" lon="4.72484">
        <ele>173</ele>
        <time>2018-02-09T11:59:04Z</time>
      </trkpt>
      <trkpt lat="45.9337" lon="4.72488">
        <ele>173</ele>
        <time>2018-02-09T11:59:05Z</time>
      </trkpt>
      <trkpt lat="45.93366" lon="4.72492">
        <ele>173</ele>
        <time>2018-02-09T11:59:06Z</time>
      </trkpt>
      <trkpt lat="45.93362" lon="4.72496">
        <ele>173</ele>
        <time>2018-02-09T11:59:07Z</time>
      </trkpt>
      <trkpt lat="45.93358" lon="4.725">
        <ele>172</ele>
        <time>2018-02-09T11:59:08Z</time>
      </trkpt>
      <trkpt lat="45.93355" lon="4.72505">
        <ele>172</ele>
        <time>2018-02-09T11:59:09Z</time>
      </trkpt>
      <trkpt lat="45.93351" lon="4.72509">
        <ele>172</ele>
        <time>2018-02-09T11:59:10Z</time>
      </trkpt>
      <trkpt lat="45.93347" lon="4.72514">
        <ele>172</ele>
        <time>2018-02-09T11:59:11Z</time>
      </trkpt>
      <trkpt lat="45.93344" lon="4.72518">
        <ele>172</ele>
        <time>2018-02-09T11:59:12Z</time>
      </trkpt>
      <trkpt lat="45.9334" lon="4.72523">
        <ele>172</ele>
        <time>2018-02-09T11:59:13Z</time>
      </trkpt>
      <trkpt lat="45.93336" lon="4.72528">
        <ele>172</ele>
        <time>2018-02-09T11:59:14Z</time>
      </trkpt>
      <trkpt lat="45.93331" lon="4.72534">
        <ele>172</ele>
        <time>2018-02-09T11:59:15Z</time>
      </trkpt>
      <trkpt lat="45.93326" lon="4.72539">
        <ele>172</ele>
        <time>2018-02-09T11:59:16Z</time>
      </trkpt>
      <trkpt lat="45.93322" lon="4.72544">
        <ele>172</ele>
        <time>2018-02-09T11:59:17Z</time>
      </trkpt>
      <trkpt lat="45.93318" lon="4.72549">
        <ele>172</ele>
        <time>2018-02-09T11:59:18Z</time>
      </trkpt>
      <trkpt lat="45.93313" lon="4.72553">
        <ele>172</ele>
        <time>2018-02-09T11:59:19Z</time>
      </trkpt>
      <trkpt lat="45.93306" lon="4.72561">
        <ele>172</ele>
        <time>2018-02-09T11:59:21Z</time>
      </trkpt>
      <trkpt lat="45.93302" lon="4.72566">
        <ele>171</ele>
        <time>2018-02-09T11:59:22Z</time>
      </trkpt>
      <trkpt lat="45.93296" lon="4.7257">
        <ele>171</ele>
        <time>2018-02-09T11:59:23Z</time>
      </trkpt>
      <trkpt lat="45.93293" lon="4.72576">
        <ele>171</ele>
        <time>2018-02-09T11:59:24Z</time>
      </trkpt>
      <trkpt lat="45.93286" lon="4.72582">
        <ele>171</ele>
        <time>2018-02-09T11:59:25Z</time>
      </trkpt>
      <trkpt lat="45.93282" lon="4.72588">
        <ele>170</ele>
        <time>2018-02-09T11:59:26Z</time>
      </trkpt>
      <trkpt lat="45.93278" lon="4.72593">
        <ele>170</ele>
        <time>2018-02-09T11:59:27Z</time>
      </trkpt>
      <trkpt lat="45.93274" lon="4.72597">
        <ele>170</ele>
        <time>2018-02-09T11:59:28Z</time>
      </trkpt>
      <trkpt lat="45.9327" lon="4.72603">
        <ele>170</ele>
        <time>2018-02-09T11:59:29Z</time>
      </trkpt>
      <trkpt lat="45.93266" lon="4.72609">
        <ele>170</ele>
        <time>2018-02-09T11:59:30Z</time>
      </trkpt>
      <trkpt lat="45.93262" lon="4.72614">
        <ele>170</ele>
        <time>2018-02-09T11:59:31Z</time>
      </trkpt>
      <trkpt lat="45.93258" lon="4.72619">
        <ele>170</ele>
        <time>2018-02-09T11:59:32Z</time>
      </trkpt>
      <trkpt lat="45.93254" lon="4.72624">
        <ele>170</ele>
        <time>2018-02-09T11:59:33Z</time>
      </trkpt>
      <trkpt lat="45.93249" lon="4.72629">
        <ele>170</ele>
        <time>2018-02-09T11:59:34Z</time>
      </trkpt>
      <trkpt lat="45.93245" lon="4.72634">
        <ele>170</ele>
        <time>2018-02-09T11:59:35Z</time>
      </trkpt>
      <trkpt lat="45.93239" lon="4.72639">
        <ele>170</ele>
        <time>2018-02-09T11:59:36Z</time>
      </trkpt>
      <trkpt lat="45.93235" lon="4.72644">
        <ele>170</ele>
        <time>2018-02-09T11:59:37Z</time>
      </trkpt>
      <trkpt lat="45.93232" lon="4.72649">
        <ele>170</ele>
        <time>2018-02-09T11:59:38Z</time>
      </trkpt>
      <trkpt lat="45.93228" lon="4.72653">
        <ele>170</ele>
        <time>2018-02-09T11:59:39Z</time>
      </trkpt>
      <trkpt lat="45.93223" lon="4.72658">
        <ele>170</ele>
        <time>2018-02-09T11:59:40Z</time>
      </trkpt>
      <trkpt lat="45.93218" lon="4.72663">
        <ele>170</ele>
        <time>2018-02-09T11:59:41Z</time>
      </trkpt>
      <trkpt lat="45.93214" lon="4.72668">
        <ele>169</ele>
        <time>2018-02-09T11:59:42Z</time>
      </trkpt>
      <trkpt lat="45.93211" lon="4.72672">
        <ele>169</ele>
        <time>2018-02-09T11:59:43Z</time>
      </trkpt>
      <trkpt lat="45.93207" lon="4.72677">
        <ele>169</ele>
        <time>2018-02-09T11:59:44Z</time>
      </trkpt>
      <trkpt lat="45.93202" lon="4.72682">
        <ele>169</ele>
        <time>2018-02-09T11:59:45Z</time>
      </trkpt>
      <trkpt lat="45.93198" lon="4.72686">
        <ele>169</ele>
        <time>2018-02-09T11:59:46Z</time>
      </trkpt>
      <trkpt lat="45.93194" lon="4.7269">
        <ele>169</ele>
        <time>2018-02-09T11:59:47Z</time>
      </trkpt>
      <trkpt lat="45.93191" lon="4.72695">
        <ele>169</ele>
        <time>2018-02-09T11:59:48Z</time>
      </trkpt>
      <trkpt lat="45.93188" lon="4.727">
        <ele>169</ele>
        <time>2018-02-09T11:59:49Z</time>
      </trkpt>
      <trkpt lat="45.93184" lon="4.72705">
        <ele>169</ele>
        <time>2018-02-09T11:59:50Z</time>
      </trkpt>
      <trkpt lat="45.9318" lon="4.7271">
        <ele>169</ele>
        <time>2018-02-09T11:59:51Z</time>
      </trkpt>
      <trkpt lat="45.93177" lon="4.72714">
        <ele>169</ele>
        <time>2018-02-09T11:59:52Z</time>
      </trkpt>
      <trkpt lat="45.93174" lon="4.72719">
        <ele>170</ele>
        <time>2018-02-09T11:59:53Z</time>
      </trkpt>
      <trkpt lat="45.93169" lon="4.72724">
        <ele>170</ele>
        <time>2018-02-09T11:59:54Z</time>
      </trkpt>
      <trkpt lat="45.93164" lon="4.72728">
        <ele>170</ele>
        <time>2018-02-09T11:59:55Z</time>
      </trkpt>
      <trkpt lat="45.93159" lon="4.72733">
        <ele>170</ele>
        <time>2018-02-09T11:59:56Z</time>
      </trkpt>
      <trkpt lat="45.93154" lon="4.72738">
        <ele>170</ele>
        <time>2018-02-09T11:59:57Z</time>
      </trkpt>
      <trkpt lat="45.9315" lon="4.72743">
        <ele>170</ele>
        <time>2018-02-09T11:59:58Z</time>
      </trkpt>
      <trkpt lat="45.93146" lon="4.72748">
        <ele>170</ele>
        <time>2018-02-09T11:59:59Z</time>
      </trkpt>
      <trkpt lat="45.93142" lon="4.72753">
        <ele>171</ele>
        <time>2018-02-09T12:00:00Z</time>
      </trkpt>
      <trkpt lat="45.93138" lon="4.72758">
        <ele>171</ele>
        <time>2018-02-09T12:00:01Z</time>
      </trkpt>
      <trkpt lat="45.93134" lon="4.72763">
        <ele>171</ele>
        <time>2018-02-09T12:00:02Z</time>
      </trkpt>
      <trkpt lat="45.93129" lon="4.72768">
        <ele>171</ele>
        <time>2018-02-09T12:00:03Z</time>
      </trkpt>
      <trkpt lat="45.93125" lon="4.72773">
        <ele>171</ele>
        <time>2018-02-09T12:00:04Z</time>
      </trkpt>
      <trkpt lat="45.93121" lon="4.72777">
        <ele>171</ele>
        <time>2018-02-09T12:00:05Z</time>
      </trkpt>
      <trkpt lat="45.93117" lon="4.72782">
        <ele>171</ele>
        <time>2018-02-09T12:00:06Z</time>
      </trkpt>
      <trkpt lat="45.93113" lon="4.72787">
        <ele>171</ele>
        <time>2018-02-09T12:00:07Z</time>
      </trkpt>
      <trkpt lat="45.93109" lon="4.72792">
        <ele>171</ele>
        <time>2018-02-09T12:00:08Z</time>
      </trkpt>
      <trkpt lat="45.93104" lon="4.72796">
        <ele>171</ele>
        <time>2018-02-09T12:00:09Z</time>
      </trkpt>
      <trkpt lat="45.93101" lon="4.72801">
        <ele>171</ele>
        <time>2018-02-09T12:00:10Z</time>
      </trkpt>
      <trkpt lat="45.93097" lon="4.72805">
        <ele>171</ele>
        <time>2018-02-09T12:00:11Z</time>
      </trkpt>
      <trkpt lat="45.93093" lon="4.7281">
        <ele>172</ele>
        <time>2018-02-09T12:00:12Z</time>
      </trkpt>
      <trkpt lat="45.93088" lon="4.72814">
        <ele>172</ele>
        <time>2018-02-09T12:00:13Z</time>
      </trkpt>
      <trkpt lat="45.93084" lon="4.72818">
        <ele>172</ele>
        <time>2018-02-09T12:00:14Z</time>
      </trkpt>
      <trkpt lat="45.93076" lon="4.72826">
        <ele>173</ele>
        <time>2018-02-09T12:00:16Z</time>
      </trkpt>
      <trkpt lat="45.93073" lon="4.7283">
        <ele>173</ele>
        <time>2018-02-09T12:00:17Z</time>
      </trkpt>
      <trkpt lat="45.93067" lon="4.72837">
        <ele>173</ele>
        <time>2018-02-09T12:00:18Z</time>
      </trkpt>
      <trkpt lat="45.93064" lon="4.7284">
        <ele>173</ele>
        <time>2018-02-09T12:00:19Z</time>
      </trkpt>
      <trkpt lat="45.93061" lon="4.7285">
        <ele>172</ele>
        <time>2018-02-09T12:00:20Z</time>
      </trkpt>
      <trkpt lat="45.93051" lon="4.72854">
        <ele>172</ele>
        <time>2018-02-09T12:00:21Z</time>
      </trkpt>
      <trkpt lat="45.93048" lon="4.72857">
        <ele>172</ele>
        <time>2018-02-09T12:00:22Z</time>
      </trkpt>
      <trkpt lat="45.93045" lon="4.72867">
        <ele>172</ele>
        <time>2018-02-09T12:00:23Z</time>
      </trkpt>
      <trkpt lat="45.9304" lon="4.72868">
        <ele>172</ele>
        <time>2018-02-09T12:00:24Z</time>
      </trkpt>
      <trkpt lat="45.93037" lon="4.72873">
        <ele>172</ele>
        <time>2018-02-09T12:00:25Z</time>
      </trkpt>
      <trkpt lat="45.93033" lon="4.72879">
        <ele>172</ele>
        <time>2018-02-09T12:00:26Z</time>
      </trkpt>
      <trkpt lat="45.93028" lon="4.72884">
        <ele>172</ele>
        <time>2018-02-09T12:00:27Z</time>
      </trkpt>
      <trkpt lat="45.93024" lon="4.72889">
        <ele>172</ele>
        <time>2018-02-09T12:00:28Z</time>
      </trkpt>
      <trkpt lat="45.9302" lon="4.72895">
        <ele>172</ele>
        <time>2018-02-09T12:00:29Z</time>
      </trkpt>
      <trkpt lat="45.93016" lon="4.72902">
        <ele>172</ele>
        <time>2018-02-09T12:00:30Z</time>
      </trkpt>
      <trkpt lat="45.93011" lon="4.72907">
        <ele>171</ele>
        <time>2018-02-09T12:00:31Z</time>
      </trkpt>
      <trkpt lat="45.93007" lon="4.72912">
        <ele>171</ele>
        <time>2018-02-09T12:00:32Z</time>
      </trkpt>
      <trkpt lat="45.93002" lon="4.72916">
        <ele>171</ele>
        <time>2018-02-09T12:00:33Z</time>
      </trkpt>
      <trkpt lat="45.92998" lon="4.72921">
        <ele>171</ele>
        <time>2018-02-09T12:00:34Z</time>
      </trkpt>
      <trkpt lat="45.92994" lon="4.72925">
        <ele>171</ele>
        <time>2018-02-09T12:00:35Z</time>
      </trkpt>
      <trkpt lat="45.9299" lon="4.72931">
        <ele>171</ele>
        <time>2018-02-09T12:00:36Z</time>
      </trkpt>
      <trkpt lat="45.92985" lon="4.72937">
        <ele>171</ele>
        <time>2018-02-09T12:00:37Z</time>
      </trkpt>
      <trkpt lat="45.92981" lon="4.72942">
        <ele>171</ele>
        <time>2018-02-09T12:00:38Z</time>
      </trkpt>
      <trkpt lat="45.92977" lon="4.72947">
        <ele>171</ele>
        <time>2018-02-09T12:00:39Z</time>
      </trkpt>
      <trkpt lat="45.92973" lon="4.72953">
        <ele>171</ele>
        <time>2018-02-09T12:00:40Z</time>
      </trkpt>
      <trkpt lat="45.92969" lon="4.72958">
        <ele>171</ele>
        <time>2018-02-09T12:00:41Z</time>
      </trkpt>
      <trkpt lat="45.92962" lon="4.72963">
        <ele>171</ele>
        <time>2018-02-09T12:00:42Z</time>
      </trkpt>
      <trkpt lat="45.92959" lon="4.72968">
        <ele>171</ele>
        <time>2018-02-09T12:00:43Z</time>
      </trkpt>
      <trkpt lat="45.92954" lon="4.72973">
        <ele>171</ele>
        <time>2018-02-09T12:00:44Z</time>
      </trkpt>
      <trkpt lat="45.9295" lon="4.72978">
        <ele>171</ele>
        <time>2018-02-09T12:00:45Z</time>
      </trkpt>
      <trkpt lat="45.92945" lon="4.72983">
        <ele>171</ele>
        <time>2018-02-09T12:00:46Z</time>
      </trkpt>
      <trkpt lat="45.92941" lon="4.72988">
        <ele>171</ele>
        <time>2018-02-09T12:00:47Z</time>
      </trkpt>
      <trkpt lat="45.92937" lon="4.72992">
        <ele>171</ele>
        <time>2018-02-09T12:00:48Z</time>
      </trkpt>
      <trkpt lat="45.92933" lon="4.72997">
        <ele>172</ele>
        <time>2018-02-09T12:00:49Z</time>
      </trkpt>
      <trkpt lat="45.92929" lon="4.73002">
        <ele>172</ele>
        <time>2018-02-09T12:00:50Z</time>
      </trkpt>
      <trkpt lat="45.92924" lon="4.73006">
        <ele>172</ele>
        <time>2018-02-09T12:00:51Z</time>
      </trkpt>
      <trkpt lat="45.9292" lon="4.73011">
        <ele>172</ele>
        <time>2018-02-09T12:00:52Z</time>
      </trkpt>
      <trkpt lat="45.92916" lon="4.73016">
        <ele>172</ele>
        <time>2018-02-09T12:00:53Z</time>
      </trkpt>
      <trkpt lat="45.92912" lon="4.73021">
        <ele>172</ele>
        <time>2018-02-09T12:00:54Z</time>
      </trkpt>
      <trkpt lat="45.92908" lon="4.73026">
        <ele>172</ele>
        <time>2018-02-09T12:00:55Z</time>
      </trkpt>
      <trkpt lat="45.92904" lon="4.73032">
        <ele>172</ele>
        <time>2018-02-09T12:00:56Z</time>
      </trkpt>
      <trkpt lat="45.92901" lon="4.73037">
        <ele>172</ele>
        <time>2018-02-09T12:00:57Z</time>
      </trkpt>
      <trkpt lat="45.92897" lon="4.73042">
        <ele>172</ele>
        <time>2018-02-09T12:00:58Z</time>
      </trkpt>
      <trkpt lat="45.92894" lon="4.73047">
        <ele>172</ele>
        <time>2018-02-09T12:00:59Z</time>
      </trkpt>
      <trkpt lat="45.92891" lon="4.73053">
        <ele>172</ele>
        <time>2018-02-09T12:01:00Z</time>
      </trkpt>
      <trkpt lat="45.92887" lon="4.73058">
        <ele>172</ele>
        <time>2018-02-09T12:01:01Z</time>
      </trkpt>
      <trkpt lat="45.92883" lon="4.73063">
        <ele>172</ele>
        <time>2018-02-09T12:01:02Z</time>
      </trkpt>
      <trkpt lat="45.92879" lon="4.73069">
        <ele>172</ele>
        <time>2018-02-09T12:01:03Z</time>
      </trkpt>
      <trkpt lat="45.92872" lon="4.73077">
        <ele>172</ele>
        <time>2018-02-09T12:01:05Z</time>
      </trkpt>
      <trkpt lat="45.92869" lon="4.73082">
        <ele>172</ele>
        <time>2018-02-09T12:01:06Z</time>
      </trkpt>
      <trkpt lat="45.92865" lon="4.73087">
        <ele>172</ele>
        <time>2018-02-09T12:01:07Z</time>
      </trkpt>
      <trkpt lat="45.92861" lon="4.73093">
        <ele>171</ele>
        <time>2018-02-09T12:01:08Z</time>
      </trkpt>
      <trkpt lat="45.92854" lon="4.731">
        <ele>171</ele>
        <time>2018-02-09T12:01:10Z</time>
      </trkpt>
      <trkpt lat="45.92851" lon="4.73101">
        <ele>171</ele>
        <time>2018-02-09T12:01:11Z</time>
      </trkpt>
      <trkpt lat="45.92844" lon="4.73097">
        <ele>171</ele>
        <time>2018-02-09T12:01:13Z</time>
      </trkpt>
      <trkpt lat="45.92844" lon="4.7309">
        <ele>171</ele>
        <time>2018-02-09T12:01:14Z</time>
      </trkpt>
      <trkpt lat="45.92845" lon="4.73084">
        <ele>171</ele>
        <time>2018-02-09T12:01:15Z</time>
      </trkpt>
      <trkpt lat="45.92845" lon="4.73077">
        <ele>171</ele>
        <time>2018-02-09T12:01:16Z</time>
      </trkpt>
      <trkpt lat="45.92845" lon="4.73071">
        <ele>171</ele>
        <time>2018-02-09T12:01:17Z</time>
      </trkpt>
      <trkpt lat="45.92844" lon="4.73063">
        <ele>171</ele>
        <time>2018-02-09T12:01:18Z</time>
      </trkpt>
      <trkpt lat="45.92839" lon="4.73058">
        <ele>171</ele>
        <time>2018-02-09T12:01:19Z</time>
      </trkpt>
      <trkpt lat="45.92837" lon="4.73052">
        <ele>171</ele>
        <time>2018-02-09T12:01:20Z</time>
      </trkpt>
      <trkpt lat="45.92836" lon="4.73046">
        <ele>171</ele>
        <time>2018-02-09T12:01:21Z</time>
      </trkpt>
      <trkpt lat="45.92835" lon="4.73039">
        <ele>171</ele>
        <time>2018-02-09T12:01:22Z</time>
      </trkpt>
      <trkpt lat="45.92832" lon="4.73029">
        <ele>170</ele>
        <time>2018-02-09T12:01:24Z</time>
      </trkpt>
      <trkpt lat="45.92831" lon="4.73022">
        <ele>170</ele>
        <time>2018-02-09T12:01:25Z</time>
      </trkpt>
      <trkpt lat="45.92829" lon="4.73015">
        <ele>170</ele>
        <time>2018-02-09T12:01:26Z</time>
      </trkpt>
      <trkpt lat="45.92829" lon="4.73009">
        <ele>170</ele>
        <time>2018-02-09T12:01:27Z</time>
      </trkpt>
      <trkpt lat="45.92827" lon="4.73002">
        <ele>170</ele>
        <time>2018-02-09T12:01:28Z</time>
      </trkpt>
      <trkpt lat="45.92826" lon="4.72996">
        <ele>170</ele>
        <time>2018-02-09T12:01:29Z</time>
      </trkpt>
      <trkpt lat="45.92825" lon="4.72989">
        <ele>170</ele>
        <time>2018-02-09T12:01:30Z</time>
      </trkpt>
      <trkpt lat="45.92824" lon="4.72983">
        <ele>170</ele>
        <time>2018-02-09T12:01:31Z</time>
      </trkpt>
      <trkpt lat="45.92823" lon="4.7297">
        <ele>170</ele>
        <time>2018-02-09T12:01:33Z</time>
      </trkpt>
      <trkpt lat="45.92823" lon="4.72964">
        <ele>170</ele>
        <time>2018-02-09T12:01:34Z</time>
      </trkpt>
      <trkpt lat="45.92823" lon="4.72957">
        <ele>170</ele>
        <time>2018-02-09T12:01:35Z</time>
      </trkpt>
      <trkpt lat="45.92822" lon="4.72951">
        <ele>170</ele>
        <time>2018-02-09T12:01:36Z</time>
      </trkpt>
      <trkpt lat="45.92821" lon="4.72939">
        <ele>170</ele>
        <time>2018-02-09T12:01:38Z</time>
      </trkpt>
      <trkpt lat="45.9282" lon="4.72932">
        <ele>170</ele>
        <time>2018-02-09T12:01:39Z</time>
      </trkpt>
      <trkpt lat="45.92819" lon="4.72925">
        <ele>170</ele>
        <time>2018-02-09T12:01:40Z</time>
      </trkpt>
      <trkpt lat="45.92819" lon="4.72916">
        <ele>170</ele>
        <time>2018-02-09T12:01:41Z</time>
      </trkpt>
      <trkpt lat="45.92818" lon="4.72909">
        <ele>170</ele>
        <time>2018-02-09T12:01:42Z</time>
      </trkpt>
      <trkpt lat="45.92817" lon="4.72903">
        <ele>170</ele>
        <time>2018-02-09T12:01:43Z</time>
      </trkpt>
      <trkpt lat="45.92816" lon="4.72896">
        <ele>170</ele>
        <time>2018-02-09T12:01:44Z</time>
      </trkpt>
      <trkpt lat="45.92815" lon="4.72889">
        <ele>170</ele>
        <time>2018-02-09T12:01:45Z</time>
      </trkpt>
      <trkpt lat="45.92814" lon="4.72882">
        <ele>170</ele>
        <time>2018-02-09T12:01:46Z</time>
      </trkpt>
      <trkpt lat="45.92813" lon="4.72875">
        <ele>170</ele>
        <time>2018-02-09T12:01:47Z</time>
      </trkpt>
      <trkpt lat="45.92812" lon="4.72869">
        <ele>170</ele>
        <time>2018-02-09T12:01:48Z</time>
      </trkpt>
      <trkpt lat="45.9281" lon="4.72862">
        <ele>170</ele>
        <time>2018-02-09T12:01:49Z</time>
      </trkpt>
      <trkpt lat="45.92809" lon="4.72856">
        <ele>170</ele>
        <time>2018-02-09T12:01:50Z</time>
      </trkpt>
      <trkpt lat="45.92808" lon="4.72849">
        <ele>170</ele>
        <time>2018-02-09T12:01:51Z</time>
      </trkpt>
      <trkpt lat="45.92807" lon="4.72842">
        <ele>170</ele>
        <time>2018-02-09T12:01:52Z</time>
      </trkpt>
      <trkpt lat="45.92805" lon="4.72835">
        <ele>170</ele>
        <time>2018-02-09T12:01:53Z</time>
      </trkpt>
      <trkpt lat="45.92805" lon="4.72823">
        <ele>171</ele>
        <time>2018-02-09T12:01:55Z</time>
      </trkpt>
      <trkpt lat="45.92803" lon="4.72817">
        <ele>171</ele>
        <time>2018-02-09T12:01:56Z</time>
      </trkpt>
      <trkpt lat="45.92802" lon="4.72806">
        <ele>171</ele>
        <time>2018-02-09T12:01:58Z</time>
      </trkpt>
      <trkpt lat="45.92801" lon="4.72801">
        <ele>171</ele>
        <time>2018-02-09T12:01:59Z</time>
      </trkpt>
      <trkpt lat="45.92798" lon="4.7279">
        <ele>171</ele>
        <time>2018-02-09T12:02:01Z</time>
      </trkpt>
      <trkpt lat="45.92796" lon="4.72787">
        <ele>171</ele>
        <time>2018-02-09T12:02:02Z</time>
      </trkpt>
      <trkpt lat="45.92789" lon="4.72786">
        <ele>171</ele>
        <time>2018-02-09T12:02:04Z</time>
      </trkpt>
      <trkpt lat="45.92783" lon="4.72789">
        <ele>170</ele>
        <time>2018-02-09T12:02:05Z</time>
      </trkpt>
      <trkpt lat="45.92776" lon="4.72794">
        <ele>170</ele>
        <time>2018-02-09T12:02:07Z</time>
      </trkpt>
      <trkpt lat="45.92772" lon="4.72798">
        <ele>170</ele>
        <time>2018-02-09T12:02:08Z</time>
      </trkpt>
      <trkpt lat="45.92766" lon="4.72803">
        <ele>170</ele>
        <time>2018-02-09T12:02:10Z</time>
      </trkpt>
      <trkpt lat="45.92764" lon="4.72805">
        <ele>170</ele>
        <time>2018-02-09T12:02:11Z</time>
      </trkpt>
      <trkpt lat="45.92759" lon="4.72812">
        <ele>170</ele>
        <time>2018-02-09T12:02:13Z</time>
      </trkpt>
      <trkpt lat="45.92758" lon="4.72815">
        <ele>170</ele>
        <time>2018-02-09T12:02:14Z</time>
      </trkpt>
      <trkpt lat="45.92754" lon="4.72818">
        <ele>170</ele>
        <time>2018-02-09T12:02:15Z</time>
      </trkpt>
      <trkpt lat="45.92748" lon="4.72821">
        <ele>169</ele>
        <time>2018-02-09T12:02:16Z</time>
      </trkpt>
      <trkpt lat="45.92741" lon="4.72828">
        <ele>169</ele>
        <time>2018-02-09T12:02:18Z</time>
      </trkpt>
      <trkpt lat="45.92737" lon="4.72834">
        <ele>169</ele>
        <time>2018-02-09T12:02:19Z</time>
      </trkpt>
      <trkpt lat="45.92729" lon="4.72839">
        <ele>169</ele>
        <time>2018-02-09T12:02:21Z</time>
      </trkpt>
      <trkpt lat="45.92725" lon="4.72843">
        <ele>169</ele>
        <time>2018-02-09T12:02:22Z</time>
      </trkpt>
      <trkpt lat="45.92719" lon="4.72846">
        <ele>169</ele>
        <time>2018-02-09T12:02:23Z</time>
      </trkpt>
      <trkpt lat="45.92715" lon="4.72849">
        <ele>169</ele>
        <time>2018-02-09T12:02:24Z</time>
      </trkpt>
      <trkpt lat="45.9271" lon="4.72853">
        <ele>169</ele>
        <time>2018-02-09T12:02:25Z</time>
      </trkpt>
      <trkpt lat="45.92704" lon="4.72856">
        <ele>169</ele>
        <time>2018-02-09T12:02:26Z</time>
      </trkpt>
      <trkpt lat="45.92697" lon="4.72861">
        <ele>169</ele>
        <time>2018-02-09T12:02:28Z</time>
      </trkpt>
      <trkpt lat="45.92692" lon="4.72863">
        <ele>169</ele>
        <time>2018-02-09T12:02:29Z</time>
      </trkpt>
      <trkpt lat="45.92686" lon="4.72867">
        <ele>169</ele>
        <time>2018-02-09T12:02:30Z</time>
      </trkpt>
      <trkpt lat="45.92682" lon="4.72871">
        <ele>169</ele>
        <time>2018-02-09T12:02:31Z</time>
      </trkpt>
      <trkpt lat="45.92677" lon="4.72875">
        <ele>170</ele>
        <time>2018-02-09T12:02:32Z</time>
      </trkpt>
      <trkpt lat="45.92672" lon="4.72879">
        <ele>170</ele>
        <time>2018-02-09T12:02:33Z</time>
      </trkpt>
      <trkpt lat="45.92668" lon="4.72882">
        <ele>170</ele>
        <time>2018-02-09T12:02:34Z</time>
      </trkpt>
      <trkpt lat="45.92664" lon="4.72887">
        <ele>169</ele>
        <time>2018-02-09T12:02:35Z</time>
      </trkpt>
      <trkpt lat="45.92659" lon="4.72891">
        <ele>169</ele>
        <time>2018-02-09T12:02:36Z</time>
      </trkpt>
      <trkpt lat="45.92653" lon="4.72895">
        <ele>169</ele>
        <time>2018-02-09T12:02:37Z</time>
      </trkpt>
      <trkpt lat="45.92649" lon="4.72899">
        <ele>169</ele>
        <time>2018-02-09T12:02:38Z</time>
      </trkpt>
      <trkpt lat="45.92644" lon="4.72903">
        <ele>169</ele>
        <time>2018-02-09T12:02:39Z</time>
      </trkpt>
      <trkpt lat="45.92639" lon="4.72907">
        <ele>169</ele>
        <time>2018-02-09T12:02:40Z</time>
      </trkpt>
      <trkpt lat="45.92633" lon="4.72911">
        <ele>169</ele>
        <time>2018-02-09T12:02:41Z</time>
      </trkpt>
      <trkpt lat="45.92628" lon="4.72914">
        <ele>169</ele>
        <time>2018-02-09T12:02:42Z</time>
      </trkpt>
      <trkpt lat="45.92622" lon="4.72918">
        <ele>169</ele>
        <time>2018-02-09T12:02:43Z</time>
      </trkpt>
      <trkpt lat="45.92618" lon="4.72922">
        <ele>169</ele>
        <time>2018-02-09T12:02:44Z</time>
      </trkpt>
      <trkpt lat="45.92614" lon="4.72927">
        <ele>169</ele>
        <time>2018-02-09T12:02:45Z</time>
      </trkpt>
      <trkpt lat="45.92609" lon="4.72931">
        <ele>169</ele>
        <time>2018-02-09T12:02:46Z</time>
      </trkpt>
      <trkpt lat="45.92604" lon="4.72936">
        <ele>169</ele>
        <time>2018-02-09T12:02:47Z</time>
      </trkpt>
      <trkpt lat="45.92599" lon="4.72941">
        <ele>169</ele>
        <time>2018-02-09T12:02:48Z</time>
      </trkpt>
      <trkpt lat="45.92594" lon="4.72947">
        <ele>169</ele>
        <time>2018-02-09T12:02:49Z</time>
      </trkpt>
      <trkpt lat="45.92591" lon="4.72952">
        <ele>169</ele>
        <time>2018-02-09T12:02:50Z</time>
      </trkpt>
      <trkpt lat="45.92586" lon="4.72956">
        <ele>169</ele>
        <time>2018-02-09T12:02:51Z</time>
      </trkpt>
      <trkpt lat="45.92582" lon="4.72962">
        <ele>169</ele>
        <time>2018-02-09T12:02:52Z</time>
      </trkpt>
      <trkpt lat="45.92579" lon="4.72967">
        <ele>169</ele>
        <time>2018-02-09T12:02:53Z</time>
      </trkpt>
      <trkpt lat="45.92575" lon="4.72972">
        <ele>169</ele>
        <time>2018-02-09T12:02:54Z</time>
      </trkpt>
      <trkpt lat="45.92571" lon="4.72977">
        <ele>169</ele>
        <time>2018-02-09T12:02:55Z</time>
      </trkpt>
      <trkpt lat="45.92566" lon="4.72981">
        <ele>169</ele>
        <time>2018-02-09T12:02:56Z</time>
      </trkpt>
      <trkpt lat="45.92562" lon="4.72984">
        <ele>169</ele>
        <time>2018-02-09T12:02:57Z</time>
      </trkpt>
      <trkpt lat="45.92558" lon="4.72988">
        <ele>169</ele>
        <time>2018-02-09T12:02:58Z</time>
      </trkpt>
      <trkpt lat="45.92554" lon="4.72992">
        <ele>169</ele>
        <time>2018-02-09T12:02:59Z</time>
      </trkpt>
      <trkpt lat="45.9255" lon="4.72998">
        <ele>169</ele>
        <time>2018-02-09T12:03:00Z</time>
      </trkpt>
      <trkpt lat="45.92545" lon="4.73002">
        <ele>169</ele>
        <time>2018-02-09T12:03:01Z</time>
      </trkpt>
      <trkpt lat="45.92541" lon="4.73006">
        <ele>169</ele>
        <time>2018-02-09T12:03:02Z</time>
      </trkpt>
      <trkpt lat="45.92536" lon="4.7301">
        <ele>169</ele>
        <time>2018-02-09T12:03:03Z</time>
      </trkpt>
      <trkpt lat="45.92531" lon="4.73015">
        <ele>169</ele>
        <time>2018-02-09T12:03:04Z</time>
      </trkpt>
      <trkpt lat="45.92527" lon="4.73019">
        <ele>169</ele>
        <time>2018-02-09T12:03:05Z</time>
      </trkpt>
      <trkpt lat="45.92522" lon="4.73024">
        <ele>169</ele>
        <time>2018-02-09T12:03:06Z</time>
      </trkpt>
      <trkpt lat="45.92518" lon="4.73027">
        <ele>169</ele>
        <time>2018-02-09T12:03:07Z</time>
      </trkpt>
      <trkpt lat="45.92514" lon="4.73031">
        <ele>169</ele>
        <time>2018-02-09T12:03:08Z</time>
      </trkpt>
      <trkpt lat="45.92509" lon="4.73034">
        <ele>169</ele>
        <time>2018-02-09T12:03:09Z</time>
      </trkpt>
      <trkpt lat="45.92504" lon="4.73038">
        <ele>169</ele>
        <time>2018-02-09T12:03:10Z</time>
      </trkpt>
      <trkpt lat="45.92501" lon="4.73042">
        <ele>170</ele>
        <time>2018-02-09T12:03:11Z</time>
      </trkpt>
      <trkpt lat="45.92496" lon="4.73046">
        <ele>170</ele>
        <time>2018-02-09T12:03:12Z</time>
      </trkpt>
      <trkpt lat="45.92492" lon="4.73049">
        <ele>170</ele>
        <time>2018-02-09T12:03:13Z</time>
      </trkpt>
      <trkpt lat="45.92488" lon="4.73053">
        <ele>170</ele>
        <time>2018-02-09T12:03:14Z</time>
      </trkpt>
      <trkpt lat="45.92484" lon="4.73058">
        <ele>170</ele>
        <time>2018-02-09T12:03:15Z</time>
      </trkpt>
      <trkpt lat="45.92479" lon="4.73061">
        <ele>170</ele>
        <time>2018-02-09T12:03:16Z</time>
      </trkpt>
      <trkpt lat="45.92475" lon="4.73066">
        <ele>170</ele>
        <time>2018-02-09T12:03:17Z</time>
      </trkpt>
      <trkpt lat="45.92471" lon="4.7307">
        <ele>170</ele>
        <time>2018-02-09T12:03:18Z</time>
      </trkpt>
      <trkpt lat="45.92467" lon="4.73074">
        <ele>170</ele>
        <time>2018-02-09T12:03:19Z</time>
      </trkpt>
      <trkpt lat="45.92463" lon="4.73078">
        <ele>170</ele>
        <time>2018-02-09T12:03:20Z</time>
      </trkpt>
      <trkpt lat="45.92459" lon="4.73081">
        <ele>170</ele>
        <time>2018-02-09T12:03:21Z</time>
      </trkpt>
      <trkpt lat="45.92454" lon="4.73084">
        <ele>170</ele>
        <time>2018-02-09T12:03:22Z</time>
      </trkpt>
      <trkpt lat="45.9245" lon="4.73087">
        <ele>170</ele>
        <time>2018-02-09T12:03:23Z</time>
      </trkpt>
      <trkpt lat="45.92446" lon="4.7309">
        <ele>170</ele>
        <time>2018-02-09T12:03:24Z</time>
      </trkpt>
      <trkpt lat="45.92442" lon="4.73095">
        <ele>170</ele>
        <time>2018-02-09T12:03:25Z</time>
      </trkpt>
      <trkpt lat="45.92437" lon="4.73098">
        <ele>170</ele>
        <time>2018-02-09T12:03:26Z</time>
      </trkpt>
      <trkpt lat="45.92434" lon="4.73102">
        <ele>170</ele>
        <time>2018-02-09T12:03:27Z</time>
      </trkpt>
      <trkpt lat="45.92429" lon="4.73107">
        <ele>170</ele>
        <time>2018-02-09T12:03:28Z</time>
      </trkpt>
      <trkpt lat="45.92425" lon="4.7311">
        <ele>170</ele>
        <time>2018-02-09T12:03:29Z</time>
      </trkpt>
      <trkpt lat="45.9242" lon="4.73113">
        <ele>170</ele>
        <time>2018-02-09T12:03:30Z</time>
      </trkpt>
      <trkpt lat="45.92416" lon="4.73118">
        <ele>171</ele>
        <time>2018-02-09T12:03:31Z</time>
      </trkpt>
      <trkpt lat="45.92414" lon="4.73124">
        <ele>171</ele>
        <time>2018-02-09T12:03:32Z</time>
      </trkpt>
      <trkpt lat="45.92412" lon="4.73131">
        <ele>171</ele>
        <time>2018-02-09T12:03:33Z</time>
      </trkpt>
      <trkpt lat="45.92412" lon="4.73138">
        <ele>171</ele>
        <time>2018-02-09T12:03:34Z</time>
      </trkpt>
      <trkpt lat="45.92412" lon="4.73145">
        <ele>171</ele>
        <time>2018-02-09T12:03:35Z</time>
      </trkpt>
      <trkpt lat="45.92412" lon="4.73153">
        <ele>170</ele>
        <time>2018-02-09T12:03:36Z</time>
      </trkpt>
      <trkpt lat="45.92413" lon="4.7316">
        <ele>170</ele>
        <time>2018-02-09T12:03:37Z</time>
      </trkpt>
      <trkpt lat="45.92414" lon="4.73167">
        <ele>170</ele>
        <time>2018-02-09T12:03:38Z</time>
      </trkpt>
      <trkpt lat="45.92413" lon="4.73175">
        <ele>170</ele>
        <time>2018-02-09T12:03:39Z</time>
      </trkpt>
      <trkpt lat="45.92413" lon="4.73182">
        <ele>171</ele>
        <time>2018-02-09T12:03:40Z</time>
      </trkpt>
      <trkpt lat="45.92412" lon="4.7319">
        <ele>171</ele>
        <time>2018-02-09T12:03:41Z</time>
      </trkpt>
      <trkpt lat="45.92412" lon="4.73198">
        <ele>171</ele>
        <time>2018-02-09T12:03:42Z</time>
      </trkpt>
      <trkpt lat="45.92412" lon="4.73205">
        <ele>171</ele>
        <time>2018-02-09T12:03:43Z</time>
      </trkpt>
      <trkpt lat="45.92412" lon="4.73212">
        <ele>171</ele>
        <time>2018-02-09T12:03:44Z</time>
      </trkpt>
      <trkpt lat="45.92413" lon="4.7322">
        <ele>171</ele>
        <time>2018-02-09T12:03:45Z</time>
      </trkpt>
      <trkpt lat="45.92413" lon="4.73226">
        <ele>171</ele>
        <time>2018-02-09T12:03:46Z</time>
      </trkpt>
      <trkpt lat="45.92414" lon="4.73234">
        <ele>171</ele>
        <time>2018-02-09T12:03:47Z</time>
      </trkpt>
      <trkpt lat="45.92414" lon="4.73241">
        <ele>171</ele>
        <time>2018-02-09T12:03:48Z</time>
      </trkpt>
      <trkpt lat="45.92415" lon="4.73247">
        <ele>171</ele>
        <time>2018-02-09T12:03:49Z</time>
      </trkpt>
      <trkpt lat="45.92415" lon="4.73254">
        <ele>171</ele>
        <time>2018-02-09T12:03:50Z</time>
      </trkpt>
      <trkpt lat="45.92416" lon="4.73262">
        <ele>171</ele>
        <time>2018-02-09T12:03:51Z</time>
      </trkpt>
      <trkpt lat="45.92416" lon="4.73269">
        <ele>171</ele>
        <time>2018-02-09T12:03:52Z</time>
      </trkpt>
      <trkpt lat="45.92416" lon="4.73275">
        <ele>171</ele>
        <time>2018-02-09T12:03:53Z</time>
      </trkpt>
      <trkpt lat="45.92416" lon="4.73282">
        <ele>171</ele>
        <time>2018-02-09T12:03:54Z</time>
      </trkpt>
      <trkpt lat="45.92417" lon="4.73288">
        <ele>171</ele>
        <time>2018-02-09T12:03:55Z</time>
      </trkpt>
      <trkpt lat="45.92417" lon="4.73295">
        <ele>171</ele>
        <time>2018-02-09T12:03:56Z</time>
      </trkpt>
      <trkpt lat="45.92417" lon="4.73303">
        <ele>171</ele>
        <time>2018-02-09T12:03:57Z</time>
      </trkpt>
      <trkpt lat="45.92418" lon="4.7331">
        <ele>171</ele>
        <time>2018-02-09T12:03:58Z</time>
      </trkpt>
      <trkpt lat="45.92418" lon="4.73317">
        <ele>171</ele>
        <time>2018-02-09T12:03:59Z</time>
      </trkpt>
      <trkpt lat="45.92418" lon="4.73323">
        <ele>171</ele>
        <time>2018-02-09T12:04:00Z</time>
      </trkpt>
      <trkpt lat="45.92419" lon="4.7333">
        <ele>171</ele>
        <time>2018-02-09T12:04:01Z</time>
      </trkpt>
      <trkpt lat="45.9242" lon="4.73337">
        <ele>171</ele>
        <time>2018-02-09T12:04:02Z</time>
      </trkpt>
      <trkpt lat="45.92421" lon="4.73345">
        <ele>171</ele>
        <time>2018-02-09T12:04:03Z</time>
      </trkpt>
      <trkpt lat="45.92422" lon="4.73352">
        <ele>171</ele>
        <time>2018-02-09T12:04:04Z</time>
      </trkpt>
      <trkpt lat="45.92423" lon="4.7336">
        <ele>171</ele>
        <time>2018-02-09T12:04:05Z</time>
      </trkpt>
      <trkpt lat="45.92425" lon="4.73372">
        <ele>172</ele>
        <time>2018-02-09T12:04:07Z</time>
      </trkpt>
      <trkpt lat="45.92427" lon="4.7338">
        <ele>172</ele>
        <time>2018-02-09T12:04:08Z</time>
      </trkpt>
      <trkpt lat="45.92429" lon="4.73392">
        <ele>172</ele>
        <time>2018-02-09T12:04:10Z</time>
      </trkpt>
      <trkpt lat="45.92431" lon="4.73398">
        <ele>172</ele>
        <time>2018-02-09T12:04:11Z</time>
      </trkpt>
      <trkpt lat="45.92435" lon="4.73409">
        <ele>172</ele>
        <time>2018-02-09T12:04:13Z</time>
      </trkpt>
      <trkpt lat="45.92438" lon="4.73414">
        <ele>172</ele>
        <time>2018-02-09T12:04:14Z</time>
      </trkpt>
      <trkpt lat="45.92442" lon="4.73419">
        <ele>173</ele>
        <time>2018-02-09T12:04:15Z</time>
      </trkpt>
      <trkpt lat="45.92445" lon="4.73424">
        <ele>173</ele>
        <time>2018-02-09T12:04:16Z</time>
      </trkpt>
      <trkpt lat="45.92451" lon="4.73431">
        <ele>173</ele>
        <time>2018-02-09T12:04:18Z</time>
      </trkpt>
      <trkpt lat="45.92454" lon="4.73434">
        <ele>173</ele>
        <time>2018-02-09T12:04:19Z</time>
      </trkpt>
      <trkpt lat="45.92459" lon="4.73437">
        <ele>173</ele>
        <time>2018-02-09T12:04:21Z</time>
      </trkpt>
      <trkpt lat="45.92462" lon="4.73444">
        <ele>173</ele>
        <time>2018-02-09T12:04:22Z</time>
      </trkpt>
      <trkpt lat="45.92464" lon="4.73452">
        <ele>173</ele>
        <time>2018-02-09T12:04:23Z</time>
      </trkpt>
      <trkpt lat="45.92465" lon="4.73459">
        <ele>173</ele>
        <time>2018-02-09T12:04:24Z</time>
      </trkpt>
      <trkpt lat="45.92466" lon="4.73466">
        <ele>173</ele>
        <time>2018-02-09T12:04:25Z</time>
      </trkpt>
      <trkpt lat="45.92467" lon="4.73475">
        <ele>173</ele>
        <time>2018-02-09T12:04:26Z</time>
      </trkpt>
      <trkpt lat="45.92467" lon="4.73482">
        <ele>173</ele>
        <time>2018-02-09T12:04:27Z</time>
      </trkpt>
      <trkpt lat="45.92467" lon="4.73489">
        <ele>173</ele>
        <time>2018-02-09T12:04:28Z</time>
      </trkpt>
      <trkpt lat="45.92468" lon="4.73497">
        <ele>173</ele>
        <time>2018-02-09T12:04:29Z</time>
      </trkpt>
      <trkpt lat="45.92468" lon="4.73503">
        <ele>174</ele>
        <time>2018-02-09T12:04:30Z</time>
      </trkpt>
      <trkpt lat="45.92468" lon="4.7351">
        <ele>174</ele>
        <time>2018-02-09T12:04:31Z</time>
      </trkpt>
      <trkpt lat="45.92468" lon="4.73517">
        <ele>174</ele>
        <time>2018-02-09T12:04:32Z</time>
      </trkpt>
      <trkpt lat="45.92469" lon="4.73523">
        <ele>174</ele>
        <time>2018-02-09T12:04:33Z</time>
      </trkpt>
      <trkpt lat="45.92468" lon="4.7353">
        <ele>174</ele>
        <time>2018-02-09T12:04:34Z</time>
      </trkpt>
      <trkpt lat="45.92468" lon="4.7354">
        <ele>174</ele>
        <time>2018-02-09T12:04:36Z</time>
      </trkpt>
      <trkpt lat="45.92467" lon="4.73545">
        <ele>173</ele>
        <time>2018-02-09T12:04:37Z</time>
      </trkpt>
      <trkpt lat="45.92467" lon="4.73556">
        <ele>173</ele>
        <time>2018-02-09T12:04:39Z</time>
      </trkpt>
      <trkpt lat="45.92466" lon="4.73563">
        <ele>173</ele>
        <time>2018-02-09T12:04:40Z</time>
      </trkpt>
      <trkpt lat="45.92467" lon="4.73572">
        <ele>173</ele>
        <time>2018-02-09T12:04:41Z</time>
      </trkpt>
      <trkpt lat="45.92468" lon="4.73579">
        <ele>173</ele>
        <time>2018-02-09T12:04:42Z</time>
      </trkpt>
      <trkpt lat="45.92469" lon="4.73587">
        <ele>174</ele>
        <time>2018-02-09T12:04:43Z</time>
      </trkpt>
      <trkpt lat="45.9247" lon="4.73594">
        <ele>174</ele>
        <time>2018-02-09T12:04:44Z</time>
      </trkpt>
      <trkpt lat="45.9247" lon="4.73602">
        <ele>174</ele>
        <time>2018-02-09T12:04:45Z</time>
      </trkpt>
      <trkpt lat="45.9247" lon="4.73611">
        <ele>174</ele>
        <time>2018-02-09T12:04:46Z</time>
      </trkpt>
      <trkpt lat="45.9247" lon="4.73617">
        <ele>174</ele>
        <time>2018-02-09T12:04:47Z</time>
      </trkpt>
      <trkpt lat="45.92472" lon="4.73624">
        <ele>174</ele>
        <time>2018-02-09T12:04:48Z</time>
      </trkpt>
      <trkpt lat="45.92472" lon="4.73631">
        <ele>174</ele>
        <time>2018-02-09T12:04:49Z</time>
      </trkpt>
      <trkpt lat="45.92472" lon="4.73638">
        <ele>174</ele>
        <time>2018-02-09T12:04:50Z</time>
      </trkpt>
      <trkpt lat="45.92473" lon="4.7365">
        <ele>174</ele>
        <time>2018-02-09T12:04:52Z</time>
      </trkpt>
      <trkpt lat="45.92473" lon="4.73656">
        <ele>174</ele>
        <time>2018-02-09T12:04:53Z</time>
      </trkpt>
      <trkpt lat="45.92473" lon="4.73663">
        <ele>174</ele>
        <time>2018-02-09T12:04:54Z</time>
      </trkpt>
      <trkpt lat="45.92471" lon="4.73672">
        <ele>174</ele>
        <time>2018-02-09T12:04:55Z</time>
      </trkpt>
      <trkpt lat="45.92469" lon="4.73684">
        <ele>174</ele>
        <time>2018-02-09T12:04:57Z</time>
      </trkpt>
      <trkpt lat="45.92468" lon="4.7369">
        <ele>174</ele>
        <time>2018-02-09T12:04:58Z</time>
      </trkpt>
      <trkpt lat="45.92466" lon="4.73702">
        <ele>174</ele>
        <time>2018-02-09T12:05:01Z</time>
      </trkpt>
      <trkpt lat="45.92466" lon="4.73705">
        <ele>174</ele>
        <time>2018-02-09T12:05:02Z</time>
      </trkpt>
      <trkpt lat="45.9246" lon="4.7371">
        <ele>174</ele>
        <time>2018-02-09T12:05:56.614Z</time>
      </trkpt>
    </trkseg>
  </trk>
</gpx>